<?xml version="1.0" encoding="UTF-8" standalone="no" ?>
<gpx xmlns="http://www.topografix.com/GPX/1/1" xmlns:xsi="http://www.w3.org/2001/XMLSchema-instance" xsi:schemaLocation="http://www.topografix.com/GPX/1/1 http://www.topografix.com/GPX/1/1/gpx.xsd" version="1.1" creator="VisuGPX - https://www.visugpx.com">
  <metadata>
    <name>Portugal_full</name>
  </metadata>
  <trk>
    <name><![CDATA[Rias Baiona-Vigo-Pontevedra]]></name>
    <extensions>
      <line xmlns="http://www.topografix.com/GPX/gpx_style/0/2">
        <color>ff00d0</color>
        <width>4</width>
          <extensions>
            <sens>1</sens>
          </extensions>
      </line>
    </extensions>
    <trkseg>
      <trkpt lat="41.39341" lon="-8.77609">
        <ele>12.836</ele>
        <time>2018-07-28T10:11:00Z</time>
        <extensions>
          <visugpx:TrkExtension xmlns:visugpx="https://www.visugpx.com/editgpx/">
            <visugpx:node>3</visugpx:node>
            </visugpx:TrkExtension>
        </extensions>
      </trkpt>
      <trkpt lat="41.39346" lon="-8.77607">
        <ele>12.817</ele>
        <time>2018-07-28T10:11:04Z</time>
      </trkpt>
      <trkpt lat="41.39351" lon="-8.77605">
        <ele>12.818</ele>
        <time>2018-07-28T10:11:07Z</time>
      </trkpt>
      <trkpt lat="41.39355" lon="-8.77605">
        <ele>12.808</ele>
        <time>2018-07-28T10:11:15Z</time>
      </trkpt>
      <trkpt lat="41.3936" lon="-8.77605">
        <ele>12.865</ele>
        <time>2018-07-28T10:12:30Z</time>
      </trkpt>
      <trkpt lat="41.39363" lon="-8.7761">
        <ele>12.83</ele>
        <time>2018-07-28T10:12:57Z</time>
      </trkpt>
      <trkpt lat="41.39366" lon="-8.77615">
        <ele>12.833</ele>
        <time>2018-07-28T10:13:30Z</time>
      </trkpt>
      <trkpt lat="41.39365" lon="-8.77622">
        <ele>12.815</ele>
        <time>2018-07-28T10:13:41Z</time>
      </trkpt>
      <trkpt lat="41.39368" lon="-8.77627">
        <ele>12.83</ele>
        <time>2018-07-28T10:13:53Z</time>
      </trkpt>
      <trkpt lat="41.39372" lon="-8.7763">
        <ele>12.845</ele>
        <time>2018-07-28T10:13:56Z</time>
      </trkpt>
      <trkpt lat="41.39376" lon="-8.77635">
        <ele>12.883</ele>
        <time>2018-07-28T10:14:01Z</time>
      </trkpt>
      <trkpt lat="41.39376" lon="-8.77641">
        <ele>12.899</ele>
        <time>2018-07-28T10:14:04Z</time>
      </trkpt>
      <trkpt lat="41.3937" lon="-8.77642">
        <ele>12.771</ele>
        <time>2018-07-28T10:14:07Z</time>
      </trkpt>
      <trkpt lat="41.39363" lon="-8.77637">
        <ele>12.741</ele>
        <time>2018-07-28T10:14:09Z</time>
      </trkpt>
      <trkpt lat="41.39356" lon="-8.7763">
        <ele>12.815</ele>
        <time>2018-07-28T10:14:11Z</time>
      </trkpt>
      <trkpt lat="41.39352" lon="-8.77626">
        <ele>12.808</ele>
        <time>2018-07-28T10:14:12Z</time>
      </trkpt>
      <trkpt lat="41.39348" lon="-8.77621">
        <ele>12.849</ele>
        <time>2018-07-28T10:14:13Z</time>
      </trkpt>
      <trkpt lat="41.39343" lon="-8.77617">
        <ele>12.894</ele>
        <time>2018-07-28T10:14:14Z</time>
      </trkpt>
      <trkpt lat="41.39339" lon="-8.77612">
        <ele>12.887</ele>
        <time>2018-07-28T10:14:15Z</time>
      </trkpt>
      <trkpt lat="41.39335" lon="-8.77608">
        <ele>12.869</ele>
        <time>2018-07-28T10:14:16Z</time>
      </trkpt>
      <trkpt lat="41.39329" lon="-8.77603">
        <ele>12.874</ele>
        <time>2018-07-28T10:14:18Z</time>
      </trkpt>
      <trkpt lat="41.39322" lon="-8.77596">
        <ele>12.849</ele>
        <time>2018-07-28T10:14:20Z</time>
      </trkpt>
      <trkpt lat="41.39319" lon="-8.77589">
        <ele>12.847</ele>
        <time>2018-07-28T10:14:21Z</time>
      </trkpt>
      <trkpt lat="41.39318" lon="-8.77582">
        <ele>12.873</ele>
        <time>2018-07-28T10:14:22Z</time>
      </trkpt>
      <trkpt lat="41.39317" lon="-8.77575">
        <ele>12.925</ele>
        <time>2018-07-28T10:14:23Z</time>
      </trkpt>
      <trkpt lat="41.39317" lon="-8.77566">
        <ele>13.026</ele>
        <time>2018-07-28T10:14:24Z</time>
      </trkpt>
      <trkpt lat="41.39318" lon="-8.77558">
        <ele>13.108</ele>
        <time>2018-07-28T10:14:25Z</time>
      </trkpt>
      <trkpt lat="41.3932" lon="-8.7755">
        <ele>13.208</ele>
        <time>2018-07-28T10:14:26Z</time>
      </trkpt>
      <trkpt lat="41.39321" lon="-8.77543">
        <ele>13.244</ele>
        <time>2018-07-28T10:14:27Z</time>
      </trkpt>
      <trkpt lat="41.39322" lon="-8.77536">
        <ele>13.239</ele>
        <time>2018-07-28T10:14:28Z</time>
      </trkpt>
      <trkpt lat="41.39324" lon="-8.77529">
        <ele>13.192</ele>
        <time>2018-07-28T10:14:29Z</time>
      </trkpt>
      <trkpt lat="41.39325" lon="-8.77523">
        <ele>13.034</ele>
        <time>2018-07-28T10:14:30Z</time>
      </trkpt>
      <trkpt lat="41.39326" lon="-8.77516">
        <ele>12.939</ele>
        <time>2018-07-28T10:14:31Z</time>
      </trkpt>
      <trkpt lat="41.39328" lon="-8.77508">
        <ele>12.974</ele>
        <time>2018-07-28T10:14:32Z</time>
      </trkpt>
      <trkpt lat="41.39329" lon="-8.77498">
        <ele>12.932</ele>
        <time>2018-07-28T10:14:33Z</time>
      </trkpt>
      <trkpt lat="41.3933" lon="-8.7749">
        <ele>13.068</ele>
        <time>2018-07-28T10:14:34Z</time>
      </trkpt>
      <trkpt lat="41.39331" lon="-8.77481">
        <ele>13.075</ele>
        <time>2018-07-28T10:14:35Z</time>
      </trkpt>
      <trkpt lat="41.39331" lon="-8.77473">
        <ele>13.028</ele>
        <time>2018-07-28T10:14:36Z</time>
      </trkpt>
      <trkpt lat="41.39331" lon="-8.77466">
        <ele>13.02</ele>
        <time>2018-07-28T10:14:37Z</time>
      </trkpt>
      <trkpt lat="41.39331" lon="-8.77458">
        <ele>13.008</ele>
        <time>2018-07-28T10:14:38Z</time>
      </trkpt>
      <trkpt lat="41.39331" lon="-8.77451">
        <ele>13.089</ele>
        <time>2018-07-28T10:14:39Z</time>
      </trkpt>
      <trkpt lat="41.39332" lon="-8.77442">
        <ele>13.034</ele>
        <time>2018-07-28T10:14:40Z</time>
      </trkpt>
      <trkpt lat="41.39332" lon="-8.77435">
        <ele>12.927</ele>
        <time>2018-07-28T10:14:41Z</time>
      </trkpt>
      <trkpt lat="41.39331" lon="-8.77429">
        <ele>12.589</ele>
        <time>2018-07-28T10:14:48Z</time>
      </trkpt>
      <trkpt lat="41.39333" lon="-8.77423">
        <ele>12.174</ele>
        <time>2018-07-28T10:15:47Z</time>
      </trkpt>
      <trkpt lat="41.39335" lon="-8.77414">
        <ele>11.999</ele>
        <time>2018-07-28T10:16:02Z</time>
      </trkpt>
      <trkpt lat="41.39337" lon="-8.77402">
        <ele>12.077</ele>
        <time>2018-07-28T10:16:04Z</time>
      </trkpt>
      <trkpt lat="41.39338" lon="-8.77392">
        <ele>12.293</ele>
        <time>2018-07-28T10:16:05Z</time>
      </trkpt>
      <trkpt lat="41.39338" lon="-8.77382">
        <ele>12.316</ele>
        <time>2018-07-28T10:16:06Z</time>
      </trkpt>
      <trkpt lat="41.39339" lon="-8.77373">
        <ele>12.476</ele>
        <time>2018-07-28T10:16:07Z</time>
      </trkpt>
      <trkpt lat="41.3934" lon="-8.77363">
        <ele>12.513</ele>
        <time>2018-07-28T10:16:08Z</time>
      </trkpt>
      <trkpt lat="41.39341" lon="-8.77353">
        <ele>12.508</ele>
        <time>2018-07-28T10:16:09Z</time>
      </trkpt>
      <trkpt lat="41.39342" lon="-8.77342">
        <ele>12.573</ele>
        <time>2018-07-28T10:16:10Z</time>
      </trkpt>
      <trkpt lat="41.39343" lon="-8.77332">
        <ele>12.538</ele>
        <time>2018-07-28T10:16:11Z</time>
      </trkpt>
      <trkpt lat="41.39344" lon="-8.7732">
        <ele>12.511</ele>
        <time>2018-07-28T10:16:12Z</time>
      </trkpt>
      <trkpt lat="41.39345" lon="-8.77309">
        <ele>12.653</ele>
        <time>2018-07-28T10:16:13Z</time>
      </trkpt>
      <trkpt lat="41.39345" lon="-8.77298">
        <ele>12.738</ele>
        <time>2018-07-28T10:16:14Z</time>
      </trkpt>
      <trkpt lat="41.39347" lon="-8.77286">
        <ele>12.813</ele>
        <time>2018-07-28T10:16:15Z</time>
      </trkpt>
      <trkpt lat="41.39348" lon="-8.77276">
        <ele>12.951</ele>
        <time>2018-07-28T10:16:16Z</time>
      </trkpt>
      <trkpt lat="41.39349" lon="-8.77266">
        <ele>12.947</ele>
        <time>2018-07-28T10:16:17Z</time>
      </trkpt>
      <trkpt lat="41.3935" lon="-8.77257">
        <ele>12.987</ele>
        <time>2018-07-28T10:16:18Z</time>
      </trkpt>
      <trkpt lat="41.39351" lon="-8.77248">
        <ele>12.842</ele>
        <time>2018-07-28T10:16:19Z</time>
      </trkpt>
      <trkpt lat="41.39352" lon="-8.77241">
        <ele>12.726</ele>
        <time>2018-07-28T10:16:20Z</time>
      </trkpt>
      <trkpt lat="41.39352" lon="-8.7723">
        <ele>12.308</ele>
        <time>2018-07-28T10:16:22Z</time>
      </trkpt>
      <trkpt lat="41.39345" lon="-8.77221">
        <ele>12.25</ele>
        <time>2018-07-28T10:16:24Z</time>
      </trkpt>
      <trkpt lat="41.39339" lon="-8.77218">
        <ele>12.215</ele>
        <time>2018-07-28T10:16:25Z</time>
      </trkpt>
      <trkpt lat="41.39331" lon="-8.77214">
        <ele>12.318</ele>
        <time>2018-07-28T10:16:26Z</time>
      </trkpt>
      <trkpt lat="41.39321" lon="-8.77209">
        <ele>12.68</ele>
        <time>2018-07-28T10:16:27Z</time>
      </trkpt>
      <trkpt lat="41.39309" lon="-8.77204">
        <ele>13.025</ele>
        <time>2018-07-28T10:16:28Z</time>
      </trkpt>
      <trkpt lat="41.39295" lon="-8.77199">
        <ele>14.49</ele>
        <time>2018-07-28T10:16:29Z</time>
      </trkpt>
      <trkpt lat="41.39281" lon="-8.77194">
        <ele>15.168</ele>
        <time>2018-07-28T10:16:30Z</time>
      </trkpt>
      <trkpt lat="41.39266" lon="-8.77189">
        <ele>16.134</ele>
        <time>2018-07-28T10:16:31Z</time>
      </trkpt>
      <trkpt lat="41.39249" lon="-8.77185">
        <ele>17.172</ele>
        <time>2018-07-28T10:16:32Z</time>
      </trkpt>
      <trkpt lat="41.39228" lon="-8.7718">
        <ele>18.313</ele>
        <time>2018-07-28T10:16:33Z</time>
      </trkpt>
      <trkpt lat="41.39207" lon="-8.77176">
        <ele>19.614</ele>
        <time>2018-07-28T10:16:34Z</time>
      </trkpt>
      <trkpt lat="41.39183" lon="-8.77174">
        <ele>20.808</ele>
        <time>2018-07-28T10:16:35Z</time>
      </trkpt>
      <trkpt lat="41.39163" lon="-8.7717">
        <ele>21.759</ele>
        <time>2018-07-28T10:16:36Z</time>
      </trkpt>
      <trkpt lat="41.39145" lon="-8.77163">
        <ele>22.094</ele>
        <time>2018-07-28T10:16:37Z</time>
      </trkpt>
      <trkpt lat="41.39125" lon="-8.77157">
        <ele>22.077</ele>
        <time>2018-07-28T10:16:38Z</time>
      </trkpt>
      <trkpt lat="41.39107" lon="-8.77151">
        <ele>21.539</ele>
        <time>2018-07-28T10:16:39Z</time>
      </trkpt>
      <trkpt lat="41.39089" lon="-8.77145">
        <ele>20.974</ele>
        <time>2018-07-28T10:16:40Z</time>
      </trkpt>
      <trkpt lat="41.39072" lon="-8.77139">
        <ele>20.489</ele>
        <time>2018-07-28T10:16:41Z</time>
      </trkpt>
      <trkpt lat="41.39057" lon="-8.77133">
        <ele>20.127</ele>
        <time>2018-07-28T10:16:42Z</time>
      </trkpt>
      <trkpt lat="41.3904" lon="-8.77126">
        <ele>19.753</ele>
        <time>2018-07-28T10:16:43Z</time>
      </trkpt>
      <trkpt lat="41.39023" lon="-8.77121">
        <ele>19.276</ele>
        <time>2018-07-28T10:16:44Z</time>
      </trkpt>
      <trkpt lat="41.39006" lon="-8.77116">
        <ele>19.09</ele>
        <time>2018-07-28T10:16:45Z</time>
      </trkpt>
      <trkpt lat="41.3899" lon="-8.77112">
        <ele>18.619</ele>
        <time>2018-07-28T10:16:46Z</time>
      </trkpt>
      <trkpt lat="41.38979" lon="-8.77113">
        <ele>18.008</ele>
        <time>2018-07-28T10:16:47Z</time>
      </trkpt>
      <trkpt lat="41.38971" lon="-8.77112">
        <ele>17.459</ele>
        <time>2018-07-28T10:16:48Z</time>
      </trkpt>
      <trkpt lat="41.38966" lon="-8.77111">
        <ele>16.534</ele>
        <time>2018-07-28T10:16:49Z</time>
      </trkpt>
      <trkpt lat="41.38961" lon="-8.7711">
        <ele>15.477</ele>
        <time>2018-07-28T10:16:50Z</time>
      </trkpt>
      <trkpt lat="41.38955" lon="-8.77104">
        <ele>14.059</ele>
        <time>2018-07-28T10:16:52Z</time>
      </trkpt>
      <trkpt lat="41.3895" lon="-8.77101">
        <ele>13.214</ele>
        <time>2018-07-28T10:16:54Z</time>
      </trkpt>
      <trkpt lat="41.38948" lon="-8.77096">
        <ele>12.959</ele>
        <time>2018-07-28T10:16:56Z</time>
      </trkpt>
      <trkpt lat="41.38941" lon="-8.77092">
        <ele>13.077</ele>
        <time>2018-07-28T10:16:58Z</time>
      </trkpt>
      <trkpt lat="41.38937" lon="-8.7709">
        <ele>13.163</ele>
        <time>2018-07-28T10:16:59Z</time>
      </trkpt>
      <trkpt lat="41.38926" lon="-8.77087">
        <ele>13.213</ele>
        <time>2018-07-28T10:17:01Z</time>
      </trkpt>
      <trkpt lat="41.38918" lon="-8.77084">
        <ele>13.443</ele>
        <time>2018-07-28T10:17:02Z</time>
      </trkpt>
      <trkpt lat="41.38912" lon="-8.77073">
        <ele>13.607</ele>
        <time>2018-07-28T10:17:03Z</time>
      </trkpt>
      <trkpt lat="41.38904" lon="-8.77069">
        <ele>13.808</ele>
        <time>2018-07-28T10:17:04Z</time>
      </trkpt>
      <trkpt lat="41.38899" lon="-8.77065">
        <ele>14.173</ele>
        <time>2018-07-28T10:17:05Z</time>
      </trkpt>
      <trkpt lat="41.38901" lon="-8.77055">
        <ele>14.428</ele>
        <time>2018-07-28T10:17:06Z</time>
      </trkpt>
      <trkpt lat="41.38894" lon="-8.7705">
        <ele>14.681</ele>
        <time>2018-07-28T10:17:07Z</time>
      </trkpt>
      <trkpt lat="41.38887" lon="-8.77043">
        <ele>14.673</ele>
        <time>2018-07-28T10:17:08Z</time>
      </trkpt>
      <trkpt lat="41.3888" lon="-8.77034">
        <ele>14.718</ele>
        <time>2018-07-28T10:17:09Z</time>
      </trkpt>
      <trkpt lat="41.38872" lon="-8.77026">
        <ele>14.743</ele>
        <time>2018-07-28T10:17:10Z</time>
      </trkpt>
      <trkpt lat="41.38864" lon="-8.77017">
        <ele>14.821</ele>
        <time>2018-07-28T10:17:11Z</time>
      </trkpt>
      <trkpt lat="41.38852" lon="-8.77011">
        <ele>14.987</ele>
        <time>2018-07-28T10:17:12Z</time>
      </trkpt>
      <trkpt lat="41.38846" lon="-8.77003">
        <ele>15.017</ele>
        <time>2018-07-28T10:17:13Z</time>
      </trkpt>
      <trkpt lat="41.38841" lon="-8.76996">
        <ele>14.987</ele>
        <time>2018-07-28T10:17:14Z</time>
      </trkpt>
      <trkpt lat="41.38839" lon="-8.76987">
        <ele>14.715</ele>
        <time>2018-07-28T10:17:15Z</time>
      </trkpt>
      <trkpt lat="41.38836" lon="-8.76981">
        <ele>14.408</ele>
        <time>2018-07-28T10:17:16Z</time>
      </trkpt>
      <trkpt lat="41.38831" lon="-8.76972">
        <ele>13.923</ele>
        <time>2018-07-28T10:17:18Z</time>
      </trkpt>
      <trkpt lat="41.38828" lon="-8.76967">
        <ele>13.748</ele>
        <time>2018-07-28T10:17:19Z</time>
      </trkpt>
      <trkpt lat="41.38826" lon="-8.76956">
        <ele>13.671</ele>
        <time>2018-07-28T10:17:21Z</time>
      </trkpt>
      <trkpt lat="41.38825" lon="-8.7695">
        <ele>13.683</ele>
        <time>2018-07-28T10:17:22Z</time>
      </trkpt>
      <trkpt lat="41.38826" lon="-8.76942">
        <ele>13.658</ele>
        <time>2018-07-28T10:17:23Z</time>
      </trkpt>
      <trkpt lat="41.38821" lon="-8.76933">
        <ele>13.793</ele>
        <time>2018-07-28T10:17:24Z</time>
      </trkpt>
      <trkpt lat="41.3881" lon="-8.76923">
        <ele>13.941</ele>
        <time>2018-07-28T10:17:25Z</time>
      </trkpt>
      <trkpt lat="41.38803" lon="-8.7691">
        <ele>14.347</ele>
        <time>2018-07-28T10:17:26Z</time>
      </trkpt>
      <trkpt lat="41.38787" lon="-8.76904">
        <ele>15.057</ele>
        <time>2018-07-28T10:17:27Z</time>
      </trkpt>
      <trkpt lat="41.3878" lon="-8.7689">
        <ele>16.2</ele>
        <time>2018-07-28T10:17:28Z</time>
      </trkpt>
      <trkpt lat="41.38774" lon="-8.76878">
        <ele>16.22</ele>
        <time>2018-07-28T10:17:29Z</time>
      </trkpt>
      <trkpt lat="41.3877" lon="-8.7687">
        <ele>16.208</ele>
        <time>2018-07-28T10:17:30Z</time>
      </trkpt>
      <trkpt lat="41.38766" lon="-8.76862">
        <ele>15.777</ele>
        <time>2018-07-28T10:17:31Z</time>
      </trkpt>
      <trkpt lat="41.38769" lon="-8.76855">
        <ele>15.132</ele>
        <time>2018-07-28T10:17:32Z</time>
      </trkpt>
      <trkpt lat="41.3877" lon="-8.76844">
        <ele>14.445</ele>
        <time>2018-07-28T10:17:34Z</time>
      </trkpt>
      <trkpt lat="41.38773" lon="-8.76828">
        <ele>14.497</ele>
        <time>2018-07-28T10:17:35Z</time>
      </trkpt>
      <trkpt lat="41.38781" lon="-8.76816">
        <ele>14.592</ele>
        <time>2018-07-28T10:17:36Z</time>
      </trkpt>
      <trkpt lat="41.38786" lon="-8.76799">
        <ele>14.947</ele>
        <time>2018-07-28T10:17:37Z</time>
      </trkpt>
      <trkpt lat="41.38792" lon="-8.76781">
        <ele>15.525</ele>
        <time>2018-07-28T10:17:38Z</time>
      </trkpt>
      <trkpt lat="41.38798" lon="-8.76759">
        <ele>16.351</ele>
        <time>2018-07-28T10:17:39Z</time>
      </trkpt>
      <trkpt lat="41.38804" lon="-8.76738">
        <ele>17.413</ele>
        <time>2018-07-28T10:17:40Z</time>
      </trkpt>
      <trkpt lat="41.38809" lon="-8.76718">
        <ele>18.243</ele>
        <time>2018-07-28T10:17:41Z</time>
      </trkpt>
      <trkpt lat="41.38817" lon="-8.76703">
        <ele>18.907</ele>
        <time>2018-07-28T10:17:42Z</time>
      </trkpt>
      <trkpt lat="41.38825" lon="-8.76688">
        <ele>19.508</ele>
        <time>2018-07-28T10:17:43Z</time>
      </trkpt>
      <trkpt lat="41.38831" lon="-8.76675">
        <ele>19.593</ele>
        <time>2018-07-28T10:17:44Z</time>
      </trkpt>
      <trkpt lat="41.38838" lon="-8.76658">
        <ele>19.518</ele>
        <time>2018-07-28T10:17:45Z</time>
      </trkpt>
      <trkpt lat="41.38844" lon="-8.76643">
        <ele>19.431</ele>
        <time>2018-07-28T10:17:46Z</time>
      </trkpt>
      <trkpt lat="41.38848" lon="-8.76629">
        <ele>19.473</ele>
        <time>2018-07-28T10:17:47Z</time>
      </trkpt>
      <trkpt lat="41.38851" lon="-8.76618">
        <ele>19.268</ele>
        <time>2018-07-28T10:17:48Z</time>
      </trkpt>
      <trkpt lat="41.38854" lon="-8.76609">
        <ele>19.053</ele>
        <time>2018-07-28T10:17:49Z</time>
      </trkpt>
      <trkpt lat="41.3885" lon="-8.76595">
        <ele>18.461</ele>
        <time>2018-07-28T10:17:51Z</time>
      </trkpt>
      <trkpt lat="41.38847" lon="-8.76587">
        <ele>18.177</ele>
        <time>2018-07-28T10:17:52Z</time>
      </trkpt>
      <trkpt lat="41.38843" lon="-8.76577">
        <ele>17.928</ele>
        <time>2018-07-28T10:17:53Z</time>
      </trkpt>
      <trkpt lat="41.38842" lon="-8.76566">
        <ele>17.889</ele>
        <time>2018-07-28T10:17:54Z</time>
      </trkpt>
      <trkpt lat="41.38844" lon="-8.76552">
        <ele>17.817</ele>
        <time>2018-07-28T10:17:55Z</time>
      </trkpt>
      <trkpt lat="41.38854" lon="-8.76548">
        <ele>17.908</ele>
        <time>2018-07-28T10:17:56Z</time>
      </trkpt>
      <trkpt lat="41.3886" lon="-8.76541">
        <ele>18.414</ele>
        <time>2018-07-28T10:17:57Z</time>
      </trkpt>
      <trkpt lat="41.38865" lon="-8.76531">
        <ele>18.739</ele>
        <time>2018-07-28T10:17:58Z</time>
      </trkpt>
      <trkpt lat="41.38872" lon="-8.76521">
        <ele>19.082</ele>
        <time>2018-07-28T10:17:59Z</time>
      </trkpt>
      <trkpt lat="41.38876" lon="-8.76507">
        <ele>19.344</ele>
        <time>2018-07-28T10:18:00Z</time>
      </trkpt>
      <trkpt lat="41.38882" lon="-8.76491">
        <ele>19.719</ele>
        <time>2018-07-28T10:18:01Z</time>
      </trkpt>
      <trkpt lat="41.38886" lon="-8.76471">
        <ele>20.574</ele>
        <time>2018-07-28T10:18:02Z</time>
      </trkpt>
      <trkpt lat="41.38888" lon="-8.76454">
        <ele>21.152</ele>
        <time>2018-07-28T10:18:03Z</time>
      </trkpt>
      <trkpt lat="41.38893" lon="-8.76439">
        <ele>21.868</ele>
        <time>2018-07-28T10:18:04Z</time>
      </trkpt>
      <trkpt lat="41.38899" lon="-8.76426">
        <ele>22.256</ele>
        <time>2018-07-28T10:18:05Z</time>
      </trkpt>
      <trkpt lat="41.38907" lon="-8.76414">
        <ele>22.459</ele>
        <time>2018-07-28T10:18:06Z</time>
      </trkpt>
      <trkpt lat="41.38909" lon="-8.76401">
        <ele>22.414</ele>
        <time>2018-07-28T10:18:07Z</time>
      </trkpt>
      <trkpt lat="41.38913" lon="-8.76389">
        <ele>22.408</ele>
        <time>2018-07-28T10:18:08Z</time>
      </trkpt>
      <trkpt lat="41.38915" lon="-8.76377">
        <ele>22.427</ele>
        <time>2018-07-28T10:18:09Z</time>
      </trkpt>
      <trkpt lat="41.3892" lon="-8.76364">
        <ele>22.472</ele>
        <time>2018-07-28T10:18:10Z</time>
      </trkpt>
      <trkpt lat="41.38921" lon="-8.76356">
        <ele>22.465</ele>
        <time>2018-07-28T10:18:11Z</time>
      </trkpt>
      <trkpt lat="41.38924" lon="-8.76349">
        <ele>22.487</ele>
        <time>2018-07-28T10:18:12Z</time>
      </trkpt>
      <trkpt lat="41.38928" lon="-8.76343">
        <ele>22.312</ele>
        <time>2018-07-28T10:18:13Z</time>
      </trkpt>
      <trkpt lat="41.38932" lon="-8.76333">
        <ele>22.287</ele>
        <time>2018-07-28T10:18:15Z</time>
      </trkpt>
      <trkpt lat="41.38934" lon="-8.76327">
        <ele>22.395</ele>
        <time>2018-07-28T10:18:16Z</time>
      </trkpt>
      <trkpt lat="41.38935" lon="-8.76317">
        <ele>22.561</ele>
        <time>2018-07-28T10:18:18Z</time>
      </trkpt>
      <trkpt lat="41.38936" lon="-8.76306">
        <ele>22.753</ele>
        <time>2018-07-28T10:18:20Z</time>
      </trkpt>
      <trkpt lat="41.38938" lon="-8.763">
        <ele>22.804</ele>
        <time>2018-07-28T10:18:21Z</time>
      </trkpt>
      <trkpt lat="41.38942" lon="-8.76292">
        <ele>22.914</ele>
        <time>2018-07-28T10:18:22Z</time>
      </trkpt>
      <trkpt lat="41.38946" lon="-8.76283">
        <ele>23.108</ele>
        <time>2018-07-28T10:18:23Z</time>
      </trkpt>
      <trkpt lat="41.38949" lon="-8.76275">
        <ele>23.377</ele>
        <time>2018-07-28T10:18:24Z</time>
      </trkpt>
      <trkpt lat="41.38952" lon="-8.76266">
        <ele>23.572</ele>
        <time>2018-07-28T10:18:25Z</time>
      </trkpt>
      <trkpt lat="41.38954" lon="-8.76259">
        <ele>24.025</ele>
        <time>2018-07-28T10:18:26Z</time>
      </trkpt>
      <trkpt lat="41.38957" lon="-8.76251">
        <ele>24.377</ele>
        <time>2018-07-28T10:18:27Z</time>
      </trkpt>
      <trkpt lat="41.38961" lon="-8.76242">
        <ele>24.412</ele>
        <time>2018-07-28T10:18:28Z</time>
      </trkpt>
      <trkpt lat="41.38963" lon="-8.76233">
        <ele>24.577</ele>
        <time>2018-07-28T10:18:29Z</time>
      </trkpt>
      <trkpt lat="41.38966" lon="-8.76227">
        <ele>24.665</ele>
        <time>2018-07-28T10:18:30Z</time>
      </trkpt>
      <trkpt lat="41.38968" lon="-8.7622">
        <ele>24.631</ele>
        <time>2018-07-28T10:18:31Z</time>
      </trkpt>
      <trkpt lat="41.3897" lon="-8.76214">
        <ele>24.652</ele>
        <time>2018-07-28T10:18:32Z</time>
      </trkpt>
      <trkpt lat="41.38973" lon="-8.76208">
        <ele>24.753</ele>
        <time>2018-07-28T10:18:33Z</time>
      </trkpt>
      <trkpt lat="41.3897" lon="-8.76201">
        <ele>24.808</ele>
        <time>2018-07-28T10:18:34Z</time>
      </trkpt>
      <trkpt lat="41.38968" lon="-8.76192">
        <ele>25.008</ele>
        <time>2018-07-28T10:18:35Z</time>
      </trkpt>
      <trkpt lat="41.38969" lon="-8.76185">
        <ele>25.297</ele>
        <time>2018-07-28T10:18:36Z</time>
      </trkpt>
      <trkpt lat="41.3897" lon="-8.76177">
        <ele>25.412</ele>
        <time>2018-07-28T10:18:37Z</time>
      </trkpt>
      <trkpt lat="41.38976" lon="-8.76168">
        <ele>25.665</ele>
        <time>2018-07-28T10:18:39Z</time>
      </trkpt>
      <trkpt lat="41.38981" lon="-8.76166">
        <ele>25.797</ele>
        <time>2018-07-28T10:18:40Z</time>
      </trkpt>
      <trkpt lat="41.38987" lon="-8.76163">
        <ele>25.842</ele>
        <time>2018-07-28T10:18:41Z</time>
      </trkpt>
      <trkpt lat="41.38995" lon="-8.76157">
        <ele>25.927</ele>
        <time>2018-07-28T10:18:42Z</time>
      </trkpt>
      <trkpt lat="41.39002" lon="-8.76149">
        <ele>26.155</ele>
        <time>2018-07-28T10:18:43Z</time>
      </trkpt>
      <trkpt lat="41.39008" lon="-8.76141">
        <ele>26.331</ele>
        <time>2018-07-28T10:18:44Z</time>
      </trkpt>
      <trkpt lat="41.39014" lon="-8.76133">
        <ele>26.626</ele>
        <time>2018-07-28T10:18:45Z</time>
      </trkpt>
      <trkpt lat="41.39021" lon="-8.76126">
        <ele>26.747</ele>
        <time>2018-07-28T10:18:46Z</time>
      </trkpt>
      <trkpt lat="41.39027" lon="-8.76119">
        <ele>26.711</ele>
        <time>2018-07-28T10:18:47Z</time>
      </trkpt>
      <trkpt lat="41.39032" lon="-8.76114">
        <ele>26.708</ele>
        <time>2018-07-28T10:18:48Z</time>
      </trkpt>
      <trkpt lat="41.39037" lon="-8.76106">
        <ele>26.664</ele>
        <time>2018-07-28T10:18:49Z</time>
      </trkpt>
      <trkpt lat="41.39042" lon="-8.76101">
        <ele>26.459</ele>
        <time>2018-07-28T10:18:50Z</time>
      </trkpt>
      <trkpt lat="41.39048" lon="-8.76095">
        <ele>26.442</ele>
        <time>2018-07-28T10:18:51Z</time>
      </trkpt>
      <trkpt lat="41.39055" lon="-8.76085">
        <ele>26.544</ele>
        <time>2018-07-28T10:18:52Z</time>
      </trkpt>
      <trkpt lat="41.39062" lon="-8.76076">
        <ele>26.879</ele>
        <time>2018-07-28T10:18:53Z</time>
      </trkpt>
      <trkpt lat="41.39072" lon="-8.76066">
        <ele>27.124</ele>
        <time>2018-07-28T10:18:54Z</time>
      </trkpt>
      <trkpt lat="41.39081" lon="-8.76056">
        <ele>28.272</ele>
        <time>2018-07-28T10:18:55Z</time>
      </trkpt>
      <trkpt lat="41.39091" lon="-8.76044">
        <ele>28.948</ele>
        <time>2018-07-28T10:18:56Z</time>
      </trkpt>
      <trkpt lat="41.39105" lon="-8.7603">
        <ele>29.516</ele>
        <time>2018-07-28T10:18:57Z</time>
      </trkpt>
      <trkpt lat="41.39118" lon="-8.76014">
        <ele>30.476</ele>
        <time>2018-07-28T10:18:58Z</time>
      </trkpt>
      <trkpt lat="41.39134" lon="-8.75998">
        <ele>31.313</ele>
        <time>2018-07-28T10:18:59Z</time>
      </trkpt>
      <trkpt lat="41.3915" lon="-8.75982">
        <ele>32.208</ele>
        <time>2018-07-28T10:19:00Z</time>
      </trkpt>
      <trkpt lat="41.39165" lon="-8.75966">
        <ele>33.183</ele>
        <time>2018-07-28T10:19:01Z</time>
      </trkpt>
      <trkpt lat="41.39181" lon="-8.75951">
        <ele>34.128</ele>
        <time>2018-07-28T10:19:02Z</time>
      </trkpt>
      <trkpt lat="41.39198" lon="-8.75935">
        <ele>34.811</ele>
        <time>2018-07-28T10:19:03Z</time>
      </trkpt>
      <trkpt lat="41.39214" lon="-8.7592">
        <ele>35.363</ele>
        <time>2018-07-28T10:19:04Z</time>
      </trkpt>
      <trkpt lat="41.39232" lon="-8.75904">
        <ele>35.678</ele>
        <time>2018-07-28T10:19:05Z</time>
      </trkpt>
      <trkpt lat="41.39247" lon="-8.75889">
        <ele>35.723</ele>
        <time>2018-07-28T10:19:06Z</time>
      </trkpt>
      <trkpt lat="41.3926" lon="-8.75874">
        <ele>35.741</ele>
        <time>2018-07-28T10:19:07Z</time>
      </trkpt>
      <trkpt lat="41.39273" lon="-8.75861">
        <ele>35.217</ele>
        <time>2018-07-28T10:19:08Z</time>
      </trkpt>
      <trkpt lat="41.39286" lon="-8.75856">
        <ele>34.653</ele>
        <time>2018-07-28T10:19:09Z</time>
      </trkpt>
      <trkpt lat="41.39297" lon="-8.75843">
        <ele>32.904</ele>
        <time>2018-07-28T10:19:10Z</time>
      </trkpt>
      <trkpt lat="41.39306" lon="-8.75834">
        <ele>32.114</ele>
        <time>2018-07-28T10:19:11Z</time>
      </trkpt>
      <trkpt lat="41.39311" lon="-8.75825">
        <ele>31.408</ele>
        <time>2018-07-28T10:19:12Z</time>
      </trkpt>
      <trkpt lat="41.39318" lon="-8.7582">
        <ele>30.777</ele>
        <time>2018-07-28T10:19:13Z</time>
      </trkpt>
      <trkpt lat="41.39325" lon="-8.75813">
        <ele>30.182</ele>
        <time>2018-07-28T10:19:14Z</time>
      </trkpt>
      <trkpt lat="41.3933" lon="-8.75808">
        <ele>29.515</ele>
        <time>2018-07-28T10:19:15Z</time>
      </trkpt>
      <trkpt lat="41.39334" lon="-8.75804">
        <ele>29.097</ele>
        <time>2018-07-28T10:19:16Z</time>
      </trkpt>
      <trkpt lat="41.39338" lon="-8.75799">
        <ele>28.792</ele>
        <time>2018-07-28T10:19:17Z</time>
      </trkpt>
      <trkpt lat="41.39342" lon="-8.75794">
        <ele>28.517</ele>
        <time>2018-07-28T10:19:18Z</time>
      </trkpt>
      <trkpt lat="41.39348" lon="-8.75789">
        <ele>28.485</ele>
        <time>2018-07-28T10:19:19Z</time>
      </trkpt>
      <trkpt lat="41.39353" lon="-8.75782">
        <ele>28.421</ele>
        <time>2018-07-28T10:19:20Z</time>
      </trkpt>
      <trkpt lat="41.39359" lon="-8.75776">
        <ele>28.437</ele>
        <time>2018-07-28T10:19:21Z</time>
      </trkpt>
      <trkpt lat="41.39363" lon="-8.75767">
        <ele>28.549</ele>
        <time>2018-07-28T10:19:22Z</time>
      </trkpt>
      <trkpt lat="41.39367" lon="-8.75762">
        <ele>28.613</ele>
        <time>2018-07-28T10:19:23Z</time>
      </trkpt>
      <trkpt lat="41.39369" lon="-8.75754">
        <ele>28.708</ele>
        <time>2018-07-28T10:19:24Z</time>
      </trkpt>
      <trkpt lat="41.39371" lon="-8.75742">
        <ele>28.815</ele>
        <time>2018-07-28T10:19:25Z</time>
      </trkpt>
      <trkpt lat="41.39373" lon="-8.75732">
        <ele>28.92</ele>
        <time>2018-07-28T10:19:26Z</time>
      </trkpt>
      <trkpt lat="41.39378" lon="-8.75724">
        <ele>29.043</ele>
        <time>2018-07-28T10:19:27Z</time>
      </trkpt>
      <trkpt lat="41.39385" lon="-8.75721">
        <ele>29.185</ele>
        <time>2018-07-28T10:19:28Z</time>
      </trkpt>
      <trkpt lat="41.39396" lon="-8.7572">
        <ele>29.37</ele>
        <time>2018-07-28T10:19:29Z</time>
      </trkpt>
      <trkpt lat="41.39407" lon="-8.75721">
        <ele>29.585</ele>
        <time>2018-07-28T10:19:30Z</time>
      </trkpt>
      <trkpt lat="41.39416" lon="-8.75718">
        <ele>29.823</ele>
        <time>2018-07-28T10:19:31Z</time>
      </trkpt>
      <trkpt lat="41.39426" lon="-8.75714">
        <ele>29.969</ele>
        <time>2018-07-28T10:19:32Z</time>
      </trkpt>
      <trkpt lat="41.39436" lon="-8.75705">
        <ele>30.079</ele>
        <time>2018-07-28T10:19:33Z</time>
      </trkpt>
      <trkpt lat="41.39448" lon="-8.75695">
        <ele>30.205</ele>
        <time>2018-07-28T10:19:34Z</time>
      </trkpt>
      <trkpt lat="41.3946" lon="-8.75679">
        <ele>30.425</ele>
        <time>2018-07-28T10:19:35Z</time>
      </trkpt>
      <trkpt lat="41.39476" lon="-8.75665">
        <ele>31.308</ele>
        <time>2018-07-28T10:19:36Z</time>
      </trkpt>
      <trkpt lat="41.3949" lon="-8.75647">
        <ele>33.129</ele>
        <time>2018-07-28T10:19:37Z</time>
      </trkpt>
      <trkpt lat="41.39507" lon="-8.75632">
        <ele>34.924</ele>
        <time>2018-07-28T10:19:38Z</time>
      </trkpt>
      <trkpt lat="41.39523" lon="-8.75616">
        <ele>37.777</ele>
        <time>2018-07-28T10:19:39Z</time>
      </trkpt>
      <trkpt lat="41.39537" lon="-8.75603">
        <ele>38.739</ele>
        <time>2018-07-28T10:19:40Z</time>
      </trkpt>
      <trkpt lat="41.39555" lon="-8.75585">
        <ele>39.164</ele>
        <time>2018-07-28T10:19:41Z</time>
      </trkpt>
      <trkpt lat="41.39573" lon="-8.75567">
        <ele>39.219</ele>
        <time>2018-07-28T10:19:42Z</time>
      </trkpt>
      <trkpt lat="41.39589" lon="-8.7555">
        <ele>39.387</ele>
        <time>2018-07-28T10:19:43Z</time>
      </trkpt>
      <trkpt lat="41.39602" lon="-8.75533">
        <ele>39.373</ele>
        <time>2018-07-28T10:19:44Z</time>
      </trkpt>
      <trkpt lat="41.39615" lon="-8.75516">
        <ele>38.973</ele>
        <time>2018-07-28T10:19:45Z</time>
      </trkpt>
      <trkpt lat="41.39628" lon="-8.755">
        <ele>38.285</ele>
        <time>2018-07-28T10:19:46Z</time>
      </trkpt>
      <trkpt lat="41.39641" lon="-8.75482">
        <ele>37.613</ele>
        <time>2018-07-28T10:19:47Z</time>
      </trkpt>
      <trkpt lat="41.39655" lon="-8.75462">
        <ele>37.608</ele>
        <time>2018-07-28T10:19:48Z</time>
      </trkpt>
      <trkpt lat="41.3967" lon="-8.7544">
        <ele>37.869</ele>
        <time>2018-07-28T10:19:49Z</time>
      </trkpt>
      <trkpt lat="41.39685" lon="-8.75413">
        <ele>38.564</ele>
        <time>2018-07-28T10:19:50Z</time>
      </trkpt>
      <trkpt lat="41.39699" lon="-8.7539">
        <ele>39.297</ele>
        <time>2018-07-28T10:19:51Z</time>
      </trkpt>
      <trkpt lat="41.39708" lon="-8.75366">
        <ele>39.659</ele>
        <time>2018-07-28T10:19:52Z</time>
      </trkpt>
      <trkpt lat="41.39719" lon="-8.75344">
        <ele>39.684</ele>
        <time>2018-07-28T10:19:53Z</time>
      </trkpt>
      <trkpt lat="41.39729" lon="-8.75322">
        <ele>38.999</ele>
        <time>2018-07-28T10:19:54Z</time>
      </trkpt>
      <trkpt lat="41.39737" lon="-8.753">
        <ele>38.387</ele>
        <time>2018-07-28T10:19:55Z</time>
      </trkpt>
      <trkpt lat="41.39747" lon="-8.75279">
        <ele>38.043</ele>
        <time>2018-07-28T10:19:56Z</time>
      </trkpt>
      <trkpt lat="41.39755" lon="-8.75256">
        <ele>38.087</ele>
        <time>2018-07-28T10:19:57Z</time>
      </trkpt>
      <trkpt lat="41.39763" lon="-8.75234">
        <ele>38.042</ele>
        <time>2018-07-28T10:19:58Z</time>
      </trkpt>
      <trkpt lat="41.39772" lon="-8.75211">
        <ele>38.126</ele>
        <time>2018-07-28T10:19:59Z</time>
      </trkpt>
      <trkpt lat="41.39779" lon="-8.75187">
        <ele>38.408</ele>
        <time>2018-07-28T10:20:00Z</time>
      </trkpt>
      <trkpt lat="41.39789" lon="-8.75162">
        <ele>38.61</ele>
        <time>2018-07-28T10:20:01Z</time>
      </trkpt>
      <trkpt lat="41.39798" lon="-8.75137">
        <ele>39.015</ele>
        <time>2018-07-28T10:20:02Z</time>
      </trkpt>
      <trkpt lat="41.39807" lon="-8.75114">
        <ele>39.288</ele>
        <time>2018-07-28T10:20:03Z</time>
      </trkpt>
      <trkpt lat="41.39814" lon="-8.75092">
        <ele>39.41</ele>
        <time>2018-07-28T10:20:04Z</time>
      </trkpt>
      <trkpt lat="41.39823" lon="-8.75069">
        <ele>39.875</ele>
        <time>2018-07-28T10:20:05Z</time>
      </trkpt>
      <trkpt lat="41.39829" lon="-8.75048">
        <ele>40.28</ele>
        <time>2018-07-28T10:20:06Z</time>
      </trkpt>
      <trkpt lat="41.39836" lon="-8.75028">
        <ele>40.318</ele>
        <time>2018-07-28T10:20:07Z</time>
      </trkpt>
      <trkpt lat="41.39845" lon="-8.75007">
        <ele>41.334</ele>
        <time>2018-07-28T10:20:08Z</time>
      </trkpt>
      <trkpt lat="41.39854" lon="-8.74987">
        <ele>41.972</ele>
        <time>2018-07-28T10:20:09Z</time>
      </trkpt>
      <trkpt lat="41.39861" lon="-8.74966">
        <ele>42.513</ele>
        <time>2018-07-28T10:20:10Z</time>
      </trkpt>
      <trkpt lat="41.3987" lon="-8.74944">
        <ele>43.214</ele>
        <time>2018-07-28T10:20:11Z</time>
      </trkpt>
      <trkpt lat="41.39878" lon="-8.74922">
        <ele>43.608</ele>
        <time>2018-07-28T10:20:12Z</time>
      </trkpt>
      <trkpt lat="41.39884" lon="-8.74903">
        <ele>43.679</ele>
        <time>2018-07-28T10:20:13Z</time>
      </trkpt>
      <trkpt lat="41.3989" lon="-8.74884">
        <ele>43.644</ele>
        <time>2018-07-28T10:20:14Z</time>
      </trkpt>
      <trkpt lat="41.39897" lon="-8.74869">
        <ele>43.377</ele>
        <time>2018-07-28T10:20:15Z</time>
      </trkpt>
      <trkpt lat="41.39903" lon="-8.74853">
        <ele>42.969</ele>
        <time>2018-07-28T10:20:16Z</time>
      </trkpt>
      <trkpt lat="41.39909" lon="-8.74841">
        <ele>42.614</ele>
        <time>2018-07-28T10:20:17Z</time>
      </trkpt>
      <trkpt lat="41.39915" lon="-8.74829">
        <ele>42.099</ele>
        <time>2018-07-28T10:20:18Z</time>
      </trkpt>
      <trkpt lat="41.39921" lon="-8.74818">
        <ele>41.697</ele>
        <time>2018-07-28T10:20:19Z</time>
      </trkpt>
      <trkpt lat="41.39925" lon="-8.74806">
        <ele>41.163</ele>
        <time>2018-07-28T10:20:20Z</time>
      </trkpt>
      <trkpt lat="41.39932" lon="-8.74798">
        <ele>40.644</ele>
        <time>2018-07-28T10:20:21Z</time>
      </trkpt>
      <trkpt lat="41.39933" lon="-8.74789">
        <ele>40.105</ele>
        <time>2018-07-28T10:20:22Z</time>
      </trkpt>
      <trkpt lat="41.39935" lon="-8.7478">
        <ele>39.315</ele>
        <time>2018-07-28T10:20:23Z</time>
      </trkpt>
      <trkpt lat="41.39938" lon="-8.74774">
        <ele>38.908</ele>
        <time>2018-07-28T10:20:24Z</time>
      </trkpt>
      <trkpt lat="41.39946" lon="-8.74773">
        <ele>38.636</ele>
        <time>2018-07-28T10:20:25Z</time>
      </trkpt>
      <trkpt lat="41.39956" lon="-8.74779">
        <ele>38.471</ele>
        <time>2018-07-28T10:20:26Z</time>
      </trkpt>
      <trkpt lat="41.39965" lon="-8.7479">
        <ele>38.274</ele>
        <time>2018-07-28T10:20:27Z</time>
      </trkpt>
      <trkpt lat="41.39975" lon="-8.74801">
        <ele>38.246</ele>
        <time>2018-07-28T10:20:28Z</time>
      </trkpt>
      <trkpt lat="41.39985" lon="-8.74811">
        <ele>38.351</ele>
        <time>2018-07-28T10:20:29Z</time>
      </trkpt>
      <trkpt lat="41.39995" lon="-8.74819">
        <ele>38.336</ele>
        <time>2018-07-28T10:20:30Z</time>
      </trkpt>
      <trkpt lat="41.40003" lon="-8.7483">
        <ele>38.394</ele>
        <time>2018-07-28T10:20:31Z</time>
      </trkpt>
      <trkpt lat="41.40011" lon="-8.74844">
        <ele>38.27</ele>
        <time>2018-07-28T10:20:32Z</time>
      </trkpt>
      <trkpt lat="41.40018" lon="-8.74859">
        <ele>38.061</ele>
        <time>2018-07-28T10:20:33Z</time>
      </trkpt>
      <trkpt lat="41.40017" lon="-8.74879">
        <ele>37.721</ele>
        <time>2018-07-28T10:20:34Z</time>
      </trkpt>
      <trkpt lat="41.40019" lon="-8.74896">
        <ele>37.313</ele>
        <time>2018-07-28T10:20:35Z</time>
      </trkpt>
      <trkpt lat="41.40015" lon="-8.74913">
        <ele>36.908</ele>
        <time>2018-07-28T10:20:36Z</time>
      </trkpt>
      <trkpt lat="41.40015" lon="-8.7493">
        <ele>36.188</ele>
        <time>2018-07-28T10:20:37Z</time>
      </trkpt>
      <trkpt lat="41.40016" lon="-8.74946">
        <ele>35.693</ele>
        <time>2018-07-28T10:20:38Z</time>
      </trkpt>
      <trkpt lat="41.40016" lon="-8.74962">
        <ele>35.196</ele>
        <time>2018-07-28T10:20:39Z</time>
      </trkpt>
      <trkpt lat="41.40018" lon="-8.74979">
        <ele>34.888</ele>
        <time>2018-07-28T10:20:40Z</time>
      </trkpt>
      <trkpt lat="41.40022" lon="-8.74995">
        <ele>34.623</ele>
        <time>2018-07-28T10:20:41Z</time>
      </trkpt>
      <trkpt lat="41.40031" lon="-8.75009">
        <ele>34.438</ele>
        <time>2018-07-28T10:20:42Z</time>
      </trkpt>
      <trkpt lat="41.40047" lon="-8.75023">
        <ele>34.426</ele>
        <time>2018-07-28T10:20:43Z</time>
      </trkpt>
      <trkpt lat="41.40063" lon="-8.75038">
        <ele>34.912</ele>
        <time>2018-07-28T10:20:44Z</time>
      </trkpt>
      <trkpt lat="41.40078" lon="-8.75051">
        <ele>35.673</ele>
        <time>2018-07-28T10:20:45Z</time>
      </trkpt>
      <trkpt lat="41.40093" lon="-8.75065">
        <ele>36.185</ele>
        <time>2018-07-28T10:20:46Z</time>
      </trkpt>
      <trkpt lat="41.4011" lon="-8.75081">
        <ele>36.713</ele>
        <time>2018-07-28T10:20:47Z</time>
      </trkpt>
      <trkpt lat="41.40127" lon="-8.75097">
        <ele>37.408</ele>
        <time>2018-07-28T10:20:48Z</time>
      </trkpt>
      <trkpt lat="41.40144" lon="-8.75114">
        <ele>38.129</ele>
        <time>2018-07-28T10:20:49Z</time>
      </trkpt>
      <trkpt lat="41.40161" lon="-8.75135">
        <ele>39.034</ele>
        <time>2018-07-28T10:20:50Z</time>
      </trkpt>
      <trkpt lat="41.4018" lon="-8.75157">
        <ele>40.127</ele>
        <time>2018-07-28T10:20:51Z</time>
      </trkpt>
      <trkpt lat="41.402" lon="-8.75184">
        <ele>44.119</ele>
        <time>2018-07-28T10:20:52Z</time>
      </trkpt>
      <trkpt lat="41.40223" lon="-8.75208">
        <ele>46.324</ele>
        <time>2018-07-28T10:20:53Z</time>
      </trkpt>
      <trkpt lat="41.40245" lon="-8.75237">
        <ele>48.069</ele>
        <time>2018-07-28T10:20:54Z</time>
      </trkpt>
      <trkpt lat="41.40265" lon="-8.75267">
        <ele>49.147</ele>
        <time>2018-07-28T10:20:55Z</time>
      </trkpt>
      <trkpt lat="41.40285" lon="-8.75297">
        <ele>50.213</ele>
        <time>2018-07-28T10:20:56Z</time>
      </trkpt>
      <trkpt lat="41.40306" lon="-8.75328">
        <ele>50.973</ele>
        <time>2018-07-28T10:20:57Z</time>
      </trkpt>
      <trkpt lat="41.40327" lon="-8.75361">
        <ele>52.085</ele>
        <time>2018-07-28T10:20:58Z</time>
      </trkpt>
      <trkpt lat="41.40347" lon="-8.75395">
        <ele>53.313</ele>
        <time>2018-07-28T10:20:59Z</time>
      </trkpt>
      <trkpt lat="41.40368" lon="-8.75427">
        <ele>54.408</ele>
        <time>2018-07-28T10:21:00Z</time>
      </trkpt>
      <trkpt lat="41.40388" lon="-8.75459">
        <ele>55.049</ele>
        <time>2018-07-28T10:21:01Z</time>
      </trkpt>
      <trkpt lat="41.40408" lon="-8.75492">
        <ele>55.134</ele>
        <time>2018-07-28T10:21:02Z</time>
      </trkpt>
      <trkpt lat="41.4043" lon="-8.75524">
        <ele>55.147</ele>
        <time>2018-07-28T10:21:03Z</time>
      </trkpt>
      <trkpt lat="41.40451" lon="-8.75556">
        <ele>54.639</ele>
        <time>2018-07-28T10:21:04Z</time>
      </trkpt>
      <trkpt lat="41.40471" lon="-8.7559">
        <ele>54.644</ele>
        <time>2018-07-28T10:21:05Z</time>
      </trkpt>
      <trkpt lat="41.40493" lon="-8.75623">
        <ele>55.689</ele>
        <time>2018-07-28T10:21:06Z</time>
      </trkpt>
      <trkpt lat="41.40515" lon="-8.75657">
        <ele>57.627</ele>
        <time>2018-07-28T10:21:07Z</time>
      </trkpt>
      <trkpt lat="41.40538" lon="-8.75691">
        <ele>57.763</ele>
        <time>2018-07-28T10:21:08Z</time>
      </trkpt>
      <trkpt lat="41.40559" lon="-8.75725">
        <ele>57.949</ele>
        <time>2018-07-28T10:21:09Z</time>
      </trkpt>
      <trkpt lat="41.40582" lon="-8.75758">
        <ele>57.902</ele>
        <time>2018-07-28T10:21:10Z</time>
      </trkpt>
      <trkpt lat="41.40604" lon="-8.75791">
        <ele>57.522</ele>
        <time>2018-07-28T10:21:11Z</time>
      </trkpt>
      <trkpt lat="41.40626" lon="-8.75825">
        <ele>57.508</ele>
        <time>2018-07-28T10:21:12Z</time>
      </trkpt>
      <trkpt lat="41.4065" lon="-8.75855">
        <ele>58.276</ele>
        <time>2018-07-28T10:21:13Z</time>
      </trkpt>
      <trkpt lat="41.40673" lon="-8.75886">
        <ele>58.571</ele>
        <time>2018-07-28T10:21:14Z</time>
      </trkpt>
      <trkpt lat="41.40698" lon="-8.75914">
        <ele>58.584</ele>
        <time>2018-07-28T10:21:15Z</time>
      </trkpt>
      <trkpt lat="41.40725" lon="-8.75939">
        <ele>58.596</ele>
        <time>2018-07-28T10:21:16Z</time>
      </trkpt>
      <trkpt lat="41.40751" lon="-8.75966">
        <ele>58.011</ele>
        <time>2018-07-28T10:21:17Z</time>
      </trkpt>
      <trkpt lat="41.40778" lon="-8.7599">
        <ele>58.066</ele>
        <time>2018-07-28T10:21:18Z</time>
      </trkpt>
      <trkpt lat="41.40807" lon="-8.76011">
        <ele>58.244</ele>
        <time>2018-07-28T10:21:19Z</time>
      </trkpt>
      <trkpt lat="41.40837" lon="-8.76028">
        <ele>58.29</ele>
        <time>2018-07-28T10:21:20Z</time>
      </trkpt>
      <trkpt lat="41.40867" lon="-8.76044">
        <ele>57.982</ele>
        <time>2018-07-28T10:21:21Z</time>
      </trkpt>
      <trkpt lat="41.40899" lon="-8.76056">
        <ele>57.943</ele>
        <time>2018-07-28T10:21:22Z</time>
      </trkpt>
      <trkpt lat="41.40932" lon="-8.76066">
        <ele>57.917</ele>
        <time>2018-07-28T10:21:23Z</time>
      </trkpt>
      <trkpt lat="41.40965" lon="-8.76073">
        <ele>58.208</ele>
        <time>2018-07-28T10:21:24Z</time>
      </trkpt>
      <trkpt lat="41.40998" lon="-8.7608">
        <ele>59.04</ele>
        <time>2018-07-28T10:21:25Z</time>
      </trkpt>
      <trkpt lat="41.41032" lon="-8.76085">
        <ele>59.725</ele>
        <time>2018-07-28T10:21:26Z</time>
      </trkpt>
      <trkpt lat="41.41066" lon="-8.76087">
        <ele>60.388</ele>
        <time>2018-07-28T10:21:27Z</time>
      </trkpt>
      <trkpt lat="41.41099" lon="-8.76083">
        <ele>60.84</ele>
        <time>2018-07-28T10:21:28Z</time>
      </trkpt>
      <trkpt lat="41.41133" lon="-8.76075">
        <ele>61.295</ele>
        <time>2018-07-28T10:21:29Z</time>
      </trkpt>
      <trkpt lat="41.41166" lon="-8.76065">
        <ele>61.77</ele>
        <time>2018-07-28T10:21:30Z</time>
      </trkpt>
      <trkpt lat="41.41198" lon="-8.76052">
        <ele>61.818</ele>
        <time>2018-07-28T10:21:31Z</time>
      </trkpt>
      <trkpt lat="41.4123" lon="-8.76038">
        <ele>62.264</ele>
        <time>2018-07-28T10:21:32Z</time>
      </trkpt>
      <trkpt lat="41.41262" lon="-8.76021">
        <ele>62.456</ele>
        <time>2018-07-28T10:21:33Z</time>
      </trkpt>
      <trkpt lat="41.41295" lon="-8.76001">
        <ele>62.759</ele>
        <time>2018-07-28T10:21:34Z</time>
      </trkpt>
      <trkpt lat="41.41327" lon="-8.7598">
        <ele>64.214</ele>
        <time>2018-07-28T10:21:35Z</time>
      </trkpt>
      <trkpt lat="41.41359" lon="-8.75957">
        <ele>65.008</ele>
        <time>2018-07-28T10:21:36Z</time>
      </trkpt>
      <trkpt lat="41.4139" lon="-8.75932">
        <ele>66.137</ele>
        <time>2018-07-28T10:21:37Z</time>
      </trkpt>
      <trkpt lat="41.41423" lon="-8.75909">
        <ele>66.962</ele>
        <time>2018-07-28T10:21:38Z</time>
      </trkpt>
      <trkpt lat="41.41453" lon="-8.75885">
        <ele>68.025</ele>
        <time>2018-07-28T10:21:39Z</time>
      </trkpt>
      <trkpt lat="41.41485" lon="-8.75859">
        <ele>68.187</ele>
        <time>2018-07-28T10:21:40Z</time>
      </trkpt>
      <trkpt lat="41.41515" lon="-8.75836">
        <ele>68.652</ele>
        <time>2018-07-28T10:21:41Z</time>
      </trkpt>
      <trkpt lat="41.41546" lon="-8.7581">
        <ele>69.137</ele>
        <time>2018-07-28T10:21:42Z</time>
      </trkpt>
      <trkpt lat="41.41576" lon="-8.75785">
        <ele>69.135</ele>
        <time>2018-07-28T10:21:43Z</time>
      </trkpt>
      <trkpt lat="41.41607" lon="-8.75761">
        <ele>69.081</ele>
        <time>2018-07-28T10:21:44Z</time>
      </trkpt>
      <trkpt lat="41.41637" lon="-8.75738">
        <ele>68.966</ele>
        <time>2018-07-28T10:21:45Z</time>
      </trkpt>
      <trkpt lat="41.41666" lon="-8.75714">
        <ele>68.829</ele>
        <time>2018-07-28T10:21:46Z</time>
      </trkpt>
      <trkpt lat="41.41697" lon="-8.75691">
        <ele>68.721</ele>
        <time>2018-07-28T10:21:47Z</time>
      </trkpt>
      <trkpt lat="41.41727" lon="-8.75667">
        <ele>68.608</ele>
        <time>2018-07-28T10:21:48Z</time>
      </trkpt>
      <trkpt lat="41.41758" lon="-8.75643">
        <ele>68.678</ele>
        <time>2018-07-28T10:21:49Z</time>
      </trkpt>
      <trkpt lat="41.41788" lon="-8.7562">
        <ele>68.273</ele>
        <time>2018-07-28T10:21:50Z</time>
      </trkpt>
      <trkpt lat="41.41817" lon="-8.75597">
        <ele>67.866</ele>
        <time>2018-07-28T10:21:51Z</time>
      </trkpt>
      <trkpt lat="41.41847" lon="-8.75574">
        <ele>67.628</ele>
        <time>2018-07-28T10:21:52Z</time>
      </trkpt>
      <trkpt lat="41.41877" lon="-8.75551">
        <ele>67.283</ele>
        <time>2018-07-28T10:21:53Z</time>
      </trkpt>
      <trkpt lat="41.41906" lon="-8.75525">
        <ele>67.138</ele>
        <time>2018-07-28T10:21:54Z</time>
      </trkpt>
      <trkpt lat="41.41935" lon="-8.75504">
        <ele>66.326</ele>
        <time>2018-07-28T10:21:55Z</time>
      </trkpt>
      <trkpt lat="41.41963" lon="-8.75481">
        <ele>65.592</ele>
        <time>2018-07-28T10:21:56Z</time>
      </trkpt>
      <trkpt lat="41.41991" lon="-8.75455">
        <ele>65.233</ele>
        <time>2018-07-28T10:21:57Z</time>
      </trkpt>
      <trkpt lat="41.42019" lon="-8.75426">
        <ele>65.223</ele>
        <time>2018-07-28T10:21:58Z</time>
      </trkpt>
      <trkpt lat="41.42048" lon="-8.75397">
        <ele>65.415</ele>
        <time>2018-07-28T10:21:59Z</time>
      </trkpt>
      <trkpt lat="41.42076" lon="-8.75367">
        <ele>66.308</ele>
        <time>2018-07-28T10:22:00Z</time>
      </trkpt>
      <trkpt lat="41.42102" lon="-8.75335">
        <ele>67.445</ele>
        <time>2018-07-28T10:22:01Z</time>
      </trkpt>
      <trkpt lat="41.42128" lon="-8.75303">
        <ele>68.89</ele>
        <time>2018-07-28T10:22:02Z</time>
      </trkpt>
      <trkpt lat="41.42153" lon="-8.75269">
        <ele>70.113</ele>
        <time>2018-07-28T10:22:03Z</time>
      </trkpt>
      <trkpt lat="41.42179" lon="-8.75237">
        <ele>71.245</ele>
        <time>2018-07-28T10:22:04Z</time>
      </trkpt>
      <trkpt lat="41.42205" lon="-8.75203">
        <ele>71.47</ele>
        <time>2018-07-28T10:22:05Z</time>
      </trkpt>
      <trkpt lat="41.42228" lon="-8.75173">
        <ele>70.985</ele>
        <time>2018-07-28T10:22:06Z</time>
      </trkpt>
      <trkpt lat="41.42252" lon="-8.75141">
        <ele>70.453</ele>
        <time>2018-07-28T10:22:07Z</time>
      </trkpt>
      <trkpt lat="41.42278" lon="-8.75108">
        <ele>70.029</ele>
        <time>2018-07-28T10:22:08Z</time>
      </trkpt>
      <trkpt lat="41.42303" lon="-8.75076">
        <ele>70.065</ele>
        <time>2018-07-28T10:22:09Z</time>
      </trkpt>
      <trkpt lat="41.42328" lon="-8.75043">
        <ele>70.568</ele>
        <time>2018-07-28T10:22:10Z</time>
      </trkpt>
      <trkpt lat="41.42352" lon="-8.7501">
        <ele>71.214</ele>
        <time>2018-07-28T10:22:11Z</time>
      </trkpt>
      <trkpt lat="41.42378" lon="-8.74975">
        <ele>71.708</ele>
        <time>2018-07-28T10:22:12Z</time>
      </trkpt>
      <trkpt lat="41.42405" lon="-8.74944">
        <ele>72.788</ele>
        <time>2018-07-28T10:22:13Z</time>
      </trkpt>
      <trkpt lat="41.42431" lon="-8.7491">
        <ele>73.863</ele>
        <time>2018-07-28T10:22:14Z</time>
      </trkpt>
      <trkpt lat="41.42458" lon="-8.74877">
        <ele>74.596</ele>
        <time>2018-07-28T10:22:15Z</time>
      </trkpt>
      <trkpt lat="41.42485" lon="-8.74845">
        <ele>75.188</ele>
        <time>2018-07-28T10:22:16Z</time>
      </trkpt>
      <trkpt lat="41.42512" lon="-8.74817">
        <ele>75.953</ele>
        <time>2018-07-28T10:22:17Z</time>
      </trkpt>
      <trkpt lat="41.4254" lon="-8.74786">
        <ele>76.598</ele>
        <time>2018-07-28T10:22:18Z</time>
      </trkpt>
      <trkpt lat="41.42568" lon="-8.74756">
        <ele>76.656</ele>
        <time>2018-07-28T10:22:19Z</time>
      </trkpt>
      <trkpt lat="41.42597" lon="-8.74731">
        <ele>76.942</ele>
        <time>2018-07-28T10:22:20Z</time>
      </trkpt>
      <trkpt lat="41.42627" lon="-8.74705">
        <ele>76.696</ele>
        <time>2018-07-28T10:22:21Z</time>
      </trkpt>
      <trkpt lat="41.42657" lon="-8.74684">
        <ele>76.031</ele>
        <time>2018-07-28T10:22:22Z</time>
      </trkpt>
      <trkpt lat="41.42687" lon="-8.7466">
        <ele>75.824</ele>
        <time>2018-07-28T10:22:23Z</time>
      </trkpt>
      <trkpt lat="41.42719" lon="-8.74639">
        <ele>75.508</ele>
        <time>2018-07-28T10:22:24Z</time>
      </trkpt>
      <trkpt lat="41.42753" lon="-8.74621">
        <ele>75.441</ele>
        <time>2018-07-28T10:22:25Z</time>
      </trkpt>
      <trkpt lat="41.42787" lon="-8.74603">
        <ele>75.426</ele>
        <time>2018-07-28T10:22:26Z</time>
      </trkpt>
      <trkpt lat="41.42821" lon="-8.74588">
        <ele>75.739</ele>
        <time>2018-07-28T10:22:27Z</time>
      </trkpt>
      <trkpt lat="41.42855" lon="-8.74571">
        <ele>76.181</ele>
        <time>2018-07-28T10:22:28Z</time>
      </trkpt>
      <trkpt lat="41.42888" lon="-8.74555">
        <ele>76.326</ele>
        <time>2018-07-28T10:22:29Z</time>
      </trkpt>
      <trkpt lat="41.42921" lon="-8.74538">
        <ele>76.951</ele>
        <time>2018-07-28T10:22:30Z</time>
      </trkpt>
      <trkpt lat="41.42953" lon="-8.7452">
        <ele>76.979</ele>
        <time>2018-07-28T10:22:31Z</time>
      </trkpt>
      <trkpt lat="41.42984" lon="-8.74504">
        <ele>76.765</ele>
        <time>2018-07-28T10:22:32Z</time>
      </trkpt>
      <trkpt lat="41.43011" lon="-8.74488">
        <ele>75.562</ele>
        <time>2018-07-28T10:22:33Z</time>
      </trkpt>
      <trkpt lat="41.43036" lon="-8.74471">
        <ele>74.083</ele>
        <time>2018-07-28T10:22:34Z</time>
      </trkpt>
      <trkpt lat="41.43057" lon="-8.74456">
        <ele>68.111</ele>
        <time>2018-07-28T10:22:35Z</time>
      </trkpt>
      <trkpt lat="41.43081" lon="-8.74446">
        <ele>65.708</ele>
        <time>2018-07-28T10:22:36Z</time>
      </trkpt>
      <trkpt lat="41.43105" lon="-8.74433">
        <ele>63.548</ele>
        <time>2018-07-28T10:22:37Z</time>
      </trkpt>
      <trkpt lat="41.4313" lon="-8.74422">
        <ele>61.943</ele>
        <time>2018-07-28T10:22:38Z</time>
      </trkpt>
      <trkpt lat="41.43159" lon="-8.74413">
        <ele>61.176</ele>
        <time>2018-07-28T10:22:39Z</time>
      </trkpt>
      <trkpt lat="41.43186" lon="-8.74399">
        <ele>61.118</ele>
        <time>2018-07-28T10:22:40Z</time>
      </trkpt>
      <trkpt lat="41.43216" lon="-8.74382">
        <ele>61.453</ele>
        <time>2018-07-28T10:22:41Z</time>
      </trkpt>
      <trkpt lat="41.43246" lon="-8.74365">
        <ele>62.518</ele>
        <time>2018-07-28T10:22:42Z</time>
      </trkpt>
      <trkpt lat="41.43277" lon="-8.74346">
        <ele>64.056</ele>
        <time>2018-07-28T10:22:43Z</time>
      </trkpt>
      <trkpt lat="41.43308" lon="-8.74328">
        <ele>66.172</ele>
        <time>2018-07-28T10:22:44Z</time>
      </trkpt>
      <trkpt lat="41.43339" lon="-8.74307">
        <ele>68.173</ele>
        <time>2018-07-28T10:22:45Z</time>
      </trkpt>
      <trkpt lat="41.43369" lon="-8.74286">
        <ele>69.485</ele>
        <time>2018-07-28T10:22:46Z</time>
      </trkpt>
      <trkpt lat="41.43401" lon="-8.74262">
        <ele>70.513</ele>
        <time>2018-07-28T10:22:47Z</time>
      </trkpt>
      <trkpt lat="41.43432" lon="-8.74241">
        <ele>70.508</ele>
        <time>2018-07-28T10:22:48Z</time>
      </trkpt>
      <trkpt lat="41.43462" lon="-8.74221">
        <ele>70.899</ele>
        <time>2018-07-28T10:22:49Z</time>
      </trkpt>
      <trkpt lat="41.43493" lon="-8.74196">
        <ele>71.034</ele>
        <time>2018-07-28T10:22:50Z</time>
      </trkpt>
      <trkpt lat="41.43524" lon="-8.74173">
        <ele>71.267</ele>
        <time>2018-07-28T10:22:51Z</time>
      </trkpt>
      <trkpt lat="41.43555" lon="-8.74148">
        <ele>71.439</ele>
        <time>2018-07-28T10:22:52Z</time>
      </trkpt>
      <trkpt lat="41.43587" lon="-8.74124">
        <ele>71.494</ele>
        <time>2018-07-28T10:22:53Z</time>
      </trkpt>
      <trkpt lat="41.43621" lon="-8.741">
        <ele>71.439</ele>
        <time>2018-07-28T10:22:54Z</time>
      </trkpt>
      <trkpt lat="41.43655" lon="-8.74078">
        <ele>71.557</ele>
        <time>2018-07-28T10:22:55Z</time>
      </trkpt>
      <trkpt lat="41.43688" lon="-8.74053">
        <ele>71.643</ele>
        <time>2018-07-28T10:22:56Z</time>
      </trkpt>
      <trkpt lat="41.43722" lon="-8.7403">
        <ele>71.738</ele>
        <time>2018-07-28T10:22:57Z</time>
      </trkpt>
      <trkpt lat="41.43754" lon="-8.74008">
        <ele>72.77</ele>
        <time>2018-07-28T10:22:58Z</time>
      </trkpt>
      <trkpt lat="41.4379" lon="-8.73987">
        <ele>73.717</ele>
        <time>2018-07-28T10:22:59Z</time>
      </trkpt>
      <trkpt lat="41.43823" lon="-8.73965">
        <ele>73.708</ele>
        <time>2018-07-28T10:23:00Z</time>
      </trkpt>
      <trkpt lat="41.43857" lon="-8.73945">
        <ele>73.795</ele>
        <time>2018-07-28T10:23:01Z</time>
      </trkpt>
      <trkpt lat="41.43892" lon="-8.73926">
        <ele>73.61</ele>
        <time>2018-07-28T10:23:02Z</time>
      </trkpt>
      <trkpt lat="41.43925" lon="-8.73904">
        <ele>73.543</ele>
        <time>2018-07-28T10:23:03Z</time>
      </trkpt>
      <trkpt lat="41.43958" lon="-8.73884">
        <ele>72.535</ele>
        <time>2018-07-28T10:23:04Z</time>
      </trkpt>
      <trkpt lat="41.43992" lon="-8.73863">
        <ele>72.74</ele>
        <time>2018-07-28T10:23:05Z</time>
      </trkpt>
      <trkpt lat="41.44027" lon="-8.7384">
        <ele>73.065</ele>
        <time>2018-07-28T10:23:06Z</time>
      </trkpt>
      <trkpt lat="41.44062" lon="-8.7382">
        <ele>73.723</ele>
        <time>2018-07-28T10:23:07Z</time>
      </trkpt>
      <trkpt lat="41.44099" lon="-8.738">
        <ele>74.729</ele>
        <time>2018-07-28T10:23:08Z</time>
      </trkpt>
      <trkpt lat="41.44134" lon="-8.73782">
        <ele>75.698</ele>
        <time>2018-07-28T10:23:09Z</time>
      </trkpt>
      <trkpt lat="41.44172" lon="-8.73765">
        <ele>76.815</ele>
        <time>2018-07-28T10:23:10Z</time>
      </trkpt>
      <trkpt lat="41.44209" lon="-8.73746">
        <ele>77.426</ele>
        <time>2018-07-28T10:23:11Z</time>
      </trkpt>
      <trkpt lat="41.44244" lon="-8.73728">
        <ele>78.008</ele>
        <time>2018-07-28T10:23:12Z</time>
      </trkpt>
      <trkpt lat="41.4428" lon="-8.7371">
        <ele>78.361</ele>
        <time>2018-07-28T10:23:13Z</time>
      </trkpt>
      <trkpt lat="41.44315" lon="-8.73691">
        <ele>78.316</ele>
        <time>2018-07-28T10:23:14Z</time>
      </trkpt>
      <trkpt lat="41.4435" lon="-8.73675">
        <ele>78.149</ele>
        <time>2018-07-28T10:23:15Z</time>
      </trkpt>
      <trkpt lat="41.44385" lon="-8.73652">
        <ele>78.151</ele>
        <time>2018-07-28T10:23:16Z</time>
      </trkpt>
      <trkpt lat="41.4442" lon="-8.73631">
        <ele>78.116</ele>
        <time>2018-07-28T10:23:17Z</time>
      </trkpt>
      <trkpt lat="41.44455" lon="-8.7361">
        <ele>78.411</ele>
        <time>2018-07-28T10:23:18Z</time>
      </trkpt>
      <trkpt lat="41.4449" lon="-8.73589">
        <ele>79.229</ele>
        <time>2018-07-28T10:23:19Z</time>
      </trkpt>
      <trkpt lat="41.44527" lon="-8.73569">
        <ele>79.415</ele>
        <time>2018-07-28T10:23:20Z</time>
      </trkpt>
      <trkpt lat="41.44561" lon="-8.73546">
        <ele>79.757</ele>
        <time>2018-07-28T10:23:21Z</time>
      </trkpt>
      <trkpt lat="41.44595" lon="-8.73521">
        <ele>80</ele>
        <time>2018-07-28T10:23:22Z</time>
      </trkpt>
      <trkpt lat="41.44629" lon="-8.73498">
        <ele>80.82</ele>
        <time>2018-07-28T10:23:23Z</time>
      </trkpt>
      <trkpt lat="41.44663" lon="-8.73474">
        <ele>81.208</ele>
        <time>2018-07-28T10:23:24Z</time>
      </trkpt>
      <trkpt lat="41.44696" lon="-8.73449">
        <ele>81.657</ele>
        <time>2018-07-28T10:23:25Z</time>
      </trkpt>
      <trkpt lat="41.44729" lon="-8.73424">
        <ele>81.982</ele>
        <time>2018-07-28T10:23:26Z</time>
      </trkpt>
      <trkpt lat="41.44761" lon="-8.734">
        <ele>81.925</ele>
        <time>2018-07-28T10:23:27Z</time>
      </trkpt>
      <trkpt lat="41.44794" lon="-8.73377">
        <ele>82.067</ele>
        <time>2018-07-28T10:23:28Z</time>
      </trkpt>
      <trkpt lat="41.44823" lon="-8.73353">
        <ele>82.622</ele>
        <time>2018-07-28T10:23:29Z</time>
      </trkpt>
      <trkpt lat="41.44855" lon="-8.73331">
        <ele>82.747</ele>
        <time>2018-07-28T10:23:30Z</time>
      </trkpt>
      <trkpt lat="41.44887" lon="-8.73311">
        <ele>82.785</ele>
        <time>2018-07-28T10:23:31Z</time>
      </trkpt>
      <trkpt lat="41.44918" lon="-8.73291">
        <ele>82.331</ele>
        <time>2018-07-28T10:23:32Z</time>
      </trkpt>
      <trkpt lat="41.44948" lon="-8.73273">
        <ele>80.655</ele>
        <time>2018-07-28T10:23:33Z</time>
      </trkpt>
      <trkpt lat="41.44978" lon="-8.73256">
        <ele>80.207</ele>
        <time>2018-07-28T10:23:34Z</time>
      </trkpt>
      <trkpt lat="41.4501" lon="-8.73242">
        <ele>80.117</ele>
        <time>2018-07-28T10:23:35Z</time>
      </trkpt>
      <trkpt lat="41.45043" lon="-8.73231">
        <ele>80.108</ele>
        <time>2018-07-28T10:23:36Z</time>
      </trkpt>
      <trkpt lat="41.45078" lon="-8.73223">
        <ele>80.587</ele>
        <time>2018-07-28T10:23:37Z</time>
      </trkpt>
      <trkpt lat="41.45113" lon="-8.73215">
        <ele>81.092</ele>
        <time>2018-07-28T10:23:38Z</time>
      </trkpt>
      <trkpt lat="41.45148" lon="-8.7321">
        <ele>81.385</ele>
        <time>2018-07-28T10:23:39Z</time>
      </trkpt>
      <trkpt lat="41.45183" lon="-8.73207">
        <ele>81.437</ele>
        <time>2018-07-28T10:23:40Z</time>
      </trkpt>
      <trkpt lat="41.45218" lon="-8.73205">
        <ele>81.922</ele>
        <time>2018-07-28T10:23:41Z</time>
      </trkpt>
      <trkpt lat="41.45253" lon="-8.73206">
        <ele>82.197</ele>
        <time>2018-07-28T10:23:42Z</time>
      </trkpt>
      <trkpt lat="41.45288" lon="-8.7321">
        <ele>82.265</ele>
        <time>2018-07-28T10:23:43Z</time>
      </trkpt>
      <trkpt lat="41.45323" lon="-8.73213">
        <ele>82.451</ele>
        <time>2018-07-28T10:23:44Z</time>
      </trkpt>
      <trkpt lat="41.45358" lon="-8.73217">
        <ele>83.112</ele>
        <time>2018-07-28T10:23:45Z</time>
      </trkpt>
      <trkpt lat="41.45393" lon="-8.73221">
        <ele>83.232</ele>
        <time>2018-07-28T10:23:46Z</time>
      </trkpt>
      <trkpt lat="41.45426" lon="-8.73228">
        <ele>83.205</ele>
        <time>2018-07-28T10:23:47Z</time>
      </trkpt>
      <trkpt lat="41.45462" lon="-8.73234">
        <ele>83.108</ele>
        <time>2018-07-28T10:23:48Z</time>
      </trkpt>
      <trkpt lat="41.45496" lon="-8.73247">
        <ele>82.723</ele>
        <time>2018-07-28T10:23:49Z</time>
      </trkpt>
      <trkpt lat="41.4553" lon="-8.73273">
        <ele>82.538</ele>
        <time>2018-07-28T10:23:50Z</time>
      </trkpt>
      <trkpt lat="41.45566" lon="-8.73291">
        <ele>82.561</ele>
        <time>2018-07-28T10:23:51Z</time>
      </trkpt>
      <trkpt lat="41.45601" lon="-8.73312">
        <ele>82.673</ele>
        <time>2018-07-28T10:23:52Z</time>
      </trkpt>
      <trkpt lat="41.45634" lon="-8.73335">
        <ele>82.658</ele>
        <time>2018-07-28T10:23:53Z</time>
      </trkpt>
      <trkpt lat="41.45668" lon="-8.73358">
        <ele>82.753</ele>
        <time>2018-07-28T10:23:54Z</time>
      </trkpt>
      <trkpt lat="41.457" lon="-8.73382">
        <ele>82.841</ele>
        <time>2018-07-28T10:23:55Z</time>
      </trkpt>
      <trkpt lat="41.45734" lon="-8.73407">
        <ele>82.967</ele>
        <time>2018-07-28T10:23:56Z</time>
      </trkpt>
      <trkpt lat="41.45768" lon="-8.73431">
        <ele>83.091</ele>
        <time>2018-07-28T10:23:57Z</time>
      </trkpt>
      <trkpt lat="41.45802" lon="-8.73454">
        <ele>83.081</ele>
        <time>2018-07-28T10:23:58Z</time>
      </trkpt>
      <trkpt lat="41.45835" lon="-8.73477">
        <ele>82.619</ele>
        <time>2018-07-28T10:23:59Z</time>
      </trkpt>
      <trkpt lat="41.45869" lon="-8.735">
        <ele>82.108</ele>
        <time>2018-07-28T10:24:00Z</time>
      </trkpt>
      <trkpt lat="41.45903" lon="-8.73523">
        <ele>81.651</ele>
        <time>2018-07-28T10:24:01Z</time>
      </trkpt>
      <trkpt lat="41.45937" lon="-8.73545">
        <ele>80.656</ele>
        <time>2018-07-28T10:24:02Z</time>
      </trkpt>
      <trkpt lat="41.45971" lon="-8.73568">
        <ele>79.619</ele>
        <time>2018-07-28T10:24:03Z</time>
      </trkpt>
      <trkpt lat="41.46005" lon="-8.73591">
        <ele>79.111</ele>
        <time>2018-07-28T10:24:04Z</time>
      </trkpt>
      <trkpt lat="41.46039" lon="-8.73614">
        <ele>78.746</ele>
        <time>2018-07-28T10:24:05Z</time>
      </trkpt>
      <trkpt lat="41.46073" lon="-8.73636">
        <ele>78.451</ele>
        <time>2018-07-28T10:24:06Z</time>
      </trkpt>
      <trkpt lat="41.46107" lon="-8.73658">
        <ele>78.199</ele>
        <time>2018-07-28T10:24:07Z</time>
      </trkpt>
      <trkpt lat="41.4614" lon="-8.7368">
        <ele>77.655</ele>
        <time>2018-07-28T10:24:08Z</time>
      </trkpt>
      <trkpt lat="41.46173" lon="-8.73704">
        <ele>76.538</ele>
        <time>2018-07-28T10:24:09Z</time>
      </trkpt>
      <trkpt lat="41.46205" lon="-8.73725">
        <ele>75.57</ele>
        <time>2018-07-28T10:24:10Z</time>
      </trkpt>
      <trkpt lat="41.46237" lon="-8.73745">
        <ele>74.617</ele>
        <time>2018-07-28T10:24:11Z</time>
      </trkpt>
      <trkpt lat="41.4627" lon="-8.73766">
        <ele>73.808</ele>
        <time>2018-07-28T10:24:12Z</time>
      </trkpt>
      <trkpt lat="41.46303" lon="-8.73787">
        <ele>72.945</ele>
        <time>2018-07-28T10:24:13Z</time>
      </trkpt>
      <trkpt lat="41.46339" lon="-8.73803">
        <ele>72.65</ele>
        <time>2018-07-28T10:24:14Z</time>
      </trkpt>
      <trkpt lat="41.46374" lon="-8.73818">
        <ele>72.253</ele>
        <time>2018-07-28T10:24:15Z</time>
      </trkpt>
      <trkpt lat="41.46409" lon="-8.73829">
        <ele>71.415</ele>
        <time>2018-07-28T10:24:16Z</time>
      </trkpt>
      <trkpt lat="41.46444" lon="-8.73842">
        <ele>70.65</ele>
        <time>2018-07-28T10:24:17Z</time>
      </trkpt>
      <trkpt lat="41.46479" lon="-8.73852">
        <ele>70.285</ele>
        <time>2018-07-28T10:24:18Z</time>
      </trkpt>
      <trkpt lat="41.46515" lon="-8.7386">
        <ele>70.253</ele>
        <time>2018-07-28T10:24:19Z</time>
      </trkpt>
      <trkpt lat="41.46551" lon="-8.73866">
        <ele>70.219</ele>
        <time>2018-07-28T10:24:20Z</time>
      </trkpt>
      <trkpt lat="41.46588" lon="-8.73871">
        <ele>70.253</ele>
        <time>2018-07-28T10:24:21Z</time>
      </trkpt>
      <trkpt lat="41.46626" lon="-8.73873">
        <ele>70.204</ele>
        <time>2018-07-28T10:24:22Z</time>
      </trkpt>
      <trkpt lat="41.46663" lon="-8.73875">
        <ele>70.314</ele>
        <time>2018-07-28T10:24:23Z</time>
      </trkpt>
      <trkpt lat="41.46701" lon="-8.73876">
        <ele>70.408</ele>
        <time>2018-07-28T10:24:24Z</time>
      </trkpt>
      <trkpt lat="41.46738" lon="-8.73878">
        <ele>70.417</ele>
        <time>2018-07-28T10:24:25Z</time>
      </trkpt>
      <trkpt lat="41.46775" lon="-8.73879">
        <ele>70.552</ele>
        <time>2018-07-28T10:24:26Z</time>
      </trkpt>
      <trkpt lat="41.46813" lon="-8.73878">
        <ele>70.615</ele>
        <time>2018-07-28T10:24:27Z</time>
      </trkpt>
      <trkpt lat="41.46851" lon="-8.73879">
        <ele>70.797</ele>
        <time>2018-07-28T10:24:28Z</time>
      </trkpt>
      <trkpt lat="41.46889" lon="-8.7388">
        <ele>70.792</ele>
        <time>2018-07-28T10:24:29Z</time>
      </trkpt>
      <trkpt lat="41.46928" lon="-8.73882">
        <ele>70.657</ele>
        <time>2018-07-28T10:24:30Z</time>
      </trkpt>
      <trkpt lat="41.46966" lon="-8.73885">
        <ele>70.545</ele>
        <time>2018-07-28T10:24:31Z</time>
      </trkpt>
      <trkpt lat="41.47003" lon="-8.7389">
        <ele>69.741</ele>
        <time>2018-07-28T10:24:32Z</time>
      </trkpt>
      <trkpt lat="41.47041" lon="-8.73892">
        <ele>69.571</ele>
        <time>2018-07-28T10:24:33Z</time>
      </trkpt>
      <trkpt lat="41.47078" lon="-8.73893">
        <ele>69.441</ele>
        <time>2018-07-28T10:24:34Z</time>
      </trkpt>
      <trkpt lat="41.47116" lon="-8.73897">
        <ele>69.415</ele>
        <time>2018-07-28T10:24:35Z</time>
      </trkpt>
      <trkpt lat="41.47154" lon="-8.739">
        <ele>69.308</ele>
        <time>2018-07-28T10:24:36Z</time>
      </trkpt>
      <trkpt lat="41.47192" lon="-8.73906">
        <ele>68.989</ele>
        <time>2018-07-28T10:24:37Z</time>
      </trkpt>
      <trkpt lat="41.4723" lon="-8.73915">
        <ele>68.894</ele>
        <time>2018-07-28T10:24:38Z</time>
      </trkpt>
      <trkpt lat="41.47267" lon="-8.73925">
        <ele>68.257</ele>
        <time>2018-07-28T10:24:39Z</time>
      </trkpt>
      <trkpt lat="41.47303" lon="-8.73939">
        <ele>67.719</ele>
        <time>2018-07-28T10:24:40Z</time>
      </trkpt>
      <trkpt lat="41.47339" lon="-8.73953">
        <ele>67.714</ele>
        <time>2018-07-28T10:24:41Z</time>
      </trkpt>
      <trkpt lat="41.47375" lon="-8.73966">
        <ele>67.899</ele>
        <time>2018-07-28T10:24:42Z</time>
      </trkpt>
      <trkpt lat="41.4741" lon="-8.73986">
        <ele>68.037</ele>
        <time>2018-07-28T10:24:43Z</time>
      </trkpt>
      <trkpt lat="41.47445" lon="-8.74009">
        <ele>68.063</ele>
        <time>2018-07-28T10:24:44Z</time>
      </trkpt>
      <trkpt lat="41.4748" lon="-8.74027">
        <ele>67.772</ele>
        <time>2018-07-28T10:24:45Z</time>
      </trkpt>
      <trkpt lat="41.47516" lon="-8.74048">
        <ele>67.313</ele>
        <time>2018-07-28T10:24:46Z</time>
      </trkpt>
      <trkpt lat="41.47551" lon="-8.7407">
        <ele>66.814</ele>
        <time>2018-07-28T10:24:47Z</time>
      </trkpt>
      <trkpt lat="41.47586" lon="-8.74091">
        <ele>66.808</ele>
        <time>2018-07-28T10:24:48Z</time>
      </trkpt>
      <trkpt lat="41.47621" lon="-8.74111">
        <ele>66.869</ele>
        <time>2018-07-28T10:24:49Z</time>
      </trkpt>
      <trkpt lat="41.47657" lon="-8.74131">
        <ele>66.494</ele>
        <time>2018-07-28T10:24:50Z</time>
      </trkpt>
      <trkpt lat="41.47692" lon="-8.74151">
        <ele>66.367</ele>
        <time>2018-07-28T10:24:51Z</time>
      </trkpt>
      <trkpt lat="41.47726" lon="-8.74171">
        <ele>66.029</ele>
        <time>2018-07-28T10:24:52Z</time>
      </trkpt>
      <trkpt lat="41.47761" lon="-8.74191">
        <ele>65.964</ele>
        <time>2018-07-28T10:24:53Z</time>
      </trkpt>
      <trkpt lat="41.47796" lon="-8.7421">
        <ele>65.939</ele>
        <time>2018-07-28T10:24:54Z</time>
      </trkpt>
      <trkpt lat="41.47831" lon="-8.7423">
        <ele>66.287</ele>
        <time>2018-07-28T10:24:55Z</time>
      </trkpt>
      <trkpt lat="41.47866" lon="-8.7425">
        <ele>66.483</ele>
        <time>2018-07-28T10:24:56Z</time>
      </trkpt>
      <trkpt lat="41.47901" lon="-8.7427">
        <ele>66.575</ele>
        <time>2018-07-28T10:24:57Z</time>
      </trkpt>
      <trkpt lat="41.47936" lon="-8.74288">
        <ele>66.528</ele>
        <time>2018-07-28T10:24:58Z</time>
      </trkpt>
      <trkpt lat="41.47972" lon="-8.74305">
        <ele>66.52</ele>
        <time>2018-07-28T10:24:59Z</time>
      </trkpt>
      <trkpt lat="41.48008" lon="-8.74321">
        <ele>66.508</ele>
        <time>2018-07-28T10:25:00Z</time>
      </trkpt>
      <trkpt lat="41.48043" lon="-8.74336">
        <ele>66.869</ele>
        <time>2018-07-28T10:25:01Z</time>
      </trkpt>
      <trkpt lat="41.48079" lon="-8.74349">
        <ele>66.824</ele>
        <time>2018-07-28T10:25:02Z</time>
      </trkpt>
      <trkpt lat="41.48114" lon="-8.74361">
        <ele>66.327</ele>
        <time>2018-07-28T10:25:03Z</time>
      </trkpt>
      <trkpt lat="41.48149" lon="-8.7437">
        <ele>66.149</ele>
        <time>2018-07-28T10:25:04Z</time>
      </trkpt>
      <trkpt lat="41.48185" lon="-8.74378">
        <ele>65.374</ele>
        <time>2018-07-28T10:25:05Z</time>
      </trkpt>
      <trkpt lat="41.48222" lon="-8.74384">
        <ele>64.559</ele>
        <time>2018-07-28T10:25:06Z</time>
      </trkpt>
      <trkpt lat="41.4826" lon="-8.74389">
        <ele>63.887</ele>
        <time>2018-07-28T10:25:07Z</time>
      </trkpt>
      <trkpt lat="41.48296" lon="-8.74398">
        <ele>63.743</ele>
        <time>2018-07-28T10:25:08Z</time>
      </trkpt>
      <trkpt lat="41.48335" lon="-8.74405">
        <ele>63.784</ele>
        <time>2018-07-28T10:25:09Z</time>
      </trkpt>
      <trkpt lat="41.48374" lon="-8.74411">
        <ele>64.507</ele>
        <time>2018-07-28T10:25:10Z</time>
      </trkpt>
      <trkpt lat="41.48414" lon="-8.74418">
        <ele>65.617</ele>
        <time>2018-07-28T10:25:11Z</time>
      </trkpt>
      <trkpt lat="41.48454" lon="-8.74424">
        <ele>66.608</ele>
        <time>2018-07-28T10:25:12Z</time>
      </trkpt>
      <trkpt lat="41.48493" lon="-8.74428">
        <ele>67.54</ele>
        <time>2018-07-28T10:25:13Z</time>
      </trkpt>
      <trkpt lat="41.4853" lon="-8.74436">
        <ele>67.595</ele>
        <time>2018-07-28T10:25:14Z</time>
      </trkpt>
      <trkpt lat="41.48567" lon="-8.74442">
        <ele>67.188</ele>
        <time>2018-07-28T10:25:15Z</time>
      </trkpt>
      <trkpt lat="41.48603" lon="-8.74448">
        <ele>65.69</ele>
        <time>2018-07-28T10:25:16Z</time>
      </trkpt>
      <trkpt lat="41.48639" lon="-8.74455">
        <ele>64.575</ele>
        <time>2018-07-28T10:25:17Z</time>
      </trkpt>
      <trkpt lat="41.48674" lon="-8.74458">
        <ele>63.27</ele>
        <time>2018-07-28T10:25:18Z</time>
      </trkpt>
      <trkpt lat="41.48708" lon="-8.74462">
        <ele>62.578</ele>
        <time>2018-07-28T10:25:19Z</time>
      </trkpt>
      <trkpt lat="41.48743" lon="-8.74467">
        <ele>61.474</ele>
        <time>2018-07-28T10:25:20Z</time>
      </trkpt>
      <trkpt lat="41.4878" lon="-8.74469">
        <ele>60.381</ele>
        <time>2018-07-28T10:25:21Z</time>
      </trkpt>
      <trkpt lat="41.48816" lon="-8.74478">
        <ele>59.661</ele>
        <time>2018-07-28T10:25:22Z</time>
      </trkpt>
      <trkpt lat="41.48852" lon="-8.74484">
        <ele>59.317</ele>
        <time>2018-07-28T10:25:23Z</time>
      </trkpt>
      <trkpt lat="41.48887" lon="-8.74491">
        <ele>59.008</ele>
        <time>2018-07-28T10:25:24Z</time>
      </trkpt>
      <trkpt lat="41.48923" lon="-8.74497">
        <ele>58.76</ele>
        <time>2018-07-28T10:25:25Z</time>
      </trkpt>
      <trkpt lat="41.48958" lon="-8.74504">
        <ele>58.625</ele>
        <time>2018-07-28T10:25:26Z</time>
      </trkpt>
      <trkpt lat="41.48994" lon="-8.74512">
        <ele>58.588</ele>
        <time>2018-07-28T10:25:27Z</time>
      </trkpt>
      <trkpt lat="41.49029" lon="-8.7452">
        <ele>58.28</ele>
        <time>2018-07-28T10:25:28Z</time>
      </trkpt>
      <trkpt lat="41.49063" lon="-8.7453">
        <ele>57.895</ele>
        <time>2018-07-28T10:25:29Z</time>
      </trkpt>
      <trkpt lat="41.49097" lon="-8.74541">
        <ele>56.96</ele>
        <time>2018-07-28T10:25:30Z</time>
      </trkpt>
      <trkpt lat="41.4913" lon="-8.74553">
        <ele>56.058</ele>
        <time>2018-07-28T10:25:31Z</time>
      </trkpt>
      <trkpt lat="41.49164" lon="-8.74566">
        <ele>55.364</ele>
        <time>2018-07-28T10:25:32Z</time>
      </trkpt>
      <trkpt lat="41.49195" lon="-8.74584">
        <ele>54.996</ele>
        <time>2018-07-28T10:25:33Z</time>
      </trkpt>
      <trkpt lat="41.49227" lon="-8.74602">
        <ele>54.531</ele>
        <time>2018-07-28T10:25:34Z</time>
      </trkpt>
      <trkpt lat="41.49257" lon="-8.74621">
        <ele>54.124</ele>
        <time>2018-07-28T10:25:35Z</time>
      </trkpt>
      <trkpt lat="41.49287" lon="-8.74642">
        <ele>53.308</ele>
        <time>2018-07-28T10:25:36Z</time>
      </trkpt>
      <trkpt lat="41.49317" lon="-8.74661">
        <ele>52.521</ele>
        <time>2018-07-28T10:25:37Z</time>
      </trkpt>
      <trkpt lat="41.49346" lon="-8.74681">
        <ele>52.196</ele>
        <time>2018-07-28T10:25:38Z</time>
      </trkpt>
      <trkpt lat="41.49376" lon="-8.74703">
        <ele>51.749</ele>
        <time>2018-07-28T10:25:39Z</time>
      </trkpt>
      <trkpt lat="41.49407" lon="-8.74724">
        <ele>51.781</ele>
        <time>2018-07-28T10:25:40Z</time>
      </trkpt>
      <trkpt lat="41.49441" lon="-8.74745">
        <ele>52.286</ele>
        <time>2018-07-28T10:25:41Z</time>
      </trkpt>
      <trkpt lat="41.49476" lon="-8.74766">
        <ele>53.241</ele>
        <time>2018-07-28T10:25:42Z</time>
      </trkpt>
      <trkpt lat="41.49507" lon="-8.74789">
        <ele>54.329</ele>
        <time>2018-07-28T10:25:43Z</time>
      </trkpt>
      <trkpt lat="41.49539" lon="-8.74812">
        <ele>54.995</ele>
        <time>2018-07-28T10:25:44Z</time>
      </trkpt>
      <trkpt lat="41.49572" lon="-8.74835">
        <ele>55.815</ele>
        <time>2018-07-28T10:25:45Z</time>
      </trkpt>
      <trkpt lat="41.49605" lon="-8.74857">
        <ele>55.965</ele>
        <time>2018-07-28T10:25:46Z</time>
      </trkpt>
      <trkpt lat="41.49637" lon="-8.74879">
        <ele>56.011</ele>
        <time>2018-07-28T10:25:47Z</time>
      </trkpt>
      <trkpt lat="41.49671" lon="-8.74898">
        <ele>55.908</ele>
        <time>2018-07-28T10:25:48Z</time>
      </trkpt>
      <trkpt lat="41.49704" lon="-8.74923">
        <ele>56.083</ele>
        <time>2018-07-28T10:25:49Z</time>
      </trkpt>
      <trkpt lat="41.49738" lon="-8.74946">
        <ele>56.288</ele>
        <time>2018-07-28T10:25:50Z</time>
      </trkpt>
      <trkpt lat="41.49774" lon="-8.74968">
        <ele>56.451</ele>
        <time>2018-07-28T10:25:51Z</time>
      </trkpt>
      <trkpt lat="41.49807" lon="-8.74991">
        <ele>56.453</ele>
        <time>2018-07-28T10:25:52Z</time>
      </trkpt>
      <trkpt lat="41.49841" lon="-8.75014">
        <ele>56.638</ele>
        <time>2018-07-28T10:25:53Z</time>
      </trkpt>
      <trkpt lat="41.49875" lon="-8.75039">
        <ele>56.613</ele>
        <time>2018-07-28T10:25:54Z</time>
      </trkpt>
      <trkpt lat="41.49909" lon="-8.75062">
        <ele>56.611</ele>
        <time>2018-07-28T10:25:55Z</time>
      </trkpt>
      <trkpt lat="41.49943" lon="-8.75085">
        <ele>56.647</ele>
        <time>2018-07-28T10:25:56Z</time>
      </trkpt>
      <trkpt lat="41.49978" lon="-8.7511">
        <ele>56.922</ele>
        <time>2018-07-28T10:25:57Z</time>
      </trkpt>
      <trkpt lat="41.50015" lon="-8.75128">
        <ele>57.462</ele>
        <time>2018-07-28T10:25:58Z</time>
      </trkpt>
      <trkpt lat="41.50047" lon="-8.75148">
        <ele>57.408</ele>
        <time>2018-07-28T10:25:59Z</time>
      </trkpt>
      <trkpt lat="41.5008" lon="-8.75168">
        <ele>55.808</ele>
        <time>2018-07-28T10:26:00Z</time>
      </trkpt>
      <trkpt lat="41.50114" lon="-8.75188">
        <ele>54.274</ele>
        <time>2018-07-28T10:26:01Z</time>
      </trkpt>
      <trkpt lat="41.50145" lon="-8.75205">
        <ele>52.869</ele>
        <time>2018-07-28T10:26:02Z</time>
      </trkpt>
      <trkpt lat="41.50184" lon="-8.7522">
        <ele>51.992</ele>
        <time>2018-07-28T10:26:03Z</time>
      </trkpt>
      <trkpt lat="41.50221" lon="-8.75234">
        <ele>51.784</ele>
        <time>2018-07-28T10:26:04Z</time>
      </trkpt>
      <trkpt lat="41.50258" lon="-8.75247">
        <ele>51.649</ele>
        <time>2018-07-28T10:26:05Z</time>
      </trkpt>
      <trkpt lat="41.50296" lon="-8.75255">
        <ele>51.664</ele>
        <time>2018-07-28T10:26:06Z</time>
      </trkpt>
      <trkpt lat="41.50335" lon="-8.75262">
        <ele>52.042</ele>
        <time>2018-07-28T10:26:07Z</time>
      </trkpt>
      <trkpt lat="41.50373" lon="-8.75265">
        <ele>52.518</ele>
        <time>2018-07-28T10:26:08Z</time>
      </trkpt>
      <trkpt lat="41.50411" lon="-8.75267">
        <ele>52.792</ele>
        <time>2018-07-28T10:26:09Z</time>
      </trkpt>
      <trkpt lat="41.50449" lon="-8.7527">
        <ele>53.173</ele>
        <time>2018-07-28T10:26:10Z</time>
      </trkpt>
      <trkpt lat="41.50486" lon="-8.75273">
        <ele>53.12</ele>
        <time>2018-07-28T10:26:11Z</time>
      </trkpt>
      <trkpt lat="41.50524" lon="-8.75277">
        <ele>53.008</ele>
        <time>2018-07-28T10:26:12Z</time>
      </trkpt>
      <trkpt lat="41.5056" lon="-8.75284">
        <ele>52.211</ele>
        <time>2018-07-28T10:26:13Z</time>
      </trkpt>
      <trkpt lat="41.50598" lon="-8.75289">
        <ele>51.066</ele>
        <time>2018-07-28T10:26:14Z</time>
      </trkpt>
      <trkpt lat="41.50633" lon="-8.75297">
        <ele>48.989</ele>
        <time>2018-07-28T10:26:15Z</time>
      </trkpt>
      <trkpt lat="41.5067" lon="-8.75302">
        <ele>48.531</ele>
        <time>2018-07-28T10:26:16Z</time>
      </trkpt>
      <trkpt lat="41.50706" lon="-8.75309">
        <ele>48.546</ele>
        <time>2018-07-28T10:26:17Z</time>
      </trkpt>
      <trkpt lat="41.50742" lon="-8.75315">
        <ele>48.591</ele>
        <time>2018-07-28T10:26:18Z</time>
      </trkpt>
      <trkpt lat="41.50778" lon="-8.75323">
        <ele>48.539</ele>
        <time>2018-07-28T10:26:19Z</time>
      </trkpt>
      <trkpt lat="41.50814" lon="-8.75333">
        <ele>48.515</ele>
        <time>2018-07-28T10:26:20Z</time>
      </trkpt>
      <trkpt lat="41.5085" lon="-8.75341">
        <ele>48.475</ele>
        <time>2018-07-28T10:26:21Z</time>
      </trkpt>
      <trkpt lat="41.50886" lon="-8.7535">
        <ele>48.028</ele>
        <time>2018-07-28T10:26:22Z</time>
      </trkpt>
      <trkpt lat="41.50922" lon="-8.75358">
        <ele>47.82</ele>
        <time>2018-07-28T10:26:23Z</time>
      </trkpt>
      <trkpt lat="41.50959" lon="-8.75366">
        <ele>47.508</ele>
        <time>2018-07-28T10:26:24Z</time>
      </trkpt>
      <trkpt lat="41.50997" lon="-8.75374">
        <ele>47.379</ele>
        <time>2018-07-28T10:26:25Z</time>
      </trkpt>
      <trkpt lat="41.51034" lon="-8.75383">
        <ele>47.344</ele>
        <time>2018-07-28T10:26:26Z</time>
      </trkpt>
      <trkpt lat="41.51071" lon="-8.75393">
        <ele>47.397</ele>
        <time>2018-07-28T10:26:27Z</time>
      </trkpt>
      <trkpt lat="41.51107" lon="-8.75401">
        <ele>47.369</ele>
        <time>2018-07-28T10:26:28Z</time>
      </trkpt>
      <trkpt lat="41.51142" lon="-8.75407">
        <ele>46.684</ele>
        <time>2018-07-28T10:26:29Z</time>
      </trkpt>
      <trkpt lat="41.51177" lon="-8.75415">
        <ele>46.319</ele>
        <time>2018-07-28T10:26:30Z</time>
      </trkpt>
      <trkpt lat="41.51213" lon="-8.75416">
        <ele>46.417</ele>
        <time>2018-07-28T10:26:31Z</time>
      </trkpt>
      <trkpt lat="41.51247" lon="-8.7542">
        <ele>46.413</ele>
        <time>2018-07-28T10:26:32Z</time>
      </trkpt>
      <trkpt lat="41.51282" lon="-8.7542">
        <ele>46.795</ele>
        <time>2018-07-28T10:26:33Z</time>
      </trkpt>
      <trkpt lat="41.51318" lon="-8.75418">
        <ele>46.749</ele>
        <time>2018-07-28T10:26:34Z</time>
      </trkpt>
      <trkpt lat="41.51355" lon="-8.75413">
        <ele>46.623</ele>
        <time>2018-07-28T10:26:35Z</time>
      </trkpt>
      <trkpt lat="41.51392" lon="-8.75411">
        <ele>46.608</ele>
        <time>2018-07-28T10:26:36Z</time>
      </trkpt>
      <trkpt lat="41.51428" lon="-8.75407">
        <ele>46.591</ele>
        <time>2018-07-28T10:26:37Z</time>
      </trkpt>
      <trkpt lat="41.51464" lon="-8.75402">
        <ele>46.556</ele>
        <time>2018-07-28T10:26:38Z</time>
      </trkpt>
      <trkpt lat="41.515" lon="-8.75396">
        <ele>46.529</ele>
        <time>2018-07-28T10:26:39Z</time>
      </trkpt>
      <trkpt lat="41.51537" lon="-8.75389">
        <ele>46.571</ele>
        <time>2018-07-28T10:26:40Z</time>
      </trkpt>
      <trkpt lat="41.51572" lon="-8.75382">
        <ele>46.586</ele>
        <time>2018-07-28T10:26:41Z</time>
      </trkpt>
      <trkpt lat="41.51608" lon="-8.75375">
        <ele>46.731</ele>
        <time>2018-07-28T10:26:42Z</time>
      </trkpt>
      <trkpt lat="41.51645" lon="-8.7536">
        <ele>47.499</ele>
        <time>2018-07-28T10:26:43Z</time>
      </trkpt>
      <trkpt lat="41.51682" lon="-8.75345">
        <ele>48.735</ele>
        <time>2018-07-28T10:26:44Z</time>
      </trkpt>
      <trkpt lat="41.51717" lon="-8.75329">
        <ele>49.728</ele>
        <time>2018-07-28T10:26:45Z</time>
      </trkpt>
      <trkpt lat="41.51752" lon="-8.75313">
        <ele>50.289</ele>
        <time>2018-07-28T10:26:46Z</time>
      </trkpt>
      <trkpt lat="41.51788" lon="-8.75297">
        <ele>50.517</ele>
        <time>2018-07-28T10:26:47Z</time>
      </trkpt>
      <trkpt lat="41.51825" lon="-8.75282">
        <ele>51.408</ele>
        <time>2018-07-28T10:26:48Z</time>
      </trkpt>
      <trkpt lat="41.51862" lon="-8.75271">
        <ele>52.224</ele>
        <time>2018-07-28T10:26:49Z</time>
      </trkpt>
      <trkpt lat="41.51899" lon="-8.7526">
        <ele>53.389</ele>
        <time>2018-07-28T10:26:50Z</time>
      </trkpt>
      <trkpt lat="41.51937" lon="-8.75249">
        <ele>54.632</ele>
        <time>2018-07-28T10:26:51Z</time>
      </trkpt>
      <trkpt lat="41.51975" lon="-8.75237">
        <ele>55.714</ele>
        <time>2018-07-28T10:26:52Z</time>
      </trkpt>
      <trkpt lat="41.52013" lon="-8.75226">
        <ele>56.689</ele>
        <time>2018-07-28T10:26:53Z</time>
      </trkpt>
      <trkpt lat="41.5205" lon="-8.75214">
        <ele>57.344</ele>
        <time>2018-07-28T10:26:54Z</time>
      </trkpt>
      <trkpt lat="41.52087" lon="-8.75202">
        <ele>58.042</ele>
        <time>2018-07-28T10:26:55Z</time>
      </trkpt>
      <trkpt lat="41.52124" lon="-8.75189">
        <ele>58.448</ele>
        <time>2018-07-28T10:26:56Z</time>
      </trkpt>
      <trkpt lat="41.5216" lon="-8.75179">
        <ele>59.151</ele>
        <time>2018-07-28T10:26:57Z</time>
      </trkpt>
      <trkpt lat="41.52196" lon="-8.75166">
        <ele>60.101</ele>
        <time>2018-07-28T10:26:58Z</time>
      </trkpt>
      <trkpt lat="41.52232" lon="-8.75153">
        <ele>61.511</ele>
        <time>2018-07-28T10:26:59Z</time>
      </trkpt>
      <trkpt lat="41.52268" lon="-8.75142">
        <ele>62.008</ele>
        <time>2018-07-28T10:27:00Z</time>
      </trkpt>
      <trkpt lat="41.52304" lon="-8.75131">
        <ele>62.037</ele>
        <time>2018-07-28T10:27:01Z</time>
      </trkpt>
      <trkpt lat="41.5234" lon="-8.7512">
        <ele>61.512</ele>
        <time>2018-07-28T10:27:02Z</time>
      </trkpt>
      <trkpt lat="41.52375" lon="-8.7511">
        <ele>61.145</ele>
        <time>2018-07-28T10:27:03Z</time>
      </trkpt>
      <trkpt lat="41.52411" lon="-8.75099">
        <ele>61.047</ele>
        <time>2018-07-28T10:27:04Z</time>
      </trkpt>
      <trkpt lat="41.52447" lon="-8.75089">
        <ele>61.182</ele>
        <time>2018-07-28T10:27:05Z</time>
      </trkpt>
      <trkpt lat="41.52482" lon="-8.75077">
        <ele>61.387</ele>
        <time>2018-07-28T10:27:06Z</time>
      </trkpt>
      <trkpt lat="41.52517" lon="-8.75067">
        <ele>61.675</ele>
        <time>2018-07-28T10:27:07Z</time>
      </trkpt>
      <trkpt lat="41.52549" lon="-8.7506">
        <ele>61.671</ele>
        <time>2018-07-28T10:27:08Z</time>
      </trkpt>
      <trkpt lat="41.52583" lon="-8.75055">
        <ele>61.683</ele>
        <time>2018-07-28T10:27:09Z</time>
      </trkpt>
      <trkpt lat="41.52616" lon="-8.75054">
        <ele>61.725</ele>
        <time>2018-07-28T10:27:10Z</time>
      </trkpt>
      <trkpt lat="41.5265" lon="-8.75057">
        <ele>61.817</ele>
        <time>2018-07-28T10:27:11Z</time>
      </trkpt>
      <trkpt lat="41.52685" lon="-8.7506">
        <ele>62.508</ele>
        <time>2018-07-28T10:27:12Z</time>
      </trkpt>
      <trkpt lat="41.52717" lon="-8.7507">
        <ele>63.79</ele>
        <time>2018-07-28T10:27:13Z</time>
      </trkpt>
      <trkpt lat="41.52748" lon="-8.75081">
        <ele>65.355</ele>
        <time>2018-07-28T10:27:14Z</time>
      </trkpt>
      <trkpt lat="41.52782" lon="-8.75093">
        <ele>66.528</ele>
        <time>2018-07-28T10:27:15Z</time>
      </trkpt>
      <trkpt lat="41.52815" lon="-8.75106">
        <ele>67.84</ele>
        <time>2018-07-28T10:27:16Z</time>
      </trkpt>
      <trkpt lat="41.5285" lon="-8.75119">
        <ele>68.515</ele>
        <time>2018-07-28T10:27:17Z</time>
      </trkpt>
      <trkpt lat="41.52886" lon="-8.75132">
        <ele>69.71</ele>
        <time>2018-07-28T10:27:18Z</time>
      </trkpt>
      <trkpt lat="41.52921" lon="-8.75144">
        <ele>71.178</ele>
        <time>2018-07-28T10:27:19Z</time>
      </trkpt>
      <trkpt lat="41.52958" lon="-8.75155">
        <ele>72.624</ele>
        <time>2018-07-28T10:27:20Z</time>
      </trkpt>
      <trkpt lat="41.52994" lon="-8.75168">
        <ele>73.317</ele>
        <time>2018-07-28T10:27:21Z</time>
      </trkpt>
      <trkpt lat="41.53029" lon="-8.75181">
        <ele>74.587</ele>
        <time>2018-07-28T10:27:22Z</time>
      </trkpt>
      <trkpt lat="41.53064" lon="-8.75195">
        <ele>75.615</ele>
        <time>2018-07-28T10:27:23Z</time>
      </trkpt>
      <trkpt lat="41.531" lon="-8.75207">
        <ele>76.708</ele>
        <time>2018-07-28T10:27:24Z</time>
      </trkpt>
      <trkpt lat="41.53136" lon="-8.75219">
        <ele>77.783</ele>
        <time>2018-07-28T10:27:25Z</time>
      </trkpt>
      <trkpt lat="41.53171" lon="-8.75229">
        <ele>78.738</ele>
        <time>2018-07-28T10:27:26Z</time>
      </trkpt>
      <trkpt lat="41.53206" lon="-8.75241">
        <ele>79.741</ele>
        <time>2018-07-28T10:27:27Z</time>
      </trkpt>
      <trkpt lat="41.53242" lon="-8.75255">
        <ele>80.913</ele>
        <time>2018-07-28T10:27:28Z</time>
      </trkpt>
      <trkpt lat="41.53278" lon="-8.75267">
        <ele>82.088</ele>
        <time>2018-07-28T10:27:29Z</time>
      </trkpt>
      <trkpt lat="41.53313" lon="-8.75281">
        <ele>82.543</ele>
        <time>2018-07-28T10:27:30Z</time>
      </trkpt>
      <trkpt lat="41.53348" lon="-8.75292">
        <ele>82.891</ele>
        <time>2018-07-28T10:27:31Z</time>
      </trkpt>
      <trkpt lat="41.53383" lon="-8.75302">
        <ele>83.027</ele>
        <time>2018-07-28T10:27:32Z</time>
      </trkpt>
      <trkpt lat="41.53417" lon="-8.75314">
        <ele>83.511</ele>
        <time>2018-07-28T10:27:33Z</time>
      </trkpt>
      <trkpt lat="41.53453" lon="-8.75325">
        <ele>84.021</ele>
        <time>2018-07-28T10:27:34Z</time>
      </trkpt>
      <trkpt lat="41.53487" lon="-8.75336">
        <ele>84.703</ele>
        <time>2018-07-28T10:27:35Z</time>
      </trkpt>
      <trkpt lat="41.53521" lon="-8.75346">
        <ele>85.108</ele>
        <time>2018-07-28T10:27:36Z</time>
      </trkpt>
      <trkpt lat="41.53554" lon="-8.75357">
        <ele>85.143</ele>
        <time>2018-07-28T10:27:37Z</time>
      </trkpt>
      <trkpt lat="41.53587" lon="-8.75369">
        <ele>84.848</ele>
        <time>2018-07-28T10:27:38Z</time>
      </trkpt>
      <trkpt lat="41.53618" lon="-8.75383">
        <ele>84.251</ele>
        <time>2018-07-28T10:27:39Z</time>
      </trkpt>
      <trkpt lat="41.53652" lon="-8.75395">
        <ele>84.273</ele>
        <time>2018-07-28T10:27:40Z</time>
      </trkpt>
      <trkpt lat="41.53686" lon="-8.75408">
        <ele>84.298</ele>
        <time>2018-07-28T10:27:41Z</time>
      </trkpt>
      <trkpt lat="41.53722" lon="-8.75422">
        <ele>85.133</ele>
        <time>2018-07-28T10:27:42Z</time>
      </trkpt>
      <trkpt lat="41.53759" lon="-8.75434">
        <ele>87.851</ele>
        <time>2018-07-28T10:27:43Z</time>
      </trkpt>
      <trkpt lat="41.53795" lon="-8.75447">
        <ele>89.327</ele>
        <time>2018-07-28T10:27:44Z</time>
      </trkpt>
      <trkpt lat="41.53831" lon="-8.75459">
        <ele>90.619</ele>
        <time>2018-07-28T10:27:45Z</time>
      </trkpt>
      <trkpt lat="41.53867" lon="-8.75472">
        <ele>91.509</ele>
        <time>2018-07-28T10:27:46Z</time>
      </trkpt>
      <trkpt lat="41.53902" lon="-8.75485">
        <ele>92.219</ele>
        <time>2018-07-28T10:27:47Z</time>
      </trkpt>
      <trkpt lat="41.53938" lon="-8.75499">
        <ele>93.208</ele>
        <time>2018-07-28T10:27:48Z</time>
      </trkpt>
      <trkpt lat="41.53975" lon="-8.75514">
        <ele>94.193</ele>
        <time>2018-07-28T10:27:49Z</time>
      </trkpt>
      <trkpt lat="41.54012" lon="-8.75532">
        <ele>94.828</ele>
        <time>2018-07-28T10:27:50Z</time>
      </trkpt>
      <trkpt lat="41.5405" lon="-8.75552">
        <ele>95.981</ele>
        <time>2018-07-28T10:27:51Z</time>
      </trkpt>
      <trkpt lat="41.54086" lon="-8.75573">
        <ele>97.633</ele>
        <time>2018-07-28T10:27:52Z</time>
      </trkpt>
      <trkpt lat="41.54122" lon="-8.75595">
        <ele>98.898</ele>
        <time>2018-07-28T10:27:53Z</time>
      </trkpt>
      <trkpt lat="41.54157" lon="-8.75615">
        <ele>99.783</ele>
        <time>2018-07-28T10:27:54Z</time>
      </trkpt>
      <trkpt lat="41.54189" lon="-8.75637">
        <ele>101.081</ele>
        <time>2018-07-28T10:27:55Z</time>
      </trkpt>
      <trkpt lat="41.54226" lon="-8.75652">
        <ele>101.527</ele>
        <time>2018-07-28T10:27:56Z</time>
      </trkpt>
      <trkpt lat="41.54262" lon="-8.75667">
        <ele>101.744</ele>
        <time>2018-07-28T10:27:57Z</time>
      </trkpt>
      <trkpt lat="41.54298" lon="-8.75679">
        <ele>102.505</ele>
        <time>2018-07-28T10:27:58Z</time>
      </trkpt>
      <trkpt lat="41.54335" lon="-8.75689">
        <ele>102.915</ele>
        <time>2018-07-28T10:27:59Z</time>
      </trkpt>
      <trkpt lat="41.54373" lon="-8.757">
        <ele>104.008</ele>
        <time>2018-07-28T10:28:00Z</time>
      </trkpt>
      <trkpt lat="41.54411" lon="-8.75711">
        <ele>105.346</ele>
        <time>2018-07-28T10:28:01Z</time>
      </trkpt>
      <trkpt lat="41.5445" lon="-8.7572">
        <ele>106.721</ele>
        <time>2018-07-28T10:28:02Z</time>
      </trkpt>
      <trkpt lat="41.54491" lon="-8.75735">
        <ele>108.534</ele>
        <time>2018-07-28T10:28:03Z</time>
      </trkpt>
      <trkpt lat="41.54531" lon="-8.75746">
        <ele>110.216</ele>
        <time>2018-07-28T10:28:04Z</time>
      </trkpt>
      <trkpt lat="41.54569" lon="-8.75757">
        <ele>111.571</ele>
        <time>2018-07-28T10:28:05Z</time>
      </trkpt>
      <trkpt lat="41.54608" lon="-8.75767">
        <ele>112.596</ele>
        <time>2018-07-28T10:28:06Z</time>
      </trkpt>
      <trkpt lat="41.54647" lon="-8.75775">
        <ele>113.414</ele>
        <time>2018-07-28T10:28:07Z</time>
      </trkpt>
      <trkpt lat="41.54684" lon="-8.75783">
        <ele>114.31</ele>
        <time>2018-07-28T10:28:08Z</time>
      </trkpt>
      <trkpt lat="41.54722" lon="-8.75787">
        <ele>114.914</ele>
        <time>2018-07-28T10:28:09Z</time>
      </trkpt>
      <trkpt lat="41.5476" lon="-8.75789">
        <ele>115.654</ele>
        <time>2018-07-28T10:28:10Z</time>
      </trkpt>
      <trkpt lat="41.54799" lon="-8.75787">
        <ele>116.809</ele>
        <time>2018-07-28T10:28:11Z</time>
      </trkpt>
      <trkpt lat="41.54839" lon="-8.75781">
        <ele>118.608</ele>
        <time>2018-07-28T10:28:12Z</time>
      </trkpt>
      <trkpt lat="41.54879" lon="-8.75779">
        <ele>122.493</ele>
        <time>2018-07-28T10:28:13Z</time>
      </trkpt>
      <trkpt lat="41.54919" lon="-8.75776">
        <ele>125.168</ele>
        <time>2018-07-28T10:28:14Z</time>
      </trkpt>
      <trkpt lat="41.54959" lon="-8.75771">
        <ele>127.571</ele>
        <time>2018-07-28T10:28:15Z</time>
      </trkpt>
      <trkpt lat="41.54997" lon="-8.75767">
        <ele>129.753</ele>
        <time>2018-07-28T10:28:16Z</time>
      </trkpt>
      <trkpt lat="41.55036" lon="-8.75766">
        <ele>131.968</ele>
        <time>2018-07-28T10:28:17Z</time>
      </trkpt>
      <trkpt lat="41.55075" lon="-8.75764">
        <ele>134.493</ele>
        <time>2018-07-28T10:28:18Z</time>
      </trkpt>
      <trkpt lat="41.55114" lon="-8.75767">
        <ele>136.811</ele>
        <time>2018-07-28T10:28:19Z</time>
      </trkpt>
      <trkpt lat="41.55151" lon="-8.75769">
        <ele>139.677</ele>
        <time>2018-07-28T10:28:20Z</time>
      </trkpt>
      <trkpt lat="41.55189" lon="-8.75767">
        <ele>142.264</ele>
        <time>2018-07-28T10:28:21Z</time>
      </trkpt>
      <trkpt lat="41.55226" lon="-8.75765">
        <ele>144.606</ele>
        <time>2018-07-28T10:28:22Z</time>
      </trkpt>
      <trkpt lat="41.55262" lon="-8.75763">
        <ele>146.816</ele>
        <time>2018-07-28T10:28:23Z</time>
      </trkpt>
      <trkpt lat="41.55298" lon="-8.75761">
        <ele>148.708</ele>
        <time>2018-07-28T10:28:24Z</time>
      </trkpt>
      <trkpt lat="41.55335" lon="-8.75758">
        <ele>150.298</ele>
        <time>2018-07-28T10:28:25Z</time>
      </trkpt>
      <trkpt lat="41.55373" lon="-8.75753">
        <ele>152.243</ele>
        <time>2018-07-28T10:28:26Z</time>
      </trkpt>
      <trkpt lat="41.5541" lon="-8.7575">
        <ele>156.356</ele>
        <time>2018-07-28T10:28:27Z</time>
      </trkpt>
      <trkpt lat="41.55449" lon="-8.75743">
        <ele>159.158</ele>
        <time>2018-07-28T10:28:28Z</time>
      </trkpt>
      <trkpt lat="41.55486" lon="-8.75742">
        <ele>161.973</ele>
        <time>2018-07-28T10:28:29Z</time>
      </trkpt>
      <trkpt lat="41.55524" lon="-8.75738">
        <ele>164.188</ele>
        <time>2018-07-28T10:28:30Z</time>
      </trkpt>
      <trkpt lat="41.5556" lon="-8.75733">
        <ele>166.986</ele>
        <time>2018-07-28T10:28:31Z</time>
      </trkpt>
      <trkpt lat="41.55596" lon="-8.75726">
        <ele>169.652</ele>
        <time>2018-07-28T10:28:32Z</time>
      </trkpt>
      <trkpt lat="41.55632" lon="-8.75719">
        <ele>171.914</ele>
        <time>2018-07-28T10:28:33Z</time>
      </trkpt>
      <trkpt lat="41.55668" lon="-8.75718">
        <ele>174.154</ele>
        <time>2018-07-28T10:28:34Z</time>
      </trkpt>
      <trkpt lat="41.55705" lon="-8.75714">
        <ele>176.609</ele>
        <time>2018-07-28T10:28:35Z</time>
      </trkpt>
      <trkpt lat="41.5574" lon="-8.75714">
        <ele>178.308</ele>
        <time>2018-07-28T10:28:36Z</time>
      </trkpt>
      <trkpt lat="41.55775" lon="-8.75717">
        <ele>180.043</ele>
        <time>2018-07-28T10:28:37Z</time>
      </trkpt>
      <trkpt lat="41.5581" lon="-8.75724">
        <ele>181.838</ele>
        <time>2018-07-28T10:28:38Z</time>
      </trkpt>
      <trkpt lat="41.55843" lon="-8.75734">
        <ele>184.321</ele>
        <time>2018-07-28T10:28:39Z</time>
      </trkpt>
      <trkpt lat="41.55875" lon="-8.75754">
        <ele>186.483</ele>
        <time>2018-07-28T10:28:40Z</time>
      </trkpt>
      <trkpt lat="41.55906" lon="-8.75769">
        <ele>188.788</ele>
        <time>2018-07-28T10:28:41Z</time>
      </trkpt>
      <trkpt lat="41.55937" lon="-8.75787">
        <ele>192.683</ele>
        <time>2018-07-28T10:28:42Z</time>
      </trkpt>
      <trkpt lat="41.55968" lon="-8.75806">
        <ele>193.921</ele>
        <time>2018-07-28T10:28:43Z</time>
      </trkpt>
      <trkpt lat="41.55997" lon="-8.75833">
        <ele>195.297</ele>
        <time>2018-07-28T10:28:44Z</time>
      </trkpt>
      <trkpt lat="41.56027" lon="-8.75859">
        <ele>196.481</ele>
        <time>2018-07-28T10:28:45Z</time>
      </trkpt>
      <trkpt lat="41.56056" lon="-8.75891">
        <ele>198.261</ele>
        <time>2018-07-28T10:28:46Z</time>
      </trkpt>
      <trkpt lat="41.56084" lon="-8.75925">
        <ele>200.517</ele>
        <time>2018-07-28T10:28:47Z</time>
      </trkpt>
      <trkpt lat="41.56115" lon="-8.75954">
        <ele>203.108</ele>
        <time>2018-07-28T10:28:48Z</time>
      </trkpt>
      <trkpt lat="41.56143" lon="-8.75986">
        <ele>205.51</ele>
        <time>2018-07-28T10:28:49Z</time>
      </trkpt>
      <trkpt lat="41.56171" lon="-8.76019">
        <ele>207.545</ele>
        <time>2018-07-28T10:28:50Z</time>
      </trkpt>
      <trkpt lat="41.56202" lon="-8.76051">
        <ele>209.498</ele>
        <time>2018-07-28T10:28:51Z</time>
      </trkpt>
      <trkpt lat="41.56232" lon="-8.76087">
        <ele>210.51</ele>
        <time>2018-07-28T10:28:52Z</time>
      </trkpt>
      <trkpt lat="41.56262" lon="-8.76122">
        <ele>210.895</ele>
        <time>2018-07-28T10:28:53Z</time>
      </trkpt>
      <trkpt lat="41.56295" lon="-8.76155">
        <ele>211.75</ele>
        <time>2018-07-28T10:28:54Z</time>
      </trkpt>
      <trkpt lat="41.56326" lon="-8.7619">
        <ele>212.988</ele>
        <time>2018-07-28T10:28:55Z</time>
      </trkpt>
      <trkpt lat="41.56355" lon="-8.76224">
        <ele>213.544</ele>
        <time>2018-07-28T10:28:56Z</time>
      </trkpt>
      <trkpt lat="41.56383" lon="-8.76259">
        <ele>215.212</ele>
        <time>2018-07-28T10:28:57Z</time>
      </trkpt>
      <trkpt lat="41.56414" lon="-8.76295">
        <ele>215.232</ele>
        <time>2018-07-28T10:28:58Z</time>
      </trkpt>
      <trkpt lat="41.56446" lon="-8.76324">
        <ele>215.105</ele>
        <time>2018-07-28T10:28:59Z</time>
      </trkpt>
      <trkpt lat="41.56474" lon="-8.76358">
        <ele>214.608</ele>
        <time>2018-07-28T10:29:00Z</time>
      </trkpt>
      <trkpt lat="41.56503" lon="-8.76391">
        <ele>213.273</ele>
        <time>2018-07-28T10:29:01Z</time>
      </trkpt>
      <trkpt lat="41.5653" lon="-8.76425">
        <ele>211.918</ele>
        <time>2018-07-28T10:29:02Z</time>
      </trkpt>
      <trkpt lat="41.5656" lon="-8.76458">
        <ele>210.651</ele>
        <time>2018-07-28T10:29:03Z</time>
      </trkpt>
      <trkpt lat="41.56587" lon="-8.76491">
        <ele>208.453</ele>
        <time>2018-07-28T10:29:04Z</time>
      </trkpt>
      <trkpt lat="41.56616" lon="-8.76522">
        <ele>206.738</ele>
        <time>2018-07-28T10:29:05Z</time>
      </trkpt>
      <trkpt lat="41.56645" lon="-8.76552">
        <ele>205.153</ele>
        <time>2018-07-28T10:29:06Z</time>
      </trkpt>
      <trkpt lat="41.56676" lon="-8.76578">
        <ele>203.621</ele>
        <time>2018-07-28T10:29:07Z</time>
      </trkpt>
      <trkpt lat="41.56707" lon="-8.76602">
        <ele>201.997</ele>
        <time>2018-07-28T10:29:08Z</time>
      </trkpt>
      <trkpt lat="41.56739" lon="-8.76619">
        <ele>200.621</ele>
        <time>2018-07-28T10:29:09Z</time>
      </trkpt>
      <trkpt lat="41.5677" lon="-8.76638">
        <ele>199.341</ele>
        <time>2018-07-28T10:29:10Z</time>
      </trkpt>
      <trkpt lat="41.56802" lon="-8.76653">
        <ele>196.505</ele>
        <time>2018-07-28T10:29:11Z</time>
      </trkpt>
      <trkpt lat="41.56836" lon="-8.76663">
        <ele>195.308</ele>
        <time>2018-07-28T10:29:12Z</time>
      </trkpt>
      <trkpt lat="41.56871" lon="-8.76672">
        <ele>195.144</ele>
        <time>2018-07-28T10:29:13Z</time>
      </trkpt>
      <trkpt lat="41.56906" lon="-8.7668">
        <ele>195.169</ele>
        <time>2018-07-28T10:29:14Z</time>
      </trkpt>
      <trkpt lat="41.56943" lon="-8.76685">
        <ele>195.752</ele>
        <time>2018-07-28T10:29:15Z</time>
      </trkpt>
      <trkpt lat="41.56978" lon="-8.76686">
        <ele>196.224</ele>
        <time>2018-07-28T10:29:16Z</time>
      </trkpt>
      <trkpt lat="41.57015" lon="-8.76682">
        <ele>196.839</ele>
        <time>2018-07-28T10:29:17Z</time>
      </trkpt>
      <trkpt lat="41.57052" lon="-8.76677">
        <ele>197.684</ele>
        <time>2018-07-28T10:29:18Z</time>
      </trkpt>
      <trkpt lat="41.5709" lon="-8.76669">
        <ele>198.322</ele>
        <time>2018-07-28T10:29:19Z</time>
      </trkpt>
      <trkpt lat="41.57125" lon="-8.76655">
        <ele>199.138</ele>
        <time>2018-07-28T10:29:20Z</time>
      </trkpt>
      <trkpt lat="41.57159" lon="-8.76639">
        <ele>200.699</ele>
        <time>2018-07-28T10:29:21Z</time>
      </trkpt>
      <trkpt lat="41.57195" lon="-8.76622">
        <ele>202.407</ele>
        <time>2018-07-28T10:29:22Z</time>
      </trkpt>
      <trkpt lat="41.57228" lon="-8.76604">
        <ele>203.727</ele>
        <time>2018-07-28T10:29:23Z</time>
      </trkpt>
      <trkpt lat="41.57263" lon="-8.76587">
        <ele>204.708</ele>
        <time>2018-07-28T10:29:24Z</time>
      </trkpt>
      <trkpt lat="41.57299" lon="-8.76568">
        <ele>206.531</ele>
        <time>2018-07-28T10:29:25Z</time>
      </trkpt>
      <trkpt lat="41.57335" lon="-8.76549">
        <ele>209.496</ele>
        <time>2018-07-28T10:29:26Z</time>
      </trkpt>
      <trkpt lat="41.57373" lon="-8.76529">
        <ele>211.769</ele>
        <time>2018-07-28T10:29:27Z</time>
      </trkpt>
      <trkpt lat="41.57411" lon="-8.76508">
        <ele>214.291</ele>
        <time>2018-07-28T10:29:28Z</time>
      </trkpt>
      <trkpt lat="41.57449" lon="-8.76492">
        <ele>215.976</ele>
        <time>2018-07-28T10:29:29Z</time>
      </trkpt>
      <trkpt lat="41.57488" lon="-8.76474">
        <ele>217.841</ele>
        <time>2018-07-28T10:29:30Z</time>
      </trkpt>
      <trkpt lat="41.57524" lon="-8.76451">
        <ele>219.659</ele>
        <time>2018-07-28T10:29:31Z</time>
      </trkpt>
      <trkpt lat="41.5756" lon="-8.76432">
        <ele>221.015</ele>
        <time>2018-07-28T10:29:32Z</time>
      </trkpt>
      <trkpt lat="41.57597" lon="-8.76412">
        <ele>221.812</ele>
        <time>2018-07-28T10:29:33Z</time>
      </trkpt>
      <trkpt lat="41.57633" lon="-8.76394">
        <ele>222.432</ele>
        <time>2018-07-28T10:29:34Z</time>
      </trkpt>
      <trkpt lat="41.57669" lon="-8.76377">
        <ele>223.105</ele>
        <time>2018-07-28T10:29:35Z</time>
      </trkpt>
      <trkpt lat="41.57704" lon="-8.76362">
        <ele>223.308</ele>
        <time>2018-07-28T10:29:36Z</time>
      </trkpt>
      <trkpt lat="41.57739" lon="-8.76347">
        <ele>223.313</ele>
        <time>2018-07-28T10:29:37Z</time>
      </trkpt>
      <trkpt lat="41.57775" lon="-8.76334">
        <ele>223.538</ele>
        <time>2018-07-28T10:29:38Z</time>
      </trkpt>
      <trkpt lat="41.57811" lon="-8.76323">
        <ele>223.551</ele>
        <time>2018-07-28T10:29:39Z</time>
      </trkpt>
      <trkpt lat="41.57847" lon="-8.76314">
        <ele>223.573</ele>
        <time>2018-07-28T10:29:40Z</time>
      </trkpt>
      <trkpt lat="41.57883" lon="-8.76309">
        <ele>223.468</ele>
        <time>2018-07-28T10:29:41Z</time>
      </trkpt>
      <trkpt lat="41.57921" lon="-8.76309">
        <ele>223.393</ele>
        <time>2018-07-28T10:29:42Z</time>
      </trkpt>
      <trkpt lat="41.57958" lon="-8.7631">
        <ele>223.281</ele>
        <time>2018-07-28T10:29:43Z</time>
      </trkpt>
      <trkpt lat="41.57995" lon="-8.7632">
        <ele>222.887</ele>
        <time>2018-07-28T10:29:44Z</time>
      </trkpt>
      <trkpt lat="41.58034" lon="-8.76329">
        <ele>222.343</ele>
        <time>2018-07-28T10:29:45Z</time>
      </trkpt>
      <trkpt lat="41.58073" lon="-8.76337">
        <ele>221.864</ele>
        <time>2018-07-28T10:29:46Z</time>
      </trkpt>
      <trkpt lat="41.5811" lon="-8.76347">
        <ele>221.41</ele>
        <time>2018-07-28T10:29:47Z</time>
      </trkpt>
      <trkpt lat="41.58146" lon="-8.76359">
        <ele>221.008</ele>
        <time>2018-07-28T10:29:48Z</time>
      </trkpt>
      <trkpt lat="41.58182" lon="-8.76379">
        <ele>220.636</ele>
        <time>2018-07-28T10:29:49Z</time>
      </trkpt>
      <trkpt lat="41.58218" lon="-8.76393">
        <ele>219.431</ele>
        <time>2018-07-28T10:29:50Z</time>
      </trkpt>
      <trkpt lat="41.58256" lon="-8.76404">
        <ele>218.174</ele>
        <time>2018-07-28T10:29:51Z</time>
      </trkpt>
      <trkpt lat="41.58293" lon="-8.76413">
        <ele>216.436</ele>
        <time>2018-07-28T10:29:52Z</time>
      </trkpt>
      <trkpt lat="41.5833" lon="-8.76422">
        <ele>214.871</ele>
        <time>2018-07-28T10:29:53Z</time>
      </trkpt>
      <trkpt lat="41.58367" lon="-8.76432">
        <ele>213.466</ele>
        <time>2018-07-28T10:29:54Z</time>
      </trkpt>
      <trkpt lat="41.58403" lon="-8.76448">
        <ele>211.044</ele>
        <time>2018-07-28T10:29:55Z</time>
      </trkpt>
      <trkpt lat="41.5844" lon="-8.76457">
        <ele>209.55</ele>
        <time>2018-07-28T10:29:56Z</time>
      </trkpt>
      <trkpt lat="41.58475" lon="-8.76467">
        <ele>207.739</ele>
        <time>2018-07-28T10:29:57Z</time>
      </trkpt>
      <trkpt lat="41.58509" lon="-8.76478">
        <ele>206.301</ele>
        <time>2018-07-28T10:29:58Z</time>
      </trkpt>
      <trkpt lat="41.58544" lon="-8.7649">
        <ele>205.321</ele>
        <time>2018-07-28T10:29:59Z</time>
      </trkpt>
      <trkpt lat="41.58578" lon="-8.76505">
        <ele>204.608</ele>
        <time>2018-07-28T10:30:00Z</time>
      </trkpt>
      <trkpt lat="41.58612" lon="-8.76524">
        <ele>203.995</ele>
        <time>2018-07-28T10:30:01Z</time>
      </trkpt>
      <trkpt lat="41.58645" lon="-8.76546">
        <ele>203.49</ele>
        <time>2018-07-28T10:30:02Z</time>
      </trkpt>
      <trkpt lat="41.58679" lon="-8.76567">
        <ele>202.943</ele>
        <time>2018-07-28T10:30:03Z</time>
      </trkpt>
      <trkpt lat="41.58712" lon="-8.76592">
        <ele>202.175</ele>
        <time>2018-07-28T10:30:04Z</time>
      </trkpt>
      <trkpt lat="41.58743" lon="-8.76621">
        <ele>201.66</ele>
        <time>2018-07-28T10:30:05Z</time>
      </trkpt>
      <trkpt lat="41.58775" lon="-8.76647">
        <ele>201.285</ele>
        <time>2018-07-28T10:30:06Z</time>
      </trkpt>
      <trkpt lat="41.58805" lon="-8.76674">
        <ele>200.153</ele>
        <time>2018-07-28T10:30:07Z</time>
      </trkpt>
      <trkpt lat="41.58835" lon="-8.76697">
        <ele>199.299</ele>
        <time>2018-07-28T10:30:08Z</time>
      </trkpt>
      <trkpt lat="41.58865" lon="-8.76721">
        <ele>197.438</ele>
        <time>2018-07-28T10:30:09Z</time>
      </trkpt>
      <trkpt lat="41.58895" lon="-8.76746">
        <ele>192.67</ele>
        <time>2018-07-28T10:30:10Z</time>
      </trkpt>
      <trkpt lat="41.58925" lon="-8.76769">
        <ele>190.417</ele>
        <time>2018-07-28T10:30:11Z</time>
      </trkpt>
      <trkpt lat="41.58955" lon="-8.76795">
        <ele>187.908</ele>
        <time>2018-07-28T10:30:12Z</time>
      </trkpt>
      <trkpt lat="41.58988" lon="-8.76818">
        <ele>185.785</ele>
        <time>2018-07-28T10:30:13Z</time>
      </trkpt>
      <trkpt lat="41.59017" lon="-8.76841">
        <ele>183.71</ele>
        <time>2018-07-28T10:30:14Z</time>
      </trkpt>
      <trkpt lat="41.59047" lon="-8.76862">
        <ele>180.933</ele>
        <time>2018-07-28T10:30:15Z</time>
      </trkpt>
      <trkpt lat="41.59077" lon="-8.76881">
        <ele>178.325</ele>
        <time>2018-07-28T10:30:16Z</time>
      </trkpt>
      <trkpt lat="41.59109" lon="-8.76899">
        <ele>175.59</ele>
        <time>2018-07-28T10:30:17Z</time>
      </trkpt>
      <trkpt lat="41.59143" lon="-8.76916">
        <ele>173.265</ele>
        <time>2018-07-28T10:30:18Z</time>
      </trkpt>
      <trkpt lat="41.59178" lon="-8.7693">
        <ele>171.113</ele>
        <time>2018-07-28T10:30:19Z</time>
      </trkpt>
      <trkpt lat="41.59215" lon="-8.76941">
        <ele>169.939</ele>
        <time>2018-07-28T10:30:20Z</time>
      </trkpt>
      <trkpt lat="41.59251" lon="-8.76949">
        <ele>168.746</ele>
        <time>2018-07-28T10:30:21Z</time>
      </trkpt>
      <trkpt lat="41.59286" lon="-8.76961">
        <ele>167.388</ele>
        <time>2018-07-28T10:30:22Z</time>
      </trkpt>
      <trkpt lat="41.5932" lon="-8.76981">
        <ele>165.716</ele>
        <time>2018-07-28T10:30:23Z</time>
      </trkpt>
      <trkpt lat="41.59353" lon="-8.76994">
        <ele>161.008</ele>
        <time>2018-07-28T10:30:24Z</time>
      </trkpt>
      <trkpt lat="41.59388" lon="-8.77009">
        <ele>158.266</ele>
        <time>2018-07-28T10:30:25Z</time>
      </trkpt>
      <trkpt lat="41.59421" lon="-8.77021">
        <ele>155.151</ele>
        <time>2018-07-28T10:30:26Z</time>
      </trkpt>
      <trkpt lat="41.59456" lon="-8.77031">
        <ele>152.194</ele>
        <time>2018-07-28T10:30:27Z</time>
      </trkpt>
      <trkpt lat="41.5949" lon="-8.77043">
        <ele>149.346</ele>
        <time>2018-07-28T10:30:28Z</time>
      </trkpt>
      <trkpt lat="41.59523" lon="-8.77056">
        <ele>147.321</ele>
        <time>2018-07-28T10:30:29Z</time>
      </trkpt>
      <trkpt lat="41.59557" lon="-8.77071">
        <ele>145.066</ele>
        <time>2018-07-28T10:30:30Z</time>
      </trkpt>
      <trkpt lat="41.59589" lon="-8.77088">
        <ele>142.884</ele>
        <time>2018-07-28T10:30:31Z</time>
      </trkpt>
      <trkpt lat="41.5962" lon="-8.77107">
        <ele>140.98</ele>
        <time>2018-07-28T10:30:32Z</time>
      </trkpt>
      <trkpt lat="41.59651" lon="-8.77129">
        <ele>138.812</ele>
        <time>2018-07-28T10:30:33Z</time>
      </trkpt>
      <trkpt lat="41.59681" lon="-8.77157">
        <ele>136.232</ele>
        <time>2018-07-28T10:30:34Z</time>
      </trkpt>
      <trkpt lat="41.59711" lon="-8.77188">
        <ele>133.805</ele>
        <time>2018-07-28T10:30:35Z</time>
      </trkpt>
      <trkpt lat="41.59739" lon="-8.77222">
        <ele>132.508</ele>
        <time>2018-07-28T10:30:36Z</time>
      </trkpt>
      <trkpt lat="41.59769" lon="-8.77255">
        <ele>131.183</ele>
        <time>2018-07-28T10:30:37Z</time>
      </trkpt>
      <trkpt lat="41.59798" lon="-8.77289">
        <ele>130.088</ele>
        <time>2018-07-28T10:30:38Z</time>
      </trkpt>
      <trkpt lat="41.59827" lon="-8.77323">
        <ele>127.811</ele>
        <time>2018-07-28T10:30:39Z</time>
      </trkpt>
      <trkpt lat="41.59856" lon="-8.77356">
        <ele>125.623</ele>
        <time>2018-07-28T10:30:40Z</time>
      </trkpt>
      <trkpt lat="41.59885" lon="-8.77389">
        <ele>123.318</ele>
        <time>2018-07-28T10:30:41Z</time>
      </trkpt>
      <trkpt lat="41.59916" lon="-8.77417">
        <ele>120.983</ele>
        <time>2018-07-28T10:30:42Z</time>
      </trkpt>
      <trkpt lat="41.59944" lon="-8.77447">
        <ele>118.241</ele>
        <time>2018-07-28T10:30:43Z</time>
      </trkpt>
      <trkpt lat="41.59973" lon="-8.77472">
        <ele>115.147</ele>
        <time>2018-07-28T10:30:44Z</time>
      </trkpt>
      <trkpt lat="41.60004" lon="-8.77494">
        <ele>112.644</ele>
        <time>2018-07-28T10:30:45Z</time>
      </trkpt>
      <trkpt lat="41.60035" lon="-8.77514">
        <ele>110.005</ele>
        <time>2018-07-28T10:30:46Z</time>
      </trkpt>
      <trkpt lat="41.60067" lon="-8.77531">
        <ele>107.815</ele>
        <time>2018-07-28T10:30:47Z</time>
      </trkpt>
      <trkpt lat="41.60101" lon="-8.77544">
        <ele>106.008</ele>
        <time>2018-07-28T10:30:48Z</time>
      </trkpt>
      <trkpt lat="41.60135" lon="-8.77554">
        <ele>105.196</ele>
        <time>2018-07-28T10:30:49Z</time>
      </trkpt>
      <trkpt lat="41.60171" lon="-8.77561">
        <ele>104.681</ele>
        <time>2018-07-28T10:30:50Z</time>
      </trkpt>
      <trkpt lat="41.60207" lon="-8.77565">
        <ele>103.694</ele>
        <time>2018-07-28T10:30:51Z</time>
      </trkpt>
      <trkpt lat="41.60244" lon="-8.77568">
        <ele>102.966</ele>
        <time>2018-07-28T10:30:52Z</time>
      </trkpt>
      <trkpt lat="41.60282" lon="-8.77568">
        <ele>102.531</ele>
        <time>2018-07-28T10:30:53Z</time>
      </trkpt>
      <trkpt lat="41.60319" lon="-8.7757">
        <ele>102.516</ele>
        <time>2018-07-28T10:30:54Z</time>
      </trkpt>
      <trkpt lat="41.60356" lon="-8.77573">
        <ele>102.754</ele>
        <time>2018-07-28T10:30:55Z</time>
      </trkpt>
      <trkpt lat="41.60392" lon="-8.77578">
        <ele>102.71</ele>
        <time>2018-07-28T10:30:56Z</time>
      </trkpt>
      <trkpt lat="41.6043" lon="-8.7758">
        <ele>102.492</ele>
        <time>2018-07-28T10:30:57Z</time>
      </trkpt>
      <trkpt lat="41.60468" lon="-8.77584">
        <ele>101.573</ele>
        <time>2018-07-28T10:30:58Z</time>
      </trkpt>
      <trkpt lat="41.60505" lon="-8.77588">
        <ele>99.82</ele>
        <time>2018-07-28T10:30:59Z</time>
      </trkpt>
      <trkpt lat="41.60542" lon="-8.7759">
        <ele>97.508</ele>
        <time>2018-07-28T10:31:00Z</time>
      </trkpt>
      <trkpt lat="41.60576" lon="-8.77596">
        <ele>94.961</ele>
        <time>2018-07-28T10:31:01Z</time>
      </trkpt>
      <trkpt lat="41.60611" lon="-8.77599">
        <ele>92.186</ele>
        <time>2018-07-28T10:31:02Z</time>
      </trkpt>
      <trkpt lat="41.60645" lon="-8.77598">
        <ele>89.359</ele>
        <time>2018-07-28T10:31:03Z</time>
      </trkpt>
      <trkpt lat="41.60679" lon="-8.77593">
        <ele>86.881</ele>
        <time>2018-07-28T10:31:04Z</time>
      </trkpt>
      <trkpt lat="41.60714" lon="-8.77586">
        <ele>84.896</ele>
        <time>2018-07-28T10:31:05Z</time>
      </trkpt>
      <trkpt lat="41.60749" lon="-8.77577">
        <ele>82.881</ele>
        <time>2018-07-28T10:31:06Z</time>
      </trkpt>
      <trkpt lat="41.60783" lon="-8.77562">
        <ele>81.519</ele>
        <time>2018-07-28T10:31:07Z</time>
      </trkpt>
      <trkpt lat="41.60815" lon="-8.77544">
        <ele>79.575</ele>
        <time>2018-07-28T10:31:08Z</time>
      </trkpt>
      <trkpt lat="41.60847" lon="-8.77519">
        <ele>78.885</ele>
        <time>2018-07-28T10:31:09Z</time>
      </trkpt>
      <trkpt lat="41.6088" lon="-8.77494">
        <ele>78.889</ele>
        <time>2018-07-28T10:31:10Z</time>
      </trkpt>
      <trkpt lat="41.60912" lon="-8.77467">
        <ele>79.217</ele>
        <time>2018-07-28T10:31:11Z</time>
      </trkpt>
      <trkpt lat="41.60945" lon="-8.77441">
        <ele>79.808</ele>
        <time>2018-07-28T10:31:12Z</time>
      </trkpt>
      <trkpt lat="41.60977" lon="-8.77412">
        <ele>80.19</ele>
        <time>2018-07-28T10:31:13Z</time>
      </trkpt>
      <trkpt lat="41.61009" lon="-8.77384">
        <ele>81.095</ele>
        <time>2018-07-28T10:31:14Z</time>
      </trkpt>
      <trkpt lat="41.61043" lon="-8.77358">
        <ele>81.468</ele>
        <time>2018-07-28T10:31:15Z</time>
      </trkpt>
      <trkpt lat="41.61077" lon="-8.7733">
        <ele>81.65</ele>
        <time>2018-07-28T10:31:16Z</time>
      </trkpt>
      <trkpt lat="41.61111" lon="-8.77299">
        <ele>81.635</ele>
        <time>2018-07-28T10:31:17Z</time>
      </trkpt>
      <trkpt lat="41.61145" lon="-8.77272">
        <ele>81.58</ele>
        <time>2018-07-28T10:31:18Z</time>
      </trkpt>
      <trkpt lat="41.61177" lon="-8.77242">
        <ele>81.168</ele>
        <time>2018-07-28T10:31:19Z</time>
      </trkpt>
      <trkpt lat="41.61211" lon="-8.77216">
        <ele>81.184</ele>
        <time>2018-07-28T10:31:20Z</time>
      </trkpt>
      <trkpt lat="41.61244" lon="-8.77188">
        <ele>80.021</ele>
        <time>2018-07-28T10:31:21Z</time>
      </trkpt>
      <trkpt lat="41.61277" lon="-8.77162">
        <ele>77.841</ele>
        <time>2018-07-28T10:31:22Z</time>
      </trkpt>
      <trkpt lat="41.61312" lon="-8.77134">
        <ele>77.005</ele>
        <time>2018-07-28T10:31:23Z</time>
      </trkpt>
      <trkpt lat="41.61345" lon="-8.77106">
        <ele>75.208</ele>
        <time>2018-07-28T10:31:24Z</time>
      </trkpt>
      <trkpt lat="41.61379" lon="-8.7708">
        <ele>74.544</ele>
        <time>2018-07-28T10:31:25Z</time>
      </trkpt>
      <trkpt lat="41.61412" lon="-8.77053">
        <ele>73.319</ele>
        <time>2018-07-28T10:31:26Z</time>
      </trkpt>
      <trkpt lat="41.61443" lon="-8.77026">
        <ele>71.862</ele>
        <time>2018-07-28T10:31:27Z</time>
      </trkpt>
      <trkpt lat="41.61476" lon="-8.76998">
        <ele>69.964</ele>
        <time>2018-07-28T10:31:28Z</time>
      </trkpt>
      <trkpt lat="41.6151" lon="-8.76972">
        <ele>68.479</ele>
        <time>2018-07-28T10:31:29Z</time>
      </trkpt>
      <trkpt lat="41.61539" lon="-8.76947">
        <ele>66.874</ele>
        <time>2018-07-28T10:31:30Z</time>
      </trkpt>
      <trkpt lat="41.61572" lon="-8.76917">
        <ele>65.652</ele>
        <time>2018-07-28T10:31:31Z</time>
      </trkpt>
      <trkpt lat="41.61605" lon="-8.7689">
        <ele>64.948</ele>
        <time>2018-07-28T10:31:32Z</time>
      </trkpt>
      <trkpt lat="41.6164" lon="-8.76865">
        <ele>64.679</ele>
        <time>2018-07-28T10:31:33Z</time>
      </trkpt>
      <trkpt lat="41.6167" lon="-8.76836">
        <ele>64.505</ele>
        <time>2018-07-28T10:31:34Z</time>
      </trkpt>
      <trkpt lat="41.617" lon="-8.76806">
        <ele>64.325</ele>
        <time>2018-07-28T10:31:35Z</time>
      </trkpt>
      <trkpt lat="41.61731" lon="-8.76775">
        <ele>64.108</ele>
        <time>2018-07-28T10:31:36Z</time>
      </trkpt>
      <trkpt lat="41.61759" lon="-8.76741">
        <ele>64.039</ele>
        <time>2018-07-28T10:31:37Z</time>
      </trkpt>
      <trkpt lat="41.61787" lon="-8.76705">
        <ele>64.514</ele>
        <time>2018-07-28T10:31:38Z</time>
      </trkpt>
      <trkpt lat="41.61815" lon="-8.76664">
        <ele>65.257</ele>
        <time>2018-07-28T10:31:39Z</time>
      </trkpt>
      <trkpt lat="41.61842" lon="-8.76623">
        <ele>66.149</ele>
        <time>2018-07-28T10:31:40Z</time>
      </trkpt>
      <trkpt lat="41.61869" lon="-8.76584">
        <ele>67.574</ele>
        <time>2018-07-28T10:31:41Z</time>
      </trkpt>
      <trkpt lat="41.61896" lon="-8.76542">
        <ele>68.749</ele>
        <time>2018-07-28T10:31:42Z</time>
      </trkpt>
      <trkpt lat="41.61923" lon="-8.76504">
        <ele>69.647</ele>
        <time>2018-07-28T10:31:43Z</time>
      </trkpt>
      <trkpt lat="41.6195" lon="-8.76467">
        <ele>70.463</ele>
        <time>2018-07-28T10:31:44Z</time>
      </trkpt>
      <trkpt lat="41.61978" lon="-8.76427">
        <ele>70.751</ele>
        <time>2018-07-28T10:31:45Z</time>
      </trkpt>
      <trkpt lat="41.62003" lon="-8.76392">
        <ele>70.701</ele>
        <time>2018-07-28T10:31:46Z</time>
      </trkpt>
      <trkpt lat="41.62029" lon="-8.76358">
        <ele>70.511</ele>
        <time>2018-07-28T10:31:47Z</time>
      </trkpt>
      <trkpt lat="41.62056" lon="-8.76326">
        <ele>70.108</ele>
        <time>2018-07-28T10:31:48Z</time>
      </trkpt>
      <trkpt lat="41.62082" lon="-8.76297">
        <ele>69.277</ele>
        <time>2018-07-28T10:31:49Z</time>
      </trkpt>
      <trkpt lat="41.62109" lon="-8.76272">
        <ele>67.512</ele>
        <time>2018-07-28T10:31:50Z</time>
      </trkpt>
      <trkpt lat="41.62138" lon="-8.76249">
        <ele>64.795</ele>
        <time>2018-07-28T10:31:51Z</time>
      </trkpt>
      <trkpt lat="41.62166" lon="-8.76224">
        <ele>63.287</ele>
        <time>2018-07-28T10:31:52Z</time>
      </trkpt>
      <trkpt lat="41.62196" lon="-8.76206">
        <ele>62.162</ele>
        <time>2018-07-28T10:31:53Z</time>
      </trkpt>
      <trkpt lat="41.62229" lon="-8.76193">
        <ele>61.387</ele>
        <time>2018-07-28T10:31:54Z</time>
      </trkpt>
      <trkpt lat="41.62262" lon="-8.7618">
        <ele>60.975</ele>
        <time>2018-07-28T10:31:55Z</time>
      </trkpt>
      <trkpt lat="41.62297" lon="-8.76171">
        <ele>60.341</ele>
        <time>2018-07-28T10:31:56Z</time>
      </trkpt>
      <trkpt lat="41.6233" lon="-8.76162">
        <ele>60.279</ele>
        <time>2018-07-28T10:31:57Z</time>
      </trkpt>
      <trkpt lat="41.62363" lon="-8.76154">
        <ele>59.905</ele>
        <time>2018-07-28T10:31:58Z</time>
      </trkpt>
      <trkpt lat="41.624" lon="-8.76151">
        <ele>59.925</ele>
        <time>2018-07-28T10:31:59Z</time>
      </trkpt>
      <trkpt lat="41.62437" lon="-8.76152">
        <ele>60.308</ele>
        <time>2018-07-28T10:32:00Z</time>
      </trkpt>
      <trkpt lat="41.62474" lon="-8.76154">
        <ele>60.649</ele>
        <time>2018-07-28T10:32:01Z</time>
      </trkpt>
      <trkpt lat="41.6251" lon="-8.76156">
        <ele>61.084</ele>
        <time>2018-07-28T10:32:02Z</time>
      </trkpt>
      <trkpt lat="41.62544" lon="-8.76156">
        <ele>61.767</ele>
        <time>2018-07-28T10:32:03Z</time>
      </trkpt>
      <trkpt lat="41.62581" lon="-8.76157">
        <ele>62.319</ele>
        <time>2018-07-28T10:32:04Z</time>
      </trkpt>
      <trkpt lat="41.62617" lon="-8.76151">
        <ele>63.114</ele>
        <time>2018-07-28T10:32:05Z</time>
      </trkpt>
      <trkpt lat="41.62653" lon="-8.76148">
        <ele>63.149</ele>
        <time>2018-07-28T10:32:06Z</time>
      </trkpt>
      <trkpt lat="41.62689" lon="-8.76142">
        <ele>63.187</ele>
        <time>2018-07-28T10:32:07Z</time>
      </trkpt>
      <trkpt lat="41.62724" lon="-8.76134">
        <ele>63.133</ele>
        <time>2018-07-28T10:32:08Z</time>
      </trkpt>
      <trkpt lat="41.62761" lon="-8.7612">
        <ele>63.823</ele>
        <time>2018-07-28T10:32:09Z</time>
      </trkpt>
      <trkpt lat="41.62797" lon="-8.76108">
        <ele>64.483</ele>
        <time>2018-07-28T10:32:10Z</time>
      </trkpt>
      <trkpt lat="41.62833" lon="-8.76093">
        <ele>65.511</ele>
        <time>2018-07-28T10:32:11Z</time>
      </trkpt>
      <trkpt lat="41.62869" lon="-8.76078">
        <ele>66.308</ele>
        <time>2018-07-28T10:32:12Z</time>
      </trkpt>
      <trkpt lat="41.62904" lon="-8.76064">
        <ele>66.964</ele>
        <time>2018-07-28T10:32:13Z</time>
      </trkpt>
      <trkpt lat="41.62938" lon="-8.76054">
        <ele>67.119</ele>
        <time>2018-07-28T10:32:14Z</time>
      </trkpt>
      <trkpt lat="41.62972" lon="-8.76046">
        <ele>67.142</ele>
        <time>2018-07-28T10:32:15Z</time>
      </trkpt>
      <trkpt lat="41.63006" lon="-8.76038">
        <ele>66.554</ele>
        <time>2018-07-28T10:32:16Z</time>
      </trkpt>
      <trkpt lat="41.63041" lon="-8.76033">
        <ele>66.239</ele>
        <time>2018-07-28T10:32:17Z</time>
      </trkpt>
      <trkpt lat="41.63077" lon="-8.76034">
        <ele>65.564</ele>
        <time>2018-07-28T10:32:18Z</time>
      </trkpt>
      <trkpt lat="41.63113" lon="-8.76037">
        <ele>64.962</ele>
        <time>2018-07-28T10:32:19Z</time>
      </trkpt>
      <trkpt lat="41.63149" lon="-8.76045">
        <ele>65.068</ele>
        <time>2018-07-28T10:32:20Z</time>
      </trkpt>
      <trkpt lat="41.63186" lon="-8.76054">
        <ele>65.533</ele>
        <time>2018-07-28T10:32:21Z</time>
      </trkpt>
      <trkpt lat="41.63222" lon="-8.76066">
        <ele>66.523</ele>
        <time>2018-07-28T10:32:22Z</time>
      </trkpt>
      <trkpt lat="41.63257" lon="-8.76079">
        <ele>67.315</ele>
        <time>2018-07-28T10:32:23Z</time>
      </trkpt>
      <trkpt lat="41.63292" lon="-8.76093">
        <ele>67.808</ele>
        <time>2018-07-28T10:32:24Z</time>
      </trkpt>
      <trkpt lat="41.63328" lon="-8.7611">
        <ele>68.485</ele>
        <time>2018-07-28T10:32:25Z</time>
      </trkpt>
      <trkpt lat="41.63362" lon="-8.76126">
        <ele>68.98</ele>
        <time>2018-07-28T10:32:26Z</time>
      </trkpt>
      <trkpt lat="41.63398" lon="-8.76143">
        <ele>69.763</ele>
        <time>2018-07-28T10:32:27Z</time>
      </trkpt>
      <trkpt lat="41.63432" lon="-8.76157">
        <ele>70.565</ele>
        <time>2018-07-28T10:32:28Z</time>
      </trkpt>
      <trkpt lat="41.63468" lon="-8.76175">
        <ele>71.22</ele>
        <time>2018-07-28T10:32:29Z</time>
      </trkpt>
      <trkpt lat="41.63504" lon="-8.76192">
        <ele>71.655</ele>
        <time>2018-07-28T10:32:30Z</time>
      </trkpt>
      <trkpt lat="41.63539" lon="-8.76209">
        <ele>71.643</ele>
        <time>2018-07-28T10:32:31Z</time>
      </trkpt>
      <trkpt lat="41.63574" lon="-8.76226">
        <ele>71.239</ele>
        <time>2018-07-28T10:32:32Z</time>
      </trkpt>
      <trkpt lat="41.6361" lon="-8.76241">
        <ele>71.183</ele>
        <time>2018-07-28T10:32:33Z</time>
      </trkpt>
      <trkpt lat="41.63644" lon="-8.76258">
        <ele>71.325</ele>
        <time>2018-07-28T10:32:34Z</time>
      </trkpt>
      <trkpt lat="41.63678" lon="-8.76274">
        <ele>72.017</ele>
        <time>2018-07-28T10:32:35Z</time>
      </trkpt>
      <trkpt lat="41.63712" lon="-8.76291">
        <ele>72.508</ele>
        <time>2018-07-28T10:32:36Z</time>
      </trkpt>
      <trkpt lat="41.63748" lon="-8.76308">
        <ele>73.45</ele>
        <time>2018-07-28T10:32:37Z</time>
      </trkpt>
      <trkpt lat="41.63783" lon="-8.76327">
        <ele>74.115</ele>
        <time>2018-07-28T10:32:38Z</time>
      </trkpt>
      <trkpt lat="41.63818" lon="-8.76347">
        <ele>74.478</ele>
        <time>2018-07-28T10:32:39Z</time>
      </trkpt>
      <trkpt lat="41.63855" lon="-8.76363">
        <ele>75.06</ele>
        <time>2018-07-28T10:32:40Z</time>
      </trkpt>
      <trkpt lat="41.63889" lon="-8.76385">
        <ele>75.765</ele>
        <time>2018-07-28T10:32:41Z</time>
      </trkpt>
      <trkpt lat="41.63922" lon="-8.76409">
        <ele>75.95</ele>
        <time>2018-07-28T10:32:42Z</time>
      </trkpt>
      <trkpt lat="41.63956" lon="-8.76427">
        <ele>76.328</ele>
        <time>2018-07-28T10:32:43Z</time>
      </trkpt>
      <trkpt lat="41.6399" lon="-8.76448">
        <ele>76.524</ele>
        <time>2018-07-28T10:32:44Z</time>
      </trkpt>
      <trkpt lat="41.64024" lon="-8.7647">
        <ele>76.687</ele>
        <time>2018-07-28T10:32:45Z</time>
      </trkpt>
      <trkpt lat="41.64058" lon="-8.76492">
        <ele>77.042</ele>
        <time>2018-07-28T10:32:46Z</time>
      </trkpt>
      <trkpt lat="41.64094" lon="-8.76515">
        <ele>77.326</ele>
        <time>2018-07-28T10:32:47Z</time>
      </trkpt>
      <trkpt lat="41.64124" lon="-8.7654">
        <ele>77.508</ele>
        <time>2018-07-28T10:32:48Z</time>
      </trkpt>
      <trkpt lat="41.64158" lon="-8.76565">
        <ele>78.52</ele>
        <time>2018-07-28T10:32:49Z</time>
      </trkpt>
      <trkpt lat="41.6419" lon="-8.76588">
        <ele>78.775</ele>
        <time>2018-07-28T10:32:50Z</time>
      </trkpt>
      <trkpt lat="41.64223" lon="-8.76617">
        <ele>78.748</ele>
        <time>2018-07-28T10:32:51Z</time>
      </trkpt>
      <trkpt lat="41.64254" lon="-8.7664">
        <ele>78.87</ele>
        <time>2018-07-28T10:32:52Z</time>
      </trkpt>
      <trkpt lat="41.64286" lon="-8.76666">
        <ele>79.165</ele>
        <time>2018-07-28T10:32:53Z</time>
      </trkpt>
      <trkpt lat="41.64318" lon="-8.76691">
        <ele>79.26</ele>
        <time>2018-07-28T10:32:54Z</time>
      </trkpt>
      <trkpt lat="41.64351" lon="-8.76716">
        <ele>79.588</ele>
        <time>2018-07-28T10:32:55Z</time>
      </trkpt>
      <trkpt lat="41.64384" lon="-8.76739">
        <ele>80.154</ele>
        <time>2018-07-28T10:32:56Z</time>
      </trkpt>
      <trkpt lat="41.64418" lon="-8.76762">
        <ele>81.022</ele>
        <time>2018-07-28T10:32:57Z</time>
      </trkpt>
      <trkpt lat="41.64451" lon="-8.76785">
        <ele>81.862</ele>
        <time>2018-07-28T10:32:58Z</time>
      </trkpt>
      <trkpt lat="41.64485" lon="-8.76807">
        <ele>82.608</ele>
        <time>2018-07-28T10:32:59Z</time>
      </trkpt>
      <trkpt lat="41.64518" lon="-8.76829">
        <ele>83.108</ele>
        <time>2018-07-28T10:33:00Z</time>
      </trkpt>
      <trkpt lat="41.64553" lon="-8.76851">
        <ele>83.414</ele>
        <time>2018-07-28T10:33:01Z</time>
      </trkpt>
      <trkpt lat="41.64587" lon="-8.76874">
        <ele>83.499</ele>
        <time>2018-07-28T10:33:02Z</time>
      </trkpt>
      <trkpt lat="41.64621" lon="-8.76893">
        <ele>82.542</ele>
        <time>2018-07-28T10:33:03Z</time>
      </trkpt>
      <trkpt lat="41.64656" lon="-8.76911">
        <ele>81.794</ele>
        <time>2018-07-28T10:33:04Z</time>
      </trkpt>
      <trkpt lat="41.64691" lon="-8.76929">
        <ele>80.959</ele>
        <time>2018-07-28T10:33:05Z</time>
      </trkpt>
      <trkpt lat="41.64727" lon="-8.76948">
        <ele>79.854</ele>
        <time>2018-07-28T10:33:06Z</time>
      </trkpt>
      <trkpt lat="41.64763" lon="-8.76964">
        <ele>79.182</ele>
        <time>2018-07-28T10:33:07Z</time>
      </trkpt>
      <trkpt lat="41.64801" lon="-8.76981">
        <ele>78.688</ele>
        <time>2018-07-28T10:33:08Z</time>
      </trkpt>
      <trkpt lat="41.64838" lon="-8.76998">
        <ele>78.416</ele>
        <time>2018-07-28T10:33:09Z</time>
      </trkpt>
      <trkpt lat="41.64874" lon="-8.77014">
        <ele>78.276</ele>
        <time>2018-07-28T10:33:10Z</time>
      </trkpt>
      <trkpt lat="41.6491" lon="-8.77032">
        <ele>77.613</ele>
        <time>2018-07-28T10:33:11Z</time>
      </trkpt>
      <trkpt lat="41.64948" lon="-8.77046">
        <ele>77.308</ele>
        <time>2018-07-28T10:33:12Z</time>
      </trkpt>
      <trkpt lat="41.64985" lon="-8.77061">
        <ele>76.923</ele>
        <time>2018-07-28T10:33:13Z</time>
      </trkpt>
      <trkpt lat="41.65023" lon="-8.77075">
        <ele>76.548</ele>
        <time>2018-07-28T10:33:14Z</time>
      </trkpt>
      <trkpt lat="41.6506" lon="-8.77087">
        <ele>76.521</ele>
        <time>2018-07-28T10:33:15Z</time>
      </trkpt>
      <trkpt lat="41.65099" lon="-8.771">
        <ele>76.463</ele>
        <time>2018-07-28T10:33:16Z</time>
      </trkpt>
      <trkpt lat="41.65137" lon="-8.77111">
        <ele>76.268</ele>
        <time>2018-07-28T10:33:17Z</time>
      </trkpt>
      <trkpt lat="41.65175" lon="-8.77121">
        <ele>75.563</ele>
        <time>2018-07-28T10:33:18Z</time>
      </trkpt>
      <trkpt lat="41.65212" lon="-8.7713">
        <ele>74.611</ele>
        <time>2018-07-28T10:33:19Z</time>
      </trkpt>
      <trkpt lat="41.65249" lon="-8.7714">
        <ele>73.827</ele>
        <time>2018-07-28T10:33:20Z</time>
      </trkpt>
      <trkpt lat="41.65286" lon="-8.7715">
        <ele>73.288</ele>
        <time>2018-07-28T10:33:21Z</time>
      </trkpt>
      <trkpt lat="41.65324" lon="-8.7716">
        <ele>72.724</ele>
        <time>2018-07-28T10:33:22Z</time>
      </trkpt>
      <trkpt lat="41.6536" lon="-8.77173">
        <ele>72.526</ele>
        <time>2018-07-28T10:33:23Z</time>
      </trkpt>
      <trkpt lat="41.65395" lon="-8.77188">
        <ele>72.408</ele>
        <time>2018-07-28T10:33:24Z</time>
      </trkpt>
      <trkpt lat="41.65431" lon="-8.77205">
        <ele>72.08</ele>
        <time>2018-07-28T10:33:25Z</time>
      </trkpt>
      <trkpt lat="41.65466" lon="-8.77223">
        <ele>72.085</ele>
        <time>2018-07-28T10:33:26Z</time>
      </trkpt>
      <trkpt lat="41.65501" lon="-8.77241">
        <ele>72.098</ele>
        <time>2018-07-28T10:33:27Z</time>
      </trkpt>
      <trkpt lat="41.65535" lon="-8.77262">
        <ele>72.08</ele>
        <time>2018-07-28T10:33:28Z</time>
      </trkpt>
      <trkpt lat="41.65569" lon="-8.77283">
        <ele>72.195</ele>
        <time>2018-07-28T10:33:29Z</time>
      </trkpt>
      <trkpt lat="41.65603" lon="-8.77307">
        <ele>72.48</ele>
        <time>2018-07-28T10:33:30Z</time>
      </trkpt>
      <trkpt lat="41.65635" lon="-8.77331">
        <ele>72.558</ele>
        <time>2018-07-28T10:33:31Z</time>
      </trkpt>
      <trkpt lat="41.65668" lon="-8.77357">
        <ele>73.094</ele>
        <time>2018-07-28T10:33:32Z</time>
      </trkpt>
      <trkpt lat="41.65702" lon="-8.7738">
        <ele>73.566</ele>
        <time>2018-07-28T10:33:33Z</time>
      </trkpt>
      <trkpt lat="41.65736" lon="-8.77406">
        <ele>73.629</ele>
        <time>2018-07-28T10:33:34Z</time>
      </trkpt>
      <trkpt lat="41.65768" lon="-8.77432">
        <ele>73.921</ele>
        <time>2018-07-28T10:33:35Z</time>
      </trkpt>
      <trkpt lat="41.658" lon="-8.77458">
        <ele>74.108</ele>
        <time>2018-07-28T10:33:36Z</time>
      </trkpt>
      <trkpt lat="41.65832" lon="-8.77483">
        <ele>74.598</ele>
        <time>2018-07-28T10:33:37Z</time>
      </trkpt>
      <trkpt lat="41.65864" lon="-8.77508">
        <ele>74.753</ele>
        <time>2018-07-28T10:33:38Z</time>
      </trkpt>
      <trkpt lat="41.65894" lon="-8.77534">
        <ele>75.086</ele>
        <time>2018-07-28T10:33:39Z</time>
      </trkpt>
      <trkpt lat="41.65924" lon="-8.77558">
        <ele>75.058</ele>
        <time>2018-07-28T10:33:40Z</time>
      </trkpt>
      <trkpt lat="41.65955" lon="-8.77582">
        <ele>74.863</ele>
        <time>2018-07-28T10:33:41Z</time>
      </trkpt>
      <trkpt lat="41.65986" lon="-8.77606">
        <ele>74.498</ele>
        <time>2018-07-28T10:33:42Z</time>
      </trkpt>
      <trkpt lat="41.66016" lon="-8.7763">
        <ele>74.466</ele>
        <time>2018-07-28T10:33:43Z</time>
      </trkpt>
      <trkpt lat="41.66047" lon="-8.77654">
        <ele>74.542</ele>
        <time>2018-07-28T10:33:44Z</time>
      </trkpt>
      <trkpt lat="41.66076" lon="-8.77676">
        <ele>74.544</ele>
        <time>2018-07-28T10:33:45Z</time>
      </trkpt>
      <trkpt lat="41.66105" lon="-8.77697">
        <ele>73.805</ele>
        <time>2018-07-28T10:33:46Z</time>
      </trkpt>
      <trkpt lat="41.66132" lon="-8.77717">
        <ele>73.015</ele>
        <time>2018-07-28T10:33:47Z</time>
      </trkpt>
      <trkpt lat="41.66161" lon="-8.77735">
        <ele>72.108</ele>
        <time>2018-07-28T10:33:48Z</time>
      </trkpt>
      <trkpt lat="41.66191" lon="-8.77752">
        <ele>72.076</ele>
        <time>2018-07-28T10:33:49Z</time>
      </trkpt>
      <trkpt lat="41.66223" lon="-8.77766">
        <ele>72.041</ele>
        <time>2018-07-28T10:33:50Z</time>
      </trkpt>
      <trkpt lat="41.66254" lon="-8.77779">
        <ele>73.074</ele>
        <time>2018-07-28T10:33:51Z</time>
      </trkpt>
      <trkpt lat="41.66287" lon="-8.77789">
        <ele>74.026</ele>
        <time>2018-07-28T10:33:52Z</time>
      </trkpt>
      <trkpt lat="41.6632" lon="-8.77797">
        <ele>75.411</ele>
        <time>2018-07-28T10:33:53Z</time>
      </trkpt>
      <trkpt lat="41.66354" lon="-8.77802">
        <ele>76.736</ele>
        <time>2018-07-28T10:33:54Z</time>
      </trkpt>
      <trkpt lat="41.66387" lon="-8.77806">
        <ele>77.734</ele>
        <time>2018-07-28T10:33:55Z</time>
      </trkpt>
      <trkpt lat="41.6642" lon="-8.77807">
        <ele>78.71</ele>
        <time>2018-07-28T10:33:56Z</time>
      </trkpt>
      <trkpt lat="41.66455" lon="-8.77805">
        <ele>79.888</ele>
        <time>2018-07-28T10:33:57Z</time>
      </trkpt>
      <trkpt lat="41.6649" lon="-8.77803">
        <ele>80.524</ele>
        <time>2018-07-28T10:33:58Z</time>
      </trkpt>
      <trkpt lat="41.66525" lon="-8.778">
        <ele>81.326</ele>
        <time>2018-07-28T10:33:59Z</time>
      </trkpt>
      <trkpt lat="41.66559" lon="-8.7779">
        <ele>84.408</ele>
        <time>2018-07-28T10:34:00Z</time>
      </trkpt>
      <trkpt lat="41.66593" lon="-8.77777">
        <ele>85.55</ele>
        <time>2018-07-28T10:34:01Z</time>
      </trkpt>
      <trkpt lat="41.66627" lon="-8.77764">
        <ele>86.675</ele>
        <time>2018-07-28T10:34:02Z</time>
      </trkpt>
      <trkpt lat="41.66659" lon="-8.77749">
        <ele>87.488</ele>
        <time>2018-07-28T10:34:03Z</time>
      </trkpt>
      <trkpt lat="41.66691" lon="-8.7773">
        <ele>87.46</ele>
        <time>2018-07-28T10:34:04Z</time>
      </trkpt>
      <trkpt lat="41.66722" lon="-8.77709">
        <ele>87.185</ele>
        <time>2018-07-28T10:34:05Z</time>
      </trkpt>
      <trkpt lat="41.66751" lon="-8.77685">
        <ele>86.48</ele>
        <time>2018-07-28T10:34:06Z</time>
      </trkpt>
      <trkpt lat="41.6678" lon="-8.7766">
        <ele>86.468</ele>
        <time>2018-07-28T10:34:07Z</time>
      </trkpt>
      <trkpt lat="41.66808" lon="-8.77632">
        <ele>86.484</ele>
        <time>2018-07-28T10:34:08Z</time>
      </trkpt>
      <trkpt lat="41.66837" lon="-8.77602">
        <ele>86.446</ele>
        <time>2018-07-28T10:34:09Z</time>
      </trkpt>
      <trkpt lat="41.66864" lon="-8.7757">
        <ele>86.988</ele>
        <time>2018-07-28T10:34:10Z</time>
      </trkpt>
      <trkpt lat="41.66889" lon="-8.77534">
        <ele>87.916</ele>
        <time>2018-07-28T10:34:11Z</time>
      </trkpt>
      <trkpt lat="41.66915" lon="-8.77498">
        <ele>88.808</ele>
        <time>2018-07-28T10:34:12Z</time>
      </trkpt>
      <trkpt lat="41.66943" lon="-8.77464">
        <ele>89.716</ele>
        <time>2018-07-28T10:34:13Z</time>
      </trkpt>
      <trkpt lat="41.6697" lon="-8.77429">
        <ele>91.021</ele>
        <time>2018-07-28T10:34:14Z</time>
      </trkpt>
      <trkpt lat="41.66996" lon="-8.77394">
        <ele>92.424</ele>
        <time>2018-07-28T10:34:15Z</time>
      </trkpt>
      <trkpt lat="41.67023" lon="-8.77361">
        <ele>92.476</ele>
        <time>2018-07-28T10:34:16Z</time>
      </trkpt>
      <trkpt lat="41.67047" lon="-8.77327">
        <ele>92.141</ele>
        <time>2018-07-28T10:34:17Z</time>
      </trkpt>
      <trkpt lat="41.67071" lon="-8.77295">
        <ele>91.286</ele>
        <time>2018-07-28T10:34:18Z</time>
      </trkpt>
      <trkpt lat="41.67096" lon="-8.77266">
        <ele>90.144</ele>
        <time>2018-07-28T10:34:19Z</time>
      </trkpt>
      <trkpt lat="41.67122" lon="-8.77239">
        <ele>89.11</ele>
        <time>2018-07-28T10:34:20Z</time>
      </trkpt>
      <trkpt lat="41.67149" lon="-8.77213">
        <ele>88.398</ele>
        <time>2018-07-28T10:34:21Z</time>
      </trkpt>
      <trkpt lat="41.67178" lon="-8.7719">
        <ele>88.115</ele>
        <time>2018-07-28T10:34:22Z</time>
      </trkpt>
      <trkpt lat="41.67208" lon="-8.77168">
        <ele>88.026</ele>
        <time>2018-07-28T10:34:23Z</time>
      </trkpt>
      <trkpt lat="41.67237" lon="-8.7715">
        <ele>87.908</ele>
        <time>2018-07-28T10:34:24Z</time>
      </trkpt>
      <trkpt lat="41.67268" lon="-8.77138">
        <ele>87.781</ele>
        <time>2018-07-28T10:34:25Z</time>
      </trkpt>
      <trkpt lat="41.673" lon="-8.77127">
        <ele>87.326</ele>
        <time>2018-07-28T10:34:26Z</time>
      </trkpt>
      <trkpt lat="41.67331" lon="-8.77115">
        <ele>86.499</ele>
        <time>2018-07-28T10:34:27Z</time>
      </trkpt>
      <trkpt lat="41.67362" lon="-8.77105">
        <ele>85.281</ele>
        <time>2018-07-28T10:34:28Z</time>
      </trkpt>
      <trkpt lat="41.67394" lon="-8.77095">
        <ele>83.566</ele>
        <time>2018-07-28T10:34:29Z</time>
      </trkpt>
      <trkpt lat="41.67426" lon="-8.77086">
        <ele>82.651</ele>
        <time>2018-07-28T10:34:30Z</time>
      </trkpt>
      <trkpt lat="41.67461" lon="-8.77083">
        <ele>82.199</ele>
        <time>2018-07-28T10:34:31Z</time>
      </trkpt>
      <trkpt lat="41.67495" lon="-8.77083">
        <ele>81.585</ele>
        <time>2018-07-28T10:34:32Z</time>
      </trkpt>
      <trkpt lat="41.6753" lon="-8.77086">
        <ele>80.753</ele>
        <time>2018-07-28T10:34:33Z</time>
      </trkpt>
      <trkpt lat="41.67562" lon="-8.77093">
        <ele>79.504</ele>
        <time>2018-07-28T10:34:34Z</time>
      </trkpt>
      <trkpt lat="41.67596" lon="-8.77101">
        <ele>78.414</ele>
        <time>2018-07-28T10:34:35Z</time>
      </trkpt>
      <trkpt lat="41.67627" lon="-8.77113">
        <ele>77.308</ele>
        <time>2018-07-28T10:34:36Z</time>
      </trkpt>
      <trkpt lat="41.67661" lon="-8.77118">
        <ele>76.327</ele>
        <time>2018-07-28T10:34:37Z</time>
      </trkpt>
      <trkpt lat="41.67693" lon="-8.77131">
        <ele>75.472</ele>
        <time>2018-07-28T10:34:38Z</time>
      </trkpt>
      <trkpt lat="41.67727" lon="-8.77142">
        <ele>74.865</ele>
        <time>2018-07-28T10:34:39Z</time>
      </trkpt>
      <trkpt lat="41.67764" lon="-8.77158">
        <ele>74.237</ele>
        <time>2018-07-28T10:34:40Z</time>
      </trkpt>
      <trkpt lat="41.67801" lon="-8.77176">
        <ele>73.872</ele>
        <time>2018-07-28T10:34:41Z</time>
      </trkpt>
      <trkpt lat="41.67836" lon="-8.77196">
        <ele>73.887</ele>
        <time>2018-07-28T10:34:42Z</time>
      </trkpt>
      <trkpt lat="41.67872" lon="-8.77218">
        <ele>73.835</ele>
        <time>2018-07-28T10:34:43Z</time>
      </trkpt>
      <trkpt lat="41.67908" lon="-8.77239">
        <ele>73.631</ele>
        <time>2018-07-28T10:34:44Z</time>
      </trkpt>
      <trkpt lat="41.67944" lon="-8.77259">
        <ele>73.117</ele>
        <time>2018-07-28T10:34:45Z</time>
      </trkpt>
      <trkpt lat="41.67976" lon="-8.77287">
        <ele>72.087</ele>
        <time>2018-07-28T10:34:46Z</time>
      </trkpt>
      <trkpt lat="41.68008" lon="-8.77311">
        <ele>70.715</ele>
        <time>2018-07-28T10:34:47Z</time>
      </trkpt>
      <trkpt lat="41.6804" lon="-8.77334">
        <ele>68.708</ele>
        <time>2018-07-28T10:34:48Z</time>
      </trkpt>
      <trkpt lat="41.68072" lon="-8.77356">
        <ele>66.923</ele>
        <time>2018-07-28T10:34:49Z</time>
      </trkpt>
      <trkpt lat="41.68104" lon="-8.77375">
        <ele>64.998</ele>
        <time>2018-07-28T10:34:50Z</time>
      </trkpt>
      <trkpt lat="41.68135" lon="-8.77396">
        <ele>63.231</ele>
        <time>2018-07-28T10:34:51Z</time>
      </trkpt>
      <trkpt lat="41.68166" lon="-8.77415">
        <ele>61.453</ele>
        <time>2018-07-28T10:34:52Z</time>
      </trkpt>
      <trkpt lat="41.68196" lon="-8.7743">
        <ele>59.698</ele>
        <time>2018-07-28T10:34:53Z</time>
      </trkpt>
      <trkpt lat="41.68227" lon="-8.77447">
        <ele>58.223</ele>
        <time>2018-07-28T10:34:54Z</time>
      </trkpt>
      <trkpt lat="41.68257" lon="-8.77464">
        <ele>56.641</ele>
        <time>2018-07-28T10:34:55Z</time>
      </trkpt>
      <trkpt lat="41.68286" lon="-8.77483">
        <ele>54.767</ele>
        <time>2018-07-28T10:34:56Z</time>
      </trkpt>
      <trkpt lat="41.68316" lon="-8.775">
        <ele>51.732</ele>
        <time>2018-07-28T10:34:57Z</time>
      </trkpt>
      <trkpt lat="41.68345" lon="-8.77518">
        <ele>50.392</ele>
        <time>2018-07-28T10:34:58Z</time>
      </trkpt>
      <trkpt lat="41.68374" lon="-8.77534">
        <ele>49.511</ele>
        <time>2018-07-28T10:34:59Z</time>
      </trkpt>
      <trkpt lat="41.68403" lon="-8.77552">
        <ele>48.508</ele>
        <time>2018-07-28T10:35:00Z</time>
      </trkpt>
      <trkpt lat="41.68435" lon="-8.77571">
        <ele>47.725</ele>
        <time>2018-07-28T10:35:01Z</time>
      </trkpt>
      <trkpt lat="41.68461" lon="-8.77592">
        <ele>46.86</ele>
        <time>2018-07-28T10:35:02Z</time>
      </trkpt>
      <trkpt lat="41.68487" lon="-8.77617">
        <ele>46.173</ele>
        <time>2018-07-28T10:35:03Z</time>
      </trkpt>
      <trkpt lat="41.68512" lon="-8.7764">
        <ele>45.185</ele>
        <time>2018-07-28T10:35:04Z</time>
      </trkpt>
      <trkpt lat="41.68537" lon="-8.77666">
        <ele>44.55</ele>
        <time>2018-07-28T10:35:05Z</time>
      </trkpt>
      <trkpt lat="41.68564" lon="-8.77687">
        <ele>43.625</ele>
        <time>2018-07-28T10:35:06Z</time>
      </trkpt>
      <trkpt lat="41.68588" lon="-8.77711">
        <ele>42.923</ele>
        <time>2018-07-28T10:35:07Z</time>
      </trkpt>
      <trkpt lat="41.68612" lon="-8.77736">
        <ele>42.159</ele>
        <time>2018-07-28T10:35:08Z</time>
      </trkpt>
      <trkpt lat="41.68636" lon="-8.77761">
        <ele>41.563</ele>
        <time>2018-07-28T10:35:09Z</time>
      </trkpt>
      <trkpt lat="41.68659" lon="-8.77785">
        <ele>41.144</ele>
        <time>2018-07-28T10:35:10Z</time>
      </trkpt>
      <trkpt lat="41.68683" lon="-8.77808">
        <ele>41.118</ele>
        <time>2018-07-28T10:35:11Z</time>
      </trkpt>
      <trkpt lat="41.68708" lon="-8.77834">
        <ele>41.508</ele>
        <time>2018-07-28T10:35:12Z</time>
      </trkpt>
      <trkpt lat="41.68728" lon="-8.7786">
        <ele>41.868</ele>
        <time>2018-07-28T10:35:13Z</time>
      </trkpt>
      <trkpt lat="41.68749" lon="-8.77891">
        <ele>42.183</ele>
        <time>2018-07-28T10:35:14Z</time>
      </trkpt>
      <trkpt lat="41.68771" lon="-8.77919">
        <ele>42.256</ele>
        <time>2018-07-28T10:35:15Z</time>
      </trkpt>
      <trkpt lat="41.68796" lon="-8.77946">
        <ele>42.368</ele>
        <time>2018-07-28T10:35:16Z</time>
      </trkpt>
      <trkpt lat="41.68818" lon="-8.77976">
        <ele>42.383</ele>
        <time>2018-07-28T10:35:17Z</time>
      </trkpt>
      <trkpt lat="41.68842" lon="-8.78005">
        <ele>42.398</ele>
        <time>2018-07-28T10:35:18Z</time>
      </trkpt>
      <trkpt lat="41.68866" lon="-8.78031">
        <ele>42.556</ele>
        <time>2018-07-28T10:35:19Z</time>
      </trkpt>
      <trkpt lat="41.68889" lon="-8.78057">
        <ele>42.872</ele>
        <time>2018-07-28T10:35:20Z</time>
      </trkpt>
      <trkpt lat="41.68912" lon="-8.78082">
        <ele>43.135</ele>
        <time>2018-07-28T10:35:21Z</time>
      </trkpt>
      <trkpt lat="41.68934" lon="-8.7811">
        <ele>44.086</ele>
        <time>2018-07-28T10:35:22Z</time>
      </trkpt>
      <trkpt lat="41.68958" lon="-8.78135">
        <ele>44.714</ele>
        <time>2018-07-28T10:35:23Z</time>
      </trkpt>
      <trkpt lat="41.6898" lon="-8.78162">
        <ele>45.208</ele>
        <time>2018-07-28T10:35:24Z</time>
      </trkpt>
      <trkpt lat="41.69003" lon="-8.7819">
        <ele>46.015</ele>
        <time>2018-07-28T10:35:25Z</time>
      </trkpt>
      <trkpt lat="41.69026" lon="-8.78217">
        <ele>46.66</ele>
        <time>2018-07-28T10:35:26Z</time>
      </trkpt>
      <trkpt lat="41.6905" lon="-8.78244">
        <ele>46.843</ele>
        <time>2018-07-28T10:35:27Z</time>
      </trkpt>
      <trkpt lat="41.69073" lon="-8.78274">
        <ele>47.025</ele>
        <time>2018-07-28T10:35:28Z</time>
      </trkpt>
      <trkpt lat="41.69097" lon="-8.78299">
        <ele>47.07</ele>
        <time>2018-07-28T10:35:29Z</time>
      </trkpt>
      <trkpt lat="41.69123" lon="-8.78324">
        <ele>47.145</ele>
        <time>2018-07-28T10:35:30Z</time>
      </trkpt>
      <trkpt lat="41.69145" lon="-8.78351">
        <ele>47.693</ele>
        <time>2018-07-28T10:35:31Z</time>
      </trkpt>
      <trkpt lat="41.69168" lon="-8.78381">
        <ele>47.879</ele>
        <time>2018-07-28T10:35:32Z</time>
      </trkpt>
      <trkpt lat="41.6919" lon="-8.78411">
        <ele>48.032</ele>
        <time>2018-07-28T10:35:33Z</time>
      </trkpt>
      <trkpt lat="41.69213" lon="-8.78439">
        <ele>48.392</ele>
        <time>2018-07-28T10:35:34Z</time>
      </trkpt>
      <trkpt lat="41.69235" lon="-8.78467">
        <ele>48.511</ele>
        <time>2018-07-28T10:35:35Z</time>
      </trkpt>
      <trkpt lat="41.69258" lon="-8.78497">
        <ele>48.508</ele>
        <time>2018-07-28T10:35:36Z</time>
      </trkpt>
      <trkpt lat="41.69282" lon="-8.78523">
        <ele>48.565</ele>
        <time>2018-07-28T10:35:37Z</time>
      </trkpt>
      <trkpt lat="41.69301" lon="-8.78554">
        <ele>48.57</ele>
        <time>2018-07-28T10:35:38Z</time>
      </trkpt>
      <trkpt lat="41.69331" lon="-8.78579">
        <ele>48.513</ele>
        <time>2018-07-28T10:35:39Z</time>
      </trkpt>
      <trkpt lat="41.69355" lon="-8.78609">
        <ele>48.765</ele>
        <time>2018-07-28T10:35:40Z</time>
      </trkpt>
      <trkpt lat="41.69378" lon="-8.78639">
        <ele>48.71</ele>
        <time>2018-07-28T10:35:41Z</time>
      </trkpt>
      <trkpt lat="41.694" lon="-8.78668">
        <ele>48.835</ele>
        <time>2018-07-28T10:35:42Z</time>
      </trkpt>
      <trkpt lat="41.69428" lon="-8.78693">
        <ele>48.883</ele>
        <time>2018-07-28T10:35:43Z</time>
      </trkpt>
      <trkpt lat="41.69452" lon="-8.78721">
        <ele>48.579</ele>
        <time>2018-07-28T10:35:44Z</time>
      </trkpt>
      <trkpt lat="41.69477" lon="-8.78747">
        <ele>48.331</ele>
        <time>2018-07-28T10:35:45Z</time>
      </trkpt>
      <trkpt lat="41.695" lon="-8.78772">
        <ele>47.961</ele>
        <time>2018-07-28T10:35:46Z</time>
      </trkpt>
      <trkpt lat="41.69524" lon="-8.78802">
        <ele>47.407</ele>
        <time>2018-07-28T10:35:47Z</time>
      </trkpt>
      <trkpt lat="41.69548" lon="-8.7883">
        <ele>47.308</ele>
        <time>2018-07-28T10:35:48Z</time>
      </trkpt>
      <trkpt lat="41.69572" lon="-8.78857">
        <ele>47.235</ele>
        <time>2018-07-28T10:35:49Z</time>
      </trkpt>
      <trkpt lat="41.69596" lon="-8.78884">
        <ele>46.93</ele>
        <time>2018-07-28T10:35:50Z</time>
      </trkpt>
      <trkpt lat="41.6962" lon="-8.78913">
        <ele>46.313</ele>
        <time>2018-07-28T10:35:51Z</time>
      </trkpt>
      <trkpt lat="41.69641" lon="-8.78937">
        <ele>45.395</ele>
        <time>2018-07-28T10:35:52Z</time>
      </trkpt>
      <trkpt lat="41.69665" lon="-8.78964">
        <ele>44.25</ele>
        <time>2018-07-28T10:35:53Z</time>
      </trkpt>
      <trkpt lat="41.69687" lon="-8.7899">
        <ele>42.125</ele>
        <time>2018-07-28T10:35:54Z</time>
      </trkpt>
      <trkpt lat="41.69708" lon="-8.79017">
        <ele>41.393</ele>
        <time>2018-07-28T10:35:55Z</time>
      </trkpt>
      <trkpt lat="41.6973" lon="-8.79044">
        <ele>41.199</ele>
        <time>2018-07-28T10:35:56Z</time>
      </trkpt>
      <trkpt lat="41.69752" lon="-8.79072">
        <ele>40.854</ele>
        <time>2018-07-28T10:35:57Z</time>
      </trkpt>
      <trkpt lat="41.69774" lon="-8.79093">
        <ele>40.556</ele>
        <time>2018-07-28T10:35:58Z</time>
      </trkpt>
      <trkpt lat="41.69795" lon="-8.79119">
        <ele>39.611</ele>
        <time>2018-07-28T10:35:59Z</time>
      </trkpt>
      <trkpt lat="41.69816" lon="-8.79145">
        <ele>39.108</ele>
        <time>2018-07-28T10:36:00Z</time>
      </trkpt>
      <trkpt lat="41.69838" lon="-8.79169">
        <ele>38.047</ele>
        <time>2018-07-28T10:36:01Z</time>
      </trkpt>
      <trkpt lat="41.69858" lon="-8.79196">
        <ele>37.282</ele>
        <time>2018-07-28T10:36:02Z</time>
      </trkpt>
      <trkpt lat="41.6988" lon="-8.79222">
        <ele>36.345</ele>
        <time>2018-07-28T10:36:03Z</time>
      </trkpt>
      <trkpt lat="41.69904" lon="-8.79248">
        <ele>35.677</ele>
        <time>2018-07-28T10:36:04Z</time>
      </trkpt>
      <trkpt lat="41.69927" lon="-8.79271">
        <ele>35.172</ele>
        <time>2018-07-28T10:36:05Z</time>
      </trkpt>
      <trkpt lat="41.69948" lon="-8.79302">
        <ele>34.827</ele>
        <time>2018-07-28T10:36:06Z</time>
      </trkpt>
      <trkpt lat="41.69969" lon="-8.7933">
        <ele>34.895</ele>
        <time>2018-07-28T10:36:07Z</time>
      </trkpt>
      <trkpt lat="41.69992" lon="-8.79356">
        <ele>35.451</ele>
        <time>2018-07-28T10:36:08Z</time>
      </trkpt>
      <trkpt lat="41.70014" lon="-8.79383">
        <ele>36.042</ele>
        <time>2018-07-28T10:36:09Z</time>
      </trkpt>
      <trkpt lat="41.70036" lon="-8.79408">
        <ele>36.822</ele>
        <time>2018-07-28T10:36:10Z</time>
      </trkpt>
      <trkpt lat="41.7006" lon="-8.79434">
        <ele>37.414</ele>
        <time>2018-07-28T10:36:11Z</time>
      </trkpt>
      <trkpt lat="41.70084" lon="-8.79461">
        <ele>37.408</ele>
        <time>2018-07-28T10:36:12Z</time>
      </trkpt>
      <trkpt lat="41.70104" lon="-8.79493">
        <ele>37.376</ele>
        <time>2018-07-28T10:36:13Z</time>
      </trkpt>
      <trkpt lat="41.70126" lon="-8.79518">
        <ele>37.271</ele>
        <time>2018-07-28T10:36:14Z</time>
      </trkpt>
      <trkpt lat="41.70151" lon="-8.7954">
        <ele>37.054</ele>
        <time>2018-07-28T10:36:15Z</time>
      </trkpt>
      <trkpt lat="41.70173" lon="-8.79567">
        <ele>36.756</ele>
        <time>2018-07-28T10:36:16Z</time>
      </trkpt>
      <trkpt lat="41.70195" lon="-8.79592">
        <ele>36.721</ele>
        <time>2018-07-28T10:36:17Z</time>
      </trkpt>
      <trkpt lat="41.70218" lon="-8.79619">
        <ele>36.396</ele>
        <time>2018-07-28T10:36:18Z</time>
      </trkpt>
      <trkpt lat="41.70239" lon="-8.79642">
        <ele>36.084</ele>
        <time>2018-07-28T10:36:19Z</time>
      </trkpt>
      <trkpt lat="41.70263" lon="-8.79666">
        <ele>35.86</ele>
        <time>2018-07-28T10:36:20Z</time>
      </trkpt>
      <trkpt lat="41.7029" lon="-8.79689">
        <ele>35.339</ele>
        <time>2018-07-28T10:36:21Z</time>
      </trkpt>
      <trkpt lat="41.70316" lon="-8.79711">
        <ele>35.001</ele>
        <time>2018-07-28T10:36:22Z</time>
      </trkpt>
      <trkpt lat="41.70342" lon="-8.79732">
        <ele>35.121</ele>
        <time>2018-07-28T10:36:23Z</time>
      </trkpt>
      <trkpt lat="41.70366" lon="-8.79753">
        <ele>35.108</ele>
        <time>2018-07-28T10:36:24Z</time>
      </trkpt>
      <trkpt lat="41.70391" lon="-8.79773">
        <ele>35.285</ele>
        <time>2018-07-28T10:36:25Z</time>
      </trkpt>
      <trkpt lat="41.70417" lon="-8.7979">
        <ele>35.34</ele>
        <time>2018-07-28T10:36:26Z</time>
      </trkpt>
      <trkpt lat="41.70443" lon="-8.79809">
        <ele>35.593</ele>
        <time>2018-07-28T10:36:27Z</time>
      </trkpt>
      <trkpt lat="41.70469" lon="-8.79828">
        <ele>35.715</ele>
        <time>2018-07-28T10:36:28Z</time>
      </trkpt>
      <trkpt lat="41.70498" lon="-8.79845">
        <ele>36.11</ele>
        <time>2018-07-28T10:36:29Z</time>
      </trkpt>
      <trkpt lat="41.70526" lon="-8.79863">
        <ele>36.285</ele>
        <time>2018-07-28T10:36:30Z</time>
      </trkpt>
      <trkpt lat="41.70554" lon="-8.79878">
        <ele>36.253</ele>
        <time>2018-07-28T10:36:31Z</time>
      </trkpt>
      <trkpt lat="41.70579" lon="-8.79897">
        <ele>36.289</ele>
        <time>2018-07-28T10:36:32Z</time>
      </trkpt>
      <trkpt lat="41.70603" lon="-8.79912">
        <ele>35.588</ele>
        <time>2018-07-28T10:36:33Z</time>
      </trkpt>
      <trkpt lat="41.70626" lon="-8.79926">
        <ele>34.524</ele>
        <time>2018-07-28T10:36:34Z</time>
      </trkpt>
      <trkpt lat="41.70652" lon="-8.79938">
        <ele>33.626</ele>
        <time>2018-07-28T10:36:35Z</time>
      </trkpt>
      <trkpt lat="41.70676" lon="-8.79946">
        <ele>32.408</ele>
        <time>2018-07-28T10:36:36Z</time>
      </trkpt>
      <trkpt lat="41.70702" lon="-8.79954">
        <ele>32.23</ele>
        <time>2018-07-28T10:36:37Z</time>
      </trkpt>
      <trkpt lat="41.70728" lon="-8.79959">
        <ele>32.175</ele>
        <time>2018-07-28T10:36:38Z</time>
      </trkpt>
      <trkpt lat="41.70753" lon="-8.79962">
        <ele>32.088</ele>
        <time>2018-07-28T10:36:39Z</time>
      </trkpt>
      <trkpt lat="41.70778" lon="-8.79963">
        <ele>31.77</ele>
        <time>2018-07-28T10:36:40Z</time>
      </trkpt>
      <trkpt lat="41.70802" lon="-8.7996">
        <ele>31.495</ele>
        <time>2018-07-28T10:36:41Z</time>
      </trkpt>
      <trkpt lat="41.70827" lon="-8.79955">
        <ele>31.42</ele>
        <time>2018-07-28T10:36:42Z</time>
      </trkpt>
      <trkpt lat="41.70851" lon="-8.79949">
        <ele>31.318</ele>
        <time>2018-07-28T10:36:43Z</time>
      </trkpt>
      <trkpt lat="41.70875" lon="-8.79942">
        <ele>31.474</ele>
        <time>2018-07-28T10:36:44Z</time>
      </trkpt>
      <trkpt lat="41.709" lon="-8.79932">
        <ele>31.664</ele>
        <time>2018-07-28T10:36:45Z</time>
      </trkpt>
      <trkpt lat="41.70923" lon="-8.79922">
        <ele>31.906</ele>
        <time>2018-07-28T10:36:46Z</time>
      </trkpt>
      <trkpt lat="41.70947" lon="-8.79911">
        <ele>32.316</ele>
        <time>2018-07-28T10:36:47Z</time>
      </trkpt>
      <trkpt lat="41.7097" lon="-8.79899">
        <ele>32.408</ele>
        <time>2018-07-28T10:36:48Z</time>
      </trkpt>
      <trkpt lat="41.70992" lon="-8.79888">
        <ele>32.758</ele>
        <time>2018-07-28T10:36:49Z</time>
      </trkpt>
      <trkpt lat="41.71013" lon="-8.79875">
        <ele>32.763</ele>
        <time>2018-07-28T10:36:50Z</time>
      </trkpt>
      <trkpt lat="41.71034" lon="-8.79864">
        <ele>31.896</ele>
        <time>2018-07-28T10:36:51Z</time>
      </trkpt>
      <trkpt lat="41.71052" lon="-8.79852">
        <ele>31.238</ele>
        <time>2018-07-28T10:36:52Z</time>
      </trkpt>
      <trkpt lat="41.7107" lon="-8.79841">
        <ele>30.683</ele>
        <time>2018-07-28T10:36:53Z</time>
      </trkpt>
      <trkpt lat="41.71086" lon="-8.7983">
        <ele>29.848</ele>
        <time>2018-07-28T10:36:54Z</time>
      </trkpt>
      <trkpt lat="41.71102" lon="-8.79821">
        <ele>29.026</ele>
        <time>2018-07-28T10:36:55Z</time>
      </trkpt>
      <trkpt lat="41.71116" lon="-8.79815">
        <ele>28.582</ele>
        <time>2018-07-28T10:36:56Z</time>
      </trkpt>
      <trkpt lat="41.7113" lon="-8.79806">
        <ele>27.779</ele>
        <time>2018-07-28T10:36:57Z</time>
      </trkpt>
      <trkpt lat="41.71144" lon="-8.79797">
        <ele>27.005</ele>
        <time>2018-07-28T10:36:58Z</time>
      </trkpt>
      <trkpt lat="41.71157" lon="-8.79786">
        <ele>26.525</ele>
        <time>2018-07-28T10:36:59Z</time>
      </trkpt>
      <trkpt lat="41.71171" lon="-8.79774">
        <ele>26.508</ele>
        <time>2018-07-28T10:37:00Z</time>
      </trkpt>
      <trkpt lat="41.71184" lon="-8.79763">
        <ele>26.799</ele>
        <time>2018-07-28T10:37:01Z</time>
      </trkpt>
      <trkpt lat="41.71198" lon="-8.7975">
        <ele>27.364</ele>
        <time>2018-07-28T10:37:02Z</time>
      </trkpt>
      <trkpt lat="41.71213" lon="-8.79737">
        <ele>28.397</ele>
        <time>2018-07-28T10:37:03Z</time>
      </trkpt>
      <trkpt lat="41.71224" lon="-8.79723">
        <ele>29.489</ele>
        <time>2018-07-28T10:37:04Z</time>
      </trkpt>
      <trkpt lat="41.71237" lon="-8.79708">
        <ele>31.314</ele>
        <time>2018-07-28T10:37:05Z</time>
      </trkpt>
      <trkpt lat="41.71248" lon="-8.79694">
        <ele>32.159</ele>
        <time>2018-07-28T10:37:06Z</time>
      </trkpt>
      <trkpt lat="41.71259" lon="-8.79679">
        <ele>32.787</ele>
        <time>2018-07-28T10:37:07Z</time>
      </trkpt>
      <trkpt lat="41.7127" lon="-8.79665">
        <ele>33.263</ele>
        <time>2018-07-28T10:37:08Z</time>
      </trkpt>
      <trkpt lat="41.71281" lon="-8.79652">
        <ele>33.962</ele>
        <time>2018-07-28T10:37:09Z</time>
      </trkpt>
      <trkpt lat="41.71292" lon="-8.79638">
        <ele>34.783</ele>
        <time>2018-07-28T10:37:10Z</time>
      </trkpt>
      <trkpt lat="41.71303" lon="-8.79622">
        <ele>35.511</ele>
        <time>2018-07-28T10:37:11Z</time>
      </trkpt>
      <trkpt lat="41.71315" lon="-8.79605">
        <ele>36.208</ele>
        <time>2018-07-28T10:37:12Z</time>
      </trkpt>
      <trkpt lat="41.71333" lon="-8.79591">
        <ele>37.198</ele>
        <time>2018-07-28T10:37:13Z</time>
      </trkpt>
      <trkpt lat="41.71349" lon="-8.79576">
        <ele>37.843</ele>
        <time>2018-07-28T10:37:14Z</time>
      </trkpt>
      <trkpt lat="41.71366" lon="-8.79564">
        <ele>38.566</ele>
        <time>2018-07-28T10:37:15Z</time>
      </trkpt>
      <trkpt lat="41.71385" lon="-8.79554">
        <ele>39.238</ele>
        <time>2018-07-28T10:37:16Z</time>
      </trkpt>
      <trkpt lat="41.71405" lon="-8.79546">
        <ele>39.853</ele>
        <time>2018-07-28T10:37:17Z</time>
      </trkpt>
      <trkpt lat="41.71425" lon="-8.7954">
        <ele>40.518</ele>
        <time>2018-07-28T10:37:18Z</time>
      </trkpt>
      <trkpt lat="41.71445" lon="-8.79536">
        <ele>41.996</ele>
        <time>2018-07-28T10:37:19Z</time>
      </trkpt>
      <trkpt lat="41.71466" lon="-8.79534">
        <ele>42.522</ele>
        <time>2018-07-28T10:37:20Z</time>
      </trkpt>
      <trkpt lat="41.71486" lon="-8.79535">
        <ele>42.964</ele>
        <time>2018-07-28T10:37:21Z</time>
      </trkpt>
      <trkpt lat="41.71507" lon="-8.79537">
        <ele>43.106</ele>
        <time>2018-07-28T10:37:22Z</time>
      </trkpt>
      <trkpt lat="41.71527" lon="-8.79541">
        <ele>43.116</ele>
        <time>2018-07-28T10:37:23Z</time>
      </trkpt>
      <trkpt lat="41.71548" lon="-8.79549">
        <ele>43.208</ele>
        <time>2018-07-28T10:37:24Z</time>
      </trkpt>
      <trkpt lat="41.71569" lon="-8.7956">
        <ele>43.878</ele>
        <time>2018-07-28T10:37:25Z</time>
      </trkpt>
      <trkpt lat="41.71589" lon="-8.79572">
        <ele>44.413</ele>
        <time>2018-07-28T10:37:26Z</time>
      </trkpt>
      <trkpt lat="41.7161" lon="-8.79586">
        <ele>45.416</ele>
        <time>2018-07-28T10:37:27Z</time>
      </trkpt>
      <trkpt lat="41.71631" lon="-8.79601">
        <ele>46.368</ele>
        <time>2018-07-28T10:37:28Z</time>
      </trkpt>
      <trkpt lat="41.71652" lon="-8.79617">
        <ele>47.353</ele>
        <time>2018-07-28T10:37:29Z</time>
      </trkpt>
      <trkpt lat="41.71673" lon="-8.79632">
        <ele>47.868</ele>
        <time>2018-07-28T10:37:30Z</time>
      </trkpt>
      <trkpt lat="41.71696" lon="-8.79648">
        <ele>48.536</ele>
        <time>2018-07-28T10:37:31Z</time>
      </trkpt>
      <trkpt lat="41.7172" lon="-8.79665">
        <ele>49.392</ele>
        <time>2018-07-28T10:37:32Z</time>
      </trkpt>
      <trkpt lat="41.71743" lon="-8.79681">
        <ele>51.765</ele>
        <time>2018-07-28T10:37:33Z</time>
      </trkpt>
      <trkpt lat="41.71765" lon="-8.79697">
        <ele>52.868</ele>
        <time>2018-07-28T10:37:34Z</time>
      </trkpt>
      <trkpt lat="41.71787" lon="-8.79714">
        <ele>53.614</ele>
        <time>2018-07-28T10:37:35Z</time>
      </trkpt>
      <trkpt lat="41.71808" lon="-8.79728">
        <ele>54.408</ele>
        <time>2018-07-28T10:37:36Z</time>
      </trkpt>
      <trkpt lat="41.71828" lon="-8.79742">
        <ele>54.468</ele>
        <time>2018-07-28T10:37:37Z</time>
      </trkpt>
      <trkpt lat="41.7185" lon="-8.79758">
        <ele>54.463</ele>
        <time>2018-07-28T10:37:38Z</time>
      </trkpt>
      <trkpt lat="41.71872" lon="-8.79773">
        <ele>54.556</ele>
        <time>2018-07-28T10:37:39Z</time>
      </trkpt>
      <trkpt lat="41.71894" lon="-8.79788">
        <ele>54.968</ele>
        <time>2018-07-28T10:37:40Z</time>
      </trkpt>
      <trkpt lat="41.71919" lon="-8.798">
        <ele>55.443</ele>
        <time>2018-07-28T10:37:41Z</time>
      </trkpt>
      <trkpt lat="41.71943" lon="-8.79817">
        <ele>56.228</ele>
        <time>2018-07-28T10:37:42Z</time>
      </trkpt>
      <trkpt lat="41.71967" lon="-8.79835">
        <ele>57.446</ele>
        <time>2018-07-28T10:37:43Z</time>
      </trkpt>
      <trkpt lat="41.71991" lon="-8.79852">
        <ele>59.072</ele>
        <time>2018-07-28T10:37:44Z</time>
      </trkpt>
      <trkpt lat="41.72015" lon="-8.79868">
        <ele>60.627</ele>
        <time>2018-07-28T10:37:45Z</time>
      </trkpt>
      <trkpt lat="41.72041" lon="-8.79879">
        <ele>61.968</ele>
        <time>2018-07-28T10:37:46Z</time>
      </trkpt>
      <trkpt lat="41.72065" lon="-8.7989">
        <ele>63.714</ele>
        <time>2018-07-28T10:37:47Z</time>
      </trkpt>
      <trkpt lat="41.7209" lon="-8.79898">
        <ele>64.108</ele>
        <time>2018-07-28T10:37:48Z</time>
      </trkpt>
      <trkpt lat="41.72116" lon="-8.79904">
        <ele>64.424</ele>
        <time>2018-07-28T10:37:49Z</time>
      </trkpt>
      <trkpt lat="41.72142" lon="-8.79907">
        <ele>65.299</ele>
        <time>2018-07-28T10:37:50Z</time>
      </trkpt>
      <trkpt lat="41.7217" lon="-8.7991">
        <ele>66.362</ele>
        <time>2018-07-28T10:37:51Z</time>
      </trkpt>
      <trkpt lat="41.72198" lon="-8.79911">
        <ele>67.724</ele>
        <time>2018-07-28T10:37:52Z</time>
      </trkpt>
      <trkpt lat="41.72225" lon="-8.79912">
        <ele>69.439</ele>
        <time>2018-07-28T10:37:53Z</time>
      </trkpt>
      <trkpt lat="41.72253" lon="-8.79905">
        <ele>71.014</ele>
        <time>2018-07-28T10:37:54Z</time>
      </trkpt>
      <trkpt lat="41.7228" lon="-8.79898">
        <ele>72.582</ele>
        <time>2018-07-28T10:37:55Z</time>
      </trkpt>
      <trkpt lat="41.72309" lon="-8.7989">
        <ele>74.088</ele>
        <time>2018-07-28T10:37:56Z</time>
      </trkpt>
      <trkpt lat="41.72336" lon="-8.79881">
        <ele>75.544</ele>
        <time>2018-07-28T10:37:57Z</time>
      </trkpt>
      <trkpt lat="41.72363" lon="-8.79871">
        <ele>76.805</ele>
        <time>2018-07-28T10:37:58Z</time>
      </trkpt>
      <trkpt lat="41.7239" lon="-8.79856">
        <ele>78.515</ele>
        <time>2018-07-28T10:37:59Z</time>
      </trkpt>
      <trkpt lat="41.72417" lon="-8.7984">
        <ele>80.108</ele>
        <time>2018-07-28T10:38:00Z</time>
      </trkpt>
      <trkpt lat="41.72443" lon="-8.79823">
        <ele>83.726</ele>
        <time>2018-07-28T10:38:01Z</time>
      </trkpt>
      <trkpt lat="41.72469" lon="-8.79801">
        <ele>86.131</ele>
        <time>2018-07-28T10:38:02Z</time>
      </trkpt>
      <trkpt lat="41.72495" lon="-8.79774">
        <ele>88.474</ele>
        <time>2018-07-28T10:38:03Z</time>
      </trkpt>
      <trkpt lat="41.72521" lon="-8.79747">
        <ele>91.176</ele>
        <time>2018-07-28T10:38:04Z</time>
      </trkpt>
      <trkpt lat="41.72545" lon="-8.79717">
        <ele>94.171</ele>
        <time>2018-07-28T10:38:05Z</time>
      </trkpt>
      <trkpt lat="41.72567" lon="-8.79685">
        <ele>97.076</ele>
        <time>2018-07-28T10:38:06Z</time>
      </trkpt>
      <trkpt lat="41.72591" lon="-8.79656">
        <ele>99.884</ele>
        <time>2018-07-28T10:38:07Z</time>
      </trkpt>
      <trkpt lat="41.72613" lon="-8.79627">
        <ele>102.19</ele>
        <time>2018-07-28T10:38:08Z</time>
      </trkpt>
      <trkpt lat="41.72636" lon="-8.79596">
        <ele>104.111</ele>
        <time>2018-07-28T10:38:09Z</time>
      </trkpt>
      <trkpt lat="41.72658" lon="-8.79566">
        <ele>105.521</ele>
        <time>2018-07-28T10:38:10Z</time>
      </trkpt>
      <trkpt lat="41.72683" lon="-8.79537">
        <ele>107.203</ele>
        <time>2018-07-28T10:38:11Z</time>
      </trkpt>
      <trkpt lat="41.72707" lon="-8.79512">
        <ele>108.708</ele>
        <time>2018-07-28T10:38:12Z</time>
      </trkpt>
      <trkpt lat="41.72733" lon="-8.79487">
        <ele>110.373</ele>
        <time>2018-07-28T10:38:13Z</time>
      </trkpt>
      <trkpt lat="41.72758" lon="-8.79462">
        <ele>112.298</ele>
        <time>2018-07-28T10:38:14Z</time>
      </trkpt>
      <trkpt lat="41.72787" lon="-8.79442">
        <ele>114.061</ele>
        <time>2018-07-28T10:38:15Z</time>
      </trkpt>
      <trkpt lat="41.72815" lon="-8.79424">
        <ele>116.993</ele>
        <time>2018-07-28T10:38:16Z</time>
      </trkpt>
      <trkpt lat="41.72844" lon="-8.79406">
        <ele>118.358</ele>
        <time>2018-07-28T10:38:17Z</time>
      </trkpt>
      <trkpt lat="41.72872" lon="-8.79387">
        <ele>119.463</ele>
        <time>2018-07-28T10:38:18Z</time>
      </trkpt>
      <trkpt lat="41.72902" lon="-8.79371">
        <ele>120.881</ele>
        <time>2018-07-28T10:38:19Z</time>
      </trkpt>
      <trkpt lat="41.72933" lon="-8.79357">
        <ele>122.177</ele>
        <time>2018-07-28T10:38:20Z</time>
      </trkpt>
      <trkpt lat="41.72964" lon="-8.79344">
        <ele>124.286</ele>
        <time>2018-07-28T10:38:21Z</time>
      </trkpt>
      <trkpt lat="41.72997" lon="-8.79334">
        <ele>126.36</ele>
        <time>2018-07-28T10:38:22Z</time>
      </trkpt>
      <trkpt lat="41.73034" lon="-8.79322">
        <ele>129.026</ele>
        <time>2018-07-28T10:38:23Z</time>
      </trkpt>
      <trkpt lat="41.73069" lon="-8.7932">
        <ele>132.008</ele>
        <time>2018-07-28T10:38:24Z</time>
      </trkpt>
      <trkpt lat="41.73105" lon="-8.79314">
        <ele>135.31</ele>
        <time>2018-07-28T10:38:25Z</time>
      </trkpt>
      <trkpt lat="41.73143" lon="-8.79311">
        <ele>138.235</ele>
        <time>2018-07-28T10:38:26Z</time>
      </trkpt>
      <trkpt lat="41.7318" lon="-8.7931">
        <ele>141.468</ele>
        <time>2018-07-28T10:38:27Z</time>
      </trkpt>
      <trkpt lat="41.73219" lon="-8.79311">
        <ele>144.23</ele>
        <time>2018-07-28T10:38:28Z</time>
      </trkpt>
      <trkpt lat="41.73256" lon="-8.79315">
        <ele>147.115</ele>
        <time>2018-07-28T10:38:29Z</time>
      </trkpt>
      <trkpt lat="41.73292" lon="-8.79318">
        <ele>152.43</ele>
        <time>2018-07-28T10:38:30Z</time>
      </trkpt>
      <trkpt lat="41.73328" lon="-8.79315">
        <ele>153.998</ele>
        <time>2018-07-28T10:38:31Z</time>
      </trkpt>
      <trkpt lat="41.73363" lon="-8.79313">
        <ele>154.914</ele>
        <time>2018-07-28T10:38:32Z</time>
      </trkpt>
      <trkpt lat="41.73397" lon="-8.79308">
        <ele>154.915</ele>
        <time>2018-07-28T10:38:33Z</time>
      </trkpt>
      <trkpt lat="41.73429" lon="-8.793">
        <ele>154.665</ele>
        <time>2018-07-28T10:38:34Z</time>
      </trkpt>
      <trkpt lat="41.73459" lon="-8.79287">
        <ele>154.511</ele>
        <time>2018-07-28T10:38:35Z</time>
      </trkpt>
      <trkpt lat="41.73486" lon="-8.79275">
        <ele>154.308</ele>
        <time>2018-07-28T10:38:36Z</time>
      </trkpt>
      <trkpt lat="41.73513" lon="-8.79259">
        <ele>154.393</ele>
        <time>2018-07-28T10:38:37Z</time>
      </trkpt>
      <trkpt lat="41.7354" lon="-8.79241">
        <ele>154.558</ele>
        <time>2018-07-28T10:38:38Z</time>
      </trkpt>
      <trkpt lat="41.73567" lon="-8.7922">
        <ele>155.281</ele>
        <time>2018-07-28T10:38:39Z</time>
      </trkpt>
      <trkpt lat="41.7359" lon="-8.792">
        <ele>156.333</ele>
        <time>2018-07-28T10:38:40Z</time>
      </trkpt>
      <trkpt lat="41.73618" lon="-8.79179">
        <ele>157.868</ele>
        <time>2018-07-28T10:38:41Z</time>
      </trkpt>
      <trkpt lat="41.7365" lon="-8.79161">
        <ele>160.323</ele>
        <time>2018-07-28T10:38:42Z</time>
      </trkpt>
      <trkpt lat="41.73679" lon="-8.79146">
        <ele>162.871</ele>
        <time>2018-07-28T10:38:43Z</time>
      </trkpt>
      <trkpt lat="41.7371" lon="-8.79133">
        <ele>167.367</ele>
        <time>2018-07-28T10:38:44Z</time>
      </trkpt>
      <trkpt lat="41.73742" lon="-8.79122">
        <ele>169.633</ele>
        <time>2018-07-28T10:38:45Z</time>
      </trkpt>
      <trkpt lat="41.73773" lon="-8.79118">
        <ele>171.223</ele>
        <time>2018-07-28T10:38:46Z</time>
      </trkpt>
      <trkpt lat="41.73804" lon="-8.79117">
        <ele>172.615</ele>
        <time>2018-07-28T10:38:47Z</time>
      </trkpt>
      <trkpt lat="41.73835" lon="-8.79117">
        <ele>174.008</ele>
        <time>2018-07-28T10:38:48Z</time>
      </trkpt>
      <trkpt lat="41.73866" lon="-8.79121">
        <ele>175.255</ele>
        <time>2018-07-28T10:38:49Z</time>
      </trkpt>
      <trkpt lat="41.73896" lon="-8.79127">
        <ele>176.47</ele>
        <time>2018-07-28T10:38:50Z</time>
      </trkpt>
      <trkpt lat="41.73927" lon="-8.79135">
        <ele>177.573</ele>
        <time>2018-07-28T10:38:51Z</time>
      </trkpt>
      <trkpt lat="41.73957" lon="-8.79147">
        <ele>179.045</ele>
        <time>2018-07-28T10:38:52Z</time>
      </trkpt>
      <trkpt lat="41.73987" lon="-8.79162">
        <ele>180.44</ele>
        <time>2018-07-28T10:38:53Z</time>
      </trkpt>
      <trkpt lat="41.74014" lon="-8.7918">
        <ele>181.635</ele>
        <time>2018-07-28T10:38:54Z</time>
      </trkpt>
      <trkpt lat="41.7404" lon="-8.79202">
        <ele>183.043</ele>
        <time>2018-07-28T10:38:55Z</time>
      </trkpt>
      <trkpt lat="41.74066" lon="-8.79225">
        <ele>184.329</ele>
        <time>2018-07-28T10:38:56Z</time>
      </trkpt>
      <trkpt lat="41.7409" lon="-8.79249">
        <ele>185.565</ele>
        <time>2018-07-28T10:38:57Z</time>
      </trkpt>
      <trkpt lat="41.74113" lon="-8.79277">
        <ele>188.968</ele>
        <time>2018-07-28T10:38:58Z</time>
      </trkpt>
      <trkpt lat="41.74133" lon="-8.79308">
        <ele>190.214</ele>
        <time>2018-07-28T10:38:59Z</time>
      </trkpt>
      <trkpt lat="41.74154" lon="-8.7934">
        <ele>191.908</ele>
        <time>2018-07-28T10:39:00Z</time>
      </trkpt>
      <trkpt lat="41.74172" lon="-8.79375">
        <ele>194.118</ele>
        <time>2018-07-28T10:39:01Z</time>
      </trkpt>
      <trkpt lat="41.74189" lon="-8.79411">
        <ele>196.053</ele>
        <time>2018-07-28T10:39:02Z</time>
      </trkpt>
      <trkpt lat="41.74204" lon="-8.79448">
        <ele>198.356</ele>
        <time>2018-07-28T10:39:03Z</time>
      </trkpt>
      <trkpt lat="41.74218" lon="-8.79488">
        <ele>200.798</ele>
        <time>2018-07-28T10:39:04Z</time>
      </trkpt>
      <trkpt lat="41.74233" lon="-8.79528">
        <ele>203.023</ele>
        <time>2018-07-28T10:39:05Z</time>
      </trkpt>
      <trkpt lat="41.74249" lon="-8.79562">
        <ele>205.178</ele>
        <time>2018-07-28T10:39:06Z</time>
      </trkpt>
      <trkpt lat="41.74265" lon="-8.796">
        <ele>207.186</ele>
        <time>2018-07-28T10:39:07Z</time>
      </trkpt>
      <trkpt lat="41.74281" lon="-8.7964">
        <ele>209.282</ele>
        <time>2018-07-28T10:39:08Z</time>
      </trkpt>
      <trkpt lat="41.74303" lon="-8.79671">
        <ele>211.116</ele>
        <time>2018-07-28T10:39:09Z</time>
      </trkpt>
      <trkpt lat="41.74325" lon="-8.79707">
        <ele>213.176</ele>
        <time>2018-07-28T10:39:10Z</time>
      </trkpt>
      <trkpt lat="41.74349" lon="-8.79739">
        <ele>215.113</ele>
        <time>2018-07-28T10:39:11Z</time>
      </trkpt>
      <trkpt lat="41.74376" lon="-8.79769">
        <ele>217.208</ele>
        <time>2018-07-28T10:39:12Z</time>
      </trkpt>
      <trkpt lat="41.74401" lon="-8.79799">
        <ele>221.563</ele>
        <time>2018-07-28T10:39:13Z</time>
      </trkpt>
      <trkpt lat="41.74429" lon="-8.79827">
        <ele>223.818</ele>
        <time>2018-07-28T10:39:14Z</time>
      </trkpt>
      <trkpt lat="41.74458" lon="-8.79854">
        <ele>225.521</ele>
        <time>2018-07-28T10:39:15Z</time>
      </trkpt>
      <trkpt lat="41.74489" lon="-8.79877">
        <ele>227.183</ele>
        <time>2018-07-28T10:39:16Z</time>
      </trkpt>
      <trkpt lat="41.7452" lon="-8.799">
        <ele>228.938</ele>
        <time>2018-07-28T10:39:17Z</time>
      </trkpt>
      <trkpt lat="41.74552" lon="-8.79921">
        <ele>230.393</ele>
        <time>2018-07-28T10:39:18Z</time>
      </trkpt>
      <trkpt lat="41.74586" lon="-8.79939">
        <ele>232.111</ele>
        <time>2018-07-28T10:39:19Z</time>
      </trkpt>
      <trkpt lat="41.7462" lon="-8.79954">
        <ele>233.967</ele>
        <time>2018-07-28T10:39:20Z</time>
      </trkpt>
      <trkpt lat="41.74654" lon="-8.79967">
        <ele>236.044</ele>
        <time>2018-07-28T10:39:21Z</time>
      </trkpt>
      <trkpt lat="41.74689" lon="-8.79977">
        <ele>237.905</ele>
        <time>2018-07-28T10:39:22Z</time>
      </trkpt>
      <trkpt lat="41.74724" lon="-8.79983">
        <ele>239.715</ele>
        <time>2018-07-28T10:39:23Z</time>
      </trkpt>
      <trkpt lat="41.7476" lon="-8.79988">
        <ele>241.508</ele>
        <time>2018-07-28T10:39:24Z</time>
      </trkpt>
      <trkpt lat="41.74795" lon="-8.79992">
        <ele>243.056</ele>
        <time>2018-07-28T10:39:25Z</time>
      </trkpt>
      <trkpt lat="41.74831" lon="-8.79991">
        <ele>245.511</ele>
        <time>2018-07-28T10:39:26Z</time>
      </trkpt>
      <trkpt lat="41.74866" lon="-8.79987">
        <ele>247.384</ele>
        <time>2018-07-28T10:39:27Z</time>
      </trkpt>
      <trkpt lat="41.74901" lon="-8.7998">
        <ele>248.316</ele>
        <time>2018-07-28T10:39:28Z</time>
      </trkpt>
      <trkpt lat="41.74936" lon="-8.7997">
        <ele>249.731</ele>
        <time>2018-07-28T10:39:29Z</time>
      </trkpt>
      <trkpt lat="41.7497" lon="-8.79958">
        <ele>250.876</ele>
        <time>2018-07-28T10:39:30Z</time>
      </trkpt>
      <trkpt lat="41.75005" lon="-8.79947">
        <ele>252.284</ele>
        <time>2018-07-28T10:39:31Z</time>
      </trkpt>
      <trkpt lat="41.75037" lon="-8.79928">
        <ele>252.77</ele>
        <time>2018-07-28T10:39:32Z</time>
      </trkpt>
      <trkpt lat="41.7507" lon="-8.79911">
        <ele>253.421</ele>
        <time>2018-07-28T10:39:33Z</time>
      </trkpt>
      <trkpt lat="41.75104" lon="-8.7989">
        <ele>254.341</ele>
        <time>2018-07-28T10:39:34Z</time>
      </trkpt>
      <trkpt lat="41.75139" lon="-8.79869">
        <ele>254.605</ele>
        <time>2018-07-28T10:39:35Z</time>
      </trkpt>
      <trkpt lat="41.75172" lon="-8.79848">
        <ele>254.808</ele>
        <time>2018-07-28T10:39:36Z</time>
      </trkpt>
      <trkpt lat="41.75208" lon="-8.79831">
        <ele>255.674</ele>
        <time>2018-07-28T10:39:37Z</time>
      </trkpt>
      <trkpt lat="41.75244" lon="-8.79814">
        <ele>256.579</ele>
        <time>2018-07-28T10:39:38Z</time>
      </trkpt>
      <trkpt lat="41.7528" lon="-8.79796">
        <ele>257.512</ele>
        <time>2018-07-28T10:39:39Z</time>
      </trkpt>
      <trkpt lat="41.75315" lon="-8.79776">
        <ele>259.334</ele>
        <time>2018-07-28T10:39:40Z</time>
      </trkpt>
      <trkpt lat="41.7535" lon="-8.7976">
        <ele>261.039</ele>
        <time>2018-07-28T10:39:41Z</time>
      </trkpt>
      <trkpt lat="41.75386" lon="-8.79742">
        <ele>264.494</ele>
        <time>2018-07-28T10:39:42Z</time>
      </trkpt>
      <trkpt lat="41.75424" lon="-8.79725">
        <ele>265.372</ele>
        <time>2018-07-28T10:39:43Z</time>
      </trkpt>
      <trkpt lat="41.75461" lon="-8.79703">
        <ele>266.078</ele>
        <time>2018-07-28T10:39:44Z</time>
      </trkpt>
      <trkpt lat="41.75496" lon="-8.79682">
        <ele>266.954</ele>
        <time>2018-07-28T10:39:45Z</time>
      </trkpt>
      <trkpt lat="41.75534" lon="-8.79663">
        <ele>268.256</ele>
        <time>2018-07-28T10:39:46Z</time>
      </trkpt>
      <trkpt lat="41.75569" lon="-8.79641">
        <ele>269.111</ele>
        <time>2018-07-28T10:39:47Z</time>
      </trkpt>
      <trkpt lat="41.75603" lon="-8.79622">
        <ele>270.008</ele>
        <time>2018-07-28T10:39:48Z</time>
      </trkpt>
      <trkpt lat="41.7564" lon="-8.79603">
        <ele>270.827</ele>
        <time>2018-07-28T10:39:49Z</time>
      </trkpt>
      <trkpt lat="41.75672" lon="-8.7958">
        <ele>271.532</ele>
        <time>2018-07-28T10:39:50Z</time>
      </trkpt>
      <trkpt lat="41.75707" lon="-8.79563">
        <ele>271.575</ele>
        <time>2018-07-28T10:39:51Z</time>
      </trkpt>
      <trkpt lat="41.75744" lon="-8.79548">
        <ele>271.227</ele>
        <time>2018-07-28T10:39:52Z</time>
      </trkpt>
      <trkpt lat="41.75781" lon="-8.79536">
        <ele>271.282</ele>
        <time>2018-07-28T10:39:53Z</time>
      </trkpt>
      <trkpt lat="41.75819" lon="-8.79526">
        <ele>271.717</ele>
        <time>2018-07-28T10:39:54Z</time>
      </trkpt>
      <trkpt lat="41.75858" lon="-8.79517">
        <ele>272.335</ele>
        <time>2018-07-28T10:39:55Z</time>
      </trkpt>
      <trkpt lat="41.75898" lon="-8.79509">
        <ele>275.221</ele>
        <time>2018-07-28T10:39:56Z</time>
      </trkpt>
      <trkpt lat="41.75938" lon="-8.79501">
        <ele>276.879</ele>
        <time>2018-07-28T10:39:57Z</time>
      </trkpt>
      <trkpt lat="41.75979" lon="-8.79491">
        <ele>278.505</ele>
        <time>2018-07-28T10:39:58Z</time>
      </trkpt>
      <trkpt lat="41.76018" lon="-8.79481">
        <ele>279.725</ele>
        <time>2018-07-28T10:39:59Z</time>
      </trkpt>
      <trkpt lat="41.76058" lon="-8.79473">
        <ele>280.608</ele>
        <time>2018-07-28T10:40:00Z</time>
      </trkpt>
      <trkpt lat="41.76095" lon="-8.79457">
        <ele>280.759</ele>
        <time>2018-07-28T10:40:01Z</time>
      </trkpt>
      <trkpt lat="41.76133" lon="-8.79443">
        <ele>280.614</ele>
        <time>2018-07-28T10:40:02Z</time>
      </trkpt>
      <trkpt lat="41.76169" lon="-8.79425">
        <ele>280.447</ele>
        <time>2018-07-28T10:40:03Z</time>
      </trkpt>
      <trkpt lat="41.76206" lon="-8.79406">
        <ele>280.319</ele>
        <time>2018-07-28T10:40:04Z</time>
      </trkpt>
      <trkpt lat="41.76243" lon="-8.79387">
        <ele>280.364</ele>
        <time>2018-07-28T10:40:05Z</time>
      </trkpt>
      <trkpt lat="41.7628" lon="-8.79366">
        <ele>281.489</ele>
        <time>2018-07-28T10:40:06Z</time>
      </trkpt>
      <trkpt lat="41.76316" lon="-8.79344">
        <ele>282.587</ele>
        <time>2018-07-28T10:40:07Z</time>
      </trkpt>
      <trkpt lat="41.76352" lon="-8.79325">
        <ele>283.523</ele>
        <time>2018-07-28T10:40:08Z</time>
      </trkpt>
      <trkpt lat="41.76387" lon="-8.79302">
        <ele>284.942</ele>
        <time>2018-07-28T10:40:09Z</time>
      </trkpt>
      <trkpt lat="41.76421" lon="-8.79277">
        <ele>286.922</ele>
        <time>2018-07-28T10:40:10Z</time>
      </trkpt>
      <trkpt lat="41.76456" lon="-8.7925">
        <ele>287.714</ele>
        <time>2018-07-28T10:40:11Z</time>
      </trkpt>
      <trkpt lat="41.76487" lon="-8.79219">
        <ele>288.608</ele>
        <time>2018-07-28T10:40:12Z</time>
      </trkpt>
      <trkpt lat="41.7652" lon="-8.79192">
        <ele>289.136</ele>
        <time>2018-07-28T10:40:13Z</time>
      </trkpt>
      <trkpt lat="41.7655" lon="-8.79168">
        <ele>289.191</ele>
        <time>2018-07-28T10:40:14Z</time>
      </trkpt>
      <trkpt lat="41.7658" lon="-8.79143">
        <ele>289.184</ele>
        <time>2018-07-28T10:40:15Z</time>
      </trkpt>
      <trkpt lat="41.76606" lon="-8.79113">
        <ele>289.026</ele>
        <time>2018-07-28T10:40:16Z</time>
      </trkpt>
      <trkpt lat="41.76632" lon="-8.79085">
        <ele>288.661</ele>
        <time>2018-07-28T10:40:17Z</time>
      </trkpt>
      <trkpt lat="41.76658" lon="-8.79054">
        <ele>288.336</ele>
        <time>2018-07-28T10:40:18Z</time>
      </trkpt>
      <trkpt lat="41.76684" lon="-8.79023">
        <ele>288.334</ele>
        <time>2018-07-28T10:40:19Z</time>
      </trkpt>
      <trkpt lat="41.76709" lon="-8.78991">
        <ele>288.24</ele>
        <time>2018-07-28T10:40:20Z</time>
      </trkpt>
      <trkpt lat="41.76735" lon="-8.7896">
        <ele>287.576</ele>
        <time>2018-07-28T10:40:21Z</time>
      </trkpt>
      <trkpt lat="41.76761" lon="-8.78928">
        <ele>287.49</ele>
        <time>2018-07-28T10:40:22Z</time>
      </trkpt>
      <trkpt lat="41.76787" lon="-8.78895">
        <ele>287.119</ele>
        <time>2018-07-28T10:40:23Z</time>
      </trkpt>
      <trkpt lat="41.76811" lon="-8.78862">
        <ele>287.608</ele>
        <time>2018-07-28T10:40:24Z</time>
      </trkpt>
      <trkpt lat="41.76833" lon="-8.78825">
        <ele>288.399</ele>
        <time>2018-07-28T10:40:25Z</time>
      </trkpt>
      <trkpt lat="41.76856" lon="-8.78788">
        <ele>289.354</ele>
        <time>2018-07-28T10:40:26Z</time>
      </trkpt>
      <trkpt lat="41.76879" lon="-8.78751">
        <ele>290.047</ele>
        <time>2018-07-28T10:40:27Z</time>
      </trkpt>
      <trkpt lat="41.76904" lon="-8.78716">
        <ele>291.249</ele>
        <time>2018-07-28T10:40:28Z</time>
      </trkpt>
      <trkpt lat="41.76926" lon="-8.78675">
        <ele>292.144</ele>
        <time>2018-07-28T10:40:29Z</time>
      </trkpt>
      <trkpt lat="41.76949" lon="-8.78636">
        <ele>293.599</ele>
        <time>2018-07-28T10:40:30Z</time>
      </trkpt>
      <trkpt lat="41.76969" lon="-8.78595">
        <ele>295.177</ele>
        <time>2018-07-28T10:40:31Z</time>
      </trkpt>
      <trkpt lat="41.76987" lon="-8.78553">
        <ele>295.963</ele>
        <time>2018-07-28T10:40:32Z</time>
      </trkpt>
      <trkpt lat="41.77007" lon="-8.78511">
        <ele>296.513</ele>
        <time>2018-07-28T10:40:33Z</time>
      </trkpt>
      <trkpt lat="41.77025" lon="-8.78471">
        <ele>296.743</ele>
        <time>2018-07-28T10:40:34Z</time>
      </trkpt>
      <trkpt lat="41.77042" lon="-8.78428">
        <ele>296.707</ele>
        <time>2018-07-28T10:40:35Z</time>
      </trkpt>
      <trkpt lat="41.77063" lon="-8.78391">
        <ele>296.808</ele>
        <time>2018-07-28T10:40:36Z</time>
      </trkpt>
      <trkpt lat="41.77083" lon="-8.78354">
        <ele>297.223</ele>
        <time>2018-07-28T10:40:37Z</time>
      </trkpt>
      <trkpt lat="41.77104" lon="-8.7832">
        <ele>296.928</ele>
        <time>2018-07-28T10:40:38Z</time>
      </trkpt>
      <trkpt lat="41.7713" lon="-8.78288">
        <ele>296.771</ele>
        <time>2018-07-28T10:40:39Z</time>
      </trkpt>
      <trkpt lat="41.77155" lon="-8.78264">
        <ele>296.093</ele>
        <time>2018-07-28T10:40:40Z</time>
      </trkpt>
      <trkpt lat="41.77184" lon="-8.78244">
        <ele>295.658</ele>
        <time>2018-07-28T10:40:41Z</time>
      </trkpt>
      <trkpt lat="41.77213" lon="-8.78224">
        <ele>295.673</ele>
        <time>2018-07-28T10:40:42Z</time>
      </trkpt>
      <trkpt lat="41.77242" lon="-8.78204">
        <ele>295.981</ele>
        <time>2018-07-28T10:40:43Z</time>
      </trkpt>
      <trkpt lat="41.77271" lon="-8.78185">
        <ele>295.937</ele>
        <time>2018-07-28T10:40:44Z</time>
      </trkpt>
      <trkpt lat="41.77304" lon="-8.78175">
        <ele>295.713</ele>
        <time>2018-07-28T10:40:45Z</time>
      </trkpt>
      <trkpt lat="41.77335" lon="-8.78166">
        <ele>294.943</ele>
        <time>2018-07-28T10:40:46Z</time>
      </trkpt>
      <trkpt lat="41.77366" lon="-8.78162">
        <ele>293.807</ele>
        <time>2018-07-28T10:40:47Z</time>
      </trkpt>
      <trkpt lat="41.77398" lon="-8.78163">
        <ele>292.308</ele>
        <time>2018-07-28T10:40:48Z</time>
      </trkpt>
      <trkpt lat="41.7743" lon="-8.78163">
        <ele>291.363</ele>
        <time>2018-07-28T10:40:49Z</time>
      </trkpt>
      <trkpt lat="41.77462" lon="-8.78165">
        <ele>290.248</ele>
        <time>2018-07-28T10:40:50Z</time>
      </trkpt>
      <trkpt lat="41.77495" lon="-8.78168">
        <ele>289.211</ele>
        <time>2018-07-28T10:40:51Z</time>
      </trkpt>
      <trkpt lat="41.77528" lon="-8.78177">
        <ele>287.953</ele>
        <time>2018-07-28T10:40:52Z</time>
      </trkpt>
      <trkpt lat="41.77558" lon="-8.78191">
        <ele>287.168</ele>
        <time>2018-07-28T10:40:53Z</time>
      </trkpt>
      <trkpt lat="41.77588" lon="-8.78208">
        <ele>286.213</ele>
        <time>2018-07-28T10:40:54Z</time>
      </trkpt>
      <trkpt lat="41.77617" lon="-8.78227">
        <ele>285.311</ele>
        <time>2018-07-28T10:40:55Z</time>
      </trkpt>
      <trkpt lat="41.77644" lon="-8.78249">
        <ele>283.757</ele>
        <time>2018-07-28T10:40:56Z</time>
      </trkpt>
      <trkpt lat="41.77671" lon="-8.78275">
        <ele>282.087</ele>
        <time>2018-07-28T10:40:57Z</time>
      </trkpt>
      <trkpt lat="41.77697" lon="-8.78302">
        <ele>280.342</ele>
        <time>2018-07-28T10:40:58Z</time>
      </trkpt>
      <trkpt lat="41.77721" lon="-8.78333">
        <ele>278.726</ele>
        <time>2018-07-28T10:40:59Z</time>
      </trkpt>
      <trkpt lat="41.77745" lon="-8.78365">
        <ele>277.308</ele>
        <time>2018-07-28T10:41:00Z</time>
      </trkpt>
      <trkpt lat="41.77767" lon="-8.78401">
        <ele>275.95</ele>
        <time>2018-07-28T10:41:01Z</time>
      </trkpt>
      <trkpt lat="41.77786" lon="-8.7844">
        <ele>274.575</ele>
        <time>2018-07-28T10:41:02Z</time>
      </trkpt>
      <trkpt lat="41.77804" lon="-8.78481">
        <ele>273.368</ele>
        <time>2018-07-28T10:41:03Z</time>
      </trkpt>
      <trkpt lat="41.77822" lon="-8.78521">
        <ele>272.15</ele>
        <time>2018-07-28T10:41:04Z</time>
      </trkpt>
      <trkpt lat="41.77839" lon="-8.78561">
        <ele>270.275</ele>
        <time>2018-07-28T10:41:05Z</time>
      </trkpt>
      <trkpt lat="41.77859" lon="-8.78599">
        <ele>266.37</ele>
        <time>2018-07-28T10:41:06Z</time>
      </trkpt>
      <trkpt lat="41.77878" lon="-8.78639">
        <ele>263.668</ele>
        <time>2018-07-28T10:41:07Z</time>
      </trkpt>
      <trkpt lat="41.779" lon="-8.78674">
        <ele>260.854</ele>
        <time>2018-07-28T10:41:08Z</time>
      </trkpt>
      <trkpt lat="41.77924" lon="-8.78705">
        <ele>258.134</ele>
        <time>2018-07-28T10:41:09Z</time>
      </trkpt>
      <trkpt lat="41.77952" lon="-8.78731">
        <ele>255.655</ele>
        <time>2018-07-28T10:41:10Z</time>
      </trkpt>
      <trkpt lat="41.7798" lon="-8.78757">
        <ele>253.41</ele>
        <time>2018-07-28T10:41:11Z</time>
      </trkpt>
      <trkpt lat="41.7801" lon="-8.78781">
        <ele>251.508</ele>
        <time>2018-07-28T10:41:12Z</time>
      </trkpt>
      <trkpt lat="41.78041" lon="-8.78802">
        <ele>249.925</ele>
        <time>2018-07-28T10:41:13Z</time>
      </trkpt>
      <trkpt lat="41.78072" lon="-8.78821">
        <ele>248.31</ele>
        <time>2018-07-28T10:41:14Z</time>
      </trkpt>
      <trkpt lat="41.78103" lon="-8.78837">
        <ele>246.423</ele>
        <time>2018-07-28T10:41:15Z</time>
      </trkpt>
      <trkpt lat="41.78136" lon="-8.78849">
        <ele>244.525</ele>
        <time>2018-07-28T10:41:16Z</time>
      </trkpt>
      <trkpt lat="41.7817" lon="-8.78858">
        <ele>242.28</ele>
        <time>2018-07-28T10:41:17Z</time>
      </trkpt>
      <trkpt lat="41.78203" lon="-8.78866">
        <ele>239.565</ele>
        <time>2018-07-28T10:41:18Z</time>
      </trkpt>
      <trkpt lat="41.78238" lon="-8.78869">
        <ele>234.933</ele>
        <time>2018-07-28T10:41:19Z</time>
      </trkpt>
      <trkpt lat="41.78273" lon="-8.78871">
        <ele>232.639</ele>
        <time>2018-07-28T10:41:20Z</time>
      </trkpt>
      <trkpt lat="41.78308" lon="-8.78869">
        <ele>230.935</ele>
        <time>2018-07-28T10:41:21Z</time>
      </trkpt>
      <trkpt lat="41.78344" lon="-8.78863">
        <ele>229.386</ele>
        <time>2018-07-28T10:41:22Z</time>
      </trkpt>
      <trkpt lat="41.78379" lon="-8.78856">
        <ele>227.514</ele>
        <time>2018-07-28T10:41:23Z</time>
      </trkpt>
      <trkpt lat="41.78414" lon="-8.7885">
        <ele>226.608</ele>
        <time>2018-07-28T10:41:24Z</time>
      </trkpt>
      <trkpt lat="41.7845" lon="-8.78846">
        <ele>225.475</ele>
        <time>2018-07-28T10:41:25Z</time>
      </trkpt>
      <trkpt lat="41.78485" lon="-8.78844">
        <ele>224.28</ele>
        <time>2018-07-28T10:41:26Z</time>
      </trkpt>
      <trkpt lat="41.78522" lon="-8.78843">
        <ele>222.743</ele>
        <time>2018-07-28T10:41:27Z</time>
      </trkpt>
      <trkpt lat="41.78558" lon="-8.78845">
        <ele>221.455</ele>
        <time>2018-07-28T10:41:28Z</time>
      </trkpt>
      <trkpt lat="41.78593" lon="-8.78847">
        <ele>220.18</ele>
        <time>2018-07-28T10:41:29Z</time>
      </trkpt>
      <trkpt lat="41.78628" lon="-8.78853">
        <ele>218.565</ele>
        <time>2018-07-28T10:41:30Z</time>
      </trkpt>
      <trkpt lat="41.78664" lon="-8.78861">
        <ele>216.453</ele>
        <time>2018-07-28T10:41:31Z</time>
      </trkpt>
      <trkpt lat="41.78699" lon="-8.78876">
        <ele>214.729</ele>
        <time>2018-07-28T10:41:32Z</time>
      </trkpt>
      <trkpt lat="41.78732" lon="-8.78895">
        <ele>212.847</ele>
        <time>2018-07-28T10:41:33Z</time>
      </trkpt>
      <trkpt lat="41.78767" lon="-8.78911">
        <ele>208.929</ele>
        <time>2018-07-28T10:41:34Z</time>
      </trkpt>
      <trkpt lat="41.78801" lon="-8.78933">
        <ele>207.421</ele>
        <time>2018-07-28T10:41:35Z</time>
      </trkpt>
      <trkpt lat="41.78834" lon="-8.78953">
        <ele>205.708</ele>
        <time>2018-07-28T10:41:36Z</time>
      </trkpt>
      <trkpt lat="41.78868" lon="-8.78974">
        <ele>203.736</ele>
        <time>2018-07-28T10:41:37Z</time>
      </trkpt>
      <trkpt lat="41.78899" lon="-8.78998">
        <ele>201.441</ele>
        <time>2018-07-28T10:41:38Z</time>
      </trkpt>
      <trkpt lat="41.78932" lon="-8.79021">
        <ele>198.834</ele>
        <time>2018-07-28T10:41:39Z</time>
      </trkpt>
      <trkpt lat="41.78964" lon="-8.79036">
        <ele>196.236</ele>
        <time>2018-07-28T10:41:40Z</time>
      </trkpt>
      <trkpt lat="41.78994" lon="-8.79051">
        <ele>193.771</ele>
        <time>2018-07-28T10:41:41Z</time>
      </trkpt>
      <trkpt lat="41.79029" lon="-8.79062">
        <ele>191.556</ele>
        <time>2018-07-28T10:41:42Z</time>
      </trkpt>
      <trkpt lat="41.79062" lon="-8.79077">
        <ele>189.194</ele>
        <time>2018-07-28T10:41:43Z</time>
      </trkpt>
      <trkpt lat="41.79095" lon="-8.79093">
        <ele>187.22</ele>
        <time>2018-07-28T10:41:44Z</time>
      </trkpt>
      <trkpt lat="41.79131" lon="-8.79105">
        <ele>185.159</ele>
        <time>2018-07-28T10:41:45Z</time>
      </trkpt>
      <trkpt lat="41.79167" lon="-8.79117">
        <ele>183.103</ele>
        <time>2018-07-28T10:41:46Z</time>
      </trkpt>
      <trkpt lat="41.79202" lon="-8.79125">
        <ele>181.023</ele>
        <time>2018-07-28T10:41:47Z</time>
      </trkpt>
      <trkpt lat="41.79236" lon="-8.79138">
        <ele>177.908</ele>
        <time>2018-07-28T10:41:48Z</time>
      </trkpt>
      <trkpt lat="41.7927" lon="-8.79154">
        <ele>176.427</ele>
        <time>2018-07-28T10:41:49Z</time>
      </trkpt>
      <trkpt lat="41.79304" lon="-8.79168">
        <ele>175.052</ele>
        <time>2018-07-28T10:41:50Z</time>
      </trkpt>
      <trkpt lat="41.79338" lon="-8.79187">
        <ele>173.515</ele>
        <time>2018-07-28T10:41:51Z</time>
      </trkpt>
      <trkpt lat="41.79373" lon="-8.79205">
        <ele>172.067</ele>
        <time>2018-07-28T10:41:52Z</time>
      </trkpt>
      <trkpt lat="41.79408" lon="-8.79225">
        <ele>170.172</ele>
        <time>2018-07-28T10:41:53Z</time>
      </trkpt>
      <trkpt lat="41.79442" lon="-8.79247">
        <ele>168.137</ele>
        <time>2018-07-28T10:41:54Z</time>
      </trkpt>
      <trkpt lat="41.79474" lon="-8.79266">
        <ele>166.425</ele>
        <time>2018-07-28T10:41:55Z</time>
      </trkpt>
      <trkpt lat="41.79505" lon="-8.7929">
        <ele>164.641</ele>
        <time>2018-07-28T10:41:56Z</time>
      </trkpt>
      <trkpt lat="41.79537" lon="-8.79317">
        <ele>162.458</ele>
        <time>2018-07-28T10:41:57Z</time>
      </trkpt>
      <trkpt lat="41.79568" lon="-8.79348">
        <ele>160.752</ele>
        <time>2018-07-28T10:41:58Z</time>
      </trkpt>
      <trkpt lat="41.796" lon="-8.79382">
        <ele>158.717</ele>
        <time>2018-07-28T10:41:59Z</time>
      </trkpt>
      <trkpt lat="41.79633" lon="-8.79409">
        <ele>156.908</ele>
        <time>2018-07-28T10:42:00Z</time>
      </trkpt>
      <trkpt lat="41.79664" lon="-8.79442">
        <ele>155.077</ele>
        <time>2018-07-28T10:42:01Z</time>
      </trkpt>
      <trkpt lat="41.79694" lon="-8.79477">
        <ele>152.032</ele>
        <time>2018-07-28T10:42:02Z</time>
      </trkpt>
      <trkpt lat="41.79723" lon="-8.79518">
        <ele>151.085</ele>
        <time>2018-07-28T10:42:03Z</time>
      </trkpt>
      <trkpt lat="41.79753" lon="-8.79554">
        <ele>149.457</ele>
        <time>2018-07-28T10:42:04Z</time>
      </trkpt>
      <trkpt lat="41.79783" lon="-8.79592">
        <ele>147.492</ele>
        <time>2018-07-28T10:42:05Z</time>
      </trkpt>
      <trkpt lat="41.79813" lon="-8.79625">
        <ele>145.377</ele>
        <time>2018-07-28T10:42:06Z</time>
      </trkpt>
      <trkpt lat="41.79841" lon="-8.79663">
        <ele>143.275</ele>
        <time>2018-07-28T10:42:07Z</time>
      </trkpt>
      <trkpt lat="41.79871" lon="-8.79698">
        <ele>141.061</ele>
        <time>2018-07-28T10:42:08Z</time>
      </trkpt>
      <trkpt lat="41.79897" lon="-8.79731">
        <ele>138.815</ele>
        <time>2018-07-28T10:42:09Z</time>
      </trkpt>
      <trkpt lat="41.79927" lon="-8.79767">
        <ele>136.865</ele>
        <time>2018-07-28T10:42:10Z</time>
      </trkpt>
      <trkpt lat="41.79956" lon="-8.79805">
        <ele>134.611</ele>
        <time>2018-07-28T10:42:11Z</time>
      </trkpt>
      <trkpt lat="41.79986" lon="-8.79839">
        <ele>132.508</ele>
        <time>2018-07-28T10:42:12Z</time>
      </trkpt>
      <trkpt lat="41.80016" lon="-8.79872">
        <ele>130.633</ele>
        <time>2018-07-28T10:42:13Z</time>
      </trkpt>
      <trkpt lat="41.80044" lon="-8.79911">
        <ele>128.968</ele>
        <time>2018-07-28T10:42:14Z</time>
      </trkpt>
      <trkpt lat="41.80073" lon="-8.79944">
        <ele>127.321</ele>
        <time>2018-07-28T10:42:15Z</time>
      </trkpt>
      <trkpt lat="41.80102" lon="-8.79977">
        <ele>124.383</ele>
        <time>2018-07-28T10:42:16Z</time>
      </trkpt>
      <trkpt lat="41.80129" lon="-8.80007">
        <ele>121.978</ele>
        <time>2018-07-28T10:42:17Z</time>
      </trkpt>
      <trkpt lat="41.80155" lon="-8.80038">
        <ele>119.493</ele>
        <time>2018-07-28T10:42:18Z</time>
      </trkpt>
      <trkpt lat="41.8018" lon="-8.80066">
        <ele>117.111</ele>
        <time>2018-07-28T10:42:19Z</time>
      </trkpt>
      <trkpt lat="41.80207" lon="-8.80095">
        <ele>114.987</ele>
        <time>2018-07-28T10:42:20Z</time>
      </trkpt>
      <trkpt lat="41.80234" lon="-8.80127">
        <ele>113.316</ele>
        <time>2018-07-28T10:42:21Z</time>
      </trkpt>
      <trkpt lat="41.80264" lon="-8.80153">
        <ele>112.776</ele>
        <time>2018-07-28T10:42:22Z</time>
      </trkpt>
      <trkpt lat="41.80297" lon="-8.80174">
        <ele>112.713</ele>
        <time>2018-07-28T10:42:23Z</time>
      </trkpt>
      <trkpt lat="41.80329" lon="-8.80195">
        <ele>113.208</ele>
        <time>2018-07-28T10:42:24Z</time>
      </trkpt>
      <trkpt lat="41.80361" lon="-8.80214">
        <ele>114.423</ele>
        <time>2018-07-28T10:42:25Z</time>
      </trkpt>
      <trkpt lat="41.80396" lon="-8.8023">
        <ele>115.158</ele>
        <time>2018-07-28T10:42:26Z</time>
      </trkpt>
      <trkpt lat="41.80431" lon="-8.80247">
        <ele>116.631</ele>
        <time>2018-07-28T10:42:27Z</time>
      </trkpt>
      <trkpt lat="41.80468" lon="-8.80262">
        <ele>118.313</ele>
        <time>2018-07-28T10:42:28Z</time>
      </trkpt>
      <trkpt lat="41.80504" lon="-8.80279">
        <ele>120.428</ele>
        <time>2018-07-28T10:42:29Z</time>
      </trkpt>
      <trkpt lat="41.80541" lon="-8.80295">
        <ele>125.413</ele>
        <time>2018-07-28T10:42:30Z</time>
      </trkpt>
      <trkpt lat="41.80577" lon="-8.80311">
        <ele>128.251</ele>
        <time>2018-07-28T10:42:31Z</time>
      </trkpt>
      <trkpt lat="41.80614" lon="-8.80326">
        <ele>130.967</ele>
        <time>2018-07-28T10:42:32Z</time>
      </trkpt>
      <trkpt lat="41.80649" lon="-8.80341">
        <ele>133.171</ele>
        <time>2018-07-28T10:42:33Z</time>
      </trkpt>
      <trkpt lat="41.80684" lon="-8.80361">
        <ele>135.341</ele>
        <time>2018-07-28T10:42:34Z</time>
      </trkpt>
      <trkpt lat="41.80723" lon="-8.8037">
        <ele>137.215</ele>
        <time>2018-07-28T10:42:35Z</time>
      </trkpt>
      <trkpt lat="41.8076" lon="-8.80385">
        <ele>139.108</ele>
        <time>2018-07-28T10:42:36Z</time>
      </trkpt>
      <trkpt lat="41.80797" lon="-8.804">
        <ele>141.749</ele>
        <time>2018-07-28T10:42:37Z</time>
      </trkpt>
      <trkpt lat="41.80834" lon="-8.80417">
        <ele>144.274</ele>
        <time>2018-07-28T10:42:38Z</time>
      </trkpt>
      <trkpt lat="41.8087" lon="-8.8043">
        <ele>147.197</ele>
        <time>2018-07-28T10:42:39Z</time>
      </trkpt>
      <trkpt lat="41.80904" lon="-8.80443">
        <ele>149.049</ele>
        <time>2018-07-28T10:42:40Z</time>
      </trkpt>
      <trkpt lat="41.80939" lon="-8.80455">
        <ele>150.644</ele>
        <time>2018-07-28T10:42:41Z</time>
      </trkpt>
      <trkpt lat="41.80971" lon="-8.80469">
        <ele>151.399</ele>
        <time>2018-07-28T10:42:42Z</time>
      </trkpt>
      <trkpt lat="41.81003" lon="-8.80481">
        <ele>151.987</ele>
        <time>2018-07-28T10:42:43Z</time>
      </trkpt>
      <trkpt lat="41.81038" lon="-8.80491">
        <ele>153.023</ele>
        <time>2018-07-28T10:42:44Z</time>
      </trkpt>
      <trkpt lat="41.81072" lon="-8.805">
        <ele>153.618</ele>
        <time>2018-07-28T10:42:45Z</time>
      </trkpt>
      <trkpt lat="41.81105" lon="-8.80508">
        <ele>154.298</ele>
        <time>2018-07-28T10:42:46Z</time>
      </trkpt>
      <trkpt lat="41.81139" lon="-8.80512">
        <ele>155.017</ele>
        <time>2018-07-28T10:42:47Z</time>
      </trkpt>
      <trkpt lat="41.81173" lon="-8.80516">
        <ele>156.008</ele>
        <time>2018-07-28T10:42:48Z</time>
      </trkpt>
      <trkpt lat="41.81206" lon="-8.80521">
        <ele>157.033</ele>
        <time>2018-07-28T10:42:49Z</time>
      </trkpt>
      <trkpt lat="41.8124" lon="-8.8052">
        <ele>158.468</ele>
        <time>2018-07-28T10:42:50Z</time>
      </trkpt>
      <trkpt lat="41.81273" lon="-8.80521">
        <ele>160.021</ele>
        <time>2018-07-28T10:42:51Z</time>
      </trkpt>
      <trkpt lat="41.81306" lon="-8.8052">
        <ele>161.413</ele>
        <time>2018-07-28T10:42:52Z</time>
      </trkpt>
      <trkpt lat="41.8134" lon="-8.80517">
        <ele>162.548</ele>
        <time>2018-07-28T10:42:53Z</time>
      </trkpt>
      <trkpt lat="41.81374" lon="-8.80513">
        <ele>163.913</ele>
        <time>2018-07-28T10:42:54Z</time>
      </trkpt>
      <trkpt lat="41.81409" lon="-8.80506">
        <ele>165.341</ele>
        <time>2018-07-28T10:42:55Z</time>
      </trkpt>
      <trkpt lat="41.81443" lon="-8.80497">
        <ele>167.577</ele>
        <time>2018-07-28T10:42:56Z</time>
      </trkpt>
      <trkpt lat="41.81479" lon="-8.8049">
        <ele>170.391</ele>
        <time>2018-07-28T10:42:57Z</time>
      </trkpt>
      <trkpt lat="41.81512" lon="-8.80475">
        <ele>176.081</ele>
        <time>2018-07-28T10:42:58Z</time>
      </trkpt>
      <trkpt lat="41.81546" lon="-8.80462">
        <ele>179.119</ele>
        <time>2018-07-28T10:42:59Z</time>
      </trkpt>
      <trkpt lat="41.81581" lon="-8.80446">
        <ele>181.708</ele>
        <time>2018-07-28T10:43:00Z</time>
      </trkpt>
      <trkpt lat="41.81614" lon="-8.80429">
        <ele>183.541</ele>
        <time>2018-07-28T10:43:01Z</time>
      </trkpt>
      <trkpt lat="41.81649" lon="-8.80411">
        <ele>185.696</ele>
        <time>2018-07-28T10:43:02Z</time>
      </trkpt>
      <trkpt lat="41.81683" lon="-8.80389">
        <ele>187.839</ele>
        <time>2018-07-28T10:43:03Z</time>
      </trkpt>
      <trkpt lat="41.81715" lon="-8.80365">
        <ele>189.471</ele>
        <time>2018-07-28T10:43:04Z</time>
      </trkpt>
      <trkpt lat="41.81749" lon="-8.80344">
        <ele>190.846</ele>
        <time>2018-07-28T10:43:05Z</time>
      </trkpt>
      <trkpt lat="41.81779" lon="-8.80318">
        <ele>192.431</ele>
        <time>2018-07-28T10:43:06Z</time>
      </trkpt>
      <trkpt lat="41.81808" lon="-8.80293">
        <ele>193.869</ele>
        <time>2018-07-28T10:43:07Z</time>
      </trkpt>
      <trkpt lat="41.81838" lon="-8.80267">
        <ele>195.385</ele>
        <time>2018-07-28T10:43:08Z</time>
      </trkpt>
      <trkpt lat="41.81865" lon="-8.80238">
        <ele>197.212</ele>
        <time>2018-07-28T10:43:09Z</time>
      </trkpt>
      <trkpt lat="41.81892" lon="-8.80206">
        <ele>199.132</ele>
        <time>2018-07-28T10:43:10Z</time>
      </trkpt>
      <trkpt lat="41.81918" lon="-8.80174">
        <ele>201.205</ele>
        <time>2018-07-28T10:43:11Z</time>
      </trkpt>
      <trkpt lat="41.81944" lon="-8.80144">
        <ele>204.608</ele>
        <time>2018-07-28T10:43:12Z</time>
      </trkpt>
      <trkpt lat="41.81969" lon="-8.80112">
        <ele>206.043</ele>
        <time>2018-07-28T10:43:13Z</time>
      </trkpt>
      <trkpt lat="41.81992" lon="-8.80078">
        <ele>207.578</ele>
        <time>2018-07-28T10:43:14Z</time>
      </trkpt>
      <trkpt lat="41.82015" lon="-8.80044">
        <ele>208.821</ele>
        <time>2018-07-28T10:43:15Z</time>
      </trkpt>
      <trkpt lat="41.82039" lon="-8.80009">
        <ele>210.523</ele>
        <time>2018-07-28T10:43:16Z</time>
      </trkpt>
      <trkpt lat="41.82062" lon="-8.79972">
        <ele>212.888</ele>
        <time>2018-07-28T10:43:17Z</time>
      </trkpt>
      <trkpt lat="41.82084" lon="-8.79937">
        <ele>215.453</ele>
        <time>2018-07-28T10:43:18Z</time>
      </trkpt>
      <trkpt lat="41.82108" lon="-8.799">
        <ele>217.731</ele>
        <time>2018-07-28T10:43:19Z</time>
      </trkpt>
      <trkpt lat="41.82131" lon="-8.79864">
        <ele>220.077</ele>
        <time>2018-07-28T10:43:20Z</time>
      </trkpt>
      <trkpt lat="41.82155" lon="-8.79828">
        <ele>222.522</ele>
        <time>2018-07-28T10:43:21Z</time>
      </trkpt>
      <trkpt lat="41.8218" lon="-8.79794">
        <ele>224.662</ele>
        <time>2018-07-28T10:43:22Z</time>
      </trkpt>
      <trkpt lat="41.82203" lon="-8.7976">
        <ele>226.308</ele>
        <time>2018-07-28T10:43:23Z</time>
      </trkpt>
      <trkpt lat="41.82226" lon="-8.79725">
        <ele>228.408</ele>
        <time>2018-07-28T10:43:24Z</time>
      </trkpt>
      <trkpt lat="41.82248" lon="-8.79688">
        <ele>230.424</ele>
        <time>2018-07-28T10:43:25Z</time>
      </trkpt>
      <trkpt lat="41.8227" lon="-8.79653">
        <ele>233.319</ele>
        <time>2018-07-28T10:43:26Z</time>
      </trkpt>
      <trkpt lat="41.82291" lon="-8.79617">
        <ele>235.092</ele>
        <time>2018-07-28T10:43:27Z</time>
      </trkpt>
      <trkpt lat="41.82317" lon="-8.7958">
        <ele>236.474</ele>
        <time>2018-07-28T10:43:28Z</time>
      </trkpt>
      <trkpt lat="41.82339" lon="-8.79544">
        <ele>238.399</ele>
        <time>2018-07-28T10:43:29Z</time>
      </trkpt>
      <trkpt lat="41.82363" lon="-8.79505">
        <ele>240.654</ele>
        <time>2018-07-28T10:43:30Z</time>
      </trkpt>
      <trkpt lat="41.82387" lon="-8.79468">
        <ele>243.382</ele>
        <time>2018-07-28T10:43:31Z</time>
      </trkpt>
      <trkpt lat="41.82413" lon="-8.79429">
        <ele>246.358</ele>
        <time>2018-07-28T10:43:32Z</time>
      </trkpt>
      <trkpt lat="41.82437" lon="-8.79393">
        <ele>248.678</ele>
        <time>2018-07-28T10:43:33Z</time>
      </trkpt>
      <trkpt lat="41.82462" lon="-8.79357">
        <ele>250.933</ele>
        <time>2018-07-28T10:43:34Z</time>
      </trkpt>
      <trkpt lat="41.82485" lon="-8.7932">
        <ele>253.026</ele>
        <time>2018-07-28T10:43:35Z</time>
      </trkpt>
      <trkpt lat="41.8251" lon="-8.79285">
        <ele>254.608</ele>
        <time>2018-07-28T10:43:36Z</time>
      </trkpt>
      <trkpt lat="41.82534" lon="-8.79249">
        <ele>255.649</ele>
        <time>2018-07-28T10:43:37Z</time>
      </trkpt>
      <trkpt lat="41.82558" lon="-8.79213">
        <ele>256.854</ele>
        <time>2018-07-28T10:43:38Z</time>
      </trkpt>
      <trkpt lat="41.82583" lon="-8.79175">
        <ele>258.127</ele>
        <time>2018-07-28T10:43:39Z</time>
      </trkpt>
      <trkpt lat="41.82608" lon="-8.79139">
        <ele>261.619</ele>
        <time>2018-07-28T10:43:40Z</time>
      </trkpt>
      <trkpt lat="41.82634" lon="-8.79099">
        <ele>263.474</ele>
        <time>2018-07-28T10:43:41Z</time>
      </trkpt>
      <trkpt lat="41.82662" lon="-8.79063">
        <ele>266.239</ele>
        <time>2018-07-28T10:43:42Z</time>
      </trkpt>
      <trkpt lat="41.82686" lon="-8.79025">
        <ele>268.757</ele>
        <time>2018-07-28T10:43:43Z</time>
      </trkpt>
      <trkpt lat="41.8271" lon="-8.78988">
        <ele>271.143</ele>
        <time>2018-07-28T10:43:44Z</time>
      </trkpt>
      <trkpt lat="41.82733" lon="-8.7895">
        <ele>272.612</ele>
        <time>2018-07-28T10:43:45Z</time>
      </trkpt>
      <trkpt lat="41.82757" lon="-8.78915">
        <ele>274.132</ele>
        <time>2018-07-28T10:43:46Z</time>
      </trkpt>
      <trkpt lat="41.82781" lon="-8.78883">
        <ele>274.905</ele>
        <time>2018-07-28T10:43:47Z</time>
      </trkpt>
      <trkpt lat="41.82808" lon="-8.78849">
        <ele>276.108</ele>
        <time>2018-07-28T10:43:48Z</time>
      </trkpt>
      <trkpt lat="41.82834" lon="-8.78816">
        <ele>278.173</ele>
        <time>2018-07-28T10:43:49Z</time>
      </trkpt>
      <trkpt lat="41.82862" lon="-8.78787">
        <ele>280.328</ele>
        <time>2018-07-28T10:43:50Z</time>
      </trkpt>
      <trkpt lat="41.82892" lon="-8.78761">
        <ele>282.691</ele>
        <time>2018-07-28T10:43:51Z</time>
      </trkpt>
      <trkpt lat="41.82921" lon="-8.78737">
        <ele>284.413</ele>
        <time>2018-07-28T10:43:52Z</time>
      </trkpt>
      <trkpt lat="41.82953" lon="-8.78721">
        <ele>285.678</ele>
        <time>2018-07-28T10:43:53Z</time>
      </trkpt>
      <trkpt lat="41.82986" lon="-8.78706">
        <ele>286.023</ele>
        <time>2018-07-28T10:43:54Z</time>
      </trkpt>
      <trkpt lat="41.83018" lon="-8.78692">
        <ele>286.481</ele>
        <time>2018-07-28T10:43:55Z</time>
      </trkpt>
      <trkpt lat="41.83051" lon="-8.78678">
        <ele>287.947</ele>
        <time>2018-07-28T10:43:56Z</time>
      </trkpt>
      <trkpt lat="41.83086" lon="-8.78667">
        <ele>289.869</ele>
        <time>2018-07-28T10:43:57Z</time>
      </trkpt>
      <trkpt lat="41.83121" lon="-8.78657">
        <ele>291.904</ele>
        <time>2018-07-28T10:43:58Z</time>
      </trkpt>
      <trkpt lat="41.83158" lon="-8.7865">
        <ele>294.824</ele>
        <time>2018-07-28T10:43:59Z</time>
      </trkpt>
      <trkpt lat="41.83195" lon="-8.78649">
        <ele>297.808</ele>
        <time>2018-07-28T10:44:00Z</time>
      </trkpt>
      <trkpt lat="41.83233" lon="-8.78647">
        <ele>299.988</ele>
        <time>2018-07-28T10:44:01Z</time>
      </trkpt>
      <trkpt lat="41.83271" lon="-8.78647">
        <ele>302.473</ele>
        <time>2018-07-28T10:44:02Z</time>
      </trkpt>
      <trkpt lat="41.83308" lon="-8.78644">
        <ele>304.996</ele>
        <time>2018-07-28T10:44:03Z</time>
      </trkpt>
      <trkpt lat="41.83346" lon="-8.7864">
        <ele>306.758</ele>
        <time>2018-07-28T10:44:04Z</time>
      </trkpt>
      <trkpt lat="41.83384" lon="-8.78635">
        <ele>308.133</ele>
        <time>2018-07-28T10:44:05Z</time>
      </trkpt>
      <trkpt lat="41.83421" lon="-8.7863">
        <ele>309.498</ele>
        <time>2018-07-28T10:44:06Z</time>
      </trkpt>
      <trkpt lat="41.83457" lon="-8.78624">
        <ele>310.056</ele>
        <time>2018-07-28T10:44:07Z</time>
      </trkpt>
      <trkpt lat="41.83493" lon="-8.78619">
        <ele>310.152</ele>
        <time>2018-07-28T10:44:08Z</time>
      </trkpt>
      <trkpt lat="41.83529" lon="-8.78612">
        <ele>310.449</ele>
        <time>2018-07-28T10:44:09Z</time>
      </trkpt>
      <trkpt lat="41.83564" lon="-8.78604">
        <ele>310.702</ele>
        <time>2018-07-28T10:44:10Z</time>
      </trkpt>
      <trkpt lat="41.836" lon="-8.78594">
        <ele>311.322</ele>
        <time>2018-07-28T10:44:11Z</time>
      </trkpt>
      <trkpt lat="41.83636" lon="-8.78584">
        <ele>311.808</ele>
        <time>2018-07-28T10:44:12Z</time>
      </trkpt>
      <trkpt lat="41.83673" lon="-8.7857">
        <ele>311.946</ele>
        <time>2018-07-28T10:44:13Z</time>
      </trkpt>
      <trkpt lat="41.8371" lon="-8.78555">
        <ele>311.921</ele>
        <time>2018-07-28T10:44:14Z</time>
      </trkpt>
      <trkpt lat="41.83744" lon="-8.78539">
        <ele>311.874</ele>
        <time>2018-07-28T10:44:15Z</time>
      </trkpt>
      <trkpt lat="41.83779" lon="-8.78523">
        <ele>311.566</ele>
        <time>2018-07-28T10:44:16Z</time>
      </trkpt>
      <trkpt lat="41.83816" lon="-8.78506">
        <ele>311.551</ele>
        <time>2018-07-28T10:44:17Z</time>
      </trkpt>
      <trkpt lat="41.83851" lon="-8.78485">
        <ele>311.866</ele>
        <time>2018-07-28T10:44:18Z</time>
      </trkpt>
      <trkpt lat="41.83885" lon="-8.78465">
        <ele>311.824</ele>
        <time>2018-07-28T10:44:19Z</time>
      </trkpt>
      <trkpt lat="41.83919" lon="-8.78445">
        <ele>311.51</ele>
        <time>2018-07-28T10:44:20Z</time>
      </trkpt>
      <trkpt lat="41.83952" lon="-8.78423">
        <ele>311.456</ele>
        <time>2018-07-28T10:44:21Z</time>
      </trkpt>
      <trkpt lat="41.83984" lon="-8.78401">
        <ele>309.659</ele>
        <time>2018-07-28T10:44:22Z</time>
      </trkpt>
      <trkpt lat="41.84015" lon="-8.78377">
        <ele>309.214</ele>
        <time>2018-07-28T10:44:23Z</time>
      </trkpt>
      <trkpt lat="41.84047" lon="-8.7835">
        <ele>309.208</ele>
        <time>2018-07-28T10:44:24Z</time>
      </trkpt>
      <trkpt lat="41.84079" lon="-8.78321">
        <ele>309.587</ele>
        <time>2018-07-28T10:44:25Z</time>
      </trkpt>
      <trkpt lat="41.8411" lon="-8.78291">
        <ele>310.242</ele>
        <time>2018-07-28T10:44:26Z</time>
      </trkpt>
      <trkpt lat="41.84141" lon="-8.78262">
        <ele>310.275</ele>
        <time>2018-07-28T10:44:27Z</time>
      </trkpt>
      <trkpt lat="41.84169" lon="-8.78232">
        <ele>309.857</ele>
        <time>2018-07-28T10:44:28Z</time>
      </trkpt>
      <trkpt lat="41.84198" lon="-8.78206">
        <ele>309.632</ele>
        <time>2018-07-28T10:44:29Z</time>
      </trkpt>
      <trkpt lat="41.84226" lon="-8.7818">
        <ele>308.317</ele>
        <time>2018-07-28T10:44:30Z</time>
      </trkpt>
      <trkpt lat="41.84255" lon="-8.78152">
        <ele>307.755</ele>
        <time>2018-07-28T10:44:31Z</time>
      </trkpt>
      <trkpt lat="41.84286" lon="-8.78124">
        <ele>306.511</ele>
        <time>2018-07-28T10:44:32Z</time>
      </trkpt>
      <trkpt lat="41.84316" lon="-8.78092">
        <ele>305.718</ele>
        <time>2018-07-28T10:44:33Z</time>
      </trkpt>
      <trkpt lat="41.84347" lon="-8.78067">
        <ele>305.198</ele>
        <time>2018-07-28T10:44:34Z</time>
      </trkpt>
      <trkpt lat="41.84379" lon="-8.78042">
        <ele>305.117</ele>
        <time>2018-07-28T10:44:35Z</time>
      </trkpt>
      <trkpt lat="41.84411" lon="-8.78018">
        <ele>306.108</ele>
        <time>2018-07-28T10:44:36Z</time>
      </trkpt>
      <trkpt lat="41.84443" lon="-8.77994">
        <ele>307.073</ele>
        <time>2018-07-28T10:44:37Z</time>
      </trkpt>
      <trkpt lat="41.84474" lon="-8.77973">
        <ele>307.868</ele>
        <time>2018-07-28T10:44:38Z</time>
      </trkpt>
      <trkpt lat="41.84507" lon="-8.77952">
        <ele>307.891</ele>
        <time>2018-07-28T10:44:39Z</time>
      </trkpt>
      <trkpt lat="41.8454" lon="-8.77929">
        <ele>307.363</ele>
        <time>2018-07-28T10:44:40Z</time>
      </trkpt>
      <trkpt lat="41.84574" lon="-8.77906">
        <ele>306.618</ele>
        <time>2018-07-28T10:44:41Z</time>
      </trkpt>
      <trkpt lat="41.84608" lon="-8.77882">
        <ele>305.953</ele>
        <time>2018-07-28T10:44:42Z</time>
      </trkpt>
      <trkpt lat="41.84638" lon="-8.77856">
        <ele>304.221</ele>
        <time>2018-07-28T10:44:43Z</time>
      </trkpt>
      <trkpt lat="41.84671" lon="-8.77831">
        <ele>302.977</ele>
        <time>2018-07-28T10:44:44Z</time>
      </trkpt>
      <trkpt lat="41.847" lon="-8.77804">
        <ele>301.255</ele>
        <time>2018-07-28T10:44:45Z</time>
      </trkpt>
      <trkpt lat="41.84728" lon="-8.77777">
        <ele>299.407</ele>
        <time>2018-07-28T10:44:46Z</time>
      </trkpt>
      <trkpt lat="41.84753" lon="-8.77748">
        <ele>297.217</ele>
        <time>2018-07-28T10:44:47Z</time>
      </trkpt>
      <trkpt lat="41.84777" lon="-8.77715">
        <ele>295.808</ele>
        <time>2018-07-28T10:44:48Z</time>
      </trkpt>
      <trkpt lat="41.848" lon="-8.77682">
        <ele>294.857</ele>
        <time>2018-07-28T10:44:49Z</time>
      </trkpt>
      <trkpt lat="41.84823" lon="-8.77651">
        <ele>292.072</ele>
        <time>2018-07-28T10:44:50Z</time>
      </trkpt>
      <trkpt lat="41.84847" lon="-8.77623">
        <ele>290.575</ele>
        <time>2018-07-28T10:44:51Z</time>
      </trkpt>
      <trkpt lat="41.84869" lon="-8.77597">
        <ele>288.527</ele>
        <time>2018-07-28T10:44:52Z</time>
      </trkpt>
      <trkpt lat="41.84893" lon="-8.77572">
        <ele>285.832</ele>
        <time>2018-07-28T10:44:53Z</time>
      </trkpt>
      <trkpt lat="41.84918" lon="-8.77548">
        <ele>283.457</ele>
        <time>2018-07-28T10:44:54Z</time>
      </trkpt>
      <trkpt lat="41.84945" lon="-8.7752">
        <ele>282.035</ele>
        <time>2018-07-28T10:44:55Z</time>
      </trkpt>
      <trkpt lat="41.84974" lon="-8.77498">
        <ele>280.921</ele>
        <time>2018-07-28T10:44:56Z</time>
      </trkpt>
      <trkpt lat="41.85005" lon="-8.77475">
        <ele>280.179</ele>
        <time>2018-07-28T10:44:57Z</time>
      </trkpt>
      <trkpt lat="41.85036" lon="-8.77461">
        <ele>279.305</ele>
        <time>2018-07-28T10:44:58Z</time>
      </trkpt>
      <trkpt lat="41.85067" lon="-8.77447">
        <ele>278.625</ele>
        <time>2018-07-28T10:44:59Z</time>
      </trkpt>
      <trkpt lat="41.85098" lon="-8.77435">
        <ele>277.108</ele>
        <time>2018-07-28T10:45:00Z</time>
      </trkpt>
      <trkpt lat="41.8513" lon="-8.77425">
        <ele>275.519</ele>
        <time>2018-07-28T10:45:01Z</time>
      </trkpt>
      <trkpt lat="41.85162" lon="-8.77415">
        <ele>273.814</ele>
        <time>2018-07-28T10:45:02Z</time>
      </trkpt>
      <trkpt lat="41.85194" lon="-8.77408">
        <ele>272.137</ele>
        <time>2018-07-28T10:45:03Z</time>
      </trkpt>
      <trkpt lat="41.85228" lon="-8.77404">
        <ele>268.519</ele>
        <time>2018-07-28T10:45:04Z</time>
      </trkpt>
      <trkpt lat="41.8526" lon="-8.77403">
        <ele>267.264</ele>
        <time>2018-07-28T10:45:05Z</time>
      </trkpt>
      <trkpt lat="41.85294" lon="-8.77403">
        <ele>265.649</ele>
        <time>2018-07-28T10:45:06Z</time>
      </trkpt>
      <trkpt lat="41.85327" lon="-8.77405">
        <ele>263.987</ele>
        <time>2018-07-28T10:45:07Z</time>
      </trkpt>
      <trkpt lat="41.85361" lon="-8.77409">
        <ele>262.663</ele>
        <time>2018-07-28T10:45:08Z</time>
      </trkpt>
      <trkpt lat="41.85395" lon="-8.77416">
        <ele>261.263</ele>
        <time>2018-07-28T10:45:09Z</time>
      </trkpt>
      <trkpt lat="41.8543" lon="-8.77424">
        <ele>259.844</ele>
        <time>2018-07-28T10:45:10Z</time>
      </trkpt>
      <trkpt lat="41.85463" lon="-8.77437">
        <ele>258.418</ele>
        <time>2018-07-28T10:45:11Z</time>
      </trkpt>
      <trkpt lat="41.85496" lon="-8.77454">
        <ele>257.408</ele>
        <time>2018-07-28T10:45:12Z</time>
      </trkpt>
      <trkpt lat="41.8553" lon="-8.77472">
        <ele>256.238</ele>
        <time>2018-07-28T10:45:13Z</time>
      </trkpt>
      <trkpt lat="41.85562" lon="-8.77491">
        <ele>254.753</ele>
        <time>2018-07-28T10:45:14Z</time>
      </trkpt>
      <trkpt lat="41.85595" lon="-8.77514">
        <ele>253.116</ele>
        <time>2018-07-28T10:45:15Z</time>
      </trkpt>
      <trkpt lat="41.85626" lon="-8.77539">
        <ele>252.078</ele>
        <time>2018-07-28T10:45:16Z</time>
      </trkpt>
      <trkpt lat="41.85656" lon="-8.77565">
        <ele>249.933</ele>
        <time>2018-07-28T10:45:17Z</time>
      </trkpt>
      <trkpt lat="41.85686" lon="-8.77592">
        <ele>248.158</ele>
        <time>2018-07-28T10:45:18Z</time>
      </trkpt>
      <trkpt lat="41.85715" lon="-8.77619">
        <ele>246.546</ele>
        <time>2018-07-28T10:45:19Z</time>
      </trkpt>
      <trkpt lat="41.85743" lon="-8.77644">
        <ele>244.212</ele>
        <time>2018-07-28T10:45:20Z</time>
      </trkpt>
      <trkpt lat="41.85774" lon="-8.77668">
        <ele>241.428</ele>
        <time>2018-07-28T10:45:21Z</time>
      </trkpt>
      <trkpt lat="41.85807" lon="-8.77692">
        <ele>239.389</ele>
        <time>2018-07-28T10:45:22Z</time>
      </trkpt>
      <trkpt lat="41.85842" lon="-8.77709">
        <ele>237.517</ele>
        <time>2018-07-28T10:45:23Z</time>
      </trkpt>
      <trkpt lat="41.85874" lon="-8.77729">
        <ele>236.108</ele>
        <time>2018-07-28T10:45:24Z</time>
      </trkpt>
      <trkpt lat="41.85908" lon="-8.77739">
        <ele>234.494</ele>
        <time>2018-07-28T10:45:25Z</time>
      </trkpt>
      <trkpt lat="41.8594" lon="-8.77757">
        <ele>232.679</ele>
        <time>2018-07-28T10:45:26Z</time>
      </trkpt>
      <trkpt lat="41.85971" lon="-8.77779">
        <ele>230.652</ele>
        <time>2018-07-28T10:45:27Z</time>
      </trkpt>
      <trkpt lat="41.86003" lon="-8.77803">
        <ele>228.964</ele>
        <time>2018-07-28T10:45:28Z</time>
      </trkpt>
      <trkpt lat="41.86031" lon="-8.77829">
        <ele>227.299</ele>
        <time>2018-07-28T10:45:29Z</time>
      </trkpt>
      <trkpt lat="41.86058" lon="-8.77855">
        <ele>225.694</ele>
        <time>2018-07-28T10:45:30Z</time>
      </trkpt>
      <trkpt lat="41.86084" lon="-8.77882">
        <ele>223.762</ele>
        <time>2018-07-28T10:45:31Z</time>
      </trkpt>
      <trkpt lat="41.8611" lon="-8.77908">
        <ele>218.678</ele>
        <time>2018-07-28T10:45:32Z</time>
      </trkpt>
      <trkpt lat="41.86137" lon="-8.7793">
        <ele>215.539</ele>
        <time>2018-07-28T10:45:33Z</time>
      </trkpt>
      <trkpt lat="41.86164" lon="-8.77953">
        <ele>212.301</ele>
        <time>2018-07-28T10:45:34Z</time>
      </trkpt>
      <trkpt lat="41.86191" lon="-8.77973">
        <ele>209.221</ele>
        <time>2018-07-28T10:45:35Z</time>
      </trkpt>
      <trkpt lat="41.8622" lon="-8.7799">
        <ele>206.508</ele>
        <time>2018-07-28T10:45:36Z</time>
      </trkpt>
      <trkpt lat="41.86249" lon="-8.78003">
        <ele>204.275</ele>
        <time>2018-07-28T10:45:37Z</time>
      </trkpt>
      <trkpt lat="41.86281" lon="-8.7801">
        <ele>202.19</ele>
        <time>2018-07-28T10:45:38Z</time>
      </trkpt>
      <trkpt lat="41.86314" lon="-8.78013">
        <ele>200.373</ele>
        <time>2018-07-28T10:45:39Z</time>
      </trkpt>
      <trkpt lat="41.86347" lon="-8.78019">
        <ele>198.975</ele>
        <time>2018-07-28T10:45:40Z</time>
      </trkpt>
      <trkpt lat="41.86381" lon="-8.78023">
        <ele>197.66</ele>
        <time>2018-07-28T10:45:41Z</time>
      </trkpt>
      <trkpt lat="41.86412" lon="-8.78023">
        <ele>196.235</ele>
        <time>2018-07-28T10:45:42Z</time>
      </trkpt>
      <trkpt lat="41.86441" lon="-8.78019">
        <ele>194.393</ele>
        <time>2018-07-28T10:45:43Z</time>
      </trkpt>
      <trkpt lat="41.86471" lon="-8.78021">
        <ele>192.149</ele>
        <time>2018-07-28T10:45:44Z</time>
      </trkpt>
      <trkpt lat="41.86501" lon="-8.78021">
        <ele>189.622</ele>
        <time>2018-07-28T10:45:45Z</time>
      </trkpt>
      <trkpt lat="41.86532" lon="-8.78024">
        <ele>185.262</ele>
        <time>2018-07-28T10:45:46Z</time>
      </trkpt>
      <trkpt lat="41.86563" lon="-8.7803">
        <ele>183.708</ele>
        <time>2018-07-28T10:45:47Z</time>
      </trkpt>
      <trkpt lat="41.86596" lon="-8.78039">
        <ele>182.608</ele>
        <time>2018-07-28T10:45:48Z</time>
      </trkpt>
      <trkpt lat="41.86627" lon="-8.78053">
        <ele>181.644</ele>
        <time>2018-07-28T10:45:49Z</time>
      </trkpt>
      <trkpt lat="41.86657" lon="-8.78077">
        <ele>180.699</ele>
        <time>2018-07-28T10:45:50Z</time>
      </trkpt>
      <trkpt lat="41.86687" lon="-8.78098">
        <ele>179.742</ele>
        <time>2018-07-28T10:45:51Z</time>
      </trkpt>
      <trkpt lat="41.86716" lon="-8.78122">
        <ele>178.614</ele>
        <time>2018-07-28T10:45:52Z</time>
      </trkpt>
      <trkpt lat="41.86744" lon="-8.78143">
        <ele>177.249</ele>
        <time>2018-07-28T10:45:53Z</time>
      </trkpt>
      <trkpt lat="41.86772" lon="-8.78168">
        <ele>176.024</ele>
        <time>2018-07-28T10:45:54Z</time>
      </trkpt>
      <trkpt lat="41.86799" lon="-8.78191">
        <ele>174.312</ele>
        <time>2018-07-28T10:45:55Z</time>
      </trkpt>
      <trkpt lat="41.86823" lon="-8.78221">
        <ele>172.248</ele>
        <time>2018-07-28T10:45:56Z</time>
      </trkpt>
      <trkpt lat="41.86848" lon="-8.78246">
        <ele>170.397</ele>
        <time>2018-07-28T10:45:57Z</time>
      </trkpt>
      <trkpt lat="41.86874" lon="-8.78263">
        <ele>168.023</ele>
        <time>2018-07-28T10:45:58Z</time>
      </trkpt>
      <trkpt lat="41.86904" lon="-8.78281">
        <ele>165.625</ele>
        <time>2018-07-28T10:45:59Z</time>
      </trkpt>
      <trkpt lat="41.86931" lon="-8.78297">
        <ele>161.308</ele>
        <time>2018-07-28T10:46:00Z</time>
      </trkpt>
      <trkpt lat="41.86962" lon="-8.78309">
        <ele>158.951</ele>
        <time>2018-07-28T10:46:01Z</time>
      </trkpt>
      <trkpt lat="41.86994" lon="-8.78323">
        <ele>157.016</ele>
        <time>2018-07-28T10:46:02Z</time>
      </trkpt>
      <trkpt lat="41.87026" lon="-8.78327">
        <ele>155.189</ele>
        <time>2018-07-28T10:46:03Z</time>
      </trkpt>
      <trkpt lat="41.87059" lon="-8.78334">
        <ele>153.721</ele>
        <time>2018-07-28T10:46:04Z</time>
      </trkpt>
      <trkpt lat="41.87092" lon="-8.78341">
        <ele>152.936</ele>
        <time>2018-07-28T10:46:05Z</time>
      </trkpt>
      <trkpt lat="41.87126" lon="-8.78345">
        <ele>152.121</ele>
        <time>2018-07-28T10:46:06Z</time>
      </trkpt>
      <trkpt lat="41.8716" lon="-8.78346">
        <ele>151.249</ele>
        <time>2018-07-28T10:46:07Z</time>
      </trkpt>
      <trkpt lat="41.87192" lon="-8.78346">
        <ele>150.445</ele>
        <time>2018-07-28T10:46:08Z</time>
      </trkpt>
      <trkpt lat="41.87223" lon="-8.78347">
        <ele>149.177</ele>
        <time>2018-07-28T10:46:09Z</time>
      </trkpt>
      <trkpt lat="41.87255" lon="-8.78354">
        <ele>147.261</ele>
        <time>2018-07-28T10:46:10Z</time>
      </trkpt>
      <trkpt lat="41.87287" lon="-8.78359">
        <ele>145.227</ele>
        <time>2018-07-28T10:46:11Z</time>
      </trkpt>
      <trkpt lat="41.87319" lon="-8.78374">
        <ele>143.008</ele>
        <time>2018-07-28T10:46:12Z</time>
      </trkpt>
      <trkpt lat="41.87351" lon="-8.78389">
        <ele>139.089</ele>
        <time>2018-07-28T10:46:13Z</time>
      </trkpt>
      <trkpt lat="41.8738" lon="-8.78409">
        <ele>137.794</ele>
        <time>2018-07-28T10:46:14Z</time>
      </trkpt>
      <trkpt lat="41.87408" lon="-8.78428">
        <ele>136.127</ele>
        <time>2018-07-28T10:46:15Z</time>
      </trkpt>
      <trkpt lat="41.87437" lon="-8.78448">
        <ele>135.389</ele>
        <time>2018-07-28T10:46:16Z</time>
      </trkpt>
      <trkpt lat="41.87465" lon="-8.78473">
        <ele>135.074</ele>
        <time>2018-07-28T10:46:17Z</time>
      </trkpt>
      <trkpt lat="41.87492" lon="-8.785">
        <ele>134.849</ele>
        <time>2018-07-28T10:46:18Z</time>
      </trkpt>
      <trkpt lat="41.87518" lon="-8.78531">
        <ele>134.857</ele>
        <time>2018-07-28T10:46:19Z</time>
      </trkpt>
      <trkpt lat="41.87543" lon="-8.78564">
        <ele>134.773</ele>
        <time>2018-07-28T10:46:20Z</time>
      </trkpt>
      <trkpt lat="41.87568" lon="-8.78597">
        <ele>134.733</ele>
        <time>2018-07-28T10:46:21Z</time>
      </trkpt>
      <trkpt lat="41.87595" lon="-8.7863">
        <ele>133.823</ele>
        <time>2018-07-28T10:46:22Z</time>
      </trkpt>
      <trkpt lat="41.87619" lon="-8.78661">
        <ele>132.215</ele>
        <time>2018-07-28T10:46:23Z</time>
      </trkpt>
      <trkpt lat="41.87647" lon="-8.7869">
        <ele>131.008</ele>
        <time>2018-07-28T10:46:24Z</time>
      </trkpt>
      <trkpt lat="41.87675" lon="-8.78721">
        <ele>129.795</ele>
        <time>2018-07-28T10:46:25Z</time>
      </trkpt>
      <trkpt lat="41.87703" lon="-8.78747">
        <ele>128.61</ele>
        <time>2018-07-28T10:46:26Z</time>
      </trkpt>
      <trkpt lat="41.87733" lon="-8.78771">
        <ele>127.653</ele>
        <time>2018-07-28T10:46:27Z</time>
      </trkpt>
      <trkpt lat="41.87766" lon="-8.7879">
        <ele>126.035</ele>
        <time>2018-07-28T10:46:28Z</time>
      </trkpt>
      <trkpt lat="41.87798" lon="-8.78806">
        <ele>124.88</ele>
        <time>2018-07-28T10:46:29Z</time>
      </trkpt>
      <trkpt lat="41.87831" lon="-8.78817">
        <ele>123.185</ele>
        <time>2018-07-28T10:46:30Z</time>
      </trkpt>
      <trkpt lat="41.87864" lon="-8.78828">
        <ele>121.733</ele>
        <time>2018-07-28T10:46:31Z</time>
      </trkpt>
      <trkpt lat="41.87897" lon="-8.78839">
        <ele>120.439</ele>
        <time>2018-07-28T10:46:32Z</time>
      </trkpt>
      <trkpt lat="41.8793" lon="-8.78849">
        <ele>119.319</ele>
        <time>2018-07-28T10:46:33Z</time>
      </trkpt>
      <trkpt lat="41.87966" lon="-8.78852">
        <ele>118.809</ele>
        <time>2018-07-28T10:46:34Z</time>
      </trkpt>
      <trkpt lat="41.88003" lon="-8.78854">
        <ele>118.619</ele>
        <time>2018-07-28T10:46:35Z</time>
      </trkpt>
      <trkpt lat="41.88039" lon="-8.7885">
        <ele>118.508</ele>
        <time>2018-07-28T10:46:36Z</time>
      </trkpt>
      <trkpt lat="41.88073" lon="-8.78846">
        <ele>118.323</ele>
        <time>2018-07-28T10:46:37Z</time>
      </trkpt>
      <trkpt lat="41.88107" lon="-8.78834">
        <ele>118.358</ele>
        <time>2018-07-28T10:46:38Z</time>
      </trkpt>
      <trkpt lat="41.88142" lon="-8.78824">
        <ele>118.371</ele>
        <time>2018-07-28T10:46:39Z</time>
      </trkpt>
      <trkpt lat="41.88176" lon="-8.78812">
        <ele>119.333</ele>
        <time>2018-07-28T10:46:40Z</time>
      </trkpt>
      <trkpt lat="41.88209" lon="-8.78794">
        <ele>119.388</ele>
        <time>2018-07-28T10:46:41Z</time>
      </trkpt>
      <trkpt lat="41.88239" lon="-8.78773">
        <ele>120.963</ele>
        <time>2018-07-28T10:46:42Z</time>
      </trkpt>
      <trkpt lat="41.88269" lon="-8.78752">
        <ele>120.951</ele>
        <time>2018-07-28T10:46:43Z</time>
      </trkpt>
      <trkpt lat="41.88297" lon="-8.78727">
        <ele>120.617</ele>
        <time>2018-07-28T10:46:44Z</time>
      </trkpt>
      <trkpt lat="41.88323" lon="-8.78701">
        <ele>119.696</ele>
        <time>2018-07-28T10:46:45Z</time>
      </trkpt>
      <trkpt lat="41.88347" lon="-8.7867">
        <ele>118.731</ele>
        <time>2018-07-28T10:46:46Z</time>
      </trkpt>
      <trkpt lat="41.88368" lon="-8.78637">
        <ele>118.424</ele>
        <time>2018-07-28T10:46:47Z</time>
      </trkpt>
      <trkpt lat="41.88388" lon="-8.78602">
        <ele>118.208</ele>
        <time>2018-07-28T10:46:48Z</time>
      </trkpt>
      <trkpt lat="41.88406" lon="-8.78564">
        <ele>118.231</ele>
        <time>2018-07-28T10:46:49Z</time>
      </trkpt>
      <trkpt lat="41.88421" lon="-8.78525">
        <ele>118.426</ele>
        <time>2018-07-28T10:46:50Z</time>
      </trkpt>
      <trkpt lat="41.88434" lon="-8.78483">
        <ele>118.469</ele>
        <time>2018-07-28T10:46:51Z</time>
      </trkpt>
      <trkpt lat="41.88445" lon="-8.78441">
        <ele>118.231</ele>
        <time>2018-07-28T10:46:52Z</time>
      </trkpt>
      <trkpt lat="41.88453" lon="-8.78397">
        <ele>117.966</ele>
        <time>2018-07-28T10:46:53Z</time>
      </trkpt>
      <trkpt lat="41.8846" lon="-8.78353">
        <ele>117.471</ele>
        <time>2018-07-28T10:46:54Z</time>
      </trkpt>
      <trkpt lat="41.88466" lon="-8.78309">
        <ele>117.069</ele>
        <time>2018-07-28T10:46:55Z</time>
      </trkpt>
      <trkpt lat="41.88471" lon="-8.78266">
        <ele>115.875</ele>
        <time>2018-07-28T10:46:56Z</time>
      </trkpt>
      <trkpt lat="41.88478" lon="-8.78222">
        <ele>115.055</ele>
        <time>2018-07-28T10:46:57Z</time>
      </trkpt>
      <trkpt lat="41.88485" lon="-8.78178">
        <ele>114.007</ele>
        <time>2018-07-28T10:46:58Z</time>
      </trkpt>
      <trkpt lat="41.88495" lon="-8.78134">
        <ele>112.917</ele>
        <time>2018-07-28T10:46:59Z</time>
      </trkpt>
      <trkpt lat="41.88503" lon="-8.7809">
        <ele>112.408</ele>
        <time>2018-07-28T10:47:00Z</time>
      </trkpt>
      <trkpt lat="41.88516" lon="-8.78047">
        <ele>111.827</ele>
        <time>2018-07-28T10:47:01Z</time>
      </trkpt>
      <trkpt lat="41.88532" lon="-8.78007">
        <ele>111.232</ele>
        <time>2018-07-28T10:47:02Z</time>
      </trkpt>
      <trkpt lat="41.88546" lon="-8.77965">
        <ele>110.295</ele>
        <time>2018-07-28T10:47:03Z</time>
      </trkpt>
      <trkpt lat="41.88562" lon="-8.77926">
        <ele>109.327</ele>
        <time>2018-07-28T10:47:04Z</time>
      </trkpt>
      <trkpt lat="41.8858" lon="-8.77888">
        <ele>107.792</ele>
        <time>2018-07-28T10:47:05Z</time>
      </trkpt>
      <trkpt lat="41.88598" lon="-8.77848">
        <ele>106.057</ele>
        <time>2018-07-28T10:47:06Z</time>
      </trkpt>
      <trkpt lat="41.88617" lon="-8.7781">
        <ele>104.315</ele>
        <time>2018-07-28T10:47:07Z</time>
      </trkpt>
      <trkpt lat="41.88636" lon="-8.77774">
        <ele>102.671</ele>
        <time>2018-07-28T10:47:08Z</time>
      </trkpt>
      <trkpt lat="41.88658" lon="-8.77735">
        <ele>100.676</ele>
        <time>2018-07-28T10:47:09Z</time>
      </trkpt>
      <trkpt lat="41.88682" lon="-8.77699">
        <ele>96.69</ele>
        <time>2018-07-28T10:47:10Z</time>
      </trkpt>
      <trkpt lat="41.88706" lon="-8.77666">
        <ele>94.319</ele>
        <time>2018-07-28T10:47:11Z</time>
      </trkpt>
      <trkpt lat="41.8873" lon="-8.77635">
        <ele>92.508</ele>
        <time>2018-07-28T10:47:12Z</time>
      </trkpt>
      <trkpt lat="41.88756" lon="-8.77606">
        <ele>91.079</ele>
        <time>2018-07-28T10:47:13Z</time>
      </trkpt>
      <trkpt lat="41.88783" lon="-8.77578">
        <ele>89.124</ele>
        <time>2018-07-28T10:47:14Z</time>
      </trkpt>
      <trkpt lat="41.88809" lon="-8.77553">
        <ele>87.527</ele>
        <time>2018-07-28T10:47:15Z</time>
      </trkpt>
      <trkpt lat="41.88836" lon="-8.77528">
        <ele>86.199</ele>
        <time>2018-07-28T10:47:16Z</time>
      </trkpt>
      <trkpt lat="41.88862" lon="-8.77503">
        <ele>84.114</ele>
        <time>2018-07-28T10:47:17Z</time>
      </trkpt>
      <trkpt lat="41.8889" lon="-8.7748">
        <ele>82.249</ele>
        <time>2018-07-28T10:47:18Z</time>
      </trkpt>
      <trkpt lat="41.88917" lon="-8.77458">
        <ele>80.687</ele>
        <time>2018-07-28T10:47:19Z</time>
      </trkpt>
      <trkpt lat="41.88944" lon="-8.77438">
        <ele>78.543</ele>
        <time>2018-07-28T10:47:20Z</time>
      </trkpt>
      <trkpt lat="41.8897" lon="-8.77418">
        <ele>76.451</ele>
        <time>2018-07-28T10:47:21Z</time>
      </trkpt>
      <trkpt lat="41.88996" lon="-8.77399">
        <ele>74.501</ele>
        <time>2018-07-28T10:47:22Z</time>
      </trkpt>
      <trkpt lat="41.89019" lon="-8.77379">
        <ele>72.111</ele>
        <time>2018-07-28T10:47:23Z</time>
      </trkpt>
      <trkpt lat="41.89045" lon="-8.77361">
        <ele>68.208</ele>
        <time>2018-07-28T10:47:24Z</time>
      </trkpt>
      <trkpt lat="41.89071" lon="-8.77343">
        <ele>66.487</ele>
        <time>2018-07-28T10:47:25Z</time>
      </trkpt>
      <trkpt lat="41.89095" lon="-8.77325">
        <ele>64.342</ele>
        <time>2018-07-28T10:47:26Z</time>
      </trkpt>
      <trkpt lat="41.89119" lon="-8.77307">
        <ele>62.335</ele>
        <time>2018-07-28T10:47:27Z</time>
      </trkpt>
      <trkpt lat="41.89141" lon="-8.77296">
        <ele>60.257</ele>
        <time>2018-07-28T10:47:28Z</time>
      </trkpt>
      <trkpt lat="41.89162" lon="-8.7728">
        <ele>57.982</ele>
        <time>2018-07-28T10:47:29Z</time>
      </trkpt>
      <trkpt lat="41.89185" lon="-8.77268">
        <ele>55.957</ele>
        <time>2018-07-28T10:47:30Z</time>
      </trkpt>
      <trkpt lat="41.89207" lon="-8.77256">
        <ele>54.215</ele>
        <time>2018-07-28T10:47:31Z</time>
      </trkpt>
      <trkpt lat="41.89234" lon="-8.77258">
        <ele>52.951</ele>
        <time>2018-07-28T10:47:32Z</time>
      </trkpt>
      <trkpt lat="41.89264" lon="-8.77259">
        <ele>51.415</ele>
        <time>2018-07-28T10:47:33Z</time>
      </trkpt>
      <trkpt lat="41.89293" lon="-8.77263">
        <ele>50.265</ele>
        <time>2018-07-28T10:47:34Z</time>
      </trkpt>
      <trkpt lat="41.89323" lon="-8.77269">
        <ele>49.211</ele>
        <time>2018-07-28T10:47:35Z</time>
      </trkpt>
      <trkpt lat="41.8935" lon="-8.77271">
        <ele>48.408</ele>
        <time>2018-07-28T10:47:36Z</time>
      </trkpt>
      <trkpt lat="41.89378" lon="-8.7728">
        <ele>47.613</ele>
        <time>2018-07-28T10:47:37Z</time>
      </trkpt>
      <trkpt lat="41.89404" lon="-8.77292">
        <ele>46.448</ele>
        <time>2018-07-28T10:47:38Z</time>
      </trkpt>
      <trkpt lat="41.89431" lon="-8.77304">
        <ele>45.441</ele>
        <time>2018-07-28T10:47:39Z</time>
      </trkpt>
      <trkpt lat="41.89457" lon="-8.77315">
        <ele>44.133</ele>
        <time>2018-07-28T10:47:40Z</time>
      </trkpt>
      <trkpt lat="41.89482" lon="-8.77325">
        <ele>42.678</ele>
        <time>2018-07-28T10:47:41Z</time>
      </trkpt>
      <trkpt lat="41.89505" lon="-8.77332">
        <ele>40.813</ele>
        <time>2018-07-28T10:47:42Z</time>
      </trkpt>
      <trkpt lat="41.89525" lon="-8.77346">
        <ele>39.271</ele>
        <time>2018-07-28T10:47:43Z</time>
      </trkpt>
      <trkpt lat="41.89547" lon="-8.77353">
        <ele>38.087</ele>
        <time>2018-07-28T10:47:44Z</time>
      </trkpt>
      <trkpt lat="41.89569" lon="-8.77366">
        <ele>37.298</ele>
        <time>2018-07-28T10:47:45Z</time>
      </trkpt>
      <trkpt lat="41.89592" lon="-8.77383">
        <ele>37.215</ele>
        <time>2018-07-28T10:47:46Z</time>
      </trkpt>
      <trkpt lat="41.89612" lon="-8.77403">
        <ele>37.526</ele>
        <time>2018-07-28T10:47:47Z</time>
      </trkpt>
      <trkpt lat="41.89632" lon="-8.77427">
        <ele>38.608</ele>
        <time>2018-07-28T10:47:48Z</time>
      </trkpt>
      <trkpt lat="41.89651" lon="-8.77451">
        <ele>39.621</ele>
        <time>2018-07-28T10:47:49Z</time>
      </trkpt>
      <trkpt lat="41.8967" lon="-8.7748">
        <ele>41.266</ele>
        <time>2018-07-28T10:47:50Z</time>
      </trkpt>
      <trkpt lat="41.89686" lon="-8.77509">
        <ele>42.539</ele>
        <time>2018-07-28T10:47:51Z</time>
      </trkpt>
      <trkpt lat="41.89699" lon="-8.77538">
        <ele>46.991</ele>
        <time>2018-07-28T10:47:52Z</time>
      </trkpt>
      <trkpt lat="41.89709" lon="-8.7757">
        <ele>49.236</ele>
        <time>2018-07-28T10:47:53Z</time>
      </trkpt>
      <trkpt lat="41.89718" lon="-8.77604">
        <ele>51.491</ele>
        <time>2018-07-28T10:47:54Z</time>
      </trkpt>
      <trkpt lat="41.89725" lon="-8.77639">
        <ele>53.849</ele>
        <time>2018-07-28T10:47:55Z</time>
      </trkpt>
      <trkpt lat="41.89731" lon="-8.77676">
        <ele>55.765</ele>
        <time>2018-07-28T10:47:56Z</time>
      </trkpt>
      <trkpt lat="41.89732" lon="-8.77713">
        <ele>57.266</ele>
        <time>2018-07-28T10:47:57Z</time>
      </trkpt>
      <trkpt lat="41.89732" lon="-8.77751">
        <ele>59.129</ele>
        <time>2018-07-28T10:47:58Z</time>
      </trkpt>
      <trkpt lat="41.89729" lon="-8.77789">
        <ele>60.921</ele>
        <time>2018-07-28T10:47:59Z</time>
      </trkpt>
      <trkpt lat="41.89722" lon="-8.77826">
        <ele>63.708</ele>
        <time>2018-07-28T10:48:00Z</time>
      </trkpt>
      <trkpt lat="41.89713" lon="-8.77864">
        <ele>65.678</ele>
        <time>2018-07-28T10:48:01Z</time>
      </trkpt>
      <trkpt lat="41.89702" lon="-8.77902">
        <ele>67.993</ele>
        <time>2018-07-28T10:48:02Z</time>
      </trkpt>
      <trkpt lat="41.89689" lon="-8.7794">
        <ele>70.036</ele>
        <time>2018-07-28T10:48:03Z</time>
      </trkpt>
      <trkpt lat="41.89676" lon="-8.77977">
        <ele>71.988</ele>
        <time>2018-07-28T10:48:04Z</time>
      </trkpt>
      <trkpt lat="41.89662" lon="-8.78013">
        <ele>73.653</ele>
        <time>2018-07-28T10:48:05Z</time>
      </trkpt>
      <trkpt lat="41.8965" lon="-8.78047">
        <ele>75.238</ele>
        <time>2018-07-28T10:48:06Z</time>
      </trkpt>
      <trkpt lat="41.89637" lon="-8.78081">
        <ele>77.616</ele>
        <time>2018-07-28T10:48:07Z</time>
      </trkpt>
      <trkpt lat="41.89627" lon="-8.78116">
        <ele>78.722</ele>
        <time>2018-07-28T10:48:08Z</time>
      </trkpt>
      <trkpt lat="41.89618" lon="-8.7815">
        <ele>79.084</ele>
        <time>2018-07-28T10:48:09Z</time>
      </trkpt>
      <trkpt lat="41.89613" lon="-8.78186">
        <ele>79.907</ele>
        <time>2018-07-28T10:48:10Z</time>
      </trkpt>
      <trkpt lat="41.89611" lon="-8.78224">
        <ele>81.217</ele>
        <time>2018-07-28T10:48:11Z</time>
      </trkpt>
      <trkpt lat="41.89612" lon="-8.7826">
        <ele>82.908</ele>
        <time>2018-07-28T10:48:12Z</time>
      </trkpt>
      <trkpt lat="41.89615" lon="-8.78296">
        <ele>84.66</ele>
        <time>2018-07-28T10:48:13Z</time>
      </trkpt>
      <trkpt lat="41.89619" lon="-8.78332">
        <ele>86.215</ele>
        <time>2018-07-28T10:48:14Z</time>
      </trkpt>
      <trkpt lat="41.89625" lon="-8.78367">
        <ele>87.468</ele>
        <time>2018-07-28T10:48:15Z</time>
      </trkpt>
      <trkpt lat="41.89634" lon="-8.78402">
        <ele>88.91</ele>
        <time>2018-07-28T10:48:16Z</time>
      </trkpt>
      <trkpt lat="41.89645" lon="-8.78436">
        <ele>90.465</ele>
        <time>2018-07-28T10:48:17Z</time>
      </trkpt>
      <trkpt lat="41.89658" lon="-8.7847">
        <ele>92.26</ele>
        <time>2018-07-28T10:48:18Z</time>
      </trkpt>
      <trkpt lat="41.89673" lon="-8.785">
        <ele>94.118</ele>
        <time>2018-07-28T10:48:19Z</time>
      </trkpt>
      <trkpt lat="41.89688" lon="-8.78529">
        <ele>97.914</ele>
        <time>2018-07-28T10:48:20Z</time>
      </trkpt>
      <trkpt lat="41.89706" lon="-8.78554">
        <ele>99.475</ele>
        <time>2018-07-28T10:48:21Z</time>
      </trkpt>
      <trkpt lat="41.89726" lon="-8.78579">
        <ele>100.928</ele>
        <time>2018-07-28T10:48:22Z</time>
      </trkpt>
      <trkpt lat="41.89748" lon="-8.78601">
        <ele>102.42</ele>
        <time>2018-07-28T10:48:23Z</time>
      </trkpt>
      <trkpt lat="41.89772" lon="-8.7862">
        <ele>104.108</ele>
        <time>2018-07-28T10:48:24Z</time>
      </trkpt>
      <trkpt lat="41.89797" lon="-8.78637">
        <ele>105.749</ele>
        <time>2018-07-28T10:48:25Z</time>
      </trkpt>
      <trkpt lat="41.89821" lon="-8.78653">
        <ele>107.654</ele>
        <time>2018-07-28T10:48:26Z</time>
      </trkpt>
      <trkpt lat="41.89847" lon="-8.78666">
        <ele>109.327</ele>
        <time>2018-07-28T10:48:27Z</time>
      </trkpt>
      <trkpt lat="41.89875" lon="-8.78674">
        <ele>111.029</ele>
        <time>2018-07-28T10:48:28Z</time>
      </trkpt>
      <trkpt lat="41.89904" lon="-8.78682">
        <ele>112.694</ele>
        <time>2018-07-28T10:48:29Z</time>
      </trkpt>
      <trkpt lat="41.89934" lon="-8.78688">
        <ele>114.669</ele>
        <time>2018-07-28T10:48:30Z</time>
      </trkpt>
      <trkpt lat="41.89964" lon="-8.7869">
        <ele>117.087</ele>
        <time>2018-07-28T10:48:31Z</time>
      </trkpt>
      <trkpt lat="41.89993" lon="-8.78693">
        <ele>118.883</ele>
        <time>2018-07-28T10:48:32Z</time>
      </trkpt>
      <trkpt lat="41.90022" lon="-8.78696">
        <ele>119.712</ele>
        <time>2018-07-28T10:48:33Z</time>
      </trkpt>
      <trkpt lat="41.9005" lon="-8.78698">
        <ele>120.332</ele>
        <time>2018-07-28T10:48:34Z</time>
      </trkpt>
      <trkpt lat="41.90077" lon="-8.78699">
        <ele>119.505</ele>
        <time>2018-07-28T10:48:35Z</time>
      </trkpt>
      <trkpt lat="41.90103" lon="-8.78696">
        <ele>118.308</ele>
        <time>2018-07-28T10:48:36Z</time>
      </trkpt>
      <trkpt lat="41.90128" lon="-8.78692">
        <ele>117.723</ele>
        <time>2018-07-28T10:48:37Z</time>
      </trkpt>
      <trkpt lat="41.9015" lon="-8.78689">
        <ele>116.868</ele>
        <time>2018-07-28T10:48:38Z</time>
      </trkpt>
      <trkpt lat="41.90172" lon="-8.78688">
        <ele>115.791</ele>
        <time>2018-07-28T10:48:39Z</time>
      </trkpt>
      <trkpt lat="41.90196" lon="-8.78683">
        <ele>114.633</ele>
        <time>2018-07-28T10:48:40Z</time>
      </trkpt>
      <trkpt lat="41.90218" lon="-8.78681">
        <ele>113.998</ele>
        <time>2018-07-28T10:48:41Z</time>
      </trkpt>
      <trkpt lat="41.90241" lon="-8.78677">
        <ele>113.213</ele>
        <time>2018-07-28T10:48:42Z</time>
      </trkpt>
      <trkpt lat="41.90264" lon="-8.78672">
        <ele>112.621</ele>
        <time>2018-07-28T10:48:43Z</time>
      </trkpt>
      <trkpt lat="41.90287" lon="-8.78668">
        <ele>112.347</ele>
        <time>2018-07-28T10:48:44Z</time>
      </trkpt>
      <trkpt lat="41.90308" lon="-8.78662">
        <ele>111.752</ele>
        <time>2018-07-28T10:48:45Z</time>
      </trkpt>
      <trkpt lat="41.90328" lon="-8.78657">
        <ele>111.153</ele>
        <time>2018-07-28T10:48:46Z</time>
      </trkpt>
      <trkpt lat="41.90349" lon="-8.78648">
        <ele>110.308</ele>
        <time>2018-07-28T10:48:47Z</time>
      </trkpt>
      <trkpt lat="41.90368" lon="-8.78641">
        <ele>109.508</ele>
        <time>2018-07-28T10:48:48Z</time>
      </trkpt>
      <trkpt lat="41.90386" lon="-8.78635">
        <ele>107.797</ele>
        <time>2018-07-28T10:48:49Z</time>
      </trkpt>
      <trkpt lat="41.90405" lon="-8.78629">
        <ele>107.082</ele>
        <time>2018-07-28T10:48:50Z</time>
      </trkpt>
      <trkpt lat="41.90424" lon="-8.78623">
        <ele>106.375</ele>
        <time>2018-07-28T10:48:51Z</time>
      </trkpt>
      <trkpt lat="41.90444" lon="-8.78615">
        <ele>105.537</ele>
        <time>2018-07-28T10:48:52Z</time>
      </trkpt>
      <trkpt lat="41.90464" lon="-8.78606">
        <ele>104.872</ele>
        <time>2018-07-28T10:48:53Z</time>
      </trkpt>
      <trkpt lat="41.90482" lon="-8.78599">
        <ele>103.917</ele>
        <time>2018-07-28T10:48:54Z</time>
      </trkpt>
      <trkpt lat="41.90501" lon="-8.78593">
        <ele>103.065</ele>
        <time>2018-07-28T10:48:55Z</time>
      </trkpt>
      <trkpt lat="41.9052" lon="-8.78586">
        <ele>102.311</ele>
        <time>2018-07-28T10:48:56Z</time>
      </trkpt>
      <trkpt lat="41.90537" lon="-8.78578">
        <ele>101.671</ele>
        <time>2018-07-28T10:48:57Z</time>
      </trkpt>
      <trkpt lat="41.90554" lon="-8.7857">
        <ele>101.141</ele>
        <time>2018-07-28T10:48:58Z</time>
      </trkpt>
      <trkpt lat="41.90969" lon="-8.78387">
        <ele>84.115</ele>
        <time>2018-07-28T10:49:23Z</time>
      </trkpt>
      <trkpt lat="41.90993" lon="-8.78381">
        <ele>83.108</ele>
        <time>2018-07-28T10:49:24Z</time>
      </trkpt>
      <trkpt lat="41.91017" lon="-8.78376">
        <ele>81.889</ele>
        <time>2018-07-28T10:49:25Z</time>
      </trkpt>
      <trkpt lat="41.91042" lon="-8.78369">
        <ele>80.524</ele>
        <time>2018-07-28T10:49:26Z</time>
      </trkpt>
      <trkpt lat="41.91064" lon="-8.78365">
        <ele>78.997</ele>
        <time>2018-07-28T10:49:27Z</time>
      </trkpt>
      <trkpt lat="41.91084" lon="-8.7836">
        <ele>77.529</ele>
        <time>2018-07-28T10:49:28Z</time>
      </trkpt>
      <trkpt lat="41.91103" lon="-8.78356">
        <ele>75.994</ele>
        <time>2018-07-28T10:49:29Z</time>
      </trkpt>
      <trkpt lat="41.91123" lon="-8.78352">
        <ele>74.789</ele>
        <time>2018-07-28T10:49:30Z</time>
      </trkpt>
      <trkpt lat="41.91143" lon="-8.78347">
        <ele>72.827</ele>
        <time>2018-07-28T10:49:31Z</time>
      </trkpt>
      <trkpt lat="41.91164" lon="-8.7834">
        <ele>71.633</ele>
        <time>2018-07-28T10:49:32Z</time>
      </trkpt>
      <trkpt lat="41.91183" lon="-8.78331">
        <ele>70.668</ele>
        <time>2018-07-28T10:49:33Z</time>
      </trkpt>
      <trkpt lat="41.912" lon="-8.78323">
        <ele>69.242</ele>
        <time>2018-07-28T10:49:34Z</time>
      </trkpt>
      <trkpt lat="41.91218" lon="-8.78314">
        <ele>67.626</ele>
        <time>2018-07-28T10:49:35Z</time>
      </trkpt>
      <trkpt lat="41.91237" lon="-8.78301">
        <ele>66.208</ele>
        <time>2018-07-28T10:49:36Z</time>
      </trkpt>
      <trkpt lat="41.91255" lon="-8.78286">
        <ele>65.058</ele>
        <time>2018-07-28T10:49:37Z</time>
      </trkpt>
      <trkpt lat="41.91272" lon="-8.78272">
        <ele>64.153</ele>
        <time>2018-07-28T10:49:38Z</time>
      </trkpt>
      <trkpt lat="41.91288" lon="-8.78252">
        <ele>63.196</ele>
        <time>2018-07-28T10:49:39Z</time>
      </trkpt>
      <trkpt lat="41.91304" lon="-8.78234">
        <ele>62.148</ele>
        <time>2018-07-28T10:49:40Z</time>
      </trkpt>
      <trkpt lat="41.91319" lon="-8.78214">
        <ele>60.853</ele>
        <time>2018-07-28T10:49:41Z</time>
      </trkpt>
      <trkpt lat="41.91332" lon="-8.78194">
        <ele>59.598</ele>
        <time>2018-07-28T10:49:42Z</time>
      </trkpt>
      <trkpt lat="41.91344" lon="-8.78172">
        <ele>58.176</ele>
        <time>2018-07-28T10:49:43Z</time>
      </trkpt>
      <trkpt lat="41.91355" lon="-8.78149">
        <ele>56.782</ele>
        <time>2018-07-28T10:49:44Z</time>
      </trkpt>
      <trkpt lat="41.91366" lon="-8.78125">
        <ele>55.476</ele>
        <time>2018-07-28T10:49:45Z</time>
      </trkpt>
      <trkpt lat="41.91377" lon="-8.78101">
        <ele>52.89</ele>
        <time>2018-07-28T10:49:46Z</time>
      </trkpt>
      <trkpt lat="41.91384" lon="-8.78077">
        <ele>51.619</ele>
        <time>2018-07-28T10:49:47Z</time>
      </trkpt>
      <trkpt lat="41.91393" lon="-8.78053">
        <ele>50.408</ele>
        <time>2018-07-28T10:49:48Z</time>
      </trkpt>
      <trkpt lat="41.91399" lon="-8.78028">
        <ele>48.939</ele>
        <time>2018-07-28T10:49:49Z</time>
      </trkpt>
      <trkpt lat="41.91406" lon="-8.78003">
        <ele>47.574</ele>
        <time>2018-07-28T10:49:50Z</time>
      </trkpt>
      <trkpt lat="41.91412" lon="-8.77978">
        <ele>46.137</ele>
        <time>2018-07-28T10:49:51Z</time>
      </trkpt>
      <trkpt lat="41.91419" lon="-8.77954">
        <ele>44.539</ele>
        <time>2018-07-28T10:49:52Z</time>
      </trkpt>
      <trkpt lat="41.91428" lon="-8.77928">
        <ele>42.864</ele>
        <time>2018-07-28T10:49:53Z</time>
      </trkpt>
      <trkpt lat="41.91436" lon="-8.77908">
        <ele>41.479</ele>
        <time>2018-07-28T10:49:54Z</time>
      </trkpt>
      <trkpt lat="41.91444" lon="-8.77883">
        <ele>40.197</ele>
        <time>2018-07-28T10:49:55Z</time>
      </trkpt>
      <trkpt lat="41.91453" lon="-8.77863">
        <ele>38.723</ele>
        <time>2018-07-28T10:49:56Z</time>
      </trkpt>
      <trkpt lat="41.91462" lon="-8.77845">
        <ele>37.556</ele>
        <time>2018-07-28T10:49:57Z</time>
      </trkpt>
      <trkpt lat="41.91473" lon="-8.77826">
        <ele>36.359</ele>
        <time>2018-07-28T10:49:58Z</time>
      </trkpt>
      <trkpt lat="41.91486" lon="-8.77813">
        <ele>35.014</ele>
        <time>2018-07-28T10:49:59Z</time>
      </trkpt>
      <trkpt lat="41.91501" lon="-8.77805">
        <ele>32.708</ele>
        <time>2018-07-28T10:50:00Z</time>
      </trkpt>
      <trkpt lat="41.91516" lon="-8.77798">
        <ele>31.817</ele>
        <time>2018-07-28T10:50:01Z</time>
      </trkpt>
      <trkpt lat="41.91534" lon="-8.77791">
        <ele>31.132</ele>
        <time>2018-07-28T10:50:02Z</time>
      </trkpt>
      <trkpt lat="41.9155" lon="-8.77785">
        <ele>30.555</ele>
        <time>2018-07-28T10:50:03Z</time>
      </trkpt>
      <trkpt lat="41.91567" lon="-8.77786">
        <ele>30.067</ele>
        <time>2018-07-28T10:50:04Z</time>
      </trkpt>
      <trkpt lat="41.91584" lon="-8.77785">
        <ele>29.292</ele>
        <time>2018-07-28T10:50:05Z</time>
      </trkpt>
      <trkpt lat="41.91598" lon="-8.77788">
        <ele>28.557</ele>
        <time>2018-07-28T10:50:06Z</time>
      </trkpt>
      <trkpt lat="41.91612" lon="-8.77789">
        <ele>27.715</ele>
        <time>2018-07-28T10:50:07Z</time>
      </trkpt>
      <trkpt lat="41.91625" lon="-8.77792">
        <ele>27.061</ele>
        <time>2018-07-28T10:50:08Z</time>
      </trkpt>
      <trkpt lat="41.91639" lon="-8.77794">
        <ele>26.213</ele>
        <time>2018-07-28T10:50:09Z</time>
      </trkpt>
      <trkpt lat="41.91652" lon="-8.77793">
        <ele>25.743</ele>
        <time>2018-07-28T10:50:10Z</time>
      </trkpt>
      <trkpt lat="41.91664" lon="-8.7779">
        <ele>24.307</ele>
        <time>2018-07-28T10:50:11Z</time>
      </trkpt>
      <trkpt lat="41.91675" lon="-8.7778">
        <ele>24.308</ele>
        <time>2018-07-28T10:50:12Z</time>
      </trkpt>
      <trkpt lat="41.91684" lon="-8.77768">
        <ele>22.953</ele>
        <time>2018-07-28T10:50:13Z</time>
      </trkpt>
      <trkpt lat="41.91692" lon="-8.77756">
        <ele>22.318</ele>
        <time>2018-07-28T10:50:14Z</time>
      </trkpt>
      <trkpt lat="41.91699" lon="-8.77745">
        <ele>21.871</ele>
        <time>2018-07-28T10:50:15Z</time>
      </trkpt>
      <trkpt lat="41.91703" lon="-8.7773">
        <ele>21.483</ele>
        <time>2018-07-28T10:50:16Z</time>
      </trkpt>
      <trkpt lat="41.91707" lon="-8.77716">
        <ele>21.168</ele>
        <time>2018-07-28T10:50:17Z</time>
      </trkpt>
      <trkpt lat="41.91713" lon="-8.77704">
        <ele>20.843</ele>
        <time>2018-07-28T10:50:18Z</time>
      </trkpt>
      <trkpt lat="41.91717" lon="-8.77689">
        <ele>20.761</ele>
        <time>2018-07-28T10:50:19Z</time>
      </trkpt>
      <trkpt lat="41.91724" lon="-8.77676">
        <ele>20.717</ele>
        <time>2018-07-28T10:50:20Z</time>
      </trkpt>
      <trkpt lat="41.91731" lon="-8.77661">
        <ele>20.859</ele>
        <time>2018-07-28T10:50:21Z</time>
      </trkpt>
      <trkpt lat="41.91739" lon="-8.77643">
        <ele>20.903</ele>
        <time>2018-07-28T10:50:22Z</time>
      </trkpt>
      <trkpt lat="41.91748" lon="-8.77624">
        <ele>21.223</ele>
        <time>2018-07-28T10:50:23Z</time>
      </trkpt>
      <trkpt lat="41.91757" lon="-8.77605">
        <ele>21.708</ele>
        <time>2018-07-28T10:50:24Z</time>
      </trkpt>
      <trkpt lat="41.91763" lon="-8.77585">
        <ele>22.177</ele>
        <time>2018-07-28T10:50:25Z</time>
      </trkpt>
      <trkpt lat="41.91773" lon="-8.77569">
        <ele>22.322</ele>
        <time>2018-07-28T10:50:26Z</time>
      </trkpt>
      <trkpt lat="41.91782" lon="-8.77552">
        <ele>22.615</ele>
        <time>2018-07-28T10:50:27Z</time>
      </trkpt>
      <trkpt lat="41.91791" lon="-8.77534">
        <ele>23.037</ele>
        <time>2018-07-28T10:50:28Z</time>
      </trkpt>
      <trkpt lat="41.91798" lon="-8.77515">
        <ele>23.582</ele>
        <time>2018-07-28T10:50:29Z</time>
      </trkpt>
      <trkpt lat="41.91806" lon="-8.77495">
        <ele>24.347</ele>
        <time>2018-07-28T10:50:30Z</time>
      </trkpt>
      <trkpt lat="41.91815" lon="-8.77472">
        <ele>25.425</ele>
        <time>2018-07-28T10:50:31Z</time>
      </trkpt>
      <trkpt lat="41.91825" lon="-8.77448">
        <ele>26.871</ele>
        <time>2018-07-28T10:50:32Z</time>
      </trkpt>
      <trkpt lat="41.91836" lon="-8.77422">
        <ele>28.135</ele>
        <time>2018-07-28T10:50:33Z</time>
      </trkpt>
      <trkpt lat="41.91847" lon="-8.77397">
        <ele>29.386</ele>
        <time>2018-07-28T10:50:34Z</time>
      </trkpt>
      <trkpt lat="41.91853" lon="-8.77373">
        <ele>30.114</ele>
        <time>2018-07-28T10:50:35Z</time>
      </trkpt>
      <trkpt lat="41.91859" lon="-8.77346">
        <ele>30.808</ele>
        <time>2018-07-28T10:50:36Z</time>
      </trkpt>
      <trkpt lat="41.91865" lon="-8.77319">
        <ele>31.145</ele>
        <time>2018-07-28T10:50:37Z</time>
      </trkpt>
      <trkpt lat="41.91871" lon="-8.77294">
        <ele>31.11</ele>
        <time>2018-07-28T10:50:38Z</time>
      </trkpt>
      <trkpt lat="41.91875" lon="-8.77268">
        <ele>31.163</ele>
        <time>2018-07-28T10:50:39Z</time>
      </trkpt>
      <trkpt lat="41.91879" lon="-8.77242">
        <ele>31.065</ele>
        <time>2018-07-28T10:50:40Z</time>
      </trkpt>
      <trkpt lat="41.91884" lon="-8.77213">
        <ele>31.04</ele>
        <time>2018-07-28T10:50:41Z</time>
      </trkpt>
      <trkpt lat="41.91884" lon="-8.77188">
        <ele>30.695</ele>
        <time>2018-07-28T10:50:42Z</time>
      </trkpt>
      <trkpt lat="41.91886" lon="-8.77162">
        <ele>30.093</ele>
        <time>2018-07-28T10:50:43Z</time>
      </trkpt>
      <trkpt lat="41.91888" lon="-8.77135">
        <ele>29.129</ele>
        <time>2018-07-28T10:50:44Z</time>
      </trkpt>
      <trkpt lat="41.9189" lon="-8.77109">
        <ele>28.288</ele>
        <time>2018-07-28T10:50:45Z</time>
      </trkpt>
      <trkpt lat="41.91893" lon="-8.77083">
        <ele>27.324</ele>
        <time>2018-07-28T10:50:46Z</time>
      </trkpt>
      <trkpt lat="41.91894" lon="-8.77057">
        <ele>26.526</ele>
        <time>2018-07-28T10:50:47Z</time>
      </trkpt>
      <trkpt lat="41.91895" lon="-8.77029">
        <ele>26.208</ele>
        <time>2018-07-28T10:50:48Z</time>
      </trkpt>
      <trkpt lat="41.91894" lon="-8.77002">
        <ele>25.73</ele>
        <time>2018-07-28T10:50:49Z</time>
      </trkpt>
      <trkpt lat="41.91897" lon="-8.76979">
        <ele>25.165</ele>
        <time>2018-07-28T10:50:50Z</time>
      </trkpt>
      <trkpt lat="41.91898" lon="-8.76952">
        <ele>24.688</ele>
        <time>2018-07-28T10:50:51Z</time>
      </trkpt>
      <trkpt lat="41.91903" lon="-8.76923">
        <ele>24.13</ele>
        <time>2018-07-28T10:50:52Z</time>
      </trkpt>
      <trkpt lat="41.919" lon="-8.76897">
        <ele>23.655</ele>
        <time>2018-07-28T10:50:53Z</time>
      </trkpt>
      <trkpt lat="41.91899" lon="-8.7687">
        <ele>23.22</ele>
        <time>2018-07-28T10:50:54Z</time>
      </trkpt>
      <trkpt lat="41.91901" lon="-8.76844">
        <ele>23.138</ele>
        <time>2018-07-28T10:50:55Z</time>
      </trkpt>
      <trkpt lat="41.91901" lon="-8.76816">
        <ele>22.324</ele>
        <time>2018-07-28T10:50:56Z</time>
      </trkpt>
      <trkpt lat="41.91903" lon="-8.76793">
        <ele>21.495</ele>
        <time>2018-07-28T10:50:57Z</time>
      </trkpt>
      <trkpt lat="41.91904" lon="-8.7677">
        <ele>20.649</ele>
        <time>2018-07-28T10:50:58Z</time>
      </trkpt>
      <trkpt lat="41.91904" lon="-8.76747">
        <ele>19.923</ele>
        <time>2018-07-28T10:50:59Z</time>
      </trkpt>
      <trkpt lat="41.91908" lon="-8.7672">
        <ele>19.408</ele>
        <time>2018-07-28T10:51:00Z</time>
      </trkpt>
      <trkpt lat="41.91904" lon="-8.76692">
        <ele>19.411</ele>
        <time>2018-07-28T10:51:01Z</time>
      </trkpt>
      <trkpt lat="41.91906" lon="-8.7666">
        <ele>20.236</ele>
        <time>2018-07-28T10:51:02Z</time>
      </trkpt>
      <trkpt lat="41.91909" lon="-8.76627">
        <ele>21.299</ele>
        <time>2018-07-28T10:51:03Z</time>
      </trkpt>
      <trkpt lat="41.91909" lon="-8.76594">
        <ele>22.331</ele>
        <time>2018-07-28T10:51:04Z</time>
      </trkpt>
      <trkpt lat="41.91914" lon="-8.76562">
        <ele>23.596</ele>
        <time>2018-07-28T10:51:05Z</time>
      </trkpt>
      <trkpt lat="41.91913" lon="-8.76533">
        <ele>23.811</ele>
        <time>2018-07-28T10:51:06Z</time>
      </trkpt>
      <trkpt lat="41.9192" lon="-8.76506">
        <ele>23.829</ele>
        <time>2018-07-28T10:51:07Z</time>
      </trkpt>
      <trkpt lat="41.91922" lon="-8.76482">
        <ele>23.135</ele>
        <time>2018-07-28T10:51:08Z</time>
      </trkpt>
      <trkpt lat="41.91926" lon="-8.7646">
        <ele>22.125</ele>
        <time>2018-07-28T10:51:09Z</time>
      </trkpt>
      <trkpt lat="41.91933" lon="-8.7644">
        <ele>20.726</ele>
        <time>2018-07-28T10:51:10Z</time>
      </trkpt>
      <trkpt lat="41.91939" lon="-8.76424">
        <ele>18.008</ele>
        <time>2018-07-28T10:51:11Z</time>
      </trkpt>
      <trkpt lat="41.91939" lon="-8.76413">
        <ele>16.608</ele>
        <time>2018-07-28T10:51:12Z</time>
      </trkpt>
      <trkpt lat="41.91941" lon="-8.76401">
        <ele>15.154</ele>
        <time>2018-07-28T10:51:13Z</time>
      </trkpt>
      <trkpt lat="41.91941" lon="-8.76393">
        <ele>13.799</ele>
        <time>2018-07-28T10:51:14Z</time>
      </trkpt>
      <trkpt lat="41.91941" lon="-8.76387">
        <ele>11.862</ele>
        <time>2018-07-28T10:51:16Z</time>
      </trkpt>
      <trkpt lat="41.91941" lon="-8.7638">
        <ele>10.664</ele>
        <time>2018-07-28T10:51:19Z</time>
      </trkpt>
      <trkpt lat="41.91937" lon="-8.76385">
        <ele>10.379</ele>
        <time>2018-07-28T10:51:29Z</time>
      </trkpt>
      <trkpt lat="41.9194" lon="-8.7639">
        <ele>10.324</ele>
        <time>2018-07-28T10:51:34Z</time>
      </trkpt>
      <trkpt lat="41.91943" lon="-8.76377">
        <ele>10.212</ele>
        <time>2018-07-28T10:52:15Z</time>
      </trkpt>
      <trkpt lat="41.91943" lon="-8.76369">
        <ele>10.078</ele>
        <time>2018-07-28T10:55:43Z</time>
      </trkpt>
      <trkpt lat="41.91946" lon="-8.76362">
        <ele>10.282</ele>
        <time>2018-07-28T10:55:44Z</time>
      </trkpt>
      <trkpt lat="41.9195" lon="-8.76355">
        <ele>10.443</ele>
        <time>2018-07-28T10:55:45Z</time>
      </trkpt>
      <trkpt lat="41.91953" lon="-8.76347">
        <ele>10.717</ele>
        <time>2018-07-28T10:55:46Z</time>
      </trkpt>
      <trkpt lat="41.91956" lon="-8.76338">
        <ele>11.008</ele>
        <time>2018-07-28T10:55:47Z</time>
      </trkpt>
      <trkpt lat="41.9196" lon="-8.76327">
        <ele>11.25</ele>
        <time>2018-07-28T10:55:48Z</time>
      </trkpt>
      <trkpt lat="41.91964" lon="-8.76314">
        <ele>11.635</ele>
        <time>2018-07-28T10:55:49Z</time>
      </trkpt>
      <trkpt lat="41.91968" lon="-8.76298">
        <ele>12.628</ele>
        <time>2018-07-28T10:55:50Z</time>
      </trkpt>
      <trkpt lat="41.91974" lon="-8.76281">
        <ele>13.09</ele>
        <time>2018-07-28T10:55:51Z</time>
      </trkpt>
      <trkpt lat="41.9198" lon="-8.76263">
        <ele>13.545</ele>
        <time>2018-07-28T10:55:52Z</time>
      </trkpt>
      <trkpt lat="41.91987" lon="-8.76245">
        <ele>13.81</ele>
        <time>2018-07-28T10:55:53Z</time>
      </trkpt>
      <trkpt lat="41.91994" lon="-8.76227">
        <ele>14.138</ele>
        <time>2018-07-28T10:55:54Z</time>
      </trkpt>
      <trkpt lat="41.92" lon="-8.76209">
        <ele>14.344</ele>
        <time>2018-07-28T10:55:55Z</time>
      </trkpt>
      <trkpt lat="41.92006" lon="-8.76193">
        <ele>14.366</ele>
        <time>2018-07-28T10:55:56Z</time>
      </trkpt>
      <trkpt lat="41.92012" lon="-8.76177">
        <ele>14.429</ele>
        <time>2018-07-28T10:55:57Z</time>
      </trkpt>
      <trkpt lat="41.92018" lon="-8.76162">
        <ele>14.421</ele>
        <time>2018-07-28T10:55:58Z</time>
      </trkpt>
      <trkpt lat="41.92024" lon="-8.76146">
        <ele>14.408</ele>
        <time>2018-07-28T10:55:59Z</time>
      </trkpt>
      <trkpt lat="41.92031" lon="-8.76129">
        <ele>14.418</ele>
        <time>2018-07-28T10:56:00Z</time>
      </trkpt>
      <trkpt lat="41.92037" lon="-8.76112">
        <ele>14.693</ele>
        <time>2018-07-28T10:56:01Z</time>
      </trkpt>
      <trkpt lat="41.92043" lon="-8.76094">
        <ele>14.776</ele>
        <time>2018-07-28T10:56:02Z</time>
      </trkpt>
      <trkpt lat="41.92049" lon="-8.76077">
        <ele>14.998</ele>
        <time>2018-07-28T10:56:03Z</time>
      </trkpt>
      <trkpt lat="41.92056" lon="-8.76058">
        <ele>15.163</ele>
        <time>2018-07-28T10:56:04Z</time>
      </trkpt>
      <trkpt lat="41.92063" lon="-8.76039">
        <ele>15.678</ele>
        <time>2018-07-28T10:56:05Z</time>
      </trkpt>
      <trkpt lat="41.9207" lon="-8.76019">
        <ele>15.956</ele>
        <time>2018-07-28T10:56:06Z</time>
      </trkpt>
      <trkpt lat="41.92078" lon="-8.75998">
        <ele>16.372</ele>
        <time>2018-07-28T10:56:07Z</time>
      </trkpt>
      <trkpt lat="41.92087" lon="-8.75979">
        <ele>17.079</ele>
        <time>2018-07-28T10:56:08Z</time>
      </trkpt>
      <trkpt lat="41.92095" lon="-8.75959">
        <ele>17.505</ele>
        <time>2018-07-28T10:56:09Z</time>
      </trkpt>
      <trkpt lat="41.92103" lon="-8.75938">
        <ele>18.025</ele>
        <time>2018-07-28T10:56:10Z</time>
      </trkpt>
      <trkpt lat="41.92111" lon="-8.75916">
        <ele>18.408</ele>
        <time>2018-07-28T10:56:11Z</time>
      </trkpt>
      <trkpt lat="41.92119" lon="-8.75895">
        <ele>18.839</ele>
        <time>2018-07-28T10:56:12Z</time>
      </trkpt>
      <trkpt lat="41.92126" lon="-8.75876">
        <ele>18.874</ele>
        <time>2018-07-28T10:56:13Z</time>
      </trkpt>
      <trkpt lat="41.92136" lon="-8.75855">
        <ele>18.967</ele>
        <time>2018-07-28T10:56:14Z</time>
      </trkpt>
      <trkpt lat="41.92145" lon="-8.75834">
        <ele>19.049</ele>
        <time>2018-07-28T10:56:15Z</time>
      </trkpt>
      <trkpt lat="41.92154" lon="-8.75813">
        <ele>19.314</ele>
        <time>2018-07-28T10:56:16Z</time>
      </trkpt>
      <trkpt lat="41.92164" lon="-8.75793">
        <ele>19.689</ele>
        <time>2018-07-28T10:56:17Z</time>
      </trkpt>
      <trkpt lat="41.92175" lon="-8.75773">
        <ele>20.017</ele>
        <time>2018-07-28T10:56:18Z</time>
      </trkpt>
      <trkpt lat="41.92185" lon="-8.75753">
        <ele>20.663</ele>
        <time>2018-07-28T10:56:19Z</time>
      </trkpt>
      <trkpt lat="41.92196" lon="-8.75732">
        <ele>21.048</ele>
        <time>2018-07-28T10:56:20Z</time>
      </trkpt>
      <trkpt lat="41.9221" lon="-8.75714">
        <ele>21.461</ele>
        <time>2018-07-28T10:56:21Z</time>
      </trkpt>
      <trkpt lat="41.92223" lon="-8.75694">
        <ele>21.417</ele>
        <time>2018-07-28T10:56:22Z</time>
      </trkpt>
      <trkpt lat="41.92236" lon="-8.75676">
        <ele>21.408</ele>
        <time>2018-07-28T10:56:23Z</time>
      </trkpt>
      <trkpt lat="41.9225" lon="-8.75656">
        <ele>21.416</ele>
        <time>2018-07-28T10:56:24Z</time>
      </trkpt>
      <trkpt lat="41.92265" lon="-8.75637">
        <ele>21.541</ele>
        <time>2018-07-28T10:56:25Z</time>
      </trkpt>
      <trkpt lat="41.9228" lon="-8.75618">
        <ele>21.734</ele>
        <time>2018-07-28T10:56:26Z</time>
      </trkpt>
      <trkpt lat="41.92294" lon="-8.75601">
        <ele>21.956</ele>
        <time>2018-07-28T10:56:27Z</time>
      </trkpt>
      <trkpt lat="41.92307" lon="-8.75585">
        <ele>21.961</ele>
        <time>2018-07-28T10:56:28Z</time>
      </trkpt>
      <trkpt lat="41.92318" lon="-8.75571">
        <ele>21.746</ele>
        <time>2018-07-28T10:56:29Z</time>
      </trkpt>
      <trkpt lat="41.92329" lon="-8.75558">
        <ele>21.044</ele>
        <time>2018-07-28T10:56:30Z</time>
      </trkpt>
      <trkpt lat="41.92338" lon="-8.75549">
        <ele>20.08</ele>
        <time>2018-07-28T10:56:31Z</time>
      </trkpt>
      <trkpt lat="41.92347" lon="-8.75539">
        <ele>19.039</ele>
        <time>2018-07-28T10:56:32Z</time>
      </trkpt>
      <trkpt lat="41.92353" lon="-8.75531">
        <ele>17.901</ele>
        <time>2018-07-28T10:56:33Z</time>
      </trkpt>
      <trkpt lat="41.9236" lon="-8.75524">
        <ele>17.121</ele>
        <time>2018-07-28T10:56:34Z</time>
      </trkpt>
      <trkpt lat="41.92367" lon="-8.7552">
        <ele>16.408</ele>
        <time>2018-07-28T10:56:35Z</time>
      </trkpt>
      <trkpt lat="41.9237" lon="-8.75513">
        <ele>15.195</ele>
        <time>2018-07-28T10:56:36Z</time>
      </trkpt>
      <trkpt lat="41.92373" lon="-8.75506">
        <ele>13.47</ele>
        <time>2018-07-28T10:56:43Z</time>
      </trkpt>
      <trkpt lat="41.92373" lon="-8.75498">
        <ele>13.573</ele>
        <time>2018-07-28T10:56:45Z</time>
      </trkpt>
      <trkpt lat="41.92375" lon="-8.75492">
        <ele>13.695</ele>
        <time>2018-07-28T10:56:46Z</time>
      </trkpt>
      <trkpt lat="41.92379" lon="-8.75485">
        <ele>13.74</ele>
        <time>2018-07-28T10:56:47Z</time>
      </trkpt>
      <trkpt lat="41.92386" lon="-8.75481">
        <ele>13.985</ele>
        <time>2018-07-28T10:56:48Z</time>
      </trkpt>
      <trkpt lat="41.92393" lon="-8.75478">
        <ele>14.133</ele>
        <time>2018-07-28T10:56:49Z</time>
      </trkpt>
      <trkpt lat="41.92402" lon="-8.75475">
        <ele>14.499</ele>
        <time>2018-07-28T10:56:50Z</time>
      </trkpt>
      <trkpt lat="41.92414" lon="-8.75472">
        <ele>15.234</ele>
        <time>2018-07-28T10:56:51Z</time>
      </trkpt>
      <trkpt lat="41.92426" lon="-8.75465">
        <ele>15.755</ele>
        <time>2018-07-28T10:56:52Z</time>
      </trkpt>
      <trkpt lat="41.92438" lon="-8.75458">
        <ele>16.21</ele>
        <time>2018-07-28T10:56:53Z</time>
      </trkpt>
      <trkpt lat="41.92448" lon="-8.75449">
        <ele>16.708</ele>
        <time>2018-07-28T10:56:54Z</time>
      </trkpt>
      <trkpt lat="41.9246" lon="-8.75441">
        <ele>17.115</ele>
        <time>2018-07-28T10:56:55Z</time>
      </trkpt>
      <trkpt lat="41.92473" lon="-8.7543">
        <ele>17.47</ele>
        <time>2018-07-28T10:56:56Z</time>
      </trkpt>
      <trkpt lat="41.92486" lon="-8.75421">
        <ele>17.743</ele>
        <time>2018-07-28T10:56:57Z</time>
      </trkpt>
      <trkpt lat="41.92499" lon="-8.7541">
        <ele>18.185</ele>
        <time>2018-07-28T10:56:58Z</time>
      </trkpt>
      <trkpt lat="41.92514" lon="-8.75401">
        <ele>18.68</ele>
        <time>2018-07-28T10:56:59Z</time>
      </trkpt>
      <trkpt lat="41.92529" lon="-8.75392">
        <ele>18.945</ele>
        <time>2018-07-28T10:57:00Z</time>
      </trkpt>
      <trkpt lat="41.92542" lon="-8.75383">
        <ele>19.463</ele>
        <time>2018-07-28T10:57:01Z</time>
      </trkpt>
      <trkpt lat="41.92559" lon="-8.75374">
        <ele>19.989</ele>
        <time>2018-07-28T10:57:02Z</time>
      </trkpt>
      <trkpt lat="41.92577" lon="-8.75364">
        <ele>20.271</ele>
        <time>2018-07-28T10:57:03Z</time>
      </trkpt>
      <trkpt lat="41.92593" lon="-8.75354">
        <ele>20.541</ele>
        <time>2018-07-28T10:57:04Z</time>
      </trkpt>
      <trkpt lat="41.9261" lon="-8.75343">
        <ele>20.815</ele>
        <time>2018-07-28T10:57:05Z</time>
      </trkpt>
      <trkpt lat="41.92627" lon="-8.75331">
        <ele>20.908</ele>
        <time>2018-07-28T10:57:06Z</time>
      </trkpt>
      <trkpt lat="41.92645" lon="-8.75321">
        <ele>21.149</ele>
        <time>2018-07-28T10:57:07Z</time>
      </trkpt>
      <trkpt lat="41.92662" lon="-8.75312">
        <ele>21.114</ele>
        <time>2018-07-28T10:57:08Z</time>
      </trkpt>
      <trkpt lat="41.9268" lon="-8.75301">
        <ele>21.117</ele>
        <time>2018-07-28T10:57:09Z</time>
      </trkpt>
      <trkpt lat="41.92696" lon="-8.75291">
        <ele>21.489</ele>
        <time>2018-07-28T10:57:10Z</time>
      </trkpt>
      <trkpt lat="41.92712" lon="-8.75282">
        <ele>21.434</ele>
        <time>2018-07-28T10:57:11Z</time>
      </trkpt>
      <trkpt lat="41.92728" lon="-8.75273">
        <ele>21.399</ele>
        <time>2018-07-28T10:57:12Z</time>
      </trkpt>
      <trkpt lat="41.92745" lon="-8.75262">
        <ele>21.137</ele>
        <time>2018-07-28T10:57:13Z</time>
      </trkpt>
      <trkpt lat="41.92758" lon="-8.75252">
        <ele>20.893</ele>
        <time>2018-07-28T10:57:14Z</time>
      </trkpt>
      <trkpt lat="41.92773" lon="-8.7524">
        <ele>20.548</ele>
        <time>2018-07-28T10:57:15Z</time>
      </trkpt>
      <trkpt lat="41.92791" lon="-8.75232">
        <ele>20.461</ele>
        <time>2018-07-28T10:57:16Z</time>
      </trkpt>
      <trkpt lat="41.92809" lon="-8.75224">
        <ele>20.417</ele>
        <time>2018-07-28T10:57:17Z</time>
      </trkpt>
      <trkpt lat="41.92827" lon="-8.75214">
        <ele>20.608</ele>
        <time>2018-07-28T10:57:18Z</time>
      </trkpt>
      <trkpt lat="41.92843" lon="-8.75204">
        <ele>20.646</ele>
        <time>2018-07-28T10:57:19Z</time>
      </trkpt>
      <trkpt lat="41.92858" lon="-8.75196">
        <ele>20.411</ele>
        <time>2018-07-28T10:57:20Z</time>
      </trkpt>
      <trkpt lat="41.92871" lon="-8.75188">
        <ele>19.274</ele>
        <time>2018-07-28T10:57:21Z</time>
      </trkpt>
      <trkpt lat="41.92882" lon="-8.75181">
        <ele>18.366</ele>
        <time>2018-07-28T10:57:22Z</time>
      </trkpt>
      <trkpt lat="41.92893" lon="-8.75173">
        <ele>17.521</ele>
        <time>2018-07-28T10:57:23Z</time>
      </trkpt>
      <trkpt lat="41.92903" lon="-8.75168">
        <ele>16.886</ele>
        <time>2018-07-28T10:57:24Z</time>
      </trkpt>
      <trkpt lat="41.92913" lon="-8.75161">
        <ele>16.364</ele>
        <time>2018-07-28T10:57:25Z</time>
      </trkpt>
      <trkpt lat="41.92922" lon="-8.75154">
        <ele>16.06</ele>
        <time>2018-07-28T10:57:26Z</time>
      </trkpt>
      <trkpt lat="41.92931" lon="-8.75148">
        <ele>15.723</ele>
        <time>2018-07-28T10:57:27Z</time>
      </trkpt>
      <trkpt lat="41.9294" lon="-8.75142">
        <ele>15.583</ele>
        <time>2018-07-28T10:57:28Z</time>
      </trkpt>
      <trkpt lat="41.9295" lon="-8.75136">
        <ele>15.211</ele>
        <time>2018-07-28T10:57:29Z</time>
      </trkpt>
      <trkpt lat="41.92959" lon="-8.7513">
        <ele>14.808</ele>
        <time>2018-07-28T10:57:30Z</time>
      </trkpt>
      <trkpt lat="41.92967" lon="-8.75126">
        <ele>14.524</ele>
        <time>2018-07-28T10:57:31Z</time>
      </trkpt>
      <trkpt lat="41.92975" lon="-8.75121">
        <ele>14.259</ele>
        <time>2018-07-28T10:57:32Z</time>
      </trkpt>
      <trkpt lat="41.92983" lon="-8.75115">
        <ele>14.192</ele>
        <time>2018-07-28T10:57:33Z</time>
      </trkpt>
      <trkpt lat="41.92993" lon="-8.75109">
        <ele>14.184</ele>
        <time>2018-07-28T10:57:34Z</time>
      </trkpt>
      <trkpt lat="41.93005" lon="-8.75102">
        <ele>14.269</ele>
        <time>2018-07-28T10:57:35Z</time>
      </trkpt>
      <trkpt lat="41.93017" lon="-8.75096">
        <ele>14.854</ele>
        <time>2018-07-28T10:57:36Z</time>
      </trkpt>
      <trkpt lat="41.93033" lon="-8.75089">
        <ele>15.122</ele>
        <time>2018-07-28T10:57:37Z</time>
      </trkpt>
      <trkpt lat="41.9305" lon="-8.75081">
        <ele>15.868</ele>
        <time>2018-07-28T10:57:38Z</time>
      </trkpt>
      <trkpt lat="41.93066" lon="-8.75069">
        <ele>16.565</ele>
        <time>2018-07-28T10:57:39Z</time>
      </trkpt>
      <trkpt lat="41.93079" lon="-8.75057">
        <ele>17.168</ele>
        <time>2018-07-28T10:57:40Z</time>
      </trkpt>
      <trkpt lat="41.93094" lon="-8.7505">
        <ele>17.714</ele>
        <time>2018-07-28T10:57:41Z</time>
      </trkpt>
      <trkpt lat="41.93109" lon="-8.75041">
        <ele>18.308</ele>
        <time>2018-07-28T10:57:42Z</time>
      </trkpt>
      <trkpt lat="41.93125" lon="-8.75033">
        <ele>18.688</ele>
        <time>2018-07-28T10:57:43Z</time>
      </trkpt>
      <trkpt lat="41.93141" lon="-8.75024">
        <ele>19.083</ele>
        <time>2018-07-28T10:57:44Z</time>
      </trkpt>
      <trkpt lat="41.93157" lon="-8.75013">
        <ele>19.286</ele>
        <time>2018-07-28T10:57:45Z</time>
      </trkpt>
      <trkpt lat="41.93173" lon="-8.75003">
        <ele>19.368</ele>
        <time>2018-07-28T10:57:46Z</time>
      </trkpt>
      <trkpt lat="41.9319" lon="-8.74993">
        <ele>19.343</ele>
        <time>2018-07-28T10:57:47Z</time>
      </trkpt>
      <trkpt lat="41.93209" lon="-8.74984">
        <ele>19.338</ele>
        <time>2018-07-28T10:57:48Z</time>
      </trkpt>
      <trkpt lat="41.93227" lon="-8.74971">
        <ele>19.386</ele>
        <time>2018-07-28T10:57:49Z</time>
      </trkpt>
      <trkpt lat="41.93246" lon="-8.74959">
        <ele>19.482</ele>
        <time>2018-07-28T10:57:50Z</time>
      </trkpt>
      <trkpt lat="41.93264" lon="-8.74947">
        <ele>20.111</ele>
        <time>2018-07-28T10:57:51Z</time>
      </trkpt>
      <trkpt lat="41.93281" lon="-8.74935">
        <ele>20.121</ele>
        <time>2018-07-28T10:57:52Z</time>
      </trkpt>
      <trkpt lat="41.93297" lon="-8.74923">
        <ele>20.103</ele>
        <time>2018-07-28T10:57:53Z</time>
      </trkpt>
      <trkpt lat="41.93314" lon="-8.74912">
        <ele>19.908</ele>
        <time>2018-07-28T10:57:54Z</time>
      </trkpt>
      <trkpt lat="41.9333" lon="-8.74901">
        <ele>19.493</ele>
        <time>2018-07-28T10:57:55Z</time>
      </trkpt>
      <trkpt lat="41.93344" lon="-8.74891">
        <ele>18.748</ele>
        <time>2018-07-28T10:57:56Z</time>
      </trkpt>
      <trkpt lat="41.93357" lon="-8.7488">
        <ele>18.031</ele>
        <time>2018-07-28T10:57:57Z</time>
      </trkpt>
      <trkpt lat="41.93371" lon="-8.7487">
        <ele>17.523</ele>
        <time>2018-07-28T10:57:58Z</time>
      </trkpt>
      <trkpt lat="41.93382" lon="-8.74861">
        <ele>17.188</ele>
        <time>2018-07-28T10:57:59Z</time>
      </trkpt>
      <trkpt lat="41.93396" lon="-8.74853">
        <ele>16.613</ele>
        <time>2018-07-28T10:58:00Z</time>
      </trkpt>
      <trkpt lat="41.93409" lon="-8.74844">
        <ele>16.221</ele>
        <time>2018-07-28T10:58:01Z</time>
      </trkpt>
      <trkpt lat="41.93422" lon="-8.74836">
        <ele>15.917</ele>
        <time>2018-07-28T10:58:02Z</time>
      </trkpt>
      <trkpt lat="41.93434" lon="-8.74823">
        <ele>15.743</ele>
        <time>2018-07-28T10:58:03Z</time>
      </trkpt>
      <trkpt lat="41.93449" lon="-8.74816">
        <ele>15.664</ele>
        <time>2018-07-28T10:58:04Z</time>
      </trkpt>
      <trkpt lat="41.93463" lon="-8.74808">
        <ele>15.61</ele>
        <time>2018-07-28T10:58:05Z</time>
      </trkpt>
      <trkpt lat="41.93475" lon="-8.74799">
        <ele>16.308</ele>
        <time>2018-07-28T10:58:06Z</time>
      </trkpt>
      <trkpt lat="41.93486" lon="-8.74791">
        <ele>16.766</ele>
        <time>2018-07-28T10:58:07Z</time>
      </trkpt>
      <trkpt lat="41.93498" lon="-8.74782">
        <ele>17.141</ele>
        <time>2018-07-28T10:58:08Z</time>
      </trkpt>
      <trkpt lat="41.9351" lon="-8.74773">
        <ele>17.314</ele>
        <time>2018-07-28T10:58:09Z</time>
      </trkpt>
      <trkpt lat="41.93521" lon="-8.74766">
        <ele>17.676</ele>
        <time>2018-07-28T10:58:10Z</time>
      </trkpt>
      <trkpt lat="41.93533" lon="-8.74755">
        <ele>17.621</ele>
        <time>2018-07-28T10:58:11Z</time>
      </trkpt>
      <trkpt lat="41.93546" lon="-8.74748">
        <ele>17.616</ele>
        <time>2018-07-28T10:58:12Z</time>
      </trkpt>
      <trkpt lat="41.93556" lon="-8.74739">
        <ele>17.774</ele>
        <time>2018-07-28T10:58:13Z</time>
      </trkpt>
      <trkpt lat="41.93566" lon="-8.74731">
        <ele>17.78</ele>
        <time>2018-07-28T10:58:14Z</time>
      </trkpt>
      <trkpt lat="41.93576" lon="-8.74724">
        <ele>17.827</ele>
        <time>2018-07-28T10:58:15Z</time>
      </trkpt>
      <trkpt lat="41.93587" lon="-8.74714">
        <ele>18.068</ele>
        <time>2018-07-28T10:58:16Z</time>
      </trkpt>
      <trkpt lat="41.93596" lon="-8.74706">
        <ele>18.214</ele>
        <time>2018-07-28T10:58:17Z</time>
      </trkpt>
      <trkpt lat="41.93606" lon="-8.74697">
        <ele>18.408</ele>
        <time>2018-07-28T10:58:18Z</time>
      </trkpt>
      <trkpt lat="41.93615" lon="-8.74686">
        <ele>18.684</ele>
        <time>2018-07-28T10:58:19Z</time>
      </trkpt>
      <trkpt lat="41.93625" lon="-8.74679">
        <ele>18.769</ele>
        <time>2018-07-28T10:58:20Z</time>
      </trkpt>
      <trkpt lat="41.93634" lon="-8.74671">
        <ele>18.892</ele>
        <time>2018-07-28T10:58:21Z</time>
      </trkpt>
      <trkpt lat="41.93642" lon="-8.74663">
        <ele>18.854</ele>
        <time>2018-07-28T10:58:22Z</time>
      </trkpt>
      <trkpt lat="41.9365" lon="-8.74656">
        <ele>18.999</ele>
        <time>2018-07-28T10:58:23Z</time>
      </trkpt>
      <trkpt lat="41.93658" lon="-8.74648">
        <ele>19.064</ele>
        <time>2018-07-28T10:58:24Z</time>
      </trkpt>
      <trkpt lat="41.93667" lon="-8.74641">
        <ele>19.342</ele>
        <time>2018-07-28T10:58:25Z</time>
      </trkpt>
      <trkpt lat="41.93674" lon="-8.74632">
        <ele>19.538</ele>
        <time>2018-07-28T10:58:26Z</time>
      </trkpt>
      <trkpt lat="41.93682" lon="-8.74624">
        <ele>19.754</ele>
        <time>2018-07-28T10:58:27Z</time>
      </trkpt>
      <trkpt lat="41.93688" lon="-8.74616">
        <ele>19.956</ele>
        <time>2018-07-28T10:58:28Z</time>
      </trkpt>
      <trkpt lat="41.93695" lon="-8.74608">
        <ele>20.311</ele>
        <time>2018-07-28T10:58:29Z</time>
      </trkpt>
      <trkpt lat="41.93704" lon="-8.746">
        <ele>20.708</ele>
        <time>2018-07-28T10:58:30Z</time>
      </trkpt>
      <trkpt lat="41.93712" lon="-8.74592">
        <ele>21.267</ele>
        <time>2018-07-28T10:58:31Z</time>
      </trkpt>
      <trkpt lat="41.93718" lon="-8.7458">
        <ele>21.542</ele>
        <time>2018-07-28T10:58:32Z</time>
      </trkpt>
      <trkpt lat="41.93724" lon="-8.7457">
        <ele>21.745</ele>
        <time>2018-07-28T10:58:33Z</time>
      </trkpt>
      <trkpt lat="41.93731" lon="-8.74562">
        <ele>21.847</ele>
        <time>2018-07-28T10:58:34Z</time>
      </trkpt>
      <trkpt lat="41.93738" lon="-8.74553">
        <ele>21.872</ele>
        <time>2018-07-28T10:58:35Z</time>
      </trkpt>
      <trkpt lat="41.93745" lon="-8.74544">
        <ele>21.717</ele>
        <time>2018-07-28T10:58:36Z</time>
      </trkpt>
      <trkpt lat="41.93752" lon="-8.74535">
        <ele>21.555</ele>
        <time>2018-07-28T10:58:37Z</time>
      </trkpt>
      <trkpt lat="41.93758" lon="-8.74527">
        <ele>21.271</ele>
        <time>2018-07-28T10:58:38Z</time>
      </trkpt>
      <trkpt lat="41.93765" lon="-8.74519">
        <ele>20.977</ele>
        <time>2018-07-28T10:58:39Z</time>
      </trkpt>
      <trkpt lat="41.9377" lon="-8.74512">
        <ele>20.561</ele>
        <time>2018-07-28T10:58:40Z</time>
      </trkpt>
      <trkpt lat="41.93775" lon="-8.74508">
        <ele>20.127</ele>
        <time>2018-07-28T10:58:41Z</time>
      </trkpt>
      <trkpt lat="41.93777" lon="-8.74499">
        <ele>19.908</ele>
        <time>2018-07-28T10:58:42Z</time>
      </trkpt>
      <trkpt lat="41.93782" lon="-8.74493">
        <ele>19.839</ele>
        <time>2018-07-28T10:58:43Z</time>
      </trkpt>
      <trkpt lat="41.93789" lon="-8.74485">
        <ele>19.864</ele>
        <time>2018-07-28T10:58:44Z</time>
      </trkpt>
      <trkpt lat="41.93794" lon="-8.74476">
        <ele>19.827</ele>
        <time>2018-07-28T10:58:45Z</time>
      </trkpt>
      <trkpt lat="41.93798" lon="-8.74467">
        <ele>19.869</ele>
        <time>2018-07-28T10:58:46Z</time>
      </trkpt>
      <trkpt lat="41.93802" lon="-8.74458">
        <ele>19.754</ele>
        <time>2018-07-28T10:58:47Z</time>
      </trkpt>
      <trkpt lat="41.93806" lon="-8.74454">
        <ele>19.579</ele>
        <time>2018-07-28T10:58:48Z</time>
      </trkpt>
      <trkpt lat="41.93813" lon="-8.74451">
        <ele>19.087</ele>
        <time>2018-07-28T10:58:50Z</time>
      </trkpt>
      <trkpt lat="41.93814" lon="-8.74443">
        <ele>18.593</ele>
        <time>2018-07-28T10:58:52Z</time>
      </trkpt>
      <trkpt lat="41.93819" lon="-8.74435">
        <ele>18.369</ele>
        <time>2018-07-28T10:58:54Z</time>
      </trkpt>
      <trkpt lat="41.9382" lon="-8.74422">
        <ele>18.304</ele>
        <time>2018-07-28T10:58:56Z</time>
      </trkpt>
      <trkpt lat="41.93824" lon="-8.74416">
        <ele>18.324</ele>
        <time>2018-07-28T10:58:57Z</time>
      </trkpt>
      <trkpt lat="41.93828" lon="-8.74409">
        <ele>18.408</ele>
        <time>2018-07-28T10:58:58Z</time>
      </trkpt>
      <trkpt lat="41.93833" lon="-8.74401">
        <ele>18.558</ele>
        <time>2018-07-28T10:58:59Z</time>
      </trkpt>
      <trkpt lat="41.9384" lon="-8.74396">
        <ele>18.643</ele>
        <time>2018-07-28T10:59:00Z</time>
      </trkpt>
      <trkpt lat="41.93846" lon="-8.74392">
        <ele>18.826</ele>
        <time>2018-07-28T10:59:01Z</time>
      </trkpt>
      <trkpt lat="41.93852" lon="-8.74387">
        <ele>18.958</ele>
        <time>2018-07-28T10:59:02Z</time>
      </trkpt>
      <trkpt lat="41.9386" lon="-8.74381">
        <ele>19.173</ele>
        <time>2018-07-28T10:59:03Z</time>
      </trkpt>
      <trkpt lat="41.93867" lon="-8.74371">
        <ele>19.488</ele>
        <time>2018-07-28T10:59:04Z</time>
      </trkpt>
      <trkpt lat="41.93874" lon="-8.74358">
        <ele>19.736</ele>
        <time>2018-07-28T10:59:05Z</time>
      </trkpt>
      <trkpt lat="41.93884" lon="-8.74346">
        <ele>20.312</ele>
        <time>2018-07-28T10:59:06Z</time>
      </trkpt>
      <trkpt lat="41.93893" lon="-8.74335">
        <ele>20.641</ele>
        <time>2018-07-28T10:59:07Z</time>
      </trkpt>
      <trkpt lat="41.93901" lon="-8.74319">
        <ele>21.081</ele>
        <time>2018-07-28T10:59:08Z</time>
      </trkpt>
      <trkpt lat="41.93912" lon="-8.74304">
        <ele>21.509</ele>
        <time>2018-07-28T10:59:09Z</time>
      </trkpt>
      <trkpt lat="41.93924" lon="-8.7429">
        <ele>22.108</ele>
        <time>2018-07-28T10:59:10Z</time>
      </trkpt>
      <trkpt lat="41.93936" lon="-8.74277">
        <ele>22.876</ele>
        <time>2018-07-28T10:59:11Z</time>
      </trkpt>
      <trkpt lat="41.93947" lon="-8.74267">
        <ele>23.411</ele>
        <time>2018-07-28T10:59:12Z</time>
      </trkpt>
      <trkpt lat="41.93958" lon="-8.74255">
        <ele>23.954</ele>
        <time>2018-07-28T10:59:13Z</time>
      </trkpt>
      <trkpt lat="41.9397" lon="-8.74244">
        <ele>24.276</ele>
        <time>2018-07-28T10:59:14Z</time>
      </trkpt>
      <trkpt lat="41.93981" lon="-8.74234">
        <ele>24.441</ele>
        <time>2018-07-28T10:59:15Z</time>
      </trkpt>
      <trkpt lat="41.93992" lon="-8.74223">
        <ele>24.536</ele>
        <time>2018-07-28T10:59:16Z</time>
      </trkpt>
      <trkpt lat="41.94004" lon="-8.74214">
        <ele>24.644</ele>
        <time>2018-07-28T10:59:17Z</time>
      </trkpt>
      <trkpt lat="41.94015" lon="-8.74205">
        <ele>24.82</ele>
        <time>2018-07-28T10:59:18Z</time>
      </trkpt>
      <trkpt lat="41.94026" lon="-8.74196">
        <ele>25.167</ele>
        <time>2018-07-28T10:59:19Z</time>
      </trkpt>
      <trkpt lat="41.94038" lon="-8.74187">
        <ele>25.481</ele>
        <time>2018-07-28T10:59:20Z</time>
      </trkpt>
      <trkpt lat="41.9405" lon="-8.7418">
        <ele>26.119</ele>
        <time>2018-07-28T10:59:21Z</time>
      </trkpt>
      <trkpt lat="41.94063" lon="-8.74173">
        <ele>26.508</ele>
        <time>2018-07-28T10:59:22Z</time>
      </trkpt>
      <trkpt lat="41.94074" lon="-8.74161">
        <ele>26.988</ele>
        <time>2018-07-28T10:59:23Z</time>
      </trkpt>
      <trkpt lat="41.94087" lon="-8.74158">
        <ele>27.313</ele>
        <time>2018-07-28T10:59:24Z</time>
      </trkpt>
      <trkpt lat="41.94098" lon="-8.74152">
        <ele>27.756</ele>
        <time>2018-07-28T10:59:25Z</time>
      </trkpt>
      <trkpt lat="41.94111" lon="-8.7415">
        <ele>27.958</ele>
        <time>2018-07-28T10:59:26Z</time>
      </trkpt>
      <trkpt lat="41.94123" lon="-8.74145">
        <ele>28.023</ele>
        <time>2018-07-28T10:59:27Z</time>
      </trkpt>
      <trkpt lat="41.94137" lon="-8.7414">
        <ele>28.218</ele>
        <time>2018-07-28T10:59:28Z</time>
      </trkpt>
      <trkpt lat="41.94147" lon="-8.74134">
        <ele>28.566</ele>
        <time>2018-07-28T10:59:29Z</time>
      </trkpt>
      <trkpt lat="41.94164" lon="-8.74133">
        <ele>28.882</ele>
        <time>2018-07-28T10:59:30Z</time>
      </trkpt>
      <trkpt lat="41.94176" lon="-8.74129">
        <ele>29.346</ele>
        <time>2018-07-28T10:59:31Z</time>
      </trkpt>
      <trkpt lat="41.94188" lon="-8.74126">
        <ele>30.088</ele>
        <time>2018-07-28T10:59:32Z</time>
      </trkpt>
      <trkpt lat="41.94202" lon="-8.74125">
        <ele>30.516</ele>
        <time>2018-07-28T10:59:33Z</time>
      </trkpt>
      <trkpt lat="41.94215" lon="-8.74121">
        <ele>30.908</ele>
        <time>2018-07-28T10:59:34Z</time>
      </trkpt>
      <trkpt lat="41.94227" lon="-8.74117">
        <ele>31.356</ele>
        <time>2018-07-28T10:59:35Z</time>
      </trkpt>
      <trkpt lat="41.94237" lon="-8.74115">
        <ele>31.631</ele>
        <time>2018-07-28T10:59:36Z</time>
      </trkpt>
      <trkpt lat="41.94244" lon="-8.74113">
        <ele>31.684</ele>
        <time>2018-07-28T10:59:37Z</time>
      </trkpt>
      <trkpt lat="41.94251" lon="-8.74112">
        <ele>31.626</ele>
        <time>2018-07-28T10:59:38Z</time>
      </trkpt>
      <trkpt lat="41.94259" lon="-8.74111">
        <ele>31.691</ele>
        <time>2018-07-28T10:59:39Z</time>
      </trkpt>
      <trkpt lat="41.94268" lon="-8.74108">
        <ele>31.886</ele>
        <time>2018-07-28T10:59:40Z</time>
      </trkpt>
      <trkpt lat="41.94279" lon="-8.74104">
        <ele>32.174</ele>
        <time>2018-07-28T10:59:41Z</time>
      </trkpt>
      <trkpt lat="41.94289" lon="-8.74101">
        <ele>32.59</ele>
        <time>2018-07-28T10:59:42Z</time>
      </trkpt>
      <trkpt lat="41.94301" lon="-8.741">
        <ele>32.999</ele>
        <time>2018-07-28T10:59:43Z</time>
      </trkpt>
      <trkpt lat="41.94313" lon="-8.74097">
        <ele>33.307</ele>
        <time>2018-07-28T10:59:44Z</time>
      </trkpt>
      <trkpt lat="41.94325" lon="-8.74096">
        <ele>33.727</ele>
        <time>2018-07-28T10:59:45Z</time>
      </trkpt>
      <trkpt lat="41.94335" lon="-8.74091">
        <ele>34.008</ele>
        <time>2018-07-28T10:59:46Z</time>
      </trkpt>
      <trkpt lat="41.94347" lon="-8.74089">
        <ele>34.381</ele>
        <time>2018-07-28T10:59:47Z</time>
      </trkpt>
      <trkpt lat="41.94358" lon="-8.74083">
        <ele>34.626</ele>
        <time>2018-07-28T10:59:48Z</time>
      </trkpt>
      <trkpt lat="41.9437" lon="-8.7408">
        <ele>35.159</ele>
        <time>2018-07-28T10:59:49Z</time>
      </trkpt>
      <trkpt lat="41.94382" lon="-8.74079">
        <ele>35.751</ele>
        <time>2018-07-28T10:59:50Z</time>
      </trkpt>
      <trkpt lat="41.94396" lon="-8.74077">
        <ele>37.176</ele>
        <time>2018-07-28T10:59:51Z</time>
      </trkpt>
      <trkpt lat="41.94413" lon="-8.74075">
        <ele>37.871</ele>
        <time>2018-07-28T10:59:52Z</time>
      </trkpt>
      <trkpt lat="41.94427" lon="-8.74073">
        <ele>38.289</ele>
        <time>2018-07-28T10:59:53Z</time>
      </trkpt>
      <trkpt lat="41.94439" lon="-8.7407">
        <ele>38.465</ele>
        <time>2018-07-28T10:59:54Z</time>
      </trkpt>
      <trkpt lat="41.94451" lon="-8.74066">
        <ele>38.416</ele>
        <time>2018-07-28T10:59:55Z</time>
      </trkpt>
      <trkpt lat="41.94464" lon="-8.74062">
        <ele>38.476</ele>
        <time>2018-07-28T10:59:56Z</time>
      </trkpt>
      <trkpt lat="41.94478" lon="-8.74058">
        <ele>38.213</ele>
        <time>2018-07-28T10:59:57Z</time>
      </trkpt>
      <trkpt lat="41.94492" lon="-8.74055">
        <ele>37.908</ele>
        <time>2018-07-28T10:59:58Z</time>
      </trkpt>
      <trkpt lat="41.94506" lon="-8.74053">
        <ele>37.743</ele>
        <time>2018-07-28T10:59:59Z</time>
      </trkpt>
      <trkpt lat="41.94516" lon="-8.74048">
        <ele>37.368</ele>
        <time>2018-07-28T11:00:00Z</time>
      </trkpt>
      <trkpt lat="41.9453" lon="-8.74046">
        <ele>36.941</ele>
        <time>2018-07-28T11:00:01Z</time>
      </trkpt>
      <trkpt lat="41.94545" lon="-8.74046">
        <ele>36.333</ele>
        <time>2018-07-28T11:00:02Z</time>
      </trkpt>
      <trkpt lat="41.94559" lon="-8.74044">
        <ele>36.038</ele>
        <time>2018-07-28T11:00:03Z</time>
      </trkpt>
      <trkpt lat="41.94576" lon="-8.74036">
        <ele>35.723</ele>
        <time>2018-07-28T11:00:04Z</time>
      </trkpt>
      <trkpt lat="41.94593" lon="-8.74037">
        <ele>35.591</ele>
        <time>2018-07-28T11:00:05Z</time>
      </trkpt>
      <trkpt lat="41.94606" lon="-8.74034">
        <ele>35.087</ele>
        <time>2018-07-28T11:00:06Z</time>
      </trkpt>
      <trkpt lat="41.94621" lon="-8.74034">
        <ele>34.753</ele>
        <time>2018-07-28T11:00:07Z</time>
      </trkpt>
      <trkpt lat="41.94636" lon="-8.74035">
        <ele>34.204</ele>
        <time>2018-07-28T11:00:08Z</time>
      </trkpt>
      <trkpt lat="41.94651" lon="-8.74038">
        <ele>33.614</ele>
        <time>2018-07-28T11:00:09Z</time>
      </trkpt>
      <trkpt lat="41.94666" lon="-8.74041">
        <ele>33.208</ele>
        <time>2018-07-28T11:00:10Z</time>
      </trkpt>
      <trkpt lat="41.94681" lon="-8.74041">
        <ele>32.937</ele>
        <time>2018-07-28T11:00:11Z</time>
      </trkpt>
      <trkpt lat="41.94697" lon="-8.74041">
        <ele>32.542</ele>
        <time>2018-07-28T11:00:12Z</time>
      </trkpt>
      <trkpt lat="41.94712" lon="-8.74044">
        <ele>32.285</ele>
        <time>2018-07-28T11:00:13Z</time>
      </trkpt>
      <trkpt lat="41.94729" lon="-8.74048">
        <ele>32.177</ele>
        <time>2018-07-28T11:00:14Z</time>
      </trkpt>
      <trkpt lat="41.94746" lon="-8.74051">
        <ele>31.942</ele>
        <time>2018-07-28T11:00:15Z</time>
      </trkpt>
      <trkpt lat="41.94763" lon="-8.74056">
        <ele>31.557</ele>
        <time>2018-07-28T11:00:16Z</time>
      </trkpt>
      <trkpt lat="41.9478" lon="-8.74058">
        <ele>31.395</ele>
        <time>2018-07-28T11:00:17Z</time>
      </trkpt>
      <trkpt lat="41.94796" lon="-8.74061">
        <ele>30.891</ele>
        <time>2018-07-28T11:00:18Z</time>
      </trkpt>
      <trkpt lat="41.94812" lon="-8.74064">
        <ele>30.522</ele>
        <time>2018-07-28T11:00:19Z</time>
      </trkpt>
      <trkpt lat="41.94826" lon="-8.74058">
        <ele>30.262</ele>
        <time>2018-07-28T11:00:20Z</time>
      </trkpt>
      <trkpt lat="41.94839" lon="-8.74058">
        <ele>29.408</ele>
        <time>2018-07-28T11:00:21Z</time>
      </trkpt>
      <trkpt lat="41.94853" lon="-8.74059">
        <ele>29.008</ele>
        <time>2018-07-28T11:00:22Z</time>
      </trkpt>
      <trkpt lat="41.94866" lon="-8.7406">
        <ele>28.684</ele>
        <time>2018-07-28T11:00:23Z</time>
      </trkpt>
      <trkpt lat="41.94879" lon="-8.74055">
        <ele>28.179</ele>
        <time>2018-07-28T11:00:24Z</time>
      </trkpt>
      <trkpt lat="41.9489" lon="-8.74045">
        <ele>27.932</ele>
        <time>2018-07-28T11:00:25Z</time>
      </trkpt>
      <trkpt lat="41.94901" lon="-8.74031">
        <ele>27.924</ele>
        <time>2018-07-28T11:00:26Z</time>
      </trkpt>
      <trkpt lat="41.94911" lon="-8.74015">
        <ele>28.019</ele>
        <time>2018-07-28T11:00:27Z</time>
      </trkpt>
      <trkpt lat="41.94919" lon="-8.73995">
        <ele>28.314</ele>
        <time>2018-07-28T11:00:28Z</time>
      </trkpt>
      <trkpt lat="41.94926" lon="-8.73976">
        <ele>28.862</ele>
        <time>2018-07-28T11:00:29Z</time>
      </trkpt>
      <trkpt lat="41.94936" lon="-8.73962">
        <ele>29.478</ele>
        <time>2018-07-28T11:00:30Z</time>
      </trkpt>
      <trkpt lat="41.9495" lon="-8.7395">
        <ele>29.866</ele>
        <time>2018-07-28T11:00:31Z</time>
      </trkpt>
      <trkpt lat="41.94966" lon="-8.73946">
        <ele>30.229</ele>
        <time>2018-07-28T11:00:32Z</time>
      </trkpt>
      <trkpt lat="41.9498" lon="-8.73945">
        <ele>30.721</ele>
        <time>2018-07-28T11:00:33Z</time>
      </trkpt>
      <trkpt lat="41.94994" lon="-8.73952">
        <ele>31.508</ele>
        <time>2018-07-28T11:00:34Z</time>
      </trkpt>
      <trkpt lat="41.95008" lon="-8.73962">
        <ele>32.128</ele>
        <time>2018-07-28T11:00:35Z</time>
      </trkpt>
      <trkpt lat="41.95018" lon="-8.73979">
        <ele>32.743</ele>
        <time>2018-07-28T11:00:36Z</time>
      </trkpt>
      <trkpt lat="41.95027" lon="-8.73999">
        <ele>33.426</ele>
        <time>2018-07-28T11:00:37Z</time>
      </trkpt>
      <trkpt lat="41.95031" lon="-8.74021">
        <ele>34.238</ele>
        <time>2018-07-28T11:00:38Z</time>
      </trkpt>
      <trkpt lat="41.95032" lon="-8.74044">
        <ele>35.243</ele>
        <time>2018-07-28T11:00:39Z</time>
      </trkpt>
      <trkpt lat="41.95033" lon="-8.74064">
        <ele>36.218</ele>
        <time>2018-07-28T11:00:40Z</time>
      </trkpt>
      <trkpt lat="41.95033" lon="-8.74082">
        <ele>37.026</ele>
        <time>2018-07-28T11:00:41Z</time>
      </trkpt>
      <trkpt lat="41.95034" lon="-8.74099">
        <ele>37.572</ele>
        <time>2018-07-28T11:00:42Z</time>
      </trkpt>
      <trkpt lat="41.95036" lon="-8.74113">
        <ele>37.581</ele>
        <time>2018-07-28T11:00:43Z</time>
      </trkpt>
      <trkpt lat="41.95039" lon="-8.74124">
        <ele>37.261</ele>
        <time>2018-07-28T11:00:44Z</time>
      </trkpt>
      <trkpt lat="41.95043" lon="-8.74133">
        <ele>36.717</ele>
        <time>2018-07-28T11:00:45Z</time>
      </trkpt>
      <trkpt lat="41.95047" lon="-8.74143">
        <ele>36.108</ele>
        <time>2018-07-28T11:00:46Z</time>
      </trkpt>
      <trkpt lat="41.95044" lon="-8.74156">
        <ele>35.42</ele>
        <time>2018-07-28T11:00:47Z</time>
      </trkpt>
      <trkpt lat="41.9504" lon="-8.74171">
        <ele>35.045</ele>
        <time>2018-07-28T11:00:48Z</time>
      </trkpt>
      <trkpt lat="41.95039" lon="-8.74188">
        <ele>34.938</ele>
        <time>2018-07-28T11:00:49Z</time>
      </trkpt>
      <trkpt lat="41.95041" lon="-8.74207">
        <ele>34.95</ele>
        <time>2018-07-28T11:00:50Z</time>
      </trkpt>
      <trkpt lat="41.95042" lon="-8.74227">
        <ele>34.965</ele>
        <time>2018-07-28T11:00:51Z</time>
      </trkpt>
      <trkpt lat="41.95044" lon="-8.74244">
        <ele>34.78</ele>
        <time>2018-07-28T11:00:52Z</time>
      </trkpt>
      <trkpt lat="41.95045" lon="-8.74262">
        <ele>34.358</ele>
        <time>2018-07-28T11:00:53Z</time>
      </trkpt>
      <trkpt lat="41.95048" lon="-8.7428">
        <ele>33.534</ele>
        <time>2018-07-28T11:00:54Z</time>
      </trkpt>
      <trkpt lat="41.95049" lon="-8.743">
        <ele>32.569</ele>
        <time>2018-07-28T11:00:55Z</time>
      </trkpt>
      <trkpt lat="41.95052" lon="-8.74317">
        <ele>31.604</ele>
        <time>2018-07-28T11:00:56Z</time>
      </trkpt>
      <trkpt lat="41.95053" lon="-8.74335">
        <ele>30.724</ele>
        <time>2018-07-28T11:00:57Z</time>
      </trkpt>
      <trkpt lat="41.95056" lon="-8.7435">
        <ele>29.808</ele>
        <time>2018-07-28T11:00:58Z</time>
      </trkpt>
      <trkpt lat="41.95059" lon="-8.74366">
        <ele>29.158</ele>
        <time>2018-07-28T11:00:59Z</time>
      </trkpt>
      <trkpt lat="41.95063" lon="-8.74382">
        <ele>28.833</ele>
        <time>2018-07-28T11:01:00Z</time>
      </trkpt>
      <trkpt lat="41.95064" lon="-8.74399">
        <ele>28.826</ele>
        <time>2018-07-28T11:01:01Z</time>
      </trkpt>
      <trkpt lat="41.9507" lon="-8.74415">
        <ele>28.828</ele>
        <time>2018-07-28T11:01:02Z</time>
      </trkpt>
      <trkpt lat="41.95077" lon="-8.74433">
        <ele>29.173</ele>
        <time>2018-07-28T11:01:03Z</time>
      </trkpt>
      <trkpt lat="41.9508" lon="-8.74452">
        <ele>29.578</ele>
        <time>2018-07-28T11:01:04Z</time>
      </trkpt>
      <trkpt lat="41.95085" lon="-8.74471">
        <ele>30.686</ele>
        <time>2018-07-28T11:01:05Z</time>
      </trkpt>
      <trkpt lat="41.95089" lon="-8.74491">
        <ele>31.272</ele>
        <time>2018-07-28T11:01:06Z</time>
      </trkpt>
      <trkpt lat="41.95097" lon="-8.7451">
        <ele>31.842</ele>
        <time>2018-07-28T11:01:07Z</time>
      </trkpt>
      <trkpt lat="41.95104" lon="-8.74529">
        <ele>32.322</ele>
        <time>2018-07-28T11:01:08Z</time>
      </trkpt>
      <trkpt lat="41.9511" lon="-8.7455">
        <ele>33.014</ele>
        <time>2018-07-28T11:01:09Z</time>
      </trkpt>
      <trkpt lat="41.95115" lon="-8.74572">
        <ele>33.308</ele>
        <time>2018-07-28T11:01:10Z</time>
      </trkpt>
      <trkpt lat="41.9512" lon="-8.74594">
        <ele>33.516</ele>
        <time>2018-07-28T11:01:11Z</time>
      </trkpt>
      <trkpt lat="41.95127" lon="-8.74616">
        <ele>33.921</ele>
        <time>2018-07-28T11:01:12Z</time>
      </trkpt>
      <trkpt lat="41.95132" lon="-8.74637">
        <ele>34.314</ele>
        <time>2018-07-28T11:01:13Z</time>
      </trkpt>
      <trkpt lat="41.95138" lon="-8.7466">
        <ele>34.496</ele>
        <time>2018-07-28T11:01:14Z</time>
      </trkpt>
      <trkpt lat="41.95142" lon="-8.74685">
        <ele>34.741</ele>
        <time>2018-07-28T11:01:15Z</time>
      </trkpt>
      <trkpt lat="41.95149" lon="-8.74708">
        <ele>35.186</ele>
        <time>2018-07-28T11:01:16Z</time>
      </trkpt>
      <trkpt lat="41.95155" lon="-8.74734">
        <ele>35.634</ele>
        <time>2018-07-28T11:01:17Z</time>
      </trkpt>
      <trkpt lat="41.95162" lon="-8.74758">
        <ele>35.76</ele>
        <time>2018-07-28T11:01:18Z</time>
      </trkpt>
      <trkpt lat="41.95167" lon="-8.74782">
        <ele>35.767</ele>
        <time>2018-07-28T11:01:19Z</time>
      </trkpt>
      <trkpt lat="41.95172" lon="-8.74806">
        <ele>35.181</ele>
        <time>2018-07-28T11:01:20Z</time>
      </trkpt>
      <trkpt lat="41.95177" lon="-8.74829">
        <ele>34.619</ele>
        <time>2018-07-28T11:01:21Z</time>
      </trkpt>
      <trkpt lat="41.95184" lon="-8.7485">
        <ele>34.108</ele>
        <time>2018-07-28T11:01:22Z</time>
      </trkpt>
      <trkpt lat="41.95191" lon="-8.74873">
        <ele>33.828</ele>
        <time>2018-07-28T11:01:23Z</time>
      </trkpt>
      <trkpt lat="41.95196" lon="-8.74897">
        <ele>33.493</ele>
        <time>2018-07-28T11:01:24Z</time>
      </trkpt>
      <trkpt lat="41.95205" lon="-8.74921">
        <ele>33.096</ele>
        <time>2018-07-28T11:01:25Z</time>
      </trkpt>
      <trkpt lat="41.95213" lon="-8.74948">
        <ele>32.678</ele>
        <time>2018-07-28T11:01:26Z</time>
      </trkpt>
      <trkpt lat="41.95219" lon="-8.74975">
        <ele>32.383</ele>
        <time>2018-07-28T11:01:27Z</time>
      </trkpt>
      <trkpt lat="41.95225" lon="-8.75001">
        <ele>31.758</ele>
        <time>2018-07-28T11:01:28Z</time>
      </trkpt>
      <trkpt lat="41.95231" lon="-8.75027">
        <ele>30.956</ele>
        <time>2018-07-28T11:01:29Z</time>
      </trkpt>
      <trkpt lat="41.95236" lon="-8.75054">
        <ele>29.912</ele>
        <time>2018-07-28T11:01:30Z</time>
      </trkpt>
      <trkpt lat="41.95242" lon="-8.75081">
        <ele>29.194</ele>
        <time>2018-07-28T11:01:31Z</time>
      </trkpt>
      <trkpt lat="41.95243" lon="-8.7511">
        <ele>28.157</ele>
        <time>2018-07-28T11:01:32Z</time>
      </trkpt>
      <trkpt lat="41.95248" lon="-8.75136">
        <ele>27.322</ele>
        <time>2018-07-28T11:01:33Z</time>
      </trkpt>
      <trkpt lat="41.95255" lon="-8.75162">
        <ele>26.608</ele>
        <time>2018-07-28T11:01:34Z</time>
      </trkpt>
      <trkpt lat="41.9526" lon="-8.75188">
        <ele>25.471</ele>
        <time>2018-07-28T11:01:35Z</time>
      </trkpt>
      <trkpt lat="41.95265" lon="-8.75217">
        <ele>24.776</ele>
        <time>2018-07-28T11:01:36Z</time>
      </trkpt>
      <trkpt lat="41.95269" lon="-8.75246">
        <ele>24.339</ele>
        <time>2018-07-28T11:01:37Z</time>
      </trkpt>
      <trkpt lat="41.95272" lon="-8.75275">
        <ele>23.971</ele>
        <time>2018-07-28T11:01:38Z</time>
      </trkpt>
      <trkpt lat="41.95277" lon="-8.75302">
        <ele>23.796</ele>
        <time>2018-07-28T11:01:39Z</time>
      </trkpt>
      <trkpt lat="41.9528" lon="-8.75327">
        <ele>23.561</ele>
        <time>2018-07-28T11:01:40Z</time>
      </trkpt>
      <trkpt lat="41.95282" lon="-8.75353">
        <ele>23.389</ele>
        <time>2018-07-28T11:01:41Z</time>
      </trkpt>
      <trkpt lat="41.95283" lon="-8.75383">
        <ele>23.375</ele>
        <time>2018-07-28T11:01:42Z</time>
      </trkpt>
      <trkpt lat="41.95283" lon="-8.75413">
        <ele>23.323</ele>
        <time>2018-07-28T11:01:43Z</time>
      </trkpt>
      <trkpt lat="41.95282" lon="-8.75441">
        <ele>23.383</ele>
        <time>2018-07-28T11:01:44Z</time>
      </trkpt>
      <trkpt lat="41.95283" lon="-8.75469">
        <ele>23.311</ele>
        <time>2018-07-28T11:01:45Z</time>
      </trkpt>
      <trkpt lat="41.95283" lon="-8.75495">
        <ele>23.308</ele>
        <time>2018-07-28T11:01:46Z</time>
      </trkpt>
      <trkpt lat="41.95283" lon="-8.7552">
        <ele>23.354</ele>
        <time>2018-07-28T11:01:47Z</time>
      </trkpt>
      <trkpt lat="41.95285" lon="-8.75544">
        <ele>22.899</ele>
        <time>2018-07-28T11:01:48Z</time>
      </trkpt>
      <trkpt lat="41.95287" lon="-8.7557">
        <ele>22.832</ele>
        <time>2018-07-28T11:01:49Z</time>
      </trkpt>
      <trkpt lat="41.95289" lon="-8.75596">
        <ele>22.944</ele>
        <time>2018-07-28T11:01:50Z</time>
      </trkpt>
      <trkpt lat="41.95292" lon="-8.75624">
        <ele>23.289</ele>
        <time>2018-07-28T11:01:51Z</time>
      </trkpt>
      <trkpt lat="41.95296" lon="-8.75653">
        <ele>23.764</ele>
        <time>2018-07-28T11:01:52Z</time>
      </trkpt>
      <trkpt lat="41.95302" lon="-8.75681">
        <ele>24.152</ele>
        <time>2018-07-28T11:01:53Z</time>
      </trkpt>
      <trkpt lat="41.95303" lon="-8.75707">
        <ele>24.558</ele>
        <time>2018-07-28T11:01:54Z</time>
      </trkpt>
      <trkpt lat="41.95308" lon="-8.75731">
        <ele>24.738</ele>
        <time>2018-07-28T11:01:55Z</time>
      </trkpt>
      <trkpt lat="41.95308" lon="-8.7576">
        <ele>24.97</ele>
        <time>2018-07-28T11:01:56Z</time>
      </trkpt>
      <trkpt lat="41.95311" lon="-8.75787">
        <ele>24.917</ele>
        <time>2018-07-28T11:01:57Z</time>
      </trkpt>
      <trkpt lat="41.95315" lon="-8.75813">
        <ele>24.808</ele>
        <time>2018-07-28T11:01:58Z</time>
      </trkpt>
      <trkpt lat="41.95318" lon="-8.75838">
        <ele>24.335</ele>
        <time>2018-07-28T11:01:59Z</time>
      </trkpt>
      <trkpt lat="41.95322" lon="-8.7586">
        <ele>23.95</ele>
        <time>2018-07-28T11:02:00Z</time>
      </trkpt>
      <trkpt lat="41.95325" lon="-8.75885">
        <ele>23.443</ele>
        <time>2018-07-28T11:02:01Z</time>
      </trkpt>
      <trkpt lat="41.95329" lon="-8.75906">
        <ele>23.045</ele>
        <time>2018-07-28T11:02:02Z</time>
      </trkpt>
      <trkpt lat="41.95335" lon="-8.75931">
        <ele>22.79</ele>
        <time>2018-07-28T11:02:03Z</time>
      </trkpt>
      <trkpt lat="41.95335" lon="-8.75953">
        <ele>22.325</ele>
        <time>2018-07-28T11:02:04Z</time>
      </trkpt>
      <trkpt lat="41.95338" lon="-8.75976">
        <ele>22.143</ele>
        <time>2018-07-28T11:02:05Z</time>
      </trkpt>
      <trkpt lat="41.95342" lon="-8.76002">
        <ele>21.779</ele>
        <time>2018-07-28T11:02:06Z</time>
      </trkpt>
      <trkpt lat="41.95346" lon="-8.76026">
        <ele>21.518</ele>
        <time>2018-07-28T11:02:07Z</time>
      </trkpt>
      <trkpt lat="41.95349" lon="-8.76048">
        <ele>21.398</ele>
        <time>2018-07-28T11:02:08Z</time>
      </trkpt>
      <trkpt lat="41.95352" lon="-8.76073">
        <ele>21.217</ele>
        <time>2018-07-28T11:02:09Z</time>
      </trkpt>
      <trkpt lat="41.95355" lon="-8.76098">
        <ele>20.908</ele>
        <time>2018-07-28T11:02:10Z</time>
      </trkpt>
      <trkpt lat="41.95355" lon="-8.7612">
        <ele>20.943</ele>
        <time>2018-07-28T11:02:11Z</time>
      </trkpt>
      <trkpt lat="41.95357" lon="-8.76144">
        <ele>20.848</ele>
        <time>2018-07-28T11:02:12Z</time>
      </trkpt>
      <trkpt lat="41.9536" lon="-8.76169">
        <ele>20.671</ele>
        <time>2018-07-28T11:02:13Z</time>
      </trkpt>
      <trkpt lat="41.95363" lon="-8.76192">
        <ele>20.563</ele>
        <time>2018-07-28T11:02:14Z</time>
      </trkpt>
      <trkpt lat="41.95368" lon="-8.76215">
        <ele>20.518</ele>
        <time>2018-07-28T11:02:15Z</time>
      </trkpt>
      <trkpt lat="41.9537" lon="-8.76243">
        <ele>20.553</ele>
        <time>2018-07-28T11:02:16Z</time>
      </trkpt>
      <trkpt lat="41.95376" lon="-8.76264">
        <ele>20.571</ele>
        <time>2018-07-28T11:02:17Z</time>
      </trkpt>
      <trkpt lat="41.95378" lon="-8.7629">
        <ele>20.737</ele>
        <time>2018-07-28T11:02:18Z</time>
      </trkpt>
      <trkpt lat="41.9538" lon="-8.76316">
        <ele>21.123</ele>
        <time>2018-07-28T11:02:19Z</time>
      </trkpt>
      <trkpt lat="41.95381" lon="-8.76341">
        <ele>21.683</ele>
        <time>2018-07-28T11:02:20Z</time>
      </trkpt>
      <trkpt lat="41.95385" lon="-8.76367">
        <ele>21.811</ele>
        <time>2018-07-28T11:02:21Z</time>
      </trkpt>
      <trkpt lat="41.95387" lon="-8.76388">
        <ele>21.808</ele>
        <time>2018-07-28T11:02:22Z</time>
      </trkpt>
      <trkpt lat="41.95389" lon="-8.76411">
        <ele>21.614</ele>
        <time>2018-07-28T11:02:23Z</time>
      </trkpt>
      <trkpt lat="41.95393" lon="-8.76432">
        <ele>21.289</ele>
        <time>2018-07-28T11:02:24Z</time>
      </trkpt>
      <trkpt lat="41.95395" lon="-8.76453">
        <ele>21.152</ele>
        <time>2018-07-28T11:02:25Z</time>
      </trkpt>
      <trkpt lat="41.95397" lon="-8.76474">
        <ele>20.994</ele>
        <time>2018-07-28T11:02:26Z</time>
      </trkpt>
      <trkpt lat="41.95398" lon="-8.76493">
        <ele>20.739</ele>
        <time>2018-07-28T11:02:27Z</time>
      </trkpt>
      <trkpt lat="41.95401" lon="-8.76511">
        <ele>20.764</ele>
        <time>2018-07-28T11:02:28Z</time>
      </trkpt>
      <trkpt lat="41.95403" lon="-8.76528">
        <ele>20.732</ele>
        <time>2018-07-28T11:02:29Z</time>
      </trkpt>
      <trkpt lat="41.95405" lon="-8.76546">
        <ele>20.438</ele>
        <time>2018-07-28T11:02:30Z</time>
      </trkpt>
      <trkpt lat="41.95406" lon="-8.76563">
        <ele>20.253</ele>
        <time>2018-07-28T11:02:31Z</time>
      </trkpt>
      <trkpt lat="41.95408" lon="-8.76582">
        <ele>20.204</ele>
        <time>2018-07-28T11:02:32Z</time>
      </trkpt>
      <trkpt lat="41.95409" lon="-8.76601">
        <ele>20.314</ele>
        <time>2018-07-28T11:02:33Z</time>
      </trkpt>
      <trkpt lat="41.95412" lon="-8.76615">
        <ele>20.408</ele>
        <time>2018-07-28T11:02:34Z</time>
      </trkpt>
      <trkpt lat="41.95413" lon="-8.76631">
        <ele>20.377</ele>
        <time>2018-07-28T11:02:35Z</time>
      </trkpt>
      <trkpt lat="41.95415" lon="-8.76644">
        <ele>20.022</ele>
        <time>2018-07-28T11:02:36Z</time>
      </trkpt>
      <trkpt lat="41.95417" lon="-8.76655">
        <ele>19.535</ele>
        <time>2018-07-28T11:02:37Z</time>
      </trkpt>
      <trkpt lat="41.95421" lon="-8.76665">
        <ele>19.317</ele>
        <time>2018-07-28T11:02:38Z</time>
      </trkpt>
      <trkpt lat="41.95426" lon="-8.76674">
        <ele>19.362</ele>
        <time>2018-07-28T11:02:39Z</time>
      </trkpt>
      <trkpt lat="41.95428" lon="-8.76689">
        <ele>19.437</ele>
        <time>2018-07-28T11:02:40Z</time>
      </trkpt>
      <trkpt lat="41.95428" lon="-8.76709">
        <ele>20.075</ele>
        <time>2018-07-28T11:02:41Z</time>
      </trkpt>
      <trkpt lat="41.95428" lon="-8.76733">
        <ele>20.611</ele>
        <time>2018-07-28T11:02:42Z</time>
      </trkpt>
      <trkpt lat="41.9543" lon="-8.76758">
        <ele>21.433</ele>
        <time>2018-07-28T11:02:43Z</time>
      </trkpt>
      <trkpt lat="41.95432" lon="-8.76783">
        <ele>22.723</ele>
        <time>2018-07-28T11:02:44Z</time>
      </trkpt>
      <trkpt lat="41.95433" lon="-8.76809">
        <ele>24.115</ele>
        <time>2018-07-28T11:02:45Z</time>
      </trkpt>
      <trkpt lat="41.95435" lon="-8.76834">
        <ele>25.308</ele>
        <time>2018-07-28T11:02:46Z</time>
      </trkpt>
      <trkpt lat="41.95431" lon="-8.7686">
        <ele>26.375</ele>
        <time>2018-07-28T11:02:47Z</time>
      </trkpt>
      <trkpt lat="41.9543" lon="-8.76889">
        <ele>27.19</ele>
        <time>2018-07-28T11:02:48Z</time>
      </trkpt>
      <trkpt lat="41.95429" lon="-8.7692">
        <ele>27.633</ele>
        <time>2018-07-28T11:02:49Z</time>
      </trkpt>
      <trkpt lat="41.95426" lon="-8.76948">
        <ele>28.435</ele>
        <time>2018-07-28T11:02:50Z</time>
      </trkpt>
      <trkpt lat="41.95422" lon="-8.76977">
        <ele>28.92</ele>
        <time>2018-07-28T11:02:51Z</time>
      </trkpt>
      <trkpt lat="41.9542" lon="-8.77006">
        <ele>29.775</ele>
        <time>2018-07-28T11:02:52Z</time>
      </trkpt>
      <trkpt lat="41.95413" lon="-8.77036">
        <ele>30.583</ele>
        <time>2018-07-28T11:02:53Z</time>
      </trkpt>
      <trkpt lat="41.95405" lon="-8.77068">
        <ele>31.559</ele>
        <time>2018-07-28T11:02:54Z</time>
      </trkpt>
      <trkpt lat="41.95401" lon="-8.77094">
        <ele>32.531</ele>
        <time>2018-07-28T11:02:55Z</time>
      </trkpt>
      <trkpt lat="41.95393" lon="-8.77128">
        <ele>33.461</ele>
        <time>2018-07-28T11:02:56Z</time>
      </trkpt>
      <trkpt lat="41.95385" lon="-8.77155">
        <ele>34.007</ele>
        <time>2018-07-28T11:02:57Z</time>
      </trkpt>
      <trkpt lat="41.95378" lon="-8.77184">
        <ele>34.208</ele>
        <time>2018-07-28T11:02:58Z</time>
      </trkpt>
      <trkpt lat="41.9537" lon="-8.77209">
        <ele>34.595</ele>
        <time>2018-07-28T11:02:59Z</time>
      </trkpt>
      <trkpt lat="41.9536" lon="-8.77238">
        <ele>34.72</ele>
        <time>2018-07-28T11:03:00Z</time>
      </trkpt>
      <trkpt lat="41.95348" lon="-8.77267">
        <ele>34.753</ele>
        <time>2018-07-28T11:03:01Z</time>
      </trkpt>
      <trkpt lat="41.95338" lon="-8.77294">
        <ele>35.095</ele>
        <time>2018-07-28T11:03:02Z</time>
      </trkpt>
      <trkpt lat="41.95324" lon="-8.77317">
        <ele>35.34</ele>
        <time>2018-07-28T11:03:03Z</time>
      </trkpt>
      <trkpt lat="41.95316" lon="-8.77349">
        <ele>35.595</ele>
        <time>2018-07-28T11:03:04Z</time>
      </trkpt>
      <trkpt lat="41.95307" lon="-8.77377">
        <ele>36.273</ele>
        <time>2018-07-28T11:03:05Z</time>
      </trkpt>
      <trkpt lat="41.95296" lon="-8.77406">
        <ele>37.039</ele>
        <time>2018-07-28T11:03:06Z</time>
      </trkpt>
      <trkpt lat="41.95284" lon="-8.77436">
        <ele>37.869</ele>
        <time>2018-07-28T11:03:07Z</time>
      </trkpt>
      <trkpt lat="41.95278" lon="-8.77466">
        <ele>38.504</ele>
        <time>2018-07-28T11:03:08Z</time>
      </trkpt>
      <trkpt lat="41.95273" lon="-8.77498">
        <ele>39.224</ele>
        <time>2018-07-28T11:03:09Z</time>
      </trkpt>
      <trkpt lat="41.95269" lon="-8.77531">
        <ele>39.408</ele>
        <time>2018-07-28T11:03:10Z</time>
      </trkpt>
      <trkpt lat="41.95264" lon="-8.77565">
        <ele>39.998</ele>
        <time>2018-07-28T11:03:11Z</time>
      </trkpt>
      <trkpt lat="41.9526" lon="-8.77596">
        <ele>40.393</ele>
        <time>2018-07-28T11:03:12Z</time>
      </trkpt>
      <trkpt lat="41.95256" lon="-8.7763">
        <ele>41.336</ele>
        <time>2018-07-28T11:03:13Z</time>
      </trkpt>
      <trkpt lat="41.95254" lon="-8.77667">
        <ele>42.448</ele>
        <time>2018-07-28T11:03:14Z</time>
      </trkpt>
      <trkpt lat="41.95254" lon="-8.777">
        <ele>43.823</ele>
        <time>2018-07-28T11:03:15Z</time>
      </trkpt>
      <trkpt lat="41.95254" lon="-8.77736">
        <ele>45.138</ele>
        <time>2018-07-28T11:03:16Z</time>
      </trkpt>
      <trkpt lat="41.95255" lon="-8.7777">
        <ele>46.346</ele>
        <time>2018-07-28T11:03:17Z</time>
      </trkpt>
      <trkpt lat="41.95257" lon="-8.77806">
        <ele>47.212</ele>
        <time>2018-07-28T11:03:18Z</time>
      </trkpt>
      <trkpt lat="41.95261" lon="-8.7784">
        <ele>48.976</ele>
        <time>2018-07-28T11:03:19Z</time>
      </trkpt>
      <trkpt lat="41.95265" lon="-8.77872">
        <ele>49.49</ele>
        <time>2018-07-28T11:03:20Z</time>
      </trkpt>
      <trkpt lat="41.95269" lon="-8.77905">
        <ele>50.119</ele>
        <time>2018-07-28T11:03:21Z</time>
      </trkpt>
      <trkpt lat="41.95273" lon="-8.77937">
        <ele>51.108</ele>
        <time>2018-07-28T11:03:22Z</time>
      </trkpt>
      <trkpt lat="41.95276" lon="-8.77969">
        <ele>51.659</ele>
        <time>2018-07-28T11:03:23Z</time>
      </trkpt>
      <trkpt lat="41.9528" lon="-8.78001">
        <ele>52.134</ele>
        <time>2018-07-28T11:03:24Z</time>
      </trkpt>
      <trkpt lat="41.95282" lon="-8.78033">
        <ele>52.517</ele>
        <time>2018-07-28T11:03:25Z</time>
      </trkpt>
      <trkpt lat="41.95285" lon="-8.78065">
        <ele>52.769</ele>
        <time>2018-07-28T11:03:26Z</time>
      </trkpt>
      <trkpt lat="41.95289" lon="-8.78096">
        <ele>52.794</ele>
        <time>2018-07-28T11:03:27Z</time>
      </trkpt>
      <trkpt lat="41.95293" lon="-8.78127">
        <ele>52.999</ele>
        <time>2018-07-28T11:03:28Z</time>
      </trkpt>
      <trkpt lat="41.95298" lon="-8.78158">
        <ele>53.477</ele>
        <time>2018-07-28T11:03:29Z</time>
      </trkpt>
      <trkpt lat="41.95304" lon="-8.7819">
        <ele>54.443</ele>
        <time>2018-07-28T11:03:30Z</time>
      </trkpt>
      <trkpt lat="41.95308" lon="-8.78223">
        <ele>55.389</ele>
        <time>2018-07-28T11:03:31Z</time>
      </trkpt>
      <trkpt lat="41.95313" lon="-8.78255">
        <ele>56.106</ele>
        <time>2018-07-28T11:03:32Z</time>
      </trkpt>
      <trkpt lat="41.95318" lon="-8.78286">
        <ele>56.926</ele>
        <time>2018-07-28T11:03:33Z</time>
      </trkpt>
      <trkpt lat="41.95322" lon="-8.78319">
        <ele>58.208</ele>
        <time>2018-07-28T11:03:34Z</time>
      </trkpt>
      <trkpt lat="41.95322" lon="-8.78352">
        <ele>58.69</ele>
        <time>2018-07-28T11:03:35Z</time>
      </trkpt>
      <trkpt lat="41.95327" lon="-8.78386">
        <ele>59.375</ele>
        <time>2018-07-28T11:03:36Z</time>
      </trkpt>
      <trkpt lat="41.95331" lon="-8.7842">
        <ele>60.488</ele>
        <time>2018-07-28T11:03:37Z</time>
      </trkpt>
      <trkpt lat="41.95335" lon="-8.78456">
        <ele>61.15</ele>
        <time>2018-07-28T11:03:38Z</time>
      </trkpt>
      <trkpt lat="41.95339" lon="-8.78489">
        <ele>61.525</ele>
        <time>2018-07-28T11:03:39Z</time>
      </trkpt>
      <trkpt lat="41.95343" lon="-8.78522">
        <ele>62.14</ele>
        <time>2018-07-28T11:03:40Z</time>
      </trkpt>
      <trkpt lat="41.95347" lon="-8.78555">
        <ele>62.238</ele>
        <time>2018-07-28T11:03:41Z</time>
      </trkpt>
      <trkpt lat="41.95349" lon="-8.78587">
        <ele>62.364</ele>
        <time>2018-07-28T11:03:42Z</time>
      </trkpt>
      <trkpt lat="41.95354" lon="-8.7862">
        <ele>62.581</ele>
        <time>2018-07-28T11:03:43Z</time>
      </trkpt>
      <trkpt lat="41.95358" lon="-8.78651">
        <ele>62.861</ele>
        <time>2018-07-28T11:03:44Z</time>
      </trkpt>
      <trkpt lat="41.95363" lon="-8.78682">
        <ele>63.117</ele>
        <time>2018-07-28T11:03:45Z</time>
      </trkpt>
      <trkpt lat="41.95368" lon="-8.78716">
        <ele>63.608</ele>
        <time>2018-07-28T11:03:46Z</time>
      </trkpt>
      <trkpt lat="41.95371" lon="-8.78751">
        <ele>64.39</ele>
        <time>2018-07-28T11:03:47Z</time>
      </trkpt>
      <trkpt lat="41.95373" lon="-8.78786">
        <ele>65.365</ele>
        <time>2018-07-28T11:03:48Z</time>
      </trkpt>
      <trkpt lat="41.95374" lon="-8.78823">
        <ele>68.148</ele>
        <time>2018-07-28T11:03:49Z</time>
      </trkpt>
      <trkpt lat="41.95374" lon="-8.78862">
        <ele>69.42</ele>
        <time>2018-07-28T11:03:50Z</time>
      </trkpt>
      <trkpt lat="41.95374" lon="-8.78898">
        <ele>70.565</ele>
        <time>2018-07-28T11:03:51Z</time>
      </trkpt>
      <trkpt lat="41.95373" lon="-8.78929">
        <ele>71.19</ele>
        <time>2018-07-28T11:03:52Z</time>
      </trkpt>
      <trkpt lat="41.95371" lon="-8.78964">
        <ele>71.318</ele>
        <time>2018-07-28T11:03:53Z</time>
      </trkpt>
      <trkpt lat="41.95366" lon="-8.78999">
        <ele>71.854</ele>
        <time>2018-07-28T11:03:54Z</time>
      </trkpt>
      <trkpt lat="41.9536" lon="-8.79034">
        <ele>72.582</ele>
        <time>2018-07-28T11:03:55Z</time>
      </trkpt>
      <trkpt lat="41.95353" lon="-8.79071">
        <ele>73.343</ele>
        <time>2018-07-28T11:03:56Z</time>
      </trkpt>
      <trkpt lat="41.95344" lon="-8.79106">
        <ele>74.317</ele>
        <time>2018-07-28T11:03:57Z</time>
      </trkpt>
      <trkpt lat="41.95336" lon="-8.79142">
        <ele>75.608</ele>
        <time>2018-07-28T11:03:58Z</time>
      </trkpt>
      <trkpt lat="41.95328" lon="-8.79177">
        <ele>76.62</ele>
        <time>2018-07-28T11:03:59Z</time>
      </trkpt>
      <trkpt lat="41.95316" lon="-8.79211">
        <ele>77.865</ele>
        <time>2018-07-28T11:04:00Z</time>
      </trkpt>
      <trkpt lat="41.95303" lon="-8.79245">
        <ele>79.018</ele>
        <time>2018-07-28T11:04:01Z</time>
      </trkpt>
      <trkpt lat="41.95289" lon="-8.7928">
        <ele>80.79</ele>
        <time>2018-07-28T11:04:02Z</time>
      </trkpt>
      <trkpt lat="41.95274" lon="-8.79308">
        <ele>82.055</ele>
        <time>2018-07-28T11:04:03Z</time>
      </trkpt>
      <trkpt lat="41.95256" lon="-8.79338">
        <ele>84.48</ele>
        <time>2018-07-28T11:04:04Z</time>
      </trkpt>
      <trkpt lat="41.95238" lon="-8.79368">
        <ele>85.248</ele>
        <time>2018-07-28T11:04:05Z</time>
      </trkpt>
      <trkpt lat="41.9522" lon="-8.79398">
        <ele>85.444</ele>
        <time>2018-07-28T11:04:06Z</time>
      </trkpt>
      <trkpt lat="41.95201" lon="-8.79427">
        <ele>85.478</ele>
        <time>2018-07-28T11:04:07Z</time>
      </trkpt>
      <trkpt lat="41.95181" lon="-8.79454">
        <ele>85.333</ele>
        <time>2018-07-28T11:04:08Z</time>
      </trkpt>
      <trkpt lat="41.95159" lon="-8.79479">
        <ele>85.326</ele>
        <time>2018-07-28T11:04:09Z</time>
      </trkpt>
      <trkpt lat="41.95137" lon="-8.79499">
        <ele>85.808</ele>
        <time>2018-07-28T11:04:10Z</time>
      </trkpt>
      <trkpt lat="41.95114" lon="-8.7952">
        <ele>86.659</ele>
        <time>2018-07-28T11:04:11Z</time>
      </trkpt>
      <trkpt lat="41.9509" lon="-8.79538">
        <ele>88.094</ele>
        <time>2018-07-28T11:04:12Z</time>
      </trkpt>
      <trkpt lat="41.95065" lon="-8.79555">
        <ele>89.277</ele>
        <time>2018-07-28T11:04:13Z</time>
      </trkpt>
      <trkpt lat="41.95041" lon="-8.79574">
        <ele>90.059</ele>
        <time>2018-07-28T11:04:14Z</time>
      </trkpt>
      <trkpt lat="41.95017" lon="-8.79592">
        <ele>90.544</ele>
        <time>2018-07-28T11:04:15Z</time>
      </trkpt>
      <trkpt lat="41.9499" lon="-8.79606">
        <ele>90.819</ele>
        <time>2018-07-28T11:04:16Z</time>
      </trkpt>
      <trkpt lat="41.94966" lon="-8.7962">
        <ele>90.957</ele>
        <time>2018-07-28T11:04:17Z</time>
      </trkpt>
      <trkpt lat="41.9494" lon="-8.7963">
        <ele>90.983</ele>
        <time>2018-07-28T11:04:18Z</time>
      </trkpt>
      <trkpt lat="41.94914" lon="-8.79639">
        <ele>92.032</ele>
        <time>2018-07-28T11:04:19Z</time>
      </trkpt>
      <trkpt lat="41.94887" lon="-8.79648">
        <ele>92.692</ele>
        <time>2018-07-28T11:04:20Z</time>
      </trkpt>
      <trkpt lat="41.94858" lon="-8.79654">
        <ele>93.111</ele>
        <time>2018-07-28T11:04:21Z</time>
      </trkpt>
      <trkpt lat="41.94828" lon="-8.79658">
        <ele>93.708</ele>
        <time>2018-07-28T11:04:22Z</time>
      </trkpt>
      <trkpt lat="41.948" lon="-8.79662">
        <ele>94.325</ele>
        <time>2018-07-28T11:04:23Z</time>
      </trkpt>
      <trkpt lat="41.94771" lon="-8.7966">
        <ele>94.55</ele>
        <time>2018-07-28T11:04:24Z</time>
      </trkpt>
      <trkpt lat="41.94741" lon="-8.79657">
        <ele>95.043</ele>
        <time>2018-07-28T11:04:25Z</time>
      </trkpt>
      <trkpt lat="41.94713" lon="-8.79654">
        <ele>95.195</ele>
        <time>2018-07-28T11:04:26Z</time>
      </trkpt>
      <trkpt lat="41.94684" lon="-8.7965">
        <ele>95.57</ele>
        <time>2018-07-28T11:04:27Z</time>
      </trkpt>
      <trkpt lat="41.94656" lon="-8.79644">
        <ele>96.075</ele>
        <time>2018-07-28T11:04:28Z</time>
      </trkpt>
      <trkpt lat="41.94628" lon="-8.79636">
        <ele>96.353</ele>
        <time>2018-07-28T11:04:29Z</time>
      </trkpt>
      <trkpt lat="41.946" lon="-8.79627">
        <ele>96.519</ele>
        <time>2018-07-28T11:04:30Z</time>
      </trkpt>
      <trkpt lat="41.94573" lon="-8.79616">
        <ele>97.366</ele>
        <time>2018-07-28T11:04:31Z</time>
      </trkpt>
      <trkpt lat="41.94548" lon="-8.79605">
        <ele>97.429</ele>
        <time>2018-07-28T11:04:32Z</time>
      </trkpt>
      <trkpt lat="41.94521" lon="-8.79596">
        <ele>97.821</ele>
        <time>2018-07-28T11:04:33Z</time>
      </trkpt>
      <trkpt lat="41.94495" lon="-8.79586">
        <ele>98.308</ele>
        <time>2018-07-28T11:04:34Z</time>
      </trkpt>
      <trkpt lat="41.94469" lon="-8.79579">
        <ele>98.958</ele>
        <time>2018-07-28T11:04:35Z</time>
      </trkpt>
      <trkpt lat="41.94441" lon="-8.79574">
        <ele>99.663</ele>
        <time>2018-07-28T11:04:36Z</time>
      </trkpt>
      <trkpt lat="41.94413" lon="-8.79564">
        <ele>100.516</ele>
        <time>2018-07-28T11:04:37Z</time>
      </trkpt>
      <trkpt lat="41.94383" lon="-8.79558">
        <ele>101.868</ele>
        <time>2018-07-28T11:04:38Z</time>
      </trkpt>
      <trkpt lat="41.94354" lon="-8.79554">
        <ele>102.633</ele>
        <time>2018-07-28T11:04:39Z</time>
      </trkpt>
      <trkpt lat="41.94323" lon="-8.79555">
        <ele>103.338</ele>
        <time>2018-07-28T11:04:40Z</time>
      </trkpt>
      <trkpt lat="41.94293" lon="-8.79558">
        <ele>103.856</ele>
        <time>2018-07-28T11:04:41Z</time>
      </trkpt>
      <trkpt lat="41.94263" lon="-8.79561">
        <ele>104.232</ele>
        <time>2018-07-28T11:04:42Z</time>
      </trkpt>
      <trkpt lat="41.94232" lon="-8.79565">
        <ele>104.685</ele>
        <time>2018-07-28T11:04:43Z</time>
      </trkpt>
      <trkpt lat="41.94201" lon="-8.79572">
        <ele>105.189</ele>
        <time>2018-07-28T11:04:44Z</time>
      </trkpt>
      <trkpt lat="41.94171" lon="-8.79582">
        <ele>105.817</ele>
        <time>2018-07-28T11:04:45Z</time>
      </trkpt>
      <trkpt lat="41.9414" lon="-8.7959">
        <ele>106.208</ele>
        <time>2018-07-28T11:04:46Z</time>
      </trkpt>
      <trkpt lat="41.94107" lon="-8.796">
        <ele>106.81</ele>
        <time>2018-07-28T11:04:47Z</time>
      </trkpt>
      <trkpt lat="41.94075" lon="-8.79609">
        <ele>107.425</ele>
        <time>2018-07-28T11:04:48Z</time>
      </trkpt>
      <trkpt lat="41.94042" lon="-8.79621">
        <ele>108.338</ele>
        <time>2018-07-28T11:04:49Z</time>
      </trkpt>
      <trkpt lat="41.9401" lon="-8.79634">
        <ele>109.05</ele>
        <time>2018-07-28T11:04:50Z</time>
      </trkpt>
      <trkpt lat="41.93978" lon="-8.79651">
        <ele>109.575</ele>
        <time>2018-07-28T11:04:51Z</time>
      </trkpt>
      <trkpt lat="41.93946" lon="-8.79666">
        <ele>110.03</ele>
        <time>2018-07-28T11:04:52Z</time>
      </trkpt>
      <trkpt lat="41.93915" lon="-8.79682">
        <ele>110.418</ele>
        <time>2018-07-28T11:04:53Z</time>
      </trkpt>
      <trkpt lat="41.93881" lon="-8.79689">
        <ele>110.814</ele>
        <time>2018-07-28T11:04:54Z</time>
      </trkpt>
      <trkpt lat="41.9385" lon="-8.79704">
        <ele>110.837</ele>
        <time>2018-07-28T11:04:55Z</time>
      </trkpt>
      <trkpt lat="41.93818" lon="-8.79718">
        <ele>110.749</ele>
        <time>2018-07-28T11:04:56Z</time>
      </trkpt>
      <trkpt lat="41.93787" lon="-8.79733">
        <ele>109.813</ele>
        <time>2018-07-28T11:04:57Z</time>
      </trkpt>
      <trkpt lat="41.93756" lon="-8.79746">
        <ele>109.208</ele>
        <time>2018-07-28T11:04:58Z</time>
      </trkpt>
      <trkpt lat="41.93725" lon="-8.79761">
        <ele>108.245</ele>
        <time>2018-07-28T11:04:59Z</time>
      </trkpt>
      <trkpt lat="41.93695" lon="-8.79774">
        <ele>107.57</ele>
        <time>2018-07-28T11:05:00Z</time>
      </trkpt>
      <trkpt lat="41.93668" lon="-8.79783">
        <ele>106.313</ele>
        <time>2018-07-28T11:05:01Z</time>
      </trkpt>
      <trkpt lat="41.93639" lon="-8.79795">
        <ele>105.565</ele>
        <time>2018-07-28T11:05:02Z</time>
      </trkpt>
      <trkpt lat="41.93611" lon="-8.79805">
        <ele>104.78</ele>
        <time>2018-07-28T11:05:03Z</time>
      </trkpt>
      <trkpt lat="41.93583" lon="-8.79818">
        <ele>103.855</ele>
        <time>2018-07-28T11:05:04Z</time>
      </trkpt>
      <trkpt lat="41.93555" lon="-8.79834">
        <ele>104.243</ele>
        <time>2018-07-28T11:05:05Z</time>
      </trkpt>
      <trkpt lat="41.93527" lon="-8.79849">
        <ele>105.249</ele>
        <time>2018-07-28T11:05:06Z</time>
      </trkpt>
      <trkpt lat="41.93498" lon="-8.79864">
        <ele>106.817</ele>
        <time>2018-07-28T11:05:07Z</time>
      </trkpt>
      <trkpt lat="41.9347" lon="-8.79883">
        <ele>108.787</ele>
        <time>2018-07-28T11:05:08Z</time>
      </trkpt>
      <trkpt lat="41.93442" lon="-8.79903">
        <ele>110.115</ele>
        <time>2018-07-28T11:05:09Z</time>
      </trkpt>
      <trkpt lat="41.93415" lon="-8.79924">
        <ele>111.408</ele>
        <time>2018-07-28T11:05:10Z</time>
      </trkpt>
      <trkpt lat="41.93389" lon="-8.7995">
        <ele>112.443</ele>
        <time>2018-07-28T11:05:11Z</time>
      </trkpt>
      <trkpt lat="41.93366" lon="-8.79976">
        <ele>112.838</ele>
        <time>2018-07-28T11:05:12Z</time>
      </trkpt>
      <trkpt lat="41.93347" lon="-8.80006">
        <ele>113.241</ele>
        <time>2018-07-28T11:05:13Z</time>
      </trkpt>
      <trkpt lat="41.93327" lon="-8.80035">
        <ele>113.823</ele>
        <time>2018-07-28T11:05:14Z</time>
      </trkpt>
      <trkpt lat="41.93306" lon="-8.80065">
        <ele>114.688</ele>
        <time>2018-07-28T11:05:15Z</time>
      </trkpt>
      <trkpt lat="41.93286" lon="-8.80096">
        <ele>115.193</ele>
        <time>2018-07-28T11:05:16Z</time>
      </trkpt>
      <trkpt lat="41.93264" lon="-8.80124">
        <ele>115.431</ele>
        <time>2018-07-28T11:05:17Z</time>
      </trkpt>
      <trkpt lat="41.93247" lon="-8.80156">
        <ele>115.487</ele>
        <time>2018-07-28T11:05:18Z</time>
      </trkpt>
      <trkpt lat="41.93228" lon="-8.80189">
        <ele>115.467</ele>
        <time>2018-07-28T11:05:19Z</time>
      </trkpt>
      <trkpt lat="41.93214" lon="-8.80223">
        <ele>115.481</ele>
        <time>2018-07-28T11:05:20Z</time>
      </trkpt>
      <trkpt lat="41.932" lon="-8.80258">
        <ele>115.619</ele>
        <time>2018-07-28T11:05:21Z</time>
      </trkpt>
      <trkpt lat="41.93186" lon="-8.80292">
        <ele>115.708</ele>
        <time>2018-07-28T11:05:22Z</time>
      </trkpt>
      <trkpt lat="41.93176" lon="-8.80329">
        <ele>116.158</ele>
        <time>2018-07-28T11:05:23Z</time>
      </trkpt>
      <trkpt lat="41.93167" lon="-8.80369">
        <ele>116.273</ele>
        <time>2018-07-28T11:05:24Z</time>
      </trkpt>
      <trkpt lat="41.9316" lon="-8.80406">
        <ele>116.696</ele>
        <time>2018-07-28T11:05:25Z</time>
      </trkpt>
      <trkpt lat="41.93152" lon="-8.80443">
        <ele>116.978</ele>
        <time>2018-07-28T11:05:26Z</time>
      </trkpt>
      <trkpt lat="41.93142" lon="-8.80478">
        <ele>117.613</ele>
        <time>2018-07-28T11:05:27Z</time>
      </trkpt>
      <trkpt lat="41.93133" lon="-8.80518">
        <ele>118.438</ele>
        <time>2018-07-28T11:05:28Z</time>
      </trkpt>
      <trkpt lat="41.9312" lon="-8.80555">
        <ele>118.786</ele>
        <time>2018-07-28T11:05:29Z</time>
      </trkpt>
      <trkpt lat="41.93106" lon="-8.80592">
        <ele>118.852</ele>
        <time>2018-07-28T11:05:30Z</time>
      </trkpt>
      <trkpt lat="41.93088" lon="-8.80627">
        <ele>119.375</ele>
        <time>2018-07-28T11:05:31Z</time>
      </trkpt>
      <trkpt lat="41.93071" lon="-8.8066">
        <ele>119.328</ele>
        <time>2018-07-28T11:05:32Z</time>
      </trkpt>
      <trkpt lat="41.93054" lon="-8.80692">
        <ele>119.02</ele>
        <time>2018-07-28T11:05:33Z</time>
      </trkpt>
      <trkpt lat="41.93035" lon="-8.80725">
        <ele>118.208</ele>
        <time>2018-07-28T11:05:34Z</time>
      </trkpt>
      <trkpt lat="41.93014" lon="-8.80753">
        <ele>117.639</ele>
        <time>2018-07-28T11:05:35Z</time>
      </trkpt>
      <trkpt lat="41.92991" lon="-8.80779">
        <ele>116.854</ele>
        <time>2018-07-28T11:05:36Z</time>
      </trkpt>
      <trkpt lat="41.92968" lon="-8.80805">
        <ele>116.517</ele>
        <time>2018-07-28T11:05:37Z</time>
      </trkpt>
      <trkpt lat="41.92944" lon="-8.8083">
        <ele>115.919</ele>
        <time>2018-07-28T11:05:38Z</time>
      </trkpt>
      <trkpt lat="41.92919" lon="-8.80854">
        <ele>115.764</ele>
        <time>2018-07-28T11:05:39Z</time>
      </trkpt>
      <trkpt lat="41.92893" lon="-8.80872">
        <ele>114.979</ele>
        <time>2018-07-28T11:05:40Z</time>
      </trkpt>
      <trkpt lat="41.92867" lon="-8.80891">
        <ele>114.457</ele>
        <time>2018-07-28T11:05:41Z</time>
      </trkpt>
      <trkpt lat="41.92843" lon="-8.80908">
        <ele>113.083</ele>
        <time>2018-07-28T11:05:42Z</time>
      </trkpt>
      <trkpt lat="41.92819" lon="-8.80923">
        <ele>111.775</ele>
        <time>2018-07-28T11:05:43Z</time>
      </trkpt>
      <trkpt lat="41.92796" lon="-8.80938">
        <ele>109.428</ele>
        <time>2018-07-28T11:05:44Z</time>
      </trkpt>
      <trkpt lat="41.92773" lon="-8.80952">
        <ele>106.82</ele>
        <time>2018-07-28T11:05:45Z</time>
      </trkpt>
      <trkpt lat="41.92752" lon="-8.80968">
        <ele>103.508</ele>
        <time>2018-07-28T11:05:46Z</time>
      </trkpt>
      <trkpt lat="41.92731" lon="-8.80981">
        <ele>100.939</ele>
        <time>2018-07-28T11:05:47Z</time>
      </trkpt>
      <trkpt lat="41.92711" lon="-8.80992">
        <ele>97.164</ele>
        <time>2018-07-28T11:05:48Z</time>
      </trkpt>
      <trkpt lat="41.92691" lon="-8.81004">
        <ele>95.237</ele>
        <time>2018-07-28T11:05:49Z</time>
      </trkpt>
      <trkpt lat="41.92673" lon="-8.81017">
        <ele>93.459</ele>
        <time>2018-07-28T11:05:50Z</time>
      </trkpt>
      <trkpt lat="41.92654" lon="-8.81032">
        <ele>91.974</ele>
        <time>2018-07-28T11:05:51Z</time>
      </trkpt>
      <trkpt lat="41.92633" lon="-8.8105">
        <ele>90.589</ele>
        <time>2018-07-28T11:05:52Z</time>
      </trkpt>
      <trkpt lat="41.92614" lon="-8.81067">
        <ele>88.347</ele>
        <time>2018-07-28T11:05:53Z</time>
      </trkpt>
      <trkpt lat="41.92594" lon="-8.81085">
        <ele>87.843</ele>
        <time>2018-07-28T11:05:54Z</time>
      </trkpt>
      <trkpt lat="41.92575" lon="-8.81106">
        <ele>87.399</ele>
        <time>2018-07-28T11:05:55Z</time>
      </trkpt>
      <trkpt lat="41.92555" lon="-8.81129">
        <ele>86.807</ele>
        <time>2018-07-28T11:05:56Z</time>
      </trkpt>
      <trkpt lat="41.92534" lon="-8.81154">
        <ele>86.427</ele>
        <time>2018-07-28T11:05:57Z</time>
      </trkpt>
      <trkpt lat="41.92516" lon="-8.81181">
        <ele>86.208</ele>
        <time>2018-07-28T11:05:58Z</time>
      </trkpt>
      <trkpt lat="41.92498" lon="-8.81207">
        <ele>85.781</ele>
        <time>2018-07-28T11:05:59Z</time>
      </trkpt>
      <trkpt lat="41.92485" lon="-8.81233">
        <ele>85.156</ele>
        <time>2018-07-28T11:06:00Z</time>
      </trkpt>
      <trkpt lat="41.92474" lon="-8.81261">
        <ele>84.599</ele>
        <time>2018-07-28T11:06:01Z</time>
      </trkpt>
      <trkpt lat="41.92464" lon="-8.81289">
        <ele>82.451</ele>
        <time>2018-07-28T11:06:02Z</time>
      </trkpt>
      <trkpt lat="41.92454" lon="-8.81317">
        <ele>81.036</ele>
        <time>2018-07-28T11:06:03Z</time>
      </trkpt>
      <trkpt lat="41.92444" lon="-8.81345">
        <ele>79.721</ele>
        <time>2018-07-28T11:06:04Z</time>
      </trkpt>
      <trkpt lat="41.92435" lon="-8.81374">
        <ele>78.269</ele>
        <time>2018-07-28T11:06:05Z</time>
      </trkpt>
      <trkpt lat="41.92428" lon="-8.81402">
        <ele>76.955</ele>
        <time>2018-07-28T11:06:06Z</time>
      </trkpt>
      <trkpt lat="41.92421" lon="-8.81433">
        <ele>75.892</ele>
        <time>2018-07-28T11:06:07Z</time>
      </trkpt>
      <trkpt lat="41.92412" lon="-8.81465">
        <ele>74.973</ele>
        <time>2018-07-28T11:06:08Z</time>
      </trkpt>
      <trkpt lat="41.92407" lon="-8.81494">
        <ele>74.32</ele>
        <time>2018-07-28T11:06:09Z</time>
      </trkpt>
      <trkpt lat="41.92401" lon="-8.81525">
        <ele>73.708</ele>
        <time>2018-07-28T11:06:10Z</time>
      </trkpt>
      <trkpt lat="41.92397" lon="-8.81559">
        <ele>73.041</ele>
        <time>2018-07-28T11:06:11Z</time>
      </trkpt>
      <trkpt lat="41.92394" lon="-8.81592">
        <ele>72.726</ele>
        <time>2018-07-28T11:06:12Z</time>
      </trkpt>
      <trkpt lat="41.92393" lon="-8.81625">
        <ele>72.149</ele>
        <time>2018-07-28T11:06:13Z</time>
      </trkpt>
      <trkpt lat="41.9239" lon="-8.81657">
        <ele>71.221</ele>
        <time>2018-07-28T11:06:14Z</time>
      </trkpt>
      <trkpt lat="41.9239" lon="-8.81687">
        <ele>70.596</ele>
        <time>2018-07-28T11:06:15Z</time>
      </trkpt>
      <trkpt lat="41.9239" lon="-8.81717">
        <ele>70.071</ele>
        <time>2018-07-28T11:06:16Z</time>
      </trkpt>
      <trkpt lat="41.92392" lon="-8.81745">
        <ele>66.749</ele>
        <time>2018-07-28T11:06:17Z</time>
      </trkpt>
      <trkpt lat="41.92392" lon="-8.81772">
        <ele>64.655</ele>
        <time>2018-07-28T11:06:18Z</time>
      </trkpt>
      <trkpt lat="41.92392" lon="-8.81794">
        <ele>62.476</ele>
        <time>2018-07-28T11:06:19Z</time>
      </trkpt>
      <trkpt lat="41.92393" lon="-8.81819">
        <ele>59.99</ele>
        <time>2018-07-28T11:06:20Z</time>
      </trkpt>
      <trkpt lat="41.92396" lon="-8.81839">
        <ele>57.719</ele>
        <time>2018-07-28T11:06:21Z</time>
      </trkpt>
      <trkpt lat="41.92398" lon="-8.8186">
        <ele>55.908</ele>
        <time>2018-07-28T11:06:22Z</time>
      </trkpt>
      <trkpt lat="41.92401" lon="-8.81873">
        <ele>54.489</ele>
        <time>2018-07-28T11:06:23Z</time>
      </trkpt>
      <trkpt lat="41.92396" lon="-8.81893">
        <ele>52.994</ele>
        <time>2018-07-28T11:06:24Z</time>
      </trkpt>
      <trkpt lat="41.92397" lon="-8.81907">
        <ele>51.577</ele>
        <time>2018-07-28T11:06:25Z</time>
      </trkpt>
      <trkpt lat="41.92398" lon="-8.8192">
        <ele>50.199</ele>
        <time>2018-07-28T11:06:26Z</time>
      </trkpt>
      <trkpt lat="41.92399" lon="-8.81933">
        <ele>48.784</ele>
        <time>2018-07-28T11:06:27Z</time>
      </trkpt>
      <trkpt lat="41.92404" lon="-8.81941">
        <ele>47.559</ele>
        <time>2018-07-28T11:06:28Z</time>
      </trkpt>
      <trkpt lat="41.92409" lon="-8.8195">
        <ele>46.577</ele>
        <time>2018-07-28T11:06:29Z</time>
      </trkpt>
      <trkpt lat="41.92414" lon="-8.81958">
        <ele>45.743</ele>
        <time>2018-07-28T11:06:30Z</time>
      </trkpt>
      <trkpt lat="41.92416" lon="-8.81972">
        <ele>44.555</ele>
        <time>2018-07-28T11:06:31Z</time>
      </trkpt>
      <trkpt lat="41.92416" lon="-8.81986">
        <ele>44.207</ele>
        <time>2018-07-28T11:06:32Z</time>
      </trkpt>
      <trkpt lat="41.92409" lon="-8.82">
        <ele>43.917</ele>
        <time>2018-07-28T11:06:33Z</time>
      </trkpt>
      <trkpt lat="41.92401" lon="-8.82015">
        <ele>43.908</ele>
        <time>2018-07-28T11:06:34Z</time>
      </trkpt>
      <trkpt lat="41.92395" lon="-8.82033">
        <ele>44.047</ele>
        <time>2018-07-28T11:06:35Z</time>
      </trkpt>
      <trkpt lat="41.92392" lon="-8.82054">
        <ele>44.462</ele>
        <time>2018-07-28T11:06:36Z</time>
      </trkpt>
      <trkpt lat="41.92386" lon="-8.82075">
        <ele>44.945</ele>
        <time>2018-07-28T11:06:37Z</time>
      </trkpt>
      <trkpt lat="41.92381" lon="-8.82097">
        <ele>45.347</ele>
        <time>2018-07-28T11:06:38Z</time>
      </trkpt>
      <trkpt lat="41.92379" lon="-8.82121">
        <ele>45.642</ele>
        <time>2018-07-28T11:06:39Z</time>
      </trkpt>
      <trkpt lat="41.92372" lon="-8.82149">
        <ele>46.087</ele>
        <time>2018-07-28T11:06:40Z</time>
      </trkpt>
      <trkpt lat="41.92365" lon="-8.82177">
        <ele>46.545</ele>
        <time>2018-07-28T11:06:41Z</time>
      </trkpt>
      <trkpt lat="41.92356" lon="-8.82208">
        <ele>47.281</ele>
        <time>2018-07-28T11:06:42Z</time>
      </trkpt>
      <trkpt lat="41.92343" lon="-8.82241">
        <ele>48.435</ele>
        <time>2018-07-28T11:06:43Z</time>
      </trkpt>
      <trkpt lat="41.9233" lon="-8.82277">
        <ele>50.386</ele>
        <time>2018-07-28T11:06:44Z</time>
      </trkpt>
      <trkpt lat="41.92314" lon="-8.82315">
        <ele>52.214</ele>
        <time>2018-07-28T11:06:45Z</time>
      </trkpt>
      <trkpt lat="41.92303" lon="-8.82354">
        <ele>55.008</ele>
        <time>2018-07-28T11:06:46Z</time>
      </trkpt>
      <trkpt lat="41.92293" lon="-8.82392">
        <ele>55.845</ele>
        <time>2018-07-28T11:06:47Z</time>
      </trkpt>
      <trkpt lat="41.92281" lon="-8.8243">
        <ele>55.84</ele>
        <time>2018-07-28T11:06:48Z</time>
      </trkpt>
      <trkpt lat="41.9227" lon="-8.82467">
        <ele>54.953</ele>
        <time>2018-07-28T11:06:49Z</time>
      </trkpt>
      <trkpt lat="41.92258" lon="-8.82506">
        <ele>54.415</ele>
        <time>2018-07-28T11:06:50Z</time>
      </trkpt>
      <trkpt lat="41.92243" lon="-8.82543">
        <ele>53.64</ele>
        <time>2018-07-28T11:06:51Z</time>
      </trkpt>
      <trkpt lat="41.9223" lon="-8.82584">
        <ele>53.165</ele>
        <time>2018-07-28T11:06:52Z</time>
      </trkpt>
      <trkpt lat="41.92216" lon="-8.82623">
        <ele>53.113</ele>
        <time>2018-07-28T11:06:53Z</time>
      </trkpt>
      <trkpt lat="41.92203" lon="-8.8266">
        <ele>53.089</ele>
        <time>2018-07-28T11:06:54Z</time>
      </trkpt>
      <trkpt lat="41.92189" lon="-8.82698">
        <ele>52.982</ele>
        <time>2018-07-28T11:06:55Z</time>
      </trkpt>
      <trkpt lat="41.92177" lon="-8.82734">
        <ele>52.643</ele>
        <time>2018-07-28T11:06:56Z</time>
      </trkpt>
      <trkpt lat="41.92165" lon="-8.8277">
        <ele>52.117</ele>
        <time>2018-07-28T11:06:57Z</time>
      </trkpt>
      <trkpt lat="41.92153" lon="-8.82803">
        <ele>51.408</ele>
        <time>2018-07-28T11:06:58Z</time>
      </trkpt>
      <trkpt lat="41.92141" lon="-8.82837">
        <ele>50.28</ele>
        <time>2018-07-28T11:06:59Z</time>
      </trkpt>
      <trkpt lat="41.92129" lon="-8.82872">
        <ele>49.545</ele>
        <time>2018-07-28T11:07:00Z</time>
      </trkpt>
      <trkpt lat="41.92117" lon="-8.82908">
        <ele>48.198</ele>
        <time>2018-07-28T11:07:01Z</time>
      </trkpt>
      <trkpt lat="41.92106" lon="-8.82943">
        <ele>47.12</ele>
        <time>2018-07-28T11:07:02Z</time>
      </trkpt>
      <trkpt lat="41.92093" lon="-8.82977">
        <ele>46.435</ele>
        <time>2018-07-28T11:07:03Z</time>
      </trkpt>
      <trkpt lat="41.92081" lon="-8.83012">
        <ele>46.04</ele>
        <time>2018-07-28T11:07:04Z</time>
      </trkpt>
      <trkpt lat="41.92069" lon="-8.83048">
        <ele>45.918</ele>
        <time>2018-07-28T11:07:05Z</time>
      </trkpt>
      <trkpt lat="41.92057" lon="-8.83083">
        <ele>45.834</ele>
        <time>2018-07-28T11:07:06Z</time>
      </trkpt>
      <trkpt lat="41.92044" lon="-8.8312">
        <ele>45.871</ele>
        <time>2018-07-28T11:07:07Z</time>
      </trkpt>
      <trkpt lat="41.92034" lon="-8.83152">
        <ele>45.741</ele>
        <time>2018-07-28T11:07:08Z</time>
      </trkpt>
      <trkpt lat="41.92024" lon="-8.83187">
        <ele>45.415</ele>
        <time>2018-07-28T11:07:09Z</time>
      </trkpt>
      <trkpt lat="41.92017" lon="-8.83218">
        <ele>44.408</ele>
        <time>2018-07-28T11:07:10Z</time>
      </trkpt>
      <trkpt lat="41.92009" lon="-8.83256">
        <ele>43.089</ele>
        <time>2018-07-28T11:07:11Z</time>
      </trkpt>
      <trkpt lat="41.92002" lon="-8.83292">
        <ele>41.994</ele>
        <time>2018-07-28T11:07:12Z</time>
      </trkpt>
      <trkpt lat="41.91998" lon="-8.8333">
        <ele>41.397</ele>
        <time>2018-07-28T11:07:13Z</time>
      </trkpt>
      <trkpt lat="41.91999" lon="-8.83367">
        <ele>40.979</ele>
        <time>2018-07-28T11:07:14Z</time>
      </trkpt>
      <trkpt lat="41.91998" lon="-8.83402">
        <ele>40.524</ele>
        <time>2018-07-28T11:07:15Z</time>
      </trkpt>
      <trkpt lat="41.91997" lon="-8.83436">
        <ele>40.579</ele>
        <time>2018-07-28T11:07:16Z</time>
      </trkpt>
      <trkpt lat="41.91997" lon="-8.8347">
        <ele>39.887</ele>
        <time>2018-07-28T11:07:17Z</time>
      </trkpt>
      <trkpt lat="41.91998" lon="-8.83503">
        <ele>39.053</ele>
        <time>2018-07-28T11:07:18Z</time>
      </trkpt>
      <trkpt lat="41.91996" lon="-8.83541">
        <ele>38.338</ele>
        <time>2018-07-28T11:07:19Z</time>
      </trkpt>
      <trkpt lat="41.92001" lon="-8.83571">
        <ele>37.17</ele>
        <time>2018-07-28T11:07:20Z</time>
      </trkpt>
      <trkpt lat="41.92004" lon="-8.836">
        <ele>35.917</ele>
        <time>2018-07-28T11:07:21Z</time>
      </trkpt>
      <trkpt lat="41.9201" lon="-8.8363">
        <ele>35.108</ele>
        <time>2018-07-28T11:07:22Z</time>
      </trkpt>
      <trkpt lat="41.92017" lon="-8.83659">
        <ele>34.265</ele>
        <time>2018-07-28T11:07:23Z</time>
      </trkpt>
      <trkpt lat="41.92024" lon="-8.83687">
        <ele>33.66</ele>
        <time>2018-07-28T11:07:24Z</time>
      </trkpt>
      <trkpt lat="41.92031" lon="-8.83715">
        <ele>33.213</ele>
        <time>2018-07-28T11:07:25Z</time>
      </trkpt>
      <trkpt lat="41.92038" lon="-8.83743">
        <ele>32.835</ele>
        <time>2018-07-28T11:07:26Z</time>
      </trkpt>
      <trkpt lat="41.92044" lon="-8.8377">
        <ele>32.46</ele>
        <time>2018-07-28T11:07:27Z</time>
      </trkpt>
      <trkpt lat="41.92052" lon="-8.83795">
        <ele>31.985</ele>
        <time>2018-07-28T11:07:28Z</time>
      </trkpt>
      <trkpt lat="41.92063" lon="-8.83818">
        <ele>31.513</ele>
        <time>2018-07-28T11:07:29Z</time>
      </trkpt>
      <trkpt lat="41.92074" lon="-8.83841">
        <ele>31.159</ele>
        <time>2018-07-28T11:07:30Z</time>
      </trkpt>
      <trkpt lat="41.92085" lon="-8.83869">
        <ele>31.344</ele>
        <time>2018-07-28T11:07:31Z</time>
      </trkpt>
      <trkpt lat="41.92094" lon="-8.83893">
        <ele>31.705</ele>
        <time>2018-07-28T11:07:32Z</time>
      </trkpt>
      <trkpt lat="41.92102" lon="-8.83917">
        <ele>32.015</ele>
        <time>2018-07-28T11:07:33Z</time>
      </trkpt>
      <trkpt lat="41.92111" lon="-8.83941">
        <ele>32.608</ele>
        <time>2018-07-28T11:07:34Z</time>
      </trkpt>
      <trkpt lat="41.9212" lon="-8.83965">
        <ele>33.316</ele>
        <time>2018-07-28T11:07:35Z</time>
      </trkpt>
      <trkpt lat="41.92127" lon="-8.83989">
        <ele>34.011</ele>
        <time>2018-07-28T11:07:36Z</time>
      </trkpt>
      <trkpt lat="41.92131" lon="-8.84017">
        <ele>34.774</ele>
        <time>2018-07-28T11:07:37Z</time>
      </trkpt>
      <trkpt lat="41.92137" lon="-8.84046">
        <ele>36.076</ele>
        <time>2018-07-28T11:07:38Z</time>
      </trkpt>
      <trkpt lat="41.92142" lon="-8.84074">
        <ele>37.251</ele>
        <time>2018-07-28T11:07:39Z</time>
      </trkpt>
      <trkpt lat="41.92144" lon="-8.84102">
        <ele>38.416</ele>
        <time>2018-07-28T11:07:40Z</time>
      </trkpt>
      <trkpt lat="41.92145" lon="-8.84131">
        <ele>39.474</ele>
        <time>2018-07-28T11:07:41Z</time>
      </trkpt>
      <trkpt lat="41.92146" lon="-8.84159">
        <ele>40.48</ele>
        <time>2018-07-28T11:07:42Z</time>
      </trkpt>
      <trkpt lat="41.92147" lon="-8.84188">
        <ele>41.141</ele>
        <time>2018-07-28T11:07:43Z</time>
      </trkpt>
      <trkpt lat="41.92146" lon="-8.84216">
        <ele>41.781</ele>
        <time>2018-07-28T11:07:44Z</time>
      </trkpt>
      <trkpt lat="41.92146" lon="-8.84244">
        <ele>41.809</ele>
        <time>2018-07-28T11:07:45Z</time>
      </trkpt>
      <trkpt lat="41.92144" lon="-8.84272">
        <ele>42.008</ele>
        <time>2018-07-28T11:07:46Z</time>
      </trkpt>
      <trkpt lat="41.92144" lon="-8.84296">
        <ele>42.396</ele>
        <time>2018-07-28T11:07:47Z</time>
      </trkpt>
      <trkpt lat="41.9214" lon="-8.84325">
        <ele>42.721</ele>
        <time>2018-07-28T11:07:48Z</time>
      </trkpt>
      <trkpt lat="41.92136" lon="-8.84352">
        <ele>43.444</ele>
        <time>2018-07-28T11:07:49Z</time>
      </trkpt>
      <trkpt lat="41.92132" lon="-8.8438">
        <ele>43.966</ele>
        <time>2018-07-28T11:07:50Z</time>
      </trkpt>
      <trkpt lat="41.92123" lon="-8.84406">
        <ele>44.431</ele>
        <time>2018-07-28T11:07:51Z</time>
      </trkpt>
      <trkpt lat="41.92116" lon="-8.84431">
        <ele>44.426</ele>
        <time>2018-07-28T11:07:52Z</time>
      </trkpt>
      <trkpt lat="41.92108" lon="-8.84457">
        <ele>44.454</ele>
        <time>2018-07-28T11:07:53Z</time>
      </trkpt>
      <trkpt lat="41.92102" lon="-8.84481">
        <ele>44.12</ele>
        <time>2018-07-28T11:07:54Z</time>
      </trkpt>
      <trkpt lat="41.92094" lon="-8.84509">
        <ele>44.162</ele>
        <time>2018-07-28T11:07:55Z</time>
      </trkpt>
      <trkpt lat="41.9208" lon="-8.84535">
        <ele>44.583</ele>
        <time>2018-07-28T11:07:56Z</time>
      </trkpt>
      <trkpt lat="41.92066" lon="-8.84561">
        <ele>45.411</ele>
        <time>2018-07-28T11:07:57Z</time>
      </trkpt>
      <trkpt lat="41.92052" lon="-8.84588">
        <ele>46.708</ele>
        <time>2018-07-28T11:07:58Z</time>
      </trkpt>
      <trkpt lat="41.92039" lon="-8.84615">
        <ele>48.778</ele>
        <time>2018-07-28T11:07:59Z</time>
      </trkpt>
      <trkpt lat="41.92026" lon="-8.84641">
        <ele>48.833</ele>
        <time>2018-07-28T11:08:00Z</time>
      </trkpt>
      <trkpt lat="41.92012" lon="-8.84663">
        <ele>48.816</ele>
        <time>2018-07-28T11:08:01Z</time>
      </trkpt>
      <trkpt lat="41.91998" lon="-8.84684">
        <ele>48.378</ele>
        <time>2018-07-28T11:08:02Z</time>
      </trkpt>
      <trkpt lat="41.91983" lon="-8.84707">
        <ele>47.873</ele>
        <time>2018-07-28T11:08:03Z</time>
      </trkpt>
      <trkpt lat="41.91969" lon="-8.84729">
        <ele>47.518</ele>
        <time>2018-07-28T11:08:04Z</time>
      </trkpt>
      <trkpt lat="41.91955" lon="-8.8475">
        <ele>47.336</ele>
        <time>2018-07-28T11:08:05Z</time>
      </trkpt>
      <trkpt lat="41.91941" lon="-8.84771">
        <ele>47.022</ele>
        <time>2018-07-28T11:08:06Z</time>
      </trkpt>
      <trkpt lat="41.9193" lon="-8.84788">
        <ele>46.324</ele>
        <time>2018-07-28T11:08:07Z</time>
      </trkpt>
      <trkpt lat="41.91921" lon="-8.84806">
        <ele>45.504</ele>
        <time>2018-07-28T11:08:08Z</time>
      </trkpt>
      <trkpt lat="41.91911" lon="-8.84823">
        <ele>44.614</ele>
        <time>2018-07-28T11:08:09Z</time>
      </trkpt>
      <trkpt lat="41.91901" lon="-8.84841">
        <ele>43.608</ele>
        <time>2018-07-28T11:08:10Z</time>
      </trkpt>
      <trkpt lat="41.91893" lon="-8.84858">
        <ele>42.614</ele>
        <time>2018-07-28T11:08:11Z</time>
      </trkpt>
      <trkpt lat="41.91884" lon="-8.84873">
        <ele>41.859</ele>
        <time>2018-07-28T11:08:12Z</time>
      </trkpt>
      <trkpt lat="41.91873" lon="-8.84887">
        <ele>41.242</ele>
        <time>2018-07-28T11:08:13Z</time>
      </trkpt>
      <trkpt lat="41.91865" lon="-8.84902">
        <ele>40.074</ele>
        <time>2018-07-28T11:08:14Z</time>
      </trkpt>
      <trkpt lat="41.91856" lon="-8.84915">
        <ele>38.259</ele>
        <time>2018-07-28T11:08:15Z</time>
      </trkpt>
      <trkpt lat="41.91849" lon="-8.84927">
        <ele>38.214</ele>
        <time>2018-07-28T11:08:16Z</time>
      </trkpt>
      <trkpt lat="41.91842" lon="-8.84939">
        <ele>38.312</ele>
        <time>2018-07-28T11:08:17Z</time>
      </trkpt>
      <trkpt lat="41.91836" lon="-8.8495">
        <ele>38.358</ele>
        <time>2018-07-28T11:08:18Z</time>
      </trkpt>
      <trkpt lat="41.91831" lon="-8.84962">
        <ele>38.141</ele>
        <time>2018-07-28T11:08:19Z</time>
      </trkpt>
      <trkpt lat="41.91826" lon="-8.84972">
        <ele>38.181</ele>
        <time>2018-07-28T11:08:20Z</time>
      </trkpt>
      <trkpt lat="41.91823" lon="-8.8498">
        <ele>38.109</ele>
        <time>2018-07-28T11:08:21Z</time>
      </trkpt>
      <trkpt lat="41.91821" lon="-8.8499">
        <ele>36.808</ele>
        <time>2018-07-28T11:08:22Z</time>
      </trkpt>
      <trkpt lat="41.91818" lon="-8.85002">
        <ele>35.056</ele>
        <time>2018-07-28T11:08:23Z</time>
      </trkpt>
      <trkpt lat="41.91811" lon="-8.85011">
        <ele>34.931</ele>
        <time>2018-07-28T11:08:24Z</time>
      </trkpt>
      <trkpt lat="41.91802" lon="-8.85019">
        <ele>34.854</ele>
        <time>2018-07-28T11:08:25Z</time>
      </trkpt>
      <trkpt lat="41.91791" lon="-8.85027">
        <ele>34.826</ele>
        <time>2018-07-28T11:08:26Z</time>
      </trkpt>
      <trkpt lat="41.9178" lon="-8.85039">
        <ele>34.961</ele>
        <time>2018-07-28T11:08:27Z</time>
      </trkpt>
      <trkpt lat="41.91771" lon="-8.85055">
        <ele>35.166</ele>
        <time>2018-07-28T11:08:28Z</time>
      </trkpt>
      <trkpt lat="41.9176" lon="-8.85069">
        <ele>36.074</ele>
        <time>2018-07-28T11:08:29Z</time>
      </trkpt>
      <trkpt lat="41.91749" lon="-8.8509">
        <ele>36.54</ele>
        <time>2018-07-28T11:08:30Z</time>
      </trkpt>
      <trkpt lat="41.9174" lon="-8.85105">
        <ele>36.985</ele>
        <time>2018-07-28T11:08:31Z</time>
      </trkpt>
      <trkpt lat="41.9173" lon="-8.8512">
        <ele>37.389</ele>
        <time>2018-07-28T11:08:32Z</time>
      </trkpt>
      <trkpt lat="41.91719" lon="-8.85135">
        <ele>37.517</ele>
        <time>2018-07-28T11:08:33Z</time>
      </trkpt>
      <trkpt lat="41.91709" lon="-8.85155">
        <ele>37.808</ele>
        <time>2018-07-28T11:08:34Z</time>
      </trkpt>
      <trkpt lat="41.91696" lon="-8.85172">
        <ele>38.35</ele>
        <time>2018-07-28T11:08:35Z</time>
      </trkpt>
      <trkpt lat="41.91681" lon="-8.85189">
        <ele>39.195</ele>
        <time>2018-07-28T11:08:36Z</time>
      </trkpt>
      <trkpt lat="41.91664" lon="-8.85209">
        <ele>40.178</ele>
        <time>2018-07-28T11:08:37Z</time>
      </trkpt>
      <trkpt lat="41.91646" lon="-8.85228">
        <ele>41.46</ele>
        <time>2018-07-28T11:08:38Z</time>
      </trkpt>
      <trkpt lat="41.91627" lon="-8.85241">
        <ele>42.515</ele>
        <time>2018-07-28T11:08:39Z</time>
      </trkpt>
      <trkpt lat="41.91607" lon="-8.85253">
        <ele>43.39</ele>
        <time>2018-07-28T11:08:40Z</time>
      </trkpt>
      <trkpt lat="41.91588" lon="-8.85267">
        <ele>43.758</ele>
        <time>2018-07-28T11:08:41Z</time>
      </trkpt>
      <trkpt lat="41.91567" lon="-8.85281">
        <ele>43.844</ele>
        <time>2018-07-28T11:08:42Z</time>
      </trkpt>
      <trkpt lat="41.91545" lon="-8.85292">
        <ele>44.198</ele>
        <time>2018-07-28T11:08:43Z</time>
      </trkpt>
      <trkpt lat="41.91522" lon="-8.853">
        <ele>44.515</ele>
        <time>2018-07-28T11:08:44Z</time>
      </trkpt>
      <trkpt lat="41.91498" lon="-8.85308">
        <ele>44.926</ele>
        <time>2018-07-28T11:08:45Z</time>
      </trkpt>
      <trkpt lat="41.91471" lon="-8.85313">
        <ele>45.108</ele>
        <time>2018-07-28T11:08:46Z</time>
      </trkpt>
      <trkpt lat="41.91448" lon="-8.85315">
        <ele>45.121</ele>
        <time>2018-07-28T11:08:47Z</time>
      </trkpt>
      <trkpt lat="41.91425" lon="-8.85315">
        <ele>44.856</ele>
        <time>2018-07-28T11:08:48Z</time>
      </trkpt>
      <trkpt lat="41.91402" lon="-8.85315">
        <ele>44.159</ele>
        <time>2018-07-28T11:08:49Z</time>
      </trkpt>
      <trkpt lat="41.91381" lon="-8.85314">
        <ele>43.411</ele>
        <time>2018-07-28T11:08:50Z</time>
      </trkpt>
      <trkpt lat="41.91358" lon="-8.85314">
        <ele>42.216</ele>
        <time>2018-07-28T11:08:51Z</time>
      </trkpt>
      <trkpt lat="41.91339" lon="-8.8531">
        <ele>41.051</ele>
        <time>2018-07-28T11:08:52Z</time>
      </trkpt>
      <trkpt lat="41.9132" lon="-8.85304">
        <ele>39.449</ele>
        <time>2018-07-28T11:08:53Z</time>
      </trkpt>
      <trkpt lat="41.91304" lon="-8.85296">
        <ele>37.925</ele>
        <time>2018-07-28T11:08:54Z</time>
      </trkpt>
      <trkpt lat="41.91287" lon="-8.85293">
        <ele>36.431</ele>
        <time>2018-07-28T11:08:55Z</time>
      </trkpt>
      <trkpt lat="41.91269" lon="-8.85285">
        <ele>34.961</ele>
        <time>2018-07-28T11:08:56Z</time>
      </trkpt>
      <trkpt lat="41.91256" lon="-8.85276">
        <ele>33.207</ele>
        <time>2018-07-28T11:08:57Z</time>
      </trkpt>
      <trkpt lat="41.91243" lon="-8.85269">
        <ele>29.808</ele>
        <time>2018-07-28T11:08:58Z</time>
      </trkpt>
      <trkpt lat="41.91232" lon="-8.85261">
        <ele>28.135</ele>
        <time>2018-07-28T11:08:59Z</time>
      </trkpt>
      <trkpt lat="41.91221" lon="-8.85254">
        <ele>26.49</ele>
        <time>2018-07-28T11:09:00Z</time>
      </trkpt>
      <trkpt lat="41.91211" lon="-8.85249">
        <ele>24.823</ele>
        <time>2018-07-28T11:09:01Z</time>
      </trkpt>
      <trkpt lat="41.91203" lon="-8.85245">
        <ele>23.365</ele>
        <time>2018-07-28T11:09:02Z</time>
      </trkpt>
      <trkpt lat="41.91197" lon="-8.85242">
        <ele>22.09</ele>
        <time>2018-07-28T11:09:03Z</time>
      </trkpt>
      <trkpt lat="41.91194" lon="-8.85237">
        <ele>20.975</ele>
        <time>2018-07-28T11:09:04Z</time>
      </trkpt>
      <trkpt lat="41.91188" lon="-8.85234">
        <ele>19.283</ele>
        <time>2018-07-28T11:09:06Z</time>
      </trkpt>
      <trkpt lat="41.91185" lon="-8.85228">
        <ele>18.739</ele>
        <time>2018-07-28T11:09:07Z</time>
      </trkpt>
      <trkpt lat="41.91178" lon="-8.85227">
        <ele>18.065</ele>
        <time>2018-07-28T11:09:09Z</time>
      </trkpt>
      <trkpt lat="41.91173" lon="-8.85227">
        <ele>17.868</ele>
        <time>2018-07-28T11:09:10Z</time>
      </trkpt>
      <trkpt lat="41.91165" lon="-8.8523">
        <ele>17.814</ele>
        <time>2018-07-28T11:09:11Z</time>
      </trkpt>
      <trkpt lat="41.91157" lon="-8.85235">
        <ele>17.808</ele>
        <time>2018-07-28T11:09:12Z</time>
      </trkpt>
      <trkpt lat="41.91149" lon="-8.85241">
        <ele>17.948</ele>
        <time>2018-07-28T11:09:13Z</time>
      </trkpt>
      <trkpt lat="41.91141" lon="-8.8525">
        <ele>18.013</ele>
        <time>2018-07-28T11:09:14Z</time>
      </trkpt>
      <trkpt lat="41.91136" lon="-8.85261">
        <ele>18.116</ele>
        <time>2018-07-28T11:09:15Z</time>
      </trkpt>
      <trkpt lat="41.91131" lon="-8.85271">
        <ele>18.218</ele>
        <time>2018-07-28T11:09:16Z</time>
      </trkpt>
      <trkpt lat="41.91127" lon="-8.85281">
        <ele>18.353</ele>
        <time>2018-07-28T11:09:17Z</time>
      </trkpt>
      <trkpt lat="41.91124" lon="-8.85291">
        <ele>18.448</ele>
        <time>2018-07-28T11:09:18Z</time>
      </trkpt>
      <trkpt lat="41.91119" lon="-8.85301">
        <ele>18.526</ele>
        <time>2018-07-28T11:09:19Z</time>
      </trkpt>
      <trkpt lat="41.91115" lon="-8.85312">
        <ele>18.642</ele>
        <time>2018-07-28T11:09:20Z</time>
      </trkpt>
      <trkpt lat="41.91111" lon="-8.8532">
        <ele>18.631</ele>
        <time>2018-07-28T11:09:21Z</time>
      </trkpt>
      <trkpt lat="41.91105" lon="-8.85329">
        <ele>18.661</ele>
        <time>2018-07-28T11:09:22Z</time>
      </trkpt>
      <trkpt lat="41.91101" lon="-8.85336">
        <ele>18.707</ele>
        <time>2018-07-28T11:09:23Z</time>
      </trkpt>
      <trkpt lat="41.91099" lon="-8.85344">
        <ele>18.708</ele>
        <time>2018-07-28T11:09:24Z</time>
      </trkpt>
      <trkpt lat="41.91095" lon="-8.85351">
        <ele>18.795</ele>
        <time>2018-07-28T11:09:25Z</time>
      </trkpt>
      <trkpt lat="41.91091" lon="-8.85359">
        <ele>18.72</ele>
        <time>2018-07-28T11:09:26Z</time>
      </trkpt>
      <trkpt lat="41.91087" lon="-8.85368">
        <ele>19.053</ele>
        <time>2018-07-28T11:09:27Z</time>
      </trkpt>
      <trkpt lat="41.91085" lon="-8.85376">
        <ele>19.145</ele>
        <time>2018-07-28T11:09:28Z</time>
      </trkpt>
      <trkpt lat="41.91081" lon="-8.85384">
        <ele>19.39</ele>
        <time>2018-07-28T11:09:29Z</time>
      </trkpt>
      <trkpt lat="41.91078" lon="-8.85393">
        <ele>19.525</ele>
        <time>2018-07-28T11:09:30Z</time>
      </trkpt>
      <trkpt lat="41.91074" lon="-8.854">
        <ele>19.723</ele>
        <time>2018-07-28T11:09:31Z</time>
      </trkpt>
      <trkpt lat="41.91074" lon="-8.85411">
        <ele>20.039</ele>
        <time>2018-07-28T11:09:32Z</time>
      </trkpt>
      <trkpt lat="41.91066" lon="-8.85417">
        <ele>20.517</ele>
        <time>2018-07-28T11:09:33Z</time>
      </trkpt>
      <trkpt lat="41.91062" lon="-8.85429">
        <ele>21.187</ele>
        <time>2018-07-28T11:09:34Z</time>
      </trkpt>
      <trkpt lat="41.91058" lon="-8.85443">
        <ele>21.815</ele>
        <time>2018-07-28T11:09:35Z</time>
      </trkpt>
      <trkpt lat="41.91053" lon="-8.85457">
        <ele>22.508</ele>
        <time>2018-07-28T11:09:36Z</time>
      </trkpt>
      <trkpt lat="41.91048" lon="-8.8547">
        <ele>22.993</ele>
        <time>2018-07-28T11:09:37Z</time>
      </trkpt>
      <trkpt lat="41.91044" lon="-8.85482">
        <ele>23.318</ele>
        <time>2018-07-28T11:09:38Z</time>
      </trkpt>
      <trkpt lat="41.91043" lon="-8.85494">
        <ele>23.441</ele>
        <time>2018-07-28T11:09:39Z</time>
      </trkpt>
      <trkpt lat="41.91038" lon="-8.85506">
        <ele>23.493</ele>
        <time>2018-07-28T11:09:40Z</time>
      </trkpt>
      <trkpt lat="41.91036" lon="-8.85513">
        <ele>23.198</ele>
        <time>2018-07-28T11:09:41Z</time>
      </trkpt>
      <trkpt lat="41.91031" lon="-8.85525">
        <ele>22.873</ele>
        <time>2018-07-28T11:09:42Z</time>
      </trkpt>
      <trkpt lat="41.91025" lon="-8.85537">
        <ele>22.861</ele>
        <time>2018-07-28T11:09:43Z</time>
      </trkpt>
      <trkpt lat="41.9102" lon="-8.8555">
        <ele>23.057</ele>
        <time>2018-07-28T11:09:44Z</time>
      </trkpt>
      <trkpt lat="41.91014" lon="-8.85564">
        <ele>23.484</ele>
        <time>2018-07-28T11:09:45Z</time>
      </trkpt>
      <trkpt lat="41.91006" lon="-8.85579">
        <ele>24.107</ele>
        <time>2018-07-28T11:09:46Z</time>
      </trkpt>
      <trkpt lat="41.90998" lon="-8.85597">
        <ele>25.217</ele>
        <time>2018-07-28T11:09:47Z</time>
      </trkpt>
      <trkpt lat="41.90993" lon="-8.85618">
        <ele>26.308</ele>
        <time>2018-07-28T11:09:48Z</time>
      </trkpt>
      <trkpt lat="41.90988" lon="-8.85636">
        <ele>27.23</ele>
        <time>2018-07-28T11:09:49Z</time>
      </trkpt>
      <trkpt lat="41.9098" lon="-8.85655">
        <ele>27.775</ele>
        <time>2018-07-28T11:09:50Z</time>
      </trkpt>
      <trkpt lat="41.90979" lon="-8.85676">
        <ele>28.228</ele>
        <time>2018-07-28T11:09:51Z</time>
      </trkpt>
      <trkpt lat="41.90971" lon="-8.85693">
        <ele>28.46</ele>
        <time>2018-07-28T11:09:52Z</time>
      </trkpt>
      <trkpt lat="41.90965" lon="-8.85711">
        <ele>28.515</ele>
        <time>2018-07-28T11:09:53Z</time>
      </trkpt>
      <trkpt lat="41.90958" lon="-8.85728">
        <ele>28.68</ele>
        <time>2018-07-28T11:09:54Z</time>
      </trkpt>
      <trkpt lat="41.9095" lon="-8.85748">
        <ele>28.938</ele>
        <time>2018-07-28T11:09:55Z</time>
      </trkpt>
      <trkpt lat="41.90942" lon="-8.85771">
        <ele>29.554</ele>
        <time>2018-07-28T11:09:56Z</time>
      </trkpt>
      <trkpt lat="41.90933" lon="-8.85797">
        <ele>31.052</ele>
        <time>2018-07-28T11:09:57Z</time>
      </trkpt>
      <trkpt lat="41.90924" lon="-8.8582">
        <ele>31.753</ele>
        <time>2018-07-28T11:09:58Z</time>
      </trkpt>
      <trkpt lat="41.90917" lon="-8.85842">
        <ele>32.408</ele>
        <time>2018-07-28T11:09:59Z</time>
      </trkpt>
      <trkpt lat="41.90908" lon="-8.85865">
        <ele>32.708</ele>
        <time>2018-07-28T11:10:00Z</time>
      </trkpt>
      <trkpt lat="41.90901" lon="-8.85882">
        <ele>32.757</ele>
        <time>2018-07-28T11:10:01Z</time>
      </trkpt>
      <trkpt lat="41.90894" lon="-8.859">
        <ele>32.762</ele>
        <time>2018-07-28T11:10:02Z</time>
      </trkpt>
      <trkpt lat="41.90885" lon="-8.85914">
        <ele>32.865</ele>
        <time>2018-07-28T11:10:03Z</time>
      </trkpt>
      <trkpt lat="41.90875" lon="-8.85926">
        <ele>33.047</ele>
        <time>2018-07-28T11:10:04Z</time>
      </trkpt>
      <trkpt lat="41.90866" lon="-8.8594">
        <ele>33.242</ele>
        <time>2018-07-28T11:10:05Z</time>
      </trkpt>
      <trkpt lat="41.90856" lon="-8.85953">
        <ele>33.387</ele>
        <time>2018-07-28T11:10:06Z</time>
      </trkpt>
      <trkpt lat="41.90847" lon="-8.85966">
        <ele>33.715</ele>
        <time>2018-07-28T11:10:07Z</time>
      </trkpt>
      <trkpt lat="41.90836" lon="-8.85978">
        <ele>33.981</ele>
        <time>2018-07-28T11:10:08Z</time>
      </trkpt>
      <trkpt lat="41.90827" lon="-8.85992">
        <ele>34.342</ele>
        <time>2018-07-28T11:10:09Z</time>
      </trkpt>
      <trkpt lat="41.90817" lon="-8.86005">
        <ele>34.722</ele>
        <time>2018-07-28T11:10:10Z</time>
      </trkpt>
      <trkpt lat="41.90805" lon="-8.86017">
        <ele>36.014</ele>
        <time>2018-07-28T11:10:11Z</time>
      </trkpt>
      <trkpt lat="41.90795" lon="-8.86028">
        <ele>36.608</ele>
        <time>2018-07-28T11:10:12Z</time>
      </trkpt>
      <trkpt lat="41.90786" lon="-8.86039">
        <ele>37.156</ele>
        <time>2018-07-28T11:10:13Z</time>
      </trkpt>
      <trkpt lat="41.90778" lon="-8.86051">
        <ele>37.641</ele>
        <time>2018-07-28T11:10:14Z</time>
      </trkpt>
      <trkpt lat="41.90769" lon="-8.86062">
        <ele>37.974</ele>
        <time>2018-07-28T11:10:15Z</time>
      </trkpt>
      <trkpt lat="41.90761" lon="-8.86072">
        <ele>38.156</ele>
        <time>2018-07-28T11:10:16Z</time>
      </trkpt>
      <trkpt lat="41.90752" lon="-8.86082">
        <ele>38.561</ele>
        <time>2018-07-28T11:10:17Z</time>
      </trkpt>
      <trkpt lat="41.90745" lon="-8.86091">
        <ele>38.616</ele>
        <time>2018-07-28T11:10:18Z</time>
      </trkpt>
      <trkpt lat="41.90737" lon="-8.86098">
        <ele>38.774</ele>
        <time>2018-07-28T11:10:19Z</time>
      </trkpt>
      <trkpt lat="41.9073" lon="-8.86107">
        <ele>39.18</ele>
        <time>2018-07-28T11:10:20Z</time>
      </trkpt>
      <trkpt lat="41.90723" lon="-8.86115">
        <ele>39.464</ele>
        <time>2018-07-28T11:10:21Z</time>
      </trkpt>
      <trkpt lat="41.90714" lon="-8.86125">
        <ele>39.806</ele>
        <time>2018-07-28T11:10:22Z</time>
      </trkpt>
      <trkpt lat="41.90705" lon="-8.86136">
        <ele>40.416</ele>
        <time>2018-07-28T11:10:23Z</time>
      </trkpt>
      <trkpt lat="41.907" lon="-8.86149">
        <ele>41.208</ele>
        <time>2018-07-28T11:10:24Z</time>
      </trkpt>
      <trkpt lat="41.90691" lon="-8.86159">
        <ele>41.868</ele>
        <time>2018-07-28T11:10:25Z</time>
      </trkpt>
      <trkpt lat="41.90683" lon="-8.8617">
        <ele>42.983</ele>
        <time>2018-07-28T11:10:26Z</time>
      </trkpt>
      <trkpt lat="41.90676" lon="-8.8618">
        <ele>43.516</ele>
        <time>2018-07-28T11:10:27Z</time>
      </trkpt>
      <trkpt lat="41.90672" lon="-8.86187">
        <ele>43.918</ele>
        <time>2018-07-28T11:10:28Z</time>
      </trkpt>
      <trkpt lat="41.90666" lon="-8.86193">
        <ele>44.373</ele>
        <time>2018-07-28T11:10:29Z</time>
      </trkpt>
      <trkpt lat="41.9066" lon="-8.86201">
        <ele>44.798</ele>
        <time>2018-07-28T11:10:30Z</time>
      </trkpt>
      <trkpt lat="41.90654" lon="-8.86208">
        <ele>45.146</ele>
        <time>2018-07-28T11:10:31Z</time>
      </trkpt>
      <trkpt lat="41.90649" lon="-8.86215">
        <ele>45.332</ele>
        <time>2018-07-28T11:10:32Z</time>
      </trkpt>
      <trkpt lat="41.90645" lon="-8.86221">
        <ele>45.545</ele>
        <time>2018-07-28T11:10:33Z</time>
      </trkpt>
      <trkpt lat="41.90642" lon="-8.86233">
        <ele>45.547</ele>
        <time>2018-07-28T11:10:35Z</time>
      </trkpt>
      <trkpt lat="41.90639" lon="-8.86237">
        <ele>45.411</ele>
        <time>2018-07-28T11:10:36Z</time>
      </trkpt>
      <trkpt lat="41.90632" lon="-8.86244">
        <ele>45.408</ele>
        <time>2018-07-28T11:10:38Z</time>
      </trkpt>
      <trkpt lat="41.90626" lon="-8.8625">
        <ele>45.476</ele>
        <time>2018-07-28T11:10:39Z</time>
      </trkpt>
      <trkpt lat="41.9062" lon="-8.86254">
        <ele>45.631</ele>
        <time>2018-07-28T11:10:40Z</time>
      </trkpt>
      <trkpt lat="41.90615" lon="-8.8626">
        <ele>46.214</ele>
        <time>2018-07-28T11:10:41Z</time>
      </trkpt>
      <trkpt lat="41.90611" lon="-8.86265">
        <ele>46.296</ele>
        <time>2018-07-28T11:10:42Z</time>
      </trkpt>
      <trkpt lat="41.90609" lon="-8.86272">
        <ele>45.871</ele>
        <time>2018-07-28T11:10:44Z</time>
      </trkpt>
      <trkpt lat="41.90608" lon="-8.86279">
        <ele>44.856</ele>
        <time>2018-07-28T11:10:47Z</time>
      </trkpt>
      <trkpt lat="41.90604" lon="-8.86282">
        <ele>44.794</ele>
        <time>2018-07-28T11:10:48Z</time>
      </trkpt>
      <trkpt lat="41.90601" lon="-8.8629">
        <ele>44.68</ele>
        <time>2018-07-28T11:10:51Z</time>
      </trkpt>
      <trkpt lat="41.90597" lon="-8.86296">
        <ele>44.874</ele>
        <time>2018-07-28T11:10:52Z</time>
      </trkpt>
      <trkpt lat="41.90592" lon="-8.86309">
        <ele>45.256</ele>
        <time>2018-07-28T11:10:53Z</time>
      </trkpt>
      <trkpt lat="41.90583" lon="-8.86324">
        <ele>46.021</ele>
        <time>2018-07-28T11:10:54Z</time>
      </trkpt>
      <trkpt lat="41.9057" lon="-8.86344">
        <ele>47.108</ele>
        <time>2018-07-28T11:10:55Z</time>
      </trkpt>
      <trkpt lat="41.90562" lon="-8.86362">
        <ele>49.319</ele>
        <time>2018-07-28T11:10:56Z</time>
      </trkpt>
      <trkpt lat="41.90552" lon="-8.86376">
        <ele>49.924</ele>
        <time>2018-07-28T11:10:57Z</time>
      </trkpt>
      <trkpt lat="41.90546" lon="-8.86387">
        <ele>49.997</ele>
        <time>2018-07-28T11:10:58Z</time>
      </trkpt>
      <trkpt lat="41.90538" lon="-8.86398">
        <ele>49.799</ele>
        <time>2018-07-28T11:10:59Z</time>
      </trkpt>
      <trkpt lat="41.90532" lon="-8.86407">
        <ele>49.044</ele>
        <time>2018-07-28T11:11:00Z</time>
      </trkpt>
      <trkpt lat="41.90525" lon="-8.86419">
        <ele>48.649</ele>
        <time>2018-07-28T11:11:01Z</time>
      </trkpt>
      <trkpt lat="41.90519" lon="-8.86429">
        <ele>48.427</ele>
        <time>2018-07-28T11:11:02Z</time>
      </trkpt>
      <trkpt lat="41.90517" lon="-8.86439">
        <ele>48.333</ele>
        <time>2018-07-28T11:11:03Z</time>
      </trkpt>
      <trkpt lat="41.90513" lon="-8.86448">
        <ele>48.259</ele>
        <time>2018-07-28T11:11:04Z</time>
      </trkpt>
      <trkpt lat="41.90507" lon="-8.86456">
        <ele>48.203</ele>
        <time>2018-07-28T11:11:05Z</time>
      </trkpt>
      <trkpt lat="41.90504" lon="-8.86465">
        <ele>48.123</ele>
        <time>2018-07-28T11:11:06Z</time>
      </trkpt>
      <trkpt lat="41.90498" lon="-8.86469">
        <ele>47.808</ele>
        <time>2018-07-28T11:11:07Z</time>
      </trkpt>
      <trkpt lat="41.90494" lon="-8.86475">
        <ele>47.537</ele>
        <time>2018-07-28T11:11:08Z</time>
      </trkpt>
      <trkpt lat="41.90492" lon="-8.86481">
        <ele>47.342</ele>
        <time>2018-07-28T11:11:09Z</time>
      </trkpt>
      <trkpt lat="41.90488" lon="-8.86485">
        <ele>47.025</ele>
        <time>2018-07-28T11:11:10Z</time>
      </trkpt>
      <trkpt lat="41.90483" lon="-8.8649">
        <ele>46.997</ele>
        <time>2018-07-28T11:11:11Z</time>
      </trkpt>
      <trkpt lat="41.90482" lon="-8.86499">
        <ele>46.862</ele>
        <time>2018-07-28T11:11:12Z</time>
      </trkpt>
      <trkpt lat="41.90479" lon="-8.86504">
        <ele>46.767</ele>
        <time>2018-07-28T11:11:13Z</time>
      </trkpt>
      <trkpt lat="41.90474" lon="-8.86509">
        <ele>46.665</ele>
        <time>2018-07-28T11:11:14Z</time>
      </trkpt>
      <trkpt lat="41.90472" lon="-8.86514">
        <ele>46.621</ele>
        <time>2018-07-28T11:11:15Z</time>
      </trkpt>
      <trkpt lat="41.90466" lon="-8.86518">
        <ele>46.524</ele>
        <time>2018-07-28T11:11:16Z</time>
      </trkpt>
      <trkpt lat="41.90469" lon="-8.86523">
        <ele>45.604</ele>
        <time>2018-07-28T11:11:24Z</time>
      </trkpt>
      <trkpt lat="41.90467" lon="-8.8653">
        <ele>45.814</ele>
        <time>2018-07-28T11:11:27Z</time>
      </trkpt>
      <trkpt lat="41.90462" lon="-8.86534">
        <ele>45.908</ele>
        <time>2018-07-28T11:11:29Z</time>
      </trkpt>
      <trkpt lat="41.90459" lon="-8.86539">
        <ele>45.634</ele>
        <time>2018-07-28T11:11:37Z</time>
      </trkpt>
      <trkpt lat="41.90454" lon="-8.86549">
        <ele>46.239</ele>
        <time>2018-07-28T11:11:53Z</time>
      </trkpt>
      <trkpt lat="41.90449" lon="-8.86557">
        <ele>46.712</ele>
        <time>2018-07-28T11:11:54Z</time>
      </trkpt>
      <trkpt lat="41.90442" lon="-8.86567">
        <ele>47.054</ele>
        <time>2018-07-28T11:11:55Z</time>
      </trkpt>
      <trkpt lat="41.90436" lon="-8.86574">
        <ele>47.329</ele>
        <time>2018-07-28T11:11:56Z</time>
      </trkpt>
      <trkpt lat="41.90429" lon="-8.86583">
        <ele>47.624</ele>
        <time>2018-07-28T11:11:57Z</time>
      </trkpt>
      <trkpt lat="41.90426" lon="-8.86591">
        <ele>47.842</ele>
        <time>2018-07-28T11:11:58Z</time>
      </trkpt>
      <trkpt lat="41.9042" lon="-8.86603">
        <ele>48.168</ele>
        <time>2018-07-28T11:11:59Z</time>
      </trkpt>
      <trkpt lat="41.90416" lon="-8.86609">
        <ele>48.482</ele>
        <time>2018-07-28T11:12:00Z</time>
      </trkpt>
      <trkpt lat="41.90412" lon="-8.86615">
        <ele>48.643</ele>
        <time>2018-07-28T11:12:01Z</time>
      </trkpt>
      <trkpt lat="41.90408" lon="-8.86617">
        <ele>48.617</ele>
        <time>2018-07-28T11:12:02Z</time>
      </trkpt>
      <trkpt lat="41.90406" lon="-8.86627">
        <ele>48.408</ele>
        <time>2018-07-28T11:12:04Z</time>
      </trkpt>
      <trkpt lat="41.90402" lon="-8.86623">
        <ele>48.15</ele>
        <time>2018-07-28T11:12:05Z</time>
      </trkpt>
      <trkpt lat="41.90402" lon="-8.86632">
        <ele>47.765</ele>
        <time>2018-07-28T11:12:07Z</time>
      </trkpt>
      <trkpt lat="41.90399" lon="-8.86637">
        <ele>47.698</ele>
        <time>2018-07-28T11:12:08Z</time>
      </trkpt>
      <trkpt lat="41.90393" lon="-8.86641">
        <ele>47.71</ele>
        <time>2018-07-28T11:12:10Z</time>
      </trkpt>
      <trkpt lat="41.90395" lon="-8.8665">
        <ele>47.735</ele>
        <time>2018-07-28T11:12:13Z</time>
      </trkpt>
      <trkpt lat="41.90394" lon="-8.86663">
        <ele>47.76</ele>
        <time>2018-07-28T11:12:15Z</time>
      </trkpt>
      <trkpt lat="41.90388" lon="-8.86667">
        <ele>47.748</ele>
        <time>2018-07-28T11:12:17Z</time>
      </trkpt>
      <trkpt lat="41.90382" lon="-8.86668">
        <ele>47.544</ele>
        <time>2018-07-28T11:12:21Z</time>
      </trkpt>
      <trkpt lat="41.90378" lon="-8.86677">
        <ele>47.535</ele>
        <time>2018-07-28T11:12:22Z</time>
      </trkpt>
      <trkpt lat="41.90373" lon="-8.86687">
        <ele>47.686</ele>
        <time>2018-07-28T11:12:23Z</time>
      </trkpt>
      <trkpt lat="41.90366" lon="-8.8669">
        <ele>47.714</ele>
        <time>2018-07-28T11:12:24Z</time>
      </trkpt>
      <trkpt lat="41.90364" lon="-8.86698">
        <ele>47.708</ele>
        <time>2018-07-28T11:12:25Z</time>
      </trkpt>
      <trkpt lat="41.90361" lon="-8.86708">
        <ele>47.765</ele>
        <time>2018-07-28T11:12:26Z</time>
      </trkpt>
      <trkpt lat="41.90358" lon="-8.86716">
        <ele>47.57</ele>
        <time>2018-07-28T11:12:27Z</time>
      </trkpt>
      <trkpt lat="41.90352" lon="-8.86726">
        <ele>47.493</ele>
        <time>2018-07-28T11:12:28Z</time>
      </trkpt>
      <trkpt lat="41.90349" lon="-8.86732">
        <ele>47.335</ele>
        <time>2018-07-28T11:12:29Z</time>
      </trkpt>
      <trkpt lat="41.90345" lon="-8.86743">
        <ele>47.25</ele>
        <time>2018-07-28T11:12:30Z</time>
      </trkpt>
      <trkpt lat="41.90342" lon="-8.86753">
        <ele>47.285</ele>
        <time>2018-07-28T11:12:31Z</time>
      </trkpt>
      <trkpt lat="41.90338" lon="-8.86764">
        <ele>47.223</ele>
        <time>2018-07-28T11:12:32Z</time>
      </trkpt>
      <trkpt lat="41.90334" lon="-8.86775">
        <ele>47.139</ele>
        <time>2018-07-28T11:12:33Z</time>
      </trkpt>
      <trkpt lat="41.90329" lon="-8.86784">
        <ele>46.926</ele>
        <time>2018-07-28T11:12:34Z</time>
      </trkpt>
      <trkpt lat="41.90328" lon="-8.86795">
        <ele>46.747</ele>
        <time>2018-07-28T11:12:35Z</time>
      </trkpt>
      <trkpt lat="41.90326" lon="-8.86802">
        <ele>46.311</ele>
        <time>2018-07-28T11:12:36Z</time>
      </trkpt>
      <trkpt lat="41.90322" lon="-8.86809">
        <ele>46.008</ele>
        <time>2018-07-28T11:12:37Z</time>
      </trkpt>
      <trkpt lat="41.90317" lon="-8.86816">
        <ele>45.444</ele>
        <time>2018-07-28T11:12:38Z</time>
      </trkpt>
      <trkpt lat="41.90314" lon="-8.86824">
        <ele>45.199</ele>
        <time>2018-07-28T11:12:39Z</time>
      </trkpt>
      <trkpt lat="41.90309" lon="-8.86832">
        <ele>44.882</ele>
        <time>2018-07-28T11:12:40Z</time>
      </trkpt>
      <trkpt lat="41.90306" lon="-8.86841">
        <ele>44.494</ele>
        <time>2018-07-28T11:12:41Z</time>
      </trkpt>
      <trkpt lat="41.90305" lon="-8.86849">
        <ele>44.099</ele>
        <time>2018-07-28T11:12:42Z</time>
      </trkpt>
      <trkpt lat="41.90301" lon="-8.86853">
        <ele>43.334</ele>
        <time>2018-07-28T11:12:44Z</time>
      </trkpt>
      <trkpt lat="41.90296" lon="-8.86855">
        <ele>42.492</ele>
        <time>2018-07-28T11:12:47Z</time>
      </trkpt>
      <trkpt lat="41.90293" lon="-8.86863">
        <ele>42.128</ele>
        <time>2018-07-28T11:12:49Z</time>
      </trkpt>
      <trkpt lat="41.90289" lon="-8.86869">
        <ele>42.186</ele>
        <time>2018-07-28T11:12:50Z</time>
      </trkpt>
      <trkpt lat="41.90285" lon="-8.86877">
        <ele>42.16</ele>
        <time>2018-07-28T11:12:51Z</time>
      </trkpt>
      <trkpt lat="41.90283" lon="-8.86884">
        <ele>42.326</ele>
        <time>2018-07-28T11:12:52Z</time>
      </trkpt>
      <trkpt lat="41.90279" lon="-8.86895">
        <ele>42.608</ele>
        <time>2018-07-28T11:12:53Z</time>
      </trkpt>
      <trkpt lat="41.90276" lon="-8.86904">
        <ele>42.92</ele>
        <time>2018-07-28T11:12:54Z</time>
      </trkpt>
      <trkpt lat="41.90273" lon="-8.86914">
        <ele>43.015</ele>
        <time>2018-07-28T11:12:55Z</time>
      </trkpt>
      <trkpt lat="41.90269" lon="-8.86927">
        <ele>43.028</ele>
        <time>2018-07-28T11:12:56Z</time>
      </trkpt>
      <trkpt lat="41.90265" lon="-8.86946">
        <ele>42.82</ele>
        <time>2018-07-28T11:12:57Z</time>
      </trkpt>
      <trkpt lat="41.90262" lon="-8.86962">
        <ele>42.665</ele>
        <time>2018-07-28T11:12:58Z</time>
      </trkpt>
      <trkpt lat="41.90261" lon="-8.86977">
        <ele>42.31</ele>
        <time>2018-07-28T11:12:59Z</time>
      </trkpt>
      <trkpt lat="41.90264" lon="-8.86991">
        <ele>42.018</ele>
        <time>2018-07-28T11:13:00Z</time>
      </trkpt>
      <trkpt lat="41.90261" lon="-8.87004">
        <ele>41.764</ele>
        <time>2018-07-28T11:13:01Z</time>
      </trkpt>
      <trkpt lat="41.90259" lon="-8.87016">
        <ele>41.669</ele>
        <time>2018-07-28T11:13:02Z</time>
      </trkpt>
      <trkpt lat="41.90257" lon="-8.87027">
        <ele>41.504</ele>
        <time>2018-07-28T11:13:03Z</time>
      </trkpt>
      <trkpt lat="41.90255" lon="-8.87036">
        <ele>41.424</ele>
        <time>2018-07-28T11:13:04Z</time>
      </trkpt>
      <trkpt lat="41.90253" lon="-8.87046">
        <ele>41.108</ele>
        <time>2018-07-28T11:13:05Z</time>
      </trkpt>
      <trkpt lat="41.90251" lon="-8.87056">
        <ele>40.818</ele>
        <time>2018-07-28T11:13:06Z</time>
      </trkpt>
      <trkpt lat="41.9025" lon="-8.87067">
        <ele>40.193</ele>
        <time>2018-07-28T11:13:07Z</time>
      </trkpt>
      <trkpt lat="41.9025" lon="-8.87081">
        <ele>40.136</ele>
        <time>2018-07-28T11:13:08Z</time>
      </trkpt>
      <trkpt lat="41.90251" lon="-8.87097">
        <ele>40.238</ele>
        <time>2018-07-28T11:13:09Z</time>
      </trkpt>
      <trkpt lat="41.90252" lon="-8.87112">
        <ele>40.513</ele>
        <time>2018-07-28T11:13:10Z</time>
      </trkpt>
      <trkpt lat="41.90253" lon="-8.87127">
        <ele>41.088</ele>
        <time>2018-07-28T11:13:11Z</time>
      </trkpt>
      <trkpt lat="41.90254" lon="-8.87144">
        <ele>41.426</ele>
        <time>2018-07-28T11:13:12Z</time>
      </trkpt>
      <trkpt lat="41.90256" lon="-8.8716">
        <ele>41.732</ele>
        <time>2018-07-28T11:13:13Z</time>
      </trkpt>
      <trkpt lat="41.90257" lon="-8.87176">
        <ele>41.976</ele>
        <time>2018-07-28T11:13:14Z</time>
      </trkpt>
      <trkpt lat="41.90258" lon="-8.87191">
        <ele>42.29</ele>
        <time>2018-07-28T11:13:15Z</time>
      </trkpt>
      <trkpt lat="41.90259" lon="-8.87207">
        <ele>42.619</ele>
        <time>2018-07-28T11:13:16Z</time>
      </trkpt>
      <trkpt lat="41.9026" lon="-8.87223">
        <ele>43.008</ele>
        <time>2018-07-28T11:13:17Z</time>
      </trkpt>
      <trkpt lat="41.90261" lon="-8.87239">
        <ele>43.429</ele>
        <time>2018-07-28T11:13:18Z</time>
      </trkpt>
      <trkpt lat="41.90261" lon="-8.87256">
        <ele>43.914</ele>
        <time>2018-07-28T11:13:19Z</time>
      </trkpt>
      <trkpt lat="41.90262" lon="-8.87273">
        <ele>44.287</ele>
        <time>2018-07-28T11:13:20Z</time>
      </trkpt>
      <trkpt lat="41.90262" lon="-8.87289">
        <ele>44.619</ele>
        <time>2018-07-28T11:13:21Z</time>
      </trkpt>
      <trkpt lat="41.90262" lon="-8.87302">
        <ele>44.914</ele>
        <time>2018-07-28T11:13:22Z</time>
      </trkpt>
      <trkpt lat="41.90263" lon="-8.87313">
        <ele>44.969</ele>
        <time>2018-07-28T11:13:23Z</time>
      </trkpt>
      <trkpt lat="41.90264" lon="-8.87321">
        <ele>44.887</ele>
        <time>2018-07-28T11:13:24Z</time>
      </trkpt>
      <trkpt lat="41.90265" lon="-8.87329">
        <ele>43.953</ele>
        <time>2018-07-28T11:13:26Z</time>
      </trkpt>
      <trkpt lat="41.90265" lon="-8.87336">
        <ele>43.015</ele>
        <time>2018-07-28T11:13:39Z</time>
      </trkpt>
      <trkpt lat="41.9027" lon="-8.87345">
        <ele>43.465</ele>
        <time>2018-07-28T11:13:40Z</time>
      </trkpt>
      <trkpt lat="41.90276" lon="-8.87356">
        <ele>44.011</ele>
        <time>2018-07-28T11:13:41Z</time>
      </trkpt>
      <trkpt lat="41.90282" lon="-8.87366">
        <ele>44.608</ele>
        <time>2018-07-28T11:13:42Z</time>
      </trkpt>
      <trkpt lat="41.90288" lon="-8.87377">
        <ele>45.273</ele>
        <time>2018-07-28T11:13:43Z</time>
      </trkpt>
      <trkpt lat="41.90297" lon="-8.8739">
        <ele>45.978</ele>
        <time>2018-07-28T11:13:44Z</time>
      </trkpt>
      <trkpt lat="41.90307" lon="-8.87406">
        <ele>46.711</ele>
        <time>2018-07-28T11:13:45Z</time>
      </trkpt>
      <trkpt lat="41.90318" lon="-8.87423">
        <ele>47.673</ele>
        <time>2018-07-28T11:13:46Z</time>
      </trkpt>
      <trkpt lat="41.90328" lon="-8.8744">
        <ele>48.828</ele>
        <time>2018-07-28T11:13:47Z</time>
      </trkpt>
      <trkpt lat="41.90337" lon="-8.87459">
        <ele>50.233</ele>
        <time>2018-07-28T11:13:48Z</time>
      </trkpt>
      <trkpt lat="41.90346" lon="-8.87478">
        <ele>51.271</ele>
        <time>2018-07-28T11:13:49Z</time>
      </trkpt>
      <trkpt lat="41.90354" lon="-8.87493">
        <ele>51.987</ele>
        <time>2018-07-28T11:13:50Z</time>
      </trkpt>
      <trkpt lat="41.90363" lon="-8.87505">
        <ele>51.934</ele>
        <time>2018-07-28T11:13:51Z</time>
      </trkpt>
      <trkpt lat="41.90373" lon="-8.87514">
        <ele>51.055</ele>
        <time>2018-07-28T11:13:52Z</time>
      </trkpt>
      <trkpt lat="41.90383" lon="-8.87523">
        <ele>50.21</ele>
        <time>2018-07-28T11:13:53Z</time>
      </trkpt>
      <trkpt lat="41.90395" lon="-8.87529">
        <ele>49.608</ele>
        <time>2018-07-28T11:13:54Z</time>
      </trkpt>
      <trkpt lat="41.90405" lon="-8.87535">
        <ele>49.015</ele>
        <time>2018-07-28T11:13:55Z</time>
      </trkpt>
      <trkpt lat="41.90413" lon="-8.87545">
        <ele>48.71</ele>
        <time>2018-07-28T11:13:56Z</time>
      </trkpt>
      <trkpt lat="41.90425" lon="-8.8755">
        <ele>48.383</ele>
        <time>2018-07-28T11:13:57Z</time>
      </trkpt>
      <trkpt lat="41.90437" lon="-8.87552">
        <ele>48.245</ele>
        <time>2018-07-28T11:13:58Z</time>
      </trkpt>
      <trkpt lat="41.90453" lon="-8.87547">
        <ele>48.11</ele>
        <time>2018-07-28T11:13:59Z</time>
      </trkpt>
      <trkpt lat="41.90466" lon="-8.87544">
        <ele>48.195</ele>
        <time>2018-07-28T11:14:00Z</time>
      </trkpt>
      <trkpt lat="41.90478" lon="-8.87538">
        <ele>48.263</ele>
        <time>2018-07-28T11:14:01Z</time>
      </trkpt>
      <trkpt lat="41.90488" lon="-8.87531">
        <ele>48.299</ele>
        <time>2018-07-28T11:14:02Z</time>
      </trkpt>
      <trkpt lat="41.90499" lon="-8.87521">
        <ele>48.244</ele>
        <time>2018-07-28T11:14:03Z</time>
      </trkpt>
      <trkpt lat="41.90511" lon="-8.87513">
        <ele>48.205</ele>
        <time>2018-07-28T11:14:04Z</time>
      </trkpt>
      <trkpt lat="41.90523" lon="-8.87504">
        <ele>48.215</ele>
        <time>2018-07-28T11:14:05Z</time>
      </trkpt>
      <trkpt lat="41.90534" lon="-8.87494">
        <ele>48.508</ele>
        <time>2018-07-28T11:14:06Z</time>
      </trkpt>
      <trkpt lat="41.90545" lon="-8.87482">
        <ele>49.026</ele>
        <time>2018-07-28T11:14:07Z</time>
      </trkpt>
      <trkpt lat="41.90557" lon="-8.8747">
        <ele>49.461</ele>
        <time>2018-07-28T11:14:08Z</time>
      </trkpt>
      <trkpt lat="41.9057" lon="-8.87457">
        <ele>49.744</ele>
        <time>2018-07-28T11:14:09Z</time>
      </trkpt>
      <trkpt lat="41.90583" lon="-8.87446">
        <ele>49.926</ele>
        <time>2018-07-28T11:14:10Z</time>
      </trkpt>
      <trkpt lat="41.90595" lon="-8.87432">
        <ele>50.021</ele>
        <time>2018-07-28T11:14:11Z</time>
      </trkpt>
      <trkpt lat="41.90604" lon="-8.87418">
        <ele>50.096</ele>
        <time>2018-07-28T11:14:12Z</time>
      </trkpt>
      <trkpt lat="41.90613" lon="-8.87407">
        <ele>49.594</ele>
        <time>2018-07-28T11:14:13Z</time>
      </trkpt>
      <trkpt lat="41.90621" lon="-8.87396">
        <ele>48.66</ele>
        <time>2018-07-28T11:14:14Z</time>
      </trkpt>
      <trkpt lat="41.90631" lon="-8.87391">
        <ele>48.063</ele>
        <time>2018-07-28T11:14:15Z</time>
      </trkpt>
      <trkpt lat="41.90637" lon="-8.87384">
        <ele>47.044</ele>
        <time>2018-07-28T11:14:16Z</time>
      </trkpt>
      <trkpt lat="41.90643" lon="-8.87378">
        <ele>46.018</ele>
        <time>2018-07-28T11:14:17Z</time>
      </trkpt>
      <trkpt lat="41.90649" lon="-8.87377">
        <ele>44.708</ele>
        <time>2018-07-28T11:14:19Z</time>
      </trkpt>
      <trkpt lat="41.9065" lon="-8.87369">
        <ele>43.038</ele>
        <time>2018-07-28T11:14:21Z</time>
      </trkpt>
      <trkpt lat="41.90651" lon="-8.87363">
        <ele>42.843</ele>
        <time>2018-07-28T11:14:22Z</time>
      </trkpt>
      <trkpt lat="41.90657" lon="-8.87366">
        <ele>42.376</ele>
        <time>2018-07-28T11:14:25Z</time>
      </trkpt>
      <trkpt lat="41.90655" lon="-8.87374">
        <ele>42.248</ele>
        <time>2018-07-28T11:14:26Z</time>
      </trkpt>
      <trkpt lat="41.90654" lon="-8.87367">
        <ele>42.273</ele>
        <time>2018-07-28T11:14:28Z</time>
      </trkpt>
      <trkpt lat="41.90649" lon="-8.87374">
        <ele>42.218</ele>
        <time>2018-07-28T11:14:34Z</time>
      </trkpt>
      <trkpt lat="41.90647" lon="-8.87381">
        <ele>42.216</ele>
        <time>2018-07-28T11:14:37Z</time>
      </trkpt>
      <trkpt lat="41.90652" lon="-8.87369">
        <ele>42.342</ele>
        <time>2018-07-28T11:19:35Z</time>
      </trkpt>
      <trkpt lat="41.90658" lon="-8.87368">
        <ele>42.278</ele>
        <time>2018-07-28T11:21:30Z</time>
      </trkpt>
      <trkpt lat="41.90662" lon="-8.87363">
        <ele>42.333</ele>
        <time>2018-07-28T11:21:49Z</time>
      </trkpt>
      <trkpt lat="41.90667" lon="-8.87359">
        <ele>42.526</ele>
        <time>2018-07-28T11:21:50Z</time>
      </trkpt>
      <trkpt lat="41.90673" lon="-8.87354">
        <ele>42.808</ele>
        <time>2018-07-28T11:21:51Z</time>
      </trkpt>
      <trkpt lat="41.90678" lon="-8.87348">
        <ele>43.199</ele>
        <time>2018-07-28T11:21:52Z</time>
      </trkpt>
      <trkpt lat="41.90684" lon="-8.8734">
        <ele>43.374</ele>
        <time>2018-07-28T11:21:53Z</time>
      </trkpt>
      <trkpt lat="41.90692" lon="-8.87331">
        <ele>43.577</ele>
        <time>2018-07-28T11:21:54Z</time>
      </trkpt>
      <trkpt lat="41.90701" lon="-8.87321">
        <ele>43.719</ele>
        <time>2018-07-28T11:21:55Z</time>
      </trkpt>
      <trkpt lat="41.9071" lon="-8.8731">
        <ele>44.164</ele>
        <time>2018-07-28T11:21:56Z</time>
      </trkpt>
      <trkpt lat="41.9072" lon="-8.87301">
        <ele>44.349</ele>
        <time>2018-07-28T11:21:57Z</time>
      </trkpt>
      <trkpt lat="41.90729" lon="-8.87291">
        <ele>44.597</ele>
        <time>2018-07-28T11:21:58Z</time>
      </trkpt>
      <trkpt lat="41.90738" lon="-8.8728">
        <ele>44.723</ele>
        <time>2018-07-28T11:21:59Z</time>
      </trkpt>
      <trkpt lat="41.90748" lon="-8.87269">
        <ele>45.045</ele>
        <time>2018-07-28T11:22:00Z</time>
      </trkpt>
      <trkpt lat="41.90759" lon="-8.87257">
        <ele>45.447</ele>
        <time>2018-07-28T11:22:01Z</time>
      </trkpt>
      <trkpt lat="41.9077" lon="-8.87246">
        <ele>45.811</ele>
        <time>2018-07-28T11:22:02Z</time>
      </trkpt>
      <trkpt lat="41.90781" lon="-8.87236">
        <ele>46.208</ele>
        <time>2018-07-28T11:22:03Z</time>
      </trkpt>
      <trkpt lat="41.9079" lon="-8.87225">
        <ele>46.356</ele>
        <time>2018-07-28T11:22:04Z</time>
      </trkpt>
      <trkpt lat="41.90801" lon="-8.87216">
        <ele>46.331</ele>
        <time>2018-07-28T11:22:05Z</time>
      </trkpt>
      <trkpt lat="41.90812" lon="-8.87207">
        <ele>46.084</ele>
        <time>2018-07-28T11:22:06Z</time>
      </trkpt>
      <trkpt lat="41.90824" lon="-8.87203">
        <ele>45.726</ele>
        <time>2018-07-28T11:22:07Z</time>
      </trkpt>
      <trkpt lat="41.90837" lon="-8.87199">
        <ele>45.261</ele>
        <time>2018-07-28T11:22:08Z</time>
      </trkpt>
      <trkpt lat="41.9085" lon="-8.87198">
        <ele>44.836</ele>
        <time>2018-07-28T11:22:09Z</time>
      </trkpt>
      <trkpt lat="41.90865" lon="-8.87197">
        <ele>44.314</ele>
        <time>2018-07-28T11:22:10Z</time>
      </trkpt>
      <trkpt lat="41.9088" lon="-8.87199">
        <ele>44.34</ele>
        <time>2018-07-28T11:22:11Z</time>
      </trkpt>
      <trkpt lat="41.90894" lon="-8.872">
        <ele>44.018</ele>
        <time>2018-07-28T11:22:12Z</time>
      </trkpt>
      <trkpt lat="41.90909" lon="-8.87201">
        <ele>43.598</ele>
        <time>2018-07-28T11:22:13Z</time>
      </trkpt>
      <trkpt lat="41.90923" lon="-8.87203">
        <ele>43.517</ele>
        <time>2018-07-28T11:22:14Z</time>
      </trkpt>
      <trkpt lat="41.90936" lon="-8.87204">
        <ele>43.508</ele>
        <time>2018-07-28T11:22:15Z</time>
      </trkpt>
      <trkpt lat="41.9095" lon="-8.87205">
        <ele>43.553</ele>
        <time>2018-07-28T11:22:16Z</time>
      </trkpt>
      <trkpt lat="41.90964" lon="-8.87206">
        <ele>43.548</ele>
        <time>2018-07-28T11:22:17Z</time>
      </trkpt>
      <trkpt lat="41.90978" lon="-8.87207">
        <ele>43.631</ele>
        <time>2018-07-28T11:22:18Z</time>
      </trkpt>
      <trkpt lat="41.90992" lon="-8.87209">
        <ele>43.663</ele>
        <time>2018-07-28T11:22:19Z</time>
      </trkpt>
      <trkpt lat="41.91007" lon="-8.87212">
        <ele>43.638</ele>
        <time>2018-07-28T11:22:20Z</time>
      </trkpt>
      <trkpt lat="41.91022" lon="-8.87214">
        <ele>44.153</ele>
        <time>2018-07-28T11:22:21Z</time>
      </trkpt>
      <trkpt lat="41.91037" lon="-8.87215">
        <ele>44.971</ele>
        <time>2018-07-28T11:22:22Z</time>
      </trkpt>
      <trkpt lat="41.91053" lon="-8.87215">
        <ele>45.457</ele>
        <time>2018-07-28T11:22:23Z</time>
      </trkpt>
      <trkpt lat="41.9107" lon="-8.87214">
        <ele>45.641</ele>
        <time>2018-07-28T11:22:24Z</time>
      </trkpt>
      <trkpt lat="41.91086" lon="-8.87214">
        <ele>45.681</ele>
        <time>2018-07-28T11:22:25Z</time>
      </trkpt>
      <trkpt lat="41.91104" lon="-8.87217">
        <ele>45.609</ele>
        <time>2018-07-28T11:22:26Z</time>
      </trkpt>
      <trkpt lat="41.91121" lon="-8.87217">
        <ele>45.308</ele>
        <time>2018-07-28T11:22:27Z</time>
      </trkpt>
      <trkpt lat="41.91136" lon="-8.87224">
        <ele>45.176</ele>
        <time>2018-07-28T11:22:28Z</time>
      </trkpt>
      <trkpt lat="41.91152" lon="-8.87229">
        <ele>45.141</ele>
        <time>2018-07-28T11:22:29Z</time>
      </trkpt>
      <trkpt lat="41.91167" lon="-8.87239">
        <ele>45.274</ele>
        <time>2018-07-28T11:22:30Z</time>
      </trkpt>
      <trkpt lat="41.91178" lon="-8.8725">
        <ele>45.436</ele>
        <time>2018-07-28T11:22:31Z</time>
      </trkpt>
      <trkpt lat="41.91188" lon="-8.8727">
        <ele>45.531</ele>
        <time>2018-07-28T11:22:32Z</time>
      </trkpt>
      <trkpt lat="41.91198" lon="-8.87288">
        <ele>45.746</ele>
        <time>2018-07-28T11:22:33Z</time>
      </trkpt>
      <trkpt lat="41.91205" lon="-8.87305">
        <ele>46.364</ele>
        <time>2018-07-28T11:22:34Z</time>
      </trkpt>
      <trkpt lat="41.91211" lon="-8.87325">
        <ele>46.86</ele>
        <time>2018-07-28T11:22:35Z</time>
      </trkpt>
      <trkpt lat="41.91216" lon="-8.87346">
        <ele>47.269</ele>
        <time>2018-07-28T11:22:36Z</time>
      </trkpt>
      <trkpt lat="41.9122" lon="-8.87368">
        <ele>47.804</ele>
        <time>2018-07-28T11:22:37Z</time>
      </trkpt>
      <trkpt lat="41.91226" lon="-8.87391">
        <ele>48.424</ele>
        <time>2018-07-28T11:22:38Z</time>
      </trkpt>
      <trkpt lat="41.91232" lon="-8.87411">
        <ele>49.008</ele>
        <time>2018-07-28T11:22:39Z</time>
      </trkpt>
      <trkpt lat="41.91241" lon="-8.87433">
        <ele>49.578</ele>
        <time>2018-07-28T11:22:40Z</time>
      </trkpt>
      <trkpt lat="41.91253" lon="-8.87452">
        <ele>50.273</ele>
        <time>2018-07-28T11:22:41Z</time>
      </trkpt>
      <trkpt lat="41.91266" lon="-8.8747">
        <ele>50.826</ele>
        <time>2018-07-28T11:22:42Z</time>
      </trkpt>
      <trkpt lat="41.91278" lon="-8.87485">
        <ele>50.748</ele>
        <time>2018-07-28T11:22:43Z</time>
      </trkpt>
      <trkpt lat="41.91289" lon="-8.87502">
        <ele>50.283</ele>
        <time>2018-07-28T11:22:44Z</time>
      </trkpt>
      <trkpt lat="41.91302" lon="-8.87523">
        <ele>49.638</ele>
        <time>2018-07-28T11:22:45Z</time>
      </trkpt>
      <trkpt lat="41.91309" lon="-8.87544">
        <ele>48.976</ele>
        <time>2018-07-28T11:22:46Z</time>
      </trkpt>
      <trkpt lat="41.91313" lon="-8.87569">
        <ele>48.362</ele>
        <time>2018-07-28T11:22:47Z</time>
      </trkpt>
      <trkpt lat="41.91313" lon="-8.87595">
        <ele>48.235</ele>
        <time>2018-07-28T11:22:48Z</time>
      </trkpt>
      <trkpt lat="41.91309" lon="-8.87621">
        <ele>48.286</ele>
        <time>2018-07-28T11:22:49Z</time>
      </trkpt>
      <trkpt lat="41.91304" lon="-8.87646">
        <ele>48.514</ele>
        <time>2018-07-28T11:22:50Z</time>
      </trkpt>
      <trkpt lat="41.91296" lon="-8.8767">
        <ele>48.908</ele>
        <time>2018-07-28T11:22:51Z</time>
      </trkpt>
      <trkpt lat="41.91289" lon="-8.87694">
        <ele>49.345</ele>
        <time>2018-07-28T11:22:52Z</time>
      </trkpt>
      <trkpt lat="41.91282" lon="-8.87717">
        <ele>49.92</ele>
        <time>2018-07-28T11:22:53Z</time>
      </trkpt>
      <trkpt lat="41.91277" lon="-8.87742">
        <ele>50.393</ele>
        <time>2018-07-28T11:22:54Z</time>
      </trkpt>
      <trkpt lat="41.9128" lon="-8.87763">
        <ele>50.315</ele>
        <time>2018-07-28T11:22:55Z</time>
      </trkpt>
      <trkpt lat="41.9128" lon="-8.87788">
        <ele>50.15</ele>
        <time>2018-07-28T11:22:56Z</time>
      </trkpt>
      <trkpt lat="41.91286" lon="-8.87813">
        <ele>50.145</ele>
        <time>2018-07-28T11:22:57Z</time>
      </trkpt>
      <trkpt lat="41.91292" lon="-8.87836">
        <ele>49.973</ele>
        <time>2018-07-28T11:22:58Z</time>
      </trkpt>
      <trkpt lat="41.91297" lon="-8.87858">
        <ele>50.119</ele>
        <time>2018-07-28T11:22:59Z</time>
      </trkpt>
      <trkpt lat="41.91304" lon="-8.87879">
        <ele>50.497</ele>
        <time>2018-07-28T11:23:00Z</time>
      </trkpt>
      <trkpt lat="41.91315" lon="-8.879">
        <ele>50.523</ele>
        <time>2018-07-28T11:23:01Z</time>
      </trkpt>
      <trkpt lat="41.91327" lon="-8.87914">
        <ele>50.625</ele>
        <time>2018-07-28T11:23:02Z</time>
      </trkpt>
      <trkpt lat="41.9134" lon="-8.87926">
        <ele>50.608</ele>
        <time>2018-07-28T11:23:03Z</time>
      </trkpt>
      <trkpt lat="41.91356" lon="-8.87931">
        <ele>50.511</ele>
        <time>2018-07-28T11:23:04Z</time>
      </trkpt>
      <trkpt lat="41.91373" lon="-8.87935">
        <ele>50.516</ele>
        <time>2018-07-28T11:23:05Z</time>
      </trkpt>
      <trkpt lat="41.91389" lon="-8.87935">
        <ele>50.469</ele>
        <time>2018-07-28T11:23:06Z</time>
      </trkpt>
      <trkpt lat="41.91406" lon="-8.87936">
        <ele>50.471</ele>
        <time>2018-07-28T11:23:07Z</time>
      </trkpt>
      <trkpt lat="41.91423" lon="-8.87934">
        <ele>50.416</ele>
        <time>2018-07-28T11:23:08Z</time>
      </trkpt>
      <trkpt lat="41.91439" lon="-8.87935">
        <ele>50.471</ele>
        <time>2018-07-28T11:23:09Z</time>
      </trkpt>
      <trkpt lat="41.91455" lon="-8.87931">
        <ele>50.459</ele>
        <time>2018-07-28T11:23:10Z</time>
      </trkpt>
      <trkpt lat="41.91471" lon="-8.87928">
        <ele>50.345</ele>
        <time>2018-07-28T11:23:11Z</time>
      </trkpt>
      <trkpt lat="41.91487" lon="-8.87928">
        <ele>50.243</ele>
        <time>2018-07-28T11:23:12Z</time>
      </trkpt>
      <trkpt lat="41.91503" lon="-8.87926">
        <ele>49.964</ele>
        <time>2018-07-28T11:23:13Z</time>
      </trkpt>
      <trkpt lat="41.9152" lon="-8.87927">
        <ele>49.61</ele>
        <time>2018-07-28T11:23:14Z</time>
      </trkpt>
      <trkpt lat="41.91538" lon="-8.87931">
        <ele>49.708</ele>
        <time>2018-07-28T11:23:15Z</time>
      </trkpt>
      <trkpt lat="41.91555" lon="-8.87932">
        <ele>49.736</ele>
        <time>2018-07-28T11:23:16Z</time>
      </trkpt>
      <trkpt lat="41.9157" lon="-8.87934">
        <ele>49.771</ele>
        <time>2018-07-28T11:23:17Z</time>
      </trkpt>
      <trkpt lat="41.91588" lon="-8.87934">
        <ele>49.754</ele>
        <time>2018-07-28T11:23:18Z</time>
      </trkpt>
      <trkpt lat="41.91604" lon="-8.87937">
        <ele>49.476</ele>
        <time>2018-07-28T11:23:19Z</time>
      </trkpt>
      <trkpt lat="41.9162" lon="-8.87942">
        <ele>49.051</ele>
        <time>2018-07-28T11:23:20Z</time>
      </trkpt>
      <trkpt lat="41.91635" lon="-8.87946">
        <ele>48.956</ele>
        <time>2018-07-28T11:23:21Z</time>
      </trkpt>
      <trkpt lat="41.9165" lon="-8.87948">
        <ele>48.964</ele>
        <time>2018-07-28T11:23:22Z</time>
      </trkpt>
      <trkpt lat="41.91664" lon="-8.87949">
        <ele>48.93</ele>
        <time>2018-07-28T11:23:23Z</time>
      </trkpt>
      <trkpt lat="41.91678" lon="-8.87953">
        <ele>48.971</ele>
        <time>2018-07-28T11:23:24Z</time>
      </trkpt>
      <trkpt lat="41.91691" lon="-8.87954">
        <ele>48.941</ele>
        <time>2018-07-28T11:23:25Z</time>
      </trkpt>
      <trkpt lat="41.91703" lon="-8.87955">
        <ele>48.715</ele>
        <time>2018-07-28T11:23:26Z</time>
      </trkpt>
      <trkpt lat="41.91711" lon="-8.87956">
        <ele>48.208</ele>
        <time>2018-07-28T11:23:27Z</time>
      </trkpt>
      <trkpt lat="41.91718" lon="-8.87955">
        <ele>47.449</ele>
        <time>2018-07-28T11:23:28Z</time>
      </trkpt>
      <trkpt lat="41.91723" lon="-8.87957">
        <ele>45.434</ele>
        <time>2018-07-28T11:23:29Z</time>
      </trkpt>
      <trkpt lat="41.91729" lon="-8.87957">
        <ele>43.357</ele>
        <time>2018-07-28T11:23:32Z</time>
      </trkpt>
      <trkpt lat="41.91725" lon="-8.87959">
        <ele>42.649</ele>
        <time>2018-07-28T11:23:39Z</time>
      </trkpt>
      <trkpt lat="41.91724" lon="-8.87966">
        <ele>42.664</ele>
        <time>2018-07-28T11:23:40Z</time>
      </trkpt>
      <trkpt lat="41.91729" lon="-8.87968">
        <ele>42.689</ele>
        <time>2018-07-28T11:23:44Z</time>
      </trkpt>
      <trkpt lat="41.91728" lon="-8.87962">
        <ele>42.647</ele>
        <time>2018-07-28T11:23:49Z</time>
      </trkpt>
      <trkpt lat="41.91725" lon="-8.87953">
        <ele>42.813</ele>
        <time>2018-07-28T11:24:08Z</time>
      </trkpt>
      <trkpt lat="41.91723" lon="-8.87947">
        <ele>42.541</ele>
        <time>2018-07-28T11:24:11Z</time>
      </trkpt>
      <trkpt lat="41.91728" lon="-8.87954">
        <ele>42.481</ele>
        <time>2018-07-28T11:24:13Z</time>
      </trkpt>
      <trkpt lat="41.91725" lon="-8.8796">
        <ele>42.409</ele>
        <time>2018-07-28T11:24:14Z</time>
      </trkpt>
      <trkpt lat="41.91728" lon="-8.87956">
        <ele>42.208</ele>
        <time>2018-07-28T11:24:18Z</time>
      </trkpt>
      <trkpt lat="41.9173" lon="-8.87963">
        <ele>42.486</ele>
        <time>2018-07-28T11:24:33Z</time>
      </trkpt>
      <trkpt lat="41.91734" lon="-8.87966">
        <ele>42.461</ele>
        <time>2018-07-28T11:24:35Z</time>
      </trkpt>
      <trkpt lat="41.91735" lon="-8.8796">
        <ele>42.414</ele>
        <time>2018-07-28T11:24:40Z</time>
      </trkpt>
      <trkpt lat="41.91735" lon="-8.87951">
        <ele>42.496</ele>
        <time>2018-07-28T11:24:42Z</time>
      </trkpt>
      <trkpt lat="41.91733" lon="-8.87956">
        <ele>42.451</ele>
        <time>2018-07-28T11:24:45Z</time>
      </trkpt>
      <trkpt lat="41.91728" lon="-8.87962">
        <ele>41.856</ele>
        <time>2018-07-28T11:24:47Z</time>
      </trkpt>
      <trkpt lat="41.91722" lon="-8.87963">
        <ele>42.854</ele>
        <time>2018-07-28T11:24:53Z</time>
      </trkpt>
      <trkpt lat="41.91721" lon="-8.8797">
        <ele>42.54</ele>
        <time>2018-07-28T11:25:01Z</time>
      </trkpt>
      <trkpt lat="41.91726" lon="-8.87963">
        <ele>42.424</ele>
        <time>2018-07-28T11:25:05Z</time>
      </trkpt>
      <trkpt lat="41.91726" lon="-8.87957">
        <ele>42.404</ele>
        <time>2018-07-28T11:25:07Z</time>
      </trkpt>
      <trkpt lat="41.9173" lon="-8.87961">
        <ele>42.414</ele>
        <time>2018-07-28T11:25:14Z</time>
      </trkpt>
      <trkpt lat="41.91735" lon="-8.87963">
        <ele>42.508</ele>
        <time>2018-07-28T11:25:17Z</time>
      </trkpt>
      <trkpt lat="41.91743" lon="-8.87966">
        <ele>42.764</ele>
        <time>2018-07-28T11:25:18Z</time>
      </trkpt>
      <trkpt lat="41.91752" lon="-8.87966">
        <ele>43.059</ele>
        <time>2018-07-28T11:25:19Z</time>
      </trkpt>
      <trkpt lat="41.91761" lon="-8.87968">
        <ele>43.412</ele>
        <time>2018-07-28T11:25:20Z</time>
      </trkpt>
      <trkpt lat="41.91769" lon="-8.87967">
        <ele>44.684</ele>
        <time>2018-07-28T11:25:21Z</time>
      </trkpt>
      <trkpt lat="41.91776" lon="-8.87969">
        <ele>44.689</ele>
        <time>2018-07-28T11:25:22Z</time>
      </trkpt>
      <trkpt lat="41.91787" lon="-8.87971">
        <ele>44.634</ele>
        <time>2018-07-28T11:25:23Z</time>
      </trkpt>
      <trkpt lat="41.91798" lon="-8.87973">
        <ele>45.072</ele>
        <time>2018-07-28T11:25:24Z</time>
      </trkpt>
      <trkpt lat="41.9181" lon="-8.87974">
        <ele>45.648</ele>
        <time>2018-07-28T11:25:25Z</time>
      </trkpt>
      <trkpt lat="41.91823" lon="-8.87976">
        <ele>46.456</ele>
        <time>2018-07-28T11:25:26Z</time>
      </trkpt>
      <trkpt lat="41.91837" lon="-8.87978">
        <ele>47.259</ele>
        <time>2018-07-28T11:25:27Z</time>
      </trkpt>
      <trkpt lat="41.9185" lon="-8.87979">
        <ele>48.514</ele>
        <time>2018-07-28T11:25:28Z</time>
      </trkpt>
      <trkpt lat="41.91864" lon="-8.87981">
        <ele>48.708</ele>
        <time>2018-07-28T11:25:29Z</time>
      </trkpt>
      <trkpt lat="41.91878" lon="-8.87978">
        <ele>48.957</ele>
        <time>2018-07-28T11:25:30Z</time>
      </trkpt>
      <trkpt lat="41.91893" lon="-8.87977">
        <ele>49.262</ele>
        <time>2018-07-28T11:25:31Z</time>
      </trkpt>
      <trkpt lat="41.91909" lon="-8.87975">
        <ele>49.275</ele>
        <time>2018-07-28T11:25:32Z</time>
      </trkpt>
      <trkpt lat="41.91926" lon="-8.8797">
        <ele>49.217</ele>
        <time>2018-07-28T11:25:33Z</time>
      </trkpt>
      <trkpt lat="41.91942" lon="-8.87975">
        <ele>49.382</ele>
        <time>2018-07-28T11:25:34Z</time>
      </trkpt>
      <trkpt lat="41.91955" lon="-8.87976">
        <ele>49.427</ele>
        <time>2018-07-28T11:25:35Z</time>
      </trkpt>
      <trkpt lat="41.91968" lon="-8.87977">
        <ele>49.455</ele>
        <time>2018-07-28T11:25:36Z</time>
      </trkpt>
      <trkpt lat="41.91979" lon="-8.87988">
        <ele>49.411</ele>
        <time>2018-07-28T11:25:37Z</time>
      </trkpt>
      <trkpt lat="41.91992" lon="-8.87996">
        <ele>49.673</ele>
        <time>2018-07-28T11:25:38Z</time>
      </trkpt>
      <trkpt lat="41.92008" lon="-8.88002">
        <ele>50.985</ele>
        <time>2018-07-28T11:25:39Z</time>
      </trkpt>
      <trkpt lat="41.92023" lon="-8.88008">
        <ele>51.213</ele>
        <time>2018-07-28T11:25:40Z</time>
      </trkpt>
      <trkpt lat="41.92041" lon="-8.88013">
        <ele>51.908</ele>
        <time>2018-07-28T11:25:41Z</time>
      </trkpt>
      <trkpt lat="41.9206" lon="-8.88017">
        <ele>53.219</ele>
        <time>2018-07-28T11:25:42Z</time>
      </trkpt>
      <trkpt lat="41.92077" lon="-8.8802">
        <ele>54.324</ele>
        <time>2018-07-28T11:25:43Z</time>
      </trkpt>
      <trkpt lat="41.92097" lon="-8.88025">
        <ele>56.297</ele>
        <time>2018-07-28T11:25:44Z</time>
      </trkpt>
      <trkpt lat="41.92114" lon="-8.88024">
        <ele>56.979</ele>
        <time>2018-07-28T11:25:45Z</time>
      </trkpt>
      <trkpt lat="41.92133" lon="-8.8802">
        <ele>57.774</ele>
        <time>2018-07-28T11:25:46Z</time>
      </trkpt>
      <trkpt lat="41.92153" lon="-8.88017">
        <ele>58.669</ele>
        <time>2018-07-28T11:25:47Z</time>
      </trkpt>
      <trkpt lat="41.92172" lon="-8.88019">
        <ele>59.217</ele>
        <time>2018-07-28T11:25:48Z</time>
      </trkpt>
      <trkpt lat="41.92192" lon="-8.88023">
        <ele>59.523</ele>
        <time>2018-07-28T11:25:49Z</time>
      </trkpt>
      <trkpt lat="41.92214" lon="-8.8803">
        <ele>59.545</ele>
        <time>2018-07-28T11:25:50Z</time>
      </trkpt>
      <trkpt lat="41.92235" lon="-8.88034">
        <ele>59.547</ele>
        <time>2018-07-28T11:25:51Z</time>
      </trkpt>
      <trkpt lat="41.92256" lon="-8.88039">
        <ele>59.411</ele>
        <time>2018-07-28T11:25:52Z</time>
      </trkpt>
      <trkpt lat="41.92275" lon="-8.88042">
        <ele>59.408</ele>
        <time>2018-07-28T11:25:53Z</time>
      </trkpt>
      <trkpt lat="41.92296" lon="-8.88048">
        <ele>59.426</ele>
        <time>2018-07-28T11:25:54Z</time>
      </trkpt>
      <trkpt lat="41.92314" lon="-8.8805">
        <ele>59.591</ele>
        <time>2018-07-28T11:25:55Z</time>
      </trkpt>
      <trkpt lat="41.92332" lon="-8.88052">
        <ele>59.514</ele>
        <time>2018-07-28T11:25:56Z</time>
      </trkpt>
      <trkpt lat="41.9235" lon="-8.88059">
        <ele>59.396</ele>
        <time>2018-07-28T11:25:57Z</time>
      </trkpt>
      <trkpt lat="41.92369" lon="-8.88063">
        <ele>58.641</ele>
        <time>2018-07-28T11:25:58Z</time>
      </trkpt>
      <trkpt lat="41.92388" lon="-8.88066">
        <ele>58.136</ele>
        <time>2018-07-28T11:25:59Z</time>
      </trkpt>
      <trkpt lat="41.92407" lon="-8.8807">
        <ele>57.414</ele>
        <time>2018-07-28T11:26:00Z</time>
      </trkpt>
      <trkpt lat="41.92427" lon="-8.88074">
        <ele>56.92</ele>
        <time>2018-07-28T11:26:01Z</time>
      </trkpt>
      <trkpt lat="41.92446" lon="-8.88073">
        <ele>56.581</ele>
        <time>2018-07-28T11:26:02Z</time>
      </trkpt>
      <trkpt lat="41.92468" lon="-8.88079">
        <ele>56.561</ele>
        <time>2018-07-28T11:26:03Z</time>
      </trkpt>
      <trkpt lat="41.92489" lon="-8.88085">
        <ele>56.517</ele>
        <time>2018-07-28T11:26:04Z</time>
      </trkpt>
      <trkpt lat="41.92511" lon="-8.88088">
        <ele>56.508</ele>
        <time>2018-07-28T11:26:05Z</time>
      </trkpt>
      <trkpt lat="41.92533" lon="-8.88088">
        <ele>56.51</ele>
        <time>2018-07-28T11:26:06Z</time>
      </trkpt>
      <trkpt lat="41.92553" lon="-8.8809">
        <ele>56.365</ele>
        <time>2018-07-28T11:26:07Z</time>
      </trkpt>
      <trkpt lat="41.92572" lon="-8.88094">
        <ele>55.938</ele>
        <time>2018-07-28T11:26:08Z</time>
      </trkpt>
      <trkpt lat="41.92592" lon="-8.881">
        <ele>55.35</ele>
        <time>2018-07-28T11:26:09Z</time>
      </trkpt>
      <trkpt lat="41.92614" lon="-8.88102">
        <ele>55.095</ele>
        <time>2018-07-28T11:26:10Z</time>
      </trkpt>
      <trkpt lat="41.92638" lon="-8.88105">
        <ele>54.78</ele>
        <time>2018-07-28T11:26:11Z</time>
      </trkpt>
      <trkpt lat="41.9266" lon="-8.88109">
        <ele>54.548</ele>
        <time>2018-07-28T11:26:12Z</time>
      </trkpt>
      <trkpt lat="41.9268" lon="-8.88113">
        <ele>54.564</ele>
        <time>2018-07-28T11:26:13Z</time>
      </trkpt>
      <trkpt lat="41.92703" lon="-8.88121">
        <ele>54.767</ele>
        <time>2018-07-28T11:26:14Z</time>
      </trkpt>
      <trkpt lat="41.92723" lon="-8.88125">
        <ele>54.781</ele>
        <time>2018-07-28T11:26:15Z</time>
      </trkpt>
      <trkpt lat="41.92741" lon="-8.88136">
        <ele>54.919</ele>
        <time>2018-07-28T11:26:16Z</time>
      </trkpt>
      <trkpt lat="41.92757" lon="-8.88147">
        <ele>54.908</ele>
        <time>2018-07-28T11:26:17Z</time>
      </trkpt>
      <trkpt lat="41.92773" lon="-8.88153">
        <ele>54.898</ele>
        <time>2018-07-28T11:26:18Z</time>
      </trkpt>
      <trkpt lat="41.92791" lon="-8.88157">
        <ele>54.783</ele>
        <time>2018-07-28T11:26:19Z</time>
      </trkpt>
      <trkpt lat="41.92808" lon="-8.88163">
        <ele>54.726</ele>
        <time>2018-07-28T11:26:20Z</time>
      </trkpt>
      <trkpt lat="41.92825" lon="-8.88167">
        <ele>54.538</ele>
        <time>2018-07-28T11:26:21Z</time>
      </trkpt>
      <trkpt lat="41.92844" lon="-8.88167">
        <ele>54.453</ele>
        <time>2018-07-28T11:26:22Z</time>
      </trkpt>
      <trkpt lat="41.92863" lon="-8.88169">
        <ele>54.438</ele>
        <time>2018-07-28T11:26:23Z</time>
      </trkpt>
      <trkpt lat="41.92881" lon="-8.88166">
        <ele>54.346</ele>
        <time>2018-07-28T11:26:24Z</time>
      </trkpt>
      <trkpt lat="41.92903" lon="-8.8817">
        <ele>54.252</ele>
        <time>2018-07-28T11:26:25Z</time>
      </trkpt>
      <trkpt lat="41.92924" lon="-8.88171">
        <ele>54.255</ele>
        <time>2018-07-28T11:26:26Z</time>
      </trkpt>
      <trkpt lat="41.92944" lon="-8.88171">
        <ele>54.507</ele>
        <time>2018-07-28T11:26:27Z</time>
      </trkpt>
      <trkpt lat="41.92964" lon="-8.88168">
        <ele>54.517</ele>
        <time>2018-07-28T11:26:28Z</time>
      </trkpt>
      <trkpt lat="41.9298" lon="-8.8817">
        <ele>54.708</ele>
        <time>2018-07-28T11:26:29Z</time>
      </trkpt>
      <trkpt lat="41.92999" lon="-8.88176">
        <ele>54.977</ele>
        <time>2018-07-28T11:26:30Z</time>
      </trkpt>
      <trkpt lat="41.93021" lon="-8.88176">
        <ele>55.092</ele>
        <time>2018-07-28T11:26:31Z</time>
      </trkpt>
      <trkpt lat="41.93041" lon="-8.88185">
        <ele>55.635</ele>
        <time>2018-07-28T11:26:32Z</time>
      </trkpt>
      <trkpt lat="41.93061" lon="-8.88199">
        <ele>56.897</ele>
        <time>2018-07-28T11:26:33Z</time>
      </trkpt>
      <trkpt lat="41.93079" lon="-8.88219">
        <ele>58.142</ele>
        <time>2018-07-28T11:26:34Z</time>
      </trkpt>
      <trkpt lat="41.93098" lon="-8.88236">
        <ele>59.347</ele>
        <time>2018-07-28T11:26:35Z</time>
      </trkpt>
      <trkpt lat="41.93113" lon="-8.88254">
        <ele>60.275</ele>
        <time>2018-07-28T11:26:36Z</time>
      </trkpt>
      <trkpt lat="41.93128" lon="-8.88273">
        <ele>61.181</ele>
        <time>2018-07-28T11:26:37Z</time>
      </trkpt>
      <trkpt lat="41.93144" lon="-8.88291">
        <ele>61.237</ele>
        <time>2018-07-28T11:26:38Z</time>
      </trkpt>
      <trkpt lat="41.93157" lon="-8.88312">
        <ele>61.249</ele>
        <time>2018-07-28T11:26:39Z</time>
      </trkpt>
      <trkpt lat="41.93165" lon="-8.88337">
        <ele>60.913</ele>
        <time>2018-07-28T11:26:40Z</time>
      </trkpt>
      <trkpt lat="41.93188" lon="-8.88345">
        <ele>60.708</ele>
        <time>2018-07-28T11:26:41Z</time>
      </trkpt>
      <trkpt lat="41.93208" lon="-8.88356">
        <ele>60.375</ele>
        <time>2018-07-28T11:26:42Z</time>
      </trkpt>
      <trkpt lat="41.93233" lon="-8.88363">
        <ele>59.78</ele>
        <time>2018-07-28T11:26:43Z</time>
      </trkpt>
      <trkpt lat="41.93265" lon="-8.8836">
        <ele>59.793</ele>
        <time>2018-07-28T11:26:44Z</time>
      </trkpt>
      <trkpt lat="41.93297" lon="-8.88352">
        <ele>59.675</ele>
        <time>2018-07-28T11:26:45Z</time>
      </trkpt>
      <trkpt lat="41.93324" lon="-8.88353">
        <ele>59.58</ele>
        <time>2018-07-28T11:26:46Z</time>
      </trkpt>
      <trkpt lat="41.93351" lon="-8.88355">
        <ele>59.585</ele>
        <time>2018-07-28T11:26:47Z</time>
      </trkpt>
      <trkpt lat="41.93374" lon="-8.88361">
        <ele>59.553</ele>
        <time>2018-07-28T11:26:48Z</time>
      </trkpt>
      <trkpt lat="41.93398" lon="-8.88367">
        <ele>59.559</ele>
        <time>2018-07-28T11:26:49Z</time>
      </trkpt>
      <trkpt lat="41.93424" lon="-8.88368">
        <ele>59.634</ele>
        <time>2018-07-28T11:26:50Z</time>
      </trkpt>
      <trkpt lat="41.93447" lon="-8.88376">
        <ele>59.955</ele>
        <time>2018-07-28T11:26:51Z</time>
      </trkpt>
      <trkpt lat="41.93469" lon="-8.88386">
        <ele>60.71</ele>
        <time>2018-07-28T11:26:52Z</time>
      </trkpt>
      <trkpt lat="41.93492" lon="-8.88396">
        <ele>61.208</ele>
        <time>2018-07-28T11:26:53Z</time>
      </trkpt>
      <trkpt lat="41.93514" lon="-8.88406">
        <ele>61.615</ele>
        <time>2018-07-28T11:26:54Z</time>
      </trkpt>
      <trkpt lat="41.93535" lon="-8.88415">
        <ele>62.13</ele>
        <time>2018-07-28T11:26:55Z</time>
      </trkpt>
      <trkpt lat="41.9356" lon="-8.88429">
        <ele>62.893</ele>
        <time>2018-07-28T11:26:56Z</time>
      </trkpt>
      <trkpt lat="41.93581" lon="-8.88438">
        <ele>62.965</ele>
        <time>2018-07-28T11:26:57Z</time>
      </trkpt>
      <trkpt lat="41.93603" lon="-8.8845">
        <ele>63.31</ele>
        <time>2018-07-28T11:26:58Z</time>
      </trkpt>
      <trkpt lat="41.93624" lon="-8.88459">
        <ele>63.345</ele>
        <time>2018-07-28T11:26:59Z</time>
      </trkpt>
      <trkpt lat="41.93646" lon="-8.88468">
        <ele>63.333</ele>
        <time>2018-07-28T11:27:00Z</time>
      </trkpt>
      <trkpt lat="41.93669" lon="-8.88476">
        <ele>63.219</ele>
        <time>2018-07-28T11:27:01Z</time>
      </trkpt>
      <trkpt lat="41.93689" lon="-8.88486">
        <ele>63.269</ele>
        <time>2018-07-28T11:27:02Z</time>
      </trkpt>
      <trkpt lat="41.9371" lon="-8.88494">
        <ele>62.904</ele>
        <time>2018-07-28T11:27:03Z</time>
      </trkpt>
      <trkpt lat="41.93731" lon="-8.88498">
        <ele>62.724</ele>
        <time>2018-07-28T11:27:04Z</time>
      </trkpt>
      <trkpt lat="41.93753" lon="-8.88499">
        <ele>62.408</ele>
        <time>2018-07-28T11:27:05Z</time>
      </trkpt>
      <trkpt lat="41.93776" lon="-8.8849">
        <ele>62.498</ele>
        <time>2018-07-28T11:27:06Z</time>
      </trkpt>
      <trkpt lat="41.93799" lon="-8.88477">
        <ele>62.933</ele>
        <time>2018-07-28T11:27:07Z</time>
      </trkpt>
      <trkpt lat="41.93824" lon="-8.8847">
        <ele>63.856</ele>
        <time>2018-07-28T11:27:08Z</time>
      </trkpt>
      <trkpt lat="41.93849" lon="-8.88463">
        <ele>65.298</ele>
        <time>2018-07-28T11:27:09Z</time>
      </trkpt>
      <trkpt lat="41.93875" lon="-8.88455">
        <ele>66.563</ele>
        <time>2018-07-28T11:27:10Z</time>
      </trkpt>
      <trkpt lat="41.93901" lon="-8.88452">
        <ele>67.618</ele>
        <time>2018-07-28T11:27:11Z</time>
      </trkpt>
      <trkpt lat="41.93925" lon="-8.88442">
        <ele>67.986</ele>
        <time>2018-07-28T11:27:12Z</time>
      </trkpt>
      <trkpt lat="41.93948" lon="-8.88435">
        <ele>67.992</ele>
        <time>2018-07-28T11:27:13Z</time>
      </trkpt>
      <trkpt lat="41.93972" lon="-8.88429">
        <ele>67.556</ele>
        <time>2018-07-28T11:27:14Z</time>
      </trkpt>
      <trkpt lat="41.93996" lon="-8.88422">
        <ele>67.559</ele>
        <time>2018-07-28T11:27:15Z</time>
      </trkpt>
      <trkpt lat="41.9402" lon="-8.88416">
        <ele>67.714</ele>
        <time>2018-07-28T11:27:16Z</time>
      </trkpt>
      <trkpt lat="41.94043" lon="-8.88411">
        <ele>67.908</ele>
        <time>2018-07-28T11:27:17Z</time>
      </trkpt>
      <trkpt lat="41.94068" lon="-8.88405">
        <ele>68.257</ele>
        <time>2018-07-28T11:27:18Z</time>
      </trkpt>
      <trkpt lat="41.94093" lon="-8.88394">
        <ele>68.412</ele>
        <time>2018-07-28T11:27:19Z</time>
      </trkpt>
      <trkpt lat="41.94114" lon="-8.88391">
        <ele>68.445</ele>
        <time>2018-07-28T11:27:20Z</time>
      </trkpt>
      <trkpt lat="41.94139" lon="-8.88383">
        <ele>68.247</ele>
        <time>2018-07-28T11:27:21Z</time>
      </trkpt>
      <trkpt lat="41.94164" lon="-8.88368">
        <ele>68.172</ele>
        <time>2018-07-28T11:27:22Z</time>
      </trkpt>
      <trkpt lat="41.94189" lon="-8.88352">
        <ele>68.167</ele>
        <time>2018-07-28T11:27:23Z</time>
      </trkpt>
      <trkpt lat="41.94212" lon="-8.88334">
        <ele>68.335</ele>
        <time>2018-07-28T11:27:24Z</time>
      </trkpt>
      <trkpt lat="41.94235" lon="-8.88318">
        <ele>68.541</ele>
        <time>2018-07-28T11:27:25Z</time>
      </trkpt>
      <trkpt lat="41.94258" lon="-8.88301">
        <ele>68.725</ele>
        <time>2018-07-28T11:27:26Z</time>
      </trkpt>
      <trkpt lat="41.9428" lon="-8.88284">
        <ele>68.626</ele>
        <time>2018-07-28T11:27:27Z</time>
      </trkpt>
      <trkpt lat="41.94303" lon="-8.88271">
        <ele>68.308</ele>
        <time>2018-07-28T11:27:28Z</time>
      </trkpt>
      <trkpt lat="41.94326" lon="-8.88254">
        <ele>67.908</ele>
        <time>2018-07-28T11:27:29Z</time>
      </trkpt>
      <trkpt lat="41.94347" lon="-8.8824">
        <ele>67.444</ele>
        <time>2018-07-28T11:27:30Z</time>
      </trkpt>
      <trkpt lat="41.94369" lon="-8.88225">
        <ele>66.949</ele>
        <time>2018-07-28T11:27:31Z</time>
      </trkpt>
      <trkpt lat="41.94388" lon="-8.88212">
        <ele>66.412</ele>
        <time>2018-07-28T11:27:32Z</time>
      </trkpt>
      <trkpt lat="41.94408" lon="-8.88199">
        <ele>65.824</ele>
        <time>2018-07-28T11:27:33Z</time>
      </trkpt>
      <trkpt lat="41.94427" lon="-8.88185">
        <ele>65.259</ele>
        <time>2018-07-28T11:27:34Z</time>
      </trkpt>
      <trkpt lat="41.94447" lon="-8.88172">
        <ele>65.014</ele>
        <time>2018-07-28T11:27:35Z</time>
      </trkpt>
      <trkpt lat="41.94469" lon="-8.88166">
        <ele>65.032</ele>
        <time>2018-07-28T11:27:36Z</time>
      </trkpt>
      <trkpt lat="41.94493" lon="-8.88161">
        <ele>65.448</ele>
        <time>2018-07-28T11:27:37Z</time>
      </trkpt>
      <trkpt lat="41.94518" lon="-8.88162">
        <ele>65.787</ele>
        <time>2018-07-28T11:27:38Z</time>
      </trkpt>
      <trkpt lat="41.94542" lon="-8.88164">
        <ele>66.442</ele>
        <time>2018-07-28T11:27:39Z</time>
      </trkpt>
      <trkpt lat="41.94568" lon="-8.88171">
        <ele>67.026</ele>
        <time>2018-07-28T11:27:40Z</time>
      </trkpt>
      <trkpt lat="41.94593" lon="-8.88186">
        <ele>67.008</ele>
        <time>2018-07-28T11:27:41Z</time>
      </trkpt>
      <trkpt lat="41.94618" lon="-8.88198">
        <ele>66.92</ele>
        <time>2018-07-28T11:27:42Z</time>
      </trkpt>
      <trkpt lat="41.94643" lon="-8.88208">
        <ele>66.695</ele>
        <time>2018-07-28T11:27:43Z</time>
      </trkpt>
      <trkpt lat="41.9467" lon="-8.88218">
        <ele>66.148</ele>
        <time>2018-07-28T11:27:44Z</time>
      </trkpt>
      <trkpt lat="41.94696" lon="-8.88227">
        <ele>65.49</ele>
        <time>2018-07-28T11:27:45Z</time>
      </trkpt>
      <trkpt lat="41.94719" lon="-8.88237">
        <ele>64.485</ele>
        <time>2018-07-28T11:27:46Z</time>
      </trkpt>
      <trkpt lat="41.94742" lon="-8.88242">
        <ele>63.21</ele>
        <time>2018-07-28T11:27:47Z</time>
      </trkpt>
      <trkpt lat="41.94763" lon="-8.88254">
        <ele>61.898</ele>
        <time>2018-07-28T11:27:48Z</time>
      </trkpt>
      <trkpt lat="41.94779" lon="-8.8826">
        <ele>59.934</ele>
        <time>2018-07-28T11:27:49Z</time>
      </trkpt>
      <trkpt lat="41.94795" lon="-8.88264">
        <ele>58.088</ele>
        <time>2018-07-28T11:27:50Z</time>
      </trkpt>
      <trkpt lat="41.94812" lon="-8.88272">
        <ele>56.724</ele>
        <time>2018-07-28T11:27:51Z</time>
      </trkpt>
      <trkpt lat="41.94829" lon="-8.88278">
        <ele>55.226</ele>
        <time>2018-07-28T11:27:52Z</time>
      </trkpt>
      <trkpt lat="41.94844" lon="-8.88281">
        <ele>53.408</ele>
        <time>2018-07-28T11:27:53Z</time>
      </trkpt>
      <trkpt lat="41.94861" lon="-8.88287">
        <ele>52.37</ele>
        <time>2018-07-28T11:27:54Z</time>
      </trkpt>
      <trkpt lat="41.94877" lon="-8.88296">
        <ele>50.515</ele>
        <time>2018-07-28T11:27:55Z</time>
      </trkpt>
      <trkpt lat="41.94894" lon="-8.88303">
        <ele>50.158</ele>
        <time>2018-07-28T11:27:56Z</time>
      </trkpt>
      <trkpt lat="41.9491" lon="-8.88309">
        <ele>50.06</ele>
        <time>2018-07-28T11:27:57Z</time>
      </trkpt>
      <trkpt lat="41.94924" lon="-8.88317">
        <ele>50.055</ele>
        <time>2018-07-28T11:27:58Z</time>
      </trkpt>
      <trkpt lat="41.9494" lon="-8.88324">
        <ele>49.83</ele>
        <time>2018-07-28T11:27:59Z</time>
      </trkpt>
      <trkpt lat="41.94955" lon="-8.88325">
        <ele>49.318</ele>
        <time>2018-07-28T11:28:00Z</time>
      </trkpt>
      <trkpt lat="41.9497" lon="-8.88329">
        <ele>48.884</ele>
        <time>2018-07-28T11:28:01Z</time>
      </trkpt>
      <trkpt lat="41.94987" lon="-8.88328">
        <ele>47.921</ele>
        <time>2018-07-28T11:28:02Z</time>
      </trkpt>
      <trkpt lat="41.95002" lon="-8.88324">
        <ele>47.241</ele>
        <time>2018-07-28T11:28:03Z</time>
      </trkpt>
      <trkpt lat="41.95019" lon="-8.88319">
        <ele>46.705</ele>
        <time>2018-07-28T11:28:04Z</time>
      </trkpt>
      <trkpt lat="41.95033" lon="-8.88312">
        <ele>46.308</ele>
        <time>2018-07-28T11:28:05Z</time>
      </trkpt>
      <trkpt lat="41.95047" lon="-8.88306">
        <ele>45.824</ele>
        <time>2018-07-28T11:28:06Z</time>
      </trkpt>
      <trkpt lat="41.95061" lon="-8.88299">
        <ele>45.249</ele>
        <time>2018-07-28T11:28:07Z</time>
      </trkpt>
      <trkpt lat="41.95077" lon="-8.88293">
        <ele>44.022</ele>
        <time>2018-07-28T11:28:08Z</time>
      </trkpt>
      <trkpt lat="41.95095" lon="-8.88286">
        <ele>44.044</ele>
        <time>2018-07-28T11:28:09Z</time>
      </trkpt>
      <trkpt lat="41.95112" lon="-8.88278">
        <ele>43.899</ele>
        <time>2018-07-28T11:28:10Z</time>
      </trkpt>
      <trkpt lat="41.95126" lon="-8.88273">
        <ele>43.674</ele>
        <time>2018-07-28T11:28:11Z</time>
      </trkpt>
      <trkpt lat="41.95141" lon="-8.88268">
        <ele>43.222</ele>
        <time>2018-07-28T11:28:12Z</time>
      </trkpt>
      <trkpt lat="41.95157" lon="-8.88261">
        <ele>43.078</ele>
        <time>2018-07-28T11:28:13Z</time>
      </trkpt>
      <trkpt lat="41.95173" lon="-8.88254">
        <ele>42.729</ele>
        <time>2018-07-28T11:28:14Z</time>
      </trkpt>
      <trkpt lat="41.95189" lon="-8.88247">
        <ele>42.2</ele>
        <time>2018-07-28T11:28:15Z</time>
      </trkpt>
      <trkpt lat="41.95205" lon="-8.8824">
        <ele>41.82</ele>
        <time>2018-07-28T11:28:16Z</time>
      </trkpt>
      <trkpt lat="41.95219" lon="-8.88236">
        <ele>41.408</ele>
        <time>2018-07-28T11:28:17Z</time>
      </trkpt>
      <trkpt lat="41.95234" lon="-8.8823">
        <ele>40.774</ele>
        <time>2018-07-28T11:28:18Z</time>
      </trkpt>
      <trkpt lat="41.95248" lon="-8.88225">
        <ele>39.929</ele>
        <time>2018-07-28T11:28:19Z</time>
      </trkpt>
      <trkpt lat="41.95264" lon="-8.8822">
        <ele>39.512</ele>
        <time>2018-07-28T11:28:20Z</time>
      </trkpt>
      <trkpt lat="41.95282" lon="-8.88219">
        <ele>39.394</ele>
        <time>2018-07-28T11:28:21Z</time>
      </trkpt>
      <trkpt lat="41.95299" lon="-8.88217">
        <ele>39.039</ele>
        <time>2018-07-28T11:28:22Z</time>
      </trkpt>
      <trkpt lat="41.95316" lon="-8.8822">
        <ele>38.934</ele>
        <time>2018-07-28T11:28:23Z</time>
      </trkpt>
      <trkpt lat="41.95332" lon="-8.88227">
        <ele>38.762</ele>
        <time>2018-07-28T11:28:24Z</time>
      </trkpt>
      <trkpt lat="41.95347" lon="-8.88236">
        <ele>38.468</ele>
        <time>2018-07-28T11:28:25Z</time>
      </trkpt>
      <trkpt lat="41.9536" lon="-8.88249">
        <ele>38.127</ele>
        <time>2018-07-28T11:28:26Z</time>
      </trkpt>
      <trkpt lat="41.95375" lon="-8.88262">
        <ele>38.068</ele>
        <time>2018-07-28T11:28:27Z</time>
      </trkpt>
      <trkpt lat="41.95398" lon="-8.88264">
        <ele>37.914</ele>
        <time>2018-07-28T11:28:28Z</time>
      </trkpt>
      <trkpt lat="41.95405" lon="-8.88289">
        <ele>37.608</ele>
        <time>2018-07-28T11:28:29Z</time>
      </trkpt>
      <trkpt lat="41.95417" lon="-8.88303">
        <ele>37.244</ele>
        <time>2018-07-28T11:28:30Z</time>
      </trkpt>
      <trkpt lat="41.95431" lon="-8.88317">
        <ele>37.019</ele>
        <time>2018-07-28T11:28:31Z</time>
      </trkpt>
      <trkpt lat="41.95445" lon="-8.88331">
        <ele>36.692</ele>
        <time>2018-07-28T11:28:32Z</time>
      </trkpt>
      <trkpt lat="41.95461" lon="-8.88343">
        <ele>36.394</ele>
        <time>2018-07-28T11:28:33Z</time>
      </trkpt>
      <trkpt lat="41.9548" lon="-8.88352">
        <ele>36.339</ele>
        <time>2018-07-28T11:28:34Z</time>
      </trkpt>
      <trkpt lat="41.95504" lon="-8.88353">
        <ele>36.434</ele>
        <time>2018-07-28T11:28:35Z</time>
      </trkpt>
      <trkpt lat="41.9553" lon="-8.8835">
        <ele>36.852</ele>
        <time>2018-07-28T11:28:36Z</time>
      </trkpt>
      <trkpt lat="41.95555" lon="-8.8835">
        <ele>37.568</ele>
        <time>2018-07-28T11:28:37Z</time>
      </trkpt>
      <trkpt lat="41.95579" lon="-8.88351">
        <ele>39.519</ele>
        <time>2018-07-28T11:28:38Z</time>
      </trkpt>
      <trkpt lat="41.95603" lon="-8.88352">
        <ele>40.709</ele>
        <time>2018-07-28T11:28:39Z</time>
      </trkpt>
      <trkpt lat="41.95627" lon="-8.88353">
        <ele>41.319</ele>
        <time>2018-07-28T11:28:40Z</time>
      </trkpt>
      <trkpt lat="41.95651" lon="-8.88353">
        <ele>41.708</ele>
        <time>2018-07-28T11:28:41Z</time>
      </trkpt>
      <trkpt lat="41.95675" lon="-8.88353">
        <ele>41.913</ele>
        <time>2018-07-28T11:28:42Z</time>
      </trkpt>
      <trkpt lat="41.95697" lon="-8.88354">
        <ele>42.038</ele>
        <time>2018-07-28T11:28:43Z</time>
      </trkpt>
      <trkpt lat="41.95718" lon="-8.88354">
        <ele>42.171</ele>
        <time>2018-07-28T11:28:44Z</time>
      </trkpt>
      <trkpt lat="41.9574" lon="-8.8836">
        <ele>43.243</ele>
        <time>2018-07-28T11:28:45Z</time>
      </trkpt>
      <trkpt lat="41.95762" lon="-8.8836">
        <ele>44.328</ele>
        <time>2018-07-28T11:28:46Z</time>
      </trkpt>
      <trkpt lat="41.95785" lon="-8.8836">
        <ele>45.883</ele>
        <time>2018-07-28T11:28:47Z</time>
      </trkpt>
      <trkpt lat="41.95812" lon="-8.88355">
        <ele>47.571</ele>
        <time>2018-07-28T11:28:48Z</time>
      </trkpt>
      <trkpt lat="41.95834" lon="-8.88356">
        <ele>49.077</ele>
        <time>2018-07-28T11:28:49Z</time>
      </trkpt>
      <trkpt lat="41.95856" lon="-8.88356">
        <ele>50.313</ele>
        <time>2018-07-28T11:28:50Z</time>
      </trkpt>
      <trkpt lat="41.9588" lon="-8.88355">
        <ele>51.543</ele>
        <time>2018-07-28T11:28:51Z</time>
      </trkpt>
      <trkpt lat="41.95902" lon="-8.88357">
        <ele>52.707</ele>
        <time>2018-07-28T11:28:52Z</time>
      </trkpt>
      <trkpt lat="41.95926" lon="-8.8836">
        <ele>53.908</ele>
        <time>2018-07-28T11:28:53Z</time>
      </trkpt>
      <trkpt lat="41.95947" lon="-8.8836">
        <ele>54.373</ele>
        <time>2018-07-28T11:28:54Z</time>
      </trkpt>
      <trkpt lat="41.95967" lon="-8.88363">
        <ele>54.638</ele>
        <time>2018-07-28T11:28:55Z</time>
      </trkpt>
      <trkpt lat="41.95989" lon="-8.88361">
        <ele>54.771</ele>
        <time>2018-07-28T11:28:56Z</time>
      </trkpt>
      <trkpt lat="41.96011" lon="-8.88364">
        <ele>55.123</ele>
        <time>2018-07-28T11:28:57Z</time>
      </trkpt>
      <trkpt lat="41.96037" lon="-8.88363">
        <ele>55.668</ele>
        <time>2018-07-28T11:28:58Z</time>
      </trkpt>
      <trkpt lat="41.9606" lon="-8.88364">
        <ele>56.143</ele>
        <time>2018-07-28T11:28:59Z</time>
      </trkpt>
      <trkpt lat="41.96083" lon="-8.88362">
        <ele>56.961</ele>
        <time>2018-07-28T11:29:00Z</time>
      </trkpt>
      <trkpt lat="41.96107" lon="-8.88362">
        <ele>57.787</ele>
        <time>2018-07-28T11:29:01Z</time>
      </trkpt>
      <trkpt lat="41.9613" lon="-8.88362">
        <ele>58.275</ele>
        <time>2018-07-28T11:29:02Z</time>
      </trkpt>
      <trkpt lat="41.96152" lon="-8.88361">
        <ele>58.728</ele>
        <time>2018-07-28T11:29:03Z</time>
      </trkpt>
      <trkpt lat="41.96176" lon="-8.88359">
        <ele>59.02</ele>
        <time>2018-07-28T11:29:04Z</time>
      </trkpt>
      <trkpt lat="41.962" lon="-8.8836">
        <ele>59.008</ele>
        <time>2018-07-28T11:29:05Z</time>
      </trkpt>
      <trkpt lat="41.96224" lon="-8.88358">
        <ele>59.089</ele>
        <time>2018-07-28T11:29:06Z</time>
      </trkpt>
      <trkpt lat="41.96248" lon="-8.88358">
        <ele>59.424</ele>
        <time>2018-07-28T11:29:07Z</time>
      </trkpt>
      <trkpt lat="41.96272" lon="-8.88357">
        <ele>59.777</ele>
        <time>2018-07-28T11:29:08Z</time>
      </trkpt>
      <trkpt lat="41.96296" lon="-8.88357">
        <ele>60.079</ele>
        <time>2018-07-28T11:29:09Z</time>
      </trkpt>
      <trkpt lat="41.96321" lon="-8.88359">
        <ele>60.594</ele>
        <time>2018-07-28T11:29:10Z</time>
      </trkpt>
      <trkpt lat="41.96348" lon="-8.8836">
        <ele>61.239</ele>
        <time>2018-07-28T11:29:11Z</time>
      </trkpt>
      <trkpt lat="41.96375" lon="-8.8836">
        <ele>61.887</ele>
        <time>2018-07-28T11:29:12Z</time>
      </trkpt>
      <trkpt lat="41.964" lon="-8.8836">
        <ele>62.113</ele>
        <time>2018-07-28T11:29:13Z</time>
      </trkpt>
      <trkpt lat="41.96423" lon="-8.88362">
        <ele>62.133</ele>
        <time>2018-07-28T11:29:14Z</time>
      </trkpt>
      <trkpt lat="41.96446" lon="-8.88362">
        <ele>61.823</ele>
        <time>2018-07-28T11:29:15Z</time>
      </trkpt>
      <trkpt lat="41.96468" lon="-8.88362">
        <ele>61.315</ele>
        <time>2018-07-28T11:29:16Z</time>
      </trkpt>
      <trkpt lat="41.96491" lon="-8.88364">
        <ele>60.808</ele>
        <time>2018-07-28T11:29:17Z</time>
      </trkpt>
      <trkpt lat="41.96514" lon="-8.88364">
        <ele>60.325</ele>
        <time>2018-07-28T11:29:18Z</time>
      </trkpt>
      <trkpt lat="41.96538" lon="-8.88364">
        <ele>60.32</ele>
        <time>2018-07-28T11:29:19Z</time>
      </trkpt>
      <trkpt lat="41.96561" lon="-8.88364">
        <ele>60.423</ele>
        <time>2018-07-28T11:29:20Z</time>
      </trkpt>
      <trkpt lat="41.96585" lon="-8.88365">
        <ele>60.725</ele>
        <time>2018-07-28T11:29:21Z</time>
      </trkpt>
      <trkpt lat="41.96607" lon="-8.88361">
        <ele>60.93</ele>
        <time>2018-07-28T11:29:22Z</time>
      </trkpt>
      <trkpt lat="41.96631" lon="-8.88363">
        <ele>60.965</ele>
        <time>2018-07-28T11:29:23Z</time>
      </trkpt>
      <trkpt lat="41.96655" lon="-8.88364">
        <ele>60.883</ele>
        <time>2018-07-28T11:29:24Z</time>
      </trkpt>
      <trkpt lat="41.9668" lon="-8.88362">
        <ele>60.799</ele>
        <time>2018-07-28T11:29:25Z</time>
      </trkpt>
      <trkpt lat="41.96703" lon="-8.88364">
        <ele>60.478</ele>
        <time>2018-07-28T11:29:26Z</time>
      </trkpt>
      <trkpt lat="41.96729" lon="-8.88365">
        <ele>59.833</ele>
        <time>2018-07-28T11:29:27Z</time>
      </trkpt>
      <trkpt lat="41.96753" lon="-8.88366">
        <ele>59.326</ele>
        <time>2018-07-28T11:29:28Z</time>
      </trkpt>
      <trkpt lat="41.96778" lon="-8.88371">
        <ele>58.408</ele>
        <time>2018-07-28T11:29:29Z</time>
      </trkpt>
      <trkpt lat="41.96805" lon="-8.88369">
        <ele>57.699</ele>
        <time>2018-07-28T11:29:30Z</time>
      </trkpt>
      <trkpt lat="41.96832" lon="-8.88372">
        <ele>57.284</ele>
        <time>2018-07-28T11:29:31Z</time>
      </trkpt>
      <trkpt lat="41.96853" lon="-8.88377">
        <ele>56.877</ele>
        <time>2018-07-28T11:29:32Z</time>
      </trkpt>
      <trkpt lat="41.96878" lon="-8.88379">
        <ele>56.839</ele>
        <time>2018-07-28T11:29:33Z</time>
      </trkpt>
      <trkpt lat="41.96903" lon="-8.88383">
        <ele>56.964</ele>
        <time>2018-07-28T11:29:34Z</time>
      </trkpt>
      <trkpt lat="41.96928" lon="-8.88389">
        <ele>57.059</ele>
        <time>2018-07-28T11:29:35Z</time>
      </trkpt>
      <trkpt lat="41.96952" lon="-8.88391">
        <ele>56.947</ele>
        <time>2018-07-28T11:29:36Z</time>
      </trkpt>
      <trkpt lat="41.96976" lon="-8.88392">
        <ele>56.693</ele>
        <time>2018-07-28T11:29:37Z</time>
      </trkpt>
      <trkpt lat="41.96999" lon="-8.88395">
        <ele>56.372</ele>
        <time>2018-07-28T11:29:38Z</time>
      </trkpt>
      <trkpt lat="41.97022" lon="-8.88397">
        <ele>55.913</ele>
        <time>2018-07-28T11:29:39Z</time>
      </trkpt>
      <trkpt lat="41.97043" lon="-8.88401">
        <ele>55.714</ele>
        <time>2018-07-28T11:29:40Z</time>
      </trkpt>
      <trkpt lat="41.97066" lon="-8.88404">
        <ele>55.708</ele>
        <time>2018-07-28T11:29:41Z</time>
      </trkpt>
      <trkpt lat="41.97088" lon="-8.88405">
        <ele>55.589</ele>
        <time>2018-07-28T11:29:42Z</time>
      </trkpt>
      <trkpt lat="41.9711" lon="-8.88409">
        <ele>55.334</ele>
        <time>2018-07-28T11:29:43Z</time>
      </trkpt>
      <trkpt lat="41.97131" lon="-8.88411">
        <ele>55.347</ele>
        <time>2018-07-28T11:29:44Z</time>
      </trkpt>
      <trkpt lat="41.97154" lon="-8.88413">
        <ele>55.339</ele>
        <time>2018-07-28T11:29:45Z</time>
      </trkpt>
      <trkpt lat="41.97177" lon="-8.88414">
        <ele>55.464</ele>
        <time>2018-07-28T11:29:46Z</time>
      </trkpt>
      <trkpt lat="41.972" lon="-8.88415">
        <ele>55.999</ele>
        <time>2018-07-28T11:29:47Z</time>
      </trkpt>
      <trkpt lat="41.97223" lon="-8.88416">
        <ele>56.887</ele>
        <time>2018-07-28T11:29:48Z</time>
      </trkpt>
      <trkpt lat="41.97247" lon="-8.8842">
        <ele>57.423</ele>
        <time>2018-07-28T11:29:49Z</time>
      </trkpt>
      <trkpt lat="41.9727" lon="-8.88423">
        <ele>57.854</ele>
        <time>2018-07-28T11:29:50Z</time>
      </trkpt>
      <trkpt lat="41.97293" lon="-8.88424">
        <ele>57.856</ele>
        <time>2018-07-28T11:29:51Z</time>
      </trkpt>
      <trkpt lat="41.97316" lon="-8.88426">
        <ele>57.911</ele>
        <time>2018-07-28T11:29:52Z</time>
      </trkpt>
      <trkpt lat="41.97339" lon="-8.88429">
        <ele>58.208</ele>
        <time>2018-07-28T11:29:53Z</time>
      </trkpt>
      <trkpt lat="41.97361" lon="-8.88432">
        <ele>58.427</ele>
        <time>2018-07-28T11:29:54Z</time>
      </trkpt>
      <trkpt lat="41.97383" lon="-8.88432">
        <ele>58.542</ele>
        <time>2018-07-28T11:29:55Z</time>
      </trkpt>
      <trkpt lat="41.97406" lon="-8.88435">
        <ele>58.755</ele>
        <time>2018-07-28T11:29:56Z</time>
      </trkpt>
      <trkpt lat="41.97428" lon="-8.88437">
        <ele>59.017</ele>
        <time>2018-07-28T11:29:57Z</time>
      </trkpt>
      <trkpt lat="41.97449" lon="-8.8844">
        <ele>59.482</ele>
        <time>2018-07-28T11:29:58Z</time>
      </trkpt>
      <trkpt lat="41.97474" lon="-8.88447">
        <ele>59.787</ele>
        <time>2018-07-28T11:29:59Z</time>
      </trkpt>
      <trkpt lat="41.97498" lon="-8.88448">
        <ele>60.355</ele>
        <time>2018-07-28T11:30:00Z</time>
      </trkpt>
      <trkpt lat="41.97523" lon="-8.88451">
        <ele>61.121</ele>
        <time>2018-07-28T11:30:01Z</time>
      </trkpt>
      <trkpt lat="41.9755" lon="-8.88456">
        <ele>61.924</ele>
        <time>2018-07-28T11:30:02Z</time>
      </trkpt>
      <trkpt lat="41.97575" lon="-8.8846">
        <ele>62.704</ele>
        <time>2018-07-28T11:30:03Z</time>
      </trkpt>
      <trkpt lat="41.97596" lon="-8.88458">
        <ele>62.714</ele>
        <time>2018-07-28T11:30:04Z</time>
      </trkpt>
      <trkpt lat="41.97618" lon="-8.88463">
        <ele>62.108</ele>
        <time>2018-07-28T11:30:05Z</time>
      </trkpt>
      <trkpt lat="41.97638" lon="-8.88466">
        <ele>61.194</ele>
        <time>2018-07-28T11:30:06Z</time>
      </trkpt>
      <trkpt lat="41.97658" lon="-8.88467">
        <ele>60.099</ele>
        <time>2018-07-28T11:30:07Z</time>
      </trkpt>
      <trkpt lat="41.9768" lon="-8.88472">
        <ele>59.262</ele>
        <time>2018-07-28T11:30:08Z</time>
      </trkpt>
      <trkpt lat="41.97699" lon="-8.88472">
        <ele>58.684</ele>
        <time>2018-07-28T11:30:09Z</time>
      </trkpt>
      <trkpt lat="41.97722" lon="-8.88476">
        <ele>58.349</ele>
        <time>2018-07-28T11:30:10Z</time>
      </trkpt>
      <trkpt lat="41.97746" lon="-8.88479">
        <ele>58.234</ele>
        <time>2018-07-28T11:30:11Z</time>
      </trkpt>
      <trkpt lat="41.97768" lon="-8.88481">
        <ele>58.282</ele>
        <time>2018-07-28T11:30:12Z</time>
      </trkpt>
      <trkpt lat="41.9779" lon="-8.88484">
        <ele>58.228</ele>
        <time>2018-07-28T11:30:13Z</time>
      </trkpt>
      <trkpt lat="41.97812" lon="-8.88486">
        <ele>58.227</ele>
        <time>2018-07-28T11:30:14Z</time>
      </trkpt>
      <trkpt lat="41.97834" lon="-8.88487">
        <ele>58.268</ele>
        <time>2018-07-28T11:30:15Z</time>
      </trkpt>
      <trkpt lat="41.97859" lon="-8.88487">
        <ele>58.514</ele>
        <time>2018-07-28T11:30:16Z</time>
      </trkpt>
      <trkpt lat="41.97882" lon="-8.88485">
        <ele>59.008</ele>
        <time>2018-07-28T11:30:17Z</time>
      </trkpt>
      <trkpt lat="41.97908" lon="-8.88482">
        <ele>59.774</ele>
        <time>2018-07-28T11:30:18Z</time>
      </trkpt>
      <trkpt lat="41.97934" lon="-8.88478">
        <ele>60.329</ele>
        <time>2018-07-28T11:30:19Z</time>
      </trkpt>
      <trkpt lat="41.97958" lon="-8.88475">
        <ele>60.732</ele>
        <time>2018-07-28T11:30:20Z</time>
      </trkpt>
      <trkpt lat="41.97982" lon="-8.88473">
        <ele>60.914</ele>
        <time>2018-07-28T11:30:21Z</time>
      </trkpt>
      <trkpt lat="41.98005" lon="-8.88472">
        <ele>61.119</ele>
        <time>2018-07-28T11:30:22Z</time>
      </trkpt>
      <trkpt lat="41.98029" lon="-8.88469">
        <ele>61.164</ele>
        <time>2018-07-28T11:30:23Z</time>
      </trkpt>
      <trkpt lat="41.98052" lon="-8.88466">
        <ele>60.912</ele>
        <time>2018-07-28T11:30:24Z</time>
      </trkpt>
      <trkpt lat="41.98075" lon="-8.88464">
        <ele>60.778</ele>
        <time>2018-07-28T11:30:25Z</time>
      </trkpt>
      <trkpt lat="41.98098" lon="-8.8846">
        <ele>60.774</ele>
        <time>2018-07-28T11:30:26Z</time>
      </trkpt>
      <trkpt lat="41.98122" lon="-8.88459">
        <ele>60.856</ele>
        <time>2018-07-28T11:30:27Z</time>
      </trkpt>
      <trkpt lat="41.98145" lon="-8.88456">
        <ele>60.821</ele>
        <time>2018-07-28T11:30:28Z</time>
      </trkpt>
      <trkpt lat="41.98168" lon="-8.88454">
        <ele>61.208</ele>
        <time>2018-07-28T11:30:29Z</time>
      </trkpt>
      <trkpt lat="41.98192" lon="-8.88451">
        <ele>61.599</ele>
        <time>2018-07-28T11:30:30Z</time>
      </trkpt>
      <trkpt lat="41.98217" lon="-8.88448">
        <ele>61.924</ele>
        <time>2018-07-28T11:30:31Z</time>
      </trkpt>
      <trkpt lat="41.98243" lon="-8.88447">
        <ele>62.197</ele>
        <time>2018-07-28T11:30:32Z</time>
      </trkpt>
      <trkpt lat="41.98267" lon="-8.88442">
        <ele>62.259</ele>
        <time>2018-07-28T11:30:33Z</time>
      </trkpt>
      <trkpt lat="41.98292" lon="-8.88441">
        <ele>62.214</ele>
        <time>2018-07-28T11:30:34Z</time>
      </trkpt>
      <trkpt lat="41.98315" lon="-8.88439">
        <ele>62.259</ele>
        <time>2018-07-28T11:30:35Z</time>
      </trkpt>
      <trkpt lat="41.98341" lon="-8.88437">
        <ele>62.467</ele>
        <time>2018-07-28T11:30:36Z</time>
      </trkpt>
      <trkpt lat="41.98366" lon="-8.88435">
        <ele>62.743</ele>
        <time>2018-07-28T11:30:37Z</time>
      </trkpt>
      <trkpt lat="41.98391" lon="-8.88433">
        <ele>62.917</ele>
        <time>2018-07-28T11:30:38Z</time>
      </trkpt>
      <trkpt lat="41.98417" lon="-8.88428">
        <ele>63.487</ele>
        <time>2018-07-28T11:30:39Z</time>
      </trkpt>
      <trkpt lat="41.98442" lon="-8.88425">
        <ele>63.615</ele>
        <time>2018-07-28T11:30:40Z</time>
      </trkpt>
      <trkpt lat="41.98468" lon="-8.88422">
        <ele>63.708</ele>
        <time>2018-07-28T11:30:41Z</time>
      </trkpt>
      <trkpt lat="41.98493" lon="-8.88423">
        <ele>63.793</ele>
        <time>2018-07-28T11:30:42Z</time>
      </trkpt>
      <trkpt lat="41.98517" lon="-8.8842">
        <ele>63.548</ele>
        <time>2018-07-28T11:30:43Z</time>
      </trkpt>
      <trkpt lat="41.9854" lon="-8.88417">
        <ele>63.131</ele>
        <time>2018-07-28T11:30:44Z</time>
      </trkpt>
      <trkpt lat="41.98563" lon="-8.88414">
        <ele>61.613</ele>
        <time>2018-07-28T11:30:45Z</time>
      </trkpt>
      <trkpt lat="41.98584" lon="-8.88413">
        <ele>60.938</ele>
        <time>2018-07-28T11:30:46Z</time>
      </trkpt>
      <trkpt lat="41.98606" lon="-8.88409">
        <ele>60.093</ele>
        <time>2018-07-28T11:30:47Z</time>
      </trkpt>
      <trkpt lat="41.98627" lon="-8.88408">
        <ele>59.441</ele>
        <time>2018-07-28T11:30:48Z</time>
      </trkpt>
      <trkpt lat="41.98647" lon="-8.88405">
        <ele>59.017</ele>
        <time>2018-07-28T11:30:49Z</time>
      </trkpt>
      <trkpt lat="41.98669" lon="-8.88402">
        <ele>58.589</ele>
        <time>2018-07-28T11:30:50Z</time>
      </trkpt>
      <trkpt lat="41.98691" lon="-8.884">
        <ele>58.406</ele>
        <time>2018-07-28T11:30:51Z</time>
      </trkpt>
      <trkpt lat="41.98715" lon="-8.88396">
        <ele>58.426</ele>
        <time>2018-07-28T11:30:52Z</time>
      </trkpt>
      <trkpt lat="41.98739" lon="-8.88392">
        <ele>58.408</ele>
        <time>2018-07-28T11:30:53Z</time>
      </trkpt>
      <trkpt lat="41.98762" lon="-8.88387">
        <ele>58.65</ele>
        <time>2018-07-28T11:30:54Z</time>
      </trkpt>
      <trkpt lat="41.98785" lon="-8.88379">
        <ele>58.875</ele>
        <time>2018-07-28T11:30:55Z</time>
      </trkpt>
      <trkpt lat="41.98806" lon="-8.88367">
        <ele>58.898</ele>
        <time>2018-07-28T11:30:56Z</time>
      </trkpt>
      <trkpt lat="41.98825" lon="-8.88355">
        <ele>58.64</ele>
        <time>2018-07-28T11:30:57Z</time>
      </trkpt>
      <trkpt lat="41.98844" lon="-8.88342">
        <ele>58.635</ele>
        <time>2018-07-28T11:30:58Z</time>
      </trkpt>
      <trkpt lat="41.98864" lon="-8.88327">
        <ele>57.91</ele>
        <time>2018-07-28T11:30:59Z</time>
      </trkpt>
      <trkpt lat="41.98884" lon="-8.88312">
        <ele>57.778</ele>
        <time>2018-07-28T11:31:00Z</time>
      </trkpt>
      <trkpt lat="41.98904" lon="-8.88297">
        <ele>57.644</ele>
        <time>2018-07-28T11:31:01Z</time>
      </trkpt>
      <trkpt lat="41.98923" lon="-8.88281">
        <ele>57.225</ele>
        <time>2018-07-28T11:31:02Z</time>
      </trkpt>
      <trkpt lat="41.98945" lon="-8.88268">
        <ele>56.826</ele>
        <time>2018-07-28T11:31:03Z</time>
      </trkpt>
      <trkpt lat="41.98964" lon="-8.88253">
        <ele>56.608</ele>
        <time>2018-07-28T11:31:04Z</time>
      </trkpt>
      <trkpt lat="41.98983" lon="-8.88238">
        <ele>56.308</ele>
        <time>2018-07-28T11:31:05Z</time>
      </trkpt>
      <trkpt lat="41.99003" lon="-8.88223">
        <ele>56.184</ele>
        <time>2018-07-28T11:31:06Z</time>
      </trkpt>
      <trkpt lat="41.99021" lon="-8.88209">
        <ele>56.179</ele>
        <time>2018-07-28T11:31:07Z</time>
      </trkpt>
      <trkpt lat="41.99041" lon="-8.88193">
        <ele>56.142</ele>
        <time>2018-07-28T11:31:08Z</time>
      </trkpt>
      <trkpt lat="41.99061" lon="-8.8818">
        <ele>56.184</ele>
        <time>2018-07-28T11:31:09Z</time>
      </trkpt>
      <trkpt lat="41.99082" lon="-8.88164">
        <ele>56.589</ele>
        <time>2018-07-28T11:31:10Z</time>
      </trkpt>
      <trkpt lat="41.99103" lon="-8.88148">
        <ele>56.824</ele>
        <time>2018-07-28T11:31:11Z</time>
      </trkpt>
      <trkpt lat="41.99124" lon="-8.88133">
        <ele>57.132</ele>
        <time>2018-07-28T11:31:12Z</time>
      </trkpt>
      <trkpt lat="41.99145" lon="-8.8812">
        <ele>58.178</ele>
        <time>2018-07-28T11:31:13Z</time>
      </trkpt>
      <trkpt lat="41.99167" lon="-8.88107">
        <ele>58.316</ele>
        <time>2018-07-28T11:31:14Z</time>
      </trkpt>
      <trkpt lat="41.99189" lon="-8.88093">
        <ele>58.676</ele>
        <time>2018-07-28T11:31:15Z</time>
      </trkpt>
      <trkpt lat="41.99211" lon="-8.88072">
        <ele>58.913</ele>
        <time>2018-07-28T11:31:16Z</time>
      </trkpt>
      <trkpt lat="41.99233" lon="-8.88056">
        <ele>58.908</ele>
        <time>2018-07-28T11:31:17Z</time>
      </trkpt>
      <trkpt lat="41.99255" lon="-8.88042">
        <ele>58.773</ele>
        <time>2018-07-28T11:31:18Z</time>
      </trkpt>
      <trkpt lat="41.99278" lon="-8.88028">
        <ele>58.268</ele>
        <time>2018-07-28T11:31:19Z</time>
      </trkpt>
      <trkpt lat="41.99299" lon="-8.88012">
        <ele>57.881</ele>
        <time>2018-07-28T11:31:20Z</time>
      </trkpt>
      <trkpt lat="41.99321" lon="-8.87998">
        <ele>57.213</ele>
        <time>2018-07-28T11:31:21Z</time>
      </trkpt>
      <trkpt lat="41.99343" lon="-8.87983">
        <ele>57.248</ele>
        <time>2018-07-28T11:31:22Z</time>
      </trkpt>
      <trkpt lat="41.99362" lon="-8.87969">
        <ele>57.663</ele>
        <time>2018-07-28T11:31:23Z</time>
      </trkpt>
      <trkpt lat="41.99382" lon="-8.87953">
        <ele>58.441</ele>
        <time>2018-07-28T11:31:24Z</time>
      </trkpt>
      <trkpt lat="41.99401" lon="-8.87937">
        <ele>59.197</ele>
        <time>2018-07-28T11:31:25Z</time>
      </trkpt>
      <trkpt lat="41.99423" lon="-8.87923">
        <ele>59.969</ele>
        <time>2018-07-28T11:31:26Z</time>
      </trkpt>
      <trkpt lat="41.99444" lon="-8.87908">
        <ele>61.604</ele>
        <time>2018-07-28T11:31:27Z</time>
      </trkpt>
      <trkpt lat="41.99463" lon="-8.87895">
        <ele>61.824</ele>
        <time>2018-07-28T11:31:28Z</time>
      </trkpt>
      <trkpt lat="41.9948" lon="-8.87882">
        <ele>62.108</ele>
        <time>2018-07-28T11:31:29Z</time>
      </trkpt>
      <trkpt lat="41.99496" lon="-8.8787">
        <ele>62.228</ele>
        <time>2018-07-28T11:31:30Z</time>
      </trkpt>
      <trkpt lat="41.99514" lon="-8.87861">
        <ele>62.223</ele>
        <time>2018-07-28T11:31:31Z</time>
      </trkpt>
      <trkpt lat="41.99532" lon="-8.87848">
        <ele>62.276</ele>
        <time>2018-07-28T11:31:32Z</time>
      </trkpt>
      <trkpt lat="41.99552" lon="-8.87833">
        <ele>62.468</ele>
        <time>2018-07-28T11:31:33Z</time>
      </trkpt>
      <trkpt lat="41.99568" lon="-8.87809">
        <ele>62.573</ele>
        <time>2018-07-28T11:31:34Z</time>
      </trkpt>
      <trkpt lat="41.99586" lon="-8.8779">
        <ele>62.848</ele>
        <time>2018-07-28T11:31:35Z</time>
      </trkpt>
      <trkpt lat="41.99602" lon="-8.87768">
        <ele>63.176</ele>
        <time>2018-07-28T11:31:36Z</time>
      </trkpt>
      <trkpt lat="41.99618" lon="-8.87747">
        <ele>63.432</ele>
        <time>2018-07-28T11:31:37Z</time>
      </trkpt>
      <trkpt lat="41.99636" lon="-8.87727">
        <ele>63.744</ele>
        <time>2018-07-28T11:31:38Z</time>
      </trkpt>
      <trkpt lat="41.99652" lon="-8.87706">
        <ele>64.305</ele>
        <time>2018-07-28T11:31:39Z</time>
      </trkpt>
      <trkpt lat="41.99669" lon="-8.87682">
        <ele>64.815</ele>
        <time>2018-07-28T11:31:40Z</time>
      </trkpt>
      <trkpt lat="41.99687" lon="-8.87667">
        <ele>65.308</ele>
        <time>2018-07-28T11:31:41Z</time>
      </trkpt>
      <trkpt lat="41.99705" lon="-8.87654">
        <ele>65.366</ele>
        <time>2018-07-28T11:31:42Z</time>
      </trkpt>
      <trkpt lat="41.99727" lon="-8.87648">
        <ele>65.161</ele>
        <time>2018-07-28T11:31:43Z</time>
      </trkpt>
      <trkpt lat="41.9975" lon="-8.87646">
        <ele>64.934</ele>
        <time>2018-07-28T11:31:44Z</time>
      </trkpt>
      <trkpt lat="41.99772" lon="-8.8764">
        <ele>64.976</ele>
        <time>2018-07-28T11:31:45Z</time>
      </trkpt>
      <trkpt lat="41.99795" lon="-8.87634">
        <ele>65.221</ele>
        <time>2018-07-28T11:31:46Z</time>
      </trkpt>
      <trkpt lat="41.99819" lon="-8.87625">
        <ele>65.516</ele>
        <time>2018-07-28T11:31:47Z</time>
      </trkpt>
      <trkpt lat="41.99842" lon="-8.87619">
        <ele>65.644</ele>
        <time>2018-07-28T11:31:48Z</time>
      </trkpt>
      <trkpt lat="41.99864" lon="-8.87612">
        <ele>65.61</ele>
        <time>2018-07-28T11:31:49Z</time>
      </trkpt>
      <trkpt lat="41.99883" lon="-8.87605">
        <ele>65.253</ele>
        <time>2018-07-28T11:31:50Z</time>
      </trkpt>
      <trkpt lat="41.99903" lon="-8.876">
        <ele>64.404</ele>
        <time>2018-07-28T11:31:51Z</time>
      </trkpt>
      <trkpt lat="41.99921" lon="-8.87595">
        <ele>63.614</ele>
        <time>2018-07-28T11:31:52Z</time>
      </trkpt>
      <trkpt lat="41.99939" lon="-8.87591">
        <ele>62.508</ele>
        <time>2018-07-28T11:31:53Z</time>
      </trkpt>
      <trkpt lat="41.99958" lon="-8.87587">
        <ele>61.887</ele>
        <time>2018-07-28T11:31:54Z</time>
      </trkpt>
      <trkpt lat="41.99976" lon="-8.87581">
        <ele>60.592</ele>
        <time>2018-07-28T11:31:55Z</time>
      </trkpt>
      <trkpt lat="41.99993" lon="-8.87576">
        <ele>59.585</ele>
        <time>2018-07-28T11:31:56Z</time>
      </trkpt>
      <trkpt lat="42.0001" lon="-8.87573">
        <ele>58.867</ele>
        <time>2018-07-28T11:31:57Z</time>
      </trkpt>
      <trkpt lat="42.00025" lon="-8.87563">
        <ele>58.072</ele>
        <time>2018-07-28T11:31:58Z</time>
      </trkpt>
      <trkpt lat="42.00041" lon="-8.87547">
        <ele>57.367</ele>
        <time>2018-07-28T11:31:59Z</time>
      </trkpt>
      <trkpt lat="42.00054" lon="-8.87527">
        <ele>56.545</ele>
        <time>2018-07-28T11:32:00Z</time>
      </trkpt>
      <trkpt lat="42.00067" lon="-8.8751">
        <ele>56.111</ele>
        <time>2018-07-28T11:32:01Z</time>
      </trkpt>
      <trkpt lat="42.0008" lon="-8.87495">
        <ele>55.811</ele>
        <time>2018-07-28T11:32:02Z</time>
      </trkpt>
      <trkpt lat="42.00092" lon="-8.8748">
        <ele>55.221</ele>
        <time>2018-07-28T11:32:03Z</time>
      </trkpt>
      <trkpt lat="42.00102" lon="-8.87464">
        <ele>54.603</ele>
        <time>2018-07-28T11:32:04Z</time>
      </trkpt>
      <trkpt lat="42.00117" lon="-8.87454">
        <ele>53.808</ele>
        <time>2018-07-28T11:32:05Z</time>
      </trkpt>
      <trkpt lat="42.00125" lon="-8.87441">
        <ele>53.143</ele>
        <time>2018-07-28T11:32:06Z</time>
      </trkpt>
      <trkpt lat="42.00134" lon="-8.87431">
        <ele>52.228</ele>
        <time>2018-07-28T11:32:07Z</time>
      </trkpt>
      <trkpt lat="42.00143" lon="-8.87422">
        <ele>51.561</ele>
        <time>2018-07-28T11:32:08Z</time>
      </trkpt>
      <trkpt lat="42.0015" lon="-8.87414">
        <ele>50.253</ele>
        <time>2018-07-28T11:32:09Z</time>
      </trkpt>
      <trkpt lat="42.00157" lon="-8.87408">
        <ele>49.618</ele>
        <time>2018-07-28T11:32:10Z</time>
      </trkpt>
      <trkpt lat="42.00164" lon="-8.87402">
        <ele>49.213</ele>
        <time>2018-07-28T11:32:11Z</time>
      </trkpt>
      <trkpt lat="42.00171" lon="-8.87395">
        <ele>49.081</ele>
        <time>2018-07-28T11:32:12Z</time>
      </trkpt>
      <trkpt lat="42.00179" lon="-8.8739">
        <ele>48.947</ele>
        <time>2018-07-28T11:32:13Z</time>
      </trkpt>
      <trkpt lat="42.00184" lon="-8.87384">
        <ele>48.884</ele>
        <time>2018-07-28T11:32:14Z</time>
      </trkpt>
      <trkpt lat="42.00188" lon="-8.87377">
        <ele>48.707</ele>
        <time>2018-07-28T11:32:15Z</time>
      </trkpt>
      <trkpt lat="42.00193" lon="-8.8737">
        <ele>48.717</ele>
        <time>2018-07-28T11:32:16Z</time>
      </trkpt>
      <trkpt lat="42.00197" lon="-8.87364">
        <ele>48.708</ele>
        <time>2018-07-28T11:32:17Z</time>
      </trkpt>
      <trkpt lat="42.00204" lon="-8.87357">
        <ele>48.73</ele>
        <time>2018-07-28T11:32:18Z</time>
      </trkpt>
      <trkpt lat="42.00211" lon="-8.87351">
        <ele>48.725</ele>
        <time>2018-07-28T11:32:19Z</time>
      </trkpt>
      <trkpt lat="42.00222" lon="-8.87344">
        <ele>48.968</ele>
        <time>2018-07-28T11:32:20Z</time>
      </trkpt>
      <trkpt lat="42.00233" lon="-8.87332">
        <ele>49.29</ele>
        <time>2018-07-28T11:32:21Z</time>
      </trkpt>
      <trkpt lat="42.00244" lon="-8.87322">
        <ele>49.725</ele>
        <time>2018-07-28T11:32:22Z</time>
      </trkpt>
      <trkpt lat="42.00256" lon="-8.87315">
        <ele>50.88</ele>
        <time>2018-07-28T11:32:23Z</time>
      </trkpt>
      <trkpt lat="42.00268" lon="-8.87312">
        <ele>51.378</ele>
        <time>2018-07-28T11:32:24Z</time>
      </trkpt>
      <trkpt lat="42.0028" lon="-8.87305">
        <ele>51.964</ele>
        <time>2018-07-28T11:32:25Z</time>
      </trkpt>
      <trkpt lat="42.00296" lon="-8.87303">
        <ele>52.527</ele>
        <time>2018-07-28T11:32:26Z</time>
      </trkpt>
      <trkpt lat="42.00313" lon="-8.87304">
        <ele>52.968</ele>
        <time>2018-07-28T11:32:27Z</time>
      </trkpt>
      <trkpt lat="42.0033" lon="-8.8731">
        <ele>53.414</ele>
        <time>2018-07-28T11:32:28Z</time>
      </trkpt>
      <trkpt lat="42.00346" lon="-8.87316">
        <ele>53.808</ele>
        <time>2018-07-28T11:32:29Z</time>
      </trkpt>
      <trkpt lat="42.00361" lon="-8.8732">
        <ele>53.824</ele>
        <time>2018-07-28T11:32:30Z</time>
      </trkpt>
      <trkpt lat="42.00376" lon="-8.87325">
        <ele>53.669</ele>
        <time>2018-07-28T11:32:31Z</time>
      </trkpt>
      <trkpt lat="42.0039" lon="-8.87333">
        <ele>53.432</ele>
        <time>2018-07-28T11:32:32Z</time>
      </trkpt>
      <trkpt lat="42.00402" lon="-8.87343">
        <ele>53.014</ele>
        <time>2018-07-28T11:32:33Z</time>
      </trkpt>
      <trkpt lat="42.00413" lon="-8.87356">
        <ele>52.439</ele>
        <time>2018-07-28T11:32:34Z</time>
      </trkpt>
      <trkpt lat="42.00423" lon="-8.87368">
        <ele>51.844</ele>
        <time>2018-07-28T11:32:35Z</time>
      </trkpt>
      <trkpt lat="42.00431" lon="-8.8738">
        <ele>51.192</ele>
        <time>2018-07-28T11:32:36Z</time>
      </trkpt>
      <trkpt lat="42.00437" lon="-8.87387">
        <ele>49.428</ele>
        <time>2018-07-28T11:32:37Z</time>
      </trkpt>
      <trkpt lat="42.00441" lon="-8.8739">
        <ele>48.348</ele>
        <time>2018-07-28T11:32:38Z</time>
      </trkpt>
      <trkpt lat="42.00446" lon="-8.87391">
        <ele>47.361</ele>
        <time>2018-07-28T11:32:39Z</time>
      </trkpt>
      <trkpt lat="42.00446" lon="-8.87399">
        <ele>46.417</ele>
        <time>2018-07-28T11:32:40Z</time>
      </trkpt>
      <trkpt lat="42.0045" lon="-8.87403">
        <ele>45.608</ele>
        <time>2018-07-28T11:32:41Z</time>
      </trkpt>
      <trkpt lat="42.00458" lon="-8.87415">
        <ele>45.016</ele>
        <time>2018-07-28T11:32:43Z</time>
      </trkpt>
      <trkpt lat="42.00465" lon="-8.87421">
        <ele>45.081</ele>
        <time>2018-07-28T11:32:44Z</time>
      </trkpt>
      <trkpt lat="42.00473" lon="-8.87426">
        <ele>45.194</ele>
        <time>2018-07-28T11:32:45Z</time>
      </trkpt>
      <trkpt lat="42.00481" lon="-8.87434">
        <ele>45.476</ele>
        <time>2018-07-28T11:32:46Z</time>
      </trkpt>
      <trkpt lat="42.00493" lon="-8.87438">
        <ele>45.921</ele>
        <time>2018-07-28T11:32:47Z</time>
      </trkpt>
      <trkpt lat="42.00505" lon="-8.87448">
        <ele>46.446</ele>
        <time>2018-07-28T11:32:48Z</time>
      </trkpt>
      <trkpt lat="42.00517" lon="-8.87458">
        <ele>46.944</ele>
        <time>2018-07-28T11:32:49Z</time>
      </trkpt>
      <trkpt lat="42.00527" lon="-8.87469">
        <ele>47.34</ele>
        <time>2018-07-28T11:32:50Z</time>
      </trkpt>
      <trkpt lat="42.00536" lon="-8.87482">
        <ele>47.876</ele>
        <time>2018-07-28T11:32:51Z</time>
      </trkpt>
      <trkpt lat="42.00547" lon="-8.87495">
        <ele>47.99</ele>
        <time>2018-07-28T11:32:52Z</time>
      </trkpt>
      <trkpt lat="42.00557" lon="-8.87504">
        <ele>47.919</ele>
        <time>2018-07-28T11:32:53Z</time>
      </trkpt>
      <trkpt lat="42.00567" lon="-8.87511">
        <ele>47.908</ele>
        <time>2018-07-28T11:32:54Z</time>
      </trkpt>
      <trkpt lat="42.00575" lon="-8.87523">
        <ele>48.029</ele>
        <time>2018-07-28T11:32:55Z</time>
      </trkpt>
      <trkpt lat="42.00587" lon="-8.8753">
        <ele>48.054</ele>
        <time>2018-07-28T11:32:56Z</time>
      </trkpt>
      <trkpt lat="42.00598" lon="-8.87542">
        <ele>47.817</ele>
        <time>2018-07-28T11:32:57Z</time>
      </trkpt>
      <trkpt lat="42.00606" lon="-8.87555">
        <ele>47.689</ele>
        <time>2018-07-28T11:32:58Z</time>
      </trkpt>
      <trkpt lat="42.00617" lon="-8.87561">
        <ele>47.354</ele>
        <time>2018-07-28T11:32:59Z</time>
      </trkpt>
      <trkpt lat="42.00626" lon="-8.87569">
        <ele>46.719</ele>
        <time>2018-07-28T11:33:00Z</time>
      </trkpt>
      <trkpt lat="42.00634" lon="-8.87576">
        <ele>46.117</ele>
        <time>2018-07-28T11:33:01Z</time>
      </trkpt>
      <trkpt lat="42.00642" lon="-8.87582">
        <ele>45.643</ele>
        <time>2018-07-28T11:33:02Z</time>
      </trkpt>
      <trkpt lat="42.0065" lon="-8.87593">
        <ele>45.282</ele>
        <time>2018-07-28T11:33:03Z</time>
      </trkpt>
      <trkpt lat="42.00658" lon="-8.87601">
        <ele>44.943</ele>
        <time>2018-07-28T11:33:04Z</time>
      </trkpt>
      <trkpt lat="42.00669" lon="-8.87608">
        <ele>44.717</ele>
        <time>2018-07-28T11:33:05Z</time>
      </trkpt>
      <trkpt lat="42.00678" lon="-8.8762">
        <ele>44.708</ele>
        <time>2018-07-28T11:33:06Z</time>
      </trkpt>
      <trkpt lat="42.00689" lon="-8.87628">
        <ele>44.87</ele>
        <time>2018-07-28T11:33:07Z</time>
      </trkpt>
      <trkpt lat="42.00697" lon="-8.87642">
        <ele>44.995</ele>
        <time>2018-07-28T11:33:08Z</time>
      </trkpt>
      <trkpt lat="42.00709" lon="-8.8765">
        <ele>44.958</ele>
        <time>2018-07-28T11:33:09Z</time>
      </trkpt>
      <trkpt lat="42.0072" lon="-8.87661">
        <ele>44.93</ele>
        <time>2018-07-28T11:33:10Z</time>
      </trkpt>
      <trkpt lat="42.00731" lon="-8.87669">
        <ele>44.925</ele>
        <time>2018-07-28T11:33:11Z</time>
      </trkpt>
      <trkpt lat="42.0074" lon="-8.87682">
        <ele>44.85</ele>
        <time>2018-07-28T11:33:12Z</time>
      </trkpt>
      <trkpt lat="42.00752" lon="-8.87691">
        <ele>44.778</ele>
        <time>2018-07-28T11:33:13Z</time>
      </trkpt>
      <trkpt lat="42.00761" lon="-8.87701">
        <ele>44.714</ele>
        <time>2018-07-28T11:33:14Z</time>
      </trkpt>
      <trkpt lat="42.00771" lon="-8.87711">
        <ele>44.658</ele>
        <time>2018-07-28T11:33:15Z</time>
      </trkpt>
      <trkpt lat="42.0078" lon="-8.87719">
        <ele>44.252</ele>
        <time>2018-07-28T11:33:16Z</time>
      </trkpt>
      <trkpt lat="42.00788" lon="-8.87727">
        <ele>43.817</ele>
        <time>2018-07-28T11:33:17Z</time>
      </trkpt>
      <trkpt lat="42.00797" lon="-8.87736">
        <ele>43.408</ele>
        <time>2018-07-28T11:33:18Z</time>
      </trkpt>
      <trkpt lat="42.00807" lon="-8.87744">
        <ele>42.517</ele>
        <time>2018-07-28T11:33:19Z</time>
      </trkpt>
      <trkpt lat="42.00815" lon="-8.87751">
        <ele>42.512</ele>
        <time>2018-07-28T11:33:20Z</time>
      </trkpt>
      <trkpt lat="42.00827" lon="-8.87759">
        <ele>42.615</ele>
        <time>2018-07-28T11:33:21Z</time>
      </trkpt>
      <trkpt lat="42.00838" lon="-8.87768">
        <ele>42.817</ele>
        <time>2018-07-28T11:33:22Z</time>
      </trkpt>
      <trkpt lat="42.0085" lon="-8.87778">
        <ele>43.332</ele>
        <time>2018-07-28T11:33:23Z</time>
      </trkpt>
      <trkpt lat="42.00861" lon="-8.87792">
        <ele>43.777</ele>
        <time>2018-07-28T11:33:24Z</time>
      </trkpt>
      <trkpt lat="42.00874" lon="-8.87805">
        <ele>44.025</ele>
        <time>2018-07-28T11:33:25Z</time>
      </trkpt>
      <trkpt lat="42.00887" lon="-8.87818">
        <ele>44.391</ele>
        <time>2018-07-28T11:33:26Z</time>
      </trkpt>
      <trkpt lat="42.00899" lon="-8.87832">
        <ele>44.479</ele>
        <time>2018-07-28T11:33:27Z</time>
      </trkpt>
      <trkpt lat="42.00912" lon="-8.87844">
        <ele>44.405</ele>
        <time>2018-07-28T11:33:28Z</time>
      </trkpt>
      <trkpt lat="42.00925" lon="-8.87855">
        <ele>44.425</ele>
        <time>2018-07-28T11:33:29Z</time>
      </trkpt>
      <trkpt lat="42.00935" lon="-8.8787">
        <ele>44.308</ele>
        <time>2018-07-28T11:33:30Z</time>
      </trkpt>
      <trkpt lat="42.00949" lon="-8.8788">
        <ele>44.269</ele>
        <time>2018-07-28T11:33:31Z</time>
      </trkpt>
      <trkpt lat="42.0096" lon="-8.87893">
        <ele>44.234</ele>
        <time>2018-07-28T11:33:32Z</time>
      </trkpt>
      <trkpt lat="42.00974" lon="-8.87905">
        <ele>44.317</ele>
        <time>2018-07-28T11:33:33Z</time>
      </trkpt>
      <trkpt lat="42.00987" lon="-8.87918">
        <ele>44.489</ele>
        <time>2018-07-28T11:33:34Z</time>
      </trkpt>
      <trkpt lat="42.01002" lon="-8.87931">
        <ele>44.664</ele>
        <time>2018-07-28T11:33:35Z</time>
      </trkpt>
      <trkpt lat="42.01022" lon="-8.87939">
        <ele>45.059</ele>
        <time>2018-07-28T11:33:36Z</time>
      </trkpt>
      <trkpt lat="42.01043" lon="-8.87941">
        <ele>45.637</ele>
        <time>2018-07-28T11:33:37Z</time>
      </trkpt>
      <trkpt lat="42.01062" lon="-8.87945">
        <ele>45.843</ele>
        <time>2018-07-28T11:33:38Z</time>
      </trkpt>
      <trkpt lat="42.01081" lon="-8.87952">
        <ele>45.815</ele>
        <time>2018-07-28T11:33:39Z</time>
      </trkpt>
      <trkpt lat="42.01099" lon="-8.87958">
        <ele>45.665</ele>
        <time>2018-07-28T11:33:40Z</time>
      </trkpt>
      <trkpt lat="42.01117" lon="-8.87965">
        <ele>45.311</ele>
        <time>2018-07-28T11:33:41Z</time>
      </trkpt>
      <trkpt lat="42.01136" lon="-8.87969">
        <ele>45.308</ele>
        <time>2018-07-28T11:33:42Z</time>
      </trkpt>
      <trkpt lat="42.01159" lon="-8.87976">
        <ele>45.673</ele>
        <time>2018-07-28T11:33:43Z</time>
      </trkpt>
      <trkpt lat="42.0118" lon="-8.87981">
        <ele>46.238</ele>
        <time>2018-07-28T11:33:44Z</time>
      </trkpt>
      <trkpt lat="42.01203" lon="-8.87986">
        <ele>47.051</ele>
        <time>2018-07-28T11:33:45Z</time>
      </trkpt>
      <trkpt lat="42.01225" lon="-8.8799">
        <ele>47.953</ele>
        <time>2018-07-28T11:33:46Z</time>
      </trkpt>
      <trkpt lat="42.01248" lon="-8.87997">
        <ele>49.338</ele>
        <time>2018-07-28T11:33:47Z</time>
      </trkpt>
      <trkpt lat="42.01271" lon="-8.88006">
        <ele>50.033</ele>
        <time>2018-07-28T11:33:48Z</time>
      </trkpt>
      <trkpt lat="42.01295" lon="-8.88011">
        <ele>50.361</ele>
        <time>2018-07-28T11:33:49Z</time>
      </trkpt>
      <trkpt lat="42.01317" lon="-8.88018">
        <ele>50.317</ele>
        <time>2018-07-28T11:33:50Z</time>
      </trkpt>
      <trkpt lat="42.01339" lon="-8.88024">
        <ele>50.078</ele>
        <time>2018-07-28T11:33:51Z</time>
      </trkpt>
      <trkpt lat="42.0136" lon="-8.88029">
        <ele>49.533</ele>
        <time>2018-07-28T11:33:52Z</time>
      </trkpt>
      <trkpt lat="42.01382" lon="-8.88036">
        <ele>49.126</ele>
        <time>2018-07-28T11:33:53Z</time>
      </trkpt>
      <trkpt lat="42.01405" lon="-8.88043">
        <ele>48.808</ele>
        <time>2018-07-28T11:33:54Z</time>
      </trkpt>
      <trkpt lat="42.01427" lon="-8.88048">
        <ele>48.839</ele>
        <time>2018-07-28T11:33:55Z</time>
      </trkpt>
      <trkpt lat="42.01449" lon="-8.88058">
        <ele>48.894</ele>
        <time>2018-07-28T11:33:56Z</time>
      </trkpt>
      <trkpt lat="42.01475" lon="-8.88059">
        <ele>48.847</ele>
        <time>2018-07-28T11:33:57Z</time>
      </trkpt>
      <trkpt lat="42.01498" lon="-8.88067">
        <ele>48.799</ele>
        <time>2018-07-28T11:33:58Z</time>
      </trkpt>
      <trkpt lat="42.01517" lon="-8.88076">
        <ele>48.634</ele>
        <time>2018-07-28T11:33:59Z</time>
      </trkpt>
      <trkpt lat="42.01538" lon="-8.88082">
        <ele>48.529</ele>
        <time>2018-07-28T11:34:00Z</time>
      </trkpt>
      <trkpt lat="42.0156" lon="-8.88088">
        <ele>48.277</ele>
        <time>2018-07-28T11:34:01Z</time>
      </trkpt>
      <trkpt lat="42.01579" lon="-8.88095">
        <ele>47.563</ele>
        <time>2018-07-28T11:34:02Z</time>
      </trkpt>
      <trkpt lat="42.016" lon="-8.88097">
        <ele>46.919</ele>
        <time>2018-07-28T11:34:03Z</time>
      </trkpt>
      <trkpt lat="42.0162" lon="-8.88103">
        <ele>46.309</ele>
        <time>2018-07-28T11:34:04Z</time>
      </trkpt>
      <trkpt lat="42.01639" lon="-8.88108">
        <ele>45.619</ele>
        <time>2018-07-28T11:34:05Z</time>
      </trkpt>
      <trkpt lat="42.01658" lon="-8.88113">
        <ele>45.108</ele>
        <time>2018-07-28T11:34:06Z</time>
      </trkpt>
      <trkpt lat="42.01676" lon="-8.88118">
        <ele>44.973</ele>
        <time>2018-07-28T11:34:07Z</time>
      </trkpt>
      <trkpt lat="42.01698" lon="-8.88127">
        <ele>44.988</ele>
        <time>2018-07-28T11:34:08Z</time>
      </trkpt>
      <trkpt lat="42.01717" lon="-8.88132">
        <ele>44.971</ele>
        <time>2018-07-28T11:34:09Z</time>
      </trkpt>
      <trkpt lat="42.01733" lon="-8.88139">
        <ele>44.783</ele>
        <time>2018-07-28T11:34:10Z</time>
      </trkpt>
      <trkpt lat="42.0175" lon="-8.88145">
        <ele>44.268</ele>
        <time>2018-07-28T11:34:11Z</time>
      </trkpt>
      <trkpt lat="42.01765" lon="-8.88147">
        <ele>43.763</ele>
        <time>2018-07-28T11:34:12Z</time>
      </trkpt>
      <trkpt lat="42.01776" lon="-8.88149">
        <ele>42.661</ele>
        <time>2018-07-28T11:34:13Z</time>
      </trkpt>
      <trkpt lat="42.01787" lon="-8.88152">
        <ele>41.787</ele>
        <time>2018-07-28T11:34:14Z</time>
      </trkpt>
      <trkpt lat="42.018" lon="-8.88157">
        <ele>39.726</ele>
        <time>2018-07-28T11:34:15Z</time>
      </trkpt>
      <trkpt lat="42.0181" lon="-8.8816">
        <ele>38.947</ele>
        <time>2018-07-28T11:34:16Z</time>
      </trkpt>
      <trkpt lat="42.01821" lon="-8.88162">
        <ele>38.411</ele>
        <time>2018-07-28T11:34:17Z</time>
      </trkpt>
      <trkpt lat="42.01834" lon="-8.88165">
        <ele>38.108</ele>
        <time>2018-07-28T11:34:18Z</time>
      </trkpt>
      <trkpt lat="42.01845" lon="-8.88167">
        <ele>38.044</ele>
        <time>2018-07-28T11:34:19Z</time>
      </trkpt>
      <trkpt lat="42.01858" lon="-8.88174">
        <ele>38.039</ele>
        <time>2018-07-28T11:34:20Z</time>
      </trkpt>
      <trkpt lat="42.01874" lon="-8.88176">
        <ele>38.272</ele>
        <time>2018-07-28T11:34:21Z</time>
      </trkpt>
      <trkpt lat="42.01889" lon="-8.88182">
        <ele>38.544</ele>
        <time>2018-07-28T11:34:22Z</time>
      </trkpt>
      <trkpt lat="42.01905" lon="-8.88184">
        <ele>39.069</ele>
        <time>2018-07-28T11:34:23Z</time>
      </trkpt>
      <trkpt lat="42.01923" lon="-8.88192">
        <ele>39.474</ele>
        <time>2018-07-28T11:34:24Z</time>
      </trkpt>
      <trkpt lat="42.01939" lon="-8.88194">
        <ele>39.842</ele>
        <time>2018-07-28T11:34:25Z</time>
      </trkpt>
      <trkpt lat="42.01957" lon="-8.88199">
        <ele>40.158</ele>
        <time>2018-07-28T11:34:26Z</time>
      </trkpt>
      <trkpt lat="42.01978" lon="-8.88201">
        <ele>40.332</ele>
        <time>2018-07-28T11:34:27Z</time>
      </trkpt>
      <trkpt lat="42.01996" lon="-8.88207">
        <ele>40.692</ele>
        <time>2018-07-28T11:34:28Z</time>
      </trkpt>
      <trkpt lat="42.02016" lon="-8.88214">
        <ele>41.611</ele>
        <time>2018-07-28T11:34:29Z</time>
      </trkpt>
      <trkpt lat="42.02034" lon="-8.88221">
        <ele>42.008</ele>
        <time>2018-07-28T11:34:30Z</time>
      </trkpt>
      <trkpt lat="42.02052" lon="-8.88228">
        <ele>42.495</ele>
        <time>2018-07-28T11:34:31Z</time>
      </trkpt>
      <trkpt lat="42.02071" lon="-8.88231">
        <ele>42.79</ele>
        <time>2018-07-28T11:34:32Z</time>
      </trkpt>
      <trkpt lat="42.0209" lon="-8.88234">
        <ele>42.793</ele>
        <time>2018-07-28T11:34:33Z</time>
      </trkpt>
      <trkpt lat="42.0211" lon="-8.88239">
        <ele>42.465</ele>
        <time>2018-07-28T11:34:34Z</time>
      </trkpt>
      <trkpt lat="42.02128" lon="-8.88242">
        <ele>42.27</ele>
        <time>2018-07-28T11:34:35Z</time>
      </trkpt>
      <trkpt lat="42.02146" lon="-8.88249">
        <ele>41.885</ele>
        <time>2018-07-28T11:34:36Z</time>
      </trkpt>
      <trkpt lat="42.02165" lon="-8.8825">
        <ele>41.183</ele>
        <time>2018-07-28T11:34:37Z</time>
      </trkpt>
      <trkpt lat="42.0218" lon="-8.8826">
        <ele>40.599</ele>
        <time>2018-07-28T11:34:38Z</time>
      </trkpt>
      <trkpt lat="42.02196" lon="-8.88265">
        <ele>40.168</ele>
        <time>2018-07-28T11:34:39Z</time>
      </trkpt>
      <trkpt lat="42.02214" lon="-8.88271">
        <ele>39.742</ele>
        <time>2018-07-28T11:34:40Z</time>
      </trkpt>
      <trkpt lat="42.02233" lon="-8.88277">
        <ele>39.326</ele>
        <time>2018-07-28T11:34:41Z</time>
      </trkpt>
      <trkpt lat="42.02249" lon="-8.88288">
        <ele>39.208</ele>
        <time>2018-07-28T11:34:42Z</time>
      </trkpt>
      <trkpt lat="42.02267" lon="-8.88293">
        <ele>38.888</ele>
        <time>2018-07-28T11:34:43Z</time>
      </trkpt>
      <trkpt lat="42.02287" lon="-8.88292">
        <ele>38.583</ele>
        <time>2018-07-28T11:34:44Z</time>
      </trkpt>
      <trkpt lat="42.02305" lon="-8.88301">
        <ele>38.046</ele>
        <time>2018-07-28T11:34:45Z</time>
      </trkpt>
      <trkpt lat="42.02322" lon="-8.88304">
        <ele>37.578</ele>
        <time>2018-07-28T11:34:46Z</time>
      </trkpt>
      <trkpt lat="42.02341" lon="-8.88309">
        <ele>37.083</ele>
        <time>2018-07-28T11:34:47Z</time>
      </trkpt>
      <trkpt lat="42.0236" lon="-8.88313">
        <ele>36.548</ele>
        <time>2018-07-28T11:34:48Z</time>
      </trkpt>
      <trkpt lat="42.02379" lon="-8.88319">
        <ele>36.236</ele>
        <time>2018-07-28T11:34:49Z</time>
      </trkpt>
      <trkpt lat="42.02398" lon="-8.88326">
        <ele>35.942</ele>
        <time>2018-07-28T11:34:50Z</time>
      </trkpt>
      <trkpt lat="42.02419" lon="-8.88324">
        <ele>35.533</ele>
        <time>2018-07-28T11:34:51Z</time>
      </trkpt>
      <trkpt lat="42.02435" lon="-8.88335">
        <ele>34.823</ele>
        <time>2018-07-28T11:34:52Z</time>
      </trkpt>
      <trkpt lat="42.02452" lon="-8.88342">
        <ele>34.315</ele>
        <time>2018-07-28T11:34:53Z</time>
      </trkpt>
      <trkpt lat="42.02466" lon="-8.88346">
        <ele>33.208</ele>
        <time>2018-07-28T11:34:54Z</time>
      </trkpt>
      <trkpt lat="42.02483" lon="-8.8835">
        <ele>32.395</ele>
        <time>2018-07-28T11:34:55Z</time>
      </trkpt>
      <trkpt lat="42.02497" lon="-8.88357">
        <ele>31.33</ele>
        <time>2018-07-28T11:34:56Z</time>
      </trkpt>
      <trkpt lat="42.02513" lon="-8.88365">
        <ele>29.883</ele>
        <time>2018-07-28T11:34:57Z</time>
      </trkpt>
      <trkpt lat="42.0253" lon="-8.88374">
        <ele>29.415</ele>
        <time>2018-07-28T11:34:58Z</time>
      </trkpt>
      <trkpt lat="42.02545" lon="-8.88388">
        <ele>29.28</ele>
        <time>2018-07-28T11:34:59Z</time>
      </trkpt>
      <trkpt lat="42.02558" lon="-8.8841">
        <ele>29.265</ele>
        <time>2018-07-28T11:35:00Z</time>
      </trkpt>
      <trkpt lat="42.02572" lon="-8.88429">
        <ele>29.233</ele>
        <time>2018-07-28T11:35:01Z</time>
      </trkpt>
      <trkpt lat="42.02587" lon="-8.88447">
        <ele>29.219</ele>
        <time>2018-07-28T11:35:02Z</time>
      </trkpt>
      <trkpt lat="42.02602" lon="-8.88461">
        <ele>29.242</ele>
        <time>2018-07-28T11:35:03Z</time>
      </trkpt>
      <trkpt lat="42.02617" lon="-8.88471">
        <ele>29.122</ele>
        <time>2018-07-28T11:35:04Z</time>
      </trkpt>
      <trkpt lat="42.02634" lon="-8.88477">
        <ele>28.614</ele>
        <time>2018-07-28T11:35:05Z</time>
      </trkpt>
      <trkpt lat="42.02653" lon="-8.88479">
        <ele>27.908</ele>
        <time>2018-07-28T11:35:06Z</time>
      </trkpt>
      <trkpt lat="42.02671" lon="-8.88475">
        <ele>27.416</ele>
        <time>2018-07-28T11:35:07Z</time>
      </trkpt>
      <trkpt lat="42.02689" lon="-8.88469">
        <ele>27.371</ele>
        <time>2018-07-28T11:35:08Z</time>
      </trkpt>
      <trkpt lat="42.02707" lon="-8.88462">
        <ele>27.334</ele>
        <time>2018-07-28T11:35:09Z</time>
      </trkpt>
      <trkpt lat="42.02723" lon="-8.88455">
        <ele>27.766</ele>
        <time>2018-07-28T11:35:10Z</time>
      </trkpt>
      <trkpt lat="42.02739" lon="-8.88449">
        <ele>28.131</ele>
        <time>2018-07-28T11:35:11Z</time>
      </trkpt>
      <trkpt lat="42.02755" lon="-8.88442">
        <ele>28.056</ele>
        <time>2018-07-28T11:35:12Z</time>
      </trkpt>
      <trkpt lat="42.02769" lon="-8.88435">
        <ele>27.494</ele>
        <time>2018-07-28T11:35:13Z</time>
      </trkpt>
      <trkpt lat="42.02786" lon="-8.8843">
        <ele>26.72</ele>
        <time>2018-07-28T11:35:14Z</time>
      </trkpt>
      <trkpt lat="42.02799" lon="-8.88421">
        <ele>25.194</ele>
        <time>2018-07-28T11:35:15Z</time>
      </trkpt>
      <trkpt lat="42.02811" lon="-8.88418">
        <ele>25.157</ele>
        <time>2018-07-28T11:35:16Z</time>
      </trkpt>
      <trkpt lat="42.02824" lon="-8.88412">
        <ele>24.522</ele>
        <time>2018-07-28T11:35:17Z</time>
      </trkpt>
      <trkpt lat="42.02838" lon="-8.88406">
        <ele>24.008</ele>
        <time>2018-07-28T11:35:18Z</time>
      </trkpt>
      <trkpt lat="42.02852" lon="-8.88398">
        <ele>23.651</ele>
        <time>2018-07-28T11:35:19Z</time>
      </trkpt>
      <trkpt lat="42.02867" lon="-8.8839">
        <ele>23.296</ele>
        <time>2018-07-28T11:35:20Z</time>
      </trkpt>
      <trkpt lat="42.02885" lon="-8.88383">
        <ele>23.049</ele>
        <time>2018-07-28T11:35:21Z</time>
      </trkpt>
      <trkpt lat="42.02901" lon="-8.88376">
        <ele>23.071</ele>
        <time>2018-07-28T11:35:22Z</time>
      </trkpt>
      <trkpt lat="42.02916" lon="-8.8837">
        <ele>23.056</ele>
        <time>2018-07-28T11:35:23Z</time>
      </trkpt>
      <trkpt lat="42.02933" lon="-8.88363">
        <ele>23.161</ele>
        <time>2018-07-28T11:35:24Z</time>
      </trkpt>
      <trkpt lat="42.02948" lon="-8.88355">
        <ele>23.169</ele>
        <time>2018-07-28T11:35:25Z</time>
      </trkpt>
      <trkpt lat="42.02964" lon="-8.88348">
        <ele>23.025</ele>
        <time>2018-07-28T11:35:26Z</time>
      </trkpt>
      <trkpt lat="42.02981" lon="-8.88342">
        <ele>23.031</ele>
        <time>2018-07-28T11:35:27Z</time>
      </trkpt>
      <trkpt lat="42.02998" lon="-8.88336">
        <ele>23.061</ele>
        <time>2018-07-28T11:35:28Z</time>
      </trkpt>
      <trkpt lat="42.03015" lon="-8.88329">
        <ele>23.007</ele>
        <time>2018-07-28T11:35:29Z</time>
      </trkpt>
      <trkpt lat="42.03031" lon="-8.88322">
        <ele>23.008</ele>
        <time>2018-07-28T11:35:30Z</time>
      </trkpt>
      <trkpt lat="42.03048" lon="-8.88316">
        <ele>23.045</ele>
        <time>2018-07-28T11:35:31Z</time>
      </trkpt>
      <trkpt lat="42.03063" lon="-8.8831">
        <ele>22.93</ele>
        <time>2018-07-28T11:35:32Z</time>
      </trkpt>
      <trkpt lat="42.03079" lon="-8.88304">
        <ele>22.883</ele>
        <time>2018-07-28T11:35:33Z</time>
      </trkpt>
      <trkpt lat="42.03093" lon="-8.88297">
        <ele>22.815</ele>
        <time>2018-07-28T11:35:34Z</time>
      </trkpt>
      <trkpt lat="42.03107" lon="-8.8829">
        <ele>22.82</ele>
        <time>2018-07-28T11:35:35Z</time>
      </trkpt>
      <trkpt lat="42.03122" lon="-8.88283">
        <ele>22.855</ele>
        <time>2018-07-28T11:35:36Z</time>
      </trkpt>
      <trkpt lat="42.03136" lon="-8.88277">
        <ele>22.873</ele>
        <time>2018-07-28T11:35:37Z</time>
      </trkpt>
      <trkpt lat="42.03151" lon="-8.88271">
        <ele>22.869</ele>
        <time>2018-07-28T11:35:38Z</time>
      </trkpt>
      <trkpt lat="42.03166" lon="-8.88265">
        <ele>22.663</ele>
        <time>2018-07-28T11:35:39Z</time>
      </trkpt>
      <trkpt lat="42.03181" lon="-8.8826">
        <ele>22.544</ele>
        <time>2018-07-28T11:35:40Z</time>
      </trkpt>
      <trkpt lat="42.03195" lon="-8.88253">
        <ele>22.518</ele>
        <time>2018-07-28T11:35:41Z</time>
      </trkpt>
      <trkpt lat="42.03209" lon="-8.88248">
        <ele>22.508</ele>
        <time>2018-07-28T11:35:42Z</time>
      </trkpt>
      <trkpt lat="42.03222" lon="-8.88238">
        <ele>22.578</ele>
        <time>2018-07-28T11:35:43Z</time>
      </trkpt>
      <trkpt lat="42.03236" lon="-8.88234">
        <ele>22.513</ele>
        <time>2018-07-28T11:35:44Z</time>
      </trkpt>
      <trkpt lat="42.0325" lon="-8.88228">
        <ele>22.386</ele>
        <time>2018-07-28T11:35:45Z</time>
      </trkpt>
      <trkpt lat="42.03259" lon="-8.88227">
        <ele>22.088</ele>
        <time>2018-07-28T11:35:46Z</time>
      </trkpt>
      <trkpt lat="42.03267" lon="-8.88223">
        <ele>21.583</ele>
        <time>2018-07-28T11:35:47Z</time>
      </trkpt>
      <trkpt lat="42.03273" lon="-8.88216">
        <ele>19.948</ele>
        <time>2018-07-28T11:35:49Z</time>
      </trkpt>
      <trkpt lat="42.03278" lon="-8.88213">
        <ele>19.256</ele>
        <time>2018-07-28T11:35:50Z</time>
      </trkpt>
      <trkpt lat="42.03284" lon="-8.88208">
        <ele>18.862</ele>
        <time>2018-07-28T11:35:51Z</time>
      </trkpt>
      <trkpt lat="42.03291" lon="-8.88205">
        <ele>18.695</ele>
        <time>2018-07-28T11:35:52Z</time>
      </trkpt>
      <trkpt lat="42.03298" lon="-8.88203">
        <ele>18.549</ele>
        <time>2018-07-28T11:35:53Z</time>
      </trkpt>
      <trkpt lat="42.03303" lon="-8.88199">
        <ele>18.523</ele>
        <time>2018-07-28T11:35:54Z</time>
      </trkpt>
      <trkpt lat="42.03307" lon="-8.88202">
        <ele>18.408</ele>
        <time>2018-07-28T11:35:55Z</time>
      </trkpt>
      <trkpt lat="42.03306" lon="-8.88196">
        <ele>17.871</ele>
        <time>2018-07-28T11:36:10Z</time>
      </trkpt>
      <trkpt lat="42.03307" lon="-8.88204">
        <ele>17.866</ele>
        <time>2018-07-28T11:36:11Z</time>
      </trkpt>
      <trkpt lat="42.03305" lon="-8.88198">
        <ele>17.889</ele>
        <time>2018-07-28T11:36:20Z</time>
      </trkpt>
      <trkpt lat="42.03311" lon="-8.88201">
        <ele>17.871</ele>
        <time>2018-07-28T11:36:26Z</time>
      </trkpt>
      <trkpt lat="42.03307" lon="-8.88203">
        <ele>17.886</ele>
        <time>2018-07-28T11:36:35Z</time>
      </trkpt>
      <trkpt lat="42.0331" lon="-8.88208">
        <ele>17.871</ele>
        <time>2018-07-28T11:36:43Z</time>
      </trkpt>
      <trkpt lat="42.03307" lon="-8.88202">
        <ele>17.619</ele>
        <time>2018-07-28T11:37:18Z</time>
      </trkpt>
      <trkpt lat="42.03307" lon="-8.88195">
        <ele>17.875</ele>
        <time>2018-07-28T11:37:31Z</time>
      </trkpt>
      <trkpt lat="42.03311" lon="-8.88198">
        <ele>17.865</ele>
        <time>2018-07-28T11:37:44Z</time>
      </trkpt>
      <trkpt lat="42.03313" lon="-8.88204">
        <ele>17.568</ele>
        <time>2018-07-28T11:38:04Z</time>
      </trkpt>
      <trkpt lat="42.03318" lon="-8.882">
        <ele>17.714</ele>
        <time>2018-07-28T11:38:49Z</time>
      </trkpt>
      <trkpt lat="42.03323" lon="-8.88199">
        <ele>17.808</ele>
        <time>2018-07-28T11:38:50Z</time>
      </trkpt>
      <trkpt lat="42.0333" lon="-8.88198">
        <ele>17.948</ele>
        <time>2018-07-28T11:38:51Z</time>
      </trkpt>
      <trkpt lat="42.03336" lon="-8.88198">
        <ele>18.043</ele>
        <time>2018-07-28T11:38:52Z</time>
      </trkpt>
      <trkpt lat="42.03343" lon="-8.88197">
        <ele>18.116</ele>
        <time>2018-07-28T11:38:53Z</time>
      </trkpt>
      <trkpt lat="42.0335" lon="-8.88196">
        <ele>18.328</ele>
        <time>2018-07-28T11:38:54Z</time>
      </trkpt>
      <trkpt lat="42.03358" lon="-8.88193">
        <ele>18.623</ele>
        <time>2018-07-28T11:38:55Z</time>
      </trkpt>
      <trkpt lat="42.03366" lon="-8.88192">
        <ele>18.978</ele>
        <time>2018-07-28T11:38:56Z</time>
      </trkpt>
      <trkpt lat="42.03374" lon="-8.88191">
        <ele>19.236</ele>
        <time>2018-07-28T11:38:57Z</time>
      </trkpt>
      <trkpt lat="42.03382" lon="-8.88189">
        <ele>19.442</ele>
        <time>2018-07-28T11:38:58Z</time>
      </trkpt>
      <trkpt lat="42.03391" lon="-8.88187">
        <ele>19.695</ele>
        <time>2018-07-28T11:38:59Z</time>
      </trkpt>
      <trkpt lat="42.03402" lon="-8.88185">
        <ele>19.849</ele>
        <time>2018-07-28T11:39:00Z</time>
      </trkpt>
      <trkpt lat="42.03415" lon="-8.88183">
        <ele>20.223</ele>
        <time>2018-07-28T11:39:01Z</time>
      </trkpt>
      <trkpt lat="42.03429" lon="-8.8818">
        <ele>20.808</ele>
        <time>2018-07-28T11:39:02Z</time>
      </trkpt>
      <trkpt lat="42.03443" lon="-8.88178">
        <ele>21.731</ele>
        <time>2018-07-28T11:39:03Z</time>
      </trkpt>
      <trkpt lat="42.03457" lon="-8.88176">
        <ele>22.356</ele>
        <time>2018-07-28T11:39:04Z</time>
      </trkpt>
      <trkpt lat="42.0347" lon="-8.88175">
        <ele>22.799</ele>
        <time>2018-07-28T11:39:05Z</time>
      </trkpt>
      <trkpt lat="42.03484" lon="-8.88173">
        <ele>23.021</ele>
        <time>2018-07-28T11:39:06Z</time>
      </trkpt>
      <trkpt lat="42.035" lon="-8.8817">
        <ele>23.286</ele>
        <time>2018-07-28T11:39:07Z</time>
      </trkpt>
      <trkpt lat="42.03516" lon="-8.88168">
        <ele>23.291</ele>
        <time>2018-07-28T11:39:08Z</time>
      </trkpt>
      <trkpt lat="42.03531" lon="-8.88166">
        <ele>23.549</ele>
        <time>2018-07-28T11:39:09Z</time>
      </trkpt>
      <trkpt lat="42.03547" lon="-8.88166">
        <ele>23.875</ele>
        <time>2018-07-28T11:39:10Z</time>
      </trkpt>
      <trkpt lat="42.03562" lon="-8.88165">
        <ele>24.084</ele>
        <time>2018-07-28T11:39:11Z</time>
      </trkpt>
      <trkpt lat="42.03578" lon="-8.88162">
        <ele>24.107</ele>
        <time>2018-07-28T11:39:12Z</time>
      </trkpt>
      <trkpt lat="42.03594" lon="-8.88157">
        <ele>24.217</ele>
        <time>2018-07-28T11:39:13Z</time>
      </trkpt>
      <trkpt lat="42.03609" lon="-8.88152">
        <ele>24.508</ele>
        <time>2018-07-28T11:39:14Z</time>
      </trkpt>
      <trkpt lat="42.03629" lon="-8.88146">
        <ele>25.07</ele>
        <time>2018-07-28T11:39:15Z</time>
      </trkpt>
      <trkpt lat="42.03647" lon="-8.88144">
        <ele>25.745</ele>
        <time>2018-07-28T11:39:16Z</time>
      </trkpt>
      <trkpt lat="42.03664" lon="-8.88143">
        <ele>26.258</ele>
        <time>2018-07-28T11:39:17Z</time>
      </trkpt>
      <trkpt lat="42.03682" lon="-8.88141">
        <ele>26.74</ele>
        <time>2018-07-28T11:39:18Z</time>
      </trkpt>
      <trkpt lat="42.03699" lon="-8.88139">
        <ele>26.755</ele>
        <time>2018-07-28T11:39:19Z</time>
      </trkpt>
      <trkpt lat="42.03714" lon="-8.88141">
        <ele>26.75</ele>
        <time>2018-07-28T11:39:20Z</time>
      </trkpt>
      <trkpt lat="42.03731" lon="-8.88137">
        <ele>26.518</ele>
        <time>2018-07-28T11:39:21Z</time>
      </trkpt>
      <trkpt lat="42.03745" lon="-8.88132">
        <ele>26.514</ele>
        <time>2018-07-28T11:39:22Z</time>
      </trkpt>
      <trkpt lat="42.03761" lon="-8.88129">
        <ele>26.551</ele>
        <time>2018-07-28T11:39:23Z</time>
      </trkpt>
      <trkpt lat="42.03778" lon="-8.88126">
        <ele>26.501</ele>
        <time>2018-07-28T11:39:24Z</time>
      </trkpt>
      <trkpt lat="42.03798" lon="-8.88122">
        <ele>26.711</ele>
        <time>2018-07-28T11:39:25Z</time>
      </trkpt>
      <trkpt lat="42.03815" lon="-8.88119">
        <ele>26.808</ele>
        <time>2018-07-28T11:39:26Z</time>
      </trkpt>
      <trkpt lat="42.0383" lon="-8.8812">
        <ele>26.867</ele>
        <time>2018-07-28T11:39:27Z</time>
      </trkpt>
      <trkpt lat="42.03847" lon="-8.88125">
        <ele>26.312</ele>
        <time>2018-07-28T11:39:28Z</time>
      </trkpt>
      <trkpt lat="42.03865" lon="-8.88129">
        <ele>26.365</ele>
        <time>2018-07-28T11:39:29Z</time>
      </trkpt>
      <trkpt lat="42.03883" lon="-8.88134">
        <ele>26.377</ele>
        <time>2018-07-28T11:39:30Z</time>
      </trkpt>
      <trkpt lat="42.03899" lon="-8.88143">
        <ele>26.352</ele>
        <time>2018-07-28T11:39:31Z</time>
      </trkpt>
      <trkpt lat="42.03919" lon="-8.88147">
        <ele>26.497</ele>
        <time>2018-07-28T11:39:32Z</time>
      </trkpt>
      <trkpt lat="42.0394" lon="-8.88148">
        <ele>26.445</ele>
        <time>2018-07-28T11:39:33Z</time>
      </trkpt>
      <trkpt lat="42.0396" lon="-8.88147">
        <ele>26.231</ele>
        <time>2018-07-28T11:39:34Z</time>
      </trkpt>
      <trkpt lat="42.03979" lon="-8.88142">
        <ele>25.853</ele>
        <time>2018-07-28T11:39:35Z</time>
      </trkpt>
      <trkpt lat="42.03996" lon="-8.88135">
        <ele>25.304</ele>
        <time>2018-07-28T11:39:36Z</time>
      </trkpt>
      <trkpt lat="42.04014" lon="-8.88128">
        <ele>24.614</ele>
        <time>2018-07-28T11:39:37Z</time>
      </trkpt>
      <trkpt lat="42.04031" lon="-8.88123">
        <ele>23.808</ele>
        <time>2018-07-28T11:39:38Z</time>
      </trkpt>
      <trkpt lat="42.0405" lon="-8.88121">
        <ele>22.887</ele>
        <time>2018-07-28T11:39:39Z</time>
      </trkpt>
      <trkpt lat="42.04068" lon="-8.88121">
        <ele>22.242</ele>
        <time>2018-07-28T11:39:40Z</time>
      </trkpt>
      <trkpt lat="42.04087" lon="-8.88125">
        <ele>21.625</ele>
        <time>2018-07-28T11:39:41Z</time>
      </trkpt>
      <trkpt lat="42.04106" lon="-8.88138">
        <ele>21.437</ele>
        <time>2018-07-28T11:39:42Z</time>
      </trkpt>
      <trkpt lat="42.04124" lon="-8.88149">
        <ele>21.592</ele>
        <time>2018-07-28T11:39:43Z</time>
      </trkpt>
      <trkpt lat="42.04142" lon="-8.88161">
        <ele>21.597</ele>
        <time>2018-07-28T11:39:44Z</time>
      </trkpt>
      <trkpt lat="42.0416" lon="-8.88171">
        <ele>21.915</ele>
        <time>2018-07-28T11:39:45Z</time>
      </trkpt>
      <trkpt lat="42.0418" lon="-8.8818">
        <ele>22.261</ele>
        <time>2018-07-28T11:39:46Z</time>
      </trkpt>
      <trkpt lat="42.04198" lon="-8.88189">
        <ele>22.513</ele>
        <time>2018-07-28T11:39:47Z</time>
      </trkpt>
      <trkpt lat="42.04216" lon="-8.88197">
        <ele>22.743</ele>
        <time>2018-07-28T11:39:48Z</time>
      </trkpt>
      <trkpt lat="42.04232" lon="-8.88208">
        <ele>23.207</ele>
        <time>2018-07-28T11:39:49Z</time>
      </trkpt>
      <trkpt lat="42.04246" lon="-8.88219">
        <ele>23.408</ele>
        <time>2018-07-28T11:39:50Z</time>
      </trkpt>
      <trkpt lat="42.04262" lon="-8.88229">
        <ele>23.973</ele>
        <time>2018-07-28T11:39:51Z</time>
      </trkpt>
      <trkpt lat="42.04278" lon="-8.88239">
        <ele>24.668</ele>
        <time>2018-07-28T11:39:52Z</time>
      </trkpt>
      <trkpt lat="42.04293" lon="-8.88248">
        <ele>25.491</ele>
        <time>2018-07-28T11:39:53Z</time>
      </trkpt>
      <trkpt lat="42.04309" lon="-8.88258">
        <ele>26.223</ele>
        <time>2018-07-28T11:39:54Z</time>
      </trkpt>
      <trkpt lat="42.04326" lon="-8.8827">
        <ele>27.288</ele>
        <time>2018-07-28T11:39:55Z</time>
      </trkpt>
      <trkpt lat="42.04342" lon="-8.8828">
        <ele>28.163</ele>
        <time>2018-07-28T11:39:56Z</time>
      </trkpt>
      <trkpt lat="42.0436" lon="-8.88289">
        <ele>29.141</ele>
        <time>2018-07-28T11:39:57Z</time>
      </trkpt>
      <trkpt lat="42.04376" lon="-8.88301">
        <ele>31.397</ele>
        <time>2018-07-28T11:39:58Z</time>
      </trkpt>
      <trkpt lat="42.04393" lon="-8.88309">
        <ele>32.281</ele>
        <time>2018-07-28T11:39:59Z</time>
      </trkpt>
      <trkpt lat="42.04412" lon="-8.88313">
        <ele>33.261</ele>
        <time>2018-07-28T11:40:00Z</time>
      </trkpt>
      <trkpt lat="42.04431" lon="-8.88318">
        <ele>33.817</ele>
        <time>2018-07-28T11:40:01Z</time>
      </trkpt>
      <trkpt lat="42.0445" lon="-8.88323">
        <ele>34.408</ele>
        <time>2018-07-28T11:40:02Z</time>
      </trkpt>
      <trkpt lat="42.0447" lon="-8.88326">
        <ele>35.01</ele>
        <time>2018-07-28T11:40:03Z</time>
      </trkpt>
      <trkpt lat="42.04489" lon="-8.88331">
        <ele>35.515</ele>
        <time>2018-07-28T11:40:04Z</time>
      </trkpt>
      <trkpt lat="42.04508" lon="-8.88335">
        <ele>35.828</ele>
        <time>2018-07-28T11:40:05Z</time>
      </trkpt>
      <trkpt lat="42.04529" lon="-8.88338">
        <ele>35.84</ele>
        <time>2018-07-28T11:40:06Z</time>
      </trkpt>
      <trkpt lat="42.04547" lon="-8.8834">
        <ele>35.795</ele>
        <time>2018-07-28T11:40:07Z</time>
      </trkpt>
      <trkpt lat="42.04565" lon="-8.88346">
        <ele>34.96</ele>
        <time>2018-07-28T11:40:08Z</time>
      </trkpt>
      <trkpt lat="42.04584" lon="-8.8835">
        <ele>34.298</ele>
        <time>2018-07-28T11:40:09Z</time>
      </trkpt>
      <trkpt lat="42.04605" lon="-8.88352">
        <ele>33.354</ele>
        <time>2018-07-28T11:40:10Z</time>
      </trkpt>
      <trkpt lat="42.04624" lon="-8.88355">
        <ele>31.546</ele>
        <time>2018-07-28T11:40:11Z</time>
      </trkpt>
      <trkpt lat="42.04646" lon="-8.88362">
        <ele>30.788</ele>
        <time>2018-07-28T11:40:12Z</time>
      </trkpt>
      <trkpt lat="42.04664" lon="-8.88368">
        <ele>29.716</ele>
        <time>2018-07-28T11:40:13Z</time>
      </trkpt>
      <trkpt lat="42.04683" lon="-8.8837">
        <ele>28.608</ele>
        <time>2018-07-28T11:40:14Z</time>
      </trkpt>
      <trkpt lat="42.04702" lon="-8.88374">
        <ele>27.376</ele>
        <time>2018-07-28T11:40:15Z</time>
      </trkpt>
      <trkpt lat="42.04721" lon="-8.88378">
        <ele>25.861</ele>
        <time>2018-07-28T11:40:16Z</time>
      </trkpt>
      <trkpt lat="42.04739" lon="-8.88383">
        <ele>24.334</ele>
        <time>2018-07-28T11:40:17Z</time>
      </trkpt>
      <trkpt lat="42.04757" lon="-8.88389">
        <ele>23.166</ele>
        <time>2018-07-28T11:40:18Z</time>
      </trkpt>
      <trkpt lat="42.04776" lon="-8.88391">
        <ele>22.291</ele>
        <time>2018-07-28T11:40:19Z</time>
      </trkpt>
      <trkpt lat="42.04793" lon="-8.88392">
        <ele>21.396</ele>
        <time>2018-07-28T11:40:20Z</time>
      </trkpt>
      <trkpt lat="42.0481" lon="-8.88395">
        <ele>20.674</ele>
        <time>2018-07-28T11:40:21Z</time>
      </trkpt>
      <trkpt lat="42.04827" lon="-8.88399">
        <ele>20.34</ele>
        <time>2018-07-28T11:40:22Z</time>
      </trkpt>
      <trkpt lat="42.04846" lon="-8.88402">
        <ele>20.294</ele>
        <time>2018-07-28T11:40:23Z</time>
      </trkpt>
      <trkpt lat="42.04867" lon="-8.88406">
        <ele>20.057</ele>
        <time>2018-07-28T11:40:24Z</time>
      </trkpt>
      <trkpt lat="42.04885" lon="-8.88409">
        <ele>20.022</ele>
        <time>2018-07-28T11:40:25Z</time>
      </trkpt>
      <trkpt lat="42.04905" lon="-8.88413">
        <ele>20.408</ele>
        <time>2018-07-28T11:40:26Z</time>
      </trkpt>
      <trkpt lat="42.04925" lon="-8.8842">
        <ele>20.791</ele>
        <time>2018-07-28T11:40:27Z</time>
      </trkpt>
      <trkpt lat="42.04946" lon="-8.88427">
        <ele>21.126</ele>
        <time>2018-07-28T11:40:28Z</time>
      </trkpt>
      <trkpt lat="42.04967" lon="-8.88431">
        <ele>21.439</ele>
        <time>2018-07-28T11:40:29Z</time>
      </trkpt>
      <trkpt lat="42.04987" lon="-8.88435">
        <ele>21.721</ele>
        <time>2018-07-28T11:40:30Z</time>
      </trkpt>
      <trkpt lat="42.05008" lon="-8.88439">
        <ele>22.016</ele>
        <time>2018-07-28T11:40:31Z</time>
      </trkpt>
      <trkpt lat="42.05029" lon="-8.88444">
        <ele>22.031</ele>
        <time>2018-07-28T11:40:32Z</time>
      </trkpt>
      <trkpt lat="42.0505" lon="-8.88448">
        <ele>22.089</ele>
        <time>2018-07-28T11:40:33Z</time>
      </trkpt>
      <trkpt lat="42.05071" lon="-8.88449">
        <ele>22.045</ele>
        <time>2018-07-28T11:40:34Z</time>
      </trkpt>
      <trkpt lat="42.05093" lon="-8.88451">
        <ele>21.986</ele>
        <time>2018-07-28T11:40:35Z</time>
      </trkpt>
      <trkpt lat="42.05113" lon="-8.88455">
        <ele>21.96</ele>
        <time>2018-07-28T11:40:36Z</time>
      </trkpt>
      <trkpt lat="42.05133" lon="-8.88459">
        <ele>21.926</ele>
        <time>2018-07-28T11:40:37Z</time>
      </trkpt>
      <trkpt lat="42.05155" lon="-8.88461">
        <ele>22.308</ele>
        <time>2018-07-28T11:40:38Z</time>
      </trkpt>
      <trkpt lat="42.05177" lon="-8.88466">
        <ele>22.33</ele>
        <time>2018-07-28T11:40:39Z</time>
      </trkpt>
      <trkpt lat="42.05199" lon="-8.88473">
        <ele>22.825</ele>
        <time>2018-07-28T11:40:40Z</time>
      </trkpt>
      <trkpt lat="42.0522" lon="-8.88478">
        <ele>23.428</ele>
        <time>2018-07-28T11:40:41Z</time>
      </trkpt>
      <trkpt lat="42.05242" lon="-8.88484">
        <ele>24.06</ele>
        <time>2018-07-28T11:40:42Z</time>
      </trkpt>
      <trkpt lat="42.05263" lon="-8.88489">
        <ele>25.225</ele>
        <time>2018-07-28T11:40:43Z</time>
      </trkpt>
      <trkpt lat="42.05283" lon="-8.88496">
        <ele>26.48</ele>
        <time>2018-07-28T11:40:44Z</time>
      </trkpt>
      <trkpt lat="42.05304" lon="-8.88505">
        <ele>28.128</ele>
        <time>2018-07-28T11:40:45Z</time>
      </trkpt>
      <trkpt lat="42.05324" lon="-8.88514">
        <ele>29.774</ele>
        <time>2018-07-28T11:40:46Z</time>
      </trkpt>
      <trkpt lat="42.05343" lon="-8.88524">
        <ele>31.312</ele>
        <time>2018-07-28T11:40:47Z</time>
      </trkpt>
      <trkpt lat="42.05363" lon="-8.88536">
        <ele>32.832</ele>
        <time>2018-07-28T11:40:48Z</time>
      </trkpt>
      <trkpt lat="42.05383" lon="-8.88551">
        <ele>34.105</ele>
        <time>2018-07-28T11:40:49Z</time>
      </trkpt>
      <trkpt lat="42.05404" lon="-8.88564">
        <ele>35.308</ele>
        <time>2018-07-28T11:40:50Z</time>
      </trkpt>
      <trkpt lat="42.05423" lon="-8.88578">
        <ele>36.723</ele>
        <time>2018-07-28T11:40:51Z</time>
      </trkpt>
      <trkpt lat="42.05444" lon="-8.88592">
        <ele>38.078</ele>
        <time>2018-07-28T11:40:52Z</time>
      </trkpt>
      <trkpt lat="42.05464" lon="-8.88606">
        <ele>38.941</ele>
        <time>2018-07-28T11:40:53Z</time>
      </trkpt>
      <trkpt lat="42.05484" lon="-8.8862">
        <ele>39.623</ele>
        <time>2018-07-28T11:40:54Z</time>
      </trkpt>
      <trkpt lat="42.05504" lon="-8.88634">
        <ele>39.828</ele>
        <time>2018-07-28T11:40:55Z</time>
      </trkpt>
      <trkpt lat="42.05525" lon="-8.88648">
        <ele>39.133</ele>
        <time>2018-07-28T11:40:56Z</time>
      </trkpt>
      <trkpt lat="42.05547" lon="-8.88664">
        <ele>38.121</ele>
        <time>2018-07-28T11:40:57Z</time>
      </trkpt>
      <trkpt lat="42.05567" lon="-8.88679">
        <ele>37.277</ele>
        <time>2018-07-28T11:40:58Z</time>
      </trkpt>
      <trkpt lat="42.05589" lon="-8.88695">
        <ele>36.262</ele>
        <time>2018-07-28T11:40:59Z</time>
      </trkpt>
      <trkpt lat="42.05611" lon="-8.88709">
        <ele>35.383</ele>
        <time>2018-07-28T11:41:00Z</time>
      </trkpt>
      <trkpt lat="42.05631" lon="-8.88724">
        <ele>34.411</ele>
        <time>2018-07-28T11:41:01Z</time>
      </trkpt>
      <trkpt lat="42.05649" lon="-8.8874">
        <ele>33.008</ele>
        <time>2018-07-28T11:41:02Z</time>
      </trkpt>
      <trkpt lat="42.05666" lon="-8.88757">
        <ele>31.558</ele>
        <time>2018-07-28T11:41:03Z</time>
      </trkpt>
      <trkpt lat="42.05677" lon="-8.88782">
        <ele>29.973</ele>
        <time>2018-07-28T11:41:04Z</time>
      </trkpt>
      <trkpt lat="42.05687" lon="-8.88807">
        <ele>28.526</ele>
        <time>2018-07-28T11:41:05Z</time>
      </trkpt>
      <trkpt lat="42.05699" lon="-8.88831">
        <ele>27.248</ele>
        <time>2018-07-28T11:41:06Z</time>
      </trkpt>
      <trkpt lat="42.05712" lon="-8.88852">
        <ele>26.323</ele>
        <time>2018-07-28T11:41:07Z</time>
      </trkpt>
      <trkpt lat="42.05727" lon="-8.8887">
        <ele>25.428</ele>
        <time>2018-07-28T11:41:08Z</time>
      </trkpt>
      <trkpt lat="42.05742" lon="-8.88889">
        <ele>23.996</ele>
        <time>2018-07-28T11:41:09Z</time>
      </trkpt>
      <trkpt lat="42.05758" lon="-8.8891">
        <ele>23.572</ele>
        <time>2018-07-28T11:41:10Z</time>
      </trkpt>
      <trkpt lat="42.05779" lon="-8.88913">
        <ele>23.571</ele>
        <time>2018-07-28T11:41:11Z</time>
      </trkpt>
      <trkpt lat="42.05799" lon="-8.8892">
        <ele>23.841</ele>
        <time>2018-07-28T11:41:12Z</time>
      </trkpt>
      <trkpt lat="42.05819" lon="-8.88926">
        <ele>24.315</ele>
        <time>2018-07-28T11:41:13Z</time>
      </trkpt>
      <trkpt lat="42.05839" lon="-8.88931">
        <ele>25.008</ele>
        <time>2018-07-28T11:41:14Z</time>
      </trkpt>
      <trkpt lat="42.05859" lon="-8.88939">
        <ele>25.519</ele>
        <time>2018-07-28T11:41:15Z</time>
      </trkpt>
      <trkpt lat="42.05877" lon="-8.88946">
        <ele>25.914</ele>
        <time>2018-07-28T11:41:16Z</time>
      </trkpt>
      <trkpt lat="42.05898" lon="-8.88953">
        <ele>25.937</ele>
        <time>2018-07-28T11:41:17Z</time>
      </trkpt>
      <trkpt lat="42.05915" lon="-8.88962">
        <ele>25.939</ele>
        <time>2018-07-28T11:41:18Z</time>
      </trkpt>
      <trkpt lat="42.05935" lon="-8.88967">
        <ele>25.964</ele>
        <time>2018-07-28T11:41:19Z</time>
      </trkpt>
      <trkpt lat="42.05955" lon="-8.88968">
        <ele>26.289</ele>
        <time>2018-07-28T11:41:20Z</time>
      </trkpt>
      <trkpt lat="42.05974" lon="-8.88961">
        <ele>26.887</ele>
        <time>2018-07-28T11:41:21Z</time>
      </trkpt>
      <trkpt lat="42.05992" lon="-8.88949">
        <ele>27.863</ele>
        <time>2018-07-28T11:41:22Z</time>
      </trkpt>
      <trkpt lat="42.0601" lon="-8.88942">
        <ele>28.157</ele>
        <time>2018-07-28T11:41:23Z</time>
      </trkpt>
      <trkpt lat="42.06028" lon="-8.88937">
        <ele>28.3</ele>
        <time>2018-07-28T11:41:24Z</time>
      </trkpt>
      <trkpt lat="42.06047" lon="-8.88933">
        <ele>28.42</ele>
        <time>2018-07-28T11:41:25Z</time>
      </trkpt>
      <trkpt lat="42.06066" lon="-8.88936">
        <ele>29.108</ele>
        <time>2018-07-28T11:41:26Z</time>
      </trkpt>
      <trkpt lat="42.06085" lon="-8.88941">
        <ele>29.637</ele>
        <time>2018-07-28T11:41:27Z</time>
      </trkpt>
      <trkpt lat="42.06106" lon="-8.8895">
        <ele>30.442</ele>
        <time>2018-07-28T11:41:28Z</time>
      </trkpt>
      <trkpt lat="42.06125" lon="-8.88963">
        <ele>31.165</ele>
        <time>2018-07-28T11:41:29Z</time>
      </trkpt>
      <trkpt lat="42.06144" lon="-8.88974">
        <ele>32.097</ele>
        <time>2018-07-28T11:41:30Z</time>
      </trkpt>
      <trkpt lat="42.06164" lon="-8.88984">
        <ele>32.432</ele>
        <time>2018-07-28T11:41:31Z</time>
      </trkpt>
      <trkpt lat="42.06185" lon="-8.88992">
        <ele>32.817</ele>
        <time>2018-07-28T11:41:32Z</time>
      </trkpt>
      <trkpt lat="42.06204" lon="-8.89001">
        <ele>32.835</ele>
        <time>2018-07-28T11:41:33Z</time>
      </trkpt>
      <trkpt lat="42.06224" lon="-8.89011">
        <ele>32.881</ele>
        <time>2018-07-28T11:41:34Z</time>
      </trkpt>
      <trkpt lat="42.06242" lon="-8.8902">
        <ele>32.879</ele>
        <time>2018-07-28T11:41:35Z</time>
      </trkpt>
      <trkpt lat="42.06263" lon="-8.89026">
        <ele>32.405</ele>
        <time>2018-07-28T11:41:36Z</time>
      </trkpt>
      <trkpt lat="42.0628" lon="-8.89036">
        <ele>32.225</ele>
        <time>2018-07-28T11:41:37Z</time>
      </trkpt>
      <trkpt lat="42.06298" lon="-8.89047">
        <ele>32.108</ele>
        <time>2018-07-28T11:41:38Z</time>
      </trkpt>
      <trkpt lat="42.06313" lon="-8.8906">
        <ele>32.119</ele>
        <time>2018-07-28T11:41:39Z</time>
      </trkpt>
      <trkpt lat="42.06331" lon="-8.89073">
        <ele>32.614</ele>
        <time>2018-07-28T11:41:40Z</time>
      </trkpt>
      <trkpt lat="42.06349" lon="-8.89089">
        <ele>32.937</ele>
        <time>2018-07-28T11:41:41Z</time>
      </trkpt>
      <trkpt lat="42.06368" lon="-8.89104">
        <ele>33.629</ele>
        <time>2018-07-28T11:41:42Z</time>
      </trkpt>
      <trkpt lat="42.06383" lon="-8.89122">
        <ele>34.214</ele>
        <time>2018-07-28T11:41:43Z</time>
      </trkpt>
      <trkpt lat="42.06402" lon="-8.89133">
        <ele>34.779</ele>
        <time>2018-07-28T11:41:44Z</time>
      </trkpt>
      <trkpt lat="42.06418" lon="-8.89147">
        <ele>35.057</ele>
        <time>2018-07-28T11:41:45Z</time>
      </trkpt>
      <trkpt lat="42.06437" lon="-8.8916">
        <ele>35.043</ele>
        <time>2018-07-28T11:41:46Z</time>
      </trkpt>
      <trkpt lat="42.06455" lon="-8.89175">
        <ele>35.053</ele>
        <time>2018-07-28T11:41:47Z</time>
      </trkpt>
      <trkpt lat="42.06472" lon="-8.89188">
        <ele>35.004</ele>
        <time>2018-07-28T11:41:48Z</time>
      </trkpt>
      <trkpt lat="42.0649" lon="-8.89197">
        <ele>34.914</ele>
        <time>2018-07-28T11:41:49Z</time>
      </trkpt>
      <trkpt lat="42.06509" lon="-8.89204">
        <ele>35.008</ele>
        <time>2018-07-28T11:41:50Z</time>
      </trkpt>
      <trkpt lat="42.06529" lon="-8.8921">
        <ele>35.117</ele>
        <time>2018-07-28T11:41:51Z</time>
      </trkpt>
      <trkpt lat="42.06549" lon="-8.89216">
        <ele>35.172</ele>
        <time>2018-07-28T11:41:52Z</time>
      </trkpt>
      <trkpt lat="42.06568" lon="-8.89223">
        <ele>34.935</ele>
        <time>2018-07-28T11:41:53Z</time>
      </trkpt>
      <trkpt lat="42.06586" lon="-8.89228">
        <ele>34.777</ele>
        <time>2018-07-28T11:41:54Z</time>
      </trkpt>
      <trkpt lat="42.06606" lon="-8.89236">
        <ele>34.522</ele>
        <time>2018-07-28T11:41:55Z</time>
      </trkpt>
      <trkpt lat="42.06626" lon="-8.89243">
        <ele>34.217</ele>
        <time>2018-07-28T11:41:56Z</time>
      </trkpt>
      <trkpt lat="42.06645" lon="-8.8925">
        <ele>34.285</ele>
        <time>2018-07-28T11:41:57Z</time>
      </trkpt>
      <trkpt lat="42.06663" lon="-8.89258">
        <ele>34.261</ele>
        <time>2018-07-28T11:41:58Z</time>
      </trkpt>
      <trkpt lat="42.0668" lon="-8.89267">
        <ele>34.279</ele>
        <time>2018-07-28T11:41:59Z</time>
      </trkpt>
      <trkpt lat="42.06699" lon="-8.89274">
        <ele>34.305</ele>
        <time>2018-07-28T11:42:00Z</time>
      </trkpt>
      <trkpt lat="42.06718" lon="-8.89282">
        <ele>34.225</ele>
        <time>2018-07-28T11:42:01Z</time>
      </trkpt>
      <trkpt lat="42.06737" lon="-8.8929">
        <ele>34.208</ele>
        <time>2018-07-28T11:42:02Z</time>
      </trkpt>
      <trkpt lat="42.06755" lon="-8.89297">
        <ele>34.239</ele>
        <time>2018-07-28T11:42:03Z</time>
      </trkpt>
      <trkpt lat="42.06772" lon="-8.89307">
        <ele>34.484</ele>
        <time>2018-07-28T11:42:04Z</time>
      </trkpt>
      <trkpt lat="42.0679" lon="-8.89313">
        <ele>34.737</ele>
        <time>2018-07-28T11:42:05Z</time>
      </trkpt>
      <trkpt lat="42.06807" lon="-8.89316">
        <ele>35.179</ele>
        <time>2018-07-28T11:42:06Z</time>
      </trkpt>
      <trkpt lat="42.06827" lon="-8.89313">
        <ele>35.144</ele>
        <time>2018-07-28T11:42:07Z</time>
      </trkpt>
      <trkpt lat="42.06846" lon="-8.89306">
        <ele>35.159</ele>
        <time>2018-07-28T11:42:08Z</time>
      </trkpt>
      <trkpt lat="42.06865" lon="-8.893">
        <ele>35.147</ele>
        <time>2018-07-28T11:42:09Z</time>
      </trkpt>
      <trkpt lat="42.06884" lon="-8.89296">
        <ele>35.143</ele>
        <time>2018-07-28T11:42:10Z</time>
      </trkpt>
      <trkpt lat="42.06904" lon="-8.89292">
        <ele>35.445</ele>
        <time>2018-07-28T11:42:11Z</time>
      </trkpt>
      <trkpt lat="42.06924" lon="-8.89289">
        <ele>35.847</ele>
        <time>2018-07-28T11:42:12Z</time>
      </trkpt>
      <trkpt lat="42.06944" lon="-8.89285">
        <ele>36.111</ele>
        <time>2018-07-28T11:42:13Z</time>
      </trkpt>
      <trkpt lat="42.06964" lon="-8.89279">
        <ele>36.608</ele>
        <time>2018-07-28T11:42:14Z</time>
      </trkpt>
      <trkpt lat="42.06984" lon="-8.89275">
        <ele>37.226</ele>
        <time>2018-07-28T11:42:15Z</time>
      </trkpt>
      <trkpt lat="42.07005" lon="-8.8927">
        <ele>37.911</ele>
        <time>2018-07-28T11:42:16Z</time>
      </trkpt>
      <trkpt lat="42.07025" lon="-8.89269">
        <ele>38.824</ele>
        <time>2018-07-28T11:42:17Z</time>
      </trkpt>
      <trkpt lat="42.07047" lon="-8.89266">
        <ele>40.056</ele>
        <time>2018-07-28T11:42:18Z</time>
      </trkpt>
      <trkpt lat="42.0707" lon="-8.89263">
        <ele>41.011</ele>
        <time>2018-07-28T11:42:19Z</time>
      </trkpt>
      <trkpt lat="42.07093" lon="-8.89257">
        <ele>41.886</ele>
        <time>2018-07-28T11:42:20Z</time>
      </trkpt>
      <trkpt lat="42.07116" lon="-8.89252">
        <ele>42.634</ele>
        <time>2018-07-28T11:42:21Z</time>
      </trkpt>
      <trkpt lat="42.07138" lon="-8.89245">
        <ele>43.03</ele>
        <time>2018-07-28T11:42:22Z</time>
      </trkpt>
      <trkpt lat="42.07161" lon="-8.89239">
        <ele>43.268</ele>
        <time>2018-07-28T11:42:23Z</time>
      </trkpt>
      <trkpt lat="42.07186" lon="-8.89235">
        <ele>43.542</ele>
        <time>2018-07-28T11:42:24Z</time>
      </trkpt>
      <trkpt lat="42.07207" lon="-8.89234">
        <ele>44.026</ele>
        <time>2018-07-28T11:42:25Z</time>
      </trkpt>
      <trkpt lat="42.0723" lon="-8.89237">
        <ele>44.208</ele>
        <time>2018-07-28T11:42:26Z</time>
      </trkpt>
      <trkpt lat="42.07253" lon="-8.89239">
        <ele>44.268</ele>
        <time>2018-07-28T11:42:27Z</time>
      </trkpt>
      <trkpt lat="42.07276" lon="-8.89242">
        <ele>44.283</ele>
        <time>2018-07-28T11:42:28Z</time>
      </trkpt>
      <trkpt lat="42.07296" lon="-8.89247">
        <ele>43.826</ele>
        <time>2018-07-28T11:42:29Z</time>
      </trkpt>
      <trkpt lat="42.07316" lon="-8.89248">
        <ele>43.448</ele>
        <time>2018-07-28T11:42:30Z</time>
      </trkpt>
      <trkpt lat="42.07337" lon="-8.8925">
        <ele>42.713</ele>
        <time>2018-07-28T11:42:31Z</time>
      </trkpt>
      <trkpt lat="42.07357" lon="-8.89253">
        <ele>42.498</ele>
        <time>2018-07-28T11:42:32Z</time>
      </trkpt>
      <trkpt lat="42.07378" lon="-8.89253">
        <ele>41.936</ele>
        <time>2018-07-28T11:42:33Z</time>
      </trkpt>
      <trkpt lat="42.074" lon="-8.89254">
        <ele>41.862</ele>
        <time>2018-07-28T11:42:34Z</time>
      </trkpt>
      <trkpt lat="42.0742" lon="-8.89255">
        <ele>41.986</ele>
        <time>2018-07-28T11:42:35Z</time>
      </trkpt>
      <trkpt lat="42.0744" lon="-8.89254">
        <ele>42.06</ele>
        <time>2018-07-28T11:42:36Z</time>
      </trkpt>
      <trkpt lat="42.07462" lon="-8.89254">
        <ele>42.626</ele>
        <time>2018-07-28T11:42:37Z</time>
      </trkpt>
      <trkpt lat="42.07485" lon="-8.89253">
        <ele>43.108</ele>
        <time>2018-07-28T11:42:38Z</time>
      </trkpt>
      <trkpt lat="42.07508" lon="-8.89255">
        <ele>43.94</ele>
        <time>2018-07-28T11:42:39Z</time>
      </trkpt>
      <trkpt lat="42.07531" lon="-8.89259">
        <ele>44.795</ele>
        <time>2018-07-28T11:42:40Z</time>
      </trkpt>
      <trkpt lat="42.07553" lon="-8.89262">
        <ele>45.478</ele>
        <time>2018-07-28T11:42:41Z</time>
      </trkpt>
      <trkpt lat="42.07576" lon="-8.89269">
        <ele>46.14</ele>
        <time>2018-07-28T11:42:42Z</time>
      </trkpt>
      <trkpt lat="42.07595" lon="-8.89278">
        <ele>46.585</ele>
        <time>2018-07-28T11:42:43Z</time>
      </trkpt>
      <trkpt lat="42.07617" lon="-8.89287">
        <ele>47.04</ele>
        <time>2018-07-28T11:42:44Z</time>
      </trkpt>
      <trkpt lat="42.07638" lon="-8.89296">
        <ele>47.788</ele>
        <time>2018-07-28T11:42:45Z</time>
      </trkpt>
      <trkpt lat="42.07659" lon="-8.89306">
        <ele>48.384</ele>
        <time>2018-07-28T11:42:46Z</time>
      </trkpt>
      <trkpt lat="42.07681" lon="-8.89313">
        <ele>48.867</ele>
        <time>2018-07-28T11:42:47Z</time>
      </trkpt>
      <trkpt lat="42.07702" lon="-8.89321">
        <ele>49.381</ele>
        <time>2018-07-28T11:42:48Z</time>
      </trkpt>
      <trkpt lat="42.07721" lon="-8.89333">
        <ele>49.619</ele>
        <time>2018-07-28T11:42:49Z</time>
      </trkpt>
      <trkpt lat="42.0774" lon="-8.89346">
        <ele>49.608</ele>
        <time>2018-07-28T11:42:50Z</time>
      </trkpt>
      <trkpt lat="42.07758" lon="-8.89358">
        <ele>49.658</ele>
        <time>2018-07-28T11:42:51Z</time>
      </trkpt>
      <trkpt lat="42.07778" lon="-8.89366">
        <ele>49.973</ele>
        <time>2018-07-28T11:42:52Z</time>
      </trkpt>
      <trkpt lat="42.07801" lon="-8.89366">
        <ele>50.026</ele>
        <time>2018-07-28T11:42:53Z</time>
      </trkpt>
      <trkpt lat="42.07821" lon="-8.89364">
        <ele>50.068</ele>
        <time>2018-07-28T11:42:54Z</time>
      </trkpt>
      <trkpt lat="42.0784" lon="-8.89356">
        <ele>50.023</ele>
        <time>2018-07-28T11:42:55Z</time>
      </trkpt>
      <trkpt lat="42.07859" lon="-8.89345">
        <ele>49.918</ele>
        <time>2018-07-28T11:42:56Z</time>
      </trkpt>
      <trkpt lat="42.07877" lon="-8.89331">
        <ele>49.696</ele>
        <time>2018-07-28T11:42:57Z</time>
      </trkpt>
      <trkpt lat="42.07893" lon="-8.89315">
        <ele>49.472</ele>
        <time>2018-07-28T11:42:58Z</time>
      </trkpt>
      <trkpt lat="42.07909" lon="-8.89296">
        <ele>49.152</ele>
        <time>2018-07-28T11:42:59Z</time>
      </trkpt>
      <trkpt lat="42.07925" lon="-8.89281">
        <ele>48.553</ele>
        <time>2018-07-28T11:43:00Z</time>
      </trkpt>
      <trkpt lat="42.0794" lon="-8.89264">
        <ele>47.908</ele>
        <time>2018-07-28T11:43:01Z</time>
      </trkpt>
      <trkpt lat="42.07956" lon="-8.89247">
        <ele>46.608</ele>
        <time>2018-07-28T11:43:02Z</time>
      </trkpt>
      <trkpt lat="42.07971" lon="-8.89232">
        <ele>44.147</ele>
        <time>2018-07-28T11:43:03Z</time>
      </trkpt>
      <trkpt lat="42.07985" lon="-8.89214">
        <ele>43.212</ele>
        <time>2018-07-28T11:43:04Z</time>
      </trkpt>
      <trkpt lat="42.07999" lon="-8.89194">
        <ele>42.245</ele>
        <time>2018-07-28T11:43:05Z</time>
      </trkpt>
      <trkpt lat="42.08013" lon="-8.89174">
        <ele>41.787</ele>
        <time>2018-07-28T11:43:06Z</time>
      </trkpt>
      <trkpt lat="42.08025" lon="-8.89153">
        <ele>41.042</ele>
        <time>2018-07-28T11:43:07Z</time>
      </trkpt>
      <trkpt lat="42.08036" lon="-8.89129">
        <ele>40.777</ele>
        <time>2018-07-28T11:43:08Z</time>
      </trkpt>
      <trkpt lat="42.0805" lon="-8.8911">
        <ele>40.725</ele>
        <time>2018-07-28T11:43:09Z</time>
      </trkpt>
      <trkpt lat="42.08066" lon="-8.89091">
        <ele>40.771</ele>
        <time>2018-07-28T11:43:10Z</time>
      </trkpt>
      <trkpt lat="42.08083" lon="-8.89074">
        <ele>40.777</ele>
        <time>2018-07-28T11:43:11Z</time>
      </trkpt>
      <trkpt lat="42.08101" lon="-8.89063">
        <ele>41.161</ele>
        <time>2018-07-28T11:43:12Z</time>
      </trkpt>
      <trkpt lat="42.08119" lon="-8.89049">
        <ele>41.627</ele>
        <time>2018-07-28T11:43:13Z</time>
      </trkpt>
      <trkpt lat="42.08136" lon="-8.89037">
        <ele>42.008</ele>
        <time>2018-07-28T11:43:14Z</time>
      </trkpt>
      <trkpt lat="42.08153" lon="-8.89024">
        <ele>42.829</ele>
        <time>2018-07-28T11:43:15Z</time>
      </trkpt>
      <trkpt lat="42.0817" lon="-8.89013">
        <ele>43.764</ele>
        <time>2018-07-28T11:43:16Z</time>
      </trkpt>
      <trkpt lat="42.08187" lon="-8.89002">
        <ele>44.767</ele>
        <time>2018-07-28T11:43:17Z</time>
      </trkpt>
      <trkpt lat="42.08206" lon="-8.88996">
        <ele>46.519</ele>
        <time>2018-07-28T11:43:18Z</time>
      </trkpt>
      <trkpt lat="42.08224" lon="-8.88989">
        <ele>47.364</ele>
        <time>2018-07-28T11:43:19Z</time>
      </trkpt>
      <trkpt lat="42.08243" lon="-8.88988">
        <ele>47.989</ele>
        <time>2018-07-28T11:43:20Z</time>
      </trkpt>
      <trkpt lat="42.08263" lon="-8.8899">
        <ele>48.777</ele>
        <time>2018-07-28T11:43:21Z</time>
      </trkpt>
      <trkpt lat="42.08284" lon="-8.88993">
        <ele>49.563</ele>
        <time>2018-07-28T11:43:22Z</time>
      </trkpt>
      <trkpt lat="42.08305" lon="-8.89">
        <ele>50.357</ele>
        <time>2018-07-28T11:43:23Z</time>
      </trkpt>
      <trkpt lat="42.08326" lon="-8.89007">
        <ele>51</ele>
        <time>2018-07-28T11:43:24Z</time>
      </trkpt>
      <trkpt lat="42.08348" lon="-8.89014">
        <ele>51.72</ele>
        <time>2018-07-28T11:43:25Z</time>
      </trkpt>
      <trkpt lat="42.0837" lon="-8.89019">
        <ele>52.408</ele>
        <time>2018-07-28T11:43:26Z</time>
      </trkpt>
      <trkpt lat="42.08391" lon="-8.89025">
        <ele>52.847</ele>
        <time>2018-07-28T11:43:27Z</time>
      </trkpt>
      <trkpt lat="42.08413" lon="-8.89032">
        <ele>53.432</ele>
        <time>2018-07-28T11:43:28Z</time>
      </trkpt>
      <trkpt lat="42.08434" lon="-8.89041">
        <ele>53.765</ele>
        <time>2018-07-28T11:43:29Z</time>
      </trkpt>
      <trkpt lat="42.08455" lon="-8.89051">
        <ele>54.337</ele>
        <time>2018-07-28T11:43:30Z</time>
      </trkpt>
      <trkpt lat="42.08476" lon="-8.89059">
        <ele>54.682</ele>
        <time>2018-07-28T11:43:31Z</time>
      </trkpt>
      <trkpt lat="42.08498" lon="-8.89067">
        <ele>54.457</ele>
        <time>2018-07-28T11:43:32Z</time>
      </trkpt>
      <trkpt lat="42.08521" lon="-8.89075">
        <ele>54.285</ele>
        <time>2018-07-28T11:43:33Z</time>
      </trkpt>
      <trkpt lat="42.08543" lon="-8.89083">
        <ele>53.811</ele>
        <time>2018-07-28T11:43:34Z</time>
      </trkpt>
      <trkpt lat="42.08564" lon="-8.89089">
        <ele>53.224</ele>
        <time>2018-07-28T11:43:35Z</time>
      </trkpt>
      <trkpt lat="42.08583" lon="-8.89096">
        <ele>52.504</ele>
        <time>2018-07-28T11:43:36Z</time>
      </trkpt>
      <trkpt lat="42.08604" lon="-8.89102">
        <ele>51.714</ele>
        <time>2018-07-28T11:43:37Z</time>
      </trkpt>
      <trkpt lat="42.08623" lon="-8.89107">
        <ele>50.508</ele>
        <time>2018-07-28T11:43:38Z</time>
      </trkpt>
      <trkpt lat="42.08642" lon="-8.89111">
        <ele>49.284</ele>
        <time>2018-07-28T11:43:39Z</time>
      </trkpt>
      <trkpt lat="42.08658" lon="-8.89118">
        <ele>47.959</ele>
        <time>2018-07-28T11:43:40Z</time>
      </trkpt>
      <trkpt lat="42.08677" lon="-8.89116">
        <ele>46.612</ele>
        <time>2018-07-28T11:43:41Z</time>
      </trkpt>
      <trkpt lat="42.08693" lon="-8.8911">
        <ele>45.434</ele>
        <time>2018-07-28T11:43:42Z</time>
      </trkpt>
      <trkpt lat="42.08711" lon="-8.89109">
        <ele>44.429</ele>
        <time>2018-07-28T11:43:43Z</time>
      </trkpt>
      <trkpt lat="42.08729" lon="-8.89107">
        <ele>43.684</ele>
        <time>2018-07-28T11:43:44Z</time>
      </trkpt>
      <trkpt lat="42.08749" lon="-8.89112">
        <ele>43.082</ele>
        <time>2018-07-28T11:43:45Z</time>
      </trkpt>
      <trkpt lat="42.08768" lon="-8.8912">
        <ele>43.078</ele>
        <time>2018-07-28T11:43:46Z</time>
      </trkpt>
      <trkpt lat="42.08789" lon="-8.89128">
        <ele>43.243</ele>
        <time>2018-07-28T11:43:47Z</time>
      </trkpt>
      <trkpt lat="42.08809" lon="-8.89139">
        <ele>43.564</ele>
        <time>2018-07-28T11:43:48Z</time>
      </trkpt>
      <trkpt lat="42.08829" lon="-8.89152">
        <ele>43.61</ele>
        <time>2018-07-28T11:43:49Z</time>
      </trkpt>
      <trkpt lat="42.08849" lon="-8.89166">
        <ele>43.608</ele>
        <time>2018-07-28T11:43:50Z</time>
      </trkpt>
      <trkpt lat="42.0887" lon="-8.89179">
        <ele>43.676</ele>
        <time>2018-07-28T11:43:51Z</time>
      </trkpt>
      <trkpt lat="42.08889" lon="-8.89192">
        <ele>43.621</ele>
        <time>2018-07-28T11:43:52Z</time>
      </trkpt>
      <trkpt lat="42.08911" lon="-8.89204">
        <ele>43.654</ele>
        <time>2018-07-28T11:43:53Z</time>
      </trkpt>
      <trkpt lat="42.08932" lon="-8.89218">
        <ele>43.376</ele>
        <time>2018-07-28T11:43:54Z</time>
      </trkpt>
      <trkpt lat="42.08952" lon="-8.89228">
        <ele>43.171</ele>
        <time>2018-07-28T11:43:55Z</time>
      </trkpt>
      <trkpt lat="42.08973" lon="-8.89239">
        <ele>42.776</ele>
        <time>2018-07-28T11:43:56Z</time>
      </trkpt>
      <trkpt lat="42.08993" lon="-8.89251">
        <ele>42.124</ele>
        <time>2018-07-28T11:43:57Z</time>
      </trkpt>
      <trkpt lat="42.09015" lon="-8.89262">
        <ele>41.53</ele>
        <time>2018-07-28T11:43:58Z</time>
      </trkpt>
      <trkpt lat="42.09036" lon="-8.89271">
        <ele>41.187</ele>
        <time>2018-07-28T11:43:59Z</time>
      </trkpt>
      <trkpt lat="42.09057" lon="-8.89277">
        <ele>39.942</ele>
        <time>2018-07-28T11:44:00Z</time>
      </trkpt>
      <trkpt lat="42.09078" lon="-8.89284">
        <ele>39.326</ele>
        <time>2018-07-28T11:44:01Z</time>
      </trkpt>
      <trkpt lat="42.091" lon="-8.89293">
        <ele>39.008</ele>
        <time>2018-07-28T11:44:02Z</time>
      </trkpt>
      <trkpt lat="42.09122" lon="-8.89301">
        <ele>38.59</ele>
        <time>2018-07-28T11:44:03Z</time>
      </trkpt>
      <trkpt lat="42.09139" lon="-8.89313">
        <ele>37.835</ele>
        <time>2018-07-28T11:44:04Z</time>
      </trkpt>
      <trkpt lat="42.09161" lon="-8.89322">
        <ele>37.468</ele>
        <time>2018-07-28T11:44:05Z</time>
      </trkpt>
      <trkpt lat="42.09183" lon="-8.89328">
        <ele>37.18</ele>
        <time>2018-07-28T11:44:06Z</time>
      </trkpt>
      <trkpt lat="42.09205" lon="-8.89336">
        <ele>36.545</ele>
        <time>2018-07-28T11:44:07Z</time>
      </trkpt>
      <trkpt lat="42.09226" lon="-8.89342">
        <ele>36.02</ele>
        <time>2018-07-28T11:44:08Z</time>
      </trkpt>
      <trkpt lat="42.09248" lon="-8.89347">
        <ele>35.698</ele>
        <time>2018-07-28T11:44:09Z</time>
      </trkpt>
      <trkpt lat="42.09271" lon="-8.8935">
        <ele>35.134</ele>
        <time>2018-07-28T11:44:10Z</time>
      </trkpt>
      <trkpt lat="42.09296" lon="-8.89351">
        <ele>34.742</ele>
        <time>2018-07-28T11:44:11Z</time>
      </trkpt>
      <trkpt lat="42.0932" lon="-8.89349">
        <ele>34.322</ele>
        <time>2018-07-28T11:44:12Z</time>
      </trkpt>
      <trkpt lat="42.09343" lon="-8.89348">
        <ele>34.214</ele>
        <time>2018-07-28T11:44:13Z</time>
      </trkpt>
      <trkpt lat="42.09367" lon="-8.89347">
        <ele>34.208</ele>
        <time>2018-07-28T11:44:14Z</time>
      </trkpt>
      <trkpt lat="42.0939" lon="-8.89353">
        <ele>33.596</ele>
        <time>2018-07-28T11:44:15Z</time>
      </trkpt>
      <trkpt lat="42.09411" lon="-8.89351">
        <ele>32.941</ele>
        <time>2018-07-28T11:44:16Z</time>
      </trkpt>
      <trkpt lat="42.09431" lon="-8.8935">
        <ele>31.874</ele>
        <time>2018-07-28T11:44:17Z</time>
      </trkpt>
      <trkpt lat="42.09449" lon="-8.8935">
        <ele>30.436</ele>
        <time>2018-07-28T11:44:18Z</time>
      </trkpt>
      <trkpt lat="42.09469" lon="-8.89352">
        <ele>29.381</ele>
        <time>2018-07-28T11:44:19Z</time>
      </trkpt>
      <trkpt lat="42.0949" lon="-8.89356">
        <ele>28.546</ele>
        <time>2018-07-28T11:44:20Z</time>
      </trkpt>
      <trkpt lat="42.09511" lon="-8.89356">
        <ele>28.044</ele>
        <time>2018-07-28T11:44:21Z</time>
      </trkpt>
      <trkpt lat="42.09531" lon="-8.89357">
        <ele>27.84</ele>
        <time>2018-07-28T11:44:22Z</time>
      </trkpt>
      <trkpt lat="42.09552" lon="-8.89357">
        <ele>27.736</ele>
        <time>2018-07-28T11:44:23Z</time>
      </trkpt>
      <trkpt lat="42.0957" lon="-8.8936">
        <ele>27.717</ele>
        <time>2018-07-28T11:44:24Z</time>
      </trkpt>
      <trkpt lat="42.09588" lon="-8.8936">
        <ele>27.618</ele>
        <time>2018-07-28T11:44:25Z</time>
      </trkpt>
      <trkpt lat="42.09607" lon="-8.89358">
        <ele>27.608</ele>
        <time>2018-07-28T11:44:26Z</time>
      </trkpt>
      <trkpt lat="42.09626" lon="-8.89358">
        <ele>27.755</ele>
        <time>2018-07-28T11:44:27Z</time>
      </trkpt>
      <trkpt lat="42.09644" lon="-8.89359">
        <ele>27.91</ele>
        <time>2018-07-28T11:44:28Z</time>
      </trkpt>
      <trkpt lat="42.09664" lon="-8.8936">
        <ele>28.733</ele>
        <time>2018-07-28T11:44:29Z</time>
      </trkpt>
      <trkpt lat="42.09684" lon="-8.89363">
        <ele>29.035</ele>
        <time>2018-07-28T11:44:30Z</time>
      </trkpt>
      <trkpt lat="42.09705" lon="-8.89366">
        <ele>29.11</ele>
        <time>2018-07-28T11:44:31Z</time>
      </trkpt>
      <trkpt lat="42.09727" lon="-8.89367">
        <ele>29.115</ele>
        <time>2018-07-28T11:44:32Z</time>
      </trkpt>
      <trkpt lat="42.0975" lon="-8.89367">
        <ele>29.033</ele>
        <time>2018-07-28T11:44:33Z</time>
      </trkpt>
      <trkpt lat="42.09772" lon="-8.89367">
        <ele>28.829</ele>
        <time>2018-07-28T11:44:34Z</time>
      </trkpt>
      <trkpt lat="42.09796" lon="-8.89368">
        <ele>28.526</ele>
        <time>2018-07-28T11:44:35Z</time>
      </trkpt>
      <trkpt lat="42.09818" lon="-8.89372">
        <ele>28.547</ele>
        <time>2018-07-28T11:44:36Z</time>
      </trkpt>
      <trkpt lat="42.09839" lon="-8.89376">
        <ele>28.411</ele>
        <time>2018-07-28T11:44:37Z</time>
      </trkpt>
      <trkpt lat="42.09862" lon="-8.89379">
        <ele>28.308</ele>
        <time>2018-07-28T11:44:38Z</time>
      </trkpt>
      <trkpt lat="42.09885" lon="-8.89383">
        <ele>28.044</ele>
        <time>2018-07-28T11:44:39Z</time>
      </trkpt>
      <trkpt lat="42.09906" lon="-8.89396">
        <ele>27.459</ele>
        <time>2018-07-28T11:44:40Z</time>
      </trkpt>
      <trkpt lat="42.09927" lon="-8.89403">
        <ele>26.792</ele>
        <time>2018-07-28T11:44:41Z</time>
      </trkpt>
      <trkpt lat="42.09949" lon="-8.89406">
        <ele>26.094</ele>
        <time>2018-07-28T11:44:42Z</time>
      </trkpt>
      <trkpt lat="42.09971" lon="-8.89408">
        <ele>24.849</ele>
        <time>2018-07-28T11:44:43Z</time>
      </trkpt>
      <trkpt lat="42.09993" lon="-8.89407">
        <ele>24.464</ele>
        <time>2018-07-28T11:44:44Z</time>
      </trkpt>
      <trkpt lat="42.10013" lon="-8.89405">
        <ele>24.082</ele>
        <time>2018-07-28T11:44:45Z</time>
      </trkpt>
      <trkpt lat="42.10033" lon="-8.8941">
        <ele>23.538</ele>
        <time>2018-07-28T11:44:46Z</time>
      </trkpt>
      <trkpt lat="42.10053" lon="-8.89418">
        <ele>23.376</ele>
        <time>2018-07-28T11:44:47Z</time>
      </trkpt>
      <trkpt lat="42.10069" lon="-8.89434">
        <ele>22.89</ele>
        <time>2018-07-28T11:44:48Z</time>
      </trkpt>
      <trkpt lat="42.10084" lon="-8.89453">
        <ele>22.519</ele>
        <time>2018-07-28T11:44:49Z</time>
      </trkpt>
      <trkpt lat="42.10095" lon="-8.89474">
        <ele>22.208</ele>
        <time>2018-07-28T11:44:50Z</time>
      </trkpt>
      <trkpt lat="42.10106" lon="-8.89497">
        <ele>22.019</ele>
        <time>2018-07-28T11:44:51Z</time>
      </trkpt>
      <trkpt lat="42.10114" lon="-8.89521">
        <ele>22.024</ele>
        <time>2018-07-28T11:44:52Z</time>
      </trkpt>
      <trkpt lat="42.10123" lon="-8.89545">
        <ele>22.077</ele>
        <time>2018-07-28T11:44:53Z</time>
      </trkpt>
      <trkpt lat="42.10133" lon="-8.89569">
        <ele>22.099</ele>
        <time>2018-07-28T11:44:54Z</time>
      </trkpt>
      <trkpt lat="42.10144" lon="-8.89591">
        <ele>21.934</ele>
        <time>2018-07-28T11:44:55Z</time>
      </trkpt>
      <trkpt lat="42.10157" lon="-8.89612">
        <ele>21.689</ele>
        <time>2018-07-28T11:44:56Z</time>
      </trkpt>
      <trkpt lat="42.10171" lon="-8.89628">
        <ele>20.357</ele>
        <time>2018-07-28T11:44:57Z</time>
      </trkpt>
      <trkpt lat="42.10187" lon="-8.89642">
        <ele>19.953</ele>
        <time>2018-07-28T11:44:58Z</time>
      </trkpt>
      <trkpt lat="42.10203" lon="-8.89659">
        <ele>19.948</ele>
        <time>2018-07-28T11:44:59Z</time>
      </trkpt>
      <trkpt lat="42.10219" lon="-8.89674">
        <ele>20.061</ele>
        <time>2018-07-28T11:45:00Z</time>
      </trkpt>
      <trkpt lat="42.10234" lon="-8.89687">
        <ele>20.317</ele>
        <time>2018-07-28T11:45:01Z</time>
      </trkpt>
      <trkpt lat="42.10251" lon="-8.89702">
        <ele>20.608</ele>
        <time>2018-07-28T11:45:02Z</time>
      </trkpt>
      <trkpt lat="42.10267" lon="-8.89718">
        <ele>20.886</ele>
        <time>2018-07-28T11:45:03Z</time>
      </trkpt>
      <trkpt lat="42.10283" lon="-8.89733">
        <ele>20.821</ele>
        <time>2018-07-28T11:45:04Z</time>
      </trkpt>
      <trkpt lat="42.10301" lon="-8.89748">
        <ele>20.934</ele>
        <time>2018-07-28T11:45:05Z</time>
      </trkpt>
      <trkpt lat="42.1032" lon="-8.89761">
        <ele>21.186</ele>
        <time>2018-07-28T11:45:06Z</time>
      </trkpt>
      <trkpt lat="42.10338" lon="-8.89775">
        <ele>21.461</ele>
        <time>2018-07-28T11:45:07Z</time>
      </trkpt>
      <trkpt lat="42.10356" lon="-8.89787">
        <ele>21.716</ele>
        <time>2018-07-28T11:45:08Z</time>
      </trkpt>
      <trkpt lat="42.10375" lon="-8.89797">
        <ele>22.174</ele>
        <time>2018-07-28T11:45:09Z</time>
      </trkpt>
      <trkpt lat="42.10393" lon="-8.89808">
        <ele>22.28</ele>
        <time>2018-07-28T11:45:10Z</time>
      </trkpt>
      <trkpt lat="42.10409" lon="-8.89817">
        <ele>22.178</ele>
        <time>2018-07-28T11:45:11Z</time>
      </trkpt>
      <trkpt lat="42.10427" lon="-8.89812">
        <ele>21.633</ele>
        <time>2018-07-28T11:45:12Z</time>
      </trkpt>
      <trkpt lat="42.10443" lon="-8.89798">
        <ele>21.326</ele>
        <time>2018-07-28T11:45:13Z</time>
      </trkpt>
      <trkpt lat="42.10459" lon="-8.89788">
        <ele>21.308</ele>
        <time>2018-07-28T11:45:14Z</time>
      </trkpt>
      <trkpt lat="42.10476" lon="-8.89782">
        <ele>21.559</ele>
        <time>2018-07-28T11:45:15Z</time>
      </trkpt>
      <trkpt lat="42.10495" lon="-8.8977">
        <ele>21.784</ele>
        <time>2018-07-28T11:45:16Z</time>
      </trkpt>
      <trkpt lat="42.10514" lon="-8.89765">
        <ele>22.577</ele>
        <time>2018-07-28T11:45:17Z</time>
      </trkpt>
      <trkpt lat="42.10534" lon="-8.89758">
        <ele>23.299</ele>
        <time>2018-07-28T11:45:18Z</time>
      </trkpt>
      <trkpt lat="42.10553" lon="-8.89752">
        <ele>23.764</ele>
        <time>2018-07-28T11:45:19Z</time>
      </trkpt>
      <trkpt lat="42.10573" lon="-8.89742">
        <ele>24.169</ele>
        <time>2018-07-28T11:45:20Z</time>
      </trkpt>
      <trkpt lat="42.10592" lon="-8.89738">
        <ele>24.647</ele>
        <time>2018-07-28T11:45:21Z</time>
      </trkpt>
      <trkpt lat="42.10612" lon="-8.89732">
        <ele>25.083</ele>
        <time>2018-07-28T11:45:22Z</time>
      </trkpt>
      <trkpt lat="42.10631" lon="-8.89725">
        <ele>25.562</ele>
        <time>2018-07-28T11:45:23Z</time>
      </trkpt>
      <trkpt lat="42.10651" lon="-8.89719">
        <ele>25.883</ele>
        <time>2018-07-28T11:45:24Z</time>
      </trkpt>
      <trkpt lat="42.1067" lon="-8.89712">
        <ele>26.711</ele>
        <time>2018-07-28T11:45:25Z</time>
      </trkpt>
      <trkpt lat="42.10689" lon="-8.89704">
        <ele>27.008</ele>
        <time>2018-07-28T11:45:26Z</time>
      </trkpt>
      <trkpt lat="42.10708" lon="-8.89698">
        <ele>27.568</ele>
        <time>2018-07-28T11:45:27Z</time>
      </trkpt>
      <trkpt lat="42.10728" lon="-8.89694">
        <ele>28.083</ele>
        <time>2018-07-28T11:45:28Z</time>
      </trkpt>
      <trkpt lat="42.10746" lon="-8.89691">
        <ele>28.636</ele>
        <time>2018-07-28T11:45:29Z</time>
      </trkpt>
      <trkpt lat="42.10767" lon="-8.89687">
        <ele>29.238</ele>
        <time>2018-07-28T11:45:30Z</time>
      </trkpt>
      <trkpt lat="42.10784" lon="-8.89684">
        <ele>29.693</ele>
        <time>2018-07-28T11:45:31Z</time>
      </trkpt>
      <trkpt lat="42.10804" lon="-8.89683">
        <ele>29.948</ele>
        <time>2018-07-28T11:45:32Z</time>
      </trkpt>
      <trkpt lat="42.10824" lon="-8.89682">
        <ele>30.456</ele>
        <time>2018-07-28T11:45:33Z</time>
      </trkpt>
      <trkpt lat="42.10842" lon="-8.89683">
        <ele>30.782</ele>
        <time>2018-07-28T11:45:34Z</time>
      </trkpt>
      <trkpt lat="42.10861" lon="-8.89686">
        <ele>31.144</ele>
        <time>2018-07-28T11:45:35Z</time>
      </trkpt>
      <trkpt lat="42.10879" lon="-8.89686">
        <ele>31.505</ele>
        <time>2018-07-28T11:45:36Z</time>
      </trkpt>
      <trkpt lat="42.10896" lon="-8.89688">
        <ele>31.715</ele>
        <time>2018-07-28T11:45:37Z</time>
      </trkpt>
      <trkpt lat="42.10913" lon="-8.89689">
        <ele>31.708</ele>
        <time>2018-07-28T11:45:38Z</time>
      </trkpt>
      <trkpt lat="42.10927" lon="-8.89687">
        <ele>31.336</ele>
        <time>2018-07-28T11:45:39Z</time>
      </trkpt>
      <trkpt lat="42.10942" lon="-8.89689">
        <ele>29.991</ele>
        <time>2018-07-28T11:45:40Z</time>
      </trkpt>
      <trkpt lat="42.10954" lon="-8.8969">
        <ele>29.024</ele>
        <time>2018-07-28T11:45:41Z</time>
      </trkpt>
      <trkpt lat="42.10965" lon="-8.89691">
        <ele>28.216</ele>
        <time>2018-07-28T11:45:42Z</time>
      </trkpt>
      <trkpt lat="42.10976" lon="-8.89693">
        <ele>27.561</ele>
        <time>2018-07-28T11:45:43Z</time>
      </trkpt>
      <trkpt lat="42.10985" lon="-8.89693">
        <ele>27.076</ele>
        <time>2018-07-28T11:45:44Z</time>
      </trkpt>
      <trkpt lat="42.10995" lon="-8.89692">
        <ele>26.554</ele>
        <time>2018-07-28T11:45:45Z</time>
      </trkpt>
      <trkpt lat="42.11004" lon="-8.8969">
        <ele>26.19</ele>
        <time>2018-07-28T11:45:46Z</time>
      </trkpt>
      <trkpt lat="42.11011" lon="-8.89684">
        <ele>25.882</ele>
        <time>2018-07-28T11:45:47Z</time>
      </trkpt>
      <trkpt lat="42.11018" lon="-8.89674">
        <ele>25.543</ele>
        <time>2018-07-28T11:45:48Z</time>
      </trkpt>
      <trkpt lat="42.11023" lon="-8.89663">
        <ele>25.317</ele>
        <time>2018-07-28T11:45:49Z</time>
      </trkpt>
      <trkpt lat="42.11031" lon="-8.89659">
        <ele>25.208</ele>
        <time>2018-07-28T11:45:50Z</time>
      </trkpt>
      <trkpt lat="42.1104" lon="-8.89659">
        <ele>25.21</ele>
        <time>2018-07-28T11:45:51Z</time>
      </trkpt>
      <trkpt lat="42.1105" lon="-8.89656">
        <ele>25.265</ele>
        <time>2018-07-28T11:45:52Z</time>
      </trkpt>
      <trkpt lat="42.11061" lon="-8.89649">
        <ele>25.228</ele>
        <time>2018-07-28T11:45:53Z</time>
      </trkpt>
      <trkpt lat="42.11074" lon="-8.8964">
        <ele>25.24</ele>
        <time>2018-07-28T11:45:54Z</time>
      </trkpt>
      <trkpt lat="42.11086" lon="-8.89628">
        <ele>25.285</ele>
        <time>2018-07-28T11:45:55Z</time>
      </trkpt>
      <trkpt lat="42.11099" lon="-8.89614">
        <ele>25.25</ele>
        <time>2018-07-28T11:45:56Z</time>
      </trkpt>
      <trkpt lat="42.11114" lon="-8.89602">
        <ele>25.368</ele>
        <time>2018-07-28T11:45:57Z</time>
      </trkpt>
      <trkpt lat="42.11127" lon="-8.8959">
        <ele>25.334</ele>
        <time>2018-07-28T11:45:58Z</time>
      </trkpt>
      <trkpt lat="42.11139" lon="-8.89577">
        <ele>25.154</ele>
        <time>2018-07-28T11:45:59Z</time>
      </trkpt>
      <trkpt lat="42.1115" lon="-8.89565">
        <ele>24.756</ele>
        <time>2018-07-28T11:46:00Z</time>
      </trkpt>
      <trkpt lat="42.11159" lon="-8.89555">
        <ele>24.211</ele>
        <time>2018-07-28T11:46:01Z</time>
      </trkpt>
      <trkpt lat="42.11167" lon="-8.8954">
        <ele>23.608</ele>
        <time>2018-07-28T11:46:02Z</time>
      </trkpt>
      <trkpt lat="42.11177" lon="-8.89525">
        <ele>22.777</ele>
        <time>2018-07-28T11:46:03Z</time>
      </trkpt>
      <trkpt lat="42.11181" lon="-8.89507">
        <ele>22.732</ele>
        <time>2018-07-28T11:46:04Z</time>
      </trkpt>
      <trkpt lat="42.11184" lon="-8.89491">
        <ele>22.435</ele>
        <time>2018-07-28T11:46:05Z</time>
      </trkpt>
      <trkpt lat="42.11185" lon="-8.89469">
        <ele>22.037</ele>
        <time>2018-07-28T11:46:06Z</time>
      </trkpt>
      <trkpt lat="42.11185" lon="-8.89451">
        <ele>21.642</ele>
        <time>2018-07-28T11:46:07Z</time>
      </trkpt>
      <trkpt lat="42.11183" lon="-8.89431">
        <ele>20.947</ele>
        <time>2018-07-28T11:46:08Z</time>
      </trkpt>
      <trkpt lat="42.1118" lon="-8.8941">
        <ele>20.555</ele>
        <time>2018-07-28T11:46:09Z</time>
      </trkpt>
      <trkpt lat="42.11173" lon="-8.89392">
        <ele>20.341</ele>
        <time>2018-07-28T11:46:10Z</time>
      </trkpt>
      <trkpt lat="42.11165" lon="-8.89373">
        <ele>20.247</ele>
        <time>2018-07-28T11:46:11Z</time>
      </trkpt>
      <trkpt lat="42.11155" lon="-8.89354">
        <ele>20.229</ele>
        <time>2018-07-28T11:46:12Z</time>
      </trkpt>
      <trkpt lat="42.11145" lon="-8.89334">
        <ele>20.221</ele>
        <time>2018-07-28T11:46:13Z</time>
      </trkpt>
      <trkpt lat="42.11135" lon="-8.89314">
        <ele>20.408</ele>
        <time>2018-07-28T11:46:14Z</time>
      </trkpt>
      <trkpt lat="42.11128" lon="-8.89294">
        <ele>20.766</ele>
        <time>2018-07-28T11:46:15Z</time>
      </trkpt>
      <trkpt lat="42.11121" lon="-8.89271">
        <ele>20.961</ele>
        <time>2018-07-28T11:46:16Z</time>
      </trkpt>
      <trkpt lat="42.11118" lon="-8.89247">
        <ele>21.194</ele>
        <time>2018-07-28T11:46:17Z</time>
      </trkpt>
      <trkpt lat="42.11116" lon="-8.89226">
        <ele>21.236</ele>
        <time>2018-07-28T11:46:18Z</time>
      </trkpt>
      <trkpt lat="42.1112" lon="-8.89205">
        <ele>21.261</ele>
        <time>2018-07-28T11:46:19Z</time>
      </trkpt>
      <trkpt lat="42.11127" lon="-8.89184">
        <ele>21.186</ele>
        <time>2018-07-28T11:46:20Z</time>
      </trkpt>
      <trkpt lat="42.11136" lon="-8.89166">
        <ele>20.934</ele>
        <time>2018-07-28T11:46:21Z</time>
      </trkpt>
      <trkpt lat="42.11147" lon="-8.89153">
        <ele>20.73</ele>
        <time>2018-07-28T11:46:22Z</time>
      </trkpt>
      <trkpt lat="42.11159" lon="-8.89141">
        <ele>20.095</ele>
        <time>2018-07-28T11:46:23Z</time>
      </trkpt>
      <trkpt lat="42.11173" lon="-8.8913">
        <ele>19.649</ele>
        <time>2018-07-28T11:46:24Z</time>
      </trkpt>
      <trkpt lat="42.11186" lon="-8.89119">
        <ele>19.323</ele>
        <time>2018-07-28T11:46:25Z</time>
      </trkpt>
      <trkpt lat="42.11197" lon="-8.89105">
        <ele>18.908</ele>
        <time>2018-07-28T11:46:26Z</time>
      </trkpt>
      <trkpt lat="42.11206" lon="-8.89092">
        <ele>18.651</ele>
        <time>2018-07-28T11:46:27Z</time>
      </trkpt>
      <trkpt lat="42.11213" lon="-8.89078">
        <ele>18.116</ele>
        <time>2018-07-28T11:46:28Z</time>
      </trkpt>
      <trkpt lat="42.1122" lon="-8.89062">
        <ele>17.559</ele>
        <time>2018-07-28T11:46:29Z</time>
      </trkpt>
      <trkpt lat="42.11227" lon="-8.89047">
        <ele>16.931</ele>
        <time>2018-07-28T11:46:30Z</time>
      </trkpt>
      <trkpt lat="42.11232" lon="-8.8903">
        <ele>16.236</ele>
        <time>2018-07-28T11:46:31Z</time>
      </trkpt>
      <trkpt lat="42.11235" lon="-8.89015">
        <ele>15.541</ele>
        <time>2018-07-28T11:46:32Z</time>
      </trkpt>
      <trkpt lat="42.11239" lon="-8.89">
        <ele>15.019</ele>
        <time>2018-07-28T11:46:33Z</time>
      </trkpt>
      <trkpt lat="42.1124" lon="-8.88984">
        <ele>14.635</ele>
        <time>2018-07-28T11:46:34Z</time>
      </trkpt>
      <trkpt lat="42.11241" lon="-8.88966">
        <ele>14.434</ele>
        <time>2018-07-28T11:46:35Z</time>
      </trkpt>
      <trkpt lat="42.11241" lon="-8.8895">
        <ele>14.255</ele>
        <time>2018-07-28T11:46:36Z</time>
      </trkpt>
      <trkpt lat="42.11234" lon="-8.88929">
        <ele>14.01</ele>
        <time>2018-07-28T11:46:37Z</time>
      </trkpt>
      <trkpt lat="42.11228" lon="-8.88908">
        <ele>14.008</ele>
        <time>2018-07-28T11:46:38Z</time>
      </trkpt>
      <trkpt lat="42.11222" lon="-8.88889">
        <ele>14.175</ele>
        <time>2018-07-28T11:46:39Z</time>
      </trkpt>
      <trkpt lat="42.11214" lon="-8.88871">
        <ele>14.38</ele>
        <time>2018-07-28T11:46:40Z</time>
      </trkpt>
      <trkpt lat="42.11209" lon="-8.88852">
        <ele>14.433</ele>
        <time>2018-07-28T11:46:41Z</time>
      </trkpt>
      <trkpt lat="42.11207" lon="-8.88833">
        <ele>14.425</ele>
        <time>2018-07-28T11:46:42Z</time>
      </trkpt>
      <trkpt lat="42.11206" lon="-8.88813">
        <ele>14.31</ele>
        <time>2018-07-28T11:46:43Z</time>
      </trkpt>
      <trkpt lat="42.11206" lon="-8.88791">
        <ele>14.185</ele>
        <time>2018-07-28T11:46:44Z</time>
      </trkpt>
      <trkpt lat="42.11207" lon="-8.8877">
        <ele>13.943</ele>
        <time>2018-07-28T11:46:45Z</time>
      </trkpt>
      <trkpt lat="42.11209" lon="-8.8875">
        <ele>13.829</ele>
        <time>2018-07-28T11:46:46Z</time>
      </trkpt>
      <trkpt lat="42.11208" lon="-8.8873">
        <ele>13.763</ele>
        <time>2018-07-28T11:46:47Z</time>
      </trkpt>
      <trkpt lat="42.11208" lon="-8.88712">
        <ele>13.544</ele>
        <time>2018-07-28T11:46:48Z</time>
      </trkpt>
      <trkpt lat="42.11207" lon="-8.88694">
        <ele>13.218</ele>
        <time>2018-07-28T11:46:49Z</time>
      </trkpt>
      <trkpt lat="42.11208" lon="-8.88677">
        <ele>12.808</ele>
        <time>2018-07-28T11:46:50Z</time>
      </trkpt>
      <trkpt lat="42.1121" lon="-8.88662">
        <ele>12.478</ele>
        <time>2018-07-28T11:46:51Z</time>
      </trkpt>
      <trkpt lat="42.11211" lon="-8.88644">
        <ele>12.033</ele>
        <time>2018-07-28T11:46:52Z</time>
      </trkpt>
      <trkpt lat="42.11214" lon="-8.88625">
        <ele>12.086</ele>
        <time>2018-07-28T11:46:53Z</time>
      </trkpt>
      <trkpt lat="42.11217" lon="-8.88608">
        <ele>12.018</ele>
        <time>2018-07-28T11:46:54Z</time>
      </trkpt>
      <trkpt lat="42.1122" lon="-8.88587">
        <ele>12.113</ele>
        <time>2018-07-28T11:46:55Z</time>
      </trkpt>
      <trkpt lat="42.11224" lon="-8.88566">
        <ele>12.148</ele>
        <time>2018-07-28T11:46:56Z</time>
      </trkpt>
      <trkpt lat="42.11227" lon="-8.88545">
        <ele>12.216</ele>
        <time>2018-07-28T11:46:57Z</time>
      </trkpt>
      <trkpt lat="42.11231" lon="-8.88525">
        <ele>12.252</ele>
        <time>2018-07-28T11:46:58Z</time>
      </trkpt>
      <trkpt lat="42.11234" lon="-8.88504">
        <ele>12.421</ele>
        <time>2018-07-28T11:46:59Z</time>
      </trkpt>
      <trkpt lat="42.11232" lon="-8.88482">
        <ele>12.641</ele>
        <time>2018-07-28T11:47:00Z</time>
      </trkpt>
      <trkpt lat="42.1123" lon="-8.8846">
        <ele>12.805</ele>
        <time>2018-07-28T11:47:01Z</time>
      </trkpt>
      <trkpt lat="42.11224" lon="-8.88436">
        <ele>13.008</ele>
        <time>2018-07-28T11:47:02Z</time>
      </trkpt>
      <trkpt lat="42.11215" lon="-8.88415">
        <ele>13.344</ele>
        <time>2018-07-28T11:47:03Z</time>
      </trkpt>
      <trkpt lat="42.11206" lon="-8.88397">
        <ele>13.679</ele>
        <time>2018-07-28T11:47:04Z</time>
      </trkpt>
      <trkpt lat="42.11197" lon="-8.88378">
        <ele>13.922</ele>
        <time>2018-07-28T11:47:05Z</time>
      </trkpt>
      <trkpt lat="42.11185" lon="-8.88363">
        <ele>14.174</ele>
        <time>2018-07-28T11:47:06Z</time>
      </trkpt>
      <trkpt lat="42.11174" lon="-8.88348">
        <ele>14.529</ele>
        <time>2018-07-28T11:47:07Z</time>
      </trkpt>
      <trkpt lat="42.11165" lon="-8.8833">
        <ele>14.534</ele>
        <time>2018-07-28T11:47:08Z</time>
      </trkpt>
      <trkpt lat="42.11157" lon="-8.88313">
        <ele>14.562</ele>
        <time>2018-07-28T11:47:09Z</time>
      </trkpt>
      <trkpt lat="42.11149" lon="-8.88295">
        <ele>14.578</ele>
        <time>2018-07-28T11:47:10Z</time>
      </trkpt>
      <trkpt lat="42.11139" lon="-8.88283">
        <ele>14.532</ele>
        <time>2018-07-28T11:47:11Z</time>
      </trkpt>
      <trkpt lat="42.1113" lon="-8.88268">
        <ele>14.592</ele>
        <time>2018-07-28T11:47:12Z</time>
      </trkpt>
      <trkpt lat="42.11118" lon="-8.88254">
        <ele>14.611</ele>
        <time>2018-07-28T11:47:13Z</time>
      </trkpt>
      <trkpt lat="42.11106" lon="-8.88243">
        <ele>15.108</ele>
        <time>2018-07-28T11:47:14Z</time>
      </trkpt>
      <trkpt lat="42.11091" lon="-8.88234">
        <ele>15.545</ele>
        <time>2018-07-28T11:47:15Z</time>
      </trkpt>
      <trkpt lat="42.11079" lon="-8.88225">
        <ele>15.91</ele>
        <time>2018-07-28T11:47:16Z</time>
      </trkpt>
      <trkpt lat="42.11068" lon="-8.88213">
        <ele>16.343</ele>
        <time>2018-07-28T11:47:17Z</time>
      </trkpt>
      <trkpt lat="42.11057" lon="-8.88202">
        <ele>16.675</ele>
        <time>2018-07-28T11:47:18Z</time>
      </trkpt>
      <trkpt lat="42.11046" lon="-8.8819">
        <ele>16.74</ele>
        <time>2018-07-28T11:47:19Z</time>
      </trkpt>
      <trkpt lat="42.11036" lon="-8.88179">
        <ele>16.815</ele>
        <time>2018-07-28T11:47:20Z</time>
      </trkpt>
      <trkpt lat="42.11025" lon="-8.8817">
        <ele>16.853</ele>
        <time>2018-07-28T11:47:21Z</time>
      </trkpt>
      <trkpt lat="42.11015" lon="-8.88157">
        <ele>16.899</ele>
        <time>2018-07-28T11:47:22Z</time>
      </trkpt>
      <trkpt lat="42.11006" lon="-8.88145">
        <ele>16.814</ele>
        <time>2018-07-28T11:47:23Z</time>
      </trkpt>
      <trkpt lat="42.10997" lon="-8.88139">
        <ele>16.854</ele>
        <time>2018-07-28T11:47:24Z</time>
      </trkpt>
      <trkpt lat="42.10992" lon="-8.88124">
        <ele>16.809</ele>
        <time>2018-07-28T11:47:25Z</time>
      </trkpt>
      <trkpt lat="42.10992" lon="-8.88109">
        <ele>16.808</ele>
        <time>2018-07-28T11:47:26Z</time>
      </trkpt>
      <trkpt lat="42.10993" lon="-8.88091">
        <ele>16.893</ele>
        <time>2018-07-28T11:47:27Z</time>
      </trkpt>
      <trkpt lat="42.10992" lon="-8.88075">
        <ele>16.838</ele>
        <time>2018-07-28T11:47:28Z</time>
      </trkpt>
      <trkpt lat="42.10993" lon="-8.88059">
        <ele>17.071</ele>
        <time>2018-07-28T11:47:29Z</time>
      </trkpt>
      <trkpt lat="42.10994" lon="-8.88041">
        <ele>17.483</ele>
        <time>2018-07-28T11:47:30Z</time>
      </trkpt>
      <trkpt lat="42.10996" lon="-8.88024">
        <ele>17.798</ele>
        <time>2018-07-28T11:47:31Z</time>
      </trkpt>
      <trkpt lat="42.11003" lon="-8.88006">
        <ele>18.323</ele>
        <time>2018-07-28T11:47:32Z</time>
      </trkpt>
      <trkpt lat="42.11012" lon="-8.8799">
        <ele>18.751</ele>
        <time>2018-07-28T11:47:33Z</time>
      </trkpt>
      <trkpt lat="42.11022" lon="-8.87973">
        <ele>19.157</ele>
        <time>2018-07-28T11:47:34Z</time>
      </trkpt>
      <trkpt lat="42.11032" lon="-8.87955">
        <ele>19.863</ele>
        <time>2018-07-28T11:47:35Z</time>
      </trkpt>
      <trkpt lat="42.11044" lon="-8.87938">
        <ele>20.144</ele>
        <time>2018-07-28T11:47:36Z</time>
      </trkpt>
      <trkpt lat="42.11055" lon="-8.8792">
        <ele>20.318</ele>
        <time>2018-07-28T11:47:37Z</time>
      </trkpt>
      <trkpt lat="42.11062" lon="-8.87905">
        <ele>20.308</ele>
        <time>2018-07-28T11:47:38Z</time>
      </trkpt>
      <trkpt lat="42.11069" lon="-8.87888">
        <ele>19.928</ele>
        <time>2018-07-28T11:47:39Z</time>
      </trkpt>
      <trkpt lat="42.11071" lon="-8.87874">
        <ele>19.253</ele>
        <time>2018-07-28T11:47:40Z</time>
      </trkpt>
      <trkpt lat="42.11072" lon="-8.8786">
        <ele>18.376</ele>
        <time>2018-07-28T11:47:41Z</time>
      </trkpt>
      <trkpt lat="42.11073" lon="-8.87845">
        <ele>17.368</ele>
        <time>2018-07-28T11:47:42Z</time>
      </trkpt>
      <trkpt lat="42.11074" lon="-8.87829">
        <ele>16.593</ele>
        <time>2018-07-28T11:47:43Z</time>
      </trkpt>
      <trkpt lat="42.11076" lon="-8.87815">
        <ele>15.948</ele>
        <time>2018-07-28T11:47:44Z</time>
      </trkpt>
      <trkpt lat="42.11074" lon="-8.87798">
        <ele>15.536</ele>
        <time>2018-07-28T11:47:45Z</time>
      </trkpt>
      <trkpt lat="42.11077" lon="-8.87785">
        <ele>15.282</ele>
        <time>2018-07-28T11:47:46Z</time>
      </trkpt>
      <trkpt lat="42.11078" lon="-8.87771">
        <ele>15.152</ele>
        <time>2018-07-28T11:47:47Z</time>
      </trkpt>
      <trkpt lat="42.11083" lon="-8.87755">
        <ele>15.153</ele>
        <time>2018-07-28T11:47:48Z</time>
      </trkpt>
      <trkpt lat="42.11091" lon="-8.87743">
        <ele>15.208</ele>
        <time>2018-07-28T11:47:49Z</time>
      </trkpt>
      <trkpt lat="42.11095" lon="-8.87728">
        <ele>15.508</ele>
        <time>2018-07-28T11:47:50Z</time>
      </trkpt>
      <trkpt lat="42.11102" lon="-8.87713">
        <ele>15.587</ele>
        <time>2018-07-28T11:47:51Z</time>
      </trkpt>
      <trkpt lat="42.1111" lon="-8.87699">
        <ele>15.432</ele>
        <time>2018-07-28T11:47:52Z</time>
      </trkpt>
      <trkpt lat="42.1112" lon="-8.8769">
        <ele>15.285</ele>
        <time>2018-07-28T11:47:53Z</time>
      </trkpt>
      <trkpt lat="42.1113" lon="-8.87678">
        <ele>14.947</ele>
        <time>2018-07-28T11:47:54Z</time>
      </trkpt>
      <trkpt lat="42.11139" lon="-8.87664">
        <ele>14.992</ele>
        <time>2018-07-28T11:47:55Z</time>
      </trkpt>
      <trkpt lat="42.1115" lon="-8.87648">
        <ele>14.937</ele>
        <time>2018-07-28T11:47:56Z</time>
      </trkpt>
      <trkpt lat="42.11162" lon="-8.87632">
        <ele>15.115</ele>
        <time>2018-07-28T11:47:57Z</time>
      </trkpt>
      <trkpt lat="42.11172" lon="-8.87615">
        <ele>15.311</ele>
        <time>2018-07-28T11:47:58Z</time>
      </trkpt>
      <trkpt lat="42.11183" lon="-8.87599">
        <ele>15.772</ele>
        <time>2018-07-28T11:47:59Z</time>
      </trkpt>
      <trkpt lat="42.11196" lon="-8.87582">
        <ele>16.113</ele>
        <time>2018-07-28T11:48:00Z</time>
      </trkpt>
      <trkpt lat="42.1121" lon="-8.87566">
        <ele>16.814</ele>
        <time>2018-07-28T11:48:01Z</time>
      </trkpt>
      <trkpt lat="42.11224" lon="-8.87549">
        <ele>17.208</ele>
        <time>2018-07-28T11:48:02Z</time>
      </trkpt>
      <trkpt lat="42.11238" lon="-8.8753">
        <ele>17.749</ele>
        <time>2018-07-28T11:48:03Z</time>
      </trkpt>
      <trkpt lat="42.11252" lon="-8.87509">
        <ele>18.764</ele>
        <time>2018-07-28T11:48:04Z</time>
      </trkpt>
      <trkpt lat="42.11263" lon="-8.87486">
        <ele>18.887</ele>
        <time>2018-07-28T11:48:05Z</time>
      </trkpt>
      <trkpt lat="42.11276" lon="-8.87465">
        <ele>18.789</ele>
        <time>2018-07-28T11:48:06Z</time>
      </trkpt>
      <trkpt lat="42.11289" lon="-8.87444">
        <ele>18.744</ele>
        <time>2018-07-28T11:48:07Z</time>
      </trkpt>
      <trkpt lat="42.11302" lon="-8.87428">
        <ele>18.529</ele>
        <time>2018-07-28T11:48:08Z</time>
      </trkpt>
      <trkpt lat="42.11319" lon="-8.87407">
        <ele>18.397</ele>
        <time>2018-07-28T11:48:09Z</time>
      </trkpt>
      <trkpt lat="42.11329" lon="-8.87389">
        <ele>18.053</ele>
        <time>2018-07-28T11:48:10Z</time>
      </trkpt>
      <trkpt lat="42.11341" lon="-8.87372">
        <ele>17.775</ele>
        <time>2018-07-28T11:48:11Z</time>
      </trkpt>
      <trkpt lat="42.11356" lon="-8.87356">
        <ele>17.528</ele>
        <time>2018-07-28T11:48:12Z</time>
      </trkpt>
      <trkpt lat="42.11369" lon="-8.87339">
        <ele>17.42</ele>
        <time>2018-07-28T11:48:13Z</time>
      </trkpt>
      <trkpt lat="42.11383" lon="-8.87325">
        <ele>17.308</ele>
        <time>2018-07-28T11:48:14Z</time>
      </trkpt>
      <trkpt lat="42.11395" lon="-8.87308">
        <ele>17.179</ele>
        <time>2018-07-28T11:48:15Z</time>
      </trkpt>
      <trkpt lat="42.11403" lon="-8.87294">
        <ele>16.934</ele>
        <time>2018-07-28T11:48:16Z</time>
      </trkpt>
      <trkpt lat="42.11411" lon="-8.87271">
        <ele>16.837</ele>
        <time>2018-07-28T11:48:17Z</time>
      </trkpt>
      <trkpt lat="42.11414" lon="-8.87246">
        <ele>16.529</ele>
        <time>2018-07-28T11:48:18Z</time>
      </trkpt>
      <trkpt lat="42.11417" lon="-8.87222">
        <ele>16.564</ele>
        <time>2018-07-28T11:48:19Z</time>
      </trkpt>
      <trkpt lat="42.11425" lon="-8.87201">
        <ele>16.539</ele>
        <time>2018-07-28T11:48:20Z</time>
      </trkpt>
      <trkpt lat="42.11431" lon="-8.87179">
        <ele>16.587</ele>
        <time>2018-07-28T11:48:21Z</time>
      </trkpt>
      <trkpt lat="42.11437" lon="-8.87158">
        <ele>16.233</ele>
        <time>2018-07-28T11:48:22Z</time>
      </trkpt>
      <trkpt lat="42.11442" lon="-8.87137">
        <ele>16.198</ele>
        <time>2018-07-28T11:48:23Z</time>
      </trkpt>
      <trkpt lat="42.11446" lon="-8.87117">
        <ele>15.915</ele>
        <time>2018-07-28T11:48:24Z</time>
      </trkpt>
      <trkpt lat="42.11449" lon="-8.87097">
        <ele>15.926</ele>
        <time>2018-07-28T11:48:25Z</time>
      </trkpt>
      <trkpt lat="42.11449" lon="-8.87076">
        <ele>15.908</ele>
        <time>2018-07-28T11:48:26Z</time>
      </trkpt>
      <trkpt lat="42.11448" lon="-8.87055">
        <ele>15.911</ele>
        <time>2018-07-28T11:48:27Z</time>
      </trkpt>
      <trkpt lat="42.11447" lon="-8.87036">
        <ele>15.856</ele>
        <time>2018-07-28T11:48:28Z</time>
      </trkpt>
      <trkpt lat="42.11447" lon="-8.87018">
        <ele>15.819</ele>
        <time>2018-07-28T11:48:29Z</time>
      </trkpt>
      <trkpt lat="42.11446" lon="-8.87002">
        <ele>15.481</ele>
        <time>2018-07-28T11:48:30Z</time>
      </trkpt>
      <trkpt lat="42.1144" lon="-8.86991">
        <ele>14.876</ele>
        <time>2018-07-28T11:48:31Z</time>
      </trkpt>
      <trkpt lat="42.11432" lon="-8.86982">
        <ele>14.361</ele>
        <time>2018-07-28T11:48:32Z</time>
      </trkpt>
      <trkpt lat="42.11425" lon="-8.86974">
        <ele>13.259</ele>
        <time>2018-07-28T11:48:33Z</time>
      </trkpt>
      <trkpt lat="42.11422" lon="-8.86965">
        <ele>12.715</ele>
        <time>2018-07-28T11:48:34Z</time>
      </trkpt>
      <trkpt lat="42.11426" lon="-8.86955">
        <ele>12.338</ele>
        <time>2018-07-28T11:48:35Z</time>
      </trkpt>
      <trkpt lat="42.11433" lon="-8.86945">
        <ele>12.17</ele>
        <time>2018-07-28T11:48:36Z</time>
      </trkpt>
      <trkpt lat="42.11439" lon="-8.86935">
        <ele>12.017</ele>
        <time>2018-07-28T11:48:37Z</time>
      </trkpt>
      <trkpt lat="42.11447" lon="-8.86921">
        <ele>12.008</ele>
        <time>2018-07-28T11:48:38Z</time>
      </trkpt>
      <trkpt lat="42.11451" lon="-8.86906">
        <ele>12.245</ele>
        <time>2018-07-28T11:48:39Z</time>
      </trkpt>
      <trkpt lat="42.11455" lon="-8.86888">
        <ele>12.63</ele>
        <time>2018-07-28T11:48:40Z</time>
      </trkpt>
      <trkpt lat="42.11457" lon="-8.86867">
        <ele>13.043</ele>
        <time>2018-07-28T11:48:41Z</time>
      </trkpt>
      <trkpt lat="42.1146" lon="-8.8685">
        <ele>13.675</ele>
        <time>2018-07-28T11:48:42Z</time>
      </trkpt>
      <trkpt lat="42.11465" lon="-8.86831">
        <ele>14.19</ele>
        <time>2018-07-28T11:48:43Z</time>
      </trkpt>
      <trkpt lat="42.11472" lon="-8.86813">
        <ele>14.615</ele>
        <time>2018-07-28T11:48:44Z</time>
      </trkpt>
      <trkpt lat="42.11484" lon="-8.86794">
        <ele>15.233</ele>
        <time>2018-07-28T11:48:45Z</time>
      </trkpt>
      <trkpt lat="42.11495" lon="-8.86774">
        <ele>16.059</ele>
        <time>2018-07-28T11:48:46Z</time>
      </trkpt>
      <trkpt lat="42.11511" lon="-8.86758">
        <ele>17.549</ele>
        <time>2018-07-28T11:48:47Z</time>
      </trkpt>
      <trkpt lat="42.11527" lon="-8.86744">
        <ele>18.302</ele>
        <time>2018-07-28T11:48:48Z</time>
      </trkpt>
      <trkpt lat="42.11543" lon="-8.86731">
        <ele>18.822</ele>
        <time>2018-07-28T11:48:49Z</time>
      </trkpt>
      <trkpt lat="42.11561" lon="-8.8672">
        <ele>19.308</ele>
        <time>2018-07-28T11:48:50Z</time>
      </trkpt>
      <trkpt lat="42.11578" lon="-8.86708">
        <ele>19.536</ele>
        <time>2018-07-28T11:48:51Z</time>
      </trkpt>
      <trkpt lat="42.11595" lon="-8.86694">
        <ele>19.521</ele>
        <time>2018-07-28T11:48:52Z</time>
      </trkpt>
      <trkpt lat="42.11612" lon="-8.8668">
        <ele>19.994</ele>
        <time>2018-07-28T11:48:53Z</time>
      </trkpt>
      <trkpt lat="42.1163" lon="-8.86668">
        <ele>20.436</ele>
        <time>2018-07-28T11:48:54Z</time>
      </trkpt>
      <trkpt lat="42.11648" lon="-8.86657">
        <ele>20.441</ele>
        <time>2018-07-28T11:48:55Z</time>
      </trkpt>
      <trkpt lat="42.11666" lon="-8.86644">
        <ele>20.436</ele>
        <time>2018-07-28T11:48:56Z</time>
      </trkpt>
      <trkpt lat="42.11683" lon="-8.86634">
        <ele>20.284</ele>
        <time>2018-07-28T11:48:57Z</time>
      </trkpt>
      <trkpt lat="42.117" lon="-8.86622">
        <ele>19.96</ele>
        <time>2018-07-28T11:48:58Z</time>
      </trkpt>
      <trkpt lat="42.11715" lon="-8.8661">
        <ele>19.443</ele>
        <time>2018-07-28T11:48:59Z</time>
      </trkpt>
      <trkpt lat="42.1173" lon="-8.86598">
        <ele>19.264</ele>
        <time>2018-07-28T11:49:00Z</time>
      </trkpt>
      <trkpt lat="42.11745" lon="-8.86585">
        <ele>19.21</ele>
        <time>2018-07-28T11:49:01Z</time>
      </trkpt>
      <trkpt lat="42.11759" lon="-8.86568">
        <ele>19.208</ele>
        <time>2018-07-28T11:49:02Z</time>
      </trkpt>
      <trkpt lat="42.1177" lon="-8.86548">
        <ele>19.546</ele>
        <time>2018-07-28T11:49:03Z</time>
      </trkpt>
      <trkpt lat="42.11778" lon="-8.86525">
        <ele>19.731</ele>
        <time>2018-07-28T11:49:04Z</time>
      </trkpt>
      <trkpt lat="42.1178" lon="-8.86495">
        <ele>20.274</ele>
        <time>2018-07-28T11:49:05Z</time>
      </trkpt>
      <trkpt lat="42.11783" lon="-8.86469">
        <ele>20.866</ele>
        <time>2018-07-28T11:49:06Z</time>
      </trkpt>
      <trkpt lat="42.11789" lon="-8.86449">
        <ele>21.411</ele>
        <time>2018-07-28T11:49:07Z</time>
      </trkpt>
      <trkpt lat="42.11798" lon="-8.86424">
        <ele>22.016</ele>
        <time>2018-07-28T11:49:08Z</time>
      </trkpt>
      <trkpt lat="42.11804" lon="-8.86402">
        <ele>22.654</ele>
        <time>2018-07-28T11:49:09Z</time>
      </trkpt>
      <trkpt lat="42.11815" lon="-8.86383">
        <ele>23.28</ele>
        <time>2018-07-28T11:49:10Z</time>
      </trkpt>
      <trkpt lat="42.1183" lon="-8.86367">
        <ele>23.817</ele>
        <time>2018-07-28T11:49:11Z</time>
      </trkpt>
      <trkpt lat="42.11847" lon="-8.86354">
        <ele>24.587</ele>
        <time>2018-07-28T11:49:12Z</time>
      </trkpt>
      <trkpt lat="42.11864" lon="-8.8634">
        <ele>25.415</ele>
        <time>2018-07-28T11:49:13Z</time>
      </trkpt>
      <trkpt lat="42.11881" lon="-8.86331">
        <ele>26.408</ele>
        <time>2018-07-28T11:49:14Z</time>
      </trkpt>
      <trkpt lat="42.11899" lon="-8.86323">
        <ele>27.323</ele>
        <time>2018-07-28T11:49:15Z</time>
      </trkpt>
      <trkpt lat="42.11918" lon="-8.86318">
        <ele>28.468</ele>
        <time>2018-07-28T11:49:16Z</time>
      </trkpt>
      <trkpt lat="42.11938" lon="-8.86313">
        <ele>28.451</ele>
        <time>2018-07-28T11:49:17Z</time>
      </trkpt>
      <trkpt lat="42.11956" lon="-8.86308">
        <ele>28.253</ele>
        <time>2018-07-28T11:49:18Z</time>
      </trkpt>
      <trkpt lat="42.11973" lon="-8.86303">
        <ele>27.778</ele>
        <time>2018-07-28T11:49:19Z</time>
      </trkpt>
      <trkpt lat="42.11989" lon="-8.86297">
        <ele>26.973</ele>
        <time>2018-07-28T11:49:20Z</time>
      </trkpt>
      <trkpt lat="42.12005" lon="-8.86292">
        <ele>26.171</ele>
        <time>2018-07-28T11:49:21Z</time>
      </trkpt>
      <trkpt lat="42.1202" lon="-8.86285">
        <ele>25.367</ele>
        <time>2018-07-28T11:49:22Z</time>
      </trkpt>
      <trkpt lat="42.12033" lon="-8.86275">
        <ele>24.636</ele>
        <time>2018-07-28T11:49:23Z</time>
      </trkpt>
      <trkpt lat="42.12046" lon="-8.86262">
        <ele>23.817</ele>
        <time>2018-07-28T11:49:24Z</time>
      </trkpt>
      <trkpt lat="42.12057" lon="-8.86243">
        <ele>23.518</ele>
        <time>2018-07-28T11:49:25Z</time>
      </trkpt>
      <trkpt lat="42.12066" lon="-8.86218">
        <ele>23.208</ele>
        <time>2018-07-28T11:49:26Z</time>
      </trkpt>
      <trkpt lat="42.12074" lon="-8.86192">
        <ele>23.215</ele>
        <time>2018-07-28T11:49:27Z</time>
      </trkpt>
      <trkpt lat="42.1208" lon="-8.86164">
        <ele>23.33</ele>
        <time>2018-07-28T11:49:28Z</time>
      </trkpt>
      <trkpt lat="42.12085" lon="-8.86136">
        <ele>23.773</ele>
        <time>2018-07-28T11:49:29Z</time>
      </trkpt>
      <trkpt lat="42.12094" lon="-8.8611">
        <ele>24.375</ele>
        <time>2018-07-28T11:49:30Z</time>
      </trkpt>
      <trkpt lat="42.12101" lon="-8.86085">
        <ele>24.68</ele>
        <time>2018-07-28T11:49:31Z</time>
      </trkpt>
      <trkpt lat="42.12111" lon="-8.86061">
        <ele>24.445</ele>
        <time>2018-07-28T11:49:32Z</time>
      </trkpt>
      <trkpt lat="42.12122" lon="-8.86037">
        <ele>24.183</ele>
        <time>2018-07-28T11:49:33Z</time>
      </trkpt>
      <trkpt lat="42.12133" lon="-8.86018">
        <ele>23.549</ele>
        <time>2018-07-28T11:49:34Z</time>
      </trkpt>
      <trkpt lat="42.12145" lon="-8.85998">
        <ele>23.055</ele>
        <time>2018-07-28T11:49:35Z</time>
      </trkpt>
      <trkpt lat="42.12156" lon="-8.85978">
        <ele>22.407</ele>
        <time>2018-07-28T11:49:36Z</time>
      </trkpt>
      <trkpt lat="42.12166" lon="-8.85961">
        <ele>21.917</ele>
        <time>2018-07-28T11:49:37Z</time>
      </trkpt>
      <trkpt lat="42.1218" lon="-8.85945">
        <ele>21.108</ele>
        <time>2018-07-28T11:49:38Z</time>
      </trkpt>
      <trkpt lat="42.1219" lon="-8.85929">
        <ele>20.217</ele>
        <time>2018-07-28T11:49:39Z</time>
      </trkpt>
      <trkpt lat="42.12199" lon="-8.85911">
        <ele>19.322</ele>
        <time>2018-07-28T11:49:40Z</time>
      </trkpt>
      <trkpt lat="42.12207" lon="-8.85893">
        <ele>18.455</ele>
        <time>2018-07-28T11:49:41Z</time>
      </trkpt>
      <trkpt lat="42.12214" lon="-8.85875">
        <ele>17.657</ele>
        <time>2018-07-28T11:49:42Z</time>
      </trkpt>
      <trkpt lat="42.12222" lon="-8.85858">
        <ele>16.742</ele>
        <time>2018-07-28T11:49:43Z</time>
      </trkpt>
      <trkpt lat="42.12228" lon="-8.85842">
        <ele>15.927</ele>
        <time>2018-07-28T11:49:44Z</time>
      </trkpt>
      <trkpt lat="42.12227" lon="-8.85825">
        <ele>14.785</ele>
        <time>2018-07-28T11:49:45Z</time>
      </trkpt>
      <trkpt lat="42.12225" lon="-8.85806">
        <ele>14.231</ele>
        <time>2018-07-28T11:49:46Z</time>
      </trkpt>
      <trkpt lat="42.12218" lon="-8.85794">
        <ele>13.742</ele>
        <time>2018-07-28T11:49:47Z</time>
      </trkpt>
      <trkpt lat="42.12215" lon="-8.85778">
        <ele>13.422</ele>
        <time>2018-07-28T11:49:48Z</time>
      </trkpt>
      <trkpt lat="42.12212" lon="-8.85762">
        <ele>13.214</ele>
        <time>2018-07-28T11:49:49Z</time>
      </trkpt>
      <trkpt lat="42.12208" lon="-8.85745">
        <ele>13.208</ele>
        <time>2018-07-28T11:49:50Z</time>
      </trkpt>
      <trkpt lat="42.12203" lon="-8.85728">
        <ele>13.346</ele>
        <time>2018-07-28T11:49:51Z</time>
      </trkpt>
      <trkpt lat="42.12198" lon="-8.85711">
        <ele>13.661</ele>
        <time>2018-07-28T11:49:52Z</time>
      </trkpt>
      <trkpt lat="42.1219" lon="-8.8569">
        <ele>13.924</ele>
        <time>2018-07-28T11:49:53Z</time>
      </trkpt>
      <trkpt lat="42.12186" lon="-8.8567">
        <ele>14.256</ele>
        <time>2018-07-28T11:49:54Z</time>
      </trkpt>
      <trkpt lat="42.12178" lon="-8.85653">
        <ele>14.561</ele>
        <time>2018-07-28T11:49:55Z</time>
      </trkpt>
      <trkpt lat="42.12172" lon="-8.8563">
        <ele>14.846</ele>
        <time>2018-07-28T11:49:56Z</time>
      </trkpt>
      <trkpt lat="42.12168" lon="-8.85609">
        <ele>15.164</ele>
        <time>2018-07-28T11:49:57Z</time>
      </trkpt>
      <trkpt lat="42.12165" lon="-8.85588">
        <ele>15.21</ele>
        <time>2018-07-28T11:49:58Z</time>
      </trkpt>
      <trkpt lat="42.12163" lon="-8.85567">
        <ele>14.922</ele>
        <time>2018-07-28T11:49:59Z</time>
      </trkpt>
      <trkpt lat="42.12161" lon="-8.85547">
        <ele>14.662</ele>
        <time>2018-07-28T11:50:00Z</time>
      </trkpt>
      <trkpt lat="42.12156" lon="-8.85527">
        <ele>14.208</ele>
        <time>2018-07-28T11:50:01Z</time>
      </trkpt>
      <trkpt lat="42.12152" lon="-8.85511">
        <ele>13.808</ele>
        <time>2018-07-28T11:50:02Z</time>
      </trkpt>
      <trkpt lat="42.12149" lon="-8.85494">
        <ele>13.574</ele>
        <time>2018-07-28T11:50:03Z</time>
      </trkpt>
      <trkpt lat="42.12147" lon="-8.85475">
        <ele>13.289</ele>
        <time>2018-07-28T11:50:04Z</time>
      </trkpt>
      <trkpt lat="42.12146" lon="-8.85457">
        <ele>12.922</ele>
        <time>2018-07-28T11:50:05Z</time>
      </trkpt>
      <trkpt lat="42.12147" lon="-8.85438">
        <ele>12.544</ele>
        <time>2018-07-28T11:50:06Z</time>
      </trkpt>
      <trkpt lat="42.1215" lon="-8.85424">
        <ele>12.249</ele>
        <time>2018-07-28T11:50:07Z</time>
      </trkpt>
      <trkpt lat="42.12155" lon="-8.85414">
        <ele>11.844</ele>
        <time>2018-07-28T11:50:08Z</time>
      </trkpt>
      <trkpt lat="42.12159" lon="-8.85403">
        <ele>11.432</ele>
        <time>2018-07-28T11:50:09Z</time>
      </trkpt>
      <trkpt lat="42.12164" lon="-8.85392">
        <ele>11.188</ele>
        <time>2018-07-28T11:50:10Z</time>
      </trkpt>
      <trkpt lat="42.12169" lon="-8.85382">
        <ele>10.949</ele>
        <time>2018-07-28T11:50:11Z</time>
      </trkpt>
      <trkpt lat="42.12172" lon="-8.85371">
        <ele>10.602</ele>
        <time>2018-07-28T11:50:12Z</time>
      </trkpt>
      <trkpt lat="42.12174" lon="-8.85362">
        <ele>10.422</ele>
        <time>2018-07-28T11:50:13Z</time>
      </trkpt>
      <trkpt lat="42.12178" lon="-8.8535">
        <ele>10.208</ele>
        <time>2018-07-28T11:50:14Z</time>
      </trkpt>
      <trkpt lat="42.12179" lon="-8.85337">
        <ele>10.146</ele>
        <time>2018-07-28T11:50:15Z</time>
      </trkpt>
      <trkpt lat="42.1218" lon="-8.85322">
        <ele>10.141</ele>
        <time>2018-07-28T11:50:16Z</time>
      </trkpt>
      <trkpt lat="42.12182" lon="-8.85308">
        <ele>10.384</ele>
        <time>2018-07-28T11:50:17Z</time>
      </trkpt>
      <trkpt lat="42.12185" lon="-8.85295">
        <ele>10.376</ele>
        <time>2018-07-28T11:50:18Z</time>
      </trkpt>
      <trkpt lat="42.12187" lon="-8.85285">
        <ele>10.261</ele>
        <time>2018-07-28T11:50:19Z</time>
      </trkpt>
      <trkpt lat="42.12191" lon="-8.85282">
        <ele>9.966</ele>
        <time>2018-07-28T11:50:20Z</time>
      </trkpt>
      <trkpt lat="42.1219" lon="-8.8527">
        <ele>9.134</ele>
        <time>2018-07-28T11:50:22Z</time>
      </trkpt>
      <trkpt lat="42.1219" lon="-8.85262">
        <ele>8.79</ele>
        <time>2018-07-28T11:50:23Z</time>
      </trkpt>
      <trkpt lat="42.12192" lon="-8.85251">
        <ele>8.647</ele>
        <time>2018-07-28T11:50:24Z</time>
      </trkpt>
      <trkpt lat="42.12194" lon="-8.85237">
        <ele>8.629</ele>
        <time>2018-07-28T11:50:25Z</time>
      </trkpt>
      <trkpt lat="42.12194" lon="-8.85227">
        <ele>8.821</ele>
        <time>2018-07-28T11:50:26Z</time>
      </trkpt>
      <trkpt lat="42.1219" lon="-8.85216">
        <ele>8.908</ele>
        <time>2018-07-28T11:50:27Z</time>
      </trkpt>
      <trkpt lat="42.12189" lon="-8.85208">
        <ele>8.736</ele>
        <time>2018-07-28T11:50:28Z</time>
      </trkpt>
      <trkpt lat="42.12187" lon="-8.85199">
        <ele>8.271</ele>
        <time>2018-07-28T11:50:30Z</time>
      </trkpt>
      <trkpt lat="42.12184" lon="-8.85189">
        <ele>7.854</ele>
        <time>2018-07-28T11:50:32Z</time>
      </trkpt>
      <trkpt lat="42.12182" lon="-8.85183">
        <ele>7.876</ele>
        <time>2018-07-28T11:50:33Z</time>
      </trkpt>
      <trkpt lat="42.12176" lon="-8.85176">
        <ele>7.821</ele>
        <time>2018-07-28T11:50:34Z</time>
      </trkpt>
      <trkpt lat="42.1217" lon="-8.85171">
        <ele>7.876</ele>
        <time>2018-07-28T11:50:35Z</time>
      </trkpt>
      <trkpt lat="42.12167" lon="-8.85164">
        <ele>7.894</ele>
        <time>2018-07-28T11:50:36Z</time>
      </trkpt>
      <trkpt lat="42.12164" lon="-8.85159">
        <ele>7.95</ele>
        <time>2018-07-28T11:50:37Z</time>
      </trkpt>
      <trkpt lat="42.1216" lon="-8.85155">
        <ele>7.965</ele>
        <time>2018-07-28T11:50:38Z</time>
      </trkpt>
      <trkpt lat="42.12156" lon="-8.85152">
        <ele>7.968</ele>
        <time>2018-07-28T11:50:39Z</time>
      </trkpt>
      <trkpt lat="42.12152" lon="-8.85145">
        <ele>7.814</ele>
        <time>2018-07-28T11:50:40Z</time>
      </trkpt>
      <trkpt lat="42.1215" lon="-8.8514">
        <ele>7.708</ele>
        <time>2018-07-28T11:50:41Z</time>
      </trkpt>
      <trkpt lat="42.12148" lon="-8.85133">
        <ele>7.528</ele>
        <time>2018-07-28T11:50:42Z</time>
      </trkpt>
      <trkpt lat="42.12144" lon="-8.85125">
        <ele>7.593</ele>
        <time>2018-07-28T11:50:43Z</time>
      </trkpt>
      <trkpt lat="42.12139" lon="-8.85117">
        <ele>7.556</ele>
        <time>2018-07-28T11:50:44Z</time>
      </trkpt>
      <trkpt lat="42.12135" lon="-8.85107">
        <ele>7.588</ele>
        <time>2018-07-28T11:50:45Z</time>
      </trkpt>
      <trkpt lat="42.12133" lon="-8.85096">
        <ele>7.523</ele>
        <time>2018-07-28T11:50:46Z</time>
      </trkpt>
      <trkpt lat="42.12129" lon="-8.85086">
        <ele>7.558</ele>
        <time>2018-07-28T11:50:47Z</time>
      </trkpt>
      <trkpt lat="42.12124" lon="-8.85083">
        <ele>7.476</ele>
        <time>2018-07-28T11:50:48Z</time>
      </trkpt>
      <trkpt lat="42.12121" lon="-8.85076">
        <ele>7.352</ele>
        <time>2018-07-28T11:50:49Z</time>
      </trkpt>
      <trkpt lat="42.12118" lon="-8.8507">
        <ele>7.245</ele>
        <time>2018-07-28T11:50:50Z</time>
      </trkpt>
      <trkpt lat="42.12117" lon="-8.85063">
        <ele>7.047</ele>
        <time>2018-07-28T11:50:51Z</time>
      </trkpt>
      <trkpt lat="42.12117" lon="-8.85056">
        <ele>6.811</ele>
        <time>2018-07-28T11:50:52Z</time>
      </trkpt>
      <trkpt lat="42.12118" lon="-8.8505">
        <ele>6.708</ele>
        <time>2018-07-28T11:50:53Z</time>
      </trkpt>
      <trkpt lat="42.12117" lon="-8.85043">
        <ele>6.566</ele>
        <time>2018-07-28T11:50:54Z</time>
      </trkpt>
      <trkpt lat="42.12116" lon="-8.85036">
        <ele>6.441</ele>
        <time>2018-07-28T11:50:55Z</time>
      </trkpt>
      <trkpt lat="42.12113" lon="-8.85028">
        <ele>6.284</ele>
        <time>2018-07-28T11:50:57Z</time>
      </trkpt>
      <trkpt lat="42.12109" lon="-8.85021">
        <ele>6.246</ele>
        <time>2018-07-28T11:51:00Z</time>
      </trkpt>
      <trkpt lat="42.12105" lon="-8.85013">
        <ele>6.181</ele>
        <time>2018-07-28T11:51:02Z</time>
      </trkpt>
      <trkpt lat="42.12107" lon="-8.85003">
        <ele>6.126</ele>
        <time>2018-07-28T11:51:05Z</time>
      </trkpt>
      <trkpt lat="42.12112" lon="-8.85002">
        <ele>6.254</ele>
        <time>2018-07-28T11:51:08Z</time>
      </trkpt>
      <trkpt lat="42.12116" lon="-8.85">
        <ele>6.33</ele>
        <time>2018-07-28T11:51:10Z</time>
      </trkpt>
      <trkpt lat="42.12121" lon="-8.84997">
        <ele>6.353</ele>
        <time>2018-07-28T11:51:13Z</time>
      </trkpt>
      <trkpt lat="42.12117" lon="-8.85006">
        <ele>5.904</ele>
        <time>2018-07-28T11:51:18Z</time>
      </trkpt>
      <trkpt lat="42.12124" lon="-8.85012">
        <ele>6.014</ele>
        <time>2018-07-28T11:51:20Z</time>
      </trkpt>
      <trkpt lat="42.12125" lon="-8.85021">
        <ele>6.108</ele>
        <time>2018-07-28T11:51:22Z</time>
      </trkpt>
      <trkpt lat="42.12123" lon="-8.85035">
        <ele>6.167</ele>
        <time>2018-07-28T11:51:24Z</time>
      </trkpt>
      <trkpt lat="42.12126" lon="-8.8503">
        <ele>6.222</ele>
        <time>2018-07-28T11:51:37Z</time>
      </trkpt>
      <trkpt lat="42.12122" lon="-8.85033">
        <ele>6.215</ele>
        <time>2018-07-28T11:51:38Z</time>
      </trkpt>
      <trkpt lat="42.12127" lon="-8.85029">
        <ele>6.187</ele>
        <time>2018-07-28T11:51:47Z</time>
      </trkpt>
      <trkpt lat="42.12127" lon="-8.85037">
        <ele>5.722</ele>
        <time>2018-07-28T11:56:30Z</time>
      </trkpt>
      <trkpt lat="42.12125" lon="-8.85043">
        <ele>5.957</ele>
        <time>2018-07-28T11:59:46Z</time>
      </trkpt>
      <trkpt lat="42.1212" lon="-8.85042">
        <ele>5.585</ele>
        <time>2018-07-28T12:00:29Z</time>
      </trkpt>
      <trkpt lat="42.12123" lon="-8.85038">
        <ele>5.881</ele>
        <time>2018-07-28T12:00:43Z</time>
      </trkpt>
      <trkpt lat="42.12128" lon="-8.85035">
        <ele>5.769</ele>
        <time>2018-07-28T12:00:49Z</time>
      </trkpt>
      <trkpt lat="42.12122" lon="-8.85035">
        <ele>5.604</ele>
        <time>2018-07-28T12:00:55Z</time>
      </trkpt>
      <trkpt lat="42.12117" lon="-8.8503">
        <ele>5.424</ele>
        <time>2018-07-28T12:00:58Z</time>
      </trkpt>
      <trkpt lat="42.12114" lon="-8.85025">
        <ele>5.408</ele>
        <time>2018-07-28T12:00:59Z</time>
      </trkpt>
      <trkpt lat="42.12109" lon="-8.85018">
        <ele>5.448</ele>
        <time>2018-07-28T12:01:00Z</time>
      </trkpt>
      <trkpt lat="42.12103" lon="-8.85013">
        <ele>5.593</ele>
        <time>2018-07-28T12:01:01Z</time>
      </trkpt>
      <trkpt lat="42.12097" lon="-8.85007">
        <ele>5.596</ele>
        <time>2018-07-28T12:01:02Z</time>
      </trkpt>
      <trkpt lat="42.12092" lon="-8.85">
        <ele>5.628</ele>
        <time>2018-07-28T12:01:03Z</time>
      </trkpt>
      <trkpt lat="42.12087" lon="-8.84994">
        <ele>5.653</ele>
        <time>2018-07-28T12:01:04Z</time>
      </trkpt>
      <trkpt lat="42.12082" lon="-8.84988">
        <ele>5.638</ele>
        <time>2018-07-28T12:01:05Z</time>
      </trkpt>
      <trkpt lat="42.12077" lon="-8.84983">
        <ele>5.586</ele>
        <time>2018-07-28T12:01:06Z</time>
      </trkpt>
      <trkpt lat="42.12073" lon="-8.84978">
        <ele>5.412</ele>
        <time>2018-07-28T12:01:07Z</time>
      </trkpt>
      <trkpt lat="42.12068" lon="-8.84974">
        <ele>5.374</ele>
        <time>2018-07-28T12:01:08Z</time>
      </trkpt>
      <trkpt lat="42.12066" lon="-8.84968">
        <ele>5.256</ele>
        <time>2018-07-28T12:01:09Z</time>
      </trkpt>
      <trkpt lat="42.12062" lon="-8.84963">
        <ele>5.121</ele>
        <time>2018-07-28T12:01:10Z</time>
      </trkpt>
      <trkpt lat="42.12058" lon="-8.84958">
        <ele>5.008</ele>
        <time>2018-07-28T12:01:11Z</time>
      </trkpt>
      <trkpt lat="42.12054" lon="-8.84953">
        <ele>4.989</ele>
        <time>2018-07-28T12:01:12Z</time>
      </trkpt>
      <trkpt lat="42.12049" lon="-8.84949">
        <ele>4.834</ele>
        <time>2018-07-28T12:01:13Z</time>
      </trkpt>
      <trkpt lat="42.12044" lon="-8.84942">
        <ele>4.897</ele>
        <time>2018-07-28T12:01:14Z</time>
      </trkpt>
      <trkpt lat="42.12039" lon="-8.84935">
        <ele>5.069</ele>
        <time>2018-07-28T12:01:15Z</time>
      </trkpt>
      <trkpt lat="42.12034" lon="-8.84928">
        <ele>5.154</ele>
        <time>2018-07-28T12:01:16Z</time>
      </trkpt>
      <trkpt lat="42.12028" lon="-8.84922">
        <ele>5.299</ele>
        <time>2018-07-28T12:01:17Z</time>
      </trkpt>
      <trkpt lat="42.12024" lon="-8.84916">
        <ele>5.257</ele>
        <time>2018-07-28T12:01:18Z</time>
      </trkpt>
      <trkpt lat="42.12018" lon="-8.8491">
        <ele>5.053</ele>
        <time>2018-07-28T12:01:20Z</time>
      </trkpt>
      <trkpt lat="42.12017" lon="-8.84904">
        <ele>4.355</ele>
        <time>2018-07-28T12:01:29Z</time>
      </trkpt>
      <trkpt lat="42.12014" lon="-8.84898">
        <ele>4.407</ele>
        <time>2018-07-28T12:01:40Z</time>
      </trkpt>
      <trkpt lat="42.12007" lon="-8.8489">
        <ele>4.717</ele>
        <time>2018-07-28T12:01:42Z</time>
      </trkpt>
      <trkpt lat="42.12004" lon="-8.84885">
        <ele>4.708</ele>
        <time>2018-07-28T12:01:43Z</time>
      </trkpt>
      <trkpt lat="42.11998" lon="-8.84878">
        <ele>4.977</ele>
        <time>2018-07-28T12:01:45Z</time>
      </trkpt>
      <trkpt lat="42.1199" lon="-8.84871">
        <ele>5.262</ele>
        <time>2018-07-28T12:01:47Z</time>
      </trkpt>
      <trkpt lat="42.11986" lon="-8.84867">
        <ele>5.375</ele>
        <time>2018-07-28T12:01:48Z</time>
      </trkpt>
      <trkpt lat="42.11982" lon="-8.84863">
        <ele>5.477</ele>
        <time>2018-07-28T12:01:49Z</time>
      </trkpt>
      <trkpt lat="42.11977" lon="-8.84858">
        <ele>5.592</ele>
        <time>2018-07-28T12:01:50Z</time>
      </trkpt>
      <trkpt lat="42.11972" lon="-8.84852">
        <ele>5.567</ele>
        <time>2018-07-28T12:01:51Z</time>
      </trkpt>
      <trkpt lat="42.11967" lon="-8.84847">
        <ele>5.535</ele>
        <time>2018-07-28T12:01:52Z</time>
      </trkpt>
      <trkpt lat="42.11961" lon="-8.84841">
        <ele>5.581</ele>
        <time>2018-07-28T12:01:53Z</time>
      </trkpt>
      <trkpt lat="42.11955" lon="-8.84835">
        <ele>5.577</ele>
        <time>2018-07-28T12:01:54Z</time>
      </trkpt>
      <trkpt lat="42.1195" lon="-8.84829">
        <ele>5.561</ele>
        <time>2018-07-28T12:01:55Z</time>
      </trkpt>
      <trkpt lat="42.11945" lon="-8.84823">
        <ele>5.527</ele>
        <time>2018-07-28T12:01:56Z</time>
      </trkpt>
      <trkpt lat="42.11941" lon="-8.84819">
        <ele>5.408</ele>
        <time>2018-07-28T12:01:57Z</time>
      </trkpt>
      <trkpt lat="42.11937" lon="-8.84814">
        <ele>5.349</ele>
        <time>2018-07-28T12:01:58Z</time>
      </trkpt>
      <trkpt lat="42.11933" lon="-8.84811">
        <ele>5.174</ele>
        <time>2018-07-28T12:01:59Z</time>
      </trkpt>
      <trkpt lat="42.11927" lon="-8.84803">
        <ele>4.797</ele>
        <time>2018-07-28T12:02:01Z</time>
      </trkpt>
      <trkpt lat="42.11924" lon="-8.84799">
        <ele>4.669</ele>
        <time>2018-07-28T12:02:02Z</time>
      </trkpt>
      <trkpt lat="42.1192" lon="-8.84794">
        <ele>4.624</ele>
        <time>2018-07-28T12:02:03Z</time>
      </trkpt>
      <trkpt lat="42.11916" lon="-8.84789">
        <ele>4.659</ele>
        <time>2018-07-28T12:02:04Z</time>
      </trkpt>
      <trkpt lat="42.11913" lon="-8.84784">
        <ele>4.737</ele>
        <time>2018-07-28T12:02:05Z</time>
      </trkpt>
      <trkpt lat="42.11909" lon="-8.8478">
        <ele>4.783</ele>
        <time>2018-07-28T12:02:06Z</time>
      </trkpt>
      <trkpt lat="42.11904" lon="-8.84772">
        <ele>4.721</ele>
        <time>2018-07-28T12:02:08Z</time>
      </trkpt>
      <trkpt lat="42.11901" lon="-8.84767">
        <ele>4.641</ele>
        <time>2018-07-28T12:02:11Z</time>
      </trkpt>
      <trkpt lat="42.11898" lon="-8.84761">
        <ele>4.505</ele>
        <time>2018-07-28T12:02:24Z</time>
      </trkpt>
      <trkpt lat="42.11894" lon="-8.84755">
        <ele>4.608</ele>
        <time>2018-07-28T12:02:26Z</time>
      </trkpt>
      <trkpt lat="42.1189" lon="-8.84749">
        <ele>4.754</ele>
        <time>2018-07-28T12:02:27Z</time>
      </trkpt>
      <trkpt lat="42.11885" lon="-8.84743">
        <ele>4.869</ele>
        <time>2018-07-28T12:02:28Z</time>
      </trkpt>
      <trkpt lat="42.11881" lon="-8.84739">
        <ele>4.992</ele>
        <time>2018-07-28T12:02:29Z</time>
      </trkpt>
      <trkpt lat="42.11877" lon="-8.84735">
        <ele>5.064</ele>
        <time>2018-07-28T12:02:30Z</time>
      </trkpt>
      <trkpt lat="42.11873" lon="-8.84732">
        <ele>5.139</ele>
        <time>2018-07-28T12:02:31Z</time>
      </trkpt>
      <trkpt lat="42.11865" lon="-8.84725">
        <ele>5.114</ele>
        <time>2018-07-28T12:02:33Z</time>
      </trkpt>
      <trkpt lat="42.11862" lon="-8.84721">
        <ele>5.132</ele>
        <time>2018-07-28T12:02:34Z</time>
      </trkpt>
      <trkpt lat="42.11858" lon="-8.84717">
        <ele>5.188</ele>
        <time>2018-07-28T12:02:35Z</time>
      </trkpt>
      <trkpt lat="42.11855" lon="-8.84713">
        <ele>5.154</ele>
        <time>2018-07-28T12:02:36Z</time>
      </trkpt>
      <trkpt lat="42.11851" lon="-8.84708">
        <ele>5.156</ele>
        <time>2018-07-28T12:02:37Z</time>
      </trkpt>
      <trkpt lat="42.11845" lon="-8.84701">
        <ele>5.011</ele>
        <time>2018-07-28T12:02:39Z</time>
      </trkpt>
      <trkpt lat="42.11842" lon="-8.84697">
        <ele>4.908</ele>
        <time>2018-07-28T12:02:41Z</time>
      </trkpt>
      <trkpt lat="42.11839" lon="-8.84691">
        <ele>4.877</ele>
        <time>2018-07-28T12:02:44Z</time>
      </trkpt>
      <trkpt lat="42.11836" lon="-8.84686">
        <ele>4.852</ele>
        <time>2018-07-28T12:02:46Z</time>
      </trkpt>
      <trkpt lat="42.11834" lon="-8.84678">
        <ele>4.985</ele>
        <time>2018-07-28T12:02:48Z</time>
      </trkpt>
      <trkpt lat="42.11831" lon="-8.8467">
        <ele>4.957</ele>
        <time>2018-07-28T12:02:50Z</time>
      </trkpt>
      <trkpt lat="42.11827" lon="-8.84663">
        <ele>5.062</ele>
        <time>2018-07-28T12:02:52Z</time>
      </trkpt>
      <trkpt lat="42.11823" lon="-8.84653">
        <ele>5.037</ele>
        <time>2018-07-28T12:02:54Z</time>
      </trkpt>
      <trkpt lat="42.11821" lon="-8.84647">
        <ele>5.015</ele>
        <time>2018-07-28T12:02:55Z</time>
      </trkpt>
      <trkpt lat="42.11819" lon="-8.84641">
        <ele>5.071</ele>
        <time>2018-07-28T12:02:56Z</time>
      </trkpt>
      <trkpt lat="42.11817" lon="-8.84635">
        <ele>5.192</ele>
        <time>2018-07-28T12:02:57Z</time>
      </trkpt>
      <trkpt lat="42.11814" lon="-8.84628">
        <ele>5.173</ele>
        <time>2018-07-28T12:02:58Z</time>
      </trkpt>
      <trkpt lat="42.11812" lon="-8.84622">
        <ele>5.12</ele>
        <time>2018-07-28T12:02:59Z</time>
      </trkpt>
      <trkpt lat="42.11809" lon="-8.84615">
        <ele>5.108</ele>
        <time>2018-07-28T12:03:00Z</time>
      </trkpt>
      <trkpt lat="42.11806" lon="-8.84609">
        <ele>5.191</ele>
        <time>2018-07-28T12:03:01Z</time>
      </trkpt>
      <trkpt lat="42.11803" lon="-8.84603">
        <ele>5.116</ele>
        <time>2018-07-28T12:03:02Z</time>
      </trkpt>
      <trkpt lat="42.11799" lon="-8.84596">
        <ele>5.019</ele>
        <time>2018-07-28T12:03:03Z</time>
      </trkpt>
      <trkpt lat="42.11796" lon="-8.8459">
        <ele>5.011</ele>
        <time>2018-07-28T12:03:04Z</time>
      </trkpt>
      <trkpt lat="42.11793" lon="-8.84584">
        <ele>5.056</ele>
        <time>2018-07-28T12:03:05Z</time>
      </trkpt>
      <trkpt lat="42.11791" lon="-8.84578">
        <ele>5.041</ele>
        <time>2018-07-28T12:03:06Z</time>
      </trkpt>
      <trkpt lat="42.11788" lon="-8.8457">
        <ele>4.969</ele>
        <time>2018-07-28T12:03:08Z</time>
      </trkpt>
      <trkpt lat="42.11786" lon="-8.84564">
        <ele>4.785</ele>
        <time>2018-07-28T12:03:11Z</time>
      </trkpt>
      <trkpt lat="42.11781" lon="-8.84556">
        <ele>4.783</ele>
        <time>2018-07-28T12:03:14Z</time>
      </trkpt>
      <trkpt lat="42.11778" lon="-8.8455">
        <ele>4.725</ele>
        <time>2018-07-28T12:03:16Z</time>
      </trkpt>
      <trkpt lat="42.11775" lon="-8.84544">
        <ele>4.717</ele>
        <time>2018-07-28T12:03:18Z</time>
      </trkpt>
      <trkpt lat="42.11771" lon="-8.84537">
        <ele>4.708</ele>
        <time>2018-07-28T12:03:20Z</time>
      </trkpt>
      <trkpt lat="42.11767" lon="-8.84526">
        <ele>4.82</ele>
        <time>2018-07-28T12:03:22Z</time>
      </trkpt>
      <trkpt lat="42.11765" lon="-8.84519">
        <ele>4.985</ele>
        <time>2018-07-28T12:03:23Z</time>
      </trkpt>
      <trkpt lat="42.11761" lon="-8.84512">
        <ele>5.098</ele>
        <time>2018-07-28T12:03:24Z</time>
      </trkpt>
      <trkpt lat="42.11759" lon="-8.84504">
        <ele>5.11</ele>
        <time>2018-07-28T12:03:25Z</time>
      </trkpt>
      <trkpt lat="42.11756" lon="-8.84496">
        <ele>5.215</ele>
        <time>2018-07-28T12:03:26Z</time>
      </trkpt>
      <trkpt lat="42.11753" lon="-8.84488">
        <ele>5.24</ele>
        <time>2018-07-28T12:03:27Z</time>
      </trkpt>
      <trkpt lat="42.1175" lon="-8.8448">
        <ele>5.238</ele>
        <time>2018-07-28T12:03:28Z</time>
      </trkpt>
      <trkpt lat="42.11746" lon="-8.84472">
        <ele>5.264</ele>
        <time>2018-07-28T12:03:29Z</time>
      </trkpt>
      <trkpt lat="42.11741" lon="-8.84463">
        <ele>5.235</ele>
        <time>2018-07-28T12:03:30Z</time>
      </trkpt>
      <trkpt lat="42.11737" lon="-8.84454">
        <ele>5.386</ele>
        <time>2018-07-28T12:03:31Z</time>
      </trkpt>
      <trkpt lat="42.11732" lon="-8.84446">
        <ele>5.514</ele>
        <time>2018-07-28T12:03:32Z</time>
      </trkpt>
      <trkpt lat="42.11728" lon="-8.84439">
        <ele>5.508</ele>
        <time>2018-07-28T12:03:33Z</time>
      </trkpt>
      <trkpt lat="42.11722" lon="-8.84432">
        <ele>5.575</ele>
        <time>2018-07-28T12:03:34Z</time>
      </trkpt>
      <trkpt lat="42.11717" lon="-8.84425">
        <ele>5.56</ele>
        <time>2018-07-28T12:03:35Z</time>
      </trkpt>
      <trkpt lat="42.11711" lon="-8.84417">
        <ele>5.543</ele>
        <time>2018-07-28T12:03:36Z</time>
      </trkpt>
      <trkpt lat="42.11706" lon="-8.84411">
        <ele>5.615</ele>
        <time>2018-07-28T12:03:37Z</time>
      </trkpt>
      <trkpt lat="42.11701" lon="-8.84405">
        <ele>5.62</ele>
        <time>2018-07-28T12:03:38Z</time>
      </trkpt>
      <trkpt lat="42.11696" lon="-8.844">
        <ele>5.655</ele>
        <time>2018-07-28T12:03:39Z</time>
      </trkpt>
      <trkpt lat="42.11692" lon="-8.84394">
        <ele>5.643</ele>
        <time>2018-07-28T12:03:40Z</time>
      </trkpt>
      <trkpt lat="42.11688" lon="-8.84389">
        <ele>5.689</ele>
        <time>2018-07-28T12:03:41Z</time>
      </trkpt>
      <trkpt lat="42.11684" lon="-8.84384">
        <ele>5.632</ele>
        <time>2018-07-28T12:03:42Z</time>
      </trkpt>
      <trkpt lat="42.11679" lon="-8.84379">
        <ele>5.692</ele>
        <time>2018-07-28T12:03:43Z</time>
      </trkpt>
      <trkpt lat="42.11673" lon="-8.84374">
        <ele>5.611</ele>
        <time>2018-07-28T12:03:44Z</time>
      </trkpt>
      <trkpt lat="42.11668" lon="-8.84367">
        <ele>5.608</ele>
        <time>2018-07-28T12:03:45Z</time>
      </trkpt>
      <trkpt lat="42.11662" lon="-8.84361">
        <ele>5.655</ele>
        <time>2018-07-28T12:03:46Z</time>
      </trkpt>
      <trkpt lat="42.11656" lon="-8.84356">
        <ele>5.52</ele>
        <time>2018-07-28T12:03:47Z</time>
      </trkpt>
      <trkpt lat="42.11651" lon="-8.8435">
        <ele>5.543</ele>
        <time>2018-07-28T12:03:48Z</time>
      </trkpt>
      <trkpt lat="42.11645" lon="-8.84344">
        <ele>5.555</ele>
        <time>2018-07-28T12:03:49Z</time>
      </trkpt>
      <trkpt lat="42.11639" lon="-8.84337">
        <ele>5.51</ele>
        <time>2018-07-28T12:03:50Z</time>
      </trkpt>
      <trkpt lat="42.11633" lon="-8.8433">
        <ele>5.555</ele>
        <time>2018-07-28T12:03:51Z</time>
      </trkpt>
      <trkpt lat="42.11627" lon="-8.84323">
        <ele>5.693</ele>
        <time>2018-07-28T12:03:52Z</time>
      </trkpt>
      <trkpt lat="42.1162" lon="-8.84316">
        <ele>5.889</ele>
        <time>2018-07-28T12:03:53Z</time>
      </trkpt>
      <trkpt lat="42.11615" lon="-8.84309">
        <ele>5.923</ele>
        <time>2018-07-28T12:03:54Z</time>
      </trkpt>
      <trkpt lat="42.11609" lon="-8.84303">
        <ele>6.083</ele>
        <time>2018-07-28T12:03:55Z</time>
      </trkpt>
      <trkpt lat="42.11603" lon="-8.84296">
        <ele>6.011</ele>
        <time>2018-07-28T12:03:56Z</time>
      </trkpt>
      <trkpt lat="42.11598" lon="-8.8429">
        <ele>6.008</ele>
        <time>2018-07-28T12:03:57Z</time>
      </trkpt>
      <trkpt lat="42.11592" lon="-8.84284">
        <ele>5.914</ele>
        <time>2018-07-28T12:03:58Z</time>
      </trkpt>
      <trkpt lat="42.11586" lon="-8.84278">
        <ele>5.769</ele>
        <time>2018-07-28T12:03:59Z</time>
      </trkpt>
      <trkpt lat="42.1158" lon="-8.84271">
        <ele>5.682</ele>
        <time>2018-07-28T12:04:00Z</time>
      </trkpt>
      <trkpt lat="42.11575" lon="-8.84264">
        <ele>5.644</ele>
        <time>2018-07-28T12:04:01Z</time>
      </trkpt>
      <trkpt lat="42.11568" lon="-8.84257">
        <ele>5.679</ele>
        <time>2018-07-28T12:04:02Z</time>
      </trkpt>
      <trkpt lat="42.11562" lon="-8.8425">
        <ele>5.744</ele>
        <time>2018-07-28T12:04:03Z</time>
      </trkpt>
      <trkpt lat="42.11555" lon="-8.84243">
        <ele>5.822</ele>
        <time>2018-07-28T12:04:04Z</time>
      </trkpt>
      <trkpt lat="42.11549" lon="-8.84236">
        <ele>5.838</ele>
        <time>2018-07-28T12:04:05Z</time>
      </trkpt>
      <trkpt lat="42.11544" lon="-8.8423">
        <ele>5.857</ele>
        <time>2018-07-28T12:04:06Z</time>
      </trkpt>
      <trkpt lat="42.11539" lon="-8.84224">
        <ele>5.8</ele>
        <time>2018-07-28T12:04:07Z</time>
      </trkpt>
      <trkpt lat="42.11534" lon="-8.84219">
        <ele>5.72</ele>
        <time>2018-07-28T12:04:08Z</time>
      </trkpt>
      <trkpt lat="42.11529" lon="-8.84214">
        <ele>5.608</ele>
        <time>2018-07-28T12:04:09Z</time>
      </trkpt>
      <trkpt lat="42.11525" lon="-8.84208">
        <ele>5.537</ele>
        <time>2018-07-28T12:04:10Z</time>
      </trkpt>
      <trkpt lat="42.11521" lon="-8.84204">
        <ele>5.482</ele>
        <time>2018-07-28T12:04:11Z</time>
      </trkpt>
      <trkpt lat="42.11517" lon="-8.84199">
        <ele>5.325</ele>
        <time>2018-07-28T12:04:12Z</time>
      </trkpt>
      <trkpt lat="42.11512" lon="-8.84194">
        <ele>5.277</ele>
        <time>2018-07-28T12:04:13Z</time>
      </trkpt>
      <trkpt lat="42.11507" lon="-8.84188">
        <ele>5.232</ele>
        <time>2018-07-28T12:04:14Z</time>
      </trkpt>
      <trkpt lat="42.11501" lon="-8.84182">
        <ele>5.217</ele>
        <time>2018-07-28T12:04:15Z</time>
      </trkpt>
      <trkpt lat="42.11495" lon="-8.84176">
        <ele>5.285</ele>
        <time>2018-07-28T12:04:16Z</time>
      </trkpt>
      <trkpt lat="42.1149" lon="-8.8417">
        <ele>5.231</ele>
        <time>2018-07-28T12:04:17Z</time>
      </trkpt>
      <trkpt lat="42.11486" lon="-8.84166">
        <ele>5.253</ele>
        <time>2018-07-28T12:04:18Z</time>
      </trkpt>
      <trkpt lat="42.11479" lon="-8.84159">
        <ele>5.104</ele>
        <time>2018-07-28T12:04:20Z</time>
      </trkpt>
      <trkpt lat="42.11474" lon="-8.84151">
        <ele>5.014</ele>
        <time>2018-07-28T12:04:22Z</time>
      </trkpt>
      <trkpt lat="42.11471" lon="-8.84147">
        <ele>4.908</ele>
        <time>2018-07-28T12:04:24Z</time>
      </trkpt>
      <trkpt lat="42.11467" lon="-8.84139">
        <ele>4.997</ele>
        <time>2018-07-28T12:04:27Z</time>
      </trkpt>
      <trkpt lat="42.11462" lon="-8.84131">
        <ele>5.082</ele>
        <time>2018-07-28T12:04:29Z</time>
      </trkpt>
      <trkpt lat="42.11459" lon="-8.84126">
        <ele>5.155</ele>
        <time>2018-07-28T12:04:30Z</time>
      </trkpt>
      <trkpt lat="42.11455" lon="-8.84121">
        <ele>5.247</ele>
        <time>2018-07-28T12:04:31Z</time>
      </trkpt>
      <trkpt lat="42.11451" lon="-8.84116">
        <ele>5.442</ele>
        <time>2018-07-28T12:04:32Z</time>
      </trkpt>
      <trkpt lat="42.11448" lon="-8.84111">
        <ele>5.537</ele>
        <time>2018-07-28T12:04:33Z</time>
      </trkpt>
      <trkpt lat="42.11443" lon="-8.84107">
        <ele>5.575</ele>
        <time>2018-07-28T12:04:34Z</time>
      </trkpt>
      <trkpt lat="42.11438" lon="-8.84105">
        <ele>5.541</ele>
        <time>2018-07-28T12:04:35Z</time>
      </trkpt>
      <trkpt lat="42.11433" lon="-8.84104">
        <ele>5.592</ele>
        <time>2018-07-28T12:04:36Z</time>
      </trkpt>
      <trkpt lat="42.11427" lon="-8.84096">
        <ele>5.673</ele>
        <time>2018-07-28T12:04:38Z</time>
      </trkpt>
      <trkpt lat="42.11426" lon="-8.84091">
        <ele>5.62</ele>
        <time>2018-07-28T12:04:39Z</time>
      </trkpt>
      <trkpt lat="42.11427" lon="-8.84084">
        <ele>5.608</ele>
        <time>2018-07-28T12:04:40Z</time>
      </trkpt>
      <trkpt lat="42.11429" lon="-8.84076">
        <ele>5.651</ele>
        <time>2018-07-28T12:04:41Z</time>
      </trkpt>
      <trkpt lat="42.11431" lon="-8.84067">
        <ele>5.766</ele>
        <time>2018-07-28T12:04:42Z</time>
      </trkpt>
      <trkpt lat="42.11432" lon="-8.84056">
        <ele>5.849</ele>
        <time>2018-07-28T12:04:43Z</time>
      </trkpt>
      <trkpt lat="42.11431" lon="-8.84044">
        <ele>5.981</ele>
        <time>2018-07-28T12:04:44Z</time>
      </trkpt>
      <trkpt lat="42.11428" lon="-8.84032">
        <ele>6.076</ele>
        <time>2018-07-28T12:04:45Z</time>
      </trkpt>
      <trkpt lat="42.11425" lon="-8.84022">
        <ele>6.011</ele>
        <time>2018-07-28T12:04:46Z</time>
      </trkpt>
      <trkpt lat="42.11423" lon="-8.84013">
        <ele>6.019</ele>
        <time>2018-07-28T12:04:47Z</time>
      </trkpt>
      <trkpt lat="42.11421" lon="-8.84006">
        <ele>5.825</ele>
        <time>2018-07-28T12:04:48Z</time>
      </trkpt>
      <trkpt lat="42.11419" lon="-8.83998">
        <ele>5.664</ele>
        <time>2018-07-28T12:04:49Z</time>
      </trkpt>
      <trkpt lat="42.11417" lon="-8.8399">
        <ele>5.506</ele>
        <time>2018-07-28T12:04:50Z</time>
      </trkpt>
      <trkpt lat="42.11415" lon="-8.83982">
        <ele>5.416</ele>
        <time>2018-07-28T12:04:51Z</time>
      </trkpt>
      <trkpt lat="42.11413" lon="-8.83973">
        <ele>5.408</ele>
        <time>2018-07-28T12:04:52Z</time>
      </trkpt>
      <trkpt lat="42.1141" lon="-8.83965">
        <ele>5.438</ele>
        <time>2018-07-28T12:04:53Z</time>
      </trkpt>
      <trkpt lat="42.11408" lon="-8.83958">
        <ele>5.433</ele>
        <time>2018-07-28T12:04:54Z</time>
      </trkpt>
      <trkpt lat="42.11406" lon="-8.83952">
        <ele>5.476</ele>
        <time>2018-07-28T12:04:55Z</time>
      </trkpt>
      <trkpt lat="42.11403" lon="-8.83941">
        <ele>5.338</ele>
        <time>2018-07-28T12:04:57Z</time>
      </trkpt>
      <trkpt lat="42.11401" lon="-8.83935">
        <ele>5.093</ele>
        <time>2018-07-28T12:04:59Z</time>
      </trkpt>
      <trkpt lat="42.11398" lon="-8.83929">
        <ele>4.718</ele>
        <time>2018-07-28T12:05:07Z</time>
      </trkpt>
      <trkpt lat="42.11394" lon="-8.83916">
        <ele>4.916</ele>
        <time>2018-07-28T12:05:09Z</time>
      </trkpt>
      <trkpt lat="42.11391" lon="-8.83907">
        <ele>5.032</ele>
        <time>2018-07-28T12:05:10Z</time>
      </trkpt>
      <trkpt lat="42.11388" lon="-8.83898">
        <ele>5.181</ele>
        <time>2018-07-28T12:05:11Z</time>
      </trkpt>
      <trkpt lat="42.11386" lon="-8.8389">
        <ele>5.261</ele>
        <time>2018-07-28T12:05:12Z</time>
      </trkpt>
      <trkpt lat="42.11384" lon="-8.83882">
        <ele>5.217</ele>
        <time>2018-07-28T12:05:13Z</time>
      </trkpt>
      <trkpt lat="42.11383" lon="-8.83874">
        <ele>5.208</ele>
        <time>2018-07-28T12:05:14Z</time>
      </trkpt>
      <trkpt lat="42.1138" lon="-8.83865">
        <ele>5.34</ele>
        <time>2018-07-28T12:05:15Z</time>
      </trkpt>
      <trkpt lat="42.11379" lon="-8.83856">
        <ele>5.315</ele>
        <time>2018-07-28T12:05:16Z</time>
      </trkpt>
      <trkpt lat="42.11376" lon="-8.83847">
        <ele>5.318</ele>
        <time>2018-07-28T12:05:17Z</time>
      </trkpt>
      <trkpt lat="42.11374" lon="-8.83839">
        <ele>5.41</ele>
        <time>2018-07-28T12:05:18Z</time>
      </trkpt>
      <trkpt lat="42.11371" lon="-8.8383">
        <ele>5.485</ele>
        <time>2018-07-28T12:05:19Z</time>
      </trkpt>
      <trkpt lat="42.11368" lon="-8.83822">
        <ele>5.44</ele>
        <time>2018-07-28T12:05:20Z</time>
      </trkpt>
      <trkpt lat="42.11365" lon="-8.83812">
        <ele>5.448</ele>
        <time>2018-07-28T12:05:21Z</time>
      </trkpt>
      <trkpt lat="42.11362" lon="-8.838">
        <ele>5.554</ele>
        <time>2018-07-28T12:05:22Z</time>
      </trkpt>
      <trkpt lat="42.11358" lon="-8.83788">
        <ele>5.779</ele>
        <time>2018-07-28T12:05:23Z</time>
      </trkpt>
      <trkpt lat="42.11355" lon="-8.83776">
        <ele>6.005</ele>
        <time>2018-07-28T12:05:24Z</time>
      </trkpt>
      <trkpt lat="42.11352" lon="-8.83765">
        <ele>6.325</ele>
        <time>2018-07-28T12:05:25Z</time>
      </trkpt>
      <trkpt lat="42.1135" lon="-8.83756">
        <ele>6.508</ele>
        <time>2018-07-28T12:05:26Z</time>
      </trkpt>
      <trkpt lat="42.11347" lon="-8.83748">
        <ele>6.639</ele>
        <time>2018-07-28T12:05:27Z</time>
      </trkpt>
      <trkpt lat="42.11345" lon="-8.83739">
        <ele>6.684</ele>
        <time>2018-07-28T12:05:28Z</time>
      </trkpt>
      <trkpt lat="42.11342" lon="-8.83729">
        <ele>6.557</ele>
        <time>2018-07-28T12:05:29Z</time>
      </trkpt>
      <trkpt lat="42.11338" lon="-8.83719">
        <ele>6.559</ele>
        <time>2018-07-28T12:05:30Z</time>
      </trkpt>
      <trkpt lat="42.11333" lon="-8.83709">
        <ele>6.574</ele>
        <time>2018-07-28T12:05:31Z</time>
      </trkpt>
      <trkpt lat="42.11327" lon="-8.837">
        <ele>6.629</ele>
        <time>2018-07-28T12:05:32Z</time>
      </trkpt>
      <trkpt lat="42.11322" lon="-8.8369">
        <ele>7.097</ele>
        <time>2018-07-28T12:05:33Z</time>
      </trkpt>
      <trkpt lat="42.11315" lon="-8.83681">
        <ele>7.123</ele>
        <time>2018-07-28T12:05:34Z</time>
      </trkpt>
      <trkpt lat="42.11308" lon="-8.83673">
        <ele>7.192</ele>
        <time>2018-07-28T12:05:35Z</time>
      </trkpt>
      <trkpt lat="42.11301" lon="-8.83666">
        <ele>7.173</ele>
        <time>2018-07-28T12:05:36Z</time>
      </trkpt>
      <trkpt lat="42.11294" lon="-8.83659">
        <ele>7.12</ele>
        <time>2018-07-28T12:05:37Z</time>
      </trkpt>
      <trkpt lat="42.11287" lon="-8.83654">
        <ele>7.108</ele>
        <time>2018-07-28T12:05:38Z</time>
      </trkpt>
      <trkpt lat="42.1128" lon="-8.83648">
        <ele>7.171</ele>
        <time>2018-07-28T12:05:39Z</time>
      </trkpt>
      <trkpt lat="42.11273" lon="-8.83642">
        <ele>7.056</ele>
        <time>2018-07-28T12:05:40Z</time>
      </trkpt>
      <trkpt lat="42.11265" lon="-8.83636">
        <ele>6.939</ele>
        <time>2018-07-28T12:05:41Z</time>
      </trkpt>
      <trkpt lat="42.11258" lon="-8.83631">
        <ele>6.831</ele>
        <time>2018-07-28T12:05:42Z</time>
      </trkpt>
      <trkpt lat="42.1125" lon="-8.83625">
        <ele>6.796</ele>
        <time>2018-07-28T12:05:43Z</time>
      </trkpt>
      <trkpt lat="42.11243" lon="-8.83619">
        <ele>6.711</ele>
        <time>2018-07-28T12:05:44Z</time>
      </trkpt>
      <trkpt lat="42.11235" lon="-8.83613">
        <ele>7.199</ele>
        <time>2018-07-28T12:05:45Z</time>
      </trkpt>
      <trkpt lat="42.11227" lon="-8.83608">
        <ele>7.415</ele>
        <time>2018-07-28T12:05:46Z</time>
      </trkpt>
      <trkpt lat="42.1122" lon="-8.83602">
        <ele>7.522</ele>
        <time>2018-07-28T12:05:47Z</time>
      </trkpt>
      <trkpt lat="42.11213" lon="-8.83597">
        <ele>7.562</ele>
        <time>2018-07-28T12:05:48Z</time>
      </trkpt>
      <trkpt lat="42.11206" lon="-8.83591">
        <ele>7.108</ele>
        <time>2018-07-28T12:05:49Z</time>
      </trkpt>
      <trkpt lat="42.11199" lon="-8.83586">
        <ele>6.708</ele>
        <time>2018-07-28T12:05:50Z</time>
      </trkpt>
      <trkpt lat="42.11192" lon="-8.83581">
        <ele>6.644</ele>
        <time>2018-07-28T12:05:51Z</time>
      </trkpt>
      <trkpt lat="42.11184" lon="-8.83576">
        <ele>6.619</ele>
        <time>2018-07-28T12:05:52Z</time>
      </trkpt>
      <trkpt lat="42.11177" lon="-8.8357">
        <ele>6.742</ele>
        <time>2018-07-28T12:05:53Z</time>
      </trkpt>
      <trkpt lat="42.1117" lon="-8.83565">
        <ele>6.944</ele>
        <time>2018-07-28T12:05:54Z</time>
      </trkpt>
      <trkpt lat="42.11163" lon="-8.8356">
        <ele>7.069</ele>
        <time>2018-07-28T12:05:55Z</time>
      </trkpt>
      <trkpt lat="42.11157" lon="-8.83556">
        <ele>7.074</ele>
        <time>2018-07-28T12:05:56Z</time>
      </trkpt>
      <trkpt lat="42.11152" lon="-8.83553">
        <ele>6.972</ele>
        <time>2018-07-28T12:05:57Z</time>
      </trkpt>
      <trkpt lat="42.11145" lon="-8.83549">
        <ele>6.378</ele>
        <time>2018-07-28T12:05:59Z</time>
      </trkpt>
      <trkpt lat="42.1114" lon="-8.83546">
        <ele>5.826</ele>
        <time>2018-07-28T12:06:01Z</time>
      </trkpt>
      <trkpt lat="42.11135" lon="-8.83541">
        <ele>5.647</ele>
        <time>2018-07-28T12:06:03Z</time>
      </trkpt>
      <trkpt lat="42.11132" lon="-8.83527">
        <ele>5.911</ele>
        <time>2018-07-28T12:06:05Z</time>
      </trkpt>
      <trkpt lat="42.11132" lon="-8.83519">
        <ele>6.108</ele>
        <time>2018-07-28T12:06:06Z</time>
      </trkpt>
      <trkpt lat="42.11133" lon="-8.8351">
        <ele>6.364</ele>
        <time>2018-07-28T12:06:07Z</time>
      </trkpt>
      <trkpt lat="42.11135" lon="-8.83502">
        <ele>6.389</ele>
        <time>2018-07-28T12:06:08Z</time>
      </trkpt>
      <trkpt lat="42.11136" lon="-8.83494">
        <ele>6.312</ele>
        <time>2018-07-28T12:06:09Z</time>
      </trkpt>
      <trkpt lat="42.11137" lon="-8.83486">
        <ele>6.294</ele>
        <time>2018-07-28T12:06:10Z</time>
      </trkpt>
      <trkpt lat="42.11136" lon="-8.83479">
        <ele>6.059</ele>
        <time>2018-07-28T12:06:11Z</time>
      </trkpt>
      <trkpt lat="42.11135" lon="-8.83471">
        <ele>5.824</ele>
        <time>2018-07-28T12:06:12Z</time>
      </trkpt>
      <trkpt lat="42.11134" lon="-8.83464">
        <ele>5.652</ele>
        <time>2018-07-28T12:06:13Z</time>
      </trkpt>
      <trkpt lat="42.11134" lon="-8.83457">
        <ele>5.618</ele>
        <time>2018-07-28T12:06:14Z</time>
      </trkpt>
      <trkpt lat="42.11132" lon="-8.83451">
        <ele>5.618</ele>
        <time>2018-07-28T12:06:15Z</time>
      </trkpt>
      <trkpt lat="42.11132" lon="-8.83445">
        <ele>5.698</ele>
        <time>2018-07-28T12:06:16Z</time>
      </trkpt>
      <trkpt lat="42.11132" lon="-8.83438">
        <ele>5.617</ele>
        <time>2018-07-28T12:06:17Z</time>
      </trkpt>
      <trkpt lat="42.11131" lon="-8.83431">
        <ele>5.608</ele>
        <time>2018-07-28T12:06:18Z</time>
      </trkpt>
      <trkpt lat="42.11129" lon="-8.83424">
        <ele>5.673</ele>
        <time>2018-07-28T12:06:19Z</time>
      </trkpt>
      <trkpt lat="42.11127" lon="-8.83415">
        <ele>5.718</ele>
        <time>2018-07-28T12:06:20Z</time>
      </trkpt>
      <trkpt lat="42.11126" lon="-8.83406">
        <ele>5.891</ele>
        <time>2018-07-28T12:06:21Z</time>
      </trkpt>
      <trkpt lat="42.11124" lon="-8.83395">
        <ele>6.063</ele>
        <time>2018-07-28T12:06:22Z</time>
      </trkpt>
      <trkpt lat="42.11122" lon="-8.83383">
        <ele>6.338</ele>
        <time>2018-07-28T12:06:23Z</time>
      </trkpt>
      <trkpt lat="42.11121" lon="-8.83371">
        <ele>6.323</ele>
        <time>2018-07-28T12:06:24Z</time>
      </trkpt>
      <trkpt lat="42.1112" lon="-8.83357">
        <ele>6.521</ele>
        <time>2018-07-28T12:06:25Z</time>
      </trkpt>
      <trkpt lat="42.11118" lon="-8.83344">
        <ele>6.967</ele>
        <time>2018-07-28T12:06:26Z</time>
      </trkpt>
      <trkpt lat="42.11117" lon="-8.83332">
        <ele>6.934</ele>
        <time>2018-07-28T12:06:27Z</time>
      </trkpt>
      <trkpt lat="42.11116" lon="-8.83321">
        <ele>6.955</ele>
        <time>2018-07-28T12:06:28Z</time>
      </trkpt>
      <trkpt lat="42.11114" lon="-8.83312">
        <ele>6.91</ele>
        <time>2018-07-28T12:06:29Z</time>
      </trkpt>
      <trkpt lat="42.11113" lon="-8.83302">
        <ele>6.708</ele>
        <time>2018-07-28T12:06:30Z</time>
      </trkpt>
      <trkpt lat="42.11113" lon="-8.83292">
        <ele>6.525</ele>
        <time>2018-07-28T12:06:31Z</time>
      </trkpt>
      <trkpt lat="42.11114" lon="-8.8328">
        <ele>6.25</ele>
        <time>2018-07-28T12:06:32Z</time>
      </trkpt>
      <trkpt lat="42.11113" lon="-8.83267">
        <ele>6.543</ele>
        <time>2018-07-28T12:06:33Z</time>
      </trkpt>
      <trkpt lat="42.11112" lon="-8.83255">
        <ele>6.515</ele>
        <time>2018-07-28T12:06:34Z</time>
      </trkpt>
      <trkpt lat="42.11111" lon="-8.83243">
        <ele>6.51</ele>
        <time>2018-07-28T12:06:35Z</time>
      </trkpt>
      <trkpt lat="42.1111" lon="-8.83232">
        <ele>6.755</ele>
        <time>2018-07-28T12:06:36Z</time>
      </trkpt>
      <trkpt lat="42.11109" lon="-8.83222">
        <ele>6.763</ele>
        <time>2018-07-28T12:06:37Z</time>
      </trkpt>
      <trkpt lat="42.11108" lon="-8.83211">
        <ele>6.799</ele>
        <time>2018-07-28T12:06:38Z</time>
      </trkpt>
      <trkpt lat="42.11105" lon="-8.832">
        <ele>6.564</ele>
        <time>2018-07-28T12:06:39Z</time>
      </trkpt>
      <trkpt lat="42.11104" lon="-8.83189">
        <ele>6.306</ele>
        <time>2018-07-28T12:06:40Z</time>
      </trkpt>
      <trkpt lat="42.11102" lon="-8.83179">
        <ele>6.216</ele>
        <time>2018-07-28T12:06:41Z</time>
      </trkpt>
      <trkpt lat="42.11102" lon="-8.83169">
        <ele>6.108</ele>
        <time>2018-07-28T12:06:42Z</time>
      </trkpt>
      <trkpt lat="42.11101" lon="-8.83159">
        <ele>6.028</ele>
        <time>2018-07-28T12:06:43Z</time>
      </trkpt>
      <trkpt lat="42.11099" lon="-8.83148">
        <ele>6.043</ele>
        <time>2018-07-28T12:06:44Z</time>
      </trkpt>
      <trkpt lat="42.11098" lon="-8.83137">
        <ele>6.036</ele>
        <time>2018-07-28T12:06:45Z</time>
      </trkpt>
      <trkpt lat="42.11097" lon="-8.83126">
        <ele>6.168</ele>
        <time>2018-07-28T12:06:46Z</time>
      </trkpt>
      <trkpt lat="42.11095" lon="-8.83117">
        <ele>6.163</ele>
        <time>2018-07-28T12:06:47Z</time>
      </trkpt>
      <trkpt lat="42.11093" lon="-8.83108">
        <ele>6.148</ele>
        <time>2018-07-28T12:06:48Z</time>
      </trkpt>
      <trkpt lat="42.11093" lon="-8.83098">
        <ele>6.046</ele>
        <time>2018-07-28T12:06:49Z</time>
      </trkpt>
      <trkpt lat="42.11092" lon="-8.83089">
        <ele>5.992</ele>
        <time>2018-07-28T12:06:50Z</time>
      </trkpt>
      <trkpt lat="42.1109" lon="-8.8308">
        <ele>5.954</ele>
        <time>2018-07-28T12:06:51Z</time>
      </trkpt>
      <trkpt lat="42.11088" lon="-8.83069">
        <ele>5.956</ele>
        <time>2018-07-28T12:06:52Z</time>
      </trkpt>
      <trkpt lat="42.11087" lon="-8.83058">
        <ele>6.011</ele>
        <time>2018-07-28T12:06:53Z</time>
      </trkpt>
      <trkpt lat="42.11086" lon="-8.83048">
        <ele>6.108</ele>
        <time>2018-07-28T12:06:54Z</time>
      </trkpt>
      <trkpt lat="42.11085" lon="-8.83038">
        <ele>6.227</ele>
        <time>2018-07-28T12:06:55Z</time>
      </trkpt>
      <trkpt lat="42.11085" lon="-8.83029">
        <ele>6.262</ele>
        <time>2018-07-28T12:06:56Z</time>
      </trkpt>
      <trkpt lat="42.11084" lon="-8.8302">
        <ele>6.225</ele>
        <time>2018-07-28T12:06:57Z</time>
      </trkpt>
      <trkpt lat="42.11083" lon="-8.83013">
        <ele>6.267</ele>
        <time>2018-07-28T12:06:58Z</time>
      </trkpt>
      <trkpt lat="42.11082" lon="-8.83006">
        <ele>6.122</ele>
        <time>2018-07-28T12:06:59Z</time>
      </trkpt>
      <trkpt lat="42.1108" lon="-8.83">
        <ele>6.087</ele>
        <time>2018-07-28T12:07:00Z</time>
      </trkpt>
      <trkpt lat="42.11079" lon="-8.82993">
        <ele>5.935</ele>
        <time>2018-07-28T12:07:01Z</time>
      </trkpt>
      <trkpt lat="42.11078" lon="-8.82986">
        <ele>5.871</ele>
        <time>2018-07-28T12:07:02Z</time>
      </trkpt>
      <trkpt lat="42.11077" lon="-8.8298">
        <ele>5.718</ele>
        <time>2018-07-28T12:07:03Z</time>
      </trkpt>
      <trkpt lat="42.11076" lon="-8.82972">
        <ele>5.698</ele>
        <time>2018-07-28T12:07:04Z</time>
      </trkpt>
      <trkpt lat="42.11075" lon="-8.82964">
        <ele>5.617</ele>
        <time>2018-07-28T12:07:05Z</time>
      </trkpt>
      <trkpt lat="42.11075" lon="-8.82956">
        <ele>5.708</ele>
        <time>2018-07-28T12:07:06Z</time>
      </trkpt>
      <trkpt lat="42.11072" lon="-8.82947">
        <ele>5.773</ele>
        <time>2018-07-28T12:07:07Z</time>
      </trkpt>
      <trkpt lat="42.11071" lon="-8.82939">
        <ele>5.758</ele>
        <time>2018-07-28T12:07:08Z</time>
      </trkpt>
      <trkpt lat="42.1107" lon="-8.8293">
        <ele>5.741</ele>
        <time>2018-07-28T12:07:09Z</time>
      </trkpt>
      <trkpt lat="42.11069" lon="-8.82921">
        <ele>5.783</ele>
        <time>2018-07-28T12:07:10Z</time>
      </trkpt>
      <trkpt lat="42.11068" lon="-8.82912">
        <ele>5.778</ele>
        <time>2018-07-28T12:07:11Z</time>
      </trkpt>
      <trkpt lat="42.11062" lon="-8.82904">
        <ele>5.733</ele>
        <time>2018-07-28T12:07:12Z</time>
      </trkpt>
      <trkpt lat="42.11062" lon="-8.82894">
        <ele>5.851</ele>
        <time>2018-07-28T12:07:13Z</time>
      </trkpt>
      <trkpt lat="42.11061" lon="-8.82884">
        <ele>5.957</ele>
        <time>2018-07-28T12:07:14Z</time>
      </trkpt>
      <trkpt lat="42.1106" lon="-8.82874">
        <ele>6.081</ele>
        <time>2018-07-28T12:07:15Z</time>
      </trkpt>
      <trkpt lat="42.1106" lon="-8.82865">
        <ele>6.161</ele>
        <time>2018-07-28T12:07:16Z</time>
      </trkpt>
      <trkpt lat="42.1106" lon="-8.82858">
        <ele>6.117</ele>
        <time>2018-07-28T12:07:17Z</time>
      </trkpt>
      <trkpt lat="42.11059" lon="-8.82851">
        <ele>6.108</ele>
        <time>2018-07-28T12:07:18Z</time>
      </trkpt>
      <trkpt lat="42.11058" lon="-8.82844">
        <ele>5.99</ele>
        <time>2018-07-28T12:07:19Z</time>
      </trkpt>
      <trkpt lat="42.11058" lon="-8.82838">
        <ele>5.765</ele>
        <time>2018-07-28T12:07:20Z</time>
      </trkpt>
      <trkpt lat="42.11057" lon="-8.82831">
        <ele>5.678</ele>
        <time>2018-07-28T12:07:21Z</time>
      </trkpt>
      <trkpt lat="42.11056" lon="-8.82824">
        <ele>5.62</ele>
        <time>2018-07-28T12:07:22Z</time>
      </trkpt>
      <trkpt lat="42.11056" lon="-8.82817">
        <ele>5.695</ele>
        <time>2018-07-28T12:07:23Z</time>
      </trkpt>
      <trkpt lat="42.11055" lon="-8.8281">
        <ele>5.67</ele>
        <time>2018-07-28T12:07:24Z</time>
      </trkpt>
      <trkpt lat="42.11054" lon="-8.82802">
        <ele>5.728</ele>
        <time>2018-07-28T12:07:25Z</time>
      </trkpt>
      <trkpt lat="42.11052" lon="-8.82793">
        <ele>5.894</ele>
        <time>2018-07-28T12:07:26Z</time>
      </trkpt>
      <trkpt lat="42.11052" lon="-8.82782">
        <ele>5.946</ele>
        <time>2018-07-28T12:07:27Z</time>
      </trkpt>
      <trkpt lat="42.11052" lon="-8.82772">
        <ele>5.988</ele>
        <time>2018-07-28T12:07:28Z</time>
      </trkpt>
      <trkpt lat="42.1105" lon="-8.82762">
        <ele>5.916</ele>
        <time>2018-07-28T12:07:29Z</time>
      </trkpt>
      <trkpt lat="42.11048" lon="-8.82752">
        <ele>5.908</ele>
        <time>2018-07-28T12:07:30Z</time>
      </trkpt>
      <trkpt lat="42.11047" lon="-8.82743">
        <ele>5.926</ele>
        <time>2018-07-28T12:07:31Z</time>
      </trkpt>
      <trkpt lat="42.11046" lon="-8.82736">
        <ele>5.891</ele>
        <time>2018-07-28T12:07:32Z</time>
      </trkpt>
      <trkpt lat="42.11046" lon="-8.82728">
        <ele>5.894</ele>
        <time>2018-07-28T12:07:33Z</time>
      </trkpt>
      <trkpt lat="42.11045" lon="-8.82721">
        <ele>5.776</ele>
        <time>2018-07-28T12:07:34Z</time>
      </trkpt>
      <trkpt lat="42.11043" lon="-8.82713">
        <ele>5.761</ele>
        <time>2018-07-28T12:07:35Z</time>
      </trkpt>
      <trkpt lat="42.11042" lon="-8.82705">
        <ele>5.736</ele>
        <time>2018-07-28T12:07:36Z</time>
      </trkpt>
      <trkpt lat="42.1104" lon="-8.82697">
        <ele>5.724</ele>
        <time>2018-07-28T12:07:37Z</time>
      </trkpt>
      <trkpt lat="42.11039" lon="-8.82689">
        <ele>5.77</ele>
        <time>2018-07-28T12:07:38Z</time>
      </trkpt>
      <trkpt lat="42.11038" lon="-8.82682">
        <ele>5.892</ele>
        <time>2018-07-28T12:07:39Z</time>
      </trkpt>
      <trkpt lat="42.11037" lon="-8.82675">
        <ele>5.873</ele>
        <time>2018-07-28T12:07:40Z</time>
      </trkpt>
      <trkpt lat="42.11037" lon="-8.82668">
        <ele>5.82</ele>
        <time>2018-07-28T12:07:41Z</time>
      </trkpt>
      <trkpt lat="42.11036" lon="-8.82656">
        <ele>5.708</ele>
        <time>2018-07-28T12:07:43Z</time>
      </trkpt>
      <trkpt lat="42.11036" lon="-8.82645">
        <ele>5.611</ele>
        <time>2018-07-28T12:07:45Z</time>
      </trkpt>
      <trkpt lat="42.11033" lon="-8.82638">
        <ele>5.686</ele>
        <time>2018-07-28T12:07:47Z</time>
      </trkpt>
      <trkpt lat="42.1103" lon="-8.82634">
        <ele>5.639</ele>
        <time>2018-07-28T12:07:51Z</time>
      </trkpt>
      <trkpt lat="42.11029" lon="-8.82628">
        <ele>5.651</ele>
        <time>2018-07-28T12:07:54Z</time>
      </trkpt>
      <trkpt lat="42.11026" lon="-8.82623">
        <ele>5.676</ele>
        <time>2018-07-28T12:07:55Z</time>
      </trkpt>
      <trkpt lat="42.11021" lon="-8.82622">
        <ele>5.611</ele>
        <time>2018-07-28T12:07:56Z</time>
      </trkpt>
      <trkpt lat="42.11016" lon="-8.8262">
        <ele>5.679</ele>
        <time>2018-07-28T12:07:57Z</time>
      </trkpt>
      <trkpt lat="42.1101" lon="-8.82617">
        <ele>5.625</ele>
        <time>2018-07-28T12:07:58Z</time>
      </trkpt>
      <trkpt lat="42.11006" lon="-8.82613">
        <ele>5.624</ele>
        <time>2018-07-28T12:07:59Z</time>
      </trkpt>
      <trkpt lat="42.11004" lon="-8.82608">
        <ele>5.504</ele>
        <time>2018-07-28T12:08:00Z</time>
      </trkpt>
      <trkpt lat="42.11002" lon="-8.82602">
        <ele>5.414</ele>
        <time>2018-07-28T12:08:01Z</time>
      </trkpt>
      <trkpt lat="42.11001" lon="-8.82596">
        <ele>5.308</ele>
        <time>2018-07-28T12:08:02Z</time>
      </trkpt>
      <trkpt lat="42.11002" lon="-8.82589">
        <ele>5.174</ele>
        <time>2018-07-28T12:08:03Z</time>
      </trkpt>
      <trkpt lat="42.11005" lon="-8.82583">
        <ele>5.129</ele>
        <time>2018-07-28T12:08:04Z</time>
      </trkpt>
      <trkpt lat="42.11011" lon="-8.82579">
        <ele>5.132</ele>
        <time>2018-07-28T12:08:05Z</time>
      </trkpt>
      <trkpt lat="42.11017" lon="-8.82577">
        <ele>5.314</ele>
        <time>2018-07-28T12:08:06Z</time>
      </trkpt>
      <trkpt lat="42.11024" lon="-8.82575">
        <ele>5.619</ele>
        <time>2018-07-28T12:08:07Z</time>
      </trkpt>
      <trkpt lat="42.1103" lon="-8.82573">
        <ele>5.964</ele>
        <time>2018-07-28T12:08:08Z</time>
      </trkpt>
      <trkpt lat="42.11037" lon="-8.8257">
        <ele>6.182</ele>
        <time>2018-07-28T12:08:09Z</time>
      </trkpt>
      <trkpt lat="42.11044" lon="-8.82567">
        <ele>6.358</ele>
        <time>2018-07-28T12:08:10Z</time>
      </trkpt>
      <trkpt lat="42.11052" lon="-8.82563">
        <ele>6.542</ele>
        <time>2018-07-28T12:08:11Z</time>
      </trkpt>
      <trkpt lat="42.1106" lon="-8.82558">
        <ele>6.622</ele>
        <time>2018-07-28T12:08:12Z</time>
      </trkpt>
      <trkpt lat="42.1107" lon="-8.82553">
        <ele>6.714</ele>
        <time>2018-07-28T12:08:13Z</time>
      </trkpt>
      <trkpt lat="42.1108" lon="-8.82547">
        <ele>6.908</ele>
        <time>2018-07-28T12:08:14Z</time>
      </trkpt>
      <trkpt lat="42.1109" lon="-8.82543">
        <ele>7.136</ele>
        <time>2018-07-28T12:08:15Z</time>
      </trkpt>
      <trkpt lat="42.111" lon="-8.82538">
        <ele>7.291</ele>
        <time>2018-07-28T12:08:16Z</time>
      </trkpt>
      <trkpt lat="42.1111" lon="-8.82533">
        <ele>7.434</ele>
        <time>2018-07-28T12:08:17Z</time>
      </trkpt>
      <trkpt lat="42.1112" lon="-8.82528">
        <ele>7.496</ele>
        <time>2018-07-28T12:08:18Z</time>
      </trkpt>
      <trkpt lat="42.1113" lon="-8.82523">
        <ele>7.321</ele>
        <time>2018-07-28T12:08:19Z</time>
      </trkpt>
      <trkpt lat="42.11139" lon="-8.82518">
        <ele>7.246</ele>
        <time>2018-07-28T12:08:20Z</time>
      </trkpt>
      <trkpt lat="42.11147" lon="-8.82514">
        <ele>6.934</ele>
        <time>2018-07-28T12:08:21Z</time>
      </trkpt>
      <trkpt lat="42.11155" lon="-8.8251">
        <ele>6.76</ele>
        <time>2018-07-28T12:08:22Z</time>
      </trkpt>
      <trkpt lat="42.11162" lon="-8.82504">
        <ele>6.432</ele>
        <time>2018-07-28T12:08:23Z</time>
      </trkpt>
      <trkpt lat="42.11169" lon="-8.82495">
        <ele>6.292</ele>
        <time>2018-07-28T12:08:24Z</time>
      </trkpt>
      <trkpt lat="42.11175" lon="-8.82486">
        <ele>6.211</ele>
        <time>2018-07-28T12:08:25Z</time>
      </trkpt>
      <trkpt lat="42.1118" lon="-8.82476">
        <ele>6.108</ele>
        <time>2018-07-28T12:08:26Z</time>
      </trkpt>
      <trkpt lat="42.11183" lon="-8.82464">
        <ele>6.195</ele>
        <time>2018-07-28T12:08:27Z</time>
      </trkpt>
      <trkpt lat="42.11186" lon="-8.82452">
        <ele>6.11</ele>
        <time>2018-07-28T12:08:28Z</time>
      </trkpt>
      <trkpt lat="42.11188" lon="-8.82439">
        <ele>6.173</ele>
        <time>2018-07-28T12:08:29Z</time>
      </trkpt>
      <trkpt lat="42.1119" lon="-8.82427">
        <ele>6.165</ele>
        <time>2018-07-28T12:08:30Z</time>
      </trkpt>
      <trkpt lat="42.11191" lon="-8.82414">
        <ele>6.17</ele>
        <time>2018-07-28T12:08:31Z</time>
      </trkpt>
      <trkpt lat="42.11192" lon="-8.82401">
        <ele>6.135</ele>
        <time>2018-07-28T12:08:32Z</time>
      </trkpt>
      <trkpt lat="42.11193" lon="-8.82388">
        <ele>6.223</ele>
        <time>2018-07-28T12:08:33Z</time>
      </trkpt>
      <trkpt lat="42.11194" lon="-8.82375">
        <ele>6.299</ele>
        <time>2018-07-28T12:08:34Z</time>
      </trkpt>
      <trkpt lat="42.11195" lon="-8.82362">
        <ele>6.276</ele>
        <time>2018-07-28T12:08:35Z</time>
      </trkpt>
      <trkpt lat="42.11196" lon="-8.82348">
        <ele>6.39</ele>
        <time>2018-07-28T12:08:36Z</time>
      </trkpt>
      <trkpt lat="42.11197" lon="-8.82333">
        <ele>6.419</ele>
        <time>2018-07-28T12:08:37Z</time>
      </trkpt>
      <trkpt lat="42.11198" lon="-8.82319">
        <ele>6.608</ele>
        <time>2018-07-28T12:08:38Z</time>
      </trkpt>
      <trkpt lat="42.11199" lon="-8.82305">
        <ele>6.869</ele>
        <time>2018-07-28T12:08:39Z</time>
      </trkpt>
      <trkpt lat="42.11201" lon="-8.82291">
        <ele>7.084</ele>
        <time>2018-07-28T12:08:40Z</time>
      </trkpt>
      <trkpt lat="42.11204" lon="-8.8228">
        <ele>7.087</ele>
        <time>2018-07-28T12:08:41Z</time>
      </trkpt>
      <trkpt lat="42.11206" lon="-8.82269">
        <ele>7.089</ele>
        <time>2018-07-28T12:08:42Z</time>
      </trkpt>
      <trkpt lat="42.11208" lon="-8.82258">
        <ele>6.954</ele>
        <time>2018-07-28T12:08:43Z</time>
      </trkpt>
      <trkpt lat="42.1121" lon="-8.82249">
        <ele>6.749</ele>
        <time>2018-07-28T12:08:44Z</time>
      </trkpt>
      <trkpt lat="42.11211" lon="-8.82242">
        <ele>6.497</ele>
        <time>2018-07-28T12:08:45Z</time>
      </trkpt>
      <trkpt lat="42.11212" lon="-8.82235">
        <ele>6.183</ele>
        <time>2018-07-28T12:08:46Z</time>
      </trkpt>
      <trkpt lat="42.11213" lon="-8.82228">
        <ele>5.936</ele>
        <time>2018-07-28T12:08:47Z</time>
      </trkpt>
      <trkpt lat="42.11213" lon="-8.82222">
        <ele>5.717</ele>
        <time>2018-07-28T12:08:48Z</time>
      </trkpt>
      <trkpt lat="42.11213" lon="-8.82215">
        <ele>5.618</ele>
        <time>2018-07-28T12:08:49Z</time>
      </trkpt>
      <trkpt lat="42.11212" lon="-8.82208">
        <ele>5.708</ele>
        <time>2018-07-28T12:08:50Z</time>
      </trkpt>
      <trkpt lat="42.11212" lon="-8.822">
        <ele>5.975</ele>
        <time>2018-07-28T12:08:51Z</time>
      </trkpt>
      <trkpt lat="42.11215" lon="-8.82191">
        <ele>6.18</ele>
        <time>2018-07-28T12:08:52Z</time>
      </trkpt>
      <trkpt lat="42.11219" lon="-8.82184">
        <ele>6.383</ele>
        <time>2018-07-28T12:08:53Z</time>
      </trkpt>
      <trkpt lat="42.11225" lon="-8.82176">
        <ele>6.625</ele>
        <time>2018-07-28T12:08:54Z</time>
      </trkpt>
      <trkpt lat="42.11231" lon="-8.82166">
        <ele>6.95</ele>
        <time>2018-07-28T12:08:55Z</time>
      </trkpt>
      <trkpt lat="42.11237" lon="-8.82155">
        <ele>7.155</ele>
        <time>2018-07-28T12:08:56Z</time>
      </trkpt>
      <trkpt lat="42.11242" lon="-8.82141">
        <ele>7.343</ele>
        <time>2018-07-28T12:08:57Z</time>
      </trkpt>
      <trkpt lat="42.11247" lon="-8.82126">
        <ele>7.569</ele>
        <time>2018-07-28T12:08:58Z</time>
      </trkpt>
      <trkpt lat="42.11252" lon="-8.82111">
        <ele>7.613</ele>
        <time>2018-07-28T12:08:59Z</time>
      </trkpt>
      <trkpt lat="42.11257" lon="-8.82095">
        <ele>7.743</ele>
        <time>2018-07-28T12:09:00Z</time>
      </trkpt>
      <trkpt lat="42.11261" lon="-8.8208">
        <ele>7.907</ele>
        <time>2018-07-28T12:09:01Z</time>
      </trkpt>
      <trkpt lat="42.11266" lon="-8.82065">
        <ele>7.908</ele>
        <time>2018-07-28T12:09:02Z</time>
      </trkpt>
      <trkpt lat="42.11271" lon="-8.82051">
        <ele>7.943</ele>
        <time>2018-07-28T12:09:03Z</time>
      </trkpt>
      <trkpt lat="42.11275" lon="-8.82037">
        <ele>7.898</ele>
        <time>2018-07-28T12:09:04Z</time>
      </trkpt>
      <trkpt lat="42.11279" lon="-8.82022">
        <ele>7.671</ele>
        <time>2018-07-28T12:09:05Z</time>
      </trkpt>
      <trkpt lat="42.11284" lon="-8.82009">
        <ele>7.643</ele>
        <time>2018-07-28T12:09:06Z</time>
      </trkpt>
      <trkpt lat="42.11288" lon="-8.81995">
        <ele>7.828</ele>
        <time>2018-07-28T12:09:07Z</time>
      </trkpt>
      <trkpt lat="42.11292" lon="-8.81981">
        <ele>7.973</ele>
        <time>2018-07-28T12:09:08Z</time>
      </trkpt>
      <trkpt lat="42.11296" lon="-8.81967">
        <ele>8.261</ele>
        <time>2018-07-28T12:09:09Z</time>
      </trkpt>
      <trkpt lat="42.113" lon="-8.81953">
        <ele>8.317</ele>
        <time>2018-07-28T12:09:10Z</time>
      </trkpt>
      <trkpt lat="42.11305" lon="-8.81938">
        <ele>8.345</ele>
        <time>2018-07-28T12:09:11Z</time>
      </trkpt>
      <trkpt lat="42.1131" lon="-8.81923">
        <ele>8.347</ele>
        <time>2018-07-28T12:09:12Z</time>
      </trkpt>
      <trkpt lat="42.11314" lon="-8.81908">
        <ele>8.311</ele>
        <time>2018-07-28T12:09:13Z</time>
      </trkpt>
      <trkpt lat="42.11319" lon="-8.81894">
        <ele>8.408</ele>
        <time>2018-07-28T12:09:14Z</time>
      </trkpt>
      <trkpt lat="42.11324" lon="-8.81879">
        <ele>8.676</ele>
        <time>2018-07-28T12:09:15Z</time>
      </trkpt>
      <trkpt lat="42.11328" lon="-8.81865">
        <ele>8.871</ele>
        <time>2018-07-28T12:09:16Z</time>
      </trkpt>
      <trkpt lat="42.11333" lon="-8.81851">
        <ele>9.074</ele>
        <time>2018-07-28T12:09:17Z</time>
      </trkpt>
      <trkpt lat="42.11338" lon="-8.81838">
        <ele>9.296</ele>
        <time>2018-07-28T12:09:18Z</time>
      </trkpt>
      <trkpt lat="42.11342" lon="-8.81825">
        <ele>9.121</ele>
        <time>2018-07-28T12:09:19Z</time>
      </trkpt>
      <trkpt lat="42.11347" lon="-8.81812">
        <ele>9.166</ele>
        <time>2018-07-28T12:09:20Z</time>
      </trkpt>
      <trkpt lat="42.11352" lon="-8.81799">
        <ele>8.834</ele>
        <time>2018-07-28T12:09:21Z</time>
      </trkpt>
      <trkpt lat="42.11358" lon="-8.81785">
        <ele>8.63</ele>
        <time>2018-07-28T12:09:22Z</time>
      </trkpt>
      <trkpt lat="42.11365" lon="-8.81772">
        <ele>8.519</ele>
        <time>2018-07-28T12:09:23Z</time>
      </trkpt>
      <trkpt lat="42.11373" lon="-8.81757">
        <ele>8.509</ele>
        <time>2018-07-28T12:09:24Z</time>
      </trkpt>
      <trkpt lat="42.11382" lon="-8.81744">
        <ele>8.819</ele>
        <time>2018-07-28T12:09:25Z</time>
      </trkpt>
      <trkpt lat="42.11391" lon="-8.81732">
        <ele>9.108</ele>
        <time>2018-07-28T12:09:26Z</time>
      </trkpt>
      <trkpt lat="42.11399" lon="-8.8172">
        <ele>9.483</ele>
        <time>2018-07-28T12:09:27Z</time>
      </trkpt>
      <trkpt lat="42.11407" lon="-8.81709">
        <ele>9.448</ele>
        <time>2018-07-28T12:09:28Z</time>
      </trkpt>
      <trkpt lat="42.11415" lon="-8.817">
        <ele>9.481</ele>
        <time>2018-07-28T12:09:29Z</time>
      </trkpt>
      <trkpt lat="42.11424" lon="-8.8169">
        <ele>9.083</ele>
        <time>2018-07-28T12:09:30Z</time>
      </trkpt>
      <trkpt lat="42.11432" lon="-8.81681">
        <ele>8.628</ele>
        <time>2018-07-28T12:09:31Z</time>
      </trkpt>
      <trkpt lat="42.11441" lon="-8.81672">
        <ele>8.353</ele>
        <time>2018-07-28T12:09:32Z</time>
      </trkpt>
      <trkpt lat="42.11449" lon="-8.81662">
        <ele>8.021</ele>
        <time>2018-07-28T12:09:33Z</time>
      </trkpt>
      <trkpt lat="42.11458" lon="-8.81653">
        <ele>7.917</ele>
        <time>2018-07-28T12:09:34Z</time>
      </trkpt>
      <trkpt lat="42.11466" lon="-8.81644">
        <ele>7.899</ele>
        <time>2018-07-28T12:09:35Z</time>
      </trkpt>
      <trkpt lat="42.11474" lon="-8.81634">
        <ele>7.707</ele>
        <time>2018-07-28T12:09:36Z</time>
      </trkpt>
      <trkpt lat="42.11482" lon="-8.81624">
        <ele>7.727</ele>
        <time>2018-07-28T12:09:37Z</time>
      </trkpt>
      <trkpt lat="42.1149" lon="-8.81615">
        <ele>7.708</ele>
        <time>2018-07-28T12:09:38Z</time>
      </trkpt>
      <trkpt lat="42.11495" lon="-8.81606">
        <ele>7.621</ele>
        <time>2018-07-28T12:09:39Z</time>
      </trkpt>
      <trkpt lat="42.11499" lon="-8.81598">
        <ele>7.456</ele>
        <time>2018-07-28T12:09:40Z</time>
      </trkpt>
      <trkpt lat="42.11502" lon="-8.81593">
        <ele>7.239</ele>
        <time>2018-07-28T12:09:41Z</time>
      </trkpt>
      <trkpt lat="42.11504" lon="-8.81585">
        <ele>6.281</ele>
        <time>2018-07-28T12:09:43Z</time>
      </trkpt>
      <trkpt lat="42.11507" lon="-8.81579">
        <ele>5.466</ele>
        <time>2018-07-28T12:09:45Z</time>
      </trkpt>
      <trkpt lat="42.11508" lon="-8.81573">
        <ele>5.041</ele>
        <time>2018-07-28T12:09:47Z</time>
      </trkpt>
      <trkpt lat="42.11509" lon="-8.81565">
        <ele>4.879</ele>
        <time>2018-07-28T12:09:50Z</time>
      </trkpt>
      <trkpt lat="42.11512" lon="-8.81558">
        <ele>4.865</ele>
        <time>2018-07-28T12:09:52Z</time>
      </trkpt>
      <trkpt lat="42.11512" lon="-8.81552">
        <ele>4.983</ele>
        <time>2018-07-28T12:09:53Z</time>
      </trkpt>
      <trkpt lat="42.11513" lon="-8.81541">
        <ele>5.125</ele>
        <time>2018-07-28T12:09:55Z</time>
      </trkpt>
      <trkpt lat="42.11515" lon="-8.81531">
        <ele>5.217</ele>
        <time>2018-07-28T12:09:57Z</time>
      </trkpt>
      <trkpt lat="42.11516" lon="-8.81523">
        <ele>5.208</ele>
        <time>2018-07-28T12:09:59Z</time>
      </trkpt>
      <trkpt lat="42.11518" lon="-8.81517">
        <ele>5.25</ele>
        <time>2018-07-28T12:10:01Z</time>
      </trkpt>
      <trkpt lat="42.11518" lon="-8.81511">
        <ele>5.195</ele>
        <time>2018-07-28T12:10:08Z</time>
      </trkpt>
      <trkpt lat="42.11517" lon="-8.81501">
        <ele>5.388</ele>
        <time>2018-07-28T12:10:12Z</time>
      </trkpt>
      <trkpt lat="42.11514" lon="-8.81494">
        <ele>5.49</ele>
        <time>2018-07-28T12:10:14Z</time>
      </trkpt>
      <trkpt lat="42.11509" lon="-8.81488">
        <ele>5.485</ele>
        <time>2018-07-28T12:10:16Z</time>
      </trkpt>
      <trkpt lat="42.11503" lon="-8.81478">
        <ele>5.52</ele>
        <time>2018-07-28T12:10:18Z</time>
      </trkpt>
      <trkpt lat="42.115" lon="-8.81471">
        <ele>5.688</ele>
        <time>2018-07-28T12:10:19Z</time>
      </trkpt>
      <trkpt lat="42.115" lon="-8.81462">
        <ele>5.774</ele>
        <time>2018-07-28T12:10:20Z</time>
      </trkpt>
      <trkpt lat="42.11501" lon="-8.81452">
        <ele>5.969</ele>
        <time>2018-07-28T12:10:21Z</time>
      </trkpt>
      <trkpt lat="42.11502" lon="-8.81443">
        <ele>6.104</ele>
        <time>2018-07-28T12:10:22Z</time>
      </trkpt>
      <trkpt lat="42.11504" lon="-8.81434">
        <ele>6.324</ele>
        <time>2018-07-28T12:10:23Z</time>
      </trkpt>
      <trkpt lat="42.11506" lon="-8.81426">
        <ele>6.508</ele>
        <time>2018-07-28T12:10:24Z</time>
      </trkpt>
      <trkpt lat="42.11508" lon="-8.81419">
        <ele>6.528</ele>
        <time>2018-07-28T12:10:25Z</time>
      </trkpt>
      <trkpt lat="42.11509" lon="-8.81412">
        <ele>6.413</ele>
        <time>2018-07-28T12:10:26Z</time>
      </trkpt>
      <trkpt lat="42.11508" lon="-8.81401">
        <ele>6.036</ele>
        <time>2018-07-28T12:10:28Z</time>
      </trkpt>
      <trkpt lat="42.1151" lon="-8.81393">
        <ele>5.548</ele>
        <time>2018-07-28T12:10:30Z</time>
      </trkpt>
      <trkpt lat="42.11511" lon="-8.81386">
        <ele>5.313</ele>
        <time>2018-07-28T12:10:32Z</time>
      </trkpt>
      <trkpt lat="42.11514" lon="-8.81378">
        <ele>5.328</ele>
        <time>2018-07-28T12:10:35Z</time>
      </trkpt>
      <trkpt lat="42.11515" lon="-8.81368">
        <ele>5.416</ele>
        <time>2018-07-28T12:10:37Z</time>
      </trkpt>
      <trkpt lat="42.11514" lon="-8.8136">
        <ele>5.582</ele>
        <time>2018-07-28T12:10:38Z</time>
      </trkpt>
      <trkpt lat="42.11515" lon="-8.81352">
        <ele>5.666</ele>
        <time>2018-07-28T12:10:39Z</time>
      </trkpt>
      <trkpt lat="42.11516" lon="-8.81343">
        <ele>5.829</ele>
        <time>2018-07-28T12:10:40Z</time>
      </trkpt>
      <trkpt lat="42.11517" lon="-8.81333">
        <ele>6.021</ele>
        <time>2018-07-28T12:10:41Z</time>
      </trkpt>
      <trkpt lat="42.11522" lon="-8.81325">
        <ele>6.308</ele>
        <time>2018-07-28T12:10:42Z</time>
      </trkpt>
      <trkpt lat="42.11527" lon="-8.81316">
        <ele>6.698</ele>
        <time>2018-07-28T12:10:43Z</time>
      </trkpt>
      <trkpt lat="42.11534" lon="-8.81309">
        <ele>7.133</ele>
        <time>2018-07-28T12:10:44Z</time>
      </trkpt>
      <trkpt lat="42.11542" lon="-8.81304">
        <ele>7.586</ele>
        <time>2018-07-28T12:10:45Z</time>
      </trkpt>
      <trkpt lat="42.1155" lon="-8.81301">
        <ele>8.088</ele>
        <time>2018-07-28T12:10:46Z</time>
      </trkpt>
      <trkpt lat="42.11558" lon="-8.81298">
        <ele>8.593</ele>
        <time>2018-07-28T12:10:47Z</time>
      </trkpt>
      <trkpt lat="42.11564" lon="-8.81296">
        <ele>8.578</ele>
        <time>2018-07-28T12:10:48Z</time>
      </trkpt>
      <trkpt lat="42.11569" lon="-8.81293">
        <ele>8.596</ele>
        <time>2018-07-28T12:10:49Z</time>
      </trkpt>
      <trkpt lat="42.11574" lon="-8.81291">
        <ele>8.292</ele>
        <time>2018-07-28T12:10:50Z</time>
      </trkpt>
      <trkpt lat="42.11579" lon="-8.8129">
        <ele>8.035</ele>
        <time>2018-07-28T12:10:51Z</time>
      </trkpt>
      <trkpt lat="42.11583" lon="-8.81288">
        <ele>7.886</ele>
        <time>2018-07-28T12:10:52Z</time>
      </trkpt>
      <trkpt lat="42.1159" lon="-8.81285">
        <ele>7.414</ele>
        <time>2018-07-28T12:10:54Z</time>
      </trkpt>
      <trkpt lat="42.11596" lon="-8.81282">
        <ele>7.208</ele>
        <time>2018-07-28T12:10:56Z</time>
      </trkpt>
      <trkpt lat="42.11601" lon="-8.8128">
        <ele>7.035</ele>
        <time>2018-07-28T12:10:58Z</time>
      </trkpt>
      <trkpt lat="42.11605" lon="-8.81279">
        <ele>6.75</ele>
        <time>2018-07-28T12:11:00Z</time>
      </trkpt>
      <trkpt lat="42.1161" lon="-8.81277">
        <ele>6.623</ele>
        <time>2018-07-28T12:11:03Z</time>
      </trkpt>
      <trkpt lat="42.11616" lon="-8.81275">
        <ele>6.495</ele>
        <time>2018-07-28T12:11:09Z</time>
      </trkpt>
      <trkpt lat="42.11621" lon="-8.81272">
        <ele>6.54</ele>
        <time>2018-07-28T12:11:11Z</time>
      </trkpt>
      <trkpt lat="42.11626" lon="-8.81267">
        <ele>6.525</ele>
        <time>2018-07-28T12:11:13Z</time>
      </trkpt>
      <trkpt lat="42.11633" lon="-8.8126">
        <ele>6.583</ele>
        <time>2018-07-28T12:11:15Z</time>
      </trkpt>
      <trkpt lat="42.11638" lon="-8.81257">
        <ele>6.639</ele>
        <time>2018-07-28T12:11:17Z</time>
      </trkpt>
      <trkpt lat="42.11644" lon="-8.81256">
        <ele>6.639</ele>
        <time>2018-07-28T12:11:20Z</time>
      </trkpt>
      <trkpt lat="42.11649" lon="-8.8126">
        <ele>6.601</ele>
        <time>2018-07-28T12:11:23Z</time>
      </trkpt>
      <trkpt lat="42.11654" lon="-8.81261">
        <ele>6.621</ele>
        <time>2018-07-28T12:11:25Z</time>
      </trkpt>
      <trkpt lat="42.1166" lon="-8.81259">
        <ele>6.708</ele>
        <time>2018-07-28T12:11:27Z</time>
      </trkpt>
      <trkpt lat="42.11668" lon="-8.81263">
        <ele>6.915</ele>
        <time>2018-07-28T12:11:29Z</time>
      </trkpt>
      <trkpt lat="42.11674" lon="-8.81265">
        <ele>7.13</ele>
        <time>2018-07-28T12:11:30Z</time>
      </trkpt>
      <trkpt lat="42.1168" lon="-8.81266">
        <ele>7.643</ele>
        <time>2018-07-28T12:11:31Z</time>
      </trkpt>
      <trkpt lat="42.11686" lon="-8.81266">
        <ele>7.855</ele>
        <time>2018-07-28T12:11:32Z</time>
      </trkpt>
      <trkpt lat="42.11692" lon="-8.81268">
        <ele>8.08</ele>
        <time>2018-07-28T12:11:33Z</time>
      </trkpt>
      <trkpt lat="42.11698" lon="-8.81268">
        <ele>8.285</ele>
        <time>2018-07-28T12:11:34Z</time>
      </trkpt>
      <trkpt lat="42.11704" lon="-8.81269">
        <ele>8.463</ele>
        <time>2018-07-28T12:11:35Z</time>
      </trkpt>
      <trkpt lat="42.11711" lon="-8.81269">
        <ele>8.669</ele>
        <time>2018-07-28T12:11:36Z</time>
      </trkpt>
      <trkpt lat="42.11718" lon="-8.8127">
        <ele>8.961</ele>
        <time>2018-07-28T12:11:37Z</time>
      </trkpt>
      <trkpt lat="42.11725" lon="-8.81272">
        <ele>9.421</ele>
        <time>2018-07-28T12:11:38Z</time>
      </trkpt>
      <trkpt lat="42.11732" lon="-8.81274">
        <ele>9.913</ele>
        <time>2018-07-28T12:11:39Z</time>
      </trkpt>
      <trkpt lat="42.1174" lon="-8.81276">
        <ele>10.408</ele>
        <time>2018-07-28T12:11:40Z</time>
      </trkpt>
      <trkpt lat="42.11748" lon="-8.81277">
        <ele>11.078</ele>
        <time>2018-07-28T12:11:41Z</time>
      </trkpt>
      <trkpt lat="42.11755" lon="-8.81279">
        <ele>11.643</ele>
        <time>2018-07-28T12:11:42Z</time>
      </trkpt>
      <trkpt lat="42.11764" lon="-8.81281">
        <ele>12.196</ele>
        <time>2018-07-28T12:11:43Z</time>
      </trkpt>
      <trkpt lat="42.11774" lon="-8.81283">
        <ele>13.428</ele>
        <time>2018-07-28T12:11:44Z</time>
      </trkpt>
      <trkpt lat="42.11785" lon="-8.81287">
        <ele>13.463</ele>
        <time>2018-07-28T12:11:45Z</time>
      </trkpt>
      <trkpt lat="42.11795" lon="-8.81292">
        <ele>15.318</ele>
        <time>2018-07-28T12:11:46Z</time>
      </trkpt>
      <trkpt lat="42.11804" lon="-8.81296">
        <ele>16.356</ele>
        <time>2018-07-28T12:11:47Z</time>
      </trkpt>
      <trkpt lat="42.11813" lon="-8.81299">
        <ele>17.192</ele>
        <time>2018-07-28T12:11:48Z</time>
      </trkpt>
      <trkpt lat="42.11822" lon="-8.81301">
        <ele>17.775</ele>
        <time>2018-07-28T12:11:49Z</time>
      </trkpt>
      <trkpt lat="42.11831" lon="-8.813">
        <ele>18.228</ele>
        <time>2018-07-28T12:11:50Z</time>
      </trkpt>
      <trkpt lat="42.11839" lon="-8.813">
        <ele>18.52</ele>
        <time>2018-07-28T12:11:51Z</time>
      </trkpt>
      <trkpt lat="42.11848" lon="-8.81298">
        <ele>18.808</ele>
        <time>2018-07-28T12:11:52Z</time>
      </trkpt>
      <trkpt lat="42.11857" lon="-8.81298">
        <ele>19.269</ele>
        <time>2018-07-28T12:11:53Z</time>
      </trkpt>
      <trkpt lat="42.11869" lon="-8.81294">
        <ele>19.884</ele>
        <time>2018-07-28T12:11:54Z</time>
      </trkpt>
      <trkpt lat="42.11883" lon="-8.81285">
        <ele>20.867</ele>
        <time>2018-07-28T12:11:55Z</time>
      </trkpt>
      <trkpt lat="42.11902" lon="-8.81276">
        <ele>22.259</ele>
        <time>2018-07-28T12:11:56Z</time>
      </trkpt>
      <trkpt lat="42.11922" lon="-8.81269">
        <ele>24.434</ele>
        <time>2018-07-28T12:11:57Z</time>
      </trkpt>
      <trkpt lat="42.11942" lon="-8.81259">
        <ele>26.859</ele>
        <time>2018-07-28T12:11:58Z</time>
      </trkpt>
      <trkpt lat="42.11961" lon="-8.8125">
        <ele>29.527</ele>
        <time>2018-07-28T12:11:59Z</time>
      </trkpt>
      <trkpt lat="42.1198" lon="-8.81243">
        <ele>33.583</ele>
        <time>2018-07-28T12:12:00Z</time>
      </trkpt>
      <trkpt lat="42.11999" lon="-8.81234">
        <ele>34.566</ele>
        <time>2018-07-28T12:12:01Z</time>
      </trkpt>
      <trkpt lat="42.12017" lon="-8.81227">
        <ele>35.029</ele>
        <time>2018-07-28T12:12:02Z</time>
      </trkpt>
      <trkpt lat="42.12034" lon="-8.81219">
        <ele>35.021</ele>
        <time>2018-07-28T12:12:03Z</time>
      </trkpt>
      <trkpt lat="42.1205" lon="-8.81209">
        <ele>35.008</ele>
        <time>2018-07-28T12:12:04Z</time>
      </trkpt>
      <trkpt lat="42.12065" lon="-8.81198">
        <ele>35.158</ele>
        <time>2018-07-28T12:12:05Z</time>
      </trkpt>
      <trkpt lat="42.12082" lon="-8.81184">
        <ele>35.553</ele>
        <time>2018-07-28T12:12:06Z</time>
      </trkpt>
      <trkpt lat="42.12097" lon="-8.81165">
        <ele>36.456</ele>
        <time>2018-07-28T12:12:07Z</time>
      </trkpt>
      <trkpt lat="42.1211" lon="-8.81149">
        <ele>37.868</ele>
        <time>2018-07-28T12:12:08Z</time>
      </trkpt>
      <trkpt lat="42.12122" lon="-8.81135">
        <ele>39.273</ele>
        <time>2018-07-28T12:12:09Z</time>
      </trkpt>
      <trkpt lat="42.12136" lon="-8.81123">
        <ele>40.188</ele>
        <time>2018-07-28T12:12:10Z</time>
      </trkpt>
      <trkpt lat="42.12148" lon="-8.81111">
        <ele>40.716</ele>
        <time>2018-07-28T12:12:11Z</time>
      </trkpt>
      <trkpt lat="42.12164" lon="-8.81101">
        <ele>41.362</ele>
        <time>2018-07-28T12:12:12Z</time>
      </trkpt>
      <trkpt lat="42.12178" lon="-8.81095">
        <ele>41.939</ele>
        <time>2018-07-28T12:12:13Z</time>
      </trkpt>
      <trkpt lat="42.1219" lon="-8.81093">
        <ele>43.201</ele>
        <time>2018-07-28T12:12:14Z</time>
      </trkpt>
      <trkpt lat="42.12201" lon="-8.81091">
        <ele>44.121</ele>
        <time>2018-07-28T12:12:15Z</time>
      </trkpt>
      <trkpt lat="42.12212" lon="-8.81088">
        <ele>44.808</ele>
        <time>2018-07-28T12:12:16Z</time>
      </trkpt>
      <trkpt lat="42.12222" lon="-8.81084">
        <ele>45.365</ele>
        <time>2018-07-28T12:12:17Z</time>
      </trkpt>
      <trkpt lat="42.12235" lon="-8.81081">
        <ele>45.96</ele>
        <time>2018-07-28T12:12:18Z</time>
      </trkpt>
      <trkpt lat="42.12245" lon="-8.81076">
        <ele>46.533</ele>
        <time>2018-07-28T12:12:19Z</time>
      </trkpt>
      <trkpt lat="42.12255" lon="-8.81074">
        <ele>47.145</ele>
        <time>2018-07-28T12:12:20Z</time>
      </trkpt>
      <trkpt lat="42.12264" lon="-8.81069">
        <ele>47.63</ele>
        <time>2018-07-28T12:12:21Z</time>
      </trkpt>
      <trkpt lat="42.12271" lon="-8.81064">
        <ele>47.865</ele>
        <time>2018-07-28T12:12:22Z</time>
      </trkpt>
      <trkpt lat="42.12281" lon="-8.81066">
        <ele>47.713</ele>
        <time>2018-07-28T12:12:24Z</time>
      </trkpt>
      <trkpt lat="42.12287" lon="-8.81063">
        <ele>47.589</ele>
        <time>2018-07-28T12:12:25Z</time>
      </trkpt>
      <trkpt lat="42.1229" lon="-8.81069">
        <ele>47.173</ele>
        <time>2018-07-28T12:12:28Z</time>
      </trkpt>
      <trkpt lat="42.12286" lon="-8.81074">
        <ele>46.785</ele>
        <time>2018-07-28T12:12:31Z</time>
      </trkpt>
      <trkpt lat="42.12288" lon="-8.81067">
        <ele>46.613</ele>
        <time>2018-07-28T12:12:35Z</time>
      </trkpt>
      <trkpt lat="42.12292" lon="-8.81064">
        <ele>46.708</ele>
        <time>2018-07-28T12:12:43Z</time>
      </trkpt>
      <trkpt lat="42.12298" lon="-8.81063">
        <ele>47.029</ele>
        <time>2018-07-28T12:12:45Z</time>
      </trkpt>
      <trkpt lat="42.12303" lon="-8.81059">
        <ele>47.254</ele>
        <time>2018-07-28T12:12:47Z</time>
      </trkpt>
      <trkpt lat="42.12308" lon="-8.81057">
        <ele>47.337</ele>
        <time>2018-07-28T12:12:49Z</time>
      </trkpt>
      <trkpt lat="42.12315" lon="-8.81057">
        <ele>47.349</ele>
        <time>2018-07-28T12:13:01Z</time>
      </trkpt>
      <trkpt lat="42.12319" lon="-8.81057">
        <ele>47.414</ele>
        <time>2018-07-28T12:13:03Z</time>
      </trkpt>
      <trkpt lat="42.12325" lon="-8.81056">
        <ele>47.529</ele>
        <time>2018-07-28T12:13:06Z</time>
      </trkpt>
      <trkpt lat="42.12329" lon="-8.81052">
        <ele>47.527</ele>
        <time>2018-07-28T12:13:07Z</time>
      </trkpt>
      <trkpt lat="42.12336" lon="-8.81054">
        <ele>47.643</ele>
        <time>2018-07-28T12:13:08Z</time>
      </trkpt>
      <trkpt lat="42.12342" lon="-8.81051">
        <ele>47.815</ele>
        <time>2018-07-28T12:13:09Z</time>
      </trkpt>
      <trkpt lat="42.1235" lon="-8.8105">
        <ele>48.165</ele>
        <time>2018-07-28T12:13:10Z</time>
      </trkpt>
      <trkpt lat="42.1236" lon="-8.81049">
        <ele>48.311</ele>
        <time>2018-07-28T12:13:11Z</time>
      </trkpt>
      <trkpt lat="42.12369" lon="-8.81046">
        <ele>48.508</ele>
        <time>2018-07-28T12:13:12Z</time>
      </trkpt>
      <trkpt lat="42.1238" lon="-8.81043">
        <ele>49.193</ele>
        <time>2018-07-28T12:13:13Z</time>
      </trkpt>
      <trkpt lat="42.12392" lon="-8.81041">
        <ele>49.338</ele>
        <time>2018-07-28T12:13:14Z</time>
      </trkpt>
      <trkpt lat="42.12402" lon="-8.81039">
        <ele>49.521</ele>
        <time>2018-07-28T12:13:15Z</time>
      </trkpt>
      <trkpt lat="42.12415" lon="-8.81032">
        <ele>49.793</ele>
        <time>2018-07-28T12:13:16Z</time>
      </trkpt>
      <trkpt lat="42.12428" lon="-8.81029">
        <ele>49.858</ele>
        <time>2018-07-28T12:13:17Z</time>
      </trkpt>
      <trkpt lat="42.12441" lon="-8.81025">
        <ele>49.863</ele>
        <time>2018-07-28T12:13:18Z</time>
      </trkpt>
      <trkpt lat="42.12456" lon="-8.81022">
        <ele>49.861</ele>
        <time>2018-07-28T12:13:19Z</time>
      </trkpt>
      <trkpt lat="42.12469" lon="-8.81016">
        <ele>49.587</ele>
        <time>2018-07-28T12:13:20Z</time>
      </trkpt>
      <trkpt lat="42.12482" lon="-8.81013">
        <ele>49.364</ele>
        <time>2018-07-28T12:13:21Z</time>
      </trkpt>
      <trkpt lat="42.12496" lon="-8.81009">
        <ele>49.006</ele>
        <time>2018-07-28T12:13:22Z</time>
      </trkpt>
      <trkpt lat="42.1251" lon="-8.81005">
        <ele>48.616</ele>
        <time>2018-07-28T12:13:23Z</time>
      </trkpt>
      <trkpt lat="42.12526" lon="-8.81001">
        <ele>48.408</ele>
        <time>2018-07-28T12:13:24Z</time>
      </trkpt>
      <trkpt lat="42.12543" lon="-8.80997">
        <ele>48.138</ele>
        <time>2018-07-28T12:13:25Z</time>
      </trkpt>
      <trkpt lat="42.12559" lon="-8.80993">
        <ele>47.563</ele>
        <time>2018-07-28T12:13:26Z</time>
      </trkpt>
      <trkpt lat="42.12575" lon="-8.80989">
        <ele>46.186</ele>
        <time>2018-07-28T12:13:27Z</time>
      </trkpt>
      <trkpt lat="42.12591" lon="-8.80984">
        <ele>45.258</ele>
        <time>2018-07-28T12:13:28Z</time>
      </trkpt>
      <trkpt lat="42.12607" lon="-8.80981">
        <ele>44.493</ele>
        <time>2018-07-28T12:13:29Z</time>
      </trkpt>
      <trkpt lat="42.12623" lon="-8.80981">
        <ele>43.868</ele>
        <time>2018-07-28T12:13:30Z</time>
      </trkpt>
      <trkpt lat="42.12641" lon="-8.8098">
        <ele>42.896</ele>
        <time>2018-07-28T12:13:31Z</time>
      </trkpt>
      <trkpt lat="42.12657" lon="-8.80976">
        <ele>42.172</ele>
        <time>2018-07-28T12:13:32Z</time>
      </trkpt>
      <trkpt lat="42.12673" lon="-8.80975">
        <ele>41.475</ele>
        <time>2018-07-28T12:13:33Z</time>
      </trkpt>
      <trkpt lat="42.12691" lon="-8.80976">
        <ele>40.628</ele>
        <time>2018-07-28T12:13:34Z</time>
      </trkpt>
      <trkpt lat="42.12711" lon="-8.80976">
        <ele>39.82</ele>
        <time>2018-07-28T12:13:35Z</time>
      </trkpt>
      <trkpt lat="42.12728" lon="-8.80976">
        <ele>39.508</ele>
        <time>2018-07-28T12:13:36Z</time>
      </trkpt>
      <trkpt lat="42.12746" lon="-8.80975">
        <ele>39.259</ele>
        <time>2018-07-28T12:13:37Z</time>
      </trkpt>
      <trkpt lat="42.12765" lon="-8.80974">
        <ele>39.224</ele>
        <time>2018-07-28T12:13:38Z</time>
      </trkpt>
      <trkpt lat="42.12784" lon="-8.80972">
        <ele>39.447</ele>
        <time>2018-07-28T12:13:39Z</time>
      </trkpt>
      <trkpt lat="42.12803" lon="-8.80969">
        <ele>39.619</ele>
        <time>2018-07-28T12:13:40Z</time>
      </trkpt>
      <trkpt lat="42.12819" lon="-8.8097">
        <ele>39.624</ele>
        <time>2018-07-28T12:13:41Z</time>
      </trkpt>
      <trkpt lat="42.1284" lon="-8.80965">
        <ele>39.219</ele>
        <time>2018-07-28T12:13:42Z</time>
      </trkpt>
      <trkpt lat="42.12856" lon="-8.80963">
        <ele>38.737</ele>
        <time>2018-07-28T12:13:43Z</time>
      </trkpt>
      <trkpt lat="42.12875" lon="-8.80962">
        <ele>38.483</ele>
        <time>2018-07-28T12:13:44Z</time>
      </trkpt>
      <trkpt lat="42.12894" lon="-8.80962">
        <ele>38.056</ele>
        <time>2018-07-28T12:13:45Z</time>
      </trkpt>
      <trkpt lat="42.12913" lon="-8.80961">
        <ele>37.759</ele>
        <time>2018-07-28T12:13:46Z</time>
      </trkpt>
      <trkpt lat="42.12932" lon="-8.80958">
        <ele>37.514</ele>
        <time>2018-07-28T12:13:47Z</time>
      </trkpt>
      <trkpt lat="42.12947" lon="-8.80958">
        <ele>36.908</ele>
        <time>2018-07-28T12:13:48Z</time>
      </trkpt>
      <trkpt lat="42.12964" lon="-8.80956">
        <ele>36.197</ele>
        <time>2018-07-28T12:13:49Z</time>
      </trkpt>
      <trkpt lat="42.12982" lon="-8.80958">
        <ele>35.032</ele>
        <time>2018-07-28T12:13:50Z</time>
      </trkpt>
      <trkpt lat="42.12996" lon="-8.80956">
        <ele>34.335</ele>
        <time>2018-07-28T12:13:51Z</time>
      </trkpt>
      <trkpt lat="42.13012" lon="-8.80955">
        <ele>33.327</ele>
        <time>2018-07-28T12:13:52Z</time>
      </trkpt>
      <trkpt lat="42.13028" lon="-8.80953">
        <ele>32.422</ele>
        <time>2018-07-28T12:13:53Z</time>
      </trkpt>
      <trkpt lat="42.13044" lon="-8.80952">
        <ele>31.467</ele>
        <time>2018-07-28T12:13:54Z</time>
      </trkpt>
      <trkpt lat="42.13056" lon="-8.8095">
        <ele>30.375</ele>
        <time>2018-07-28T12:13:55Z</time>
      </trkpt>
      <trkpt lat="42.13074" lon="-8.8095">
        <ele>27.341</ele>
        <time>2018-07-28T12:13:56Z</time>
      </trkpt>
      <trkpt lat="42.13091" lon="-8.80949">
        <ele>26.283</ele>
        <time>2018-07-28T12:13:57Z</time>
      </trkpt>
      <trkpt lat="42.13108" lon="-8.80948">
        <ele>25.425</ele>
        <time>2018-07-28T12:13:58Z</time>
      </trkpt>
      <trkpt lat="42.13126" lon="-8.80945">
        <ele>24.917</ele>
        <time>2018-07-28T12:13:59Z</time>
      </trkpt>
      <trkpt lat="42.13144" lon="-8.80942">
        <ele>24.708</ele>
        <time>2018-07-28T12:14:00Z</time>
      </trkpt>
      <trkpt lat="42.13163" lon="-8.80935">
        <ele>24.74</ele>
        <time>2018-07-28T12:14:01Z</time>
      </trkpt>
      <trkpt lat="42.1318" lon="-8.80925">
        <ele>24.275</ele>
        <time>2018-07-28T12:14:02Z</time>
      </trkpt>
      <trkpt lat="42.13197" lon="-8.80915">
        <ele>23.258</ele>
        <time>2018-07-28T12:14:03Z</time>
      </trkpt>
      <trkpt lat="42.13214" lon="-8.80907">
        <ele>21.94</ele>
        <time>2018-07-28T12:14:04Z</time>
      </trkpt>
      <trkpt lat="42.1323" lon="-8.80897">
        <ele>20.295</ele>
        <time>2018-07-28T12:14:05Z</time>
      </trkpt>
      <trkpt lat="42.13244" lon="-8.80886">
        <ele>18.46</ele>
        <time>2018-07-28T12:14:06Z</time>
      </trkpt>
      <trkpt lat="42.13258" lon="-8.80881">
        <ele>16.898</ele>
        <time>2018-07-28T12:14:07Z</time>
      </trkpt>
      <trkpt lat="42.13272" lon="-8.80876">
        <ele>15.554</ele>
        <time>2018-07-28T12:14:08Z</time>
      </trkpt>
      <trkpt lat="42.13283" lon="-8.80869">
        <ele>14.363</ele>
        <time>2018-07-28T12:14:09Z</time>
      </trkpt>
      <trkpt lat="42.13293" lon="-8.80865">
        <ele>13.344</ele>
        <time>2018-07-28T12:14:10Z</time>
      </trkpt>
      <trkpt lat="42.13299" lon="-8.80861">
        <ele>11.018</ele>
        <time>2018-07-28T12:14:11Z</time>
      </trkpt>
      <trkpt lat="42.13306" lon="-8.80858">
        <ele>9.008</ele>
        <time>2018-07-28T12:14:13Z</time>
      </trkpt>
      <trkpt lat="42.1331" lon="-8.80857">
        <ele>7.528</ele>
        <time>2018-07-28T12:14:15Z</time>
      </trkpt>
      <trkpt lat="42.13316" lon="-8.8085">
        <ele>6.513</ele>
        <time>2018-07-28T12:14:19Z</time>
      </trkpt>
      <trkpt lat="42.13327" lon="-8.80845">
        <ele>6.376</ele>
        <time>2018-07-28T12:14:23Z</time>
      </trkpt>
      <trkpt lat="42.1333" lon="-8.80838">
        <ele>6.568</ele>
        <time>2018-07-28T12:14:27Z</time>
      </trkpt>
      <trkpt lat="42.13331" lon="-8.8083">
        <ele>6.583</ele>
        <time>2018-07-28T12:14:28Z</time>
      </trkpt>
      <trkpt lat="42.13331" lon="-8.80819">
        <ele>6.548</ele>
        <time>2018-07-28T12:14:29Z</time>
      </trkpt>
      <trkpt lat="42.13328" lon="-8.80808">
        <ele>6.626</ele>
        <time>2018-07-28T12:14:30Z</time>
      </trkpt>
      <trkpt lat="42.13325" lon="-8.80798">
        <ele>6.742</ele>
        <time>2018-07-28T12:14:31Z</time>
      </trkpt>
      <trkpt lat="42.13322" lon="-8.80787">
        <ele>6.886</ele>
        <time>2018-07-28T12:14:32Z</time>
      </trkpt>
      <trkpt lat="42.13318" lon="-8.80773">
        <ele>7.06</ele>
        <time>2018-07-28T12:14:33Z</time>
      </trkpt>
      <trkpt lat="42.13316" lon="-8.80755">
        <ele>7.326</ele>
        <time>2018-07-28T12:14:34Z</time>
      </trkpt>
      <trkpt lat="42.13314" lon="-8.80736">
        <ele>7.908</ele>
        <time>2018-07-28T12:14:35Z</time>
      </trkpt>
      <trkpt lat="42.13308" lon="-8.80718">
        <ele>8.55</ele>
        <time>2018-07-28T12:14:36Z</time>
      </trkpt>
      <trkpt lat="42.13306" lon="-8.80698">
        <ele>9.255</ele>
        <time>2018-07-28T12:14:37Z</time>
      </trkpt>
      <trkpt lat="42.13305" lon="-8.80675">
        <ele>9.948</ele>
        <time>2018-07-28T12:14:38Z</time>
      </trkpt>
      <trkpt lat="42.13305" lon="-8.80653">
        <ele>10.65</ele>
        <time>2018-07-28T12:14:39Z</time>
      </trkpt>
      <trkpt lat="42.13303" lon="-8.80631">
        <ele>11.145</ele>
        <time>2018-07-28T12:14:40Z</time>
      </trkpt>
      <trkpt lat="42.13302" lon="-8.8061">
        <ele>11.25</ele>
        <time>2018-07-28T12:14:41Z</time>
      </trkpt>
      <trkpt lat="42.13299" lon="-8.8059">
        <ele>11.358</ele>
        <time>2018-07-28T12:14:42Z</time>
      </trkpt>
      <trkpt lat="42.13293" lon="-8.8057">
        <ele>11.454</ele>
        <time>2018-07-28T12:14:43Z</time>
      </trkpt>
      <trkpt lat="42.13286" lon="-8.80549">
        <ele>11.529</ele>
        <time>2018-07-28T12:14:44Z</time>
      </trkpt>
      <trkpt lat="42.13279" lon="-8.8053">
        <ele>11.9</ele>
        <time>2018-07-28T12:14:45Z</time>
      </trkpt>
      <trkpt lat="42.13271" lon="-8.80511">
        <ele>12.62</ele>
        <time>2018-07-28T12:14:46Z</time>
      </trkpt>
      <trkpt lat="42.13262" lon="-8.80491">
        <ele>13.008</ele>
        <time>2018-07-28T12:14:47Z</time>
      </trkpt>
      <trkpt lat="42.13254" lon="-8.80471">
        <ele>13.164</ele>
        <time>2018-07-28T12:14:48Z</time>
      </trkpt>
      <trkpt lat="42.13246" lon="-8.80454">
        <ele>13.229</ele>
        <time>2018-07-28T12:14:49Z</time>
      </trkpt>
      <trkpt lat="42.1324" lon="-8.80439">
        <ele>13.232</ele>
        <time>2018-07-28T12:14:50Z</time>
      </trkpt>
      <trkpt lat="42.13234" lon="-8.80423">
        <ele>12.974</ele>
        <time>2018-07-28T12:14:51Z</time>
      </trkpt>
      <trkpt lat="42.13231" lon="-8.8041">
        <ele>12.799</ele>
        <time>2018-07-28T12:14:52Z</time>
      </trkpt>
      <trkpt lat="42.13224" lon="-8.80399">
        <ele>12.544</ele>
        <time>2018-07-28T12:14:53Z</time>
      </trkpt>
      <trkpt lat="42.13215" lon="-8.8039">
        <ele>12.272</ele>
        <time>2018-07-28T12:14:54Z</time>
      </trkpt>
      <trkpt lat="42.13203" lon="-8.80383">
        <ele>11.778</ele>
        <time>2018-07-28T12:14:55Z</time>
      </trkpt>
      <trkpt lat="42.13192" lon="-8.80377">
        <ele>11.781</ele>
        <time>2018-07-28T12:14:56Z</time>
      </trkpt>
      <trkpt lat="42.13183" lon="-8.80368">
        <ele>11.661</ele>
        <time>2018-07-28T12:14:57Z</time>
      </trkpt>
      <trkpt lat="42.13179" lon="-8.80356">
        <ele>11.617</ele>
        <time>2018-07-28T12:14:58Z</time>
      </trkpt>
      <trkpt lat="42.13177" lon="-8.80345">
        <ele>11.508</ele>
        <time>2018-07-28T12:14:59Z</time>
      </trkpt>
      <trkpt lat="42.13178" lon="-8.80332">
        <ele>11.45</ele>
        <time>2018-07-28T12:15:00Z</time>
      </trkpt>
      <trkpt lat="42.13181" lon="-8.80321">
        <ele>11.485</ele>
        <time>2018-07-28T12:15:01Z</time>
      </trkpt>
      <trkpt lat="42.13188" lon="-8.80311">
        <ele>11.478</ele>
        <time>2018-07-28T12:15:02Z</time>
      </trkpt>
      <trkpt lat="42.13196" lon="-8.80305">
        <ele>11.47</ele>
        <time>2018-07-28T12:15:03Z</time>
      </trkpt>
      <trkpt lat="42.13207" lon="-8.80301">
        <ele>11.615</ele>
        <time>2018-07-28T12:15:04Z</time>
      </trkpt>
      <trkpt lat="42.13219" lon="-8.80301">
        <ele>11.94</ele>
        <time>2018-07-28T12:15:05Z</time>
      </trkpt>
      <trkpt lat="42.13231" lon="-8.80298">
        <ele>12.198</ele>
        <time>2018-07-28T12:15:06Z</time>
      </trkpt>
      <trkpt lat="42.13242" lon="-8.8029">
        <ele>12.294</ele>
        <time>2018-07-28T12:15:07Z</time>
      </trkpt>
      <trkpt lat="42.1325" lon="-8.80278">
        <ele>12.271</ele>
        <time>2018-07-28T12:15:08Z</time>
      </trkpt>
      <trkpt lat="42.1326" lon="-8.80265">
        <ele>12.241</ele>
        <time>2018-07-28T12:15:09Z</time>
      </trkpt>
      <trkpt lat="42.13271" lon="-8.80253">
        <ele>12.515</ele>
        <time>2018-07-28T12:15:10Z</time>
      </trkpt>
      <trkpt lat="42.13284" lon="-8.8024">
        <ele>13.408</ele>
        <time>2018-07-28T12:15:11Z</time>
      </trkpt>
      <trkpt lat="42.13291" lon="-8.80227">
        <ele>14.419</ele>
        <time>2018-07-28T12:15:12Z</time>
      </trkpt>
      <trkpt lat="42.13306" lon="-8.80215">
        <ele>15.614</ele>
        <time>2018-07-28T12:15:13Z</time>
      </trkpt>
      <trkpt lat="42.13318" lon="-8.80201">
        <ele>16.927</ele>
        <time>2018-07-28T12:15:14Z</time>
      </trkpt>
      <trkpt lat="42.13329" lon="-8.80187">
        <ele>18.499</ele>
        <time>2018-07-28T12:15:15Z</time>
      </trkpt>
      <trkpt lat="42.13344" lon="-8.8017">
        <ele>19.644</ele>
        <time>2018-07-28T12:15:16Z</time>
      </trkpt>
      <trkpt lat="42.13358" lon="-8.80152">
        <ele>20.819</ele>
        <time>2018-07-28T12:15:17Z</time>
      </trkpt>
      <trkpt lat="42.1337" lon="-8.80141">
        <ele>22.157</ele>
        <time>2018-07-28T12:15:18Z</time>
      </trkpt>
      <trkpt lat="42.13377" lon="-8.80128">
        <ele>23.133</ele>
        <time>2018-07-28T12:15:19Z</time>
      </trkpt>
      <trkpt lat="42.13381" lon="-8.80116">
        <ele>23.556</ele>
        <time>2018-07-28T12:15:20Z</time>
      </trkpt>
      <trkpt lat="42.13384" lon="-8.80101">
        <ele>23.659</ele>
        <time>2018-07-28T12:15:21Z</time>
      </trkpt>
      <trkpt lat="42.13385" lon="-8.80086">
        <ele>23.614</ele>
        <time>2018-07-28T12:15:22Z</time>
      </trkpt>
      <trkpt lat="42.13388" lon="-8.80071">
        <ele>23.608</ele>
        <time>2018-07-28T12:15:23Z</time>
      </trkpt>
      <trkpt lat="42.13389" lon="-8.80056">
        <ele>23.617</ele>
        <time>2018-07-28T12:15:24Z</time>
      </trkpt>
      <trkpt lat="42.13388" lon="-8.80041">
        <ele>23.642</ele>
        <time>2018-07-28T12:15:25Z</time>
      </trkpt>
      <trkpt lat="42.13382" lon="-8.80025">
        <ele>23.675</ele>
        <time>2018-07-28T12:15:26Z</time>
      </trkpt>
      <trkpt lat="42.13377" lon="-8.80006">
        <ele>23.467</ele>
        <time>2018-07-28T12:15:27Z</time>
      </trkpt>
      <trkpt lat="42.13374" lon="-8.79987">
        <ele>23.152</ele>
        <time>2018-07-28T12:15:28Z</time>
      </trkpt>
      <trkpt lat="42.13373" lon="-8.79968">
        <ele>22.847</ele>
        <time>2018-07-28T12:15:29Z</time>
      </trkpt>
      <trkpt lat="42.13369" lon="-8.79949">
        <ele>22.345</ele>
        <time>2018-07-28T12:15:30Z</time>
      </trkpt>
      <trkpt lat="42.13365" lon="-8.79929">
        <ele>21.981</ele>
        <time>2018-07-28T12:15:31Z</time>
      </trkpt>
      <trkpt lat="42.1336" lon="-8.79909">
        <ele>21.446</ele>
        <time>2018-07-28T12:15:32Z</time>
      </trkpt>
      <trkpt lat="42.13355" lon="-8.79887">
        <ele>20.988</ele>
        <time>2018-07-28T12:15:33Z</time>
      </trkpt>
      <trkpt lat="42.13352" lon="-8.79867">
        <ele>20.516</ele>
        <time>2018-07-28T12:15:34Z</time>
      </trkpt>
      <trkpt lat="42.13348" lon="-8.79846">
        <ele>19.908</ele>
        <time>2018-07-28T12:15:35Z</time>
      </trkpt>
      <trkpt lat="42.13344" lon="-8.79827">
        <ele>19.176</ele>
        <time>2018-07-28T12:15:36Z</time>
      </trkpt>
      <trkpt lat="42.1334" lon="-8.79807">
        <ele>18.251</ele>
        <time>2018-07-28T12:15:37Z</time>
      </trkpt>
      <trkpt lat="42.13336" lon="-8.79787">
        <ele>17.424</ele>
        <time>2018-07-28T12:15:38Z</time>
      </trkpt>
      <trkpt lat="42.13334" lon="-8.79769">
        <ele>16.236</ele>
        <time>2018-07-28T12:15:39Z</time>
      </trkpt>
      <trkpt lat="42.13332" lon="-8.79749">
        <ele>15.941</ele>
        <time>2018-07-28T12:15:40Z</time>
      </trkpt>
      <trkpt lat="42.13327" lon="-8.79732">
        <ele>15.966</ele>
        <time>2018-07-28T12:15:41Z</time>
      </trkpt>
      <trkpt lat="42.13322" lon="-8.79714">
        <ele>15.824</ele>
        <time>2018-07-28T12:15:42Z</time>
      </trkpt>
      <trkpt lat="42.13323" lon="-8.79696">
        <ele>15.54</ele>
        <time>2018-07-28T12:15:43Z</time>
      </trkpt>
      <trkpt lat="42.13323" lon="-8.79678">
        <ele>15.256</ele>
        <time>2018-07-28T12:15:44Z</time>
      </trkpt>
      <trkpt lat="42.13326" lon="-8.7966">
        <ele>15.159</ele>
        <time>2018-07-28T12:15:45Z</time>
      </trkpt>
      <trkpt lat="42.13329" lon="-8.79643">
        <ele>14.914</ele>
        <time>2018-07-28T12:15:46Z</time>
      </trkpt>
      <trkpt lat="42.13333" lon="-8.79628">
        <ele>14.608</ele>
        <time>2018-07-28T12:15:47Z</time>
      </trkpt>
      <trkpt lat="42.13337" lon="-8.79613">
        <ele>14.397</ele>
        <time>2018-07-28T12:15:48Z</time>
      </trkpt>
      <trkpt lat="42.13341" lon="-8.79601">
        <ele>13.992</ele>
        <time>2018-07-28T12:15:49Z</time>
      </trkpt>
      <trkpt lat="42.13342" lon="-8.79589">
        <ele>13.165</ele>
        <time>2018-07-28T12:15:50Z</time>
      </trkpt>
      <trkpt lat="42.13346" lon="-8.79581">
        <ele>12.457</ele>
        <time>2018-07-28T12:15:51Z</time>
      </trkpt>
      <trkpt lat="42.13344" lon="-8.79572">
        <ele>11.812</ele>
        <time>2018-07-28T12:15:52Z</time>
      </trkpt>
      <trkpt lat="42.13341" lon="-8.79561">
        <ele>11.277</ele>
        <time>2018-07-28T12:15:53Z</time>
      </trkpt>
      <trkpt lat="42.13339" lon="-8.79548">
        <ele>11.045</ele>
        <time>2018-07-28T12:15:54Z</time>
      </trkpt>
      <trkpt lat="42.13343" lon="-8.79536">
        <ele>11.071</ele>
        <time>2018-07-28T12:15:55Z</time>
      </trkpt>
      <trkpt lat="42.13349" lon="-8.79527">
        <ele>11.084</ele>
        <time>2018-07-28T12:15:56Z</time>
      </trkpt>
      <trkpt lat="42.13356" lon="-8.79517">
        <ele>11.107</ele>
        <time>2018-07-28T12:15:57Z</time>
      </trkpt>
      <trkpt lat="42.13363" lon="-8.79505">
        <ele>11.117</ele>
        <time>2018-07-28T12:15:58Z</time>
      </trkpt>
      <trkpt lat="42.13365" lon="-8.79491">
        <ele>11.208</ele>
        <time>2018-07-28T12:15:59Z</time>
      </trkpt>
      <trkpt lat="42.13368" lon="-8.79474">
        <ele>11.53</ele>
        <time>2018-07-28T12:16:00Z</time>
      </trkpt>
      <trkpt lat="42.13371" lon="-8.79458">
        <ele>12.025</ele>
        <time>2018-07-28T12:16:01Z</time>
      </trkpt>
      <trkpt lat="42.13376" lon="-8.79439">
        <ele>12.438</ele>
        <time>2018-07-28T12:16:02Z</time>
      </trkpt>
      <trkpt lat="42.13381" lon="-8.79423">
        <ele>12.98</ele>
        <time>2018-07-28T12:16:03Z</time>
      </trkpt>
      <trkpt lat="42.13382" lon="-8.79406">
        <ele>13.315</ele>
        <time>2018-07-28T12:16:04Z</time>
      </trkpt>
      <trkpt lat="42.13379" lon="-8.79394">
        <ele>13.55</ele>
        <time>2018-07-28T12:16:05Z</time>
      </trkpt>
      <trkpt lat="42.13385" lon="-8.79376">
        <ele>13.648</ele>
        <time>2018-07-28T12:16:06Z</time>
      </trkpt>
      <trkpt lat="42.13391" lon="-8.79363">
        <ele>13.794</ele>
        <time>2018-07-28T12:16:07Z</time>
      </trkpt>
      <trkpt lat="42.13399" lon="-8.79348">
        <ele>13.932</ele>
        <time>2018-07-28T12:16:08Z</time>
      </trkpt>
      <trkpt lat="42.13407" lon="-8.79333">
        <ele>14.692</ele>
        <time>2018-07-28T12:16:09Z</time>
      </trkpt>
      <trkpt lat="42.13415" lon="-8.79314">
        <ele>15.011</ele>
        <time>2018-07-28T12:16:10Z</time>
      </trkpt>
      <trkpt lat="42.13424" lon="-8.79296">
        <ele>15.308</ele>
        <time>2018-07-28T12:16:11Z</time>
      </trkpt>
      <trkpt lat="42.13432" lon="-8.79277">
        <ele>15.765</ele>
        <time>2018-07-28T12:16:12Z</time>
      </trkpt>
      <trkpt lat="42.13443" lon="-8.79261">
        <ele>15.89</ele>
        <time>2018-07-28T12:16:13Z</time>
      </trkpt>
      <trkpt lat="42.13455" lon="-8.79248">
        <ele>16.123</ele>
        <time>2018-07-28T12:16:14Z</time>
      </trkpt>
      <trkpt lat="42.13464" lon="-8.7923">
        <ele>16.555</ele>
        <time>2018-07-28T12:16:15Z</time>
      </trkpt>
      <trkpt lat="42.13474" lon="-8.79216">
        <ele>17.12</ele>
        <time>2018-07-28T12:16:16Z</time>
      </trkpt>
      <trkpt lat="42.13482" lon="-8.79192">
        <ele>17.645</ele>
        <time>2018-07-28T12:16:17Z</time>
      </trkpt>
      <trkpt lat="42.13492" lon="-8.79178">
        <ele>18.053</ele>
        <time>2018-07-28T12:16:18Z</time>
      </trkpt>
      <trkpt lat="42.13503" lon="-8.79156">
        <ele>18.449</ele>
        <time>2018-07-28T12:16:19Z</time>
      </trkpt>
      <trkpt lat="42.13515" lon="-8.79139">
        <ele>19.158</ele>
        <time>2018-07-28T12:16:20Z</time>
      </trkpt>
      <trkpt lat="42.13522" lon="-8.79121">
        <ele>19.652</ele>
        <time>2018-07-28T12:16:21Z</time>
      </trkpt>
      <trkpt lat="42.13532" lon="-8.79098">
        <ele>20.117</ele>
        <time>2018-07-28T12:16:22Z</time>
      </trkpt>
      <trkpt lat="42.13539" lon="-8.79073">
        <ele>21.308</ele>
        <time>2018-07-28T12:16:23Z</time>
      </trkpt>
      <trkpt lat="42.13547" lon="-8.79049">
        <ele>21.787</ele>
        <time>2018-07-28T12:16:24Z</time>
      </trkpt>
      <trkpt lat="42.1355" lon="-8.79025">
        <ele>21.732</ele>
        <time>2018-07-28T12:16:25Z</time>
      </trkpt>
      <trkpt lat="42.13555" lon="-8.79">
        <ele>21.725</ele>
        <time>2018-07-28T12:16:26Z</time>
      </trkpt>
      <trkpt lat="42.13559" lon="-8.78977">
        <ele>21.467</ele>
        <time>2018-07-28T12:16:27Z</time>
      </trkpt>
      <trkpt lat="42.13565" lon="-8.78956">
        <ele>20.982</ele>
        <time>2018-07-28T12:16:28Z</time>
      </trkpt>
      <trkpt lat="42.13569" lon="-8.7893">
        <ele>20.547</ele>
        <time>2018-07-28T12:16:29Z</time>
      </trkpt>
      <trkpt lat="42.13573" lon="-8.78908">
        <ele>19.725</ele>
        <time>2018-07-28T12:16:30Z</time>
      </trkpt>
      <trkpt lat="42.13578" lon="-8.78892">
        <ele>19.611</ele>
        <time>2018-07-28T12:16:31Z</time>
      </trkpt>
      <trkpt lat="42.13581" lon="-8.78869">
        <ele>19.559</ele>
        <time>2018-07-28T12:16:32Z</time>
      </trkpt>
      <trkpt lat="42.1358" lon="-8.78851">
        <ele>19.403</ele>
        <time>2018-07-28T12:16:33Z</time>
      </trkpt>
      <trkpt lat="42.13586" lon="-8.7883">
        <ele>19.423</ele>
        <time>2018-07-28T12:16:34Z</time>
      </trkpt>
      <trkpt lat="42.13591" lon="-8.78811">
        <ele>19.608</ele>
        <time>2018-07-28T12:16:35Z</time>
      </trkpt>
      <trkpt lat="42.13594" lon="-8.78793">
        <ele>19.657</ele>
        <time>2018-07-28T12:16:36Z</time>
      </trkpt>
      <trkpt lat="42.13599" lon="-8.78777">
        <ele>19.332</ele>
        <time>2018-07-28T12:16:37Z</time>
      </trkpt>
      <trkpt lat="42.13597" lon="-8.7876">
        <ele>18.135</ele>
        <time>2018-07-28T12:16:38Z</time>
      </trkpt>
      <trkpt lat="42.13604" lon="-8.7875">
        <ele>17.287</ele>
        <time>2018-07-28T12:16:39Z</time>
      </trkpt>
      <trkpt lat="42.1361" lon="-8.78747">
        <ele>16.582</ele>
        <time>2018-07-28T12:16:40Z</time>
      </trkpt>
      <trkpt lat="42.13616" lon="-8.78741">
        <ele>16.087</ele>
        <time>2018-07-28T12:16:41Z</time>
      </trkpt>
      <trkpt lat="42.13623" lon="-8.78744">
        <ele>15.755</ele>
        <time>2018-07-28T12:16:42Z</time>
      </trkpt>
      <trkpt lat="42.13633" lon="-8.78751">
        <ele>15.711</ele>
        <time>2018-07-28T12:16:43Z</time>
      </trkpt>
      <trkpt lat="42.13643" lon="-8.78756">
        <ele>15.995</ele>
        <time>2018-07-28T12:16:44Z</time>
      </trkpt>
      <trkpt lat="42.13655" lon="-8.78757">
        <ele>16.349</ele>
        <time>2018-07-28T12:16:45Z</time>
      </trkpt>
      <trkpt lat="42.13663" lon="-8.78762">
        <ele>16.823</ele>
        <time>2018-07-28T12:16:46Z</time>
      </trkpt>
      <trkpt lat="42.13672" lon="-8.7877">
        <ele>17.008</ele>
        <time>2018-07-28T12:16:47Z</time>
      </trkpt>
      <trkpt lat="42.13677" lon="-8.78773">
        <ele>17.051</ele>
        <time>2018-07-28T12:16:48Z</time>
      </trkpt>
      <trkpt lat="42.13687" lon="-8.78779">
        <ele>16.826</ele>
        <time>2018-07-28T12:16:49Z</time>
      </trkpt>
      <trkpt lat="42.13692" lon="-8.78786">
        <ele>16.469</ele>
        <time>2018-07-28T12:16:50Z</time>
      </trkpt>
      <trkpt lat="42.13703" lon="-8.78787">
        <ele>16.191</ele>
        <time>2018-07-28T12:16:51Z</time>
      </trkpt>
      <trkpt lat="42.13712" lon="-8.78789">
        <ele>16.116</ele>
        <time>2018-07-28T12:16:52Z</time>
      </trkpt>
      <trkpt lat="42.13721" lon="-8.78792">
        <ele>16.491</ele>
        <time>2018-07-28T12:16:53Z</time>
      </trkpt>
      <trkpt lat="42.13727" lon="-8.78788">
        <ele>16.699</ele>
        <time>2018-07-28T12:16:54Z</time>
      </trkpt>
      <trkpt lat="42.13738" lon="-8.78793">
        <ele>16.895</ele>
        <time>2018-07-28T12:16:55Z</time>
      </trkpt>
      <trkpt lat="42.13748" lon="-8.78794">
        <ele>17.033</ele>
        <time>2018-07-28T12:16:56Z</time>
      </trkpt>
      <trkpt lat="42.1376" lon="-8.78797">
        <ele>17.323</ele>
        <time>2018-07-28T12:16:57Z</time>
      </trkpt>
      <trkpt lat="42.13774" lon="-8.78801">
        <ele>17.915</ele>
        <time>2018-07-28T12:16:58Z</time>
      </trkpt>
      <trkpt lat="42.1379" lon="-8.78808">
        <ele>18.608</ele>
        <time>2018-07-28T12:16:59Z</time>
      </trkpt>
      <trkpt lat="42.13805" lon="-8.78815">
        <ele>19.365</ele>
        <time>2018-07-28T12:17:00Z</time>
      </trkpt>
      <trkpt lat="42.13814" lon="-8.78822">
        <ele>19.94</ele>
        <time>2018-07-28T12:17:01Z</time>
      </trkpt>
      <trkpt lat="42.13825" lon="-8.78827">
        <ele>20.243</ele>
        <time>2018-07-28T12:17:02Z</time>
      </trkpt>
      <trkpt lat="42.13834" lon="-8.78831">
        <ele>20.215</ele>
        <time>2018-07-28T12:17:03Z</time>
      </trkpt>
      <trkpt lat="42.13846" lon="-8.78832">
        <ele>19.96</ele>
        <time>2018-07-28T12:17:04Z</time>
      </trkpt>
      <trkpt lat="42.13858" lon="-8.78833">
        <ele>19.645</ele>
        <time>2018-07-28T12:17:05Z</time>
      </trkpt>
      <trkpt lat="42.13869" lon="-8.78835">
        <ele>19.353</ele>
        <time>2018-07-28T12:17:06Z</time>
      </trkpt>
      <trkpt lat="42.13878" lon="-8.78838">
        <ele>19.349</ele>
        <time>2018-07-28T12:17:07Z</time>
      </trkpt>
      <trkpt lat="42.13886" lon="-8.78841">
        <ele>20.037</ele>
        <time>2018-07-28T12:17:08Z</time>
      </trkpt>
      <trkpt lat="42.13895" lon="-8.78846">
        <ele>20.049</ele>
        <time>2018-07-28T12:17:09Z</time>
      </trkpt>
      <trkpt lat="42.13903" lon="-8.7885">
        <ele>20.013</ele>
        <time>2018-07-28T12:17:10Z</time>
      </trkpt>
      <trkpt lat="42.13909" lon="-8.78855">
        <ele>18.908</ele>
        <time>2018-07-28T12:17:12Z</time>
      </trkpt>
      <trkpt lat="42.13912" lon="-8.78862">
        <ele>16.875</ele>
        <time>2018-07-28T12:17:17Z</time>
      </trkpt>
      <trkpt lat="42.13919" lon="-8.7886">
        <ele>16.65</ele>
        <time>2018-07-28T12:17:43Z</time>
      </trkpt>
      <trkpt lat="42.13914" lon="-8.78862">
        <ele>16.753</ele>
        <time>2018-07-28T12:18:53Z</time>
      </trkpt>
      <trkpt lat="42.13913" lon="-8.78856">
        <ele>16.815</ele>
        <time>2018-07-28T12:18:57Z</time>
      </trkpt>
      <trkpt lat="42.13915" lon="-8.78861">
        <ele>16.45</ele>
        <time>2018-07-28T12:19:33Z</time>
      </trkpt>
      <trkpt lat="42.13915" lon="-8.78867">
        <ele>16.275</ele>
        <time>2018-07-28T12:20:46Z</time>
      </trkpt>
      <trkpt lat="42.13916" lon="-8.7886">
        <ele>16.263</ele>
        <time>2018-07-28T12:21:03Z</time>
      </trkpt>
      <trkpt lat="42.13918" lon="-8.78866">
        <ele>16.349</ele>
        <time>2018-07-28T12:21:20Z</time>
      </trkpt>
      <trkpt lat="42.1392" lon="-8.78872">
        <ele>16.582</ele>
        <time>2018-07-28T12:21:27Z</time>
      </trkpt>
      <trkpt lat="42.13919" lon="-8.78878">
        <ele>15.843</ele>
        <time>2018-07-28T12:21:40Z</time>
      </trkpt>
      <trkpt lat="42.13919" lon="-8.78884">
        <ele>15.617</ele>
        <time>2018-07-28T12:21:44Z</time>
      </trkpt>
      <trkpt lat="42.13918" lon="-8.78891">
        <ele>15.008</ele>
        <time>2018-07-28T12:21:50Z</time>
      </trkpt>
      <trkpt lat="42.13919" lon="-8.789">
        <ele>22.09</ele>
        <time>2018-07-28T12:33:22Z</time>
      </trkpt>
      <trkpt lat="42.13929" lon="-8.7891">
        <ele>22.175</ele>
        <time>2018-07-28T12:34:10Z</time>
      </trkpt>
      <trkpt lat="42.13927" lon="-8.78904">
        <ele>22.128</ele>
        <time>2018-07-28T12:34:38Z</time>
      </trkpt>
      <trkpt lat="42.1394" lon="-8.78866">
        <ele>22.15</ele>
        <time>2018-07-28T12:35:14Z</time>
      </trkpt>
      <trkpt lat="42.13942" lon="-8.7886">
        <ele>22.145</ele>
        <time>2018-07-28T12:35:17Z</time>
      </trkpt>
      <trkpt lat="42.13945" lon="-8.78855">
        <ele>22.07</ele>
        <time>2018-07-28T12:35:25Z</time>
      </trkpt>
      <trkpt lat="42.13903" lon="-8.78951">
        <ele>21.368</ele>
        <time>2018-07-28T12:39:01Z</time>
      </trkpt>
      <trkpt lat="42.13935" lon="-8.78938">
        <ele>21.384</ele>
        <time>2018-07-28T12:39:55Z</time>
      </trkpt>
      <trkpt lat="42.1393" lon="-8.78934">
        <ele>21.397</ele>
        <time>2018-07-28T12:39:57Z</time>
      </trkpt>
      <trkpt lat="42.1393" lon="-8.78925">
        <ele>21.323</ele>
        <time>2018-07-28T12:40:00Z</time>
      </trkpt>
      <trkpt lat="42.13928" lon="-8.78919">
        <ele>21.425</ele>
        <time>2018-07-28T12:40:15Z</time>
      </trkpt>
      <trkpt lat="42.13934" lon="-8.78919">
        <ele>21.408</ele>
        <time>2018-07-28T12:40:32Z</time>
      </trkpt>
      <trkpt lat="42.13938" lon="-8.78914">
        <ele>21.581</ele>
        <time>2018-07-28T12:40:47Z</time>
      </trkpt>
      <trkpt lat="42.13942" lon="-8.78912">
        <ele>21.656</ele>
        <time>2018-07-28T12:41:41Z</time>
      </trkpt>
      <trkpt lat="42.13932" lon="-8.78932">
        <ele>21.619</ele>
        <time>2018-07-28T12:42:14Z</time>
      </trkpt>
      <trkpt lat="42.13923" lon="-8.78938">
        <ele>21.631</ele>
        <time>2018-07-28T12:42:26Z</time>
      </trkpt>
      <trkpt lat="42.13928" lon="-8.78935">
        <ele>21.576</ele>
        <time>2018-07-28T12:42:33Z</time>
      </trkpt>
      <trkpt lat="42.13924" lon="-8.78937">
        <ele>21.511</ele>
        <time>2018-07-28T12:42:38Z</time>
      </trkpt>
      <trkpt lat="42.13929" lon="-8.78939">
        <ele>21.579</ele>
        <time>2018-07-28T12:42:43Z</time>
      </trkpt>
      <trkpt lat="42.13933" lon="-8.78936">
        <ele>21.685</ele>
        <time>2018-07-28T12:42:52Z</time>
      </trkpt>
      <trkpt lat="42.13931" lon="-8.78931">
        <ele>21.694</ele>
        <time>2018-07-28T12:42:57Z</time>
      </trkpt>
      <trkpt lat="42.13933" lon="-8.78924">
        <ele>21.657</ele>
        <time>2018-07-28T12:43:01Z</time>
      </trkpt>
      <trkpt lat="42.13934" lon="-8.78916">
        <ele>21.622</ele>
        <time>2018-07-28T12:43:04Z</time>
      </trkpt>
      <trkpt lat="42.13934" lon="-8.7891">
        <ele>21.608</ele>
        <time>2018-07-28T12:43:08Z</time>
      </trkpt>
      <trkpt lat="42.13926" lon="-8.78907">
        <ele>21.771</ele>
        <time>2018-07-28T12:43:22Z</time>
      </trkpt>
      <trkpt lat="42.1393" lon="-8.7891">
        <ele>21.516</ele>
        <time>2018-07-28T12:44:40Z</time>
      </trkpt>
      <trkpt lat="42.13939" lon="-8.78911">
        <ele>21.649</ele>
        <time>2018-07-28T12:46:05Z</time>
      </trkpt>
      <trkpt lat="42.1393" lon="-8.78911">
        <ele>21.521</ele>
        <time>2018-07-28T12:46:07Z</time>
      </trkpt>
      <trkpt lat="42.13924" lon="-8.78911">
        <ele>21.536</ele>
        <time>2018-07-28T12:46:09Z</time>
      </trkpt>
      <trkpt lat="42.13928" lon="-8.78914">
        <ele>21.571</ele>
        <time>2018-07-28T12:46:13Z</time>
      </trkpt>
      <trkpt lat="42.13931" lon="-8.78921">
        <ele>21.389</ele>
        <time>2018-07-28T12:46:27Z</time>
      </trkpt>
      <trkpt lat="42.13952" lon="-8.78914">
        <ele>21.475</ele>
        <time>2018-07-28T12:47:43Z</time>
      </trkpt>
      <trkpt lat="42.13967" lon="-8.78911">
        <ele>21.451</ele>
        <time>2018-07-28T12:47:51Z</time>
      </trkpt>
      <trkpt lat="42.13973" lon="-8.7891">
        <ele>21.401</ele>
        <time>2018-07-28T12:47:52Z</time>
      </trkpt>
      <trkpt lat="42.13979" lon="-8.7891">
        <ele>21.411</ele>
        <time>2018-07-28T12:48:15Z</time>
      </trkpt>
      <trkpt lat="42.13969" lon="-8.78918">
        <ele>21.408</ele>
        <time>2018-07-28T12:50:33Z</time>
      </trkpt>
      <trkpt lat="42.1398" lon="-8.78916">
        <ele>21.467</ele>
        <time>2018-07-28T12:51:17Z</time>
      </trkpt>
      <trkpt lat="42.13987" lon="-8.78915">
        <ele>21.442</ele>
        <time>2018-07-28T12:51:18Z</time>
      </trkpt>
      <trkpt lat="42.13992" lon="-8.78914">
        <ele>21.495</ele>
        <time>2018-07-28T12:51:20Z</time>
      </trkpt>
      <trkpt lat="42.13984" lon="-8.78923">
        <ele>21.537</ele>
        <time>2018-07-28T12:52:06Z</time>
      </trkpt>
      <trkpt lat="42.13978" lon="-8.78927">
        <ele>21.572</ele>
        <time>2018-07-28T12:52:07Z</time>
      </trkpt>
      <trkpt lat="42.13974" lon="-8.7893">
        <ele>21.557</ele>
        <time>2018-07-28T12:52:09Z</time>
      </trkpt>
      <trkpt lat="42.13917" lon="-8.78941">
        <ele>21.965</ele>
        <time>2018-07-28T12:55:03Z</time>
      </trkpt>
      <trkpt lat="42.13905" lon="-8.78931">
        <ele>15.251</ele>
        <time>2018-07-28T13:06:00Z</time>
      </trkpt>
      <trkpt lat="42.1391" lon="-8.78923">
        <ele>15.321</ele>
        <time>2018-07-28T13:06:01Z</time>
      </trkpt>
      <trkpt lat="42.13912" lon="-8.78915">
        <ele>15.341</ele>
        <time>2018-07-28T13:06:03Z</time>
      </trkpt>
      <trkpt lat="42.1391" lon="-8.78909">
        <ele>15.205</ele>
        <time>2018-07-28T13:06:04Z</time>
      </trkpt>
      <trkpt lat="42.1391" lon="-8.78899">
        <ele>15.408</ele>
        <time>2018-07-28T13:06:05Z</time>
      </trkpt>
      <trkpt lat="42.13913" lon="-8.78893">
        <ele>15.494</ele>
        <time>2018-07-28T13:06:07Z</time>
      </trkpt>
      <trkpt lat="42.13914" lon="-8.78887">
        <ele>15.599</ele>
        <time>2018-07-28T13:06:15Z</time>
      </trkpt>
      <trkpt lat="42.13915" lon="-8.78881">
        <ele>15.542</ele>
        <time>2018-07-28T13:06:18Z</time>
      </trkpt>
      <trkpt lat="42.13917" lon="-8.78875">
        <ele>15.754</ele>
        <time>2018-07-28T13:06:26Z</time>
      </trkpt>
      <trkpt lat="42.1392" lon="-8.78869">
        <ele>16.119</ele>
        <time>2018-07-28T13:11:15Z</time>
      </trkpt>
      <trkpt lat="42.13917" lon="-8.78865">
        <ele>15.854</ele>
        <time>2018-07-28T13:11:57Z</time>
      </trkpt>
      <trkpt lat="42.13912" lon="-8.78863">
        <ele>15.932</ele>
        <time>2018-07-28T13:12:10Z</time>
      </trkpt>
      <trkpt lat="42.1391" lon="-8.78857">
        <ele>15.638</ele>
        <time>2018-07-28T13:12:44Z</time>
      </trkpt>
      <trkpt lat="42.13912" lon="-8.78863">
        <ele>15.893</ele>
        <time>2018-07-28T13:13:21Z</time>
      </trkpt>
      <trkpt lat="42.13913" lon="-8.78869">
        <ele>15.965</ele>
        <time>2018-07-28T13:13:44Z</time>
      </trkpt>
      <trkpt lat="42.13908" lon="-8.78871">
        <ele>16.021</ele>
        <time>2018-07-28T13:14:11Z</time>
      </trkpt>
      <trkpt lat="42.13912" lon="-8.78867">
        <ele>16.208</ele>
        <time>2018-07-28T13:14:46Z</time>
      </trkpt>
      <trkpt lat="42.13917" lon="-8.78868">
        <ele>16.511</ele>
        <time>2018-07-28T13:16:39Z</time>
      </trkpt>
      <trkpt lat="42.13916" lon="-8.78862">
        <ele>16.616</ele>
        <time>2018-07-28T13:19:11Z</time>
      </trkpt>
      <trkpt lat="42.1392" lon="-8.78858">
        <ele>17.069</ele>
        <time>2018-07-28T13:30:01Z</time>
      </trkpt>
      <trkpt lat="42.13924" lon="-8.78858">
        <ele>17.341</ele>
        <time>2018-07-28T13:30:58Z</time>
      </trkpt>
      <trkpt lat="42.13931" lon="-8.78858">
        <ele>17.516</ele>
        <time>2018-07-28T13:31:00Z</time>
      </trkpt>
      <trkpt lat="42.13934" lon="-8.78864">
        <ele>17.651</ele>
        <time>2018-07-28T13:31:02Z</time>
      </trkpt>
      <trkpt lat="42.13928" lon="-8.78865">
        <ele>17.399</ele>
        <time>2018-07-28T13:31:06Z</time>
      </trkpt>
      <trkpt lat="42.13923" lon="-8.78864">
        <ele>17.365</ele>
        <time>2018-07-28T13:31:07Z</time>
      </trkpt>
      <trkpt lat="42.13916" lon="-8.78859">
        <ele>17.599</ele>
        <time>2018-07-28T13:31:09Z</time>
      </trkpt>
      <trkpt lat="42.13911" lon="-8.78858">
        <ele>17.507</ele>
        <time>2018-07-28T13:31:10Z</time>
      </trkpt>
      <trkpt lat="42.13906" lon="-8.78856">
        <ele>17.527</ele>
        <time>2018-07-28T13:31:11Z</time>
      </trkpt>
      <trkpt lat="42.139" lon="-8.78855">
        <ele>17.508</ele>
        <time>2018-07-28T13:31:12Z</time>
      </trkpt>
      <trkpt lat="42.13894" lon="-8.78853">
        <ele>17.581</ele>
        <time>2018-07-28T13:31:13Z</time>
      </trkpt>
      <trkpt lat="42.13888" lon="-8.7885">
        <ele>17.586</ele>
        <time>2018-07-28T13:31:14Z</time>
      </trkpt>
      <trkpt lat="42.13881" lon="-8.78847">
        <ele>17.659</ele>
        <time>2018-07-28T13:31:15Z</time>
      </trkpt>
      <trkpt lat="42.13874" lon="-8.78844">
        <ele>17.761</ele>
        <time>2018-07-28T13:31:16Z</time>
      </trkpt>
      <trkpt lat="42.13868" lon="-8.78842">
        <ele>17.936</ele>
        <time>2018-07-28T13:31:17Z</time>
      </trkpt>
      <trkpt lat="42.13863" lon="-8.78842">
        <ele>18.091</ele>
        <time>2018-07-28T13:31:18Z</time>
      </trkpt>
      <trkpt lat="42.13857" lon="-8.78842">
        <ele>18.189</ele>
        <time>2018-07-28T13:31:20Z</time>
      </trkpt>
      <trkpt lat="42.1385" lon="-8.7884">
        <ele>18.185</ele>
        <time>2018-07-28T13:31:21Z</time>
      </trkpt>
      <trkpt lat="42.13844" lon="-8.78836">
        <ele>18.065</ele>
        <time>2018-07-28T13:31:22Z</time>
      </trkpt>
      <trkpt lat="42.13835" lon="-8.78832">
        <ele>18.068</ele>
        <time>2018-07-28T13:31:23Z</time>
      </trkpt>
      <trkpt lat="42.13826" lon="-8.78828">
        <ele>18.014</ele>
        <time>2018-07-28T13:31:24Z</time>
      </trkpt>
      <trkpt lat="42.13817" lon="-8.78825">
        <ele>18.108</ele>
        <time>2018-07-28T13:31:25Z</time>
      </trkpt>
      <trkpt lat="42.13809" lon="-8.78821">
        <ele>18.128</ele>
        <time>2018-07-28T13:31:26Z</time>
      </trkpt>
      <trkpt lat="42.13802" lon="-8.78818">
        <ele>17.853</ele>
        <time>2018-07-28T13:31:27Z</time>
      </trkpt>
      <trkpt lat="42.13796" lon="-8.78816">
        <ele>17.566</ele>
        <time>2018-07-28T13:31:28Z</time>
      </trkpt>
      <trkpt lat="42.13789" lon="-8.78813">
        <ele>17.098</ele>
        <time>2018-07-28T13:31:29Z</time>
      </trkpt>
      <trkpt lat="42.13782" lon="-8.7881">
        <ele>16.713</ele>
        <time>2018-07-28T13:31:30Z</time>
      </trkpt>
      <trkpt lat="42.13776" lon="-8.78806">
        <ele>16.488</ele>
        <time>2018-07-28T13:31:31Z</time>
      </trkpt>
      <trkpt lat="42.13768" lon="-8.78803">
        <ele>16.316</ele>
        <time>2018-07-28T13:31:32Z</time>
      </trkpt>
      <trkpt lat="42.13761" lon="-8.788">
        <ele>16.342</ele>
        <time>2018-07-28T13:31:33Z</time>
      </trkpt>
      <trkpt lat="42.13754" lon="-8.78797">
        <ele>16.189</ele>
        <time>2018-07-28T13:31:34Z</time>
      </trkpt>
      <trkpt lat="42.13747" lon="-8.78794">
        <ele>16.106</ele>
        <time>2018-07-28T13:31:35Z</time>
      </trkpt>
      <trkpt lat="42.1374" lon="-8.78791">
        <ele>16.126</ele>
        <time>2018-07-28T13:31:36Z</time>
      </trkpt>
      <trkpt lat="42.13732" lon="-8.78788">
        <ele>16.108</ele>
        <time>2018-07-28T13:31:37Z</time>
      </trkpt>
      <trkpt lat="42.13724" lon="-8.78787">
        <ele>16.07</ele>
        <time>2018-07-28T13:31:38Z</time>
      </trkpt>
      <trkpt lat="42.13717" lon="-8.78783">
        <ele>16.055</ele>
        <time>2018-07-28T13:31:39Z</time>
      </trkpt>
      <trkpt lat="42.1371" lon="-8.78781">
        <ele>16.068</ele>
        <time>2018-07-28T13:31:40Z</time>
      </trkpt>
      <trkpt lat="42.13702" lon="-8.78778">
        <ele>15.99</ele>
        <time>2018-07-28T13:31:41Z</time>
      </trkpt>
      <trkpt lat="42.13695" lon="-8.78776">
        <ele>16.065</ele>
        <time>2018-07-28T13:31:42Z</time>
      </trkpt>
      <trkpt lat="42.13687" lon="-8.78773">
        <ele>16.02</ele>
        <time>2018-07-28T13:31:43Z</time>
      </trkpt>
      <trkpt lat="42.1368" lon="-8.78771">
        <ele>16.258</ele>
        <time>2018-07-28T13:31:44Z</time>
      </trkpt>
      <trkpt lat="42.13673" lon="-8.78768">
        <ele>16.274</ele>
        <time>2018-07-28T13:31:45Z</time>
      </trkpt>
      <trkpt lat="42.13665" lon="-8.78766">
        <ele>16.426</ele>
        <time>2018-07-28T13:31:46Z</time>
      </trkpt>
      <trkpt lat="42.13657" lon="-8.78763">
        <ele>16.447</ele>
        <time>2018-07-28T13:31:47Z</time>
      </trkpt>
      <trkpt lat="42.13649" lon="-8.7876">
        <ele>16.611</ele>
        <time>2018-07-28T13:31:48Z</time>
      </trkpt>
      <trkpt lat="42.13641" lon="-8.78758">
        <ele>16.608</ele>
        <time>2018-07-28T13:31:49Z</time>
      </trkpt>
      <trkpt lat="42.13633" lon="-8.78756">
        <ele>16.514</ele>
        <time>2018-07-28T13:31:50Z</time>
      </trkpt>
      <trkpt lat="42.13625" lon="-8.78754">
        <ele>16.479</ele>
        <time>2018-07-28T13:31:51Z</time>
      </trkpt>
      <trkpt lat="42.13617" lon="-8.78755">
        <ele>16.272</ele>
        <time>2018-07-28T13:31:52Z</time>
      </trkpt>
      <trkpt lat="42.13611" lon="-8.78758">
        <ele>15.924</ele>
        <time>2018-07-28T13:31:53Z</time>
      </trkpt>
      <trkpt lat="42.13605" lon="-8.78764">
        <ele>15.899</ele>
        <time>2018-07-28T13:31:54Z</time>
      </trkpt>
      <trkpt lat="42.136" lon="-8.78773">
        <ele>15.824</ele>
        <time>2018-07-28T13:31:55Z</time>
      </trkpt>
      <trkpt lat="42.13599" lon="-8.78788">
        <ele>15.882</ele>
        <time>2018-07-28T13:31:56Z</time>
      </trkpt>
      <trkpt lat="42.13596" lon="-8.78805">
        <ele>16.598</ele>
        <time>2018-07-28T13:31:57Z</time>
      </trkpt>
      <trkpt lat="42.13593" lon="-8.78822">
        <ele>17.352</ele>
        <time>2018-07-28T13:31:58Z</time>
      </trkpt>
      <trkpt lat="42.1359" lon="-8.7884">
        <ele>18.253</ele>
        <time>2018-07-28T13:31:59Z</time>
      </trkpt>
      <trkpt lat="42.13586" lon="-8.78858">
        <ele>19.208</ele>
        <time>2018-07-28T13:32:00Z</time>
      </trkpt>
      <trkpt lat="42.13582" lon="-8.78877">
        <ele>20.208</ele>
        <time>2018-07-28T13:32:01Z</time>
      </trkpt>
      <trkpt lat="42.13579" lon="-8.78897">
        <ele>20.457</ele>
        <time>2018-07-28T13:32:02Z</time>
      </trkpt>
      <trkpt lat="42.13575" lon="-8.78916">
        <ele>20.592</ele>
        <time>2018-07-28T13:32:03Z</time>
      </trkpt>
      <trkpt lat="42.13571" lon="-8.78934">
        <ele>20.595</ele>
        <time>2018-07-28T13:32:04Z</time>
      </trkpt>
      <trkpt lat="42.13567" lon="-8.78953">
        <ele>20.317</ele>
        <time>2018-07-28T13:32:05Z</time>
      </trkpt>
      <trkpt lat="42.13564" lon="-8.78971">
        <ele>19.922</ele>
        <time>2018-07-28T13:32:06Z</time>
      </trkpt>
      <trkpt lat="42.1356" lon="-8.78988">
        <ele>19.927</ele>
        <time>2018-07-28T13:32:07Z</time>
      </trkpt>
      <trkpt lat="42.13557" lon="-8.79005">
        <ele>20.025</ele>
        <time>2018-07-28T13:32:08Z</time>
      </trkpt>
      <trkpt lat="42.13553" lon="-8.79022">
        <ele>20.591</ele>
        <time>2018-07-28T13:32:09Z</time>
      </trkpt>
      <trkpt lat="42.1355" lon="-8.7904">
        <ele>20.685</ele>
        <time>2018-07-28T13:32:10Z</time>
      </trkpt>
      <trkpt lat="42.13546" lon="-8.79057">
        <ele>20.689</ele>
        <time>2018-07-28T13:32:11Z</time>
      </trkpt>
      <trkpt lat="42.13542" lon="-8.79075">
        <ele>20.517</ele>
        <time>2018-07-28T13:32:12Z</time>
      </trkpt>
      <trkpt lat="42.13538" lon="-8.79092">
        <ele>20.208</ele>
        <time>2018-07-28T13:32:13Z</time>
      </trkpt>
      <trkpt lat="42.13533" lon="-8.7911">
        <ele>19.77</ele>
        <time>2018-07-28T13:32:14Z</time>
      </trkpt>
      <trkpt lat="42.13526" lon="-8.79126">
        <ele>19.165</ele>
        <time>2018-07-28T13:32:15Z</time>
      </trkpt>
      <trkpt lat="42.13518" lon="-8.79142">
        <ele>19.028</ele>
        <time>2018-07-28T13:32:16Z</time>
      </trkpt>
      <trkpt lat="42.1351" lon="-8.79158">
        <ele>18.58</ele>
        <time>2018-07-28T13:32:17Z</time>
      </trkpt>
      <trkpt lat="42.13501" lon="-8.79173">
        <ele>17.995</ele>
        <time>2018-07-28T13:32:18Z</time>
      </trkpt>
      <trkpt lat="42.13492" lon="-8.79188">
        <ele>17.87</ele>
        <time>2018-07-28T13:32:19Z</time>
      </trkpt>
      <trkpt lat="42.13483" lon="-8.79202">
        <ele>17.738</ele>
        <time>2018-07-28T13:32:20Z</time>
      </trkpt>
      <trkpt lat="42.13473" lon="-8.79217">
        <ele>17.854</ele>
        <time>2018-07-28T13:32:21Z</time>
      </trkpt>
      <trkpt lat="42.13464" lon="-8.79231">
        <ele>17.125</ele>
        <time>2018-07-28T13:32:22Z</time>
      </trkpt>
      <trkpt lat="42.13456" lon="-8.79247">
        <ele>18.026</ele>
        <time>2018-07-28T13:32:23Z</time>
      </trkpt>
      <trkpt lat="42.13447" lon="-8.79262">
        <ele>18.008</ele>
        <time>2018-07-28T13:32:24Z</time>
      </trkpt>
      <trkpt lat="42.13439" lon="-8.79276">
        <ele>18.308</ele>
        <time>2018-07-28T13:32:25Z</time>
      </trkpt>
      <trkpt lat="42.13432" lon="-8.79289">
        <ele>18.484</ele>
        <time>2018-07-28T13:32:26Z</time>
      </trkpt>
      <trkpt lat="42.13423" lon="-8.79303">
        <ele>18.769</ele>
        <time>2018-07-28T13:32:27Z</time>
      </trkpt>
      <trkpt lat="42.13415" lon="-8.79317">
        <ele>18.742</ele>
        <time>2018-07-28T13:32:28Z</time>
      </trkpt>
      <trkpt lat="42.13408" lon="-8.79332">
        <ele>18.014</ele>
        <time>2018-07-28T13:32:29Z</time>
      </trkpt>
      <trkpt lat="42.13401" lon="-8.79349">
        <ele>18.089</ele>
        <time>2018-07-28T13:32:30Z</time>
      </trkpt>
      <trkpt lat="42.13394" lon="-8.79366">
        <ele>18.014</ele>
        <time>2018-07-28T13:32:31Z</time>
      </trkpt>
      <trkpt lat="42.13388" lon="-8.79385">
        <ele>18.042</ele>
        <time>2018-07-28T13:32:32Z</time>
      </trkpt>
      <trkpt lat="42.13383" lon="-8.79405">
        <ele>18.028</ele>
        <time>2018-07-28T13:32:33Z</time>
      </trkpt>
      <trkpt lat="42.13379" lon="-8.79423">
        <ele>18.128</ele>
        <time>2018-07-28T13:32:34Z</time>
      </trkpt>
      <trkpt lat="42.13377" lon="-8.7944">
        <ele>18.289</ele>
        <time>2018-07-28T13:32:35Z</time>
      </trkpt>
      <trkpt lat="42.13374" lon="-8.79457">
        <ele>18.317</ele>
        <time>2018-07-28T13:32:36Z</time>
      </trkpt>
      <trkpt lat="42.13371" lon="-8.79472">
        <ele>18.308</ele>
        <time>2018-07-28T13:32:37Z</time>
      </trkpt>
      <trkpt lat="42.13369" lon="-8.79487">
        <ele>17.924</ele>
        <time>2018-07-28T13:32:38Z</time>
      </trkpt>
      <trkpt lat="42.13367" lon="-8.79499">
        <ele>17.319</ele>
        <time>2018-07-28T13:32:39Z</time>
      </trkpt>
      <trkpt lat="42.13365" lon="-8.7951">
        <ele>16.512</ele>
        <time>2018-07-28T13:32:40Z</time>
      </trkpt>
      <trkpt lat="42.13365" lon="-8.79521">
        <ele>15.784</ele>
        <time>2018-07-28T13:32:41Z</time>
      </trkpt>
      <trkpt lat="42.13366" lon="-8.79532">
        <ele>14.819</ele>
        <time>2018-07-28T13:32:42Z</time>
      </trkpt>
      <trkpt lat="42.1337" lon="-8.79542">
        <ele>14.064</ele>
        <time>2018-07-28T13:32:43Z</time>
      </trkpt>
      <trkpt lat="42.13372" lon="-8.79553">
        <ele>14.032</ele>
        <time>2018-07-28T13:32:44Z</time>
      </trkpt>
      <trkpt lat="42.13372" lon="-8.79564">
        <ele>14.298</ele>
        <time>2018-07-28T13:32:45Z</time>
      </trkpt>
      <trkpt lat="42.13368" lon="-8.79575">
        <ele>14.324</ele>
        <time>2018-07-28T13:32:46Z</time>
      </trkpt>
      <trkpt lat="42.13361" lon="-8.79585">
        <ele>14.304</ele>
        <time>2018-07-28T13:32:47Z</time>
      </trkpt>
      <trkpt lat="42.13354" lon="-8.79596">
        <ele>14.214</ele>
        <time>2018-07-28T13:32:48Z</time>
      </trkpt>
      <trkpt lat="42.1335" lon="-8.7961">
        <ele>14.108</ele>
        <time>2018-07-28T13:32:49Z</time>
      </trkpt>
      <trkpt lat="42.13346" lon="-8.79625">
        <ele>14.174</ele>
        <time>2018-07-28T13:32:50Z</time>
      </trkpt>
      <trkpt lat="42.13342" lon="-8.79641">
        <ele>14.199</ele>
        <time>2018-07-28T13:32:51Z</time>
      </trkpt>
      <trkpt lat="42.1334" lon="-8.79658">
        <ele>14.452</ele>
        <time>2018-07-28T13:32:52Z</time>
      </trkpt>
      <trkpt lat="42.13338" lon="-8.79676">
        <ele>14.784</ele>
        <time>2018-07-28T13:32:53Z</time>
      </trkpt>
      <trkpt lat="42.13336" lon="-8.79694">
        <ele>15.029</ele>
        <time>2018-07-28T13:32:54Z</time>
      </trkpt>
      <trkpt lat="42.13336" lon="-8.79713">
        <ele>15.394</ele>
        <time>2018-07-28T13:32:55Z</time>
      </trkpt>
      <trkpt lat="42.13337" lon="-8.79731">
        <ele>15.782</ele>
        <time>2018-07-28T13:32:56Z</time>
      </trkpt>
      <trkpt lat="42.13339" lon="-8.7975">
        <ele>16.198</ele>
        <time>2018-07-28T13:32:57Z</time>
      </trkpt>
      <trkpt lat="42.13341" lon="-8.79769">
        <ele>16.314</ele>
        <time>2018-07-28T13:32:58Z</time>
      </trkpt>
      <trkpt lat="42.13345" lon="-8.79788">
        <ele>16.654</ele>
        <time>2018-07-28T13:32:59Z</time>
      </trkpt>
      <trkpt lat="42.13349" lon="-8.79808">
        <ele>16.909</ele>
        <time>2018-07-28T13:33:00Z</time>
      </trkpt>
      <trkpt lat="42.13354" lon="-8.79829">
        <ele>17.408</ele>
        <time>2018-07-28T13:33:01Z</time>
      </trkpt>
      <trkpt lat="42.13358" lon="-8.7985">
        <ele>17.993</ele>
        <time>2018-07-28T13:33:02Z</time>
      </trkpt>
      <trkpt lat="42.13363" lon="-8.79871">
        <ele>18.688</ele>
        <time>2018-07-28T13:33:03Z</time>
      </trkpt>
      <trkpt lat="42.13367" lon="-8.79892">
        <ele>19.441</ele>
        <time>2018-07-28T13:33:04Z</time>
      </trkpt>
      <trkpt lat="42.13369" lon="-8.79913">
        <ele>20.133</ele>
        <time>2018-07-28T13:33:05Z</time>
      </trkpt>
      <trkpt lat="42.13376" lon="-8.79934">
        <ele>20.858</ele>
        <time>2018-07-28T13:33:06Z</time>
      </trkpt>
      <trkpt lat="42.13381" lon="-8.79955">
        <ele>21.373</ele>
        <time>2018-07-28T13:33:07Z</time>
      </trkpt>
      <trkpt lat="42.13384" lon="-8.79977">
        <ele>21.891</ele>
        <time>2018-07-28T13:33:08Z</time>
      </trkpt>
      <trkpt lat="42.13386" lon="-8.79996">
        <ele>22.217</ele>
        <time>2018-07-28T13:33:09Z</time>
      </trkpt>
      <trkpt lat="42.13388" lon="-8.80014">
        <ele>22.569</ele>
        <time>2018-07-28T13:33:10Z</time>
      </trkpt>
      <trkpt lat="42.13393" lon="-8.80031">
        <ele>22.704</ele>
        <time>2018-07-28T13:33:11Z</time>
      </trkpt>
      <trkpt lat="42.13392" lon="-8.80047">
        <ele>22.924</ele>
        <time>2018-07-28T13:33:12Z</time>
      </trkpt>
      <trkpt lat="42.13396" lon="-8.80059">
        <ele>22.908</ele>
        <time>2018-07-28T13:33:13Z</time>
      </trkpt>
      <trkpt lat="42.13399" lon="-8.80072">
        <ele>22.948</ele>
        <time>2018-07-28T13:33:14Z</time>
      </trkpt>
      <trkpt lat="42.13403" lon="-8.80082">
        <ele>22.993</ele>
        <time>2018-07-28T13:33:15Z</time>
      </trkpt>
      <trkpt lat="42.13409" lon="-8.80091">
        <ele>22.996</ele>
        <time>2018-07-28T13:33:16Z</time>
      </trkpt>
      <trkpt lat="42.13419" lon="-8.80096">
        <ele>23.138</ele>
        <time>2018-07-28T13:33:17Z</time>
      </trkpt>
      <trkpt lat="42.13427" lon="-8.80102">
        <ele>23.373</ele>
        <time>2018-07-28T13:33:18Z</time>
      </trkpt>
      <trkpt lat="42.1343" lon="-8.80112">
        <ele>23.718</ele>
        <time>2018-07-28T13:33:19Z</time>
      </trkpt>
      <trkpt lat="42.1343" lon="-8.80122">
        <ele>23.756</ele>
        <time>2018-07-28T13:33:20Z</time>
      </trkpt>
      <trkpt lat="42.13427" lon="-8.80132">
        <ele>23.622</ele>
        <time>2018-07-28T13:33:21Z</time>
      </trkpt>
      <trkpt lat="42.13424" lon="-8.80141">
        <ele>23.491</ele>
        <time>2018-07-28T13:33:22Z</time>
      </trkpt>
      <trkpt lat="42.13417" lon="-8.80148">
        <ele>23.281</ele>
        <time>2018-07-28T13:33:23Z</time>
      </trkpt>
      <trkpt lat="42.13406" lon="-8.80151">
        <ele>23.219</ele>
        <time>2018-07-28T13:33:24Z</time>
      </trkpt>
      <trkpt lat="42.13397" lon="-8.80154">
        <ele>23.208</ele>
        <time>2018-07-28T13:33:25Z</time>
      </trkpt>
      <trkpt lat="42.13385" lon="-8.80155">
        <ele>23.561</ele>
        <time>2018-07-28T13:33:26Z</time>
      </trkpt>
      <trkpt lat="42.13374" lon="-8.80159">
        <ele>23.956</ele>
        <time>2018-07-28T13:33:27Z</time>
      </trkpt>
      <trkpt lat="42.13361" lon="-8.80174">
        <ele>24.429</ele>
        <time>2018-07-28T13:33:28Z</time>
      </trkpt>
      <trkpt lat="42.13348" lon="-8.80188">
        <ele>24.911</ele>
        <time>2018-07-28T13:33:29Z</time>
      </trkpt>
      <trkpt lat="42.13337" lon="-8.80201">
        <ele>25.486</ele>
        <time>2018-07-28T13:33:30Z</time>
      </trkpt>
      <trkpt lat="42.13326" lon="-8.80213">
        <ele>25.411</ele>
        <time>2018-07-28T13:33:31Z</time>
      </trkpt>
      <trkpt lat="42.13316" lon="-8.80226">
        <ele>25.359</ele>
        <time>2018-07-28T13:33:32Z</time>
      </trkpt>
      <trkpt lat="42.13307" lon="-8.80238">
        <ele>24.725</ele>
        <time>2018-07-28T13:33:33Z</time>
      </trkpt>
      <trkpt lat="42.13297" lon="-8.8025">
        <ele>23.828</ele>
        <time>2018-07-28T13:33:34Z</time>
      </trkpt>
      <trkpt lat="42.13287" lon="-8.80262">
        <ele>22.689</ele>
        <time>2018-07-28T13:33:35Z</time>
      </trkpt>
      <trkpt lat="42.13276" lon="-8.80275">
        <ele>21.317</ele>
        <time>2018-07-28T13:33:36Z</time>
      </trkpt>
      <trkpt lat="42.13265" lon="-8.80284">
        <ele>18.908</ele>
        <time>2018-07-28T13:33:37Z</time>
      </trkpt>
      <trkpt lat="42.13255" lon="-8.80296">
        <ele>18.084</ele>
        <time>2018-07-28T13:33:38Z</time>
      </trkpt>
      <trkpt lat="42.13246" lon="-8.80304">
        <ele>16.889</ele>
        <time>2018-07-28T13:33:39Z</time>
      </trkpt>
      <trkpt lat="42.1324" lon="-8.80312">
        <ele>15.482</ele>
        <time>2018-07-28T13:33:40Z</time>
      </trkpt>
      <trkpt lat="42.13236" lon="-8.80318">
        <ele>14.184</ele>
        <time>2018-07-28T13:33:41Z</time>
      </trkpt>
      <trkpt lat="42.13232" lon="-8.80327">
        <ele>9.819</ele>
        <time>2018-07-28T13:33:45Z</time>
      </trkpt>
      <trkpt lat="42.1323" lon="-8.80335">
        <ele>9.784</ele>
        <time>2018-07-28T13:33:46Z</time>
      </trkpt>
      <trkpt lat="42.13231" lon="-8.80348">
        <ele>9.752</ele>
        <time>2018-07-28T13:33:47Z</time>
      </trkpt>
      <trkpt lat="42.13234" lon="-8.80365">
        <ele>10.228</ele>
        <time>2018-07-28T13:33:48Z</time>
      </trkpt>
      <trkpt lat="42.13235" lon="-8.8038">
        <ele>10.841</ele>
        <time>2018-07-28T13:33:49Z</time>
      </trkpt>
      <trkpt lat="42.13237" lon="-8.80396">
        <ele>11.581</ele>
        <time>2018-07-28T13:33:50Z</time>
      </trkpt>
      <trkpt lat="42.13243" lon="-8.80417">
        <ele>12.609</ele>
        <time>2018-07-28T13:33:51Z</time>
      </trkpt>
      <trkpt lat="42.13251" lon="-8.8044">
        <ele>13.808</ele>
        <time>2018-07-28T13:33:52Z</time>
      </trkpt>
      <trkpt lat="42.13263" lon="-8.80469">
        <ele>15.166</ele>
        <time>2018-07-28T13:33:53Z</time>
      </trkpt>
      <trkpt lat="42.13275" lon="-8.80494">
        <ele>18.511</ele>
        <time>2018-07-28T13:33:54Z</time>
      </trkpt>
      <trkpt lat="42.13286" lon="-8.80518">
        <ele>19.724</ele>
        <time>2018-07-28T13:33:55Z</time>
      </trkpt>
      <trkpt lat="42.13297" lon="-8.80544">
        <ele>20.746</ele>
        <time>2018-07-28T13:33:56Z</time>
      </trkpt>
      <trkpt lat="42.13301" lon="-8.80571">
        <ele>21.631</ele>
        <time>2018-07-28T13:33:57Z</time>
      </trkpt>
      <trkpt lat="42.13311" lon="-8.80598">
        <ele>22.276</ele>
        <time>2018-07-28T13:33:58Z</time>
      </trkpt>
      <trkpt lat="42.13314" lon="-8.80628">
        <ele>22.324</ele>
        <time>2018-07-28T13:33:59Z</time>
      </trkpt>
      <trkpt lat="42.13319" lon="-8.80653">
        <ele>22.35</ele>
        <time>2018-07-28T13:34:00Z</time>
      </trkpt>
      <trkpt lat="42.13319" lon="-8.80678">
        <ele>22.347</ele>
        <time>2018-07-28T13:34:01Z</time>
      </trkpt>
      <trkpt lat="42.13322" lon="-8.80702">
        <ele>21.629</ele>
        <time>2018-07-28T13:34:02Z</time>
      </trkpt>
      <trkpt lat="42.13323" lon="-8.80723">
        <ele>20.321</ele>
        <time>2018-07-28T13:34:03Z</time>
      </trkpt>
      <trkpt lat="42.13321" lon="-8.80743">
        <ele>19.008</ele>
        <time>2018-07-28T13:34:04Z</time>
      </trkpt>
      <trkpt lat="42.13323" lon="-8.8076">
        <ele>17.516</ele>
        <time>2018-07-28T13:34:05Z</time>
      </trkpt>
      <trkpt lat="42.13327" lon="-8.80775">
        <ele>16.141</ele>
        <time>2018-07-28T13:34:06Z</time>
      </trkpt>
      <trkpt lat="42.13331" lon="-8.80789">
        <ele>14.684</ele>
        <time>2018-07-28T13:34:07Z</time>
      </trkpt>
      <trkpt lat="42.13335" lon="-8.80797">
        <ele>13.396</ele>
        <time>2018-07-28T13:34:08Z</time>
      </trkpt>
      <trkpt lat="42.13339" lon="-8.80804">
        <ele>12.161</ele>
        <time>2018-07-28T13:34:09Z</time>
      </trkpt>
      <trkpt lat="42.13343" lon="-8.80812">
        <ele>9.926</ele>
        <time>2018-07-28T13:34:11Z</time>
      </trkpt>
      <trkpt lat="42.13347" lon="-8.80818">
        <ele>8.094</ele>
        <time>2018-07-28T13:34:13Z</time>
      </trkpt>
      <trkpt lat="42.1335" lon="-8.80826">
        <ele>7.78</ele>
        <time>2018-07-28T13:34:15Z</time>
      </trkpt>
      <trkpt lat="42.13356" lon="-8.80829">
        <ele>7.765</ele>
        <time>2018-07-28T13:34:16Z</time>
      </trkpt>
      <trkpt lat="42.13365" lon="-8.8083">
        <ele>7.968</ele>
        <time>2018-07-28T13:34:17Z</time>
      </trkpt>
      <trkpt lat="42.13377" lon="-8.80827">
        <ele>8.114</ele>
        <time>2018-07-28T13:34:18Z</time>
      </trkpt>
      <trkpt lat="42.1339" lon="-8.80826">
        <ele>8.308</ele>
        <time>2018-07-28T13:34:19Z</time>
      </trkpt>
      <trkpt lat="42.13403" lon="-8.80826">
        <ele>8.548</ele>
        <time>2018-07-28T13:34:20Z</time>
      </trkpt>
      <trkpt lat="42.13416" lon="-8.80824">
        <ele>8.713</ele>
        <time>2018-07-28T13:34:21Z</time>
      </trkpt>
      <trkpt lat="42.13427" lon="-8.80821">
        <ele>9.056</ele>
        <time>2018-07-28T13:34:22Z</time>
      </trkpt>
      <trkpt lat="42.13437" lon="-8.80819">
        <ele>9.798</ele>
        <time>2018-07-28T13:34:23Z</time>
      </trkpt>
      <trkpt lat="42.13448" lon="-8.80818">
        <ele>10.073</ele>
        <time>2018-07-28T13:34:24Z</time>
      </trkpt>
      <trkpt lat="42.1346" lon="-8.80816">
        <ele>10.438</ele>
        <time>2018-07-28T13:34:25Z</time>
      </trkpt>
      <trkpt lat="42.13473" lon="-8.80816">
        <ele>10.996</ele>
        <time>2018-07-28T13:34:26Z</time>
      </trkpt>
      <trkpt lat="42.13487" lon="-8.80815">
        <ele>11.542</ele>
        <time>2018-07-28T13:34:27Z</time>
      </trkpt>
      <trkpt lat="42.13502" lon="-8.80813">
        <ele>11.971</ele>
        <time>2018-07-28T13:34:28Z</time>
      </trkpt>
      <trkpt lat="42.13515" lon="-8.80812">
        <ele>13.341</ele>
        <time>2018-07-28T13:34:29Z</time>
      </trkpt>
      <trkpt lat="42.13529" lon="-8.80809">
        <ele>14.015</ele>
        <time>2018-07-28T13:34:30Z</time>
      </trkpt>
      <trkpt lat="42.13545" lon="-8.80809">
        <ele>15.008</ele>
        <time>2018-07-28T13:34:31Z</time>
      </trkpt>
      <trkpt lat="42.13562" lon="-8.80808">
        <ele>15.699</ele>
        <time>2018-07-28T13:34:32Z</time>
      </trkpt>
      <trkpt lat="42.13577" lon="-8.80804">
        <ele>16.224</ele>
        <time>2018-07-28T13:34:33Z</time>
      </trkpt>
      <trkpt lat="42.13591" lon="-8.80804">
        <ele>17.037</ele>
        <time>2018-07-28T13:34:34Z</time>
      </trkpt>
      <trkpt lat="42.13605" lon="-8.80803">
        <ele>17.519</ele>
        <time>2018-07-28T13:34:35Z</time>
      </trkpt>
      <trkpt lat="42.13619" lon="-8.80802">
        <ele>17.624</ele>
        <time>2018-07-28T13:34:36Z</time>
      </trkpt>
      <trkpt lat="42.13633" lon="-8.80798">
        <ele>18.079</ele>
        <time>2018-07-28T13:34:37Z</time>
      </trkpt>
      <trkpt lat="42.13646" lon="-8.80799">
        <ele>18.417</ele>
        <time>2018-07-28T13:34:38Z</time>
      </trkpt>
      <trkpt lat="42.1366" lon="-8.80797">
        <ele>18.633</ele>
        <time>2018-07-28T13:34:39Z</time>
      </trkpt>
      <trkpt lat="42.13673" lon="-8.80794">
        <ele>18.783</ele>
        <time>2018-07-28T13:34:40Z</time>
      </trkpt>
      <trkpt lat="42.13686" lon="-8.80793">
        <ele>18.825</ele>
        <time>2018-07-28T13:34:41Z</time>
      </trkpt>
      <trkpt lat="42.13699" lon="-8.80792">
        <ele>19.117</ele>
        <time>2018-07-28T13:34:42Z</time>
      </trkpt>
      <trkpt lat="42.13711" lon="-8.80789">
        <ele>19.408</ele>
        <time>2018-07-28T13:34:43Z</time>
      </trkpt>
      <trkpt lat="42.13725" lon="-8.80784">
        <ele>19.93</ele>
        <time>2018-07-28T13:34:44Z</time>
      </trkpt>
      <trkpt lat="42.13738" lon="-8.80779">
        <ele>20.695</ele>
        <time>2018-07-28T13:34:45Z</time>
      </trkpt>
      <trkpt lat="42.13751" lon="-8.80772">
        <ele>21.958</ele>
        <time>2018-07-28T13:34:46Z</time>
      </trkpt>
      <trkpt lat="42.13764" lon="-8.80764">
        <ele>22.78</ele>
        <time>2018-07-28T13:34:47Z</time>
      </trkpt>
      <trkpt lat="42.13777" lon="-8.80754">
        <ele>23.245</ele>
        <time>2018-07-28T13:34:48Z</time>
      </trkpt>
      <trkpt lat="42.13789" lon="-8.80747">
        <ele>23.55</ele>
        <time>2018-07-28T13:34:49Z</time>
      </trkpt>
      <trkpt lat="42.138" lon="-8.80742">
        <ele>23.538</ele>
        <time>2018-07-28T13:34:50Z</time>
      </trkpt>
      <trkpt lat="42.13808" lon="-8.80738">
        <ele>23.324</ele>
        <time>2018-07-28T13:34:51Z</time>
      </trkpt>
      <trkpt lat="42.13816" lon="-8.80737">
        <ele>22.958</ele>
        <time>2018-07-28T13:34:52Z</time>
      </trkpt>
      <trkpt lat="42.13825" lon="-8.80738">
        <ele>22.552</ele>
        <time>2018-07-28T13:34:53Z</time>
      </trkpt>
      <trkpt lat="42.13834" lon="-8.80743">
        <ele>22.217</ele>
        <time>2018-07-28T13:34:54Z</time>
      </trkpt>
      <trkpt lat="42.13841" lon="-8.80742">
        <ele>22.208</ele>
        <time>2018-07-28T13:34:55Z</time>
      </trkpt>
      <trkpt lat="42.13847" lon="-8.80738">
        <ele>22.257</ele>
        <time>2018-07-28T13:34:56Z</time>
      </trkpt>
      <trkpt lat="42.13851" lon="-8.80735">
        <ele>22.362</ele>
        <time>2018-07-28T13:34:57Z</time>
      </trkpt>
      <trkpt lat="42.13858" lon="-8.80725">
        <ele>22.845</ele>
        <time>2018-07-28T13:34:59Z</time>
      </trkpt>
      <trkpt lat="42.13864" lon="-8.80721">
        <ele>23.287</ele>
        <time>2018-07-28T13:35:01Z</time>
      </trkpt>
      <trkpt lat="42.13866" lon="-8.80714">
        <ele>23.892</ele>
        <time>2018-07-28T13:35:04Z</time>
      </trkpt>
      <trkpt lat="42.13875" lon="-8.80721">
        <ele>24.157</ele>
        <time>2018-07-28T13:35:10Z</time>
      </trkpt>
      <trkpt lat="42.13878" lon="-8.80728">
        <ele>24.355</ele>
        <time>2018-07-28T13:35:11Z</time>
      </trkpt>
      <trkpt lat="42.13878" lon="-8.80738">
        <ele>24.661</ele>
        <time>2018-07-28T13:35:13Z</time>
      </trkpt>
      <trkpt lat="42.13879" lon="-8.80745">
        <ele>24.642</ele>
        <time>2018-07-28T13:35:14Z</time>
      </trkpt>
      <trkpt lat="42.13884" lon="-8.80759">
        <ele>24.522</ele>
        <time>2018-07-28T13:35:16Z</time>
      </trkpt>
      <trkpt lat="42.13882" lon="-8.80767">
        <ele>24.014</ele>
        <time>2018-07-28T13:35:18Z</time>
      </trkpt>
      <trkpt lat="42.13879" lon="-8.80771">
        <ele>22.608</ele>
        <time>2018-07-28T13:35:28Z</time>
      </trkpt>
      <trkpt lat="42.13883" lon="-8.80768">
        <ele>22.566</ele>
        <time>2018-07-28T13:35:38Z</time>
      </trkpt>
      <trkpt lat="42.13884" lon="-8.80776">
        <ele>22.611</ele>
        <time>2018-07-28T13:35:40Z</time>
      </trkpt>
      <trkpt lat="42.13884" lon="-8.80785">
        <ele>22.774</ele>
        <time>2018-07-28T13:35:41Z</time>
      </trkpt>
      <trkpt lat="42.13885" lon="-8.80795">
        <ele>22.856</ele>
        <time>2018-07-28T13:35:42Z</time>
      </trkpt>
      <trkpt lat="42.1389" lon="-8.80805">
        <ele>22.981</ele>
        <time>2018-07-28T13:35:43Z</time>
      </trkpt>
      <trkpt lat="42.13892" lon="-8.80815">
        <ele>23.036</ele>
        <time>2018-07-28T13:35:44Z</time>
      </trkpt>
      <trkpt lat="42.13892" lon="-8.80822">
        <ele>23.064</ele>
        <time>2018-07-28T13:35:45Z</time>
      </trkpt>
      <trkpt lat="42.13894" lon="-8.80828">
        <ele>23.02</ele>
        <time>2018-07-28T13:35:46Z</time>
      </trkpt>
      <trkpt lat="42.13902" lon="-8.80824">
        <ele>23.038</ele>
        <time>2018-07-28T13:35:47Z</time>
      </trkpt>
      <trkpt lat="42.13911" lon="-8.80821">
        <ele>23.17</ele>
        <time>2018-07-28T13:35:48Z</time>
      </trkpt>
      <trkpt lat="42.1392" lon="-8.8082">
        <ele>23.417</ele>
        <time>2018-07-28T13:35:49Z</time>
      </trkpt>
      <trkpt lat="42.13931" lon="-8.8082">
        <ele>23.808</ele>
        <time>2018-07-28T13:35:50Z</time>
      </trkpt>
      <trkpt lat="42.13941" lon="-8.80819">
        <ele>24.245</ele>
        <time>2018-07-28T13:35:51Z</time>
      </trkpt>
      <trkpt lat="42.13961" lon="-8.80809">
        <ele>24.67</ele>
        <time>2018-07-28T13:35:52Z</time>
      </trkpt>
      <trkpt lat="42.13976" lon="-8.80812">
        <ele>25.143</ele>
        <time>2018-07-28T13:35:53Z</time>
      </trkpt>
      <trkpt lat="42.13986" lon="-8.80814">
        <ele>26.415</ele>
        <time>2018-07-28T13:35:54Z</time>
      </trkpt>
      <trkpt lat="42.13998" lon="-8.8082">
        <ele>27.29</ele>
        <time>2018-07-28T13:35:55Z</time>
      </trkpt>
      <trkpt lat="42.14007" lon="-8.80828">
        <ele>28.125</ele>
        <time>2018-07-28T13:35:56Z</time>
      </trkpt>
      <trkpt lat="42.14016" lon="-8.80834">
        <ele>28.813</ele>
        <time>2018-07-28T13:35:57Z</time>
      </trkpt>
      <trkpt lat="42.14024" lon="-8.80839">
        <ele>29.189</ele>
        <time>2018-07-28T13:35:58Z</time>
      </trkpt>
      <trkpt lat="42.14031" lon="-8.80844">
        <ele>29.319</ele>
        <time>2018-07-28T13:35:59Z</time>
      </trkpt>
      <trkpt lat="42.14041" lon="-8.80851">
        <ele>29.309</ele>
        <time>2018-07-28T13:36:00Z</time>
      </trkpt>
      <trkpt lat="42.14051" lon="-8.80856">
        <ele>29.319</ele>
        <time>2018-07-28T13:36:01Z</time>
      </trkpt>
      <trkpt lat="42.14062" lon="-8.80864">
        <ele>29.408</ele>
        <time>2018-07-28T13:36:02Z</time>
      </trkpt>
      <trkpt lat="42.14074" lon="-8.8087">
        <ele>29.623</ele>
        <time>2018-07-28T13:36:03Z</time>
      </trkpt>
      <trkpt lat="42.14085" lon="-8.80875">
        <ele>29.848</ele>
        <time>2018-07-28T13:36:04Z</time>
      </trkpt>
      <trkpt lat="42.14094" lon="-8.8088">
        <ele>29.861</ele>
        <time>2018-07-28T13:36:05Z</time>
      </trkpt>
      <trkpt lat="42.14102" lon="-8.80883">
        <ele>29.543</ele>
        <time>2018-07-28T13:36:06Z</time>
      </trkpt>
      <trkpt lat="42.1411" lon="-8.80889">
        <ele>29.158</ele>
        <time>2018-07-28T13:36:07Z</time>
      </trkpt>
      <trkpt lat="42.14119" lon="-8.80892">
        <ele>28.893</ele>
        <time>2018-07-28T13:36:08Z</time>
      </trkpt>
      <trkpt lat="42.14128" lon="-8.80899">
        <ele>28.721</ele>
        <time>2018-07-28T13:36:09Z</time>
      </trkpt>
      <trkpt lat="42.14138" lon="-8.809">
        <ele>28.787</ele>
        <time>2018-07-28T13:36:10Z</time>
      </trkpt>
      <trkpt lat="42.14147" lon="-8.80898">
        <ele>28.866</ele>
        <time>2018-07-28T13:36:11Z</time>
      </trkpt>
      <trkpt lat="42.14154" lon="-8.80904">
        <ele>28.829</ele>
        <time>2018-07-28T13:36:12Z</time>
      </trkpt>
      <trkpt lat="42.14161" lon="-8.80912">
        <ele>28.821</ele>
        <time>2018-07-28T13:36:13Z</time>
      </trkpt>
      <trkpt lat="42.14166" lon="-8.80919">
        <ele>28.608</ele>
        <time>2018-07-28T13:36:14Z</time>
      </trkpt>
      <trkpt lat="42.14172" lon="-8.80926">
        <ele>28.558</ele>
        <time>2018-07-28T13:36:15Z</time>
      </trkpt>
      <trkpt lat="42.14179" lon="-8.80931">
        <ele>28.433</ele>
        <time>2018-07-28T13:36:16Z</time>
      </trkpt>
      <trkpt lat="42.14189" lon="-8.80938">
        <ele>28.426</ele>
        <time>2018-07-28T13:36:17Z</time>
      </trkpt>
      <trkpt lat="42.14199" lon="-8.80945">
        <ele>28.558</ele>
        <time>2018-07-28T13:36:18Z</time>
      </trkpt>
      <trkpt lat="42.1421" lon="-8.8095">
        <ele>28.763</ele>
        <time>2018-07-28T13:36:19Z</time>
      </trkpt>
      <trkpt lat="42.14222" lon="-8.80956">
        <ele>29.098</ele>
        <time>2018-07-28T13:36:20Z</time>
      </trkpt>
      <trkpt lat="42.14233" lon="-8.80961">
        <ele>29.416</ele>
        <time>2018-07-28T13:36:21Z</time>
      </trkpt>
      <trkpt lat="42.14243" lon="-8.80968">
        <ele>29.972</ele>
        <time>2018-07-28T13:36:22Z</time>
      </trkpt>
      <trkpt lat="42.14255" lon="-8.80976">
        <ele>30.058</ele>
        <time>2018-07-28T13:36:23Z</time>
      </trkpt>
      <trkpt lat="42.14266" lon="-8.80985">
        <ele>30.152</ele>
        <time>2018-07-28T13:36:24Z</time>
      </trkpt>
      <trkpt lat="42.14278" lon="-8.80991">
        <ele>30.417</ele>
        <time>2018-07-28T13:36:25Z</time>
      </trkpt>
      <trkpt lat="42.14291" lon="-8.80998">
        <ele>30.708</ele>
        <time>2018-07-28T13:36:26Z</time>
      </trkpt>
      <trkpt lat="42.14303" lon="-8.81006">
        <ele>30.977</ele>
        <time>2018-07-28T13:36:27Z</time>
      </trkpt>
      <trkpt lat="42.14316" lon="-8.81015">
        <ele>31.612</ele>
        <time>2018-07-28T13:36:28Z</time>
      </trkpt>
      <trkpt lat="42.14328" lon="-8.81026">
        <ele>31.675</ele>
        <time>2018-07-28T13:36:29Z</time>
      </trkpt>
      <trkpt lat="42.14341" lon="-8.81037">
        <ele>31.637</ele>
        <time>2018-07-28T13:36:30Z</time>
      </trkpt>
      <trkpt lat="42.14351" lon="-8.81052">
        <ele>31.582</ele>
        <time>2018-07-28T13:36:31Z</time>
      </trkpt>
      <trkpt lat="42.1436" lon="-8.81069">
        <ele>31.577</ele>
        <time>2018-07-28T13:36:32Z</time>
      </trkpt>
      <trkpt lat="42.14367" lon="-8.81086">
        <ele>31.655</ele>
        <time>2018-07-28T13:36:33Z</time>
      </trkpt>
      <trkpt lat="42.14372" lon="-8.81105">
        <ele>31.811</ele>
        <time>2018-07-28T13:36:34Z</time>
      </trkpt>
      <trkpt lat="42.14374" lon="-8.81124">
        <ele>31.868</ele>
        <time>2018-07-28T13:36:35Z</time>
      </trkpt>
      <trkpt lat="42.14375" lon="-8.81144">
        <ele>31.942</ele>
        <time>2018-07-28T13:36:36Z</time>
      </trkpt>
      <trkpt lat="42.14374" lon="-8.81163">
        <ele>31.926</ele>
        <time>2018-07-28T13:36:37Z</time>
      </trkpt>
      <trkpt lat="42.14372" lon="-8.81182">
        <ele>31.908</ele>
        <time>2018-07-28T13:36:38Z</time>
      </trkpt>
      <trkpt lat="42.14372" lon="-8.812">
        <ele>32.138</ele>
        <time>2018-07-28T13:36:39Z</time>
      </trkpt>
      <trkpt lat="42.14368" lon="-8.81217">
        <ele>32.543</ele>
        <time>2018-07-28T13:36:40Z</time>
      </trkpt>
      <trkpt lat="42.14359" lon="-8.81237">
        <ele>32.916</ele>
        <time>2018-07-28T13:36:41Z</time>
      </trkpt>
      <trkpt lat="42.14349" lon="-8.81256">
        <ele>33.618</ele>
        <time>2018-07-28T13:36:42Z</time>
      </trkpt>
      <trkpt lat="42.14337" lon="-8.81274">
        <ele>34.293</ele>
        <time>2018-07-28T13:36:43Z</time>
      </trkpt>
      <trkpt lat="42.14327" lon="-8.81294">
        <ele>34.868</ele>
        <time>2018-07-28T13:36:44Z</time>
      </trkpt>
      <trkpt lat="42.14317" lon="-8.81311">
        <ele>36.366</ele>
        <time>2018-07-28T13:36:45Z</time>
      </trkpt>
      <trkpt lat="42.14309" lon="-8.81331">
        <ele>36.842</ele>
        <time>2018-07-28T13:36:46Z</time>
      </trkpt>
      <trkpt lat="42.143" lon="-8.81346">
        <ele>37.497</ele>
        <time>2018-07-28T13:36:47Z</time>
      </trkpt>
      <trkpt lat="42.14293" lon="-8.81366">
        <ele>37.923</ele>
        <time>2018-07-28T13:36:48Z</time>
      </trkpt>
      <trkpt lat="42.1429" lon="-8.81386">
        <ele>38.325</ele>
        <time>2018-07-28T13:36:49Z</time>
      </trkpt>
      <trkpt lat="42.14291" lon="-8.81411">
        <ele>38.508</ele>
        <time>2018-07-28T13:36:50Z</time>
      </trkpt>
      <trkpt lat="42.14292" lon="-8.81435">
        <ele>38.811</ele>
        <time>2018-07-28T13:36:51Z</time>
      </trkpt>
      <trkpt lat="42.14294" lon="-8.81458">
        <ele>39.116</ele>
        <time>2018-07-28T13:36:52Z</time>
      </trkpt>
      <trkpt lat="42.14298" lon="-8.81481">
        <ele>39.419</ele>
        <time>2018-07-28T13:36:53Z</time>
      </trkpt>
      <trkpt lat="42.14305" lon="-8.81499">
        <ele>39.731</ele>
        <time>2018-07-28T13:36:54Z</time>
      </trkpt>
      <trkpt lat="42.14311" lon="-8.81517">
        <ele>40.096</ele>
        <time>2018-07-28T13:36:55Z</time>
      </trkpt>
      <trkpt lat="42.14319" lon="-8.81535">
        <ele>40.231</ele>
        <time>2018-07-28T13:36:56Z</time>
      </trkpt>
      <trkpt lat="42.1433" lon="-8.81551">
        <ele>40.229</ele>
        <time>2018-07-28T13:36:57Z</time>
      </trkpt>
      <trkpt lat="42.14338" lon="-8.81567">
        <ele>40.155</ele>
        <time>2018-07-28T13:36:58Z</time>
      </trkpt>
      <trkpt lat="42.14343" lon="-8.81581">
        <ele>40.073</ele>
        <time>2018-07-28T13:36:59Z</time>
      </trkpt>
      <trkpt lat="42.14348" lon="-8.81596">
        <ele>39.785</ele>
        <time>2018-07-28T13:37:00Z</time>
      </trkpt>
      <trkpt lat="42.14351" lon="-8.81608">
        <ele>39.213</ele>
        <time>2018-07-28T13:37:01Z</time>
      </trkpt>
      <trkpt lat="42.14356" lon="-8.81622">
        <ele>38.708</ele>
        <time>2018-07-28T13:37:02Z</time>
      </trkpt>
      <trkpt lat="42.14364" lon="-8.81635">
        <ele>38.769</ele>
        <time>2018-07-28T13:37:03Z</time>
      </trkpt>
      <trkpt lat="42.1437" lon="-8.81648">
        <ele>38.744</ele>
        <time>2018-07-28T13:37:04Z</time>
      </trkpt>
      <trkpt lat="42.14376" lon="-8.81662">
        <ele>38.827</ele>
        <time>2018-07-28T13:37:05Z</time>
      </trkpt>
      <trkpt lat="42.14385" lon="-8.81677">
        <ele>38.899</ele>
        <time>2018-07-28T13:37:06Z</time>
      </trkpt>
      <trkpt lat="42.14391" lon="-8.81692">
        <ele>39.414</ele>
        <time>2018-07-28T13:37:07Z</time>
      </trkpt>
      <trkpt lat="42.14396" lon="-8.81709">
        <ele>39.619</ele>
        <time>2018-07-28T13:37:08Z</time>
      </trkpt>
      <trkpt lat="42.14402" lon="-8.81724">
        <ele>39.687</ele>
        <time>2018-07-28T13:37:09Z</time>
      </trkpt>
      <trkpt lat="42.14406" lon="-8.81737">
        <ele>39.663</ele>
        <time>2018-07-28T13:37:10Z</time>
      </trkpt>
      <trkpt lat="42.1441" lon="-8.81746">
        <ele>39.568</ele>
        <time>2018-07-28T13:37:11Z</time>
      </trkpt>
      <trkpt lat="42.14416" lon="-8.81752">
        <ele>38.942</ele>
        <time>2018-07-28T13:37:12Z</time>
      </trkpt>
      <trkpt lat="42.14421" lon="-8.8176">
        <ele>38.526</ele>
        <time>2018-07-28T13:37:13Z</time>
      </trkpt>
      <trkpt lat="42.14423" lon="-8.81767">
        <ele>38.108</ele>
        <time>2018-07-28T13:37:14Z</time>
      </trkpt>
      <trkpt lat="42.14425" lon="-8.81774">
        <ele>37.878</ele>
        <time>2018-07-28T13:37:15Z</time>
      </trkpt>
      <trkpt lat="42.14429" lon="-8.8178">
        <ele>37.663</ele>
        <time>2018-07-28T13:37:16Z</time>
      </trkpt>
      <trkpt lat="42.1443" lon="-8.81786">
        <ele>37.366</ele>
        <time>2018-07-28T13:37:17Z</time>
      </trkpt>
      <trkpt lat="42.14435" lon="-8.8179">
        <ele>37.038</ele>
        <time>2018-07-28T13:37:18Z</time>
      </trkpt>
      <trkpt lat="42.14439" lon="-8.81793">
        <ele>36.413</ele>
        <time>2018-07-28T13:37:21Z</time>
      </trkpt>
      <trkpt lat="42.14447" lon="-8.81803">
        <ele>36.048</ele>
        <time>2018-07-28T13:37:28Z</time>
      </trkpt>
      <trkpt lat="42.14452" lon="-8.81812">
        <ele>36.296</ele>
        <time>2018-07-28T13:37:29Z</time>
      </trkpt>
      <trkpt lat="42.14456" lon="-8.81822">
        <ele>36.642</ele>
        <time>2018-07-28T13:37:30Z</time>
      </trkpt>
      <trkpt lat="42.14461" lon="-8.81833">
        <ele>37.133</ele>
        <time>2018-07-28T13:37:31Z</time>
      </trkpt>
      <trkpt lat="42.14468" lon="-8.81842">
        <ele>37.623</ele>
        <time>2018-07-28T13:37:32Z</time>
      </trkpt>
      <trkpt lat="42.14476" lon="-8.81856">
        <ele>38.015</ele>
        <time>2018-07-28T13:37:33Z</time>
      </trkpt>
      <trkpt lat="42.14485" lon="-8.81869">
        <ele>38.308</ele>
        <time>2018-07-28T13:37:34Z</time>
      </trkpt>
      <trkpt lat="42.14491" lon="-8.81881">
        <ele>38.555</ele>
        <time>2018-07-28T13:37:35Z</time>
      </trkpt>
      <trkpt lat="42.14497" lon="-8.81892">
        <ele>38.62</ele>
        <time>2018-07-28T13:37:36Z</time>
      </trkpt>
      <trkpt lat="42.14505" lon="-8.81903">
        <ele>38.773</ele>
        <time>2018-07-28T13:37:37Z</time>
      </trkpt>
      <trkpt lat="42.14514" lon="-8.81914">
        <ele>38.755</ele>
        <time>2018-07-28T13:37:38Z</time>
      </trkpt>
      <trkpt lat="42.14526" lon="-8.81925">
        <ele>38.92</ele>
        <time>2018-07-28T13:37:39Z</time>
      </trkpt>
      <trkpt lat="42.14536" lon="-8.81939">
        <ele>39.115</ele>
        <time>2018-07-28T13:37:40Z</time>
      </trkpt>
      <trkpt lat="42.14544" lon="-8.81953">
        <ele>39.363</ele>
        <time>2018-07-28T13:37:41Z</time>
      </trkpt>
      <trkpt lat="42.14552" lon="-8.81968">
        <ele>39.579</ele>
        <time>2018-07-28T13:37:42Z</time>
      </trkpt>
      <trkpt lat="42.14563" lon="-8.81983">
        <ele>39.656</ele>
        <time>2018-07-28T13:37:43Z</time>
      </trkpt>
      <trkpt lat="42.14572" lon="-8.81996">
        <ele>39.659</ele>
        <time>2018-07-28T13:37:44Z</time>
      </trkpt>
      <trkpt lat="42.14581" lon="-8.8201">
        <ele>39.614</ele>
        <time>2018-07-28T13:37:45Z</time>
      </trkpt>
      <trkpt lat="42.14591" lon="-8.82024">
        <ele>39.608</ele>
        <time>2018-07-28T13:37:46Z</time>
      </trkpt>
      <trkpt lat="42.14599" lon="-8.82037">
        <ele>39.767</ele>
        <time>2018-07-28T13:37:47Z</time>
      </trkpt>
      <trkpt lat="42.14611" lon="-8.8205">
        <ele>39.852</ele>
        <time>2018-07-28T13:37:48Z</time>
      </trkpt>
      <trkpt lat="42.14618" lon="-8.82059">
        <ele>40.025</ele>
        <time>2018-07-28T13:37:49Z</time>
      </trkpt>
      <trkpt lat="42.14628" lon="-8.82071">
        <ele>40.147</ele>
        <time>2018-07-28T13:37:50Z</time>
      </trkpt>
      <trkpt lat="42.14636" lon="-8.82081">
        <ele>40.132</ele>
        <time>2018-07-28T13:37:51Z</time>
      </trkpt>
      <trkpt lat="42.14644" lon="-8.82093">
        <ele>40.027</ele>
        <time>2018-07-28T13:37:52Z</time>
      </trkpt>
      <trkpt lat="42.14653" lon="-8.82104">
        <ele>39.765</ele>
        <time>2018-07-28T13:37:53Z</time>
      </trkpt>
      <trkpt lat="42.14663" lon="-8.82115">
        <ele>39.411</ele>
        <time>2018-07-28T13:37:54Z</time>
      </trkpt>
      <trkpt lat="42.14673" lon="-8.82124">
        <ele>39.138</ele>
        <time>2018-07-28T13:37:55Z</time>
      </trkpt>
      <trkpt lat="42.14684" lon="-8.82132">
        <ele>38.97</ele>
        <time>2018-07-28T13:37:56Z</time>
      </trkpt>
      <trkpt lat="42.14694" lon="-8.82136">
        <ele>38.617</ele>
        <time>2018-07-28T13:37:57Z</time>
      </trkpt>
      <trkpt lat="42.14705" lon="-8.82136">
        <ele>38.408</ele>
        <time>2018-07-28T13:37:58Z</time>
      </trkpt>
      <trkpt lat="42.14715" lon="-8.82141">
        <ele>38.145</ele>
        <time>2018-07-28T13:37:59Z</time>
      </trkpt>
      <trkpt lat="42.14724" lon="-8.82145">
        <ele>37.86</ele>
        <time>2018-07-28T13:38:00Z</time>
      </trkpt>
      <trkpt lat="42.14735" lon="-8.82148">
        <ele>37.463</ele>
        <time>2018-07-28T13:38:01Z</time>
      </trkpt>
      <trkpt lat="42.14745" lon="-8.82149">
        <ele>37.195</ele>
        <time>2018-07-28T13:38:02Z</time>
      </trkpt>
      <trkpt lat="42.14754" lon="-8.82153">
        <ele>37.17</ele>
        <time>2018-07-28T13:38:03Z</time>
      </trkpt>
      <trkpt lat="42.14763" lon="-8.82157">
        <ele>37.145</ele>
        <time>2018-07-28T13:38:04Z</time>
      </trkpt>
      <trkpt lat="42.14773" lon="-8.8216">
        <ele>37.253</ele>
        <time>2018-07-28T13:38:05Z</time>
      </trkpt>
      <trkpt lat="42.14783" lon="-8.82165">
        <ele>37.369</ele>
        <time>2018-07-28T13:38:06Z</time>
      </trkpt>
      <trkpt lat="42.14793" lon="-8.82172">
        <ele>37.329</ele>
        <time>2018-07-28T13:38:07Z</time>
      </trkpt>
      <trkpt lat="42.14803" lon="-8.82176">
        <ele>37.4</ele>
        <time>2018-07-28T13:38:08Z</time>
      </trkpt>
      <trkpt lat="42.14814" lon="-8.82181">
        <ele>37.52</ele>
        <time>2018-07-28T13:38:09Z</time>
      </trkpt>
      <trkpt lat="42.14824" lon="-8.82184">
        <ele>37.708</ele>
        <time>2018-07-28T13:38:10Z</time>
      </trkpt>
      <trkpt lat="42.14836" lon="-8.82185">
        <ele>38.074</ele>
        <time>2018-07-28T13:38:11Z</time>
      </trkpt>
      <trkpt lat="42.14848" lon="-8.82183">
        <ele>38.149</ele>
        <time>2018-07-28T13:38:12Z</time>
      </trkpt>
      <trkpt lat="42.14862" lon="-8.8218">
        <ele>38.152</ele>
        <time>2018-07-28T13:38:13Z</time>
      </trkpt>
      <trkpt lat="42.14875" lon="-8.82174">
        <ele>38.144</ele>
        <time>2018-07-28T13:38:14Z</time>
      </trkpt>
      <trkpt lat="42.14888" lon="-8.82167">
        <ele>38.159</ele>
        <time>2018-07-28T13:38:15Z</time>
      </trkpt>
      <trkpt lat="42.14901" lon="-8.82156">
        <ele>38.154</ele>
        <time>2018-07-28T13:38:16Z</time>
      </trkpt>
      <trkpt lat="42.14913" lon="-8.82143">
        <ele>38.322</ele>
        <time>2018-07-28T13:38:17Z</time>
      </trkpt>
      <trkpt lat="42.14926" lon="-8.82128">
        <ele>38.838</ele>
        <time>2018-07-28T13:38:18Z</time>
      </trkpt>
      <trkpt lat="42.14939" lon="-8.82113">
        <ele>39.224</ele>
        <time>2018-07-28T13:38:19Z</time>
      </trkpt>
      <trkpt lat="42.14951" lon="-8.82099">
        <ele>39.604</ele>
        <time>2018-07-28T13:38:20Z</time>
      </trkpt>
      <trkpt lat="42.14963" lon="-8.82086">
        <ele>39.614</ele>
        <time>2018-07-28T13:38:21Z</time>
      </trkpt>
      <trkpt lat="42.14976" lon="-8.82075">
        <ele>39.808</ele>
        <time>2018-07-28T13:38:22Z</time>
      </trkpt>
      <trkpt lat="42.14987" lon="-8.82063">
        <ele>40.064</ele>
        <time>2018-07-28T13:38:23Z</time>
      </trkpt>
      <trkpt lat="42.14999" lon="-8.8205">
        <ele>40.529</ele>
        <time>2018-07-28T13:38:24Z</time>
      </trkpt>
      <trkpt lat="42.15014" lon="-8.82042">
        <ele>41.222</ele>
        <time>2018-07-28T13:38:25Z</time>
      </trkpt>
      <trkpt lat="42.15031" lon="-8.82037">
        <ele>41.864</ele>
        <time>2018-07-28T13:38:26Z</time>
      </trkpt>
      <trkpt lat="42.1505" lon="-8.82038">
        <ele>42.189</ele>
        <time>2018-07-28T13:38:27Z</time>
      </trkpt>
      <trkpt lat="42.15068" lon="-8.82041">
        <ele>42.144</ele>
        <time>2018-07-28T13:38:28Z</time>
      </trkpt>
      <trkpt lat="42.15085" lon="-8.82049">
        <ele>41.842</ele>
        <time>2018-07-28T13:38:29Z</time>
      </trkpt>
      <trkpt lat="42.15101" lon="-8.82055">
        <ele>41.318</ele>
        <time>2018-07-28T13:38:30Z</time>
      </trkpt>
      <trkpt lat="42.15114" lon="-8.82066">
        <ele>40.694</ele>
        <time>2018-07-28T13:38:31Z</time>
      </trkpt>
      <trkpt lat="42.15127" lon="-8.82077">
        <ele>40.357</ele>
        <time>2018-07-28T13:38:32Z</time>
      </trkpt>
      <trkpt lat="42.1514" lon="-8.82088">
        <ele>40.122</ele>
        <time>2018-07-28T13:38:33Z</time>
      </trkpt>
      <trkpt lat="42.15153" lon="-8.821">
        <ele>40.008</ele>
        <time>2018-07-28T13:38:34Z</time>
      </trkpt>
      <trkpt lat="42.15166" lon="-8.82111">
        <ele>40.011</ele>
        <time>2018-07-28T13:38:35Z</time>
      </trkpt>
      <trkpt lat="42.15178" lon="-8.82123">
        <ele>39.986</ele>
        <time>2018-07-28T13:38:36Z</time>
      </trkpt>
      <trkpt lat="42.15194" lon="-8.82135">
        <ele>39.929</ele>
        <time>2018-07-28T13:38:37Z</time>
      </trkpt>
      <trkpt lat="42.15205" lon="-8.82142">
        <ele>39.711</ele>
        <time>2018-07-28T13:38:38Z</time>
      </trkpt>
      <trkpt lat="42.15217" lon="-8.82149">
        <ele>39.786</ele>
        <time>2018-07-28T13:38:39Z</time>
      </trkpt>
      <trkpt lat="42.15232" lon="-8.82155">
        <ele>39.871</ele>
        <time>2018-07-28T13:38:40Z</time>
      </trkpt>
      <trkpt lat="42.15246" lon="-8.82158">
        <ele>39.929</ele>
        <time>2018-07-28T13:38:41Z</time>
      </trkpt>
      <trkpt lat="42.15259" lon="-8.82154">
        <ele>39.965</ele>
        <time>2018-07-28T13:38:42Z</time>
      </trkpt>
      <trkpt lat="42.15271" lon="-8.82152">
        <ele>39.813</ele>
        <time>2018-07-28T13:38:43Z</time>
      </trkpt>
      <trkpt lat="42.15283" lon="-8.82149">
        <ele>39.743</ele>
        <time>2018-07-28T13:38:44Z</time>
      </trkpt>
      <trkpt lat="42.15296" lon="-8.82145">
        <ele>39.407</ele>
        <time>2018-07-28T13:38:45Z</time>
      </trkpt>
      <trkpt lat="42.15308" lon="-8.8214">
        <ele>39.208</ele>
        <time>2018-07-28T13:38:46Z</time>
      </trkpt>
      <trkpt lat="42.15319" lon="-8.82135">
        <ele>39.213</ele>
        <time>2018-07-28T13:38:47Z</time>
      </trkpt>
      <trkpt lat="42.1533" lon="-8.82134">
        <ele>39.278</ele>
        <time>2018-07-28T13:38:48Z</time>
      </trkpt>
      <trkpt lat="42.15341" lon="-8.82129">
        <ele>38.991</ele>
        <time>2018-07-28T13:38:49Z</time>
      </trkpt>
      <trkpt lat="42.1535" lon="-8.82124">
        <ele>38.853</ele>
        <time>2018-07-28T13:38:50Z</time>
      </trkpt>
      <trkpt lat="42.1536" lon="-8.8212">
        <ele>38.868</ele>
        <time>2018-07-28T13:38:51Z</time>
      </trkpt>
      <trkpt lat="42.1537" lon="-8.82116">
        <ele>38.763</ele>
        <time>2018-07-28T13:38:52Z</time>
      </trkpt>
      <trkpt lat="42.15377" lon="-8.82107">
        <ele>38.541</ele>
        <time>2018-07-28T13:38:53Z</time>
      </trkpt>
      <trkpt lat="42.15391" lon="-8.82103">
        <ele>38.577</ele>
        <time>2018-07-28T13:38:54Z</time>
      </trkpt>
      <trkpt lat="42.15404" lon="-8.82094">
        <ele>38.671</ele>
        <time>2018-07-28T13:38:55Z</time>
      </trkpt>
      <trkpt lat="42.15418" lon="-8.82085">
        <ele>38.941</ele>
        <time>2018-07-28T13:38:56Z</time>
      </trkpt>
      <trkpt lat="42.15431" lon="-8.82069">
        <ele>40.415</ele>
        <time>2018-07-28T13:38:57Z</time>
      </trkpt>
      <trkpt lat="42.15446" lon="-8.82056">
        <ele>41.108</ele>
        <time>2018-07-28T13:38:58Z</time>
      </trkpt>
      <trkpt lat="42.15461" lon="-8.82044">
        <ele>41.889</ele>
        <time>2018-07-28T13:38:59Z</time>
      </trkpt>
      <trkpt lat="42.15475" lon="-8.82031">
        <ele>42.354</ele>
        <time>2018-07-28T13:39:00Z</time>
      </trkpt>
      <trkpt lat="42.15489" lon="-8.82019">
        <ele>42.317</ele>
        <time>2018-07-28T13:39:01Z</time>
      </trkpt>
      <trkpt lat="42.15502" lon="-8.82009">
        <ele>42.399</ele>
        <time>2018-07-28T13:39:02Z</time>
      </trkpt>
      <trkpt lat="42.15512" lon="-8.82001">
        <ele>42.154</ele>
        <time>2018-07-28T13:39:03Z</time>
      </trkpt>
      <trkpt lat="42.15525" lon="-8.81994">
        <ele>41.749</ele>
        <time>2018-07-28T13:39:04Z</time>
      </trkpt>
      <trkpt lat="42.15535" lon="-8.81987">
        <ele>41.347</ele>
        <time>2018-07-28T13:39:05Z</time>
      </trkpt>
      <trkpt lat="42.15544" lon="-8.81981">
        <ele>40.763</ele>
        <time>2018-07-28T13:39:06Z</time>
      </trkpt>
      <trkpt lat="42.15553" lon="-8.81975">
        <ele>40.388</ele>
        <time>2018-07-28T13:39:07Z</time>
      </trkpt>
      <trkpt lat="42.15563" lon="-8.81972">
        <ele>39.924</ele>
        <time>2018-07-28T13:39:08Z</time>
      </trkpt>
      <trkpt lat="42.15574" lon="-8.81967">
        <ele>39.726</ele>
        <time>2018-07-28T13:39:09Z</time>
      </trkpt>
      <trkpt lat="42.15586" lon="-8.81963">
        <ele>39.708</ele>
        <time>2018-07-28T13:39:10Z</time>
      </trkpt>
      <trkpt lat="42.15599" lon="-8.81957">
        <ele>39.82</ele>
        <time>2018-07-28T13:39:11Z</time>
      </trkpt>
      <trkpt lat="42.15613" lon="-8.81949">
        <ele>40.025</ele>
        <time>2018-07-28T13:39:12Z</time>
      </trkpt>
      <trkpt lat="42.15629" lon="-8.8194">
        <ele>40.498</ele>
        <time>2018-07-28T13:39:13Z</time>
      </trkpt>
      <trkpt lat="42.15645" lon="-8.81932">
        <ele>41.46</ele>
        <time>2018-07-28T13:39:14Z</time>
      </trkpt>
      <trkpt lat="42.15659" lon="-8.81924">
        <ele>41.835</ele>
        <time>2018-07-28T13:39:15Z</time>
      </trkpt>
      <trkpt lat="42.15674" lon="-8.81917">
        <ele>42.11</ele>
        <time>2018-07-28T13:39:16Z</time>
      </trkpt>
      <trkpt lat="42.15689" lon="-8.81911">
        <ele>42.338</ele>
        <time>2018-07-28T13:39:17Z</time>
      </trkpt>
      <trkpt lat="42.15705" lon="-8.81906">
        <ele>42.384</ele>
        <time>2018-07-28T13:39:18Z</time>
      </trkpt>
      <trkpt lat="42.15715" lon="-8.81895">
        <ele>42.291</ele>
        <time>2018-07-28T13:39:19Z</time>
      </trkpt>
      <trkpt lat="42.15724" lon="-8.81881">
        <ele>42.181</ele>
        <time>2018-07-28T13:39:20Z</time>
      </trkpt>
      <trkpt lat="42.1573" lon="-8.81864">
        <ele>41.919</ele>
        <time>2018-07-28T13:39:21Z</time>
      </trkpt>
      <trkpt lat="42.15735" lon="-8.81847">
        <ele>41.708</ele>
        <time>2018-07-28T13:39:22Z</time>
      </trkpt>
      <trkpt lat="42.15741" lon="-8.81832">
        <ele>41.741</ele>
        <time>2018-07-28T13:39:23Z</time>
      </trkpt>
      <trkpt lat="42.15748" lon="-8.81818">
        <ele>41.786</ele>
        <time>2018-07-28T13:39:24Z</time>
      </trkpt>
      <trkpt lat="42.15753" lon="-8.81804">
        <ele>41.769</ele>
        <time>2018-07-28T13:39:25Z</time>
      </trkpt>
      <trkpt lat="42.1576" lon="-8.81794">
        <ele>41.731</ele>
        <time>2018-07-28T13:39:26Z</time>
      </trkpt>
      <trkpt lat="42.15764" lon="-8.81779">
        <ele>41.536</ele>
        <time>2018-07-28T13:39:27Z</time>
      </trkpt>
      <trkpt lat="42.15768" lon="-8.81767">
        <ele>41.211</ele>
        <time>2018-07-28T13:39:28Z</time>
      </trkpt>
      <trkpt lat="42.15773" lon="-8.81755">
        <ele>40.729</ele>
        <time>2018-07-28T13:39:29Z</time>
      </trkpt>
      <trkpt lat="42.1578" lon="-8.81743">
        <ele>40.365</ele>
        <time>2018-07-28T13:39:30Z</time>
      </trkpt>
      <trkpt lat="42.15789" lon="-8.81732">
        <ele>40.363</ele>
        <time>2018-07-28T13:39:31Z</time>
      </trkpt>
      <trkpt lat="42.15797" lon="-8.81721">
        <ele>40.444</ele>
        <time>2018-07-28T13:39:32Z</time>
      </trkpt>
      <trkpt lat="42.15808" lon="-8.81711">
        <ele>40.818</ele>
        <time>2018-07-28T13:39:33Z</time>
      </trkpt>
      <trkpt lat="42.15821" lon="-8.817">
        <ele>41.508</ele>
        <time>2018-07-28T13:39:34Z</time>
      </trkpt>
      <trkpt lat="42.15835" lon="-8.81687">
        <ele>42.048</ele>
        <time>2018-07-28T13:39:35Z</time>
      </trkpt>
      <trkpt lat="42.15848" lon="-8.81673">
        <ele>42.783</ele>
        <time>2018-07-28T13:39:36Z</time>
      </trkpt>
      <trkpt lat="42.15862" lon="-8.81658">
        <ele>43.356</ele>
        <time>2018-07-28T13:39:37Z</time>
      </trkpt>
      <trkpt lat="42.15877" lon="-8.81645">
        <ele>43.868</ele>
        <time>2018-07-28T13:39:38Z</time>
      </trkpt>
      <trkpt lat="42.1589" lon="-8.81634">
        <ele>44.143</ele>
        <time>2018-07-28T13:39:39Z</time>
      </trkpt>
      <trkpt lat="42.15904" lon="-8.81622">
        <ele>44.498</ele>
        <time>2018-07-28T13:39:40Z</time>
      </trkpt>
      <trkpt lat="42.15918" lon="-8.8161">
        <ele>44.426</ele>
        <time>2018-07-28T13:39:41Z</time>
      </trkpt>
      <trkpt lat="42.15931" lon="-8.816">
        <ele>44.332</ele>
        <time>2018-07-28T13:39:42Z</time>
      </trkpt>
      <trkpt lat="42.15942" lon="-8.8159">
        <ele>44.127</ele>
        <time>2018-07-28T13:39:43Z</time>
      </trkpt>
      <trkpt lat="42.15953" lon="-8.81581">
        <ele>43.768</ele>
        <time>2018-07-28T13:39:44Z</time>
      </trkpt>
      <trkpt lat="42.15963" lon="-8.81574">
        <ele>43.514</ele>
        <time>2018-07-28T13:39:45Z</time>
      </trkpt>
      <trkpt lat="42.15971" lon="-8.81564">
        <ele>43.108</ele>
        <time>2018-07-28T13:39:46Z</time>
      </trkpt>
      <trkpt lat="42.15979" lon="-8.81556">
        <ele>42.914</ele>
        <time>2018-07-28T13:39:47Z</time>
      </trkpt>
      <trkpt lat="42.15985" lon="-8.81548">
        <ele>42.769</ele>
        <time>2018-07-28T13:39:48Z</time>
      </trkpt>
      <trkpt lat="42.15993" lon="-8.81541">
        <ele>42.472</ele>
        <time>2018-07-28T13:39:49Z</time>
      </trkpt>
      <trkpt lat="42.16002" lon="-8.81534">
        <ele>42.424</ele>
        <time>2018-07-28T13:39:50Z</time>
      </trkpt>
      <trkpt lat="42.16009" lon="-8.81527">
        <ele>42.229</ele>
        <time>2018-07-28T13:39:51Z</time>
      </trkpt>
      <trkpt lat="42.16016" lon="-8.81521">
        <ele>42.094</ele>
        <time>2018-07-28T13:39:52Z</time>
      </trkpt>
      <trkpt lat="42.1602" lon="-8.81515">
        <ele>41.742</ele>
        <time>2018-07-28T13:39:53Z</time>
      </trkpt>
      <trkpt lat="42.1602" lon="-8.81504">
        <ele>40.528</ele>
        <time>2018-07-28T13:39:55Z</time>
      </trkpt>
      <trkpt lat="42.16025" lon="-8.81506">
        <ele>40.048</ele>
        <time>2018-07-28T13:39:56Z</time>
      </trkpt>
      <trkpt lat="42.16032" lon="-8.81505">
        <ele>39.561</ele>
        <time>2018-07-28T13:39:58Z</time>
      </trkpt>
      <trkpt lat="42.16035" lon="-8.81499">
        <ele>39.517</ele>
        <time>2018-07-28T13:39:59Z</time>
      </trkpt>
      <trkpt lat="42.16039" lon="-8.81492">
        <ele>39.708</ele>
        <time>2018-07-28T13:40:00Z</time>
      </trkpt>
      <trkpt lat="42.16042" lon="-8.81485">
        <ele>40.016</ele>
        <time>2018-07-28T13:40:01Z</time>
      </trkpt>
      <trkpt lat="42.16048" lon="-8.81482">
        <ele>40.751</ele>
        <time>2018-07-28T13:40:02Z</time>
      </trkpt>
      <trkpt lat="42.16061" lon="-8.81487">
        <ele>41.384</ele>
        <time>2018-07-28T13:40:04Z</time>
      </trkpt>
      <trkpt lat="42.16071" lon="-8.81487">
        <ele>41.596</ele>
        <time>2018-07-28T13:40:05Z</time>
      </trkpt>
      <trkpt lat="42.16081" lon="-8.81482">
        <ele>41.611</ele>
        <time>2018-07-28T13:40:06Z</time>
      </trkpt>
      <trkpt lat="42.16095" lon="-8.81476">
        <ele>41.796</ele>
        <time>2018-07-28T13:40:07Z</time>
      </trkpt>
      <trkpt lat="42.16107" lon="-8.8147">
        <ele>41.914</ele>
        <time>2018-07-28T13:40:08Z</time>
      </trkpt>
      <trkpt lat="42.16121" lon="-8.81467">
        <ele>42.15</ele>
        <time>2018-07-28T13:40:09Z</time>
      </trkpt>
      <trkpt lat="42.16135" lon="-8.81464">
        <ele>42.369</ele>
        <time>2018-07-28T13:40:10Z</time>
      </trkpt>
      <trkpt lat="42.16147" lon="-8.81462">
        <ele>42.404</ele>
        <time>2018-07-28T13:40:11Z</time>
      </trkpt>
      <trkpt lat="42.16159" lon="-8.81459">
        <ele>42.624</ele>
        <time>2018-07-28T13:40:12Z</time>
      </trkpt>
      <trkpt lat="42.16172" lon="-8.81456">
        <ele>42.908</ele>
        <time>2018-07-28T13:40:13Z</time>
      </trkpt>
      <trkpt lat="42.16187" lon="-8.81453">
        <ele>43.078</ele>
        <time>2018-07-28T13:40:14Z</time>
      </trkpt>
      <trkpt lat="42.16201" lon="-8.8145">
        <ele>43.013</ele>
        <time>2018-07-28T13:40:15Z</time>
      </trkpt>
      <trkpt lat="42.16215" lon="-8.81447">
        <ele>43.056</ele>
        <time>2018-07-28T13:40:16Z</time>
      </trkpt>
      <trkpt lat="42.16229" lon="-8.81444">
        <ele>42.998</ele>
        <time>2018-07-28T13:40:17Z</time>
      </trkpt>
      <trkpt lat="42.16242" lon="-8.81443">
        <ele>42.923</ele>
        <time>2018-07-28T13:40:18Z</time>
      </trkpt>
      <trkpt lat="42.16254" lon="-8.8144">
        <ele>42.938</ele>
        <time>2018-07-28T13:40:19Z</time>
      </trkpt>
      <trkpt lat="42.16266" lon="-8.81435">
        <ele>43.056</ele>
        <time>2018-07-28T13:40:20Z</time>
      </trkpt>
      <trkpt lat="42.16278" lon="-8.8143">
        <ele>43.062</ele>
        <time>2018-07-28T13:40:21Z</time>
      </trkpt>
      <trkpt lat="42.16293" lon="-8.81432">
        <ele>42.927</ele>
        <time>2018-07-28T13:40:22Z</time>
      </trkpt>
      <trkpt lat="42.16302" lon="-8.81422">
        <ele>42.768</ele>
        <time>2018-07-28T13:40:23Z</time>
      </trkpt>
      <trkpt lat="42.16313" lon="-8.81413">
        <ele>42.514</ele>
        <time>2018-07-28T13:40:24Z</time>
      </trkpt>
      <trkpt lat="42.16322" lon="-8.81406">
        <ele>42.508</ele>
        <time>2018-07-28T13:40:25Z</time>
      </trkpt>
      <trkpt lat="42.16332" lon="-8.81397">
        <ele>42.564</ele>
        <time>2018-07-28T13:40:26Z</time>
      </trkpt>
      <trkpt lat="42.16343" lon="-8.81386">
        <ele>42.779</ele>
        <time>2018-07-28T13:40:27Z</time>
      </trkpt>
      <trkpt lat="42.16352" lon="-8.81373">
        <ele>43.022</ele>
        <time>2018-07-28T13:40:28Z</time>
      </trkpt>
      <trkpt lat="42.16363" lon="-8.8136">
        <ele>43.464</ele>
        <time>2018-07-28T13:40:29Z</time>
      </trkpt>
      <trkpt lat="42.16374" lon="-8.81345">
        <ele>43.879</ele>
        <time>2018-07-28T13:40:30Z</time>
      </trkpt>
      <trkpt lat="42.16385" lon="-8.81331">
        <ele>44.024</ele>
        <time>2018-07-28T13:40:31Z</time>
      </trkpt>
      <trkpt lat="42.16396" lon="-8.81319">
        <ele>44.242</ele>
        <time>2018-07-28T13:40:32Z</time>
      </trkpt>
      <trkpt lat="42.16407" lon="-8.81305">
        <ele>44.488</ele>
        <time>2018-07-28T13:40:33Z</time>
      </trkpt>
      <trkpt lat="42.16419" lon="-8.81292">
        <ele>44.455</ele>
        <time>2018-07-28T13:40:34Z</time>
      </trkpt>
      <trkpt lat="42.16432" lon="-8.81281">
        <ele>44.507</ele>
        <time>2018-07-28T13:40:35Z</time>
      </trkpt>
      <trkpt lat="42.16444" lon="-8.81271">
        <ele>44.717</ele>
        <time>2018-07-28T13:40:36Z</time>
      </trkpt>
      <trkpt lat="42.16457" lon="-8.81264">
        <ele>44.808</ele>
        <time>2018-07-28T13:40:37Z</time>
      </trkpt>
      <trkpt lat="42.16471" lon="-8.8126">
        <ele>44.997</ele>
        <time>2018-07-28T13:40:38Z</time>
      </trkpt>
      <trkpt lat="42.16488" lon="-8.81261">
        <ele>44.932</ele>
        <time>2018-07-28T13:40:39Z</time>
      </trkpt>
      <trkpt lat="42.16505" lon="-8.81266">
        <ele>44.865</ele>
        <time>2018-07-28T13:40:40Z</time>
      </trkpt>
      <trkpt lat="42.16523" lon="-8.81266">
        <ele>44.817</ele>
        <time>2018-07-28T13:40:41Z</time>
      </trkpt>
      <trkpt lat="42.16541" lon="-8.81275">
        <ele>44.872</ele>
        <time>2018-07-28T13:40:42Z</time>
      </trkpt>
      <trkpt lat="42.16558" lon="-8.81282">
        <ele>45.057</ele>
        <time>2018-07-28T13:40:43Z</time>
      </trkpt>
      <trkpt lat="42.16572" lon="-8.81295">
        <ele>45.445</ele>
        <time>2018-07-28T13:40:44Z</time>
      </trkpt>
      <trkpt lat="42.16587" lon="-8.81309">
        <ele>46.041</ele>
        <time>2018-07-28T13:40:45Z</time>
      </trkpt>
      <trkpt lat="42.166" lon="-8.81322">
        <ele>46.721</ele>
        <time>2018-07-28T13:40:46Z</time>
      </trkpt>
      <trkpt lat="42.16613" lon="-8.81333">
        <ele>47.241</ele>
        <time>2018-07-28T13:40:47Z</time>
      </trkpt>
      <trkpt lat="42.16623" lon="-8.81349">
        <ele>47.405</ele>
        <time>2018-07-28T13:40:48Z</time>
      </trkpt>
      <trkpt lat="42.16636" lon="-8.81363">
        <ele>47.408</ele>
        <time>2018-07-28T13:40:49Z</time>
      </trkpt>
      <trkpt lat="42.16649" lon="-8.81377">
        <ele>47.544</ele>
        <time>2018-07-28T13:40:50Z</time>
      </trkpt>
      <trkpt lat="42.16664" lon="-8.81389">
        <ele>47.689</ele>
        <time>2018-07-28T13:40:51Z</time>
      </trkpt>
      <trkpt lat="42.16679" lon="-8.81398">
        <ele>47.792</ele>
        <time>2018-07-28T13:40:52Z</time>
      </trkpt>
      <trkpt lat="42.16695" lon="-8.81401">
        <ele>48.064</ele>
        <time>2018-07-28T13:40:53Z</time>
      </trkpt>
      <trkpt lat="42.16713" lon="-8.81396">
        <ele>48.019</ele>
        <time>2018-07-28T13:40:54Z</time>
      </trkpt>
      <trkpt lat="42.1673" lon="-8.81391">
        <ele>47.964</ele>
        <time>2018-07-28T13:40:55Z</time>
      </trkpt>
      <trkpt lat="42.16747" lon="-8.81387">
        <ele>47.732</ele>
        <time>2018-07-28T13:40:56Z</time>
      </trkpt>
      <trkpt lat="42.16764" lon="-8.8138">
        <ele>47.638</ele>
        <time>2018-07-28T13:40:57Z</time>
      </trkpt>
      <trkpt lat="42.16781" lon="-8.81374">
        <ele>47.582</ele>
        <time>2018-07-28T13:40:58Z</time>
      </trkpt>
      <trkpt lat="42.16797" lon="-8.8137">
        <ele>47.443</ele>
        <time>2018-07-28T13:40:59Z</time>
      </trkpt>
      <trkpt lat="42.16812" lon="-8.81368">
        <ele>47.417</ele>
        <time>2018-07-28T13:41:00Z</time>
      </trkpt>
      <trkpt lat="42.16827" lon="-8.81361">
        <ele>47.208</ele>
        <time>2018-07-28T13:41:01Z</time>
      </trkpt>
      <trkpt lat="42.1684" lon="-8.81356">
        <ele>47.14</ele>
        <time>2018-07-28T13:41:02Z</time>
      </trkpt>
      <trkpt lat="42.16854" lon="-8.81351">
        <ele>46.995</ele>
        <time>2018-07-28T13:41:03Z</time>
      </trkpt>
      <trkpt lat="42.16866" lon="-8.81349">
        <ele>46.778</ele>
        <time>2018-07-28T13:41:04Z</time>
      </trkpt>
      <trkpt lat="42.16878" lon="-8.81347">
        <ele>46.42</ele>
        <time>2018-07-28T13:41:05Z</time>
      </trkpt>
      <trkpt lat="42.16889" lon="-8.81344">
        <ele>46.355</ele>
        <time>2018-07-28T13:41:06Z</time>
      </trkpt>
      <trkpt lat="42.169" lon="-8.81339">
        <ele>46.22</ele>
        <time>2018-07-28T13:41:07Z</time>
      </trkpt>
      <trkpt lat="42.16913" lon="-8.81336">
        <ele>46.338</ele>
        <time>2018-07-28T13:41:08Z</time>
      </trkpt>
      <trkpt lat="42.16927" lon="-8.81333">
        <ele>46.754</ele>
        <time>2018-07-28T13:41:09Z</time>
      </trkpt>
      <trkpt lat="42.1694" lon="-8.81329">
        <ele>47.232</ele>
        <time>2018-07-28T13:41:10Z</time>
      </trkpt>
      <trkpt lat="42.16955" lon="-8.81326">
        <ele>47.792</ele>
        <time>2018-07-28T13:41:11Z</time>
      </trkpt>
      <trkpt lat="42.1697" lon="-8.81322">
        <ele>48.411</ele>
        <time>2018-07-28T13:41:12Z</time>
      </trkpt>
      <trkpt lat="42.16986" lon="-8.81318">
        <ele>49.108</ele>
        <time>2018-07-28T13:41:13Z</time>
      </trkpt>
      <trkpt lat="42.17003" lon="-8.81314">
        <ele>49.615</ele>
        <time>2018-07-28T13:41:14Z</time>
      </trkpt>
      <trkpt lat="42.1702" lon="-8.81306">
        <ele>50.19</ele>
        <time>2018-07-28T13:41:15Z</time>
      </trkpt>
      <trkpt lat="42.17035" lon="-8.81299">
        <ele>50.683</ele>
        <time>2018-07-28T13:41:16Z</time>
      </trkpt>
      <trkpt lat="42.1705" lon="-8.81293">
        <ele>50.955</ele>
        <time>2018-07-28T13:41:17Z</time>
      </trkpt>
      <trkpt lat="42.17064" lon="-8.81287">
        <ele>51.03</ele>
        <time>2018-07-28T13:41:18Z</time>
      </trkpt>
      <trkpt lat="42.17078" lon="-8.81285">
        <ele>51.015</ele>
        <time>2018-07-28T13:41:19Z</time>
      </trkpt>
      <trkpt lat="42.17092" lon="-8.81282">
        <ele>50.963</ele>
        <time>2018-07-28T13:41:20Z</time>
      </trkpt>
      <trkpt lat="42.17102" lon="-8.81278">
        <ele>50.779</ele>
        <time>2018-07-28T13:41:21Z</time>
      </trkpt>
      <trkpt lat="42.17113" lon="-8.81272">
        <ele>50.499</ele>
        <time>2018-07-28T13:41:22Z</time>
      </trkpt>
      <trkpt lat="42.17124" lon="-8.81264">
        <ele>50.407</ele>
        <time>2018-07-28T13:41:23Z</time>
      </trkpt>
      <trkpt lat="42.17135" lon="-8.81258">
        <ele>50.727</ele>
        <time>2018-07-28T13:41:24Z</time>
      </trkpt>
      <trkpt lat="42.17151" lon="-8.81254">
        <ele>51.208</ele>
        <time>2018-07-28T13:41:25Z</time>
      </trkpt>
      <trkpt lat="42.17165" lon="-8.81247">
        <ele>51.611</ele>
        <time>2018-07-28T13:41:26Z</time>
      </trkpt>
      <trkpt lat="42.17181" lon="-8.8124">
        <ele>52.016</ele>
        <time>2018-07-28T13:41:27Z</time>
      </trkpt>
      <trkpt lat="42.17195" lon="-8.81234">
        <ele>52.329</ele>
        <time>2018-07-28T13:41:28Z</time>
      </trkpt>
      <trkpt lat="42.17208" lon="-8.8123">
        <ele>52.611</ele>
        <time>2018-07-28T13:41:29Z</time>
      </trkpt>
      <trkpt lat="42.1722" lon="-8.81223">
        <ele>52.666</ele>
        <time>2018-07-28T13:41:30Z</time>
      </trkpt>
      <trkpt lat="42.17232" lon="-8.81218">
        <ele>52.681</ele>
        <time>2018-07-28T13:41:31Z</time>
      </trkpt>
      <trkpt lat="42.17243" lon="-8.81213">
        <ele>52.499</ele>
        <time>2018-07-28T13:41:32Z</time>
      </trkpt>
      <trkpt lat="42.17253" lon="-8.81206">
        <ele>52.355</ele>
        <time>2018-07-28T13:41:33Z</time>
      </trkpt>
      <trkpt lat="42.17262" lon="-8.81199">
        <ele>52.112</ele>
        <time>2018-07-28T13:41:34Z</time>
      </trkpt>
      <trkpt lat="42.1727" lon="-8.81192">
        <ele>52.032</ele>
        <time>2018-07-28T13:41:35Z</time>
      </trkpt>
      <trkpt lat="42.17276" lon="-8.81185">
        <ele>51.805</ele>
        <time>2018-07-28T13:41:36Z</time>
      </trkpt>
      <trkpt lat="42.17282" lon="-8.81177">
        <ele>51.508</ele>
        <time>2018-07-28T13:41:37Z</time>
      </trkpt>
      <trkpt lat="42.17287" lon="-8.8117">
        <ele>51.163</ele>
        <time>2018-07-28T13:41:38Z</time>
      </trkpt>
      <trkpt lat="42.1729" lon="-8.81163">
        <ele>50.438</ele>
        <time>2018-07-28T13:41:39Z</time>
      </trkpt>
      <trkpt lat="42.17295" lon="-8.81161">
        <ele>50.191</ele>
        <time>2018-07-28T13:41:40Z</time>
      </trkpt>
      <trkpt lat="42.173" lon="-8.8116">
        <ele>49.713</ele>
        <time>2018-07-28T13:41:43Z</time>
      </trkpt>
      <trkpt lat="42.17304" lon="-8.81155">
        <ele>49.718</ele>
        <time>2018-07-28T13:41:45Z</time>
      </trkpt>
      <trkpt lat="42.17305" lon="-8.81147">
        <ele>49.793</ele>
        <time>2018-07-28T13:41:46Z</time>
      </trkpt>
      <trkpt lat="42.17308" lon="-8.81137">
        <ele>49.841</ele>
        <time>2018-07-28T13:41:47Z</time>
      </trkpt>
      <trkpt lat="42.17312" lon="-8.8113">
        <ele>49.997</ele>
        <time>2018-07-28T13:41:48Z</time>
      </trkpt>
      <trkpt lat="42.17316" lon="-8.81126">
        <ele>50.065</ele>
        <time>2018-07-28T13:41:49Z</time>
      </trkpt>
      <trkpt lat="42.17324" lon="-8.81124">
        <ele>50.268</ele>
        <time>2018-07-28T13:41:50Z</time>
      </trkpt>
      <trkpt lat="42.17333" lon="-8.81118">
        <ele>50.514</ele>
        <time>2018-07-28T13:41:51Z</time>
      </trkpt>
      <trkpt lat="42.17343" lon="-8.81113">
        <ele>50.808</ele>
        <time>2018-07-28T13:41:52Z</time>
      </trkpt>
      <trkpt lat="42.17352" lon="-8.81104">
        <ele>51.178</ele>
        <time>2018-07-28T13:41:53Z</time>
      </trkpt>
      <trkpt lat="42.1736" lon="-8.81092">
        <ele>51.593</ele>
        <time>2018-07-28T13:41:54Z</time>
      </trkpt>
      <trkpt lat="42.17369" lon="-8.8108">
        <ele>52.456</ele>
        <time>2018-07-28T13:41:55Z</time>
      </trkpt>
      <trkpt lat="42.17379" lon="-8.8107">
        <ele>52.868</ele>
        <time>2018-07-28T13:41:56Z</time>
      </trkpt>
      <trkpt lat="42.1739" lon="-8.81066">
        <ele>52.913</ele>
        <time>2018-07-28T13:41:57Z</time>
      </trkpt>
      <trkpt lat="42.174" lon="-8.81058">
        <ele>53.068</ele>
        <time>2018-07-28T13:41:58Z</time>
      </trkpt>
      <trkpt lat="42.17409" lon="-8.81049">
        <ele>53.036</ele>
        <time>2018-07-28T13:41:59Z</time>
      </trkpt>
      <trkpt lat="42.17418" lon="-8.81039">
        <ele>53.032</ele>
        <time>2018-07-28T13:42:00Z</time>
      </trkpt>
      <trkpt lat="42.17427" lon="-8.81028">
        <ele>53.066</ele>
        <time>2018-07-28T13:42:01Z</time>
      </trkpt>
      <trkpt lat="42.17438" lon="-8.81015">
        <ele>53.329</ele>
        <time>2018-07-28T13:42:02Z</time>
      </trkpt>
      <trkpt lat="42.1745" lon="-8.81002">
        <ele>53.321</ele>
        <time>2018-07-28T13:42:03Z</time>
      </trkpt>
      <trkpt lat="42.17462" lon="-8.80988">
        <ele>53.408</ele>
        <time>2018-07-28T13:42:04Z</time>
      </trkpt>
      <trkpt lat="42.17474" lon="-8.80974">
        <ele>53.428</ele>
        <time>2018-07-28T13:42:05Z</time>
      </trkpt>
      <trkpt lat="42.17485" lon="-8.8096">
        <ele>53.583</ele>
        <time>2018-07-28T13:42:06Z</time>
      </trkpt>
      <trkpt lat="42.17492" lon="-8.80942">
        <ele>53.556</ele>
        <time>2018-07-28T13:42:07Z</time>
      </trkpt>
      <trkpt lat="42.17501" lon="-8.80924">
        <ele>53.728</ele>
        <time>2018-07-28T13:42:08Z</time>
      </trkpt>
      <trkpt lat="42.17511" lon="-8.80909">
        <ele>53.953</ele>
        <time>2018-07-28T13:42:09Z</time>
      </trkpt>
      <trkpt lat="42.17516" lon="-8.8089">
        <ele>53.958</ele>
        <time>2018-07-28T13:42:10Z</time>
      </trkpt>
      <trkpt lat="42.17522" lon="-8.80869">
        <ele>53.816</ele>
        <time>2018-07-28T13:42:11Z</time>
      </trkpt>
      <trkpt lat="42.17527" lon="-8.8085">
        <ele>53.682</ele>
        <time>2018-07-28T13:42:12Z</time>
      </trkpt>
      <trkpt lat="42.17532" lon="-8.80833">
        <ele>53.482</ele>
        <time>2018-07-28T13:42:13Z</time>
      </trkpt>
      <trkpt lat="42.17535" lon="-8.80814">
        <ele>53.343</ele>
        <time>2018-07-28T13:42:14Z</time>
      </trkpt>
      <trkpt lat="42.17537" lon="-8.80795">
        <ele>53.317</ele>
        <time>2018-07-28T13:42:15Z</time>
      </trkpt>
      <trkpt lat="42.1754" lon="-8.80777">
        <ele>53.408</ele>
        <time>2018-07-28T13:42:16Z</time>
      </trkpt>
      <trkpt lat="42.17543" lon="-8.80758">
        <ele>53.59</ele>
        <time>2018-07-28T13:42:17Z</time>
      </trkpt>
      <trkpt lat="42.17548" lon="-8.8074">
        <ele>53.995</ele>
        <time>2018-07-28T13:42:18Z</time>
      </trkpt>
      <trkpt lat="42.17556" lon="-8.80721">
        <ele>54.388</ele>
        <time>2018-07-28T13:42:19Z</time>
      </trkpt>
      <trkpt lat="42.17564" lon="-8.80703">
        <ele>54.66</ele>
        <time>2018-07-28T13:42:20Z</time>
      </trkpt>
      <trkpt lat="42.17576" lon="-8.80691">
        <ele>54.975</ele>
        <time>2018-07-28T13:42:21Z</time>
      </trkpt>
      <trkpt lat="42.1759" lon="-8.80678">
        <ele>55.16</ele>
        <time>2018-07-28T13:42:22Z</time>
      </trkpt>
      <trkpt lat="42.17603" lon="-8.80667">
        <ele>55.128</ele>
        <time>2018-07-28T13:42:23Z</time>
      </trkpt>
      <trkpt lat="42.17618" lon="-8.80659">
        <ele>55.174</ele>
        <time>2018-07-28T13:42:24Z</time>
      </trkpt>
      <trkpt lat="42.17633" lon="-8.80654">
        <ele>55.285</ele>
        <time>2018-07-28T13:42:25Z</time>
      </trkpt>
      <trkpt lat="42.17649" lon="-8.80652">
        <ele>55.289</ele>
        <time>2018-07-28T13:42:26Z</time>
      </trkpt>
      <trkpt lat="42.17667" lon="-8.80655">
        <ele>55.517</ele>
        <time>2018-07-28T13:42:27Z</time>
      </trkpt>
      <trkpt lat="42.17682" lon="-8.80659">
        <ele>55.708</ele>
        <time>2018-07-28T13:42:28Z</time>
      </trkpt>
      <trkpt lat="42.17697" lon="-8.80667">
        <ele>56.02</ele>
        <time>2018-07-28T13:42:29Z</time>
      </trkpt>
      <trkpt lat="42.17714" lon="-8.80671">
        <ele>56.435</ele>
        <time>2018-07-28T13:42:30Z</time>
      </trkpt>
      <trkpt lat="42.1773" lon="-8.80677">
        <ele>56.798</ele>
        <time>2018-07-28T13:42:31Z</time>
      </trkpt>
      <trkpt lat="42.17745" lon="-8.80683">
        <ele>57.12</ele>
        <time>2018-07-28T13:42:32Z</time>
      </trkpt>
      <trkpt lat="42.17761" lon="-8.80688">
        <ele>57.595</ele>
        <time>2018-07-28T13:42:33Z</time>
      </trkpt>
      <trkpt lat="42.17776" lon="-8.80695">
        <ele>57.74</ele>
        <time>2018-07-28T13:42:34Z</time>
      </trkpt>
      <trkpt lat="42.17792" lon="-8.80698">
        <ele>57.858</ele>
        <time>2018-07-28T13:42:35Z</time>
      </trkpt>
      <trkpt lat="42.17806" lon="-8.80698">
        <ele>58.024</ele>
        <time>2018-07-28T13:42:36Z</time>
      </trkpt>
      <trkpt lat="42.17821" lon="-8.80692">
        <ele>58.316</ele>
        <time>2018-07-28T13:42:37Z</time>
      </trkpt>
      <trkpt lat="42.17837" lon="-8.80677">
        <ele>58.676</ele>
        <time>2018-07-28T13:42:38Z</time>
      </trkpt>
      <trkpt lat="42.17852" lon="-8.80664">
        <ele>58.713</ele>
        <time>2018-07-28T13:42:39Z</time>
      </trkpt>
      <trkpt lat="42.17865" lon="-8.80653">
        <ele>58.708</ele>
        <time>2018-07-28T13:42:40Z</time>
      </trkpt>
      <trkpt lat="42.17879" lon="-8.80644">
        <ele>58.633</ele>
        <time>2018-07-28T13:42:41Z</time>
      </trkpt>
      <trkpt lat="42.17895" lon="-8.80637">
        <ele>58.248</ele>
        <time>2018-07-28T13:42:42Z</time>
      </trkpt>
      <trkpt lat="42.17904" lon="-8.80631">
        <ele>57.591</ele>
        <time>2018-07-28T13:42:43Z</time>
      </trkpt>
      <trkpt lat="42.17915" lon="-8.80621">
        <ele>56.753</ele>
        <time>2018-07-28T13:42:44Z</time>
      </trkpt>
      <trkpt lat="42.17926" lon="-8.80611">
        <ele>56.378</ele>
        <time>2018-07-28T13:42:45Z</time>
      </trkpt>
      <trkpt lat="42.17936" lon="-8.80606">
        <ele>56.153</ele>
        <time>2018-07-28T13:42:46Z</time>
      </trkpt>
      <trkpt lat="42.17947" lon="-8.806">
        <ele>56.041</ele>
        <time>2018-07-28T13:42:47Z</time>
      </trkpt>
      <trkpt lat="42.17959" lon="-8.80598">
        <ele>55.867</ele>
        <time>2018-07-28T13:42:48Z</time>
      </trkpt>
      <trkpt lat="42.17972" lon="-8.80595">
        <ele>55.526</ele>
        <time>2018-07-28T13:42:49Z</time>
      </trkpt>
      <trkpt lat="42.17984" lon="-8.80597">
        <ele>55.147</ele>
        <time>2018-07-28T13:42:50Z</time>
      </trkpt>
      <trkpt lat="42.17993" lon="-8.80599">
        <ele>54.511</ele>
        <time>2018-07-28T13:42:51Z</time>
      </trkpt>
      <trkpt lat="42.18" lon="-8.806">
        <ele>53.708</ele>
        <time>2018-07-28T13:42:52Z</time>
      </trkpt>
      <trkpt lat="42.18006" lon="-8.806">
        <ele>53.044</ele>
        <time>2018-07-28T13:42:53Z</time>
      </trkpt>
      <trkpt lat="42.18011" lon="-8.806">
        <ele>52.169</ele>
        <time>2018-07-28T13:42:54Z</time>
      </trkpt>
      <trkpt lat="42.18017" lon="-8.80602">
        <ele>51.532</ele>
        <time>2018-07-28T13:42:55Z</time>
      </trkpt>
      <trkpt lat="42.18022" lon="-8.80605">
        <ele>50.934</ele>
        <time>2018-07-28T13:42:56Z</time>
      </trkpt>
      <trkpt lat="42.18028" lon="-8.80608">
        <ele>50.659</ele>
        <time>2018-07-28T13:42:57Z</time>
      </trkpt>
      <trkpt lat="42.18035" lon="-8.80612">
        <ele>50.574</ele>
        <time>2018-07-28T13:42:58Z</time>
      </trkpt>
      <trkpt lat="42.18044" lon="-8.80622">
        <ele>50.562</ele>
        <time>2018-07-28T13:42:59Z</time>
      </trkpt>
      <trkpt lat="42.18048" lon="-8.80638">
        <ele>50.818</ele>
        <time>2018-07-28T13:43:00Z</time>
      </trkpt>
      <trkpt lat="42.18054" lon="-8.80653">
        <ele>51.031</ele>
        <time>2018-07-28T13:43:01Z</time>
      </trkpt>
      <trkpt lat="42.18061" lon="-8.80669">
        <ele>51.361</ele>
        <time>2018-07-28T13:43:02Z</time>
      </trkpt>
      <trkpt lat="42.18069" lon="-8.80684">
        <ele>51.607</ele>
        <time>2018-07-28T13:43:03Z</time>
      </trkpt>
      <trkpt lat="42.18076" lon="-8.807">
        <ele>52.108</ele>
        <time>2018-07-28T13:43:04Z</time>
      </trkpt>
      <trkpt lat="42.18088" lon="-8.80718">
        <ele>52.725</ele>
        <time>2018-07-28T13:43:05Z</time>
      </trkpt>
      <trkpt lat="42.18092" lon="-8.80735">
        <ele>53.43</ele>
        <time>2018-07-28T13:43:06Z</time>
      </trkpt>
      <trkpt lat="42.18101" lon="-8.80752">
        <ele>54.163</ele>
        <time>2018-07-28T13:43:07Z</time>
      </trkpt>
      <trkpt lat="42.18109" lon="-8.8077">
        <ele>54.855</ele>
        <time>2018-07-28T13:43:08Z</time>
      </trkpt>
      <trkpt lat="42.18118" lon="-8.80787">
        <ele>55.14</ele>
        <time>2018-07-28T13:43:09Z</time>
      </trkpt>
      <trkpt lat="42.18126" lon="-8.80803">
        <ele>55.165</ele>
        <time>2018-07-28T13:43:10Z</time>
      </trkpt>
      <trkpt lat="42.18132" lon="-8.80816">
        <ele>54.933</ele>
        <time>2018-07-28T13:43:11Z</time>
      </trkpt>
      <trkpt lat="42.18138" lon="-8.80828">
        <ele>54.519</ele>
        <time>2018-07-28T13:43:12Z</time>
      </trkpt>
      <trkpt lat="42.18146" lon="-8.8084">
        <ele>53.997</ele>
        <time>2018-07-28T13:43:13Z</time>
      </trkpt>
      <trkpt lat="42.18154" lon="-8.80854">
        <ele>53.523</ele>
        <time>2018-07-28T13:43:14Z</time>
      </trkpt>
      <trkpt lat="42.18161" lon="-8.80866">
        <ele>53.425</ele>
        <time>2018-07-28T13:43:15Z</time>
      </trkpt>
      <trkpt lat="42.18166" lon="-8.80882">
        <ele>53.608</ele>
        <time>2018-07-28T13:43:16Z</time>
      </trkpt>
      <trkpt lat="42.18175" lon="-8.80899">
        <ele>54.051</ele>
        <time>2018-07-28T13:43:17Z</time>
      </trkpt>
      <trkpt lat="42.18186" lon="-8.80912">
        <ele>54.466</ele>
        <time>2018-07-28T13:43:18Z</time>
      </trkpt>
      <trkpt lat="42.18196" lon="-8.80928">
        <ele>54.819</ele>
        <time>2018-07-28T13:43:19Z</time>
      </trkpt>
      <trkpt lat="42.18207" lon="-8.80945">
        <ele>54.951</ele>
        <time>2018-07-28T13:43:20Z</time>
      </trkpt>
      <trkpt lat="42.18222" lon="-8.80954">
        <ele>54.936</ele>
        <time>2018-07-28T13:43:21Z</time>
      </trkpt>
      <trkpt lat="42.18235" lon="-8.8096">
        <ele>54.981</ele>
        <time>2018-07-28T13:43:22Z</time>
      </trkpt>
      <trkpt lat="42.18251" lon="-8.80959">
        <ele>54.539</ele>
        <time>2018-07-28T13:43:23Z</time>
      </trkpt>
      <trkpt lat="42.18266" lon="-8.80957">
        <ele>54.045</ele>
        <time>2018-07-28T13:43:24Z</time>
      </trkpt>
      <trkpt lat="42.18281" lon="-8.80954">
        <ele>53.418</ele>
        <time>2018-07-28T13:43:25Z</time>
      </trkpt>
      <trkpt lat="42.18296" lon="-8.80948">
        <ele>52.698</ele>
        <time>2018-07-28T13:43:26Z</time>
      </trkpt>
      <trkpt lat="42.1831" lon="-8.80942">
        <ele>51.917</ele>
        <time>2018-07-28T13:43:27Z</time>
      </trkpt>
      <trkpt lat="42.18321" lon="-8.80928">
        <ele>51.208</ele>
        <time>2018-07-28T13:43:28Z</time>
      </trkpt>
      <trkpt lat="42.18333" lon="-8.80914">
        <ele>50.423</ele>
        <time>2018-07-28T13:43:29Z</time>
      </trkpt>
      <trkpt lat="42.18342" lon="-8.80898">
        <ele>49.768</ele>
        <time>2018-07-28T13:43:30Z</time>
      </trkpt>
      <trkpt lat="42.18351" lon="-8.8088">
        <ele>49.211</ele>
        <time>2018-07-28T13:43:31Z</time>
      </trkpt>
      <trkpt lat="42.1836" lon="-8.80861">
        <ele>48.363</ele>
        <time>2018-07-28T13:43:32Z</time>
      </trkpt>
      <trkpt lat="42.18367" lon="-8.8084">
        <ele>48.018</ele>
        <time>2018-07-28T13:43:33Z</time>
      </trkpt>
      <trkpt lat="42.18374" lon="-8.80822">
        <ele>47.753</ele>
        <time>2018-07-28T13:43:34Z</time>
      </trkpt>
      <trkpt lat="42.18381" lon="-8.80802">
        <ele>47.461</ele>
        <time>2018-07-28T13:43:35Z</time>
      </trkpt>
      <trkpt lat="42.18387" lon="-8.80784">
        <ele>47.037</ele>
        <time>2018-07-28T13:43:36Z</time>
      </trkpt>
      <trkpt lat="42.18393" lon="-8.80766">
        <ele>46.638</ele>
        <time>2018-07-28T13:43:37Z</time>
      </trkpt>
      <trkpt lat="42.18398" lon="-8.80748">
        <ele>46.27</ele>
        <time>2018-07-28T13:43:38Z</time>
      </trkpt>
      <trkpt lat="42.18405" lon="-8.8073">
        <ele>45.917</ele>
        <time>2018-07-28T13:43:39Z</time>
      </trkpt>
      <trkpt lat="42.18413" lon="-8.80713">
        <ele>45.708</ele>
        <time>2018-07-28T13:43:40Z</time>
      </trkpt>
      <trkpt lat="42.1842" lon="-8.80695">
        <ele>45.795</ele>
        <time>2018-07-28T13:43:41Z</time>
      </trkpt>
      <trkpt lat="42.18429" lon="-8.80678">
        <ele>45.54</ele>
        <time>2018-07-28T13:43:42Z</time>
      </trkpt>
      <trkpt lat="42.18441" lon="-8.80663">
        <ele>45.573</ele>
        <time>2018-07-28T13:43:43Z</time>
      </trkpt>
      <trkpt lat="42.18459" lon="-8.80653">
        <ele>45.545</ele>
        <time>2018-07-28T13:43:44Z</time>
      </trkpt>
      <trkpt lat="42.18475" lon="-8.80646">
        <ele>45.47</ele>
        <time>2018-07-28T13:43:45Z</time>
      </trkpt>
      <trkpt lat="42.18492" lon="-8.80643">
        <ele>44.845</ele>
        <time>2018-07-28T13:43:46Z</time>
      </trkpt>
      <trkpt lat="42.1851" lon="-8.80641">
        <ele>44.233</ele>
        <time>2018-07-28T13:43:47Z</time>
      </trkpt>
      <trkpt lat="42.18528" lon="-8.80638">
        <ele>43.739</ele>
        <time>2018-07-28T13:43:48Z</time>
      </trkpt>
      <trkpt lat="42.18545" lon="-8.80637">
        <ele>43.111</ele>
        <time>2018-07-28T13:43:49Z</time>
      </trkpt>
      <trkpt lat="42.18561" lon="-8.80636">
        <ele>43.421</ele>
        <time>2018-07-28T13:43:50Z</time>
      </trkpt>
      <trkpt lat="42.18577" lon="-8.80635">
        <ele>43.403</ele>
        <time>2018-07-28T13:43:51Z</time>
      </trkpt>
      <trkpt lat="42.18593" lon="-8.80633">
        <ele>43.008</ele>
        <time>2018-07-28T13:43:52Z</time>
      </trkpt>
      <trkpt lat="42.18609" lon="-8.80628">
        <ele>42.313</ele>
        <time>2018-07-28T13:43:53Z</time>
      </trkpt>
      <trkpt lat="42.18623" lon="-8.80627">
        <ele>41.548</ele>
        <time>2018-07-28T13:43:54Z</time>
      </trkpt>
      <trkpt lat="42.18635" lon="-8.8062">
        <ele>40.341</ele>
        <time>2018-07-28T13:43:55Z</time>
      </trkpt>
      <trkpt lat="42.18649" lon="-8.8062">
        <ele>39.523</ele>
        <time>2018-07-28T13:43:56Z</time>
      </trkpt>
      <trkpt lat="42.18664" lon="-8.8062">
        <ele>39.188</ele>
        <time>2018-07-28T13:43:57Z</time>
      </trkpt>
      <trkpt lat="42.18678" lon="-8.80618">
        <ele>38.763</ele>
        <time>2018-07-28T13:43:58Z</time>
      </trkpt>
      <trkpt lat="42.18693" lon="-8.80617">
        <ele>38.371</ele>
        <time>2018-07-28T13:43:59Z</time>
      </trkpt>
      <trkpt lat="42.18706" lon="-8.8061">
        <ele>38.367</ele>
        <time>2018-07-28T13:44:00Z</time>
      </trkpt>
      <trkpt lat="42.1872" lon="-8.80603">
        <ele>38.364</ele>
        <time>2018-07-28T13:44:01Z</time>
      </trkpt>
      <trkpt lat="42.18734" lon="-8.80592">
        <ele>38.306</ele>
        <time>2018-07-28T13:44:02Z</time>
      </trkpt>
      <trkpt lat="42.18745" lon="-8.80576">
        <ele>38.316</ele>
        <time>2018-07-28T13:44:03Z</time>
      </trkpt>
      <trkpt lat="42.18755" lon="-8.80563">
        <ele>37.908</ele>
        <time>2018-07-28T13:44:04Z</time>
      </trkpt>
      <trkpt lat="42.18765" lon="-8.80551">
        <ele>37.118</ele>
        <time>2018-07-28T13:44:05Z</time>
      </trkpt>
      <trkpt lat="42.18773" lon="-8.80536">
        <ele>35.323</ele>
        <time>2018-07-28T13:44:06Z</time>
      </trkpt>
      <trkpt lat="42.18783" lon="-8.80524">
        <ele>34.696</ele>
        <time>2018-07-28T13:44:07Z</time>
      </trkpt>
      <trkpt lat="42.18789" lon="-8.80506">
        <ele>34.018</ele>
        <time>2018-07-28T13:44:08Z</time>
      </trkpt>
      <trkpt lat="42.18797" lon="-8.80488">
        <ele>33.793</ele>
        <time>2018-07-28T13:44:09Z</time>
      </trkpt>
      <trkpt lat="42.18805" lon="-8.8047">
        <ele>33.558</ele>
        <time>2018-07-28T13:44:10Z</time>
      </trkpt>
      <trkpt lat="42.18813" lon="-8.80454">
        <ele>33.216</ele>
        <time>2018-07-28T13:44:11Z</time>
      </trkpt>
      <trkpt lat="42.1882" lon="-8.80439">
        <ele>32.942</ele>
        <time>2018-07-28T13:44:12Z</time>
      </trkpt>
      <trkpt lat="42.18828" lon="-8.80423">
        <ele>32.699</ele>
        <time>2018-07-28T13:44:13Z</time>
      </trkpt>
      <trkpt lat="42.18836" lon="-8.80406">
        <ele>32.507</ele>
        <time>2018-07-28T13:44:14Z</time>
      </trkpt>
      <trkpt lat="42.18845" lon="-8.80388">
        <ele>32.527</ele>
        <time>2018-07-28T13:44:15Z</time>
      </trkpt>
      <trkpt lat="42.18854" lon="-8.80371">
        <ele>32.508</ele>
        <time>2018-07-28T13:44:16Z</time>
      </trkpt>
      <trkpt lat="42.18863" lon="-8.80352">
        <ele>32.591</ele>
        <time>2018-07-28T13:44:17Z</time>
      </trkpt>
      <trkpt lat="42.18869" lon="-8.80336">
        <ele>32.426</ele>
        <time>2018-07-28T13:44:18Z</time>
      </trkpt>
      <trkpt lat="42.18876" lon="-8.80321">
        <ele>32.239</ele>
        <time>2018-07-28T13:44:19Z</time>
      </trkpt>
      <trkpt lat="42.18885" lon="-8.80304">
        <ele>32.081</ele>
        <time>2018-07-28T13:44:20Z</time>
      </trkpt>
      <trkpt lat="42.18893" lon="-8.80288">
        <ele>31.836</ele>
        <time>2018-07-28T13:44:21Z</time>
      </trkpt>
      <trkpt lat="42.18901" lon="-8.80271">
        <ele>31.231</ele>
        <time>2018-07-28T13:44:22Z</time>
      </trkpt>
      <trkpt lat="42.18913" lon="-8.80252">
        <ele>31.179</ele>
        <time>2018-07-28T13:44:23Z</time>
      </trkpt>
      <trkpt lat="42.18921" lon="-8.80234">
        <ele>30.845</ele>
        <time>2018-07-28T13:44:24Z</time>
      </trkpt>
      <trkpt lat="42.18929" lon="-8.80213">
        <ele>30.522</ele>
        <time>2018-07-28T13:44:25Z</time>
      </trkpt>
      <trkpt lat="42.18937" lon="-8.80199">
        <ele>30.462</ele>
        <time>2018-07-28T13:44:26Z</time>
      </trkpt>
      <trkpt lat="42.18945" lon="-8.80183">
        <ele>30.308</ele>
        <time>2018-07-28T13:44:27Z</time>
      </trkpt>
      <trkpt lat="42.18952" lon="-8.80167">
        <ele>30.108</ele>
        <time>2018-07-28T13:44:28Z</time>
      </trkpt>
      <trkpt lat="42.18958" lon="-8.80151">
        <ele>29.644</ele>
        <time>2018-07-28T13:44:29Z</time>
      </trkpt>
      <trkpt lat="42.18965" lon="-8.80137">
        <ele>29.069</ele>
        <time>2018-07-28T13:44:30Z</time>
      </trkpt>
      <trkpt lat="42.18973" lon="-8.80123">
        <ele>28.472</ele>
        <time>2018-07-28T13:44:31Z</time>
      </trkpt>
      <trkpt lat="42.1898" lon="-8.80109">
        <ele>27.784</ele>
        <time>2018-07-28T13:44:32Z</time>
      </trkpt>
      <trkpt lat="42.18987" lon="-8.80093">
        <ele>27.029</ele>
        <time>2018-07-28T13:44:33Z</time>
      </trkpt>
      <trkpt lat="42.18993" lon="-8.80079">
        <ele>26.644</ele>
        <time>2018-07-28T13:44:34Z</time>
      </trkpt>
      <trkpt lat="42.19" lon="-8.80067">
        <ele>26.112</ele>
        <time>2018-07-28T13:44:35Z</time>
      </trkpt>
      <trkpt lat="42.19006" lon="-8.80054">
        <ele>25.728</ele>
        <time>2018-07-28T13:44:36Z</time>
      </trkpt>
      <trkpt lat="42.19012" lon="-8.80041">
        <ele>25.399</ele>
        <time>2018-07-28T13:44:37Z</time>
      </trkpt>
      <trkpt lat="42.19018" lon="-8.8003">
        <ele>24.907</ele>
        <time>2018-07-28T13:44:38Z</time>
      </trkpt>
      <trkpt lat="42.19024" lon="-8.8002">
        <ele>24.827</ele>
        <time>2018-07-28T13:44:39Z</time>
      </trkpt>
      <trkpt lat="42.19026" lon="-8.80013">
        <ele>24.808</ele>
        <time>2018-07-28T13:44:40Z</time>
      </trkpt>
      <trkpt lat="42.19033" lon="-8.80005">
        <ele>24.881</ele>
        <time>2018-07-28T13:44:41Z</time>
      </trkpt>
      <trkpt lat="42.19033" lon="-8.79994">
        <ele>24.786</ele>
        <time>2018-07-28T13:44:42Z</time>
      </trkpt>
      <trkpt lat="42.19036" lon="-8.79989">
        <ele>24.719</ele>
        <time>2018-07-28T13:44:43Z</time>
      </trkpt>
      <trkpt lat="42.19038" lon="-8.79982">
        <ele>24.761</ele>
        <time>2018-07-28T13:44:44Z</time>
      </trkpt>
      <trkpt lat="42.19042" lon="-8.79977">
        <ele>24.656</ele>
        <time>2018-07-28T13:44:45Z</time>
      </trkpt>
      <trkpt lat="42.19047" lon="-8.79974">
        <ele>24.641</ele>
        <time>2018-07-28T13:44:46Z</time>
      </trkpt>
      <trkpt lat="42.19056" lon="-8.79975">
        <ele>24.639</ele>
        <time>2018-07-28T13:44:47Z</time>
      </trkpt>
      <trkpt lat="42.19064" lon="-8.79971">
        <ele>24.655</ele>
        <time>2018-07-28T13:44:48Z</time>
      </trkpt>
      <trkpt lat="42.19071" lon="-8.79962">
        <ele>24.497</ele>
        <time>2018-07-28T13:44:49Z</time>
      </trkpt>
      <trkpt lat="42.19076" lon="-8.79954">
        <ele>24.323</ele>
        <time>2018-07-28T13:44:50Z</time>
      </trkpt>
      <trkpt lat="42.19082" lon="-8.7995">
        <ele>24.125</ele>
        <time>2018-07-28T13:44:51Z</time>
      </trkpt>
      <trkpt lat="42.1909" lon="-8.7995">
        <ele>23.708</ele>
        <time>2018-07-28T13:44:52Z</time>
      </trkpt>
      <trkpt lat="42.19099" lon="-8.79949">
        <ele>23.261</ele>
        <time>2018-07-28T13:44:53Z</time>
      </trkpt>
      <trkpt lat="42.19107" lon="-8.79951">
        <ele>22.376</ele>
        <time>2018-07-28T13:44:54Z</time>
      </trkpt>
      <trkpt lat="42.19114" lon="-8.79949">
        <ele>21.779</ele>
        <time>2018-07-28T13:44:55Z</time>
      </trkpt>
      <trkpt lat="42.19123" lon="-8.79949">
        <ele>21.111</ele>
        <time>2018-07-28T13:44:56Z</time>
      </trkpt>
      <trkpt lat="42.19132" lon="-8.79942">
        <ele>20.716</ele>
        <time>2018-07-28T13:44:57Z</time>
      </trkpt>
      <trkpt lat="42.19141" lon="-8.79945">
        <ele>20.281</ele>
        <time>2018-07-28T13:44:58Z</time>
      </trkpt>
      <trkpt lat="42.19152" lon="-8.79947">
        <ele>19.779</ele>
        <time>2018-07-28T13:44:59Z</time>
      </trkpt>
      <trkpt lat="42.19161" lon="-8.79946">
        <ele>19.425</ele>
        <time>2018-07-28T13:45:00Z</time>
      </trkpt>
      <trkpt lat="42.19169" lon="-8.79942">
        <ele>19.088</ele>
        <time>2018-07-28T13:45:01Z</time>
      </trkpt>
      <trkpt lat="42.19179" lon="-8.79941">
        <ele>18.524</ele>
        <time>2018-07-28T13:45:02Z</time>
      </trkpt>
      <trkpt lat="42.19188" lon="-8.7994">
        <ele>18.126</ele>
        <time>2018-07-28T13:45:03Z</time>
      </trkpt>
      <trkpt lat="42.19198" lon="-8.79937">
        <ele>17.808</ele>
        <time>2018-07-28T13:45:04Z</time>
      </trkpt>
      <trkpt lat="42.19206" lon="-8.79934">
        <ele>17.39</ele>
        <time>2018-07-28T13:45:05Z</time>
      </trkpt>
      <trkpt lat="42.19214" lon="-8.79929">
        <ele>16.865</ele>
        <time>2018-07-28T13:45:06Z</time>
      </trkpt>
      <trkpt lat="42.19221" lon="-8.79925">
        <ele>16.558</ele>
        <time>2018-07-28T13:45:07Z</time>
      </trkpt>
      <trkpt lat="42.1923" lon="-8.79925">
        <ele>16.28</ele>
        <time>2018-07-28T13:45:08Z</time>
      </trkpt>
      <trkpt lat="42.1924" lon="-8.79923">
        <ele>15.965</ele>
        <time>2018-07-28T13:45:09Z</time>
      </trkpt>
      <trkpt lat="42.19251" lon="-8.79925">
        <ele>15.78</ele>
        <time>2018-07-28T13:45:10Z</time>
      </trkpt>
      <trkpt lat="42.19261" lon="-8.79926">
        <ele>15.348</ele>
        <time>2018-07-28T13:45:11Z</time>
      </trkpt>
      <trkpt lat="42.1927" lon="-8.79929">
        <ele>14.914</ele>
        <time>2018-07-28T13:45:12Z</time>
      </trkpt>
      <trkpt lat="42.19278" lon="-8.79931">
        <ele>14.337</ele>
        <time>2018-07-28T13:45:13Z</time>
      </trkpt>
      <trkpt lat="42.19283" lon="-8.79931">
        <ele>13.449</ele>
        <time>2018-07-28T13:45:14Z</time>
      </trkpt>
      <trkpt lat="42.1929" lon="-8.79929">
        <ele>11.413</ele>
        <time>2018-07-28T13:45:16Z</time>
      </trkpt>
      <trkpt lat="42.1929" lon="-8.79923">
        <ele>8.708</ele>
        <time>2018-07-28T13:45:27Z</time>
      </trkpt>
      <trkpt lat="42.19295" lon="-8.79924">
        <ele>8.575</ele>
        <time>2018-07-28T13:45:30Z</time>
      </trkpt>
      <trkpt lat="42.19299" lon="-8.7992">
        <ele>8.38</ele>
        <time>2018-07-28T13:45:31Z</time>
      </trkpt>
      <trkpt lat="42.19304" lon="-8.79918">
        <ele>8.163</ele>
        <time>2018-07-28T13:45:32Z</time>
      </trkpt>
      <trkpt lat="42.19309" lon="-8.79913">
        <ele>7.885</ele>
        <time>2018-07-28T13:45:33Z</time>
      </trkpt>
      <trkpt lat="42.1931" lon="-8.79905">
        <ele>7.48</ele>
        <time>2018-07-28T13:45:34Z</time>
      </trkpt>
      <trkpt lat="42.19307" lon="-8.79895">
        <ele>7.065</ele>
        <time>2018-07-28T13:45:35Z</time>
      </trkpt>
      <trkpt lat="42.19303" lon="-8.79888">
        <ele>6.723</ele>
        <time>2018-07-28T13:45:36Z</time>
      </trkpt>
      <trkpt lat="42.193" lon="-8.79883">
        <ele>6.339</ele>
        <time>2018-07-28T13:45:37Z</time>
      </trkpt>
      <trkpt lat="42.19302" lon="-8.79876">
        <ele>5.967</ele>
        <time>2018-07-28T13:45:38Z</time>
      </trkpt>
      <trkpt lat="42.19302" lon="-8.79864">
        <ele>5.381</ele>
        <time>2018-07-28T13:45:40Z</time>
      </trkpt>
      <trkpt lat="42.19301" lon="-8.79856">
        <ele>5.019</ele>
        <time>2018-07-28T13:45:41Z</time>
      </trkpt>
      <trkpt lat="42.19302" lon="-8.79849">
        <ele>4.808</ele>
        <time>2018-07-28T13:45:42Z</time>
      </trkpt>
      <trkpt lat="42.19304" lon="-8.79842">
        <ele>4.758</ele>
        <time>2018-07-28T13:45:43Z</time>
      </trkpt>
      <trkpt lat="42.19305" lon="-8.79833">
        <ele>4.713</ele>
        <time>2018-07-28T13:45:44Z</time>
      </trkpt>
      <trkpt lat="42.19307" lon="-8.79823">
        <ele>4.776</ele>
        <time>2018-07-28T13:45:45Z</time>
      </trkpt>
      <trkpt lat="42.19306" lon="-8.79816">
        <ele>4.788</ele>
        <time>2018-07-28T13:45:46Z</time>
      </trkpt>
      <trkpt lat="42.19307" lon="-8.79806">
        <ele>4.743</ele>
        <time>2018-07-28T13:45:47Z</time>
      </trkpt>
      <trkpt lat="42.19309" lon="-8.79799">
        <ele>4.798</ele>
        <time>2018-07-28T13:45:48Z</time>
      </trkpt>
      <trkpt lat="42.19312" lon="-8.79789">
        <ele>4.776</ele>
        <time>2018-07-28T13:45:49Z</time>
      </trkpt>
      <trkpt lat="42.19316" lon="-8.79778">
        <ele>4.712</ele>
        <time>2018-07-28T13:45:50Z</time>
      </trkpt>
      <trkpt lat="42.19316" lon="-8.79764">
        <ele>5.093</ele>
        <time>2018-07-28T13:45:51Z</time>
      </trkpt>
      <trkpt lat="42.19318" lon="-8.79751">
        <ele>5.265</ele>
        <time>2018-07-28T13:45:52Z</time>
      </trkpt>
      <trkpt lat="42.19322" lon="-8.79741">
        <ele>5.521</ele>
        <time>2018-07-28T13:45:53Z</time>
      </trkpt>
      <trkpt lat="42.19327" lon="-8.79733">
        <ele>5.808</ele>
        <time>2018-07-28T13:45:54Z</time>
      </trkpt>
      <trkpt lat="42.19334" lon="-8.79727">
        <ele>6.061</ele>
        <time>2018-07-28T13:45:55Z</time>
      </trkpt>
      <trkpt lat="42.1934" lon="-8.7972">
        <ele>6.286</ele>
        <time>2018-07-28T13:45:56Z</time>
      </trkpt>
      <trkpt lat="42.19346" lon="-8.79714">
        <ele>6.259</ele>
        <time>2018-07-28T13:45:57Z</time>
      </trkpt>
      <trkpt lat="42.1935" lon="-8.79708">
        <ele>6.221</ele>
        <time>2018-07-28T13:45:58Z</time>
      </trkpt>
      <trkpt lat="42.19355" lon="-8.79705">
        <ele>5.986</ele>
        <time>2018-07-28T13:45:59Z</time>
      </trkpt>
      <trkpt lat="42.1936" lon="-8.797">
        <ele>5.331</ele>
        <time>2018-07-28T13:46:00Z</time>
      </trkpt>
      <trkpt lat="42.19366" lon="-8.79695">
        <ele>5.059</ele>
        <time>2018-07-28T13:46:01Z</time>
      </trkpt>
      <trkpt lat="42.19372" lon="-8.79691">
        <ele>4.925</ele>
        <time>2018-07-28T13:46:02Z</time>
      </trkpt>
      <trkpt lat="42.19378" lon="-8.79686">
        <ele>4.983</ele>
        <time>2018-07-28T13:46:03Z</time>
      </trkpt>
      <trkpt lat="42.19385" lon="-8.79679">
        <ele>4.825</ele>
        <time>2018-07-28T13:46:04Z</time>
      </trkpt>
      <trkpt lat="42.19391" lon="-8.79674">
        <ele>4.717</ele>
        <time>2018-07-28T13:46:05Z</time>
      </trkpt>
      <trkpt lat="42.19391" lon="-8.79668">
        <ele>4.608</ele>
        <time>2018-07-28T13:46:06Z</time>
      </trkpt>
      <trkpt lat="42.19398" lon="-8.79667">
        <ele>4.25</ele>
        <time>2018-07-28T13:46:08Z</time>
      </trkpt>
      <trkpt lat="42.19407" lon="-8.79663">
        <ele>4.175</ele>
        <time>2018-07-28T13:46:10Z</time>
      </trkpt>
      <trkpt lat="42.1941" lon="-8.79657">
        <ele>4.238</ele>
        <time>2018-07-28T13:46:12Z</time>
      </trkpt>
      <trkpt lat="42.19416" lon="-8.79651">
        <ele>4.42</ele>
        <time>2018-07-28T13:46:14Z</time>
      </trkpt>
      <trkpt lat="42.19423" lon="-8.79645">
        <ele>4.555</ele>
        <time>2018-07-28T13:46:15Z</time>
      </trkpt>
      <trkpt lat="42.19427" lon="-8.79638">
        <ele>4.63</ele>
        <time>2018-07-28T13:46:16Z</time>
      </trkpt>
      <trkpt lat="42.19434" lon="-8.79635">
        <ele>4.978</ele>
        <time>2018-07-28T13:46:17Z</time>
      </trkpt>
      <trkpt lat="42.1944" lon="-8.79629">
        <ele>5.164</ele>
        <time>2018-07-28T13:46:18Z</time>
      </trkpt>
      <trkpt lat="42.19447" lon="-8.79623">
        <ele>5.259</ele>
        <time>2018-07-28T13:46:19Z</time>
      </trkpt>
      <trkpt lat="42.19453" lon="-8.79616">
        <ele>5.303</ele>
        <time>2018-07-28T13:46:20Z</time>
      </trkpt>
      <trkpt lat="42.1946" lon="-8.79611">
        <ele>5.423</ele>
        <time>2018-07-28T13:46:21Z</time>
      </trkpt>
      <trkpt lat="42.19468" lon="-8.79607">
        <ele>5.408</ele>
        <time>2018-07-28T13:46:22Z</time>
      </trkpt>
      <trkpt lat="42.19475" lon="-8.79603">
        <ele>5.367</ele>
        <time>2018-07-28T13:46:23Z</time>
      </trkpt>
      <trkpt lat="42.19481" lon="-8.79597">
        <ele>5.252</ele>
        <time>2018-07-28T13:46:24Z</time>
      </trkpt>
      <trkpt lat="42.19485" lon="-8.79588">
        <ele>5.025</ele>
        <time>2018-07-28T13:46:25Z</time>
      </trkpt>
      <trkpt lat="42.19491" lon="-8.79582">
        <ele>4.947</ele>
        <time>2018-07-28T13:46:26Z</time>
      </trkpt>
      <trkpt lat="42.19498" lon="-8.79576">
        <ele>4.852</ele>
        <time>2018-07-28T13:46:27Z</time>
      </trkpt>
      <trkpt lat="42.19505" lon="-8.79571">
        <ele>4.827</ele>
        <time>2018-07-28T13:46:28Z</time>
      </trkpt>
      <trkpt lat="42.19513" lon="-8.79565">
        <ele>4.855</ele>
        <time>2018-07-28T13:46:29Z</time>
      </trkpt>
      <trkpt lat="42.19521" lon="-8.79559">
        <ele>4.891</ele>
        <time>2018-07-28T13:46:30Z</time>
      </trkpt>
      <trkpt lat="42.19528" lon="-8.79553">
        <ele>4.878</ele>
        <time>2018-07-28T13:46:31Z</time>
      </trkpt>
      <trkpt lat="42.19535" lon="-8.79548">
        <ele>4.733</ele>
        <time>2018-07-28T13:46:32Z</time>
      </trkpt>
      <trkpt lat="42.19541" lon="-8.79543">
        <ele>4.526</ele>
        <time>2018-07-28T13:46:33Z</time>
      </trkpt>
      <trkpt lat="42.19548" lon="-8.79538">
        <ele>4.408</ele>
        <time>2018-07-28T13:46:34Z</time>
      </trkpt>
      <trkpt lat="42.19555" lon="-8.79531">
        <ele>4.419</ele>
        <time>2018-07-28T13:46:35Z</time>
      </trkpt>
      <trkpt lat="42.19562" lon="-8.79525">
        <ele>4.424</ele>
        <time>2018-07-28T13:46:36Z</time>
      </trkpt>
      <trkpt lat="42.1957" lon="-8.79517">
        <ele>4.477</ele>
        <time>2018-07-28T13:46:37Z</time>
      </trkpt>
      <trkpt lat="42.19577" lon="-8.7951">
        <ele>4.599</ele>
        <time>2018-07-28T13:46:38Z</time>
      </trkpt>
      <trkpt lat="42.19585" lon="-8.79503">
        <ele>4.664</ele>
        <time>2018-07-28T13:46:39Z</time>
      </trkpt>
      <trkpt lat="42.19592" lon="-8.79496">
        <ele>4.619</ele>
        <time>2018-07-28T13:46:40Z</time>
      </trkpt>
      <trkpt lat="42.19599" lon="-8.79489">
        <ele>4.697</ele>
        <time>2018-07-28T13:46:41Z</time>
      </trkpt>
      <trkpt lat="42.19605" lon="-8.79483">
        <ele>4.593</ele>
        <time>2018-07-28T13:46:42Z</time>
      </trkpt>
      <trkpt lat="42.19612" lon="-8.79476">
        <ele>4.271</ele>
        <time>2018-07-28T13:46:43Z</time>
      </trkpt>
      <trkpt lat="42.19617" lon="-8.79469">
        <ele>3.941</ele>
        <time>2018-07-28T13:46:44Z</time>
      </trkpt>
      <trkpt lat="42.19622" lon="-8.79461">
        <ele>3.615</ele>
        <time>2018-07-28T13:46:45Z</time>
      </trkpt>
      <trkpt lat="42.19625" lon="-8.79452">
        <ele>3.508</ele>
        <time>2018-07-28T13:46:46Z</time>
      </trkpt>
      <trkpt lat="42.19629" lon="-8.79442">
        <ele>3.459</ele>
        <time>2018-07-28T13:46:47Z</time>
      </trkpt>
      <trkpt lat="42.19631" lon="-8.79432">
        <ele>3.324</ele>
        <time>2018-07-28T13:46:48Z</time>
      </trkpt>
      <trkpt lat="42.19633" lon="-8.79421">
        <ele>3.337</ele>
        <time>2018-07-28T13:46:49Z</time>
      </trkpt>
      <trkpt lat="42.19635" lon="-8.79411">
        <ele>3.429</ele>
        <time>2018-07-28T13:46:50Z</time>
      </trkpt>
      <trkpt lat="42.19637" lon="-8.79401">
        <ele>3.454</ele>
        <time>2018-07-28T13:46:51Z</time>
      </trkpt>
      <trkpt lat="42.19638" lon="-8.79391">
        <ele>3.439</ele>
        <time>2018-07-28T13:46:52Z</time>
      </trkpt>
      <trkpt lat="42.1964" lon="-8.7938">
        <ele>3.447</ele>
        <time>2018-07-28T13:46:53Z</time>
      </trkpt>
      <trkpt lat="42.19642" lon="-8.79369">
        <ele>3.543</ele>
        <time>2018-07-28T13:46:54Z</time>
      </trkpt>
      <trkpt lat="42.19644" lon="-8.79357">
        <ele>3.624</ele>
        <time>2018-07-28T13:46:55Z</time>
      </trkpt>
      <trkpt lat="42.19646" lon="-8.79346">
        <ele>3.604</ele>
        <time>2018-07-28T13:46:56Z</time>
      </trkpt>
      <trkpt lat="42.19647" lon="-8.79335">
        <ele>3.614</ele>
        <time>2018-07-28T13:46:57Z</time>
      </trkpt>
      <trkpt lat="42.19649" lon="-8.79323">
        <ele>3.608</ele>
        <time>2018-07-28T13:46:58Z</time>
      </trkpt>
      <trkpt lat="42.1965" lon="-8.79311">
        <ele>3.684</ele>
        <time>2018-07-28T13:46:59Z</time>
      </trkpt>
      <trkpt lat="42.19652" lon="-8.793">
        <ele>3.619</ele>
        <time>2018-07-28T13:47:00Z</time>
      </trkpt>
      <trkpt lat="42.19653" lon="-8.7929">
        <ele>3.652</ele>
        <time>2018-07-28T13:47:01Z</time>
      </trkpt>
      <trkpt lat="42.19654" lon="-8.79279">
        <ele>3.784</ele>
        <time>2018-07-28T13:47:02Z</time>
      </trkpt>
      <trkpt lat="42.19655" lon="-8.79268">
        <ele>3.899</ele>
        <time>2018-07-28T13:47:03Z</time>
      </trkpt>
      <trkpt lat="42.19657" lon="-8.79256">
        <ele>3.854</ele>
        <time>2018-07-28T13:47:04Z</time>
      </trkpt>
      <trkpt lat="42.19659" lon="-8.79244">
        <ele>3.872</ele>
        <time>2018-07-28T13:47:05Z</time>
      </trkpt>
      <trkpt lat="42.1966" lon="-8.79231">
        <ele>4.078</ele>
        <time>2018-07-28T13:47:06Z</time>
      </trkpt>
      <trkpt lat="42.19662" lon="-8.79219">
        <ele>4.155</ele>
        <time>2018-07-28T13:47:07Z</time>
      </trkpt>
      <trkpt lat="42.19663" lon="-8.79208">
        <ele>4.207</ele>
        <time>2018-07-28T13:47:08Z</time>
      </trkpt>
      <trkpt lat="42.19665" lon="-8.79197">
        <ele>4.217</ele>
        <time>2018-07-28T13:47:09Z</time>
      </trkpt>
      <trkpt lat="42.19665" lon="-8.79185">
        <ele>4.208</ele>
        <time>2018-07-28T13:47:10Z</time>
      </trkpt>
      <trkpt lat="42.19665" lon="-8.79175">
        <ele>4.127</ele>
        <time>2018-07-28T13:47:11Z</time>
      </trkpt>
      <trkpt lat="42.19666" lon="-8.79167">
        <ele>3.932</ele>
        <time>2018-07-28T13:47:12Z</time>
      </trkpt>
      <trkpt lat="42.19664" lon="-8.79156">
        <ele>3.435</ele>
        <time>2018-07-28T13:47:14Z</time>
      </trkpt>
      <trkpt lat="42.19663" lon="-8.79147">
        <ele>2.767</ele>
        <time>2018-07-28T13:47:16Z</time>
      </trkpt>
      <trkpt lat="42.19665" lon="-8.79135">
        <ele>2.572</ele>
        <time>2018-07-28T13:47:18Z</time>
      </trkpt>
      <trkpt lat="42.19668" lon="-8.7913">
        <ele>2.517</ele>
        <time>2018-07-28T13:47:19Z</time>
      </trkpt>
      <trkpt lat="42.19674" lon="-8.79128">
        <ele>2.635</ele>
        <time>2018-07-28T13:47:20Z</time>
      </trkpt>
      <trkpt lat="42.19679" lon="-8.79126">
        <ele>2.831</ele>
        <time>2018-07-28T13:47:21Z</time>
      </trkpt>
      <trkpt lat="42.19685" lon="-8.79122">
        <ele>3.158</ele>
        <time>2018-07-28T13:47:22Z</time>
      </trkpt>
      <trkpt lat="42.1969" lon="-8.79114">
        <ele>3.552</ele>
        <time>2018-07-28T13:47:23Z</time>
      </trkpt>
      <trkpt lat="42.19695" lon="-8.79106">
        <ele>3.617</ele>
        <time>2018-07-28T13:47:24Z</time>
      </trkpt>
      <trkpt lat="42.19699" lon="-8.79097">
        <ele>3.608</ele>
        <time>2018-07-28T13:47:25Z</time>
      </trkpt>
      <trkpt lat="42.19704" lon="-8.79089">
        <ele>3.687</ele>
        <time>2018-07-28T13:47:26Z</time>
      </trkpt>
      <trkpt lat="42.19709" lon="-8.7908">
        <ele>3.622</ele>
        <time>2018-07-28T13:47:27Z</time>
      </trkpt>
      <trkpt lat="42.19715" lon="-8.7907">
        <ele>3.835</ele>
        <time>2018-07-28T13:47:28Z</time>
      </trkpt>
      <trkpt lat="42.19721" lon="-8.7906">
        <ele>4.097</ele>
        <time>2018-07-28T13:47:29Z</time>
      </trkpt>
      <trkpt lat="42.19728" lon="-8.79048">
        <ele>4.332</ele>
        <time>2018-07-28T13:47:30Z</time>
      </trkpt>
      <trkpt lat="42.19735" lon="-8.79037">
        <ele>4.797</ele>
        <time>2018-07-28T13:47:31Z</time>
      </trkpt>
      <trkpt lat="42.19742" lon="-8.79026">
        <ele>5.085</ele>
        <time>2018-07-28T13:47:32Z</time>
      </trkpt>
      <trkpt lat="42.1975" lon="-8.79015">
        <ele>5.251</ele>
        <time>2018-07-28T13:47:33Z</time>
      </trkpt>
      <trkpt lat="42.19757" lon="-8.79003">
        <ele>5.413</ele>
        <time>2018-07-28T13:47:34Z</time>
      </trkpt>
      <trkpt lat="42.19763" lon="-8.78991">
        <ele>5.743</ele>
        <time>2018-07-28T13:47:35Z</time>
      </trkpt>
      <trkpt lat="42.19769" lon="-8.7898">
        <ele>5.807</ele>
        <time>2018-07-28T13:47:36Z</time>
      </trkpt>
      <trkpt lat="42.19776" lon="-8.78969">
        <ele>5.808</ele>
        <time>2018-07-28T13:47:37Z</time>
      </trkpt>
      <trkpt lat="42.19783" lon="-8.78958">
        <ele>5.933</ele>
        <time>2018-07-28T13:47:38Z</time>
      </trkpt>
      <trkpt lat="42.1979" lon="-8.78946">
        <ele>6.068</ele>
        <time>2018-07-28T13:47:39Z</time>
      </trkpt>
      <trkpt lat="42.19798" lon="-8.78933">
        <ele>6.491</ele>
        <time>2018-07-28T13:47:40Z</time>
      </trkpt>
      <trkpt lat="42.19805" lon="-8.78921">
        <ele>7.053</ele>
        <time>2018-07-28T13:47:41Z</time>
      </trkpt>
      <trkpt lat="42.19813" lon="-8.7891">
        <ele>7.568</ele>
        <time>2018-07-28T13:47:42Z</time>
      </trkpt>
      <trkpt lat="42.19819" lon="-8.78898">
        <ele>7.953</ele>
        <time>2018-07-28T13:47:43Z</time>
      </trkpt>
      <trkpt lat="42.19825" lon="-8.78885">
        <ele>8.331</ele>
        <time>2018-07-28T13:47:44Z</time>
      </trkpt>
      <trkpt lat="42.19831" lon="-8.78872">
        <ele>8.747</ele>
        <time>2018-07-28T13:47:45Z</time>
      </trkpt>
      <trkpt lat="42.19836" lon="-8.78858">
        <ele>8.914</ele>
        <time>2018-07-28T13:47:46Z</time>
      </trkpt>
      <trkpt lat="42.19841" lon="-8.78845">
        <ele>9.454</ele>
        <time>2018-07-28T13:47:47Z</time>
      </trkpt>
      <trkpt lat="42.19845" lon="-8.78831">
        <ele>10.009</ele>
        <time>2018-07-28T13:47:48Z</time>
      </trkpt>
      <trkpt lat="42.1985" lon="-8.78818">
        <ele>10.608</ele>
        <time>2018-07-28T13:47:49Z</time>
      </trkpt>
      <trkpt lat="42.19854" lon="-8.78804">
        <ele>11.033</ele>
        <time>2018-07-28T13:47:50Z</time>
      </trkpt>
      <trkpt lat="42.19859" lon="-8.7879">
        <ele>11.458</ele>
        <time>2018-07-28T13:47:51Z</time>
      </trkpt>
      <trkpt lat="42.19864" lon="-8.78776">
        <ele>11.651</ele>
        <time>2018-07-28T13:47:52Z</time>
      </trkpt>
      <trkpt lat="42.1987" lon="-8.78761">
        <ele>11.823</ele>
        <time>2018-07-28T13:47:53Z</time>
      </trkpt>
      <trkpt lat="42.19875" lon="-8.78746">
        <ele>11.918</ele>
        <time>2018-07-28T13:47:54Z</time>
      </trkpt>
      <trkpt lat="42.1988" lon="-8.78731">
        <ele>12.033</ele>
        <time>2018-07-28T13:47:55Z</time>
      </trkpt>
      <trkpt lat="42.19886" lon="-8.78714">
        <ele>12.281</ele>
        <time>2018-07-28T13:47:56Z</time>
      </trkpt>
      <trkpt lat="42.19892" lon="-8.78698">
        <ele>12.277</ele>
        <time>2018-07-28T13:47:57Z</time>
      </trkpt>
      <trkpt lat="42.19897" lon="-8.78683">
        <ele>11.827</ele>
        <time>2018-07-28T13:47:58Z</time>
      </trkpt>
      <trkpt lat="42.19903" lon="-8.78669">
        <ele>11.468</ele>
        <time>2018-07-28T13:47:59Z</time>
      </trkpt>
      <trkpt lat="42.19908" lon="-8.78655">
        <ele>10.614</ele>
        <time>2018-07-28T13:48:00Z</time>
      </trkpt>
      <trkpt lat="42.19914" lon="-8.78641">
        <ele>9.908</ele>
        <time>2018-07-28T13:48:01Z</time>
      </trkpt>
      <trkpt lat="42.1992" lon="-8.78629">
        <ele>9.464</ele>
        <time>2018-07-28T13:48:02Z</time>
      </trkpt>
      <trkpt lat="42.19927" lon="-8.78617">
        <ele>9.229</ele>
        <time>2018-07-28T13:48:03Z</time>
      </trkpt>
      <trkpt lat="42.19934" lon="-8.78605">
        <ele>9.172</ele>
        <time>2018-07-28T13:48:04Z</time>
      </trkpt>
      <trkpt lat="42.19942" lon="-8.78595">
        <ele>9.144</ele>
        <time>2018-07-28T13:48:05Z</time>
      </trkpt>
      <trkpt lat="42.19949" lon="-8.78585">
        <ele>9.129</ele>
        <time>2018-07-28T13:48:06Z</time>
      </trkpt>
      <trkpt lat="42.19956" lon="-8.78574">
        <ele>9.124</ele>
        <time>2018-07-28T13:48:07Z</time>
      </trkpt>
      <trkpt lat="42.19964" lon="-8.78564">
        <ele>9.042</ele>
        <time>2018-07-28T13:48:08Z</time>
      </trkpt>
      <trkpt lat="42.19971" lon="-8.78554">
        <ele>9.058</ele>
        <time>2018-07-28T13:48:09Z</time>
      </trkpt>
      <trkpt lat="42.19979" lon="-8.78544">
        <ele>9.141</ele>
        <time>2018-07-28T13:48:10Z</time>
      </trkpt>
      <trkpt lat="42.19987" lon="-8.78536">
        <ele>9.281</ele>
        <time>2018-07-28T13:48:11Z</time>
      </trkpt>
      <trkpt lat="42.19994" lon="-8.78527">
        <ele>9.309</ele>
        <time>2018-07-28T13:48:12Z</time>
      </trkpt>
      <trkpt lat="42.20002" lon="-8.7852">
        <ele>9.408</ele>
        <time>2018-07-28T13:48:13Z</time>
      </trkpt>
      <trkpt lat="42.2001" lon="-8.78515">
        <ele>9.256</ele>
        <time>2018-07-28T13:48:14Z</time>
      </trkpt>
      <trkpt lat="42.20017" lon="-8.78511">
        <ele>9.131</ele>
        <time>2018-07-28T13:48:15Z</time>
      </trkpt>
      <trkpt lat="42.20024" lon="-8.78507">
        <ele>9.064</ele>
        <time>2018-07-28T13:48:16Z</time>
      </trkpt>
      <trkpt lat="42.20031" lon="-8.78503">
        <ele>8.816</ele>
        <time>2018-07-28T13:48:17Z</time>
      </trkpt>
      <trkpt lat="42.20037" lon="-8.78499">
        <ele>8.641</ele>
        <time>2018-07-28T13:48:18Z</time>
      </trkpt>
      <trkpt lat="42.20043" lon="-8.78495">
        <ele>8.456</ele>
        <time>2018-07-28T13:48:19Z</time>
      </trkpt>
      <trkpt lat="42.20049" lon="-8.78489">
        <ele>8.234</ele>
        <time>2018-07-28T13:48:20Z</time>
      </trkpt>
      <trkpt lat="42.20055" lon="-8.78481">
        <ele>8.19</ele>
        <time>2018-07-28T13:48:21Z</time>
      </trkpt>
      <trkpt lat="42.20061" lon="-8.78471">
        <ele>8.167</ele>
        <time>2018-07-28T13:48:22Z</time>
      </trkpt>
      <trkpt lat="42.20066" lon="-8.78458">
        <ele>8.381</ele>
        <time>2018-07-28T13:48:23Z</time>
      </trkpt>
      <trkpt lat="42.2007" lon="-8.78445">
        <ele>8.619</ele>
        <time>2018-07-28T13:48:24Z</time>
      </trkpt>
      <trkpt lat="42.20074" lon="-8.78431">
        <ele>9.008</ele>
        <time>2018-07-28T13:48:25Z</time>
      </trkpt>
      <trkpt lat="42.20077" lon="-8.7842">
        <ele>9.378</ele>
        <time>2018-07-28T13:48:26Z</time>
      </trkpt>
      <trkpt lat="42.2008" lon="-8.7841">
        <ele>9.513</ele>
        <time>2018-07-28T13:48:27Z</time>
      </trkpt>
      <trkpt lat="42.20083" lon="-8.78404">
        <ele>9.516</ele>
        <time>2018-07-28T13:48:28Z</time>
      </trkpt>
      <trkpt lat="42.20086" lon="-8.78399">
        <ele>9.418</ele>
        <time>2018-07-28T13:48:29Z</time>
      </trkpt>
      <trkpt lat="42.20092" lon="-8.7839">
        <ele>8.673</ele>
        <time>2018-07-28T13:48:31Z</time>
      </trkpt>
      <trkpt lat="42.20097" lon="-8.78382">
        <ele>8.538</ele>
        <time>2018-07-28T13:48:33Z</time>
      </trkpt>
      <trkpt lat="42.20101" lon="-8.78378">
        <ele>8.596</ele>
        <time>2018-07-28T13:48:34Z</time>
      </trkpt>
      <trkpt lat="42.20105" lon="-8.78373">
        <ele>8.692</ele>
        <time>2018-07-28T13:48:35Z</time>
      </trkpt>
      <trkpt lat="42.2011" lon="-8.78367">
        <ele>8.817</ele>
        <time>2018-07-28T13:48:36Z</time>
      </trkpt>
      <trkpt lat="42.20117" lon="-8.78358">
        <ele>9.087</ele>
        <time>2018-07-28T13:48:37Z</time>
      </trkpt>
      <trkpt lat="42.20125" lon="-8.78349">
        <ele>9.315</ele>
        <time>2018-07-28T13:48:38Z</time>
      </trkpt>
      <trkpt lat="42.20133" lon="-8.78338">
        <ele>9.608</ele>
        <time>2018-07-28T13:48:39Z</time>
      </trkpt>
      <trkpt lat="42.2014" lon="-8.78325">
        <ele>10.063</ele>
        <time>2018-07-28T13:48:40Z</time>
      </trkpt>
      <trkpt lat="42.20145" lon="-8.7831">
        <ele>10.468</ele>
        <time>2018-07-28T13:48:41Z</time>
      </trkpt>
      <trkpt lat="42.2015" lon="-8.78297">
        <ele>10.731</ele>
        <time>2018-07-28T13:48:42Z</time>
      </trkpt>
      <trkpt lat="42.20155" lon="-8.78285">
        <ele>11.013</ele>
        <time>2018-07-28T13:48:43Z</time>
      </trkpt>
      <trkpt lat="42.20159" lon="-8.78272">
        <ele>11.118</ele>
        <time>2018-07-28T13:48:44Z</time>
      </trkpt>
      <trkpt lat="42.20164" lon="-8.7826">
        <ele>11.133</ele>
        <time>2018-07-28T13:48:45Z</time>
      </trkpt>
      <trkpt lat="42.20168" lon="-8.78248">
        <ele>11.141</ele>
        <time>2018-07-28T13:48:46Z</time>
      </trkpt>
      <trkpt lat="42.20173" lon="-8.78235">
        <ele>11.147</ele>
        <time>2018-07-28T13:48:47Z</time>
      </trkpt>
      <trkpt lat="42.20178" lon="-8.78221">
        <ele>11.263</ele>
        <time>2018-07-28T13:48:48Z</time>
      </trkpt>
      <trkpt lat="42.20182" lon="-8.78205">
        <ele>11.544</ele>
        <time>2018-07-28T13:48:49Z</time>
      </trkpt>
      <trkpt lat="42.20186" lon="-8.7819">
        <ele>11.818</ele>
        <time>2018-07-28T13:48:50Z</time>
      </trkpt>
      <trkpt lat="42.2019" lon="-8.78175">
        <ele>12.308</ele>
        <time>2018-07-28T13:48:51Z</time>
      </trkpt>
      <trkpt lat="42.20193" lon="-8.7816">
        <ele>12.848</ele>
        <time>2018-07-28T13:48:52Z</time>
      </trkpt>
      <trkpt lat="42.20198" lon="-8.78146">
        <ele>13.343</ele>
        <time>2018-07-28T13:48:53Z</time>
      </trkpt>
      <trkpt lat="42.20205" lon="-8.78134">
        <ele>13.766</ele>
        <time>2018-07-28T13:48:54Z</time>
      </trkpt>
      <trkpt lat="42.20213" lon="-8.78122">
        <ele>14.068</ele>
        <time>2018-07-28T13:48:55Z</time>
      </trkpt>
      <trkpt lat="42.20222" lon="-8.7811">
        <ele>14.223</ele>
        <time>2018-07-28T13:48:56Z</time>
      </trkpt>
      <trkpt lat="42.20231" lon="-8.78097">
        <ele>14.428</ele>
        <time>2018-07-28T13:48:57Z</time>
      </trkpt>
      <trkpt lat="42.2024" lon="-8.78083">
        <ele>14.766</ele>
        <time>2018-07-28T13:48:58Z</time>
      </trkpt>
      <trkpt lat="42.20249" lon="-8.78071">
        <ele>14.942</ele>
        <time>2018-07-28T13:48:59Z</time>
      </trkpt>
      <trkpt lat="42.20259" lon="-8.78059">
        <ele>15.242</ele>
        <time>2018-07-28T13:49:00Z</time>
      </trkpt>
      <trkpt lat="42.20267" lon="-8.78047">
        <ele>15.422</ele>
        <time>2018-07-28T13:49:01Z</time>
      </trkpt>
      <trkpt lat="42.20277" lon="-8.78035">
        <ele>15.514</ele>
        <time>2018-07-28T13:49:02Z</time>
      </trkpt>
      <trkpt lat="42.20286" lon="-8.78023">
        <ele>15.508</ele>
        <time>2018-07-28T13:49:03Z</time>
      </trkpt>
      <trkpt lat="42.20294" lon="-8.78012">
        <ele>15.576</ele>
        <time>2018-07-28T13:49:04Z</time>
      </trkpt>
      <trkpt lat="42.20303" lon="-8.78002">
        <ele>15.561</ele>
        <time>2018-07-28T13:49:05Z</time>
      </trkpt>
      <trkpt lat="42.2031" lon="-8.7799">
        <ele>15.274</ele>
        <time>2018-07-28T13:49:06Z</time>
      </trkpt>
      <trkpt lat="42.20316" lon="-8.77978">
        <ele>14.776</ele>
        <time>2018-07-28T13:49:07Z</time>
      </trkpt>
      <trkpt lat="42.20317" lon="-8.77964">
        <ele>14.111</ele>
        <time>2018-07-28T13:49:08Z</time>
      </trkpt>
      <trkpt lat="42.20316" lon="-8.77952">
        <ele>13.436</ele>
        <time>2018-07-28T13:49:09Z</time>
      </trkpt>
      <trkpt lat="42.20312" lon="-8.7794">
        <ele>12.664</ele>
        <time>2018-07-28T13:49:10Z</time>
      </trkpt>
      <trkpt lat="42.20306" lon="-8.7793">
        <ele>11.92</ele>
        <time>2018-07-28T13:49:11Z</time>
      </trkpt>
      <trkpt lat="42.20298" lon="-8.77923">
        <ele>11.269</ele>
        <time>2018-07-28T13:49:12Z</time>
      </trkpt>
      <trkpt lat="42.20289" lon="-8.77917">
        <ele>10.604</ele>
        <time>2018-07-28T13:49:13Z</time>
      </trkpt>
      <trkpt lat="42.2028" lon="-8.77911">
        <ele>10.024</ele>
        <time>2018-07-28T13:49:14Z</time>
      </trkpt>
      <trkpt lat="42.20272" lon="-8.77906">
        <ele>9.508</ele>
        <time>2018-07-28T13:49:15Z</time>
      </trkpt>
      <trkpt lat="42.20263" lon="-8.77902">
        <ele>9.128</ele>
        <time>2018-07-28T13:49:16Z</time>
      </trkpt>
      <trkpt lat="42.20256" lon="-8.77897">
        <ele>8.693</ele>
        <time>2018-07-28T13:49:17Z</time>
      </trkpt>
      <trkpt lat="42.2025" lon="-8.77889">
        <ele>8.126</ele>
        <time>2018-07-28T13:49:18Z</time>
      </trkpt>
      <trkpt lat="42.20246" lon="-8.77879">
        <ele>7.788</ele>
        <time>2018-07-28T13:49:19Z</time>
      </trkpt>
      <trkpt lat="42.20246" lon="-8.77865">
        <ele>7.313</ele>
        <time>2018-07-28T13:49:20Z</time>
      </trkpt>
      <trkpt lat="42.20246" lon="-8.77851">
        <ele>7.128</ele>
        <time>2018-07-28T13:49:21Z</time>
      </trkpt>
      <trkpt lat="42.20246" lon="-8.77837">
        <ele>7.246</ele>
        <time>2018-07-28T13:49:22Z</time>
      </trkpt>
      <trkpt lat="42.20247" lon="-8.77822">
        <ele>7.492</ele>
        <time>2018-07-28T13:49:23Z</time>
      </trkpt>
      <trkpt lat="42.20248" lon="-8.77807">
        <ele>7.775</ele>
        <time>2018-07-28T13:49:24Z</time>
      </trkpt>
      <trkpt lat="42.20249" lon="-8.77791">
        <ele>7.928</ele>
        <time>2018-07-28T13:49:25Z</time>
      </trkpt>
      <trkpt lat="42.2025" lon="-8.77775">
        <ele>7.92</ele>
        <time>2018-07-28T13:49:26Z</time>
      </trkpt>
      <trkpt lat="42.2025" lon="-8.7776">
        <ele>7.808</ele>
        <time>2018-07-28T13:49:27Z</time>
      </trkpt>
      <trkpt lat="42.2025" lon="-8.77745">
        <ele>7.729</ele>
        <time>2018-07-28T13:49:28Z</time>
      </trkpt>
      <trkpt lat="42.2025" lon="-8.77731">
        <ele>7.524</ele>
        <time>2018-07-28T13:49:29Z</time>
      </trkpt>
      <trkpt lat="42.20253" lon="-8.77718">
        <ele>7.257</ele>
        <time>2018-07-28T13:49:30Z</time>
      </trkpt>
      <trkpt lat="42.20259" lon="-8.77709">
        <ele>6.959</ele>
        <time>2018-07-28T13:49:31Z</time>
      </trkpt>
      <trkpt lat="42.20266" lon="-8.77701">
        <ele>6.724</ele>
        <time>2018-07-28T13:49:32Z</time>
      </trkpt>
      <trkpt lat="42.20276" lon="-8.77695">
        <ele>6.699</ele>
        <time>2018-07-28T13:49:33Z</time>
      </trkpt>
      <trkpt lat="42.20286" lon="-8.77691">
        <ele>6.617</ele>
        <time>2018-07-28T13:49:34Z</time>
      </trkpt>
      <trkpt lat="42.20296" lon="-8.77688">
        <ele>6.793</ele>
        <time>2018-07-28T13:49:35Z</time>
      </trkpt>
      <trkpt lat="42.20306" lon="-8.77684">
        <ele>6.753</ele>
        <time>2018-07-28T13:49:36Z</time>
      </trkpt>
      <trkpt lat="42.20317" lon="-8.77681">
        <ele>6.704</ele>
        <time>2018-07-28T13:49:37Z</time>
      </trkpt>
      <trkpt lat="42.20328" lon="-8.77681">
        <ele>6.714</ele>
        <time>2018-07-28T13:49:38Z</time>
      </trkpt>
      <trkpt lat="42.20337" lon="-8.77681">
        <ele>6.808</ele>
        <time>2018-07-28T13:49:39Z</time>
      </trkpt>
      <trkpt lat="42.20345" lon="-8.7768">
        <ele>6.917</ele>
        <time>2018-07-28T13:49:40Z</time>
      </trkpt>
      <trkpt lat="42.20352" lon="-8.77681">
        <ele>6.992</ele>
        <time>2018-07-28T13:49:41Z</time>
      </trkpt>
      <trkpt lat="42.20358" lon="-8.77681">
        <ele>6.825</ele>
        <time>2018-07-28T13:49:42Z</time>
      </trkpt>
      <trkpt lat="42.20364" lon="-8.77681">
        <ele>6.587</ele>
        <time>2018-07-28T13:49:43Z</time>
      </trkpt>
      <trkpt lat="42.20371" lon="-8.77683">
        <ele>6.072</ele>
        <time>2018-07-28T13:49:44Z</time>
      </trkpt>
      <trkpt lat="42.20378" lon="-8.77684">
        <ele>5.847</ele>
        <time>2018-07-28T13:49:45Z</time>
      </trkpt>
      <trkpt lat="42.20386" lon="-8.77684">
        <ele>5.875</ele>
        <time>2018-07-28T13:49:46Z</time>
      </trkpt>
      <trkpt lat="42.20397" lon="-8.77684">
        <ele>6.031</ele>
        <time>2018-07-28T13:49:47Z</time>
      </trkpt>
      <trkpt lat="42.20409" lon="-8.77683">
        <ele>6.257</ele>
        <time>2018-07-28T13:49:48Z</time>
      </trkpt>
      <trkpt lat="42.20422" lon="-8.77683">
        <ele>6.6</ele>
        <time>2018-07-28T13:49:49Z</time>
      </trkpt>
      <trkpt lat="42.20434" lon="-8.77684">
        <ele>7.12</ele>
        <time>2018-07-28T13:49:50Z</time>
      </trkpt>
      <trkpt lat="42.20446" lon="-8.77684">
        <ele>7.508</ele>
        <time>2018-07-28T13:49:51Z</time>
      </trkpt>
      <trkpt lat="42.20458" lon="-8.77685">
        <ele>7.947</ele>
        <time>2018-07-28T13:49:52Z</time>
      </trkpt>
      <trkpt lat="42.2047" lon="-8.77686">
        <ele>8.282</ele>
        <time>2018-07-28T13:49:53Z</time>
      </trkpt>
      <trkpt lat="42.20483" lon="-8.77687">
        <ele>8.655</ele>
        <time>2018-07-28T13:49:54Z</time>
      </trkpt>
      <trkpt lat="42.20495" lon="-8.77688">
        <ele>8.757</ele>
        <time>2018-07-28T13:49:55Z</time>
      </trkpt>
      <trkpt lat="42.20507" lon="-8.77687">
        <ele>8.862</ele>
        <time>2018-07-28T13:49:56Z</time>
      </trkpt>
      <trkpt lat="42.20518" lon="-8.77688">
        <ele>8.847</ele>
        <time>2018-07-28T13:49:57Z</time>
      </trkpt>
      <trkpt lat="42.2053" lon="-8.77688">
        <ele>8.735</ele>
        <time>2018-07-28T13:49:58Z</time>
      </trkpt>
      <trkpt lat="42.2054" lon="-8.77689">
        <ele>8.551</ele>
        <time>2018-07-28T13:49:59Z</time>
      </trkpt>
      <trkpt lat="42.20549" lon="-8.77689">
        <ele>8.167</ele>
        <time>2018-07-28T13:50:00Z</time>
      </trkpt>
      <trkpt lat="42.20558" lon="-8.77688">
        <ele>7.781</ele>
        <time>2018-07-28T13:50:01Z</time>
      </trkpt>
      <trkpt lat="42.20567" lon="-8.77687">
        <ele>7.219</ele>
        <time>2018-07-28T13:50:02Z</time>
      </trkpt>
      <trkpt lat="42.20575" lon="-8.77685">
        <ele>6.908</ele>
        <time>2018-07-28T13:50:03Z</time>
      </trkpt>
      <trkpt lat="42.20582" lon="-8.77681">
        <ele>6.688</ele>
        <time>2018-07-28T13:50:04Z</time>
      </trkpt>
      <trkpt lat="42.20588" lon="-8.77677">
        <ele>6.353</ele>
        <time>2018-07-28T13:50:05Z</time>
      </trkpt>
      <trkpt lat="42.20593" lon="-8.77674">
        <ele>5.996</ele>
        <time>2018-07-28T13:50:06Z</time>
      </trkpt>
      <trkpt lat="42.20598" lon="-8.77672">
        <ele>5.548</ele>
        <time>2018-07-28T13:50:07Z</time>
      </trkpt>
      <trkpt lat="42.20605" lon="-8.77668">
        <ele>4.863</ele>
        <time>2018-07-28T13:50:09Z</time>
      </trkpt>
      <trkpt lat="42.20609" lon="-8.77664">
        <ele>4.148</ele>
        <time>2018-07-28T13:50:12Z</time>
      </trkpt>
      <trkpt lat="42.20612" lon="-8.77659">
        <ele>4.286</ele>
        <time>2018-07-28T13:50:24Z</time>
      </trkpt>
      <trkpt lat="42.20617" lon="-8.7766">
        <ele>4.252</ele>
        <time>2018-07-28T13:50:30Z</time>
      </trkpt>
      <trkpt lat="42.20626" lon="-8.77653">
        <ele>4.326</ele>
        <time>2018-07-28T13:50:32Z</time>
      </trkpt>
      <trkpt lat="42.20632" lon="-8.77649">
        <ele>4.547</ele>
        <time>2018-07-28T13:50:33Z</time>
      </trkpt>
      <trkpt lat="42.2064" lon="-8.77646">
        <ele>4.711</ele>
        <time>2018-07-28T13:50:34Z</time>
      </trkpt>
      <trkpt lat="42.20647" lon="-8.77643">
        <ele>4.908</ele>
        <time>2018-07-28T13:50:35Z</time>
      </trkpt>
      <trkpt lat="42.20654" lon="-8.7764">
        <ele>5.114</ele>
        <time>2018-07-28T13:50:36Z</time>
      </trkpt>
      <trkpt lat="42.20663" lon="-8.77635">
        <ele>5.479</ele>
        <time>2018-07-28T13:50:37Z</time>
      </trkpt>
      <trkpt lat="42.20672" lon="-8.7763">
        <ele>5.782</ele>
        <time>2018-07-28T13:50:38Z</time>
      </trkpt>
      <trkpt lat="42.20682" lon="-8.77626">
        <ele>6.044</ele>
        <time>2018-07-28T13:50:39Z</time>
      </trkpt>
      <trkpt lat="42.20691" lon="-8.7762">
        <ele>6.399</ele>
        <time>2018-07-28T13:50:40Z</time>
      </trkpt>
      <trkpt lat="42.207" lon="-8.77615">
        <ele>6.554</ele>
        <time>2018-07-28T13:50:41Z</time>
      </trkpt>
      <trkpt lat="42.2071" lon="-8.7761">
        <ele>6.652</ele>
        <time>2018-07-28T13:50:42Z</time>
      </trkpt>
      <trkpt lat="42.2072" lon="-8.77605">
        <ele>6.788</ele>
        <time>2018-07-28T13:50:43Z</time>
      </trkpt>
      <trkpt lat="42.2073" lon="-8.776">
        <ele>6.776</ele>
        <time>2018-07-28T13:50:44Z</time>
      </trkpt>
      <trkpt lat="42.2074" lon="-8.77596">
        <ele>7.09</ele>
        <time>2018-07-28T13:50:45Z</time>
      </trkpt>
      <trkpt lat="42.20751" lon="-8.77591">
        <ele>7.319</ele>
        <time>2018-07-28T13:50:46Z</time>
      </trkpt>
      <trkpt lat="42.20761" lon="-8.77585">
        <ele>7.408</ele>
        <time>2018-07-28T13:50:47Z</time>
      </trkpt>
      <trkpt lat="42.20772" lon="-8.7758">
        <ele>7.569</ele>
        <time>2018-07-28T13:50:48Z</time>
      </trkpt>
      <trkpt lat="42.20784" lon="-8.77573">
        <ele>7.784</ele>
        <time>2018-07-28T13:50:49Z</time>
      </trkpt>
      <trkpt lat="42.20797" lon="-8.77566">
        <ele>7.897</ele>
        <time>2018-07-28T13:50:50Z</time>
      </trkpt>
      <trkpt lat="42.20809" lon="-8.77559">
        <ele>8.219</ele>
        <time>2018-07-28T13:50:51Z</time>
      </trkpt>
      <trkpt lat="42.20821" lon="-8.77553">
        <ele>8.694</ele>
        <time>2018-07-28T13:50:52Z</time>
      </trkpt>
      <trkpt lat="42.20833" lon="-8.77547">
        <ele>8.669</ele>
        <time>2018-07-28T13:50:53Z</time>
      </trkpt>
      <trkpt lat="42.20845" lon="-8.77543">
        <ele>8.747</ele>
        <time>2018-07-28T13:50:54Z</time>
      </trkpt>
      <trkpt lat="42.20857" lon="-8.77538">
        <ele>8.673</ele>
        <time>2018-07-28T13:50:55Z</time>
      </trkpt>
      <trkpt lat="42.20869" lon="-8.77533">
        <ele>8.366</ele>
        <time>2018-07-28T13:50:56Z</time>
      </trkpt>
      <trkpt lat="42.20881" lon="-8.77527">
        <ele>7.929</ele>
        <time>2018-07-28T13:50:57Z</time>
      </trkpt>
      <trkpt lat="42.20893" lon="-8.77521">
        <ele>7.821</ele>
        <time>2018-07-28T13:50:58Z</time>
      </trkpt>
      <trkpt lat="42.20905" lon="-8.77515">
        <ele>7.708</ele>
        <time>2018-07-28T13:50:59Z</time>
      </trkpt>
      <trkpt lat="42.20917" lon="-8.7751">
        <ele>7.758</ele>
        <time>2018-07-28T13:51:00Z</time>
      </trkpt>
      <trkpt lat="42.20929" lon="-8.77504">
        <ele>7.883</ele>
        <time>2018-07-28T13:51:01Z</time>
      </trkpt>
      <trkpt lat="42.20941" lon="-8.77498">
        <ele>8.036</ele>
        <time>2018-07-28T13:51:02Z</time>
      </trkpt>
      <trkpt lat="42.20952" lon="-8.77492">
        <ele>8.178</ele>
        <time>2018-07-28T13:51:03Z</time>
      </trkpt>
      <trkpt lat="42.20962" lon="-8.77487">
        <ele>8.193</ele>
        <time>2018-07-28T13:51:04Z</time>
      </trkpt>
      <trkpt lat="42.20972" lon="-8.77482">
        <ele>7.938</ele>
        <time>2018-07-28T13:51:05Z</time>
      </trkpt>
      <trkpt lat="42.20981" lon="-8.77478">
        <ele>7.846</ele>
        <time>2018-07-28T13:51:06Z</time>
      </trkpt>
      <trkpt lat="42.20991" lon="-8.77473">
        <ele>7.662</ele>
        <time>2018-07-28T13:51:07Z</time>
      </trkpt>
      <trkpt lat="42.21" lon="-8.77468">
        <ele>7.444</ele>
        <time>2018-07-28T13:51:08Z</time>
      </trkpt>
      <trkpt lat="42.21008" lon="-8.77464">
        <ele>7.205</ele>
        <time>2018-07-28T13:51:09Z</time>
      </trkpt>
      <trkpt lat="42.21016" lon="-8.7746">
        <ele>7.015</ele>
        <time>2018-07-28T13:51:10Z</time>
      </trkpt>
      <trkpt lat="42.21025" lon="-8.77456">
        <ele>6.908</ele>
        <time>2018-07-28T13:51:11Z</time>
      </trkpt>
      <trkpt lat="42.21034" lon="-8.77452">
        <ele>6.996</ele>
        <time>2018-07-28T13:51:12Z</time>
      </trkpt>
      <trkpt lat="42.21043" lon="-8.77448">
        <ele>6.911</ele>
        <time>2018-07-28T13:51:13Z</time>
      </trkpt>
      <trkpt lat="42.21052" lon="-8.77444">
        <ele>6.994</ele>
        <time>2018-07-28T13:51:14Z</time>
      </trkpt>
      <trkpt lat="42.21061" lon="-8.7744">
        <ele>6.916</ele>
        <time>2018-07-28T13:51:15Z</time>
      </trkpt>
      <trkpt lat="42.21069" lon="-8.77436">
        <ele>7.091</ele>
        <time>2018-07-28T13:51:16Z</time>
      </trkpt>
      <trkpt lat="42.21076" lon="-8.77433">
        <ele>7.016</ele>
        <time>2018-07-28T13:51:17Z</time>
      </trkpt>
      <trkpt lat="42.21083" lon="-8.7743">
        <ele>7.014</ele>
        <time>2018-07-28T13:51:18Z</time>
      </trkpt>
      <trkpt lat="42.21089" lon="-8.77427">
        <ele>6.89</ele>
        <time>2018-07-28T13:51:19Z</time>
      </trkpt>
      <trkpt lat="42.21095" lon="-8.77424">
        <ele>6.677</ele>
        <time>2018-07-28T13:51:20Z</time>
      </trkpt>
      <trkpt lat="42.21101" lon="-8.77421">
        <ele>6.561</ele>
        <time>2018-07-28T13:51:21Z</time>
      </trkpt>
      <trkpt lat="42.21109" lon="-8.77418">
        <ele>6.327</ele>
        <time>2018-07-28T13:51:23Z</time>
      </trkpt>
      <trkpt lat="42.21114" lon="-8.77417">
        <ele>6.008</ele>
        <time>2018-07-28T13:51:25Z</time>
      </trkpt>
      <trkpt lat="42.21119" lon="-8.77413">
        <ele>5.899</ele>
        <time>2018-07-28T13:51:27Z</time>
      </trkpt>
      <trkpt lat="42.21129" lon="-8.77408">
        <ele>5.964</ele>
        <time>2018-07-28T13:51:29Z</time>
      </trkpt>
      <trkpt lat="42.21136" lon="-8.77408">
        <ele>6.177</ele>
        <time>2018-07-28T13:51:30Z</time>
      </trkpt>
      <trkpt lat="42.21146" lon="-8.77409">
        <ele>6.459</ele>
        <time>2018-07-28T13:51:31Z</time>
      </trkpt>
      <trkpt lat="42.21156" lon="-8.77411">
        <ele>6.784</ele>
        <time>2018-07-28T13:51:32Z</time>
      </trkpt>
      <trkpt lat="42.21166" lon="-8.77414">
        <ele>7.079</ele>
        <time>2018-07-28T13:51:33Z</time>
      </trkpt>
      <trkpt lat="42.21178" lon="-8.77417">
        <ele>7.237</ele>
        <time>2018-07-28T13:51:34Z</time>
      </trkpt>
      <trkpt lat="42.2119" lon="-8.77419">
        <ele>7.523</ele>
        <time>2018-07-28T13:51:35Z</time>
      </trkpt>
      <trkpt lat="42.21204" lon="-8.77421">
        <ele>8.257</ele>
        <time>2018-07-28T13:51:36Z</time>
      </trkpt>
      <trkpt lat="42.21218" lon="-8.77423">
        <ele>9</ele>
        <time>2018-07-28T13:51:37Z</time>
      </trkpt>
      <trkpt lat="42.21231" lon="-8.77426">
        <ele>9.72</ele>
        <time>2018-07-28T13:51:38Z</time>
      </trkpt>
      <trkpt lat="42.21245" lon="-8.77428">
        <ele>10.208</ele>
        <time>2018-07-28T13:51:39Z</time>
      </trkpt>
      <trkpt lat="42.21258" lon="-8.77431">
        <ele>10.567</ele>
        <time>2018-07-28T13:51:40Z</time>
      </trkpt>
      <trkpt lat="42.21271" lon="-8.77433">
        <ele>10.512</ele>
        <time>2018-07-28T13:51:41Z</time>
      </trkpt>
      <trkpt lat="42.21284" lon="-8.77435">
        <ele>10.595</ele>
        <time>2018-07-28T13:51:42Z</time>
      </trkpt>
      <trkpt lat="42.21296" lon="-8.77436">
        <ele>10.337</ele>
        <time>2018-07-28T13:51:43Z</time>
      </trkpt>
      <trkpt lat="42.2131" lon="-8.77438">
        <ele>10.192</ele>
        <time>2018-07-28T13:51:44Z</time>
      </trkpt>
      <trkpt lat="42.21323" lon="-8.7744">
        <ele>10.067</ele>
        <time>2018-07-28T13:51:45Z</time>
      </trkpt>
      <trkpt lat="42.21337" lon="-8.77442">
        <ele>10.015</ele>
        <time>2018-07-28T13:51:46Z</time>
      </trkpt>
      <trkpt lat="42.21352" lon="-8.77444">
        <ele>10.031</ele>
        <time>2018-07-28T13:51:47Z</time>
      </trkpt>
      <trkpt lat="42.21366" lon="-8.77447">
        <ele>10.157</ele>
        <time>2018-07-28T13:51:48Z</time>
      </trkpt>
      <trkpt lat="42.21381" lon="-8.77449">
        <ele>10.5</ele>
        <time>2018-07-28T13:51:49Z</time>
      </trkpt>
      <trkpt lat="42.21395" lon="-8.77451">
        <ele>10.72</ele>
        <time>2018-07-28T13:51:50Z</time>
      </trkpt>
      <trkpt lat="42.21409" lon="-8.77453">
        <ele>10.808</ele>
        <time>2018-07-28T13:51:51Z</time>
      </trkpt>
      <trkpt lat="42.21422" lon="-8.77455">
        <ele>10.897</ele>
        <time>2018-07-28T13:51:52Z</time>
      </trkpt>
      <trkpt lat="42.21436" lon="-8.77457">
        <ele>10.862</ele>
        <time>2018-07-28T13:51:53Z</time>
      </trkpt>
      <trkpt lat="42.21449" lon="-8.7746">
        <ele>10.875</ele>
        <time>2018-07-28T13:51:54Z</time>
      </trkpt>
      <trkpt lat="42.21463" lon="-8.77462">
        <ele>11.157</ele>
        <time>2018-07-28T13:51:55Z</time>
      </trkpt>
      <trkpt lat="42.21477" lon="-8.77464">
        <ele>11.422</ele>
        <time>2018-07-28T13:51:56Z</time>
      </trkpt>
      <trkpt lat="42.2149" lon="-8.77466">
        <ele>11.757</ele>
        <time>2018-07-28T13:51:57Z</time>
      </trkpt>
      <trkpt lat="42.21502" lon="-8.77468">
        <ele>11.935</ele>
        <time>2018-07-28T13:51:58Z</time>
      </trkpt>
      <trkpt lat="42.21513" lon="-8.77469">
        <ele>11.941</ele>
        <time>2018-07-28T13:51:59Z</time>
      </trkpt>
      <trkpt lat="42.21524" lon="-8.77471">
        <ele>11.741</ele>
        <time>2018-07-28T13:52:00Z</time>
      </trkpt>
      <trkpt lat="42.21535" lon="-8.77472">
        <ele>11.581</ele>
        <time>2018-07-28T13:52:01Z</time>
      </trkpt>
      <trkpt lat="42.21546" lon="-8.77474">
        <ele>11.309</ele>
        <time>2018-07-28T13:52:02Z</time>
      </trkpt>
      <trkpt lat="42.21558" lon="-8.77476">
        <ele>11.308</ele>
        <time>2018-07-28T13:52:03Z</time>
      </trkpt>
      <trkpt lat="42.21571" lon="-8.77478">
        <ele>11.476</ele>
        <time>2018-07-28T13:52:04Z</time>
      </trkpt>
      <trkpt lat="42.21584" lon="-8.7748">
        <ele>11.741</ele>
        <time>2018-07-28T13:52:05Z</time>
      </trkpt>
      <trkpt lat="42.21598" lon="-8.77483">
        <ele>12.294</ele>
        <time>2018-07-28T13:52:06Z</time>
      </trkpt>
      <trkpt lat="42.21611" lon="-8.77486">
        <ele>12.836</ele>
        <time>2018-07-28T13:52:07Z</time>
      </trkpt>
      <trkpt lat="42.21624" lon="-8.77488">
        <ele>13.531</ele>
        <time>2018-07-28T13:52:08Z</time>
      </trkpt>
      <trkpt lat="42.21637" lon="-8.7749">
        <ele>14.696</ele>
        <time>2018-07-28T13:52:09Z</time>
      </trkpt>
      <trkpt lat="42.21648" lon="-8.77494">
        <ele>14.774</ele>
        <time>2018-07-28T13:52:10Z</time>
      </trkpt>
      <trkpt lat="42.2166" lon="-8.77499">
        <ele>14.75</ele>
        <time>2018-07-28T13:52:11Z</time>
      </trkpt>
      <trkpt lat="42.21671" lon="-8.77504">
        <ele>14.752</ele>
        <time>2018-07-28T13:52:12Z</time>
      </trkpt>
      <trkpt lat="42.21683" lon="-8.77511">
        <ele>14.753</ele>
        <time>2018-07-28T13:52:13Z</time>
      </trkpt>
      <trkpt lat="42.21696" lon="-8.77518">
        <ele>14.908</ele>
        <time>2018-07-28T13:52:14Z</time>
      </trkpt>
      <trkpt lat="42.21709" lon="-8.77525">
        <ele>15.208</ele>
        <time>2018-07-28T13:52:15Z</time>
      </trkpt>
      <trkpt lat="42.21723" lon="-8.77532">
        <ele>15.637</ele>
        <time>2018-07-28T13:52:16Z</time>
      </trkpt>
      <trkpt lat="42.21736" lon="-8.77539">
        <ele>16.282</ele>
        <time>2018-07-28T13:52:17Z</time>
      </trkpt>
      <trkpt lat="42.21751" lon="-8.77546">
        <ele>16.535</ele>
        <time>2018-07-28T13:52:18Z</time>
      </trkpt>
      <trkpt lat="42.21766" lon="-8.77552">
        <ele>16.977</ele>
        <time>2018-07-28T13:52:19Z</time>
      </trkpt>
      <trkpt lat="42.21782" lon="-8.77556">
        <ele>17.532</ele>
        <time>2018-07-28T13:52:20Z</time>
      </trkpt>
      <trkpt lat="42.21798" lon="-8.7756">
        <ele>17.927</ele>
        <time>2018-07-28T13:52:21Z</time>
      </trkpt>
      <trkpt lat="42.21812" lon="-8.77563">
        <ele>18.145</ele>
        <time>2018-07-28T13:52:22Z</time>
      </trkpt>
      <trkpt lat="42.21828" lon="-8.77565">
        <ele>18.491</ele>
        <time>2018-07-28T13:52:23Z</time>
      </trkpt>
      <trkpt lat="42.21845" lon="-8.77565">
        <ele>18.745</ele>
        <time>2018-07-28T13:52:24Z</time>
      </trkpt>
      <trkpt lat="42.21862" lon="-8.77567">
        <ele>18.747</ele>
        <time>2018-07-28T13:52:25Z</time>
      </trkpt>
      <trkpt lat="42.21878" lon="-8.77564">
        <ele>18.411</ele>
        <time>2018-07-28T13:52:26Z</time>
      </trkpt>
      <trkpt lat="42.21894" lon="-8.77563">
        <ele>18.408</ele>
        <time>2018-07-28T13:52:27Z</time>
      </trkpt>
      <trkpt lat="42.21909" lon="-8.77561">
        <ele>18.226</ele>
        <time>2018-07-28T13:52:28Z</time>
      </trkpt>
      <trkpt lat="42.21925" lon="-8.77559">
        <ele>18.141</ele>
        <time>2018-07-28T13:52:29Z</time>
      </trkpt>
      <trkpt lat="42.21938" lon="-8.77556">
        <ele>18.174</ele>
        <time>2018-07-28T13:52:30Z</time>
      </trkpt>
      <trkpt lat="42.21952" lon="-8.77549">
        <ele>18.136</ele>
        <time>2018-07-28T13:52:31Z</time>
      </trkpt>
      <trkpt lat="42.21964" lon="-8.77548">
        <ele>18.091</ele>
        <time>2018-07-28T13:52:32Z</time>
      </trkpt>
      <trkpt lat="42.21977" lon="-8.77539">
        <ele>17.946</ele>
        <time>2018-07-28T13:52:33Z</time>
      </trkpt>
      <trkpt lat="42.21989" lon="-8.77531">
        <ele>17.794</ele>
        <time>2018-07-28T13:52:34Z</time>
      </trkpt>
      <trkpt lat="42.22002" lon="-8.77524">
        <ele>17.42</ele>
        <time>2018-07-28T13:52:35Z</time>
      </trkpt>
      <trkpt lat="42.22013" lon="-8.77516">
        <ele>17.287</ele>
        <time>2018-07-28T13:52:36Z</time>
      </trkpt>
      <trkpt lat="42.22026" lon="-8.77509">
        <ele>17.142</ele>
        <time>2018-07-28T13:52:37Z</time>
      </trkpt>
      <trkpt lat="42.22041" lon="-8.77498">
        <ele>17.126</ele>
        <time>2018-07-28T13:52:38Z</time>
      </trkpt>
      <trkpt lat="42.22057" lon="-8.77489">
        <ele>17.208</ele>
        <time>2018-07-28T13:52:39Z</time>
      </trkpt>
      <trkpt lat="42.22071" lon="-8.77477">
        <ele>17.51</ele>
        <time>2018-07-28T13:52:40Z</time>
      </trkpt>
      <trkpt lat="42.22085" lon="-8.77464">
        <ele>17.895</ele>
        <time>2018-07-28T13:52:41Z</time>
      </trkpt>
      <trkpt lat="42.22099" lon="-8.77451">
        <ele>18.668</ele>
        <time>2018-07-28T13:52:42Z</time>
      </trkpt>
      <trkpt lat="42.22112" lon="-8.77438">
        <ele>18.86</ele>
        <time>2018-07-28T13:52:43Z</time>
      </trkpt>
      <trkpt lat="42.22123" lon="-8.77428">
        <ele>18.825</ele>
        <time>2018-07-28T13:52:44Z</time>
      </trkpt>
      <trkpt lat="42.22133" lon="-8.77419">
        <ele>18.87</ele>
        <time>2018-07-28T13:52:45Z</time>
      </trkpt>
      <trkpt lat="42.22143" lon="-8.77406">
        <ele>18.868</ele>
        <time>2018-07-28T13:52:46Z</time>
      </trkpt>
      <trkpt lat="42.2215" lon="-8.77393">
        <ele>18.494</ele>
        <time>2018-07-28T13:52:47Z</time>
      </trkpt>
      <trkpt lat="42.22157" lon="-8.7738">
        <ele>17.983</ele>
        <time>2018-07-28T13:52:48Z</time>
      </trkpt>
      <trkpt lat="42.22162" lon="-8.77367">
        <ele>17.325</ele>
        <time>2018-07-28T13:52:49Z</time>
      </trkpt>
      <trkpt lat="42.22169" lon="-8.77356">
        <ele>16.717</ele>
        <time>2018-07-28T13:52:50Z</time>
      </trkpt>
      <trkpt lat="42.22173" lon="-8.77345">
        <ele>16.108</ele>
        <time>2018-07-28T13:52:51Z</time>
      </trkpt>
      <trkpt lat="42.22179" lon="-8.77333">
        <ele>15.89</ele>
        <time>2018-07-28T13:52:52Z</time>
      </trkpt>
      <trkpt lat="42.22184" lon="-8.77323">
        <ele>15.535</ele>
        <time>2018-07-28T13:52:53Z</time>
      </trkpt>
      <trkpt lat="42.22188" lon="-8.77314">
        <ele>15.218</ele>
        <time>2018-07-28T13:52:54Z</time>
      </trkpt>
      <trkpt lat="42.22193" lon="-8.77304">
        <ele>15.06</ele>
        <time>2018-07-28T13:52:55Z</time>
      </trkpt>
      <trkpt lat="42.22199" lon="-8.77293">
        <ele>14.945</ele>
        <time>2018-07-28T13:52:56Z</time>
      </trkpt>
      <trkpt lat="42.22206" lon="-8.77282">
        <ele>14.93</ele>
        <time>2018-07-28T13:52:57Z</time>
      </trkpt>
      <trkpt lat="42.22213" lon="-8.77268">
        <ele>15.048</ele>
        <time>2018-07-28T13:52:58Z</time>
      </trkpt>
      <trkpt lat="42.2222" lon="-8.77253">
        <ele>15.714</ele>
        <time>2018-07-28T13:52:59Z</time>
      </trkpt>
      <trkpt lat="42.22229" lon="-8.7724">
        <ele>16.061</ele>
        <time>2018-07-28T13:53:00Z</time>
      </trkpt>
      <trkpt lat="42.22237" lon="-8.77227">
        <ele>16.421</ele>
        <time>2018-07-28T13:53:01Z</time>
      </trkpt>
      <trkpt lat="42.22245" lon="-8.77213">
        <ele>16.613</ele>
        <time>2018-07-28T13:53:02Z</time>
      </trkpt>
      <trkpt lat="42.22253" lon="-8.77199">
        <ele>16.708</ele>
        <time>2018-07-28T13:53:03Z</time>
      </trkpt>
      <trkpt lat="42.22259" lon="-8.77186">
        <ele>16.718</ele>
        <time>2018-07-28T13:53:04Z</time>
      </trkpt>
      <trkpt lat="42.22266" lon="-8.77172">
        <ele>16.773</ele>
        <time>2018-07-28T13:53:05Z</time>
      </trkpt>
      <trkpt lat="42.22274" lon="-8.7716">
        <ele>16.756</ele>
        <time>2018-07-28T13:53:06Z</time>
      </trkpt>
      <trkpt lat="42.2228" lon="-8.77148">
        <ele>16.798</ele>
        <time>2018-07-28T13:53:07Z</time>
      </trkpt>
      <trkpt lat="42.22285" lon="-8.77134">
        <ele>16.753</ele>
        <time>2018-07-28T13:53:08Z</time>
      </trkpt>
      <trkpt lat="42.22291" lon="-8.77121">
        <ele>16.758</ele>
        <time>2018-07-28T13:53:09Z</time>
      </trkpt>
      <trkpt lat="42.22297" lon="-8.77104">
        <ele>16.796</ele>
        <time>2018-07-28T13:53:10Z</time>
      </trkpt>
      <trkpt lat="42.22303" lon="-8.77092">
        <ele>16.722</ele>
        <time>2018-07-28T13:53:11Z</time>
      </trkpt>
      <trkpt lat="42.22307" lon="-8.77075">
        <ele>16.864</ele>
        <time>2018-07-28T13:53:12Z</time>
      </trkpt>
      <trkpt lat="42.22309" lon="-8.77055">
        <ele>16.806</ele>
        <time>2018-07-28T13:53:13Z</time>
      </trkpt>
      <trkpt lat="42.22313" lon="-8.7704">
        <ele>16.816</ele>
        <time>2018-07-28T13:53:14Z</time>
      </trkpt>
      <trkpt lat="42.22311" lon="-8.77025">
        <ele>16.808</ele>
        <time>2018-07-28T13:53:15Z</time>
      </trkpt>
      <trkpt lat="42.22308" lon="-8.7701">
        <ele>16.748</ele>
        <time>2018-07-28T13:53:16Z</time>
      </trkpt>
      <trkpt lat="42.22305" lon="-8.76998">
        <ele>16.683</ele>
        <time>2018-07-28T13:53:17Z</time>
      </trkpt>
      <trkpt lat="42.22302" lon="-8.76988">
        <ele>16.666</ele>
        <time>2018-07-28T13:53:18Z</time>
      </trkpt>
      <trkpt lat="42.22299" lon="-8.76978">
        <ele>16.678</ele>
        <time>2018-07-28T13:53:19Z</time>
      </trkpt>
      <trkpt lat="42.22294" lon="-8.76971">
        <ele>16.573</ele>
        <time>2018-07-28T13:53:20Z</time>
      </trkpt>
      <trkpt lat="42.22291" lon="-8.76966">
        <ele>16.448</ele>
        <time>2018-07-28T13:53:21Z</time>
      </trkpt>
      <trkpt lat="42.22287" lon="-8.76958">
        <ele>16.486</ele>
        <time>2018-07-28T13:53:24Z</time>
      </trkpt>
      <trkpt lat="42.22282" lon="-8.76956">
        <ele>16.872</ele>
        <time>2018-07-28T13:53:27Z</time>
      </trkpt>
      <trkpt lat="42.22276" lon="-8.76953">
        <ele>17.062</ele>
        <time>2018-07-28T13:53:30Z</time>
      </trkpt>
      <trkpt lat="42.22272" lon="-8.76947">
        <ele>17.483</ele>
        <time>2018-07-28T13:53:32Z</time>
      </trkpt>
      <trkpt lat="42.22272" lon="-8.7694">
        <ele>17.811</ele>
        <time>2018-07-28T13:53:35Z</time>
      </trkpt>
      <trkpt lat="42.2227" lon="-8.76934">
        <ele>17.908</ele>
        <time>2018-07-28T13:53:36Z</time>
      </trkpt>
      <trkpt lat="42.22265" lon="-8.76929">
        <ele>18.038</ele>
        <time>2018-07-28T13:53:37Z</time>
      </trkpt>
      <trkpt lat="42.2226" lon="-8.76923">
        <ele>18.243</ele>
        <time>2018-07-28T13:53:38Z</time>
      </trkpt>
      <trkpt lat="42.22253" lon="-8.76914">
        <ele>18.596</ele>
        <time>2018-07-28T13:53:39Z</time>
      </trkpt>
      <trkpt lat="42.22247" lon="-8.76908">
        <ele>18.998</ele>
        <time>2018-07-28T13:53:40Z</time>
      </trkpt>
      <trkpt lat="42.22241" lon="-8.76901">
        <ele>19.463</ele>
        <time>2018-07-28T13:53:41Z</time>
      </trkpt>
      <trkpt lat="42.22236" lon="-8.76894">
        <ele>20.098</ele>
        <time>2018-07-28T13:53:42Z</time>
      </trkpt>
      <trkpt lat="42.22229" lon="-8.76886">
        <ele>20.636</ele>
        <time>2018-07-28T13:53:43Z</time>
      </trkpt>
      <trkpt lat="42.22216" lon="-8.76875">
        <ele>21.382</ele>
        <time>2018-07-28T13:53:44Z</time>
      </trkpt>
      <trkpt lat="42.22205" lon="-8.76864">
        <ele>22.159</ele>
        <time>2018-07-28T13:53:45Z</time>
      </trkpt>
      <trkpt lat="42.22196" lon="-8.76849">
        <ele>23.103</ele>
        <time>2018-07-28T13:53:46Z</time>
      </trkpt>
      <trkpt lat="42.22187" lon="-8.76839">
        <ele>24.723</ele>
        <time>2018-07-28T13:53:47Z</time>
      </trkpt>
      <trkpt lat="42.22181" lon="-8.76826">
        <ele>25.408</ele>
        <time>2018-07-28T13:53:48Z</time>
      </trkpt>
      <trkpt lat="42.22174" lon="-8.76813">
        <ele>26.137</ele>
        <time>2018-07-28T13:53:49Z</time>
      </trkpt>
      <trkpt lat="42.22166" lon="-8.76799">
        <ele>26.782</ele>
        <time>2018-07-28T13:53:50Z</time>
      </trkpt>
      <trkpt lat="42.22157" lon="-8.76786">
        <ele>27.415</ele>
        <time>2018-07-28T13:53:51Z</time>
      </trkpt>
      <trkpt lat="42.22149" lon="-8.76773">
        <ele>28.167</ele>
        <time>2018-07-28T13:53:52Z</time>
      </trkpt>
      <trkpt lat="42.22143" lon="-8.76759">
        <ele>28.542</ele>
        <time>2018-07-28T13:53:53Z</time>
      </trkpt>
      <trkpt lat="42.22137" lon="-8.76746">
        <ele>28.547</ele>
        <time>2018-07-28T13:53:54Z</time>
      </trkpt>
      <trkpt lat="42.22134" lon="-8.76735">
        <ele>28.495</ele>
        <time>2018-07-28T13:53:55Z</time>
      </trkpt>
      <trkpt lat="42.22132" lon="-8.76724">
        <ele>28.281</ele>
        <time>2018-07-28T13:53:56Z</time>
      </trkpt>
      <trkpt lat="42.22131" lon="-8.76713">
        <ele>27.936</ele>
        <time>2018-07-28T13:53:57Z</time>
      </trkpt>
      <trkpt lat="42.2213" lon="-8.76702">
        <ele>27.717</ele>
        <time>2018-07-28T13:53:58Z</time>
      </trkpt>
      <trkpt lat="42.22128" lon="-8.76689">
        <ele>27.718</ele>
        <time>2018-07-28T13:53:59Z</time>
      </trkpt>
      <trkpt lat="42.22123" lon="-8.76677">
        <ele>27.708</ele>
        <time>2018-07-28T13:54:00Z</time>
      </trkpt>
      <trkpt lat="42.22118" lon="-8.76665">
        <ele>27.835</ele>
        <time>2018-07-28T13:54:01Z</time>
      </trkpt>
      <trkpt lat="42.22114" lon="-8.76653">
        <ele>28.19</ele>
        <time>2018-07-28T13:54:02Z</time>
      </trkpt>
      <trkpt lat="42.22111" lon="-8.76641">
        <ele>28.523</ele>
        <time>2018-07-28T13:54:03Z</time>
      </trkpt>
      <trkpt lat="42.22106" lon="-8.76631">
        <ele>28.655</ele>
        <time>2018-07-28T13:54:04Z</time>
      </trkpt>
      <trkpt lat="42.22099" lon="-8.7662">
        <ele>28.65</ele>
        <time>2018-07-28T13:54:05Z</time>
      </trkpt>
      <trkpt lat="42.22098" lon="-8.76608">
        <ele>28.755</ele>
        <time>2018-07-28T13:54:06Z</time>
      </trkpt>
      <trkpt lat="42.22094" lon="-8.76592">
        <ele>28.733</ele>
        <time>2018-07-28T13:54:07Z</time>
      </trkpt>
      <trkpt lat="42.22094" lon="-8.76579">
        <ele>28.589</ele>
        <time>2018-07-28T13:54:08Z</time>
      </trkpt>
      <trkpt lat="42.22094" lon="-8.76565">
        <ele>28.491</ele>
        <time>2018-07-28T13:54:09Z</time>
      </trkpt>
      <trkpt lat="42.22098" lon="-8.76551">
        <ele>28.481</ele>
        <time>2018-07-28T13:54:10Z</time>
      </trkpt>
      <trkpt lat="42.22102" lon="-8.76536">
        <ele>28.319</ele>
        <time>2018-07-28T13:54:11Z</time>
      </trkpt>
      <trkpt lat="42.22104" lon="-8.76521">
        <ele>28.208</ele>
        <time>2018-07-28T13:54:12Z</time>
      </trkpt>
      <trkpt lat="42.22106" lon="-8.76507">
        <ele>28.221</ele>
        <time>2018-07-28T13:54:13Z</time>
      </trkpt>
      <trkpt lat="42.22108" lon="-8.76493">
        <ele>28.286</ele>
        <time>2018-07-28T13:54:14Z</time>
      </trkpt>
      <trkpt lat="42.22107" lon="-8.7648">
        <ele>28.419</ele>
        <time>2018-07-28T13:54:15Z</time>
      </trkpt>
      <trkpt lat="42.2211" lon="-8.76468">
        <ele>28.531</ele>
        <time>2018-07-28T13:54:16Z</time>
      </trkpt>
      <trkpt lat="42.2211" lon="-8.76449">
        <ele>28.696</ele>
        <time>2018-07-28T13:54:17Z</time>
      </trkpt>
      <trkpt lat="42.22113" lon="-8.76439">
        <ele>28.861</ele>
        <time>2018-07-28T13:54:18Z</time>
      </trkpt>
      <trkpt lat="42.22115" lon="-8.76426">
        <ele>28.989</ele>
        <time>2018-07-28T13:54:19Z</time>
      </trkpt>
      <trkpt lat="42.22116" lon="-8.76417">
        <ele>28.995</ele>
        <time>2018-07-28T13:54:20Z</time>
      </trkpt>
      <trkpt lat="42.22118" lon="-8.76407">
        <ele>28.838</ele>
        <time>2018-07-28T13:54:21Z</time>
      </trkpt>
      <trkpt lat="42.22119" lon="-8.76397">
        <ele>28.77</ele>
        <time>2018-07-28T13:54:22Z</time>
      </trkpt>
      <trkpt lat="42.22119" lon="-8.76388">
        <ele>28.617</ele>
        <time>2018-07-28T13:54:23Z</time>
      </trkpt>
      <trkpt lat="42.22119" lon="-8.76379">
        <ele>28.308</ele>
        <time>2018-07-28T13:54:24Z</time>
      </trkpt>
      <trkpt lat="42.2212" lon="-8.76367">
        <ele>28.145</ele>
        <time>2018-07-28T13:54:25Z</time>
      </trkpt>
      <trkpt lat="42.22123" lon="-8.76352">
        <ele>28.06</ele>
        <time>2018-07-28T13:54:26Z</time>
      </trkpt>
      <trkpt lat="42.22127" lon="-8.76337">
        <ele>28.063</ele>
        <time>2018-07-28T13:54:27Z</time>
      </trkpt>
      <trkpt lat="42.22132" lon="-8.76321">
        <ele>28.075</ele>
        <time>2018-07-28T13:54:28Z</time>
      </trkpt>
      <trkpt lat="42.22141" lon="-8.76307">
        <ele>28.28</ele>
        <time>2018-07-28T13:54:29Z</time>
      </trkpt>
      <trkpt lat="42.22151" lon="-8.76293">
        <ele>28.235</ele>
        <time>2018-07-28T13:54:30Z</time>
      </trkpt>
      <trkpt lat="42.22161" lon="-8.76281">
        <ele>28.253</ele>
        <time>2018-07-28T13:54:31Z</time>
      </trkpt>
      <trkpt lat="42.22169" lon="-8.76269">
        <ele>28.059</ele>
        <time>2018-07-28T13:54:32Z</time>
      </trkpt>
      <trkpt lat="42.22176" lon="-8.76257">
        <ele>27.678</ele>
        <time>2018-07-28T13:54:33Z</time>
      </trkpt>
      <trkpt lat="42.22183" lon="-8.76247">
        <ele>27.333</ele>
        <time>2018-07-28T13:54:34Z</time>
      </trkpt>
      <trkpt lat="42.22188" lon="-8.76235">
        <ele>27.026</ele>
        <time>2018-07-28T13:54:35Z</time>
      </trkpt>
      <trkpt lat="42.22194" lon="-8.76225">
        <ele>26.708</ele>
        <time>2018-07-28T13:54:36Z</time>
      </trkpt>
      <trkpt lat="42.222" lon="-8.76214">
        <ele>26.539</ele>
        <time>2018-07-28T13:54:37Z</time>
      </trkpt>
      <trkpt lat="42.22206" lon="-8.76204">
        <ele>26.344</ele>
        <time>2018-07-28T13:54:38Z</time>
      </trkpt>
      <trkpt lat="42.22212" lon="-8.76191">
        <ele>26.077</ele>
        <time>2018-07-28T13:54:39Z</time>
      </trkpt>
      <trkpt lat="42.22214" lon="-8.76179">
        <ele>25.829</ele>
        <time>2018-07-28T13:54:40Z</time>
      </trkpt>
      <trkpt lat="42.22213" lon="-8.76166">
        <ele>25.724</ele>
        <time>2018-07-28T13:54:41Z</time>
      </trkpt>
      <trkpt lat="42.22207" lon="-8.76153">
        <ele>25.739</ele>
        <time>2018-07-28T13:54:42Z</time>
      </trkpt>
      <trkpt lat="42.22204" lon="-8.76139">
        <ele>25.747</ele>
        <time>2018-07-28T13:54:43Z</time>
      </trkpt>
      <trkpt lat="42.22201" lon="-8.76126">
        <ele>25.893</ele>
        <time>2018-07-28T13:54:44Z</time>
      </trkpt>
      <trkpt lat="42.22199" lon="-8.76111">
        <ele>25.963</ele>
        <time>2018-07-28T13:54:45Z</time>
      </trkpt>
      <trkpt lat="42.22198" lon="-8.76097">
        <ele>26.144</ele>
        <time>2018-07-28T13:54:46Z</time>
      </trkpt>
      <trkpt lat="42.22196" lon="-8.76083">
        <ele>26.318</ele>
        <time>2018-07-28T13:54:47Z</time>
      </trkpt>
      <trkpt lat="42.22193" lon="-8.76067">
        <ele>26.708</ele>
        <time>2018-07-28T13:54:48Z</time>
      </trkpt>
      <trkpt lat="42.2219" lon="-8.76053">
        <ele>27.198</ele>
        <time>2018-07-28T13:54:49Z</time>
      </trkpt>
      <trkpt lat="42.22187" lon="-8.76038">
        <ele>27.583</ele>
        <time>2018-07-28T13:54:50Z</time>
      </trkpt>
      <trkpt lat="42.22183" lon="-8.76024">
        <ele>28.426</ele>
        <time>2018-07-28T13:54:51Z</time>
      </trkpt>
      <trkpt lat="42.22179" lon="-8.76011">
        <ele>28.728</ele>
        <time>2018-07-28T13:54:52Z</time>
      </trkpt>
      <trkpt lat="42.22178" lon="-8.75999">
        <ele>28.933</ele>
        <time>2018-07-28T13:54:53Z</time>
      </trkpt>
      <trkpt lat="42.22176" lon="-8.75988">
        <ele>29.038</ele>
        <time>2018-07-28T13:54:54Z</time>
      </trkpt>
      <trkpt lat="42.22175" lon="-8.75976">
        <ele>29.256</ele>
        <time>2018-07-28T13:54:55Z</time>
      </trkpt>
      <trkpt lat="42.22173" lon="-8.75964">
        <ele>29.412</ele>
        <time>2018-07-28T13:54:56Z</time>
      </trkpt>
      <trkpt lat="42.2217" lon="-8.75952">
        <ele>29.632</ele>
        <time>2018-07-28T13:54:57Z</time>
      </trkpt>
      <trkpt lat="42.22169" lon="-8.75938">
        <ele>30.192</ele>
        <time>2018-07-28T13:54:58Z</time>
      </trkpt>
      <trkpt lat="42.22165" lon="-8.75924">
        <ele>31.011</ele>
        <time>2018-07-28T13:54:59Z</time>
      </trkpt>
      <trkpt lat="42.22164" lon="-8.7591">
        <ele>31.808</ele>
        <time>2018-07-28T13:55:00Z</time>
      </trkpt>
      <trkpt lat="42.22165" lon="-8.75896">
        <ele>32.635</ele>
        <time>2018-07-28T13:55:01Z</time>
      </trkpt>
      <trkpt lat="42.22168" lon="-8.75881">
        <ele>33.37</ele>
        <time>2018-07-28T13:55:02Z</time>
      </trkpt>
      <trkpt lat="42.22169" lon="-8.75866">
        <ele>33.653</ele>
        <time>2018-07-28T13:55:03Z</time>
      </trkpt>
      <trkpt lat="42.22173" lon="-8.75852">
        <ele>33.645</ele>
        <time>2018-07-28T13:55:04Z</time>
      </trkpt>
      <trkpt lat="42.22177" lon="-8.7584">
        <ele>33.65</ele>
        <time>2018-07-28T13:55:05Z</time>
      </trkpt>
      <trkpt lat="42.22181" lon="-8.75828">
        <ele>33.425</ele>
        <time>2018-07-28T13:55:06Z</time>
      </trkpt>
      <trkpt lat="42.22185" lon="-8.75818">
        <ele>33.183</ele>
        <time>2018-07-28T13:55:07Z</time>
      </trkpt>
      <trkpt lat="42.2219" lon="-8.7581">
        <ele>32.829</ele>
        <time>2018-07-28T13:55:08Z</time>
      </trkpt>
      <trkpt lat="42.22193" lon="-8.75803">
        <ele>32.538</ele>
        <time>2018-07-28T13:55:09Z</time>
      </trkpt>
      <trkpt lat="42.22195" lon="-8.75795">
        <ele>32.37</ele>
        <time>2018-07-28T13:55:10Z</time>
      </trkpt>
      <trkpt lat="42.22197" lon="-8.75788">
        <ele>32.017</ele>
        <time>2018-07-28T13:55:11Z</time>
      </trkpt>
      <trkpt lat="42.222" lon="-8.75781">
        <ele>31.708</ele>
        <time>2018-07-28T13:55:12Z</time>
      </trkpt>
      <trkpt lat="42.22203" lon="-8.75774">
        <ele>31.555</ele>
        <time>2018-07-28T13:55:13Z</time>
      </trkpt>
      <trkpt lat="42.22206" lon="-8.75766">
        <ele>31.43</ele>
        <time>2018-07-28T13:55:14Z</time>
      </trkpt>
      <trkpt lat="42.22206" lon="-8.75756">
        <ele>31.493</ele>
        <time>2018-07-28T13:55:15Z</time>
      </trkpt>
      <trkpt lat="42.22204" lon="-8.75748">
        <ele>31.475</ele>
        <time>2018-07-28T13:55:16Z</time>
      </trkpt>
      <trkpt lat="42.22201" lon="-8.7574">
        <ele>31.42</ele>
        <time>2018-07-28T13:55:17Z</time>
      </trkpt>
      <trkpt lat="42.222" lon="-8.75732">
        <ele>31.485</ele>
        <time>2018-07-28T13:55:18Z</time>
      </trkpt>
      <trkpt lat="42.22202" lon="-8.75724">
        <ele>31.433</ele>
        <time>2018-07-28T13:55:19Z</time>
      </trkpt>
      <trkpt lat="42.22205" lon="-8.75716">
        <ele>31.379</ele>
        <time>2018-07-28T13:55:20Z</time>
      </trkpt>
      <trkpt lat="42.22209" lon="-8.75709">
        <ele>31.242</ele>
        <time>2018-07-28T13:55:21Z</time>
      </trkpt>
      <trkpt lat="42.22215" lon="-8.75704">
        <ele>31.022</ele>
        <time>2018-07-28T13:55:22Z</time>
      </trkpt>
      <trkpt lat="42.22221" lon="-8.757">
        <ele>30.814</ele>
        <time>2018-07-28T13:55:23Z</time>
      </trkpt>
      <trkpt lat="42.22227" lon="-8.75702">
        <ele>30.608</ele>
        <time>2018-07-28T13:55:24Z</time>
      </trkpt>
      <trkpt lat="42.22234" lon="-8.75703">
        <ele>30.386</ele>
        <time>2018-07-28T13:55:25Z</time>
      </trkpt>
      <trkpt lat="42.2224" lon="-8.75702">
        <ele>29.961</ele>
        <time>2018-07-28T13:55:26Z</time>
      </trkpt>
      <trkpt lat="42.22246" lon="-8.75697">
        <ele>29.694</ele>
        <time>2018-07-28T13:55:27Z</time>
      </trkpt>
      <trkpt lat="42.22251" lon="-8.75689">
        <ele>29.476</ele>
        <time>2018-07-28T13:55:28Z</time>
      </trkpt>
      <trkpt lat="42.22256" lon="-8.75682">
        <ele>29.171</ele>
        <time>2018-07-28T13:55:29Z</time>
      </trkpt>
      <trkpt lat="42.22261" lon="-8.75676">
        <ele>28.916</ele>
        <time>2018-07-28T13:55:30Z</time>
      </trkpt>
      <trkpt lat="42.22266" lon="-8.7567">
        <ele>28.864</ele>
        <time>2018-07-28T13:55:31Z</time>
      </trkpt>
      <trkpt lat="42.22272" lon="-8.75664">
        <ele>28.63</ele>
        <time>2018-07-28T13:55:32Z</time>
      </trkpt>
      <trkpt lat="42.22278" lon="-8.75659">
        <ele>28.336</ele>
        <time>2018-07-28T13:55:33Z</time>
      </trkpt>
      <trkpt lat="42.22283" lon="-8.75652">
        <ele>28.117</ele>
        <time>2018-07-28T13:55:34Z</time>
      </trkpt>
      <trkpt lat="42.22289" lon="-8.75648">
        <ele>28.018</ele>
        <time>2018-07-28T13:55:35Z</time>
      </trkpt>
      <trkpt lat="42.22294" lon="-8.75642">
        <ele>27.808</ele>
        <time>2018-07-28T13:55:36Z</time>
      </trkpt>
      <trkpt lat="42.22298" lon="-8.75634">
        <ele>27.555</ele>
        <time>2018-07-28T13:55:37Z</time>
      </trkpt>
      <trkpt lat="42.22302" lon="-8.75627">
        <ele>27.16</ele>
        <time>2018-07-28T13:55:38Z</time>
      </trkpt>
      <trkpt lat="42.22306" lon="-8.75619">
        <ele>26.983</ele>
        <time>2018-07-28T13:55:39Z</time>
      </trkpt>
      <trkpt lat="42.2231" lon="-8.75612">
        <ele>26.755</ele>
        <time>2018-07-28T13:55:40Z</time>
      </trkpt>
      <trkpt lat="42.22315" lon="-8.75605">
        <ele>26.57</ele>
        <time>2018-07-28T13:55:41Z</time>
      </trkpt>
      <trkpt lat="42.22318" lon="-8.75597">
        <ele>26.215</ele>
        <time>2018-07-28T13:55:42Z</time>
      </trkpt>
      <trkpt lat="42.22323" lon="-8.75588">
        <ele>25.813</ele>
        <time>2018-07-28T13:55:43Z</time>
      </trkpt>
      <trkpt lat="42.22327" lon="-8.75578">
        <ele>25.539</ele>
        <time>2018-07-28T13:55:44Z</time>
      </trkpt>
      <trkpt lat="42.22329" lon="-8.75567">
        <ele>25.151</ele>
        <time>2018-07-28T13:55:45Z</time>
      </trkpt>
      <trkpt lat="42.2233" lon="-8.75556">
        <ele>24.801</ele>
        <time>2018-07-28T13:55:46Z</time>
      </trkpt>
      <trkpt lat="42.2233" lon="-8.75546">
        <ele>24.611</ele>
        <time>2018-07-28T13:55:47Z</time>
      </trkpt>
      <trkpt lat="42.22331" lon="-8.75537">
        <ele>24.408</ele>
        <time>2018-07-28T13:55:48Z</time>
      </trkpt>
      <trkpt lat="42.22331" lon="-8.75529">
        <ele>24.197</ele>
        <time>2018-07-28T13:55:49Z</time>
      </trkpt>
      <trkpt lat="42.22331" lon="-8.75521">
        <ele>23.872</ele>
        <time>2018-07-28T13:55:50Z</time>
      </trkpt>
      <trkpt lat="42.22332" lon="-8.75513">
        <ele>23.595</ele>
        <time>2018-07-28T13:55:51Z</time>
      </trkpt>
      <trkpt lat="42.22331" lon="-8.75506">
        <ele>23.327</ele>
        <time>2018-07-28T13:55:52Z</time>
      </trkpt>
      <trkpt lat="42.22331" lon="-8.75498">
        <ele>23.182</ele>
        <time>2018-07-28T13:55:53Z</time>
      </trkpt>
      <trkpt lat="42.22329" lon="-8.75488">
        <ele>23.347</ele>
        <time>2018-07-28T13:55:54Z</time>
      </trkpt>
      <trkpt lat="42.22328" lon="-8.75478">
        <ele>23.565</ele>
        <time>2018-07-28T13:55:55Z</time>
      </trkpt>
      <trkpt lat="42.22326" lon="-8.75467">
        <ele>23.681</ele>
        <time>2018-07-28T13:55:56Z</time>
      </trkpt>
      <trkpt lat="42.22324" lon="-8.75456">
        <ele>23.819</ele>
        <time>2018-07-28T13:55:57Z</time>
      </trkpt>
      <trkpt lat="42.22324" lon="-8.75444">
        <ele>23.809</ele>
        <time>2018-07-28T13:55:58Z</time>
      </trkpt>
      <trkpt lat="42.22323" lon="-8.75432">
        <ele>23.719</ele>
        <time>2018-07-28T13:55:59Z</time>
      </trkpt>
      <trkpt lat="42.22322" lon="-8.75421">
        <ele>23.508</ele>
        <time>2018-07-28T13:56:00Z</time>
      </trkpt>
      <trkpt lat="42.22322" lon="-8.7541">
        <ele>23.393</ele>
        <time>2018-07-28T13:56:01Z</time>
      </trkpt>
      <trkpt lat="42.22321" lon="-8.75399">
        <ele>23.118</ele>
        <time>2018-07-28T13:56:02Z</time>
      </trkpt>
      <trkpt lat="42.22318" lon="-8.75389">
        <ele>23.041</ele>
        <time>2018-07-28T13:56:03Z</time>
      </trkpt>
      <trkpt lat="42.22315" lon="-8.75379">
        <ele>22.863</ele>
        <time>2018-07-28T13:56:04Z</time>
      </trkpt>
      <trkpt lat="42.22312" lon="-8.7537">
        <ele>22.758</ele>
        <time>2018-07-28T13:56:05Z</time>
      </trkpt>
      <trkpt lat="42.22309" lon="-8.75361">
        <ele>22.513</ele>
        <time>2018-07-28T13:56:06Z</time>
      </trkpt>
      <trkpt lat="42.22305" lon="-8.75354">
        <ele>22.341</ele>
        <time>2018-07-28T13:56:07Z</time>
      </trkpt>
      <trkpt lat="42.223" lon="-8.75348">
        <ele>21.937</ele>
        <time>2018-07-28T13:56:08Z</time>
      </trkpt>
      <trkpt lat="42.22296" lon="-8.75343">
        <ele>21.619</ele>
        <time>2018-07-28T13:56:09Z</time>
      </trkpt>
      <trkpt lat="42.22293" lon="-8.75338">
        <ele>21.209</ele>
        <time>2018-07-28T13:56:10Z</time>
      </trkpt>
      <trkpt lat="42.2229" lon="-8.75333">
        <ele>20.419</ele>
        <time>2018-07-28T13:56:11Z</time>
      </trkpt>
      <trkpt lat="42.22285" lon="-8.75331">
        <ele>20.108</ele>
        <time>2018-07-28T13:56:12Z</time>
      </trkpt>
      <trkpt lat="42.22281" lon="-8.75327">
        <ele>19.663</ele>
        <time>2018-07-28T13:56:13Z</time>
      </trkpt>
      <trkpt lat="42.22277" lon="-8.75322">
        <ele>19.348</ele>
        <time>2018-07-28T13:56:14Z</time>
      </trkpt>
      <trkpt lat="42.22272" lon="-8.75317">
        <ele>19.021</ele>
        <time>2018-07-28T13:56:15Z</time>
      </trkpt>
      <trkpt lat="42.22267" lon="-8.75313">
        <ele>18.713</ele>
        <time>2018-07-28T13:56:16Z</time>
      </trkpt>
      <trkpt lat="42.22262" lon="-8.75308">
        <ele>18.468</ele>
        <time>2018-07-28T13:56:17Z</time>
      </trkpt>
      <trkpt lat="42.22256" lon="-8.75304">
        <ele>18.183</ele>
        <time>2018-07-28T13:56:18Z</time>
      </trkpt>
      <trkpt lat="42.22252" lon="-8.75301">
        <ele>17.871</ele>
        <time>2018-07-28T13:56:19Z</time>
      </trkpt>
      <trkpt lat="42.22248" lon="-8.75297">
        <ele>17.147</ele>
        <time>2018-07-28T13:56:21Z</time>
      </trkpt>
      <trkpt lat="42.22242" lon="-8.75292">
        <ele>16.354</ele>
        <time>2018-07-28T13:56:24Z</time>
      </trkpt>
      <trkpt lat="42.22238" lon="-8.75288">
        <ele>15.956</ele>
        <time>2018-07-28T13:56:27Z</time>
      </trkpt>
      <trkpt lat="42.22233" lon="-8.75282">
        <ele>15.711</ele>
        <time>2018-07-28T13:56:29Z</time>
      </trkpt>
      <trkpt lat="42.22229" lon="-8.75278">
        <ele>15.208</ele>
        <time>2018-07-28T13:56:32Z</time>
      </trkpt>
      <trkpt lat="42.22236" lon="-8.75275">
        <ele>14.867</ele>
        <time>2018-07-28T13:56:34Z</time>
      </trkpt>
      <trkpt lat="42.22241" lon="-8.7528">
        <ele>14.872</ele>
        <time>2018-07-28T13:56:35Z</time>
      </trkpt>
      <trkpt lat="42.22244" lon="-8.75288">
        <ele>14.955</ele>
        <time>2018-07-28T13:56:36Z</time>
      </trkpt>
      <trkpt lat="42.22249" lon="-8.75296">
        <ele>15.117</ele>
        <time>2018-07-28T13:56:37Z</time>
      </trkpt>
      <trkpt lat="42.22255" lon="-8.75303">
        <ele>15.452</ele>
        <time>2018-07-28T13:56:38Z</time>
      </trkpt>
      <trkpt lat="42.22261" lon="-8.75311">
        <ele>15.817</ele>
        <time>2018-07-28T13:56:39Z</time>
      </trkpt>
      <trkpt lat="42.22268" lon="-8.7532">
        <ele>16.465</ele>
        <time>2018-07-28T13:56:40Z</time>
      </trkpt>
      <trkpt lat="42.22277" lon="-8.75327">
        <ele>17.021</ele>
        <time>2018-07-28T13:56:41Z</time>
      </trkpt>
      <trkpt lat="42.22286" lon="-8.75335">
        <ele>17.893</ele>
        <time>2018-07-28T13:56:42Z</time>
      </trkpt>
      <trkpt lat="42.22294" lon="-8.75344">
        <ele>18.765</ele>
        <time>2018-07-28T13:56:43Z</time>
      </trkpt>
      <trkpt lat="42.22302" lon="-8.75352">
        <ele>20.821</ele>
        <time>2018-07-28T13:56:44Z</time>
      </trkpt>
      <trkpt lat="42.22309" lon="-8.75362">
        <ele>21.608</ele>
        <time>2018-07-28T13:56:45Z</time>
      </trkpt>
      <trkpt lat="42.22315" lon="-8.75372">
        <ele>22.541</ele>
        <time>2018-07-28T13:56:46Z</time>
      </trkpt>
      <trkpt lat="42.22319" lon="-8.75384">
        <ele>23.266</ele>
        <time>2018-07-28T13:56:47Z</time>
      </trkpt>
      <trkpt lat="42.22322" lon="-8.75396">
        <ele>23.519</ele>
        <time>2018-07-28T13:56:48Z</time>
      </trkpt>
      <trkpt lat="42.22325" lon="-8.75408">
        <ele>23.831</ele>
        <time>2018-07-28T13:56:49Z</time>
      </trkpt>
      <trkpt lat="42.22326" lon="-8.75422">
        <ele>24.196</ele>
        <time>2018-07-28T13:56:50Z</time>
      </trkpt>
      <trkpt lat="42.22327" lon="-8.75437">
        <ele>24.371</ele>
        <time>2018-07-28T13:56:51Z</time>
      </trkpt>
      <trkpt lat="42.22328" lon="-8.7545">
        <ele>24.459</ele>
        <time>2018-07-28T13:56:52Z</time>
      </trkpt>
      <trkpt lat="42.22328" lon="-8.75462">
        <ele>24.655</ele>
        <time>2018-07-28T13:56:53Z</time>
      </trkpt>
      <trkpt lat="42.22328" lon="-8.75473">
        <ele>24.728</ele>
        <time>2018-07-28T13:56:54Z</time>
      </trkpt>
      <trkpt lat="42.22328" lon="-8.75482">
        <ele>24.789</ele>
        <time>2018-07-28T13:56:55Z</time>
      </trkpt>
      <trkpt lat="42.22328" lon="-8.75488">
        <ele>24.517</ele>
        <time>2018-07-28T13:56:56Z</time>
      </trkpt>
      <trkpt lat="42.2233" lon="-8.75496">
        <ele>23.808</ele>
        <time>2018-07-28T13:56:58Z</time>
      </trkpt>
      <trkpt lat="42.2233" lon="-8.75503">
        <ele>23.344</ele>
        <time>2018-07-28T13:57:00Z</time>
      </trkpt>
      <trkpt lat="42.22329" lon="-8.7551">
        <ele>22.979</ele>
        <time>2018-07-28T13:57:03Z</time>
      </trkpt>
      <trkpt lat="42.2233" lon="-8.75518">
        <ele>22.952</ele>
        <time>2018-07-28T13:57:06Z</time>
      </trkpt>
      <trkpt lat="42.2233" lon="-8.75528">
        <ele>23.074</ele>
        <time>2018-07-28T13:57:08Z</time>
      </trkpt>
      <trkpt lat="42.22329" lon="-8.75539">
        <ele>23.219</ele>
        <time>2018-07-28T13:57:10Z</time>
      </trkpt>
      <trkpt lat="42.22328" lon="-8.75547">
        <ele>23.494</ele>
        <time>2018-07-28T13:57:11Z</time>
      </trkpt>
      <trkpt lat="42.22327" lon="-8.75555">
        <ele>23.772</ele>
        <time>2018-07-28T13:57:12Z</time>
      </trkpt>
      <trkpt lat="42.22326" lon="-8.75565">
        <ele>24.048</ele>
        <time>2018-07-28T13:57:13Z</time>
      </trkpt>
      <trkpt lat="42.22325" lon="-8.75575">
        <ele>24.493</ele>
        <time>2018-07-28T13:57:14Z</time>
      </trkpt>
      <trkpt lat="42.22323" lon="-8.75585">
        <ele>24.965</ele>
        <time>2018-07-28T13:57:15Z</time>
      </trkpt>
      <trkpt lat="42.22321" lon="-8.75596">
        <ele>25.421</ele>
        <time>2018-07-28T13:57:16Z</time>
      </trkpt>
      <trkpt lat="42.22316" lon="-8.75605">
        <ele>26.308</ele>
        <time>2018-07-28T13:57:17Z</time>
      </trkpt>
      <trkpt lat="42.22311" lon="-8.75613">
        <ele>26.731</ele>
        <time>2018-07-28T13:57:18Z</time>
      </trkpt>
      <trkpt lat="42.22305" lon="-8.7562">
        <ele>27.186</ele>
        <time>2018-07-28T13:57:19Z</time>
      </trkpt>
      <trkpt lat="42.223" lon="-8.75626">
        <ele>27.449</ele>
        <time>2018-07-28T13:57:20Z</time>
      </trkpt>
      <trkpt lat="42.22294" lon="-8.75632">
        <ele>27.641</ele>
        <time>2018-07-28T13:57:21Z</time>
      </trkpt>
      <trkpt lat="42.22289" lon="-8.75638">
        <ele>27.836</ele>
        <time>2018-07-28T13:57:22Z</time>
      </trkpt>
      <trkpt lat="42.22284" lon="-8.75644">
        <ele>27.921</ele>
        <time>2018-07-28T13:57:23Z</time>
      </trkpt>
      <trkpt lat="42.22279" lon="-8.75651">
        <ele>28.059</ele>
        <time>2018-07-28T13:57:24Z</time>
      </trkpt>
      <trkpt lat="42.22274" lon="-8.75657">
        <ele>28.295</ele>
        <time>2018-07-28T13:57:25Z</time>
      </trkpt>
      <trkpt lat="42.2227" lon="-8.75663">
        <ele>28.433</ele>
        <time>2018-07-28T13:57:26Z</time>
      </trkpt>
      <trkpt lat="42.22265" lon="-8.75669">
        <ele>28.623</ele>
        <time>2018-07-28T13:57:27Z</time>
      </trkpt>
      <trkpt lat="42.22261" lon="-8.75675">
        <ele>28.815</ele>
        <time>2018-07-28T13:57:28Z</time>
      </trkpt>
      <trkpt lat="42.22257" lon="-8.7568">
        <ele>29.008</ele>
        <time>2018-07-28T13:57:29Z</time>
      </trkpt>
      <trkpt lat="42.22253" lon="-8.75688">
        <ele>29.255</ele>
        <time>2018-07-28T13:57:31Z</time>
      </trkpt>
      <trkpt lat="42.2225" lon="-8.75694">
        <ele>29.36</ele>
        <time>2018-07-28T13:57:33Z</time>
      </trkpt>
      <trkpt lat="42.22253" lon="-8.757">
        <ele>29.073</ele>
        <time>2018-07-28T13:57:38Z</time>
      </trkpt>
      <trkpt lat="42.22248" lon="-8.75705">
        <ele>29.085</ele>
        <time>2018-07-28T13:57:44Z</time>
      </trkpt>
      <trkpt lat="42.22244" lon="-8.75715">
        <ele>29.33</ele>
        <time>2018-07-28T13:57:46Z</time>
      </trkpt>
      <trkpt lat="42.22243" lon="-8.75722">
        <ele>29.745</ele>
        <time>2018-07-28T13:57:48Z</time>
      </trkpt>
      <trkpt lat="42.22243" lon="-8.75731">
        <ele>29.933</ele>
        <time>2018-07-28T13:57:50Z</time>
      </trkpt>
      <trkpt lat="42.22246" lon="-8.75737">
        <ele>29.779</ele>
        <time>2018-07-28T13:57:52Z</time>
      </trkpt>
      <trkpt lat="42.2225" lon="-8.75743">
        <ele>29.232</ele>
        <time>2018-07-28T13:57:54Z</time>
      </trkpt>
      <trkpt lat="42.22253" lon="-8.75751">
        <ele>28.692</ele>
        <time>2018-07-28T13:57:56Z</time>
      </trkpt>
      <trkpt lat="42.22255" lon="-8.75757">
        <ele>28.111</ele>
        <time>2018-07-28T13:57:58Z</time>
      </trkpt>
      <trkpt lat="42.22256" lon="-8.75763">
        <ele>26.808</ele>
        <time>2018-07-28T13:58:12Z</time>
      </trkpt>
      <trkpt lat="42.22257" lon="-8.75769">
        <ele>26.315</ele>
        <time>2018-07-28T13:58:14Z</time>
      </trkpt>
      <trkpt lat="42.22258" lon="-8.7578">
        <ele>25.54</ele>
        <time>2018-07-28T13:58:16Z</time>
      </trkpt>
      <trkpt lat="42.22256" lon="-8.75791">
        <ele>24.693</ele>
        <time>2018-07-28T13:58:18Z</time>
      </trkpt>
      <trkpt lat="42.22254" lon="-8.758">
        <ele>23.795</ele>
        <time>2018-07-28T13:58:20Z</time>
      </trkpt>
      <trkpt lat="42.22256" lon="-8.7581">
        <ele>22.96</ele>
        <time>2018-07-28T13:58:22Z</time>
      </trkpt>
      <trkpt lat="42.22259" lon="-8.75815">
        <ele>22.665</ele>
        <time>2018-07-28T13:58:23Z</time>
      </trkpt>
      <trkpt lat="42.22266" lon="-8.75821">
        <ele>22.053</ele>
        <time>2018-07-28T13:58:25Z</time>
      </trkpt>
      <trkpt lat="42.22274" lon="-8.75827">
        <ele>21.249</ele>
        <time>2018-07-28T13:58:27Z</time>
      </trkpt>
      <trkpt lat="42.22278" lon="-8.7583">
        <ele>20.971</ele>
        <time>2018-07-28T13:58:28Z</time>
      </trkpt>
      <trkpt lat="42.22283" lon="-8.75832">
        <ele>20.641</ele>
        <time>2018-07-28T13:58:29Z</time>
      </trkpt>
      <trkpt lat="42.22291" lon="-8.75837">
        <ele>19.715</ele>
        <time>2018-07-28T13:58:31Z</time>
      </trkpt>
      <trkpt lat="42.22298" lon="-8.75841">
        <ele>18.708</ele>
        <time>2018-07-28T13:58:33Z</time>
      </trkpt>
      <trkpt lat="42.22304" lon="-8.75846">
        <ele>17.649</ele>
        <time>2018-07-28T13:58:35Z</time>
      </trkpt>
      <trkpt lat="42.22309" lon="-8.75851">
        <ele>16.624</ele>
        <time>2018-07-28T13:58:37Z</time>
      </trkpt>
      <trkpt lat="42.22309" lon="-8.75857">
        <ele>15.637</ele>
        <time>2018-07-28T13:58:40Z</time>
      </trkpt>
      <trkpt lat="42.22302" lon="-8.75858">
        <ele>15.339</ele>
        <time>2018-07-28T13:58:42Z</time>
      </trkpt>
      <trkpt lat="42.22297" lon="-8.75854">
        <ele>15.524</ele>
        <time>2018-07-28T13:58:43Z</time>
      </trkpt>
      <trkpt lat="42.2229" lon="-8.7585">
        <ele>15.999</ele>
        <time>2018-07-28T13:58:44Z</time>
      </trkpt>
      <trkpt lat="42.22283" lon="-8.75845">
        <ele>16.617</ele>
        <time>2018-07-28T13:58:45Z</time>
      </trkpt>
      <trkpt lat="42.22276" lon="-8.75841">
        <ele>17.473</ele>
        <time>2018-07-28T13:58:46Z</time>
      </trkpt>
      <trkpt lat="42.22268" lon="-8.75837">
        <ele>18.324</ele>
        <time>2018-07-28T13:58:47Z</time>
      </trkpt>
      <trkpt lat="42.22262" lon="-8.75834">
        <ele>19.204</ele>
        <time>2018-07-28T13:58:48Z</time>
      </trkpt>
      <trkpt lat="42.22257" lon="-8.75832">
        <ele>19.914</ele>
        <time>2018-07-28T13:58:49Z</time>
      </trkpt>
      <trkpt lat="42.22251" lon="-8.75829">
        <ele>20.808</ele>
        <time>2018-07-28T13:58:51Z</time>
      </trkpt>
      <trkpt lat="42.22248" lon="-8.75824">
        <ele>21.294</ele>
        <time>2018-07-28T13:58:53Z</time>
      </trkpt>
      <trkpt lat="42.22249" lon="-8.75812">
        <ele>21.729</ele>
        <time>2018-07-28T13:58:55Z</time>
      </trkpt>
      <trkpt lat="42.22248" lon="-8.75802">
        <ele>22.132</ele>
        <time>2018-07-28T13:58:56Z</time>
      </trkpt>
      <trkpt lat="42.2225" lon="-8.75792">
        <ele>22.574</ele>
        <time>2018-07-28T13:58:57Z</time>
      </trkpt>
      <trkpt lat="42.22251" lon="-8.75782">
        <ele>23.019</ele>
        <time>2018-07-28T13:58:58Z</time>
      </trkpt>
      <trkpt lat="42.22252" lon="-8.75774">
        <ele>23.664</ele>
        <time>2018-07-28T13:58:59Z</time>
      </trkpt>
      <trkpt lat="42.22251" lon="-8.75767">
        <ele>24.232</ele>
        <time>2018-07-28T13:59:00Z</time>
      </trkpt>
      <trkpt lat="42.22249" lon="-8.7576">
        <ele>25.598</ele>
        <time>2018-07-28T13:59:01Z</time>
      </trkpt>
      <trkpt lat="42.22246" lon="-8.75754">
        <ele>26.238</ele>
        <time>2018-07-28T13:59:02Z</time>
      </trkpt>
      <trkpt lat="42.22241" lon="-8.7575">
        <ele>26.97</ele>
        <time>2018-07-28T13:59:03Z</time>
      </trkpt>
      <trkpt lat="42.22236" lon="-8.7575">
        <ele>27.517</ele>
        <time>2018-07-28T13:59:04Z</time>
      </trkpt>
      <trkpt lat="42.22231" lon="-8.75752">
        <ele>28.208</ele>
        <time>2018-07-28T13:59:05Z</time>
      </trkpt>
      <trkpt lat="42.22226" lon="-8.75753">
        <ele>28.835</ele>
        <time>2018-07-28T13:59:06Z</time>
      </trkpt>
      <trkpt lat="42.22222" lon="-8.75755">
        <ele>29.38</ele>
        <time>2018-07-28T13:59:07Z</time>
      </trkpt>
      <trkpt lat="42.22217" lon="-8.75757">
        <ele>29.863</ele>
        <time>2018-07-28T13:59:08Z</time>
      </trkpt>
      <trkpt lat="42.22212" lon="-8.75759">
        <ele>30.255</ele>
        <time>2018-07-28T13:59:09Z</time>
      </trkpt>
      <trkpt lat="42.22204" lon="-8.75762">
        <ele>30.66</ele>
        <time>2018-07-28T13:59:11Z</time>
      </trkpt>
      <trkpt lat="42.22196" lon="-8.75758">
        <ele>30.835</ele>
        <time>2018-07-28T13:59:13Z</time>
      </trkpt>
      <trkpt lat="42.22193" lon="-8.75752">
        <ele>31.063</ele>
        <time>2018-07-28T13:59:14Z</time>
      </trkpt>
      <trkpt lat="42.22192" lon="-8.75744">
        <ele>31.259</ele>
        <time>2018-07-28T13:59:15Z</time>
      </trkpt>
      <trkpt lat="42.22192" lon="-8.75737">
        <ele>31.439</ele>
        <time>2018-07-28T13:59:16Z</time>
      </trkpt>
      <trkpt lat="42.22194" lon="-8.7573">
        <ele>31.501</ele>
        <time>2018-07-28T13:59:17Z</time>
      </trkpt>
      <trkpt lat="42.22196" lon="-8.75724">
        <ele>31.521</ele>
        <time>2018-07-28T13:59:18Z</time>
      </trkpt>
      <trkpt lat="42.22199" lon="-8.75718">
        <ele>31.408</ele>
        <time>2018-07-28T13:59:19Z</time>
      </trkpt>
      <trkpt lat="42.22203" lon="-8.75713">
        <ele>31.355</ele>
        <time>2018-07-28T13:59:20Z</time>
      </trkpt>
      <trkpt lat="42.22207" lon="-8.75709">
        <ele>31.21</ele>
        <time>2018-07-28T13:59:21Z</time>
      </trkpt>
      <trkpt lat="42.22211" lon="-8.75704">
        <ele>31.113</ele>
        <time>2018-07-28T13:59:22Z</time>
      </trkpt>
      <trkpt lat="42.22215" lon="-8.75701">
        <ele>31.075</ele>
        <time>2018-07-28T13:59:23Z</time>
      </trkpt>
      <trkpt lat="42.2222" lon="-8.75701">
        <ele>30.89</ele>
        <time>2018-07-28T13:59:24Z</time>
      </trkpt>
      <trkpt lat="42.22228" lon="-8.75702">
        <ele>30.385</ele>
        <time>2018-07-28T13:59:26Z</time>
      </trkpt>
      <trkpt lat="42.22236" lon="-8.75702">
        <ele>29.813</ele>
        <time>2018-07-28T13:59:28Z</time>
      </trkpt>
      <trkpt lat="42.2224" lon="-8.757">
        <ele>29.679</ele>
        <time>2018-07-28T13:59:29Z</time>
      </trkpt>
      <trkpt lat="42.22243" lon="-8.75694">
        <ele>29.443</ele>
        <time>2018-07-28T13:59:30Z</time>
      </trkpt>
      <trkpt lat="42.22249" lon="-8.75686">
        <ele>29.064</ele>
        <time>2018-07-28T13:59:32Z</time>
      </trkpt>
      <trkpt lat="42.22254" lon="-8.75679">
        <ele>28.61</ele>
        <time>2018-07-28T13:59:34Z</time>
      </trkpt>
      <trkpt lat="42.2226" lon="-8.75671">
        <ele>28.108</ele>
        <time>2018-07-28T13:59:36Z</time>
      </trkpt>
      <trkpt lat="42.22266" lon="-8.75664">
        <ele>27.896</ele>
        <time>2018-07-28T13:59:38Z</time>
      </trkpt>
      <trkpt lat="42.22273" lon="-8.75656">
        <ele>27.671</ele>
        <time>2018-07-28T13:59:40Z</time>
      </trkpt>
      <trkpt lat="42.22277" lon="-8.75652">
        <ele>27.594</ele>
        <time>2018-07-28T13:59:41Z</time>
      </trkpt>
      <trkpt lat="42.22281" lon="-8.75647">
        <ele>27.516</ele>
        <time>2018-07-28T13:59:42Z</time>
      </trkpt>
      <trkpt lat="42.22286" lon="-8.75641">
        <ele>27.571</ele>
        <time>2018-07-28T13:59:43Z</time>
      </trkpt>
      <trkpt lat="42.22292" lon="-8.75634">
        <ele>27.516</ele>
        <time>2018-07-28T13:59:44Z</time>
      </trkpt>
      <trkpt lat="42.22298" lon="-8.75627">
        <ele>27.494</ele>
        <time>2018-07-28T13:59:45Z</time>
      </trkpt>
      <trkpt lat="42.22304" lon="-8.75621">
        <ele>27.23</ele>
        <time>2018-07-28T13:59:46Z</time>
      </trkpt>
      <trkpt lat="42.22308" lon="-8.75615">
        <ele>26.959</ele>
        <time>2018-07-28T13:59:47Z</time>
      </trkpt>
      <trkpt lat="42.22311" lon="-8.7561">
        <ele>26.603</ele>
        <time>2018-07-28T13:59:48Z</time>
      </trkpt>
      <trkpt lat="42.22314" lon="-8.75604">
        <ele>26.223</ele>
        <time>2018-07-28T13:59:49Z</time>
      </trkpt>
      <trkpt lat="42.22317" lon="-8.75597">
        <ele>25.908</ele>
        <time>2018-07-28T13:59:50Z</time>
      </trkpt>
      <trkpt lat="42.2232" lon="-8.7559">
        <ele>25.797</ele>
        <time>2018-07-28T13:59:51Z</time>
      </trkpt>
      <trkpt lat="42.22324" lon="-8.75582">
        <ele>25.572</ele>
        <time>2018-07-28T13:59:52Z</time>
      </trkpt>
      <trkpt lat="42.22326" lon="-8.75574">
        <ele>25.335</ele>
        <time>2018-07-28T13:59:53Z</time>
      </trkpt>
      <trkpt lat="42.22328" lon="-8.75564">
        <ele>25.367</ele>
        <time>2018-07-28T13:59:54Z</time>
      </trkpt>
      <trkpt lat="42.22329" lon="-8.75556">
        <ele>25.232</ele>
        <time>2018-07-28T13:59:55Z</time>
      </trkpt>
      <trkpt lat="42.22331" lon="-8.75546">
        <ele>24.787</ele>
        <time>2018-07-28T13:59:57Z</time>
      </trkpt>
      <trkpt lat="42.22331" lon="-8.75536">
        <ele>23.915</ele>
        <time>2018-07-28T13:59:59Z</time>
      </trkpt>
      <trkpt lat="42.22333" lon="-8.75525">
        <ele>23.471</ele>
        <time>2018-07-28T14:00:01Z</time>
      </trkpt>
      <trkpt lat="42.22333" lon="-8.75516">
        <ele>23.467</ele>
        <time>2018-07-28T14:00:02Z</time>
      </trkpt>
      <trkpt lat="42.22333" lon="-8.75505">
        <ele>23.581</ele>
        <time>2018-07-28T14:00:03Z</time>
      </trkpt>
      <trkpt lat="42.22333" lon="-8.75493">
        <ele>23.719</ele>
        <time>2018-07-28T14:00:04Z</time>
      </trkpt>
      <trkpt lat="42.22331" lon="-8.7548">
        <ele>23.808</ele>
        <time>2018-07-28T14:00:05Z</time>
      </trkpt>
      <trkpt lat="42.22331" lon="-8.75466">
        <ele>23.978</ele>
        <time>2018-07-28T14:00:06Z</time>
      </trkpt>
      <trkpt lat="42.22331" lon="-8.75453">
        <ele>23.963</ele>
        <time>2018-07-28T14:00:07Z</time>
      </trkpt>
      <trkpt lat="42.2233" lon="-8.75441">
        <ele>23.856</ele>
        <time>2018-07-28T14:00:08Z</time>
      </trkpt>
      <trkpt lat="42.22329" lon="-8.75428">
        <ele>23.628</ele>
        <time>2018-07-28T14:00:09Z</time>
      </trkpt>
      <trkpt lat="42.22327" lon="-8.75416">
        <ele>23.273</ele>
        <time>2018-07-28T14:00:10Z</time>
      </trkpt>
      <trkpt lat="42.22323" lon="-8.75404">
        <ele>23.158</ele>
        <time>2018-07-28T14:00:11Z</time>
      </trkpt>
      <trkpt lat="42.22318" lon="-8.75391">
        <ele>23.056</ele>
        <time>2018-07-28T14:00:12Z</time>
      </trkpt>
      <trkpt lat="42.22312" lon="-8.75378">
        <ele>22.922</ele>
        <time>2018-07-28T14:00:13Z</time>
      </trkpt>
      <trkpt lat="42.22304" lon="-8.75367">
        <ele>22.997</ele>
        <time>2018-07-28T14:00:14Z</time>
      </trkpt>
      <trkpt lat="42.22295" lon="-8.75357">
        <ele>22.623</ele>
        <time>2018-07-28T14:00:15Z</time>
      </trkpt>
      <trkpt lat="42.22285" lon="-8.75348">
        <ele>22.225</ele>
        <time>2018-07-28T14:00:16Z</time>
      </trkpt>
      <trkpt lat="42.22276" lon="-8.7534">
        <ele>21.608</ele>
        <time>2018-07-28T14:00:17Z</time>
      </trkpt>
      <trkpt lat="42.22269" lon="-8.75334">
        <ele>20.921</ele>
        <time>2018-07-28T14:00:18Z</time>
      </trkpt>
      <trkpt lat="42.22264" lon="-8.75329">
        <ele>20.066</ele>
        <time>2018-07-28T14:00:19Z</time>
      </trkpt>
      <trkpt lat="42.22259" lon="-8.75324">
        <ele>19.189</ele>
        <time>2018-07-28T14:00:20Z</time>
      </trkpt>
      <trkpt lat="42.22253" lon="-8.75318">
        <ele>17.421</ele>
        <time>2018-07-28T14:00:22Z</time>
      </trkpt>
      <trkpt lat="42.22248" lon="-8.75312">
        <ele>16.356</ele>
        <time>2018-07-28T14:00:24Z</time>
      </trkpt>
      <trkpt lat="42.2224" lon="-8.75306">
        <ele>15.861</ele>
        <time>2018-07-28T14:00:26Z</time>
      </trkpt>
      <trkpt lat="42.22235" lon="-8.75303">
        <ele>15.779</ele>
        <time>2018-07-28T14:00:27Z</time>
      </trkpt>
      <trkpt lat="42.22231" lon="-8.75299">
        <ele>15.795</ele>
        <time>2018-07-28T14:00:28Z</time>
      </trkpt>
      <trkpt lat="42.22228" lon="-8.75294">
        <ele>15.693</ele>
        <time>2018-07-28T14:00:29Z</time>
      </trkpt>
      <trkpt lat="42.22229" lon="-8.75285">
        <ele>15.365</ele>
        <time>2018-07-28T14:00:31Z</time>
      </trkpt>
      <trkpt lat="42.22231" lon="-8.75275">
        <ele>14.921</ele>
        <time>2018-07-28T14:00:33Z</time>
      </trkpt>
      <trkpt lat="42.22235" lon="-8.75263">
        <ele>14.608</ele>
        <time>2018-07-28T14:00:35Z</time>
      </trkpt>
      <trkpt lat="42.22237" lon="-8.75255">
        <ele>14.511</ele>
        <time>2018-07-28T14:00:36Z</time>
      </trkpt>
      <trkpt lat="42.2224" lon="-8.75245">
        <ele>14.536</ele>
        <time>2018-07-28T14:00:37Z</time>
      </trkpt>
      <trkpt lat="42.22242" lon="-8.75233">
        <ele>14.439</ele>
        <time>2018-07-28T14:00:38Z</time>
      </trkpt>
      <trkpt lat="42.22245" lon="-8.75221">
        <ele>14.491</ele>
        <time>2018-07-28T14:00:39Z</time>
      </trkpt>
      <trkpt lat="42.22248" lon="-8.75209">
        <ele>14.416</ele>
        <time>2018-07-28T14:00:40Z</time>
      </trkpt>
      <trkpt lat="42.22251" lon="-8.75196">
        <ele>14.421</ele>
        <time>2018-07-28T14:00:41Z</time>
      </trkpt>
      <trkpt lat="42.22255" lon="-8.75183">
        <ele>14.579</ele>
        <time>2018-07-28T14:00:42Z</time>
      </trkpt>
      <trkpt lat="42.22257" lon="-8.75171">
        <ele>14.565</ele>
        <time>2018-07-28T14:00:43Z</time>
      </trkpt>
      <trkpt lat="42.22259" lon="-8.7516">
        <ele>14.531</ele>
        <time>2018-07-28T14:00:44Z</time>
      </trkpt>
      <trkpt lat="42.22262" lon="-8.75149">
        <ele>14.361</ele>
        <time>2018-07-28T14:00:45Z</time>
      </trkpt>
      <trkpt lat="42.22265" lon="-8.75139">
        <ele>14.107</ele>
        <time>2018-07-28T14:00:46Z</time>
      </trkpt>
      <trkpt lat="42.22268" lon="-8.75128">
        <ele>13.908</ele>
        <time>2018-07-28T14:00:47Z</time>
      </trkpt>
      <trkpt lat="42.2227" lon="-8.75119">
        <ele>13.795</ele>
        <time>2018-07-28T14:00:48Z</time>
      </trkpt>
      <trkpt lat="42.22272" lon="-8.75111">
        <ele>13.51</ele>
        <time>2018-07-28T14:00:49Z</time>
      </trkpt>
      <trkpt lat="42.22274" lon="-8.75103">
        <ele>13.363</ele>
        <time>2018-07-28T14:00:50Z</time>
      </trkpt>
      <trkpt lat="42.22275" lon="-8.75095">
        <ele>13.085</ele>
        <time>2018-07-28T14:00:51Z</time>
      </trkpt>
      <trkpt lat="42.22277" lon="-8.75088">
        <ele>12.79</ele>
        <time>2018-07-28T14:00:52Z</time>
      </trkpt>
      <trkpt lat="42.22279" lon="-8.7508">
        <ele>12.475</ele>
        <time>2018-07-28T14:00:53Z</time>
      </trkpt>
      <trkpt lat="42.22281" lon="-8.75072">
        <ele>12.233</ele>
        <time>2018-07-28T14:00:54Z</time>
      </trkpt>
      <trkpt lat="42.22283" lon="-8.75064">
        <ele>12.299</ele>
        <time>2018-07-28T14:00:55Z</time>
      </trkpt>
      <trkpt lat="42.22286" lon="-8.75053">
        <ele>12.451</ele>
        <time>2018-07-28T14:00:56Z</time>
      </trkpt>
      <trkpt lat="42.22289" lon="-8.75042">
        <ele>12.601</ele>
        <time>2018-07-28T14:00:57Z</time>
      </trkpt>
      <trkpt lat="42.22292" lon="-8.7503">
        <ele>12.811</ele>
        <time>2018-07-28T14:00:58Z</time>
      </trkpt>
      <trkpt lat="42.22295" lon="-8.75016">
        <ele>13.108</ele>
        <time>2018-07-28T14:00:59Z</time>
      </trkpt>
      <trkpt lat="42.223" lon="-8.75005">
        <ele>13.397</ele>
        <time>2018-07-28T14:01:00Z</time>
      </trkpt>
      <trkpt lat="42.22306" lon="-8.74994">
        <ele>13.452</ele>
        <time>2018-07-28T14:01:01Z</time>
      </trkpt>
      <trkpt lat="42.22312" lon="-8.74985">
        <ele>13.885</ele>
        <time>2018-07-28T14:01:02Z</time>
      </trkpt>
      <trkpt lat="42.22318" lon="-8.74975">
        <ele>13.927</ele>
        <time>2018-07-28T14:01:03Z</time>
      </trkpt>
      <trkpt lat="42.22323" lon="-8.74967">
        <ele>13.922</ele>
        <time>2018-07-28T14:01:04Z</time>
      </trkpt>
      <trkpt lat="42.22327" lon="-8.74959">
        <ele>13.737</ele>
        <time>2018-07-28T14:01:05Z</time>
      </trkpt>
      <trkpt lat="42.22331" lon="-8.74952">
        <ele>13.565</ele>
        <time>2018-07-28T14:01:06Z</time>
      </trkpt>
      <trkpt lat="42.22334" lon="-8.74945">
        <ele>13.241</ele>
        <time>2018-07-28T14:01:07Z</time>
      </trkpt>
      <trkpt lat="42.22336" lon="-8.7494">
        <ele>12.973</ele>
        <time>2018-07-28T14:01:08Z</time>
      </trkpt>
      <trkpt lat="42.2234" lon="-8.74932">
        <ele>12.685</ele>
        <time>2018-07-28T14:01:10Z</time>
      </trkpt>
      <trkpt lat="42.22342" lon="-8.74927">
        <ele>12.413</ele>
        <time>2018-07-28T14:01:12Z</time>
      </trkpt>
      <trkpt lat="42.22347" lon="-8.74935">
        <ele>12.208</ele>
        <time>2018-07-28T14:01:24Z</time>
      </trkpt>
      <trkpt lat="42.22348" lon="-8.74944">
        <ele>12.379</ele>
        <time>2018-07-28T14:01:25Z</time>
      </trkpt>
      <trkpt lat="42.22349" lon="-8.74952">
        <ele>12.464</ele>
        <time>2018-07-28T14:01:26Z</time>
      </trkpt>
      <trkpt lat="42.2235" lon="-8.74961">
        <ele>12.457</ele>
        <time>2018-07-28T14:01:27Z</time>
      </trkpt>
      <trkpt lat="42.22351" lon="-8.74969">
        <ele>12.339</ele>
        <time>2018-07-28T14:01:28Z</time>
      </trkpt>
      <trkpt lat="42.22353" lon="-8.74977">
        <ele>12.214</ele>
        <time>2018-07-28T14:01:29Z</time>
      </trkpt>
      <trkpt lat="42.22355" lon="-8.74985">
        <ele>12.069</ele>
        <time>2018-07-28T14:01:30Z</time>
      </trkpt>
      <trkpt lat="42.22357" lon="-8.74993">
        <ele>11.717</ele>
        <time>2018-07-28T14:01:31Z</time>
      </trkpt>
      <trkpt lat="42.22358" lon="-8.75">
        <ele>11.423</ele>
        <time>2018-07-28T14:01:32Z</time>
      </trkpt>
      <trkpt lat="42.2236" lon="-8.75008">
        <ele>11.188</ele>
        <time>2018-07-28T14:01:33Z</time>
      </trkpt>
      <trkpt lat="42.22363" lon="-8.75015">
        <ele>10.724</ele>
        <time>2018-07-28T14:01:34Z</time>
      </trkpt>
      <trkpt lat="42.22364" lon="-8.75023">
        <ele>10.326</ele>
        <time>2018-07-28T14:01:35Z</time>
      </trkpt>
      <trkpt lat="42.22367" lon="-8.75031">
        <ele>10.108</ele>
        <time>2018-07-28T14:01:36Z</time>
      </trkpt>
      <trkpt lat="42.22369" lon="-8.75037">
        <ele>9.84</ele>
        <time>2018-07-28T14:01:37Z</time>
      </trkpt>
      <trkpt lat="42.22371" lon="-8.75044">
        <ele>9.465</ele>
        <time>2018-07-28T14:01:38Z</time>
      </trkpt>
      <trkpt lat="42.22373" lon="-8.75051">
        <ele>9.278</ele>
        <time>2018-07-28T14:01:39Z</time>
      </trkpt>
      <trkpt lat="42.22375" lon="-8.75058">
        <ele>9.08</ele>
        <time>2018-07-28T14:01:40Z</time>
      </trkpt>
      <trkpt lat="42.22377" lon="-8.75067">
        <ele>8.955</ele>
        <time>2018-07-28T14:01:41Z</time>
      </trkpt>
      <trkpt lat="42.2238" lon="-8.75076">
        <ele>8.97</ele>
        <time>2018-07-28T14:01:42Z</time>
      </trkpt>
      <trkpt lat="42.22382" lon="-8.75086">
        <ele>8.988</ele>
        <time>2018-07-28T14:01:43Z</time>
      </trkpt>
      <trkpt lat="42.22385" lon="-8.75097">
        <ele>8.894</ele>
        <time>2018-07-28T14:01:44Z</time>
      </trkpt>
      <trkpt lat="42.22387" lon="-8.75107">
        <ele>8.785</ele>
        <time>2018-07-28T14:01:45Z</time>
      </trkpt>
      <trkpt lat="42.22389" lon="-8.75117">
        <ele>8.589</ele>
        <time>2018-07-28T14:01:46Z</time>
      </trkpt>
      <trkpt lat="42.22391" lon="-8.75128">
        <ele>8.317</ele>
        <time>2018-07-28T14:01:47Z</time>
      </trkpt>
      <trkpt lat="42.22394" lon="-8.75138">
        <ele>8.208</ele>
        <time>2018-07-28T14:01:48Z</time>
      </trkpt>
      <trkpt lat="42.22397" lon="-8.75148">
        <ele>8.12</ele>
        <time>2018-07-28T14:01:49Z</time>
      </trkpt>
      <trkpt lat="42.224" lon="-8.75158">
        <ele>8.175</ele>
        <time>2018-07-28T14:01:50Z</time>
      </trkpt>
      <trkpt lat="42.22401" lon="-8.75166">
        <ele>8.118</ele>
        <time>2018-07-28T14:01:51Z</time>
      </trkpt>
      <trkpt lat="42.22403" lon="-8.75172">
        <ele>8.14</ele>
        <time>2018-07-28T14:01:52Z</time>
      </trkpt>
      <trkpt lat="42.22405" lon="-8.75179">
        <ele>7.715</ele>
        <time>2018-07-28T14:01:54Z</time>
      </trkpt>
      <trkpt lat="42.22406" lon="-8.75185">
        <ele>6.57</ele>
        <time>2018-07-28T14:01:57Z</time>
      </trkpt>
      <trkpt lat="42.22407" lon="-8.75191">
        <ele>6.328</ele>
        <time>2018-07-28T14:02:00Z</time>
      </trkpt>
      <trkpt lat="42.2241" lon="-8.75197">
        <ele>6.424</ele>
        <time>2018-07-28T14:02:03Z</time>
      </trkpt>
      <trkpt lat="42.22413" lon="-8.7521">
        <ele>6.748</ele>
        <time>2018-07-28T14:02:05Z</time>
      </trkpt>
      <trkpt lat="42.22415" lon="-8.7522">
        <ele>7.161</ele>
        <time>2018-07-28T14:02:06Z</time>
      </trkpt>
      <trkpt lat="42.22419" lon="-8.7523">
        <ele>7.617</ele>
        <time>2018-07-28T14:02:07Z</time>
      </trkpt>
      <trkpt lat="42.22422" lon="-8.75241">
        <ele>7.908</ele>
        <time>2018-07-28T14:02:08Z</time>
      </trkpt>
      <trkpt lat="42.22424" lon="-8.75249">
        <ele>8.226</ele>
        <time>2018-07-28T14:02:09Z</time>
      </trkpt>
      <trkpt lat="42.22427" lon="-8.75257">
        <ele>8.471</ele>
        <time>2018-07-28T14:02:10Z</time>
      </trkpt>
      <trkpt lat="42.22428" lon="-8.75263">
        <ele>8.494</ele>
        <time>2018-07-28T14:02:11Z</time>
      </trkpt>
      <trkpt lat="42.2243" lon="-8.75269">
        <ele>8.436</ele>
        <time>2018-07-28T14:02:12Z</time>
      </trkpt>
      <trkpt lat="42.22433" lon="-8.75278">
        <ele>8.161</ele>
        <time>2018-07-28T14:02:14Z</time>
      </trkpt>
      <trkpt lat="42.22435" lon="-8.75284">
        <ele>7.386</ele>
        <time>2018-07-28T14:02:28Z</time>
      </trkpt>
      <trkpt lat="42.22438" lon="-8.75292">
        <ele>7.534</ele>
        <time>2018-07-28T14:02:30Z</time>
      </trkpt>
      <trkpt lat="42.22437" lon="-8.75299">
        <ele>7.78</ele>
        <time>2018-07-28T14:02:32Z</time>
      </trkpt>
      <trkpt lat="42.22444" lon="-8.753">
        <ele>7.713</ele>
        <time>2018-07-28T14:02:34Z</time>
      </trkpt>
      <trkpt lat="42.22451" lon="-8.75295">
        <ele>7.743</ele>
        <time>2018-07-28T14:02:36Z</time>
      </trkpt>
      <trkpt lat="42.22456" lon="-8.75292">
        <ele>7.207</ele>
        <time>2018-07-28T14:02:42Z</time>
      </trkpt>
      <trkpt lat="42.22463" lon="-8.75286">
        <ele>7.308</ele>
        <time>2018-07-28T14:02:44Z</time>
      </trkpt>
      <trkpt lat="42.2247" lon="-8.75281">
        <ele>7.493</ele>
        <time>2018-07-28T14:02:45Z</time>
      </trkpt>
      <trkpt lat="42.22477" lon="-8.75276">
        <ele>7.468</ele>
        <time>2018-07-28T14:02:46Z</time>
      </trkpt>
      <trkpt lat="42.22483" lon="-8.7527">
        <ele>7.361</ele>
        <time>2018-07-28T14:02:47Z</time>
      </trkpt>
      <trkpt lat="42.2249" lon="-8.75263">
        <ele>7.153</ele>
        <time>2018-07-28T14:02:48Z</time>
      </trkpt>
      <trkpt lat="42.22496" lon="-8.75258">
        <ele>7.098</ele>
        <time>2018-07-28T14:02:49Z</time>
      </trkpt>
      <trkpt lat="42.22502" lon="-8.75253">
        <ele>6.833</ele>
        <time>2018-07-28T14:02:50Z</time>
      </trkpt>
      <trkpt lat="42.22507" lon="-8.75248">
        <ele>6.631</ele>
        <time>2018-07-28T14:02:51Z</time>
      </trkpt>
      <trkpt lat="42.22511" lon="-8.75244">
        <ele>6.427</ele>
        <time>2018-07-28T14:02:52Z</time>
      </trkpt>
      <trkpt lat="42.22516" lon="-8.75234">
        <ele>5.921</ele>
        <time>2018-07-28T14:02:54Z</time>
      </trkpt>
      <trkpt lat="42.22515" lon="-8.75227">
        <ele>5.741</ele>
        <time>2018-07-28T14:02:55Z</time>
      </trkpt>
      <trkpt lat="42.22515" lon="-8.75219">
        <ele>5.605</ele>
        <time>2018-07-28T14:02:56Z</time>
      </trkpt>
      <trkpt lat="42.22514" lon="-8.75209">
        <ele>5.608</ele>
        <time>2018-07-28T14:02:57Z</time>
      </trkpt>
      <trkpt lat="42.22512" lon="-8.75201">
        <ele>5.664</ele>
        <time>2018-07-28T14:02:58Z</time>
      </trkpt>
      <trkpt lat="42.22509" lon="-8.75192">
        <ele>5.749</ele>
        <time>2018-07-28T14:02:59Z</time>
      </trkpt>
      <trkpt lat="42.22505" lon="-8.7518">
        <ele>5.892</ele>
        <time>2018-07-28T14:03:00Z</time>
      </trkpt>
      <trkpt lat="42.22501" lon="-8.75168">
        <ele>6.084</ele>
        <time>2018-07-28T14:03:01Z</time>
      </trkpt>
      <trkpt lat="42.22497" lon="-8.75155">
        <ele>6.219</ele>
        <time>2018-07-28T14:03:02Z</time>
      </trkpt>
      <trkpt lat="42.22493" lon="-8.75143">
        <ele>6.454</ele>
        <time>2018-07-28T14:03:03Z</time>
      </trkpt>
      <trkpt lat="42.22488" lon="-8.7513">
        <ele>6.672</ele>
        <time>2018-07-28T14:03:04Z</time>
      </trkpt>
      <trkpt lat="42.22483" lon="-8.75116">
        <ele>6.858</ele>
        <time>2018-07-28T14:03:05Z</time>
      </trkpt>
      <trkpt lat="42.22479" lon="-8.75102">
        <ele>7.067</ele>
        <time>2018-07-28T14:03:06Z</time>
      </trkpt>
      <trkpt lat="42.22474" lon="-8.75088">
        <ele>7.281</ele>
        <time>2018-07-28T14:03:07Z</time>
      </trkpt>
      <trkpt lat="42.2247" lon="-8.75074">
        <ele>7.319</ele>
        <time>2018-07-28T14:03:08Z</time>
      </trkpt>
      <trkpt lat="42.22467" lon="-8.75059">
        <ele>7.308</ele>
        <time>2018-07-28T14:03:09Z</time>
      </trkpt>
      <trkpt lat="42.22467" lon="-8.75045">
        <ele>7.388</ele>
        <time>2018-07-28T14:03:10Z</time>
      </trkpt>
      <trkpt lat="42.22467" lon="-8.75031">
        <ele>7.223</ele>
        <time>2018-07-28T14:03:11Z</time>
      </trkpt>
      <trkpt lat="42.22468" lon="-8.75017">
        <ele>6.946</ele>
        <time>2018-07-28T14:03:12Z</time>
      </trkpt>
      <trkpt lat="42.2247" lon="-8.75003">
        <ele>6.738</ele>
        <time>2018-07-28T14:03:13Z</time>
      </trkpt>
      <trkpt lat="42.22472" lon="-8.74991">
        <ele>6.663</ele>
        <time>2018-07-28T14:03:14Z</time>
      </trkpt>
      <trkpt lat="42.22473" lon="-8.74978">
        <ele>6.568</ele>
        <time>2018-07-28T14:03:15Z</time>
      </trkpt>
      <trkpt lat="42.22475" lon="-8.74965">
        <ele>6.566</ele>
        <time>2018-07-28T14:03:16Z</time>
      </trkpt>
      <trkpt lat="42.22477" lon="-8.74951">
        <ele>6.552</ele>
        <time>2018-07-28T14:03:17Z</time>
      </trkpt>
      <trkpt lat="42.22478" lon="-8.74938">
        <ele>6.615</ele>
        <time>2018-07-28T14:03:18Z</time>
      </trkpt>
      <trkpt lat="42.22479" lon="-8.74925">
        <ele>6.765</ele>
        <time>2018-07-28T14:03:19Z</time>
      </trkpt>
      <trkpt lat="42.22481" lon="-8.74912">
        <ele>6.811</ele>
        <time>2018-07-28T14:03:20Z</time>
      </trkpt>
      <trkpt lat="42.22482" lon="-8.74898">
        <ele>6.908</ele>
        <time>2018-07-28T14:03:21Z</time>
      </trkpt>
      <trkpt lat="42.22483" lon="-8.74885">
        <ele>7.083</ele>
        <time>2018-07-28T14:03:22Z</time>
      </trkpt>
      <trkpt lat="42.22485" lon="-8.74871">
        <ele>7.058</ele>
        <time>2018-07-28T14:03:23Z</time>
      </trkpt>
      <trkpt lat="42.22487" lon="-8.74856">
        <ele>7.011</ele>
        <time>2018-07-28T14:03:24Z</time>
      </trkpt>
      <trkpt lat="42.22489" lon="-8.7484">
        <ele>7.123</ele>
        <time>2018-07-28T14:03:25Z</time>
      </trkpt>
      <trkpt lat="42.2249" lon="-8.74824">
        <ele>7.288</ele>
        <time>2018-07-28T14:03:26Z</time>
      </trkpt>
      <trkpt lat="42.22492" lon="-8.74809">
        <ele>7.353</ele>
        <time>2018-07-28T14:03:27Z</time>
      </trkpt>
      <trkpt lat="42.22494" lon="-8.74793">
        <ele>7.541</ele>
        <time>2018-07-28T14:03:28Z</time>
      </trkpt>
      <trkpt lat="42.22495" lon="-8.74778">
        <ele>7.657</ele>
        <time>2018-07-28T14:03:29Z</time>
      </trkpt>
      <trkpt lat="42.22498" lon="-8.74763">
        <ele>7.688</ele>
        <time>2018-07-28T14:03:30Z</time>
      </trkpt>
      <trkpt lat="42.225" lon="-8.74748">
        <ele>7.424</ele>
        <time>2018-07-28T14:03:31Z</time>
      </trkpt>
      <trkpt lat="42.22501" lon="-8.74734">
        <ele>7.326</ele>
        <time>2018-07-28T14:03:32Z</time>
      </trkpt>
      <trkpt lat="42.22503" lon="-8.74719">
        <ele>7.208</ele>
        <time>2018-07-28T14:03:33Z</time>
      </trkpt>
      <trkpt lat="42.22505" lon="-8.74704">
        <ele>7.18</ele>
        <time>2018-07-28T14:03:34Z</time>
      </trkpt>
      <trkpt lat="42.22506" lon="-8.74688">
        <ele>7.055</ele>
        <time>2018-07-28T14:03:35Z</time>
      </trkpt>
      <trkpt lat="42.22508" lon="-8.74673">
        <ele>7.068</ele>
        <time>2018-07-28T14:03:36Z</time>
      </trkpt>
      <trkpt lat="42.22511" lon="-8.74658">
        <ele>7.06</ele>
        <time>2018-07-28T14:03:37Z</time>
      </trkpt>
      <trkpt lat="42.22515" lon="-8.74644">
        <ele>6.975</ele>
        <time>2018-07-28T14:03:38Z</time>
      </trkpt>
      <trkpt lat="42.2252" lon="-8.74631">
        <ele>6.99</ele>
        <time>2018-07-28T14:03:39Z</time>
      </trkpt>
      <trkpt lat="42.22524" lon="-8.74617">
        <ele>6.828</ele>
        <time>2018-07-28T14:03:40Z</time>
      </trkpt>
      <trkpt lat="42.22528" lon="-8.74603">
        <ele>6.884</ele>
        <time>2018-07-28T14:03:41Z</time>
      </trkpt>
      <trkpt lat="42.22533" lon="-8.74591">
        <ele>6.886</ele>
        <time>2018-07-28T14:03:42Z</time>
      </trkpt>
      <trkpt lat="42.22538" lon="-8.74579">
        <ele>6.86</ele>
        <time>2018-07-28T14:03:43Z</time>
      </trkpt>
      <trkpt lat="42.22542" lon="-8.74567">
        <ele>6.726</ele>
        <time>2018-07-28T14:03:44Z</time>
      </trkpt>
      <trkpt lat="42.22546" lon="-8.74555">
        <ele>6.508</ele>
        <time>2018-07-28T14:03:45Z</time>
      </trkpt>
      <trkpt lat="42.22551" lon="-8.74542">
        <ele>6.43</ele>
        <time>2018-07-28T14:03:46Z</time>
      </trkpt>
      <trkpt lat="42.22556" lon="-8.74529">
        <ele>6.335</ele>
        <time>2018-07-28T14:03:47Z</time>
      </trkpt>
      <trkpt lat="42.2256" lon="-8.74517">
        <ele>6.358</ele>
        <time>2018-07-28T14:03:48Z</time>
      </trkpt>
      <trkpt lat="42.22565" lon="-8.74506">
        <ele>6.43</ele>
        <time>2018-07-28T14:03:49Z</time>
      </trkpt>
      <trkpt lat="42.22569" lon="-8.74494">
        <ele>6.525</ele>
        <time>2018-07-28T14:03:50Z</time>
      </trkpt>
      <trkpt lat="42.22573" lon="-8.74482">
        <ele>6.65</ele>
        <time>2018-07-28T14:03:51Z</time>
      </trkpt>
      <trkpt lat="42.22577" lon="-8.7447">
        <ele>6.728</ele>
        <time>2018-07-28T14:03:52Z</time>
      </trkpt>
      <trkpt lat="42.22582" lon="-8.74457">
        <ele>6.884</ele>
        <time>2018-07-28T14:03:53Z</time>
      </trkpt>
      <trkpt lat="42.22586" lon="-8.74442">
        <ele>7.066</ele>
        <time>2018-07-28T14:03:54Z</time>
      </trkpt>
      <trkpt lat="42.22588" lon="-8.74426">
        <ele>7.329</ele>
        <time>2018-07-28T14:03:55Z</time>
      </trkpt>
      <trkpt lat="42.22589" lon="-8.74409">
        <ele>7.521</ele>
        <time>2018-07-28T14:03:56Z</time>
      </trkpt>
      <trkpt lat="42.22588" lon="-8.74393">
        <ele>8.108</ele>
        <time>2018-07-28T14:03:57Z</time>
      </trkpt>
      <trkpt lat="42.22587" lon="-8.74378">
        <ele>8.158</ele>
        <time>2018-07-28T14:03:58Z</time>
      </trkpt>
      <trkpt lat="42.22585" lon="-8.74364">
        <ele>8.083</ele>
        <time>2018-07-28T14:03:59Z</time>
      </trkpt>
      <trkpt lat="42.22582" lon="-8.7435">
        <ele>7.686</ele>
        <time>2018-07-28T14:04:00Z</time>
      </trkpt>
      <trkpt lat="42.22577" lon="-8.74338">
        <ele>7.338</ele>
        <time>2018-07-28T14:04:01Z</time>
      </trkpt>
      <trkpt lat="42.22571" lon="-8.74325">
        <ele>7.013</ele>
        <time>2018-07-28T14:04:02Z</time>
      </trkpt>
      <trkpt lat="42.22564" lon="-8.74313">
        <ele>6.988</ele>
        <time>2018-07-28T14:04:03Z</time>
      </trkpt>
      <trkpt lat="42.22557" lon="-8.743">
        <ele>6.956</ele>
        <time>2018-07-28T14:04:04Z</time>
      </trkpt>
      <trkpt lat="42.22549" lon="-8.74287">
        <ele>7.232</ele>
        <time>2018-07-28T14:04:05Z</time>
      </trkpt>
      <trkpt lat="42.22542" lon="-8.74274">
        <ele>7.352</ele>
        <time>2018-07-28T14:04:06Z</time>
      </trkpt>
      <trkpt lat="42.22535" lon="-8.74261">
        <ele>7.453</ele>
        <time>2018-07-28T14:04:07Z</time>
      </trkpt>
      <trkpt lat="42.22528" lon="-8.74249">
        <ele>7.408</ele>
        <time>2018-07-28T14:04:08Z</time>
      </trkpt>
      <trkpt lat="42.22521" lon="-8.74237">
        <ele>7.408</ele>
        <time>2018-07-28T14:04:09Z</time>
      </trkpt>
      <trkpt lat="42.22515" lon="-8.74225">
        <ele>7.337</ele>
        <time>2018-07-28T14:04:10Z</time>
      </trkpt>
      <trkpt lat="42.22509" lon="-8.74213">
        <ele>7.262</ele>
        <time>2018-07-28T14:04:11Z</time>
      </trkpt>
      <trkpt lat="42.22504" lon="-8.74201">
        <ele>7.285</ele>
        <time>2018-07-28T14:04:12Z</time>
      </trkpt>
      <trkpt lat="42.22501" lon="-8.7419">
        <ele>7.187</ele>
        <time>2018-07-28T14:04:13Z</time>
      </trkpt>
      <trkpt lat="42.22498" lon="-8.7418">
        <ele>7.082</ele>
        <time>2018-07-28T14:04:14Z</time>
      </trkpt>
      <trkpt lat="42.22495" lon="-8.74169">
        <ele>6.917</ele>
        <time>2018-07-28T14:04:15Z</time>
      </trkpt>
      <trkpt lat="42.22493" lon="-8.74158">
        <ele>6.815</ele>
        <time>2018-07-28T14:04:16Z</time>
      </trkpt>
      <trkpt lat="42.22492" lon="-8.74148">
        <ele>6.891</ele>
        <time>2018-07-28T14:04:17Z</time>
      </trkpt>
      <trkpt lat="42.22492" lon="-8.74136">
        <ele>6.974</ele>
        <time>2018-07-28T14:04:18Z</time>
      </trkpt>
      <trkpt lat="42.22493" lon="-8.74125">
        <ele>7.056</ele>
        <time>2018-07-28T14:04:19Z</time>
      </trkpt>
      <trkpt lat="42.22494" lon="-8.74114">
        <ele>7.121</ele>
        <time>2018-07-28T14:04:20Z</time>
      </trkpt>
      <trkpt lat="42.22496" lon="-8.74103">
        <ele>7.308</ele>
        <time>2018-07-28T14:04:21Z</time>
      </trkpt>
      <trkpt lat="42.225" lon="-8.74091">
        <ele>7.579</ele>
        <time>2018-07-28T14:04:22Z</time>
      </trkpt>
      <trkpt lat="42.22504" lon="-8.74079">
        <ele>7.624</ele>
        <time>2018-07-28T14:04:23Z</time>
      </trkpt>
      <trkpt lat="42.22509" lon="-8.74066">
        <ele>7.947</ele>
        <time>2018-07-28T14:04:24Z</time>
      </trkpt>
      <trkpt lat="42.22514" lon="-8.74053">
        <ele>8.389</ele>
        <time>2018-07-28T14:04:25Z</time>
      </trkpt>
      <trkpt lat="42.2252" lon="-8.7404">
        <ele>8.644</ele>
        <time>2018-07-28T14:04:26Z</time>
      </trkpt>
      <trkpt lat="42.22525" lon="-8.74028">
        <ele>9.079</ele>
        <time>2018-07-28T14:04:27Z</time>
      </trkpt>
      <trkpt lat="42.2253" lon="-8.74016">
        <ele>9.437</ele>
        <time>2018-07-28T14:04:28Z</time>
      </trkpt>
      <trkpt lat="42.22536" lon="-8.74004">
        <ele>9.483</ele>
        <time>2018-07-28T14:04:29Z</time>
      </trkpt>
      <trkpt lat="42.22542" lon="-8.73992">
        <ele>9.446</ele>
        <time>2018-07-28T14:04:30Z</time>
      </trkpt>
      <trkpt lat="42.22548" lon="-8.73979">
        <ele>9.188</ele>
        <time>2018-07-28T14:04:31Z</time>
      </trkpt>
      <trkpt lat="42.22554" lon="-8.73968">
        <ele>8.816</ele>
        <time>2018-07-28T14:04:32Z</time>
      </trkpt>
      <trkpt lat="42.22561" lon="-8.73957">
        <ele>8.508</ele>
        <time>2018-07-28T14:04:33Z</time>
      </trkpt>
      <trkpt lat="42.22566" lon="-8.73945">
        <ele>8.766</ele>
        <time>2018-07-28T14:04:34Z</time>
      </trkpt>
      <trkpt lat="42.22573" lon="-8.73934">
        <ele>9.091</ele>
        <time>2018-07-28T14:04:35Z</time>
      </trkpt>
      <trkpt lat="42.22579" lon="-8.73923">
        <ele>9.034</ele>
        <time>2018-07-28T14:04:36Z</time>
      </trkpt>
      <trkpt lat="42.22586" lon="-8.73911">
        <ele>9.046</ele>
        <time>2018-07-28T14:04:37Z</time>
      </trkpt>
      <trkpt lat="42.22595" lon="-8.73901">
        <ele>8.951</ele>
        <time>2018-07-28T14:04:38Z</time>
      </trkpt>
      <trkpt lat="42.22602" lon="-8.73891">
        <ele>8.676</ele>
        <time>2018-07-28T14:04:39Z</time>
      </trkpt>
      <trkpt lat="42.22608" lon="-8.73881">
        <ele>8.254</ele>
        <time>2018-07-28T14:04:40Z</time>
      </trkpt>
      <trkpt lat="42.22614" lon="-8.73873">
        <ele>8.02</ele>
        <time>2018-07-28T14:04:41Z</time>
      </trkpt>
      <trkpt lat="42.22619" lon="-8.73865">
        <ele>7.747</ele>
        <time>2018-07-28T14:04:42Z</time>
      </trkpt>
      <trkpt lat="42.22625" lon="-8.73859">
        <ele>7.429</ele>
        <time>2018-07-28T14:04:43Z</time>
      </trkpt>
      <trkpt lat="42.22629" lon="-8.73853">
        <ele>7.221</ele>
        <time>2018-07-28T14:04:44Z</time>
      </trkpt>
      <trkpt lat="42.22634" lon="-8.73848">
        <ele>7.008</ele>
        <time>2018-07-28T14:04:45Z</time>
      </trkpt>
      <trkpt lat="42.22638" lon="-8.73842">
        <ele>6.866</ele>
        <time>2018-07-28T14:04:46Z</time>
      </trkpt>
      <trkpt lat="42.22642" lon="-8.73837">
        <ele>6.741</ele>
        <time>2018-07-28T14:04:47Z</time>
      </trkpt>
      <trkpt lat="42.22646" lon="-8.73832">
        <ele>6.774</ele>
        <time>2018-07-28T14:04:48Z</time>
      </trkpt>
      <trkpt lat="42.2265" lon="-8.73827">
        <ele>6.636</ele>
        <time>2018-07-28T14:04:49Z</time>
      </trkpt>
      <trkpt lat="42.22655" lon="-8.73822">
        <ele>6.581</ele>
        <time>2018-07-28T14:04:50Z</time>
      </trkpt>
      <trkpt lat="42.22658" lon="-8.73815">
        <ele>6.396</ele>
        <time>2018-07-28T14:04:51Z</time>
      </trkpt>
      <trkpt lat="42.22662" lon="-8.73809">
        <ele>6.134</ele>
        <time>2018-07-28T14:04:52Z</time>
      </trkpt>
      <trkpt lat="42.22665" lon="-8.73804">
        <ele>5.94</ele>
        <time>2018-07-28T14:04:53Z</time>
      </trkpt>
      <trkpt lat="42.22669" lon="-8.73798">
        <ele>5.674</ele>
        <time>2018-07-28T14:04:55Z</time>
      </trkpt>
      <trkpt lat="42.22673" lon="-8.73791">
        <ele>5.756</ele>
        <time>2018-07-28T14:04:57Z</time>
      </trkpt>
      <trkpt lat="42.22676" lon="-8.73779">
        <ele>5.921</ele>
        <time>2018-07-28T14:04:59Z</time>
      </trkpt>
      <trkpt lat="42.2268" lon="-8.73774">
        <ele>6.008</ele>
        <time>2018-07-28T14:05:00Z</time>
      </trkpt>
      <trkpt lat="42.22683" lon="-8.73769">
        <ele>6.259</ele>
        <time>2018-07-28T14:05:01Z</time>
      </trkpt>
      <trkpt lat="42.22689" lon="-8.73768">
        <ele>6.434</ele>
        <time>2018-07-28T14:05:02Z</time>
      </trkpt>
      <trkpt lat="42.22696" lon="-8.73768">
        <ele>6.647</ele>
        <time>2018-07-28T14:05:03Z</time>
      </trkpt>
      <trkpt lat="42.22702" lon="-8.73771">
        <ele>6.749</ele>
        <time>2018-07-28T14:05:04Z</time>
      </trkpt>
      <trkpt lat="42.22707" lon="-8.73776">
        <ele>6.894</ele>
        <time>2018-07-28T14:05:05Z</time>
      </trkpt>
      <trkpt lat="42.22712" lon="-8.73783">
        <ele>7.079</ele>
        <time>2018-07-28T14:05:06Z</time>
      </trkpt>
      <trkpt lat="42.22718" lon="-8.7379">
        <ele>7.127</ele>
        <time>2018-07-28T14:05:07Z</time>
      </trkpt>
      <trkpt lat="42.22725" lon="-8.73796">
        <ele>7.573</ele>
        <time>2018-07-28T14:05:08Z</time>
      </trkpt>
      <trkpt lat="42.22733" lon="-8.73798">
        <ele>7.669</ele>
        <time>2018-07-28T14:05:09Z</time>
      </trkpt>
      <trkpt lat="42.22742" lon="-8.73797">
        <ele>7.604</ele>
        <time>2018-07-28T14:05:10Z</time>
      </trkpt>
      <trkpt lat="42.2275" lon="-8.73795">
        <ele>7.524</ele>
        <time>2018-07-28T14:05:11Z</time>
      </trkpt>
      <trkpt lat="42.22758" lon="-8.73791">
        <ele>7.408</ele>
        <time>2018-07-28T14:05:12Z</time>
      </trkpt>
      <trkpt lat="42.22765" lon="-8.73783">
        <ele>7.318</ele>
        <time>2018-07-28T14:05:13Z</time>
      </trkpt>
      <trkpt lat="42.2277" lon="-8.73773">
        <ele>7.253</ele>
        <time>2018-07-28T14:05:14Z</time>
      </trkpt>
      <trkpt lat="42.22776" lon="-8.73766">
        <ele>7.196</ele>
        <time>2018-07-28T14:05:15Z</time>
      </trkpt>
      <trkpt lat="42.22782" lon="-8.73758">
        <ele>6.948</ele>
        <time>2018-07-28T14:05:16Z</time>
      </trkpt>
      <trkpt lat="42.22787" lon="-8.7375">
        <ele>6.513</ele>
        <time>2018-07-28T14:05:17Z</time>
      </trkpt>
      <trkpt lat="42.22792" lon="-8.73743">
        <ele>6.168</ele>
        <time>2018-07-28T14:05:18Z</time>
      </trkpt>
      <trkpt lat="42.22798" lon="-8.73737">
        <ele>5.836</ele>
        <time>2018-07-28T14:05:19Z</time>
      </trkpt>
      <trkpt lat="42.22805" lon="-8.73733">
        <ele>5.722</ele>
        <time>2018-07-28T14:05:20Z</time>
      </trkpt>
      <trkpt lat="42.2281" lon="-8.73726">
        <ele>5.736</ele>
        <time>2018-07-28T14:05:21Z</time>
      </trkpt>
      <trkpt lat="42.22815" lon="-8.7372">
        <ele>5.717</ele>
        <time>2018-07-28T14:05:22Z</time>
      </trkpt>
      <trkpt lat="42.22821" lon="-8.73714">
        <ele>5.718</ele>
        <time>2018-07-28T14:05:23Z</time>
      </trkpt>
      <trkpt lat="42.22827" lon="-8.73709">
        <ele>5.708</ele>
        <time>2018-07-28T14:05:24Z</time>
      </trkpt>
      <trkpt lat="42.22833" lon="-8.73703">
        <ele>5.775</ele>
        <time>2018-07-28T14:05:25Z</time>
      </trkpt>
      <trkpt lat="42.2284" lon="-8.73699">
        <ele>5.76</ele>
        <time>2018-07-28T14:05:26Z</time>
      </trkpt>
      <trkpt lat="42.22847" lon="-8.73697">
        <ele>5.823</ele>
        <time>2018-07-28T14:05:27Z</time>
      </trkpt>
      <trkpt lat="42.22853" lon="-8.73692">
        <ele>5.925</ele>
        <time>2018-07-28T14:05:28Z</time>
      </trkpt>
      <trkpt lat="42.2286" lon="-8.73689">
        <ele>6.01</ele>
        <time>2018-07-28T14:05:29Z</time>
      </trkpt>
      <trkpt lat="42.22866" lon="-8.73684">
        <ele>6.035</ele>
        <time>2018-07-28T14:05:30Z</time>
      </trkpt>
      <trkpt lat="42.22874" lon="-8.7368">
        <ele>6.013</ele>
        <time>2018-07-28T14:05:31Z</time>
      </trkpt>
      <trkpt lat="42.22881" lon="-8.73673">
        <ele>6.039</ele>
        <time>2018-07-28T14:05:32Z</time>
      </trkpt>
      <trkpt lat="42.22888" lon="-8.73668">
        <ele>6.077</ele>
        <time>2018-07-28T14:05:33Z</time>
      </trkpt>
      <trkpt lat="42.22894" lon="-8.73664">
        <ele>5.861</ele>
        <time>2018-07-28T14:05:34Z</time>
      </trkpt>
      <trkpt lat="42.229" lon="-8.73661">
        <ele>5.627</ele>
        <time>2018-07-28T14:05:35Z</time>
      </trkpt>
      <trkpt lat="42.22905" lon="-8.73657">
        <ele>5.508</ele>
        <time>2018-07-28T14:05:36Z</time>
      </trkpt>
      <trkpt lat="42.2291" lon="-8.73653">
        <ele>5.319</ele>
        <time>2018-07-28T14:05:37Z</time>
      </trkpt>
      <trkpt lat="42.22915" lon="-8.7365">
        <ele>5.134</ele>
        <time>2018-07-28T14:05:38Z</time>
      </trkpt>
      <trkpt lat="42.22921" lon="-8.73646">
        <ele>5.037</ele>
        <time>2018-07-28T14:05:39Z</time>
      </trkpt>
      <trkpt lat="42.22928" lon="-8.73643">
        <ele>5.089</ele>
        <time>2018-07-28T14:05:40Z</time>
      </trkpt>
      <trkpt lat="42.22935" lon="-8.73638">
        <ele>5.014</ele>
        <time>2018-07-28T14:05:41Z</time>
      </trkpt>
      <trkpt lat="42.22942" lon="-8.73632">
        <ele>5.079</ele>
        <time>2018-07-28T14:05:42Z</time>
      </trkpt>
      <trkpt lat="42.22949" lon="-8.73626">
        <ele>5.187</ele>
        <time>2018-07-28T14:05:43Z</time>
      </trkpt>
      <trkpt lat="42.22957" lon="-8.7362">
        <ele>5.333</ele>
        <time>2018-07-28T14:05:44Z</time>
      </trkpt>
      <trkpt lat="42.22964" lon="-8.73615">
        <ele>5.423</ele>
        <time>2018-07-28T14:05:45Z</time>
      </trkpt>
      <trkpt lat="42.22971" lon="-8.7361">
        <ele>5.483</ele>
        <time>2018-07-28T14:05:46Z</time>
      </trkpt>
      <trkpt lat="42.22978" lon="-8.73605">
        <ele>5.411</ele>
        <time>2018-07-28T14:05:47Z</time>
      </trkpt>
      <trkpt lat="42.22987" lon="-8.736">
        <ele>5.508</ele>
        <time>2018-07-28T14:05:48Z</time>
      </trkpt>
      <trkpt lat="42.22995" lon="-8.73594">
        <ele>5.774</ele>
        <time>2018-07-28T14:05:49Z</time>
      </trkpt>
      <trkpt lat="42.23003" lon="-8.73589">
        <ele>5.749</ele>
        <time>2018-07-28T14:05:50Z</time>
      </trkpt>
      <trkpt lat="42.23012" lon="-8.73584">
        <ele>5.842</ele>
        <time>2018-07-28T14:05:51Z</time>
      </trkpt>
      <trkpt lat="42.2302" lon="-8.73579">
        <ele>5.934</ele>
        <time>2018-07-28T14:05:52Z</time>
      </trkpt>
      <trkpt lat="42.23028" lon="-8.73572">
        <ele>6.099</ele>
        <time>2018-07-28T14:05:53Z</time>
      </trkpt>
      <trkpt lat="42.23037" lon="-8.73567">
        <ele>6.184</ele>
        <time>2018-07-28T14:05:54Z</time>
      </trkpt>
      <trkpt lat="42.23045" lon="-8.7356">
        <ele>6.122</ele>
        <time>2018-07-28T14:05:55Z</time>
      </trkpt>
      <trkpt lat="42.23053" lon="-8.73554">
        <ele>6.178</ele>
        <time>2018-07-28T14:05:56Z</time>
      </trkpt>
      <trkpt lat="42.23061" lon="-8.73548">
        <ele>6.143</ele>
        <time>2018-07-28T14:05:57Z</time>
      </trkpt>
      <trkpt lat="42.23068" lon="-8.73543">
        <ele>6.164</ele>
        <time>2018-07-28T14:05:58Z</time>
      </trkpt>
      <trkpt lat="42.23075" lon="-8.73538">
        <ele>6.11</ele>
        <time>2018-07-28T14:05:59Z</time>
      </trkpt>
      <trkpt lat="42.23082" lon="-8.73534">
        <ele>5.908</ele>
        <time>2018-07-28T14:06:00Z</time>
      </trkpt>
      <trkpt lat="42.23089" lon="-8.73529">
        <ele>5.636</ele>
        <time>2018-07-28T14:06:01Z</time>
      </trkpt>
      <trkpt lat="42.23096" lon="-8.73525">
        <ele>5.651</ele>
        <time>2018-07-28T14:06:02Z</time>
      </trkpt>
      <trkpt lat="42.23103" lon="-8.73521">
        <ele>5.694</ele>
        <time>2018-07-28T14:06:03Z</time>
      </trkpt>
      <trkpt lat="42.23111" lon="-8.73515">
        <ele>5.646</ele>
        <time>2018-07-28T14:06:04Z</time>
      </trkpt>
      <trkpt lat="42.23118" lon="-8.73509">
        <ele>5.731</ele>
        <time>2018-07-28T14:06:05Z</time>
      </trkpt>
      <trkpt lat="42.23126" lon="-8.73504">
        <ele>5.896</ele>
        <time>2018-07-28T14:06:06Z</time>
      </trkpt>
      <trkpt lat="42.23135" lon="-8.73497">
        <ele>5.964</ele>
        <time>2018-07-28T14:06:07Z</time>
      </trkpt>
      <trkpt lat="42.23144" lon="-8.73492">
        <ele>6.16</ele>
        <time>2018-07-28T14:06:08Z</time>
      </trkpt>
      <trkpt lat="42.23153" lon="-8.73486">
        <ele>6.414</ele>
        <time>2018-07-28T14:06:09Z</time>
      </trkpt>
      <trkpt lat="42.23162" lon="-8.7348">
        <ele>6.654</ele>
        <time>2018-07-28T14:06:10Z</time>
      </trkpt>
      <trkpt lat="42.23171" lon="-8.73475">
        <ele>6.809</ele>
        <time>2018-07-28T14:06:11Z</time>
      </trkpt>
      <trkpt lat="42.2318" lon="-8.73469">
        <ele>6.808</ele>
        <time>2018-07-28T14:06:12Z</time>
      </trkpt>
      <trkpt lat="42.23189" lon="-8.73464">
        <ele>6.883</ele>
        <time>2018-07-28T14:06:13Z</time>
      </trkpt>
      <trkpt lat="42.23197" lon="-8.73457">
        <ele>6.678</ele>
        <time>2018-07-28T14:06:14Z</time>
      </trkpt>
      <trkpt lat="42.23206" lon="-8.73451">
        <ele>6.361</ele>
        <time>2018-07-28T14:06:15Z</time>
      </trkpt>
      <trkpt lat="42.23214" lon="-8.73445">
        <ele>6.333</ele>
        <time>2018-07-28T14:06:16Z</time>
      </trkpt>
      <trkpt lat="42.23223" lon="-8.73437">
        <ele>6.398</ele>
        <time>2018-07-28T14:06:17Z</time>
      </trkpt>
      <trkpt lat="42.23233" lon="-8.73431">
        <ele>6.333</ele>
        <time>2018-07-28T14:06:18Z</time>
      </trkpt>
      <trkpt lat="42.23242" lon="-8.73422">
        <ele>6.531</ele>
        <time>2018-07-28T14:06:19Z</time>
      </trkpt>
      <trkpt lat="42.23252" lon="-8.73416">
        <ele>6.617</ele>
        <time>2018-07-28T14:06:20Z</time>
      </trkpt>
      <trkpt lat="42.23262" lon="-8.73411">
        <ele>6.618</ele>
        <time>2018-07-28T14:06:21Z</time>
      </trkpt>
      <trkpt lat="42.23273" lon="-8.73406">
        <ele>6.798</ele>
        <time>2018-07-28T14:06:22Z</time>
      </trkpt>
      <trkpt lat="42.23283" lon="-8.73401">
        <ele>6.717</ele>
        <time>2018-07-28T14:06:23Z</time>
      </trkpt>
      <trkpt lat="42.23293" lon="-8.73396">
        <ele>6.708</ele>
        <time>2018-07-28T14:06:24Z</time>
      </trkpt>
      <trkpt lat="42.23303" lon="-8.7339">
        <ele>6.733</ele>
        <time>2018-07-28T14:06:25Z</time>
      </trkpt>
      <trkpt lat="42.23313" lon="-8.73384">
        <ele>6.728</ele>
        <time>2018-07-28T14:06:26Z</time>
      </trkpt>
      <trkpt lat="42.23322" lon="-8.73378">
        <ele>6.771</ele>
        <time>2018-07-28T14:06:27Z</time>
      </trkpt>
      <trkpt lat="42.23331" lon="-8.73373">
        <ele>6.783</ele>
        <time>2018-07-28T14:06:28Z</time>
      </trkpt>
      <trkpt lat="42.23339" lon="-8.73367">
        <ele>6.778</ele>
        <time>2018-07-28T14:06:29Z</time>
      </trkpt>
      <trkpt lat="42.23348" lon="-8.73361">
        <ele>6.623</ele>
        <time>2018-07-28T14:06:30Z</time>
      </trkpt>
      <trkpt lat="42.23356" lon="-8.73355">
        <ele>6.551</ele>
        <time>2018-07-28T14:06:31Z</time>
      </trkpt>
      <trkpt lat="42.23365" lon="-8.7335">
        <ele>6.497</ele>
        <time>2018-07-28T14:06:32Z</time>
      </trkpt>
      <trkpt lat="42.23375" lon="-8.73345">
        <ele>6.382</ele>
        <time>2018-07-28T14:06:33Z</time>
      </trkpt>
      <trkpt lat="42.23384" lon="-8.73339">
        <ele>6.343</ele>
        <time>2018-07-28T14:06:34Z</time>
      </trkpt>
      <trkpt lat="42.23392" lon="-8.73333">
        <ele>6.317</ele>
        <time>2018-07-28T14:06:35Z</time>
      </trkpt>
      <trkpt lat="42.234" lon="-8.73328">
        <ele>6.408</ele>
        <time>2018-07-28T14:06:36Z</time>
      </trkpt>
      <trkpt lat="42.23409" lon="-8.73323">
        <ele>6.44</ele>
        <time>2018-07-28T14:06:37Z</time>
      </trkpt>
      <trkpt lat="42.23416" lon="-8.73317">
        <ele>6.295</ele>
        <time>2018-07-28T14:06:38Z</time>
      </trkpt>
      <trkpt lat="42.23423" lon="-8.73312">
        <ele>6.148</ele>
        <time>2018-07-28T14:06:39Z</time>
      </trkpt>
      <trkpt lat="42.2343" lon="-8.73306">
        <ele>6.01</ele>
        <time>2018-07-28T14:06:40Z</time>
      </trkpt>
      <trkpt lat="42.23436" lon="-8.73301">
        <ele>5.955</ele>
        <time>2018-07-28T14:06:41Z</time>
      </trkpt>
      <trkpt lat="42.23443" lon="-8.73297">
        <ele>5.88</ele>
        <time>2018-07-28T14:06:42Z</time>
      </trkpt>
      <trkpt lat="42.2345" lon="-8.73291">
        <ele>5.868</ele>
        <time>2018-07-28T14:06:43Z</time>
      </trkpt>
      <trkpt lat="42.23459" lon="-8.73285">
        <ele>5.894</ele>
        <time>2018-07-28T14:06:44Z</time>
      </trkpt>
      <trkpt lat="42.23468" lon="-8.7328">
        <ele>5.942</ele>
        <time>2018-07-28T14:06:45Z</time>
      </trkpt>
      <trkpt lat="42.23478" lon="-8.73275">
        <ele>6.022</ele>
        <time>2018-07-28T14:06:46Z</time>
      </trkpt>
      <trkpt lat="42.23488" lon="-8.73268">
        <ele>6.214</ele>
        <time>2018-07-28T14:06:47Z</time>
      </trkpt>
      <trkpt lat="42.23498" lon="-8.73262">
        <ele>6.408</ele>
        <time>2018-07-28T14:06:48Z</time>
      </trkpt>
      <trkpt lat="42.23507" lon="-8.73255">
        <ele>6.626</ele>
        <time>2018-07-28T14:06:49Z</time>
      </trkpt>
      <trkpt lat="42.23516" lon="-8.7325">
        <ele>6.711</ele>
        <time>2018-07-28T14:06:50Z</time>
      </trkpt>
      <trkpt lat="42.23525" lon="-8.73244">
        <ele>6.734</ele>
        <time>2018-07-28T14:06:51Z</time>
      </trkpt>
      <trkpt lat="42.23534" lon="-8.73238">
        <ele>6.726</ele>
        <time>2018-07-28T14:06:52Z</time>
      </trkpt>
      <trkpt lat="42.23543" lon="-8.73232">
        <ele>6.671</ele>
        <time>2018-07-28T14:06:53Z</time>
      </trkpt>
      <trkpt lat="42.23553" lon="-8.73225">
        <ele>6.526</ele>
        <time>2018-07-28T14:06:54Z</time>
      </trkpt>
      <trkpt lat="42.23562" lon="-8.73218">
        <ele>6.594</ele>
        <time>2018-07-28T14:06:55Z</time>
      </trkpt>
      <trkpt lat="42.23572" lon="-8.73211">
        <ele>6.53</ele>
        <time>2018-07-28T14:06:56Z</time>
      </trkpt>
      <trkpt lat="42.23583" lon="-8.73206">
        <ele>6.456</ele>
        <time>2018-07-28T14:06:57Z</time>
      </trkpt>
      <trkpt lat="42.23595" lon="-8.73202">
        <ele>5.959</ele>
        <time>2018-07-28T14:06:58Z</time>
      </trkpt>
      <trkpt lat="42.23606" lon="-8.73197">
        <ele>5.314</ele>
        <time>2018-07-28T14:06:59Z</time>
      </trkpt>
      <trkpt lat="42.23617" lon="-8.7319">
        <ele>4.508</ele>
        <time>2018-07-28T14:07:00Z</time>
      </trkpt>
      <trkpt lat="42.23627" lon="-8.73183">
        <ele>3.517</ele>
        <time>2018-07-28T14:07:01Z</time>
      </trkpt>
      <trkpt lat="42.2366" lon="-8.73156">
        <ele>1.762</ele>
        <time>2018-07-28T14:07:04Z</time>
      </trkpt>
      <trkpt lat="42.23669" lon="-8.73144">
        <ele>1.695</ele>
        <time>2018-07-28T14:07:05Z</time>
      </trkpt>
      <trkpt lat="42.23676" lon="-8.73129">
        <ele>1.677</ele>
        <time>2018-07-28T14:07:06Z</time>
      </trkpt>
      <trkpt lat="42.23682" lon="-8.73113">
        <ele>1.932</ele>
        <time>2018-07-28T14:07:07Z</time>
      </trkpt>
      <trkpt lat="42.23687" lon="-8.73099">
        <ele>2.397</ele>
        <time>2018-07-28T14:07:08Z</time>
      </trkpt>
      <trkpt lat="42.23691" lon="-8.73085">
        <ele>2.965</ele>
        <time>2018-07-28T14:07:09Z</time>
      </trkpt>
      <trkpt lat="42.23693" lon="-8.73072">
        <ele>3.611</ele>
        <time>2018-07-28T14:07:10Z</time>
      </trkpt>
      <trkpt lat="42.23696" lon="-8.73058">
        <ele>4.567</ele>
        <time>2018-07-28T14:07:11Z</time>
      </trkpt>
      <trkpt lat="42.23699" lon="-8.73045">
        <ele>6.081</ele>
        <time>2018-07-28T14:07:12Z</time>
      </trkpt>
      <trkpt lat="42.23701" lon="-8.73032">
        <ele>6.519</ele>
        <time>2018-07-28T14:07:13Z</time>
      </trkpt>
      <trkpt lat="42.23705" lon="-8.73022">
        <ele>6.908</ele>
        <time>2018-07-28T14:07:14Z</time>
      </trkpt>
      <trkpt lat="42.23708" lon="-8.73014">
        <ele>7.028</ele>
        <time>2018-07-28T14:07:15Z</time>
      </trkpt>
      <trkpt lat="42.2371" lon="-8.73008">
        <ele>7.023</ele>
        <time>2018-07-28T14:07:16Z</time>
      </trkpt>
      <trkpt lat="42.23715" lon="-8.72999">
        <ele>6.796</ele>
        <time>2018-07-28T14:07:18Z</time>
      </trkpt>
      <trkpt lat="42.23717" lon="-8.72989">
        <ele>6.488</ele>
        <time>2018-07-28T14:07:20Z</time>
      </trkpt>
      <trkpt lat="42.23724" lon="-8.72979">
        <ele>6.543</ele>
        <time>2018-07-28T14:07:22Z</time>
      </trkpt>
      <trkpt lat="42.2373" lon="-8.72973">
        <ele>6.788</ele>
        <time>2018-07-28T14:07:23Z</time>
      </trkpt>
      <trkpt lat="42.23737" lon="-8.72967">
        <ele>6.996</ele>
        <time>2018-07-28T14:07:24Z</time>
      </trkpt>
      <trkpt lat="42.23744" lon="-8.72962">
        <ele>7.192</ele>
        <time>2018-07-28T14:07:25Z</time>
      </trkpt>
      <trkpt lat="42.2375" lon="-8.72959">
        <ele>7.112</ele>
        <time>2018-07-28T14:07:26Z</time>
      </trkpt>
      <trkpt lat="42.23755" lon="-8.72956">
        <ele>7.032</ele>
        <time>2018-07-28T14:07:27Z</time>
      </trkpt>
      <trkpt lat="42.23761" lon="-8.72954">
        <ele>6.805</ele>
        <time>2018-07-28T14:07:28Z</time>
      </trkpt>
      <trkpt lat="42.23767" lon="-8.72952">
        <ele>6.608</ele>
        <time>2018-07-28T14:07:29Z</time>
      </trkpt>
      <trkpt lat="42.23772" lon="-8.72951">
        <ele>6.453</ele>
        <time>2018-07-28T14:07:30Z</time>
      </trkpt>
      <trkpt lat="42.23778" lon="-8.72952">
        <ele>6.268</ele>
        <time>2018-07-28T14:07:31Z</time>
      </trkpt>
      <trkpt lat="42.23785" lon="-8.72951">
        <ele>6.181</ele>
        <time>2018-07-28T14:07:32Z</time>
      </trkpt>
      <trkpt lat="42.23791" lon="-8.72949">
        <ele>6.053</ele>
        <time>2018-07-28T14:07:33Z</time>
      </trkpt>
      <trkpt lat="42.23796" lon="-8.72944">
        <ele>6.048</ele>
        <time>2018-07-28T14:07:34Z</time>
      </trkpt>
      <trkpt lat="42.23802" lon="-8.72941">
        <ele>6.053</ele>
        <time>2018-07-28T14:07:35Z</time>
      </trkpt>
      <trkpt lat="42.23807" lon="-8.72936">
        <ele>6.091</ele>
        <time>2018-07-28T14:07:36Z</time>
      </trkpt>
      <trkpt lat="42.23811" lon="-8.72932">
        <ele>6.097</ele>
        <time>2018-07-28T14:07:37Z</time>
      </trkpt>
      <trkpt lat="42.23816" lon="-8.72929">
        <ele>6.062</ele>
        <time>2018-07-28T14:07:38Z</time>
      </trkpt>
      <trkpt lat="42.2382" lon="-8.72924">
        <ele>5.983</ele>
        <time>2018-07-28T14:07:39Z</time>
      </trkpt>
      <trkpt lat="42.23824" lon="-8.7292">
        <ele>5.911</ele>
        <time>2018-07-28T14:07:40Z</time>
      </trkpt>
      <trkpt lat="42.23827" lon="-8.72915">
        <ele>5.908</ele>
        <time>2018-07-28T14:07:41Z</time>
      </trkpt>
      <trkpt lat="42.23832" lon="-8.72914">
        <ele>5.988</ele>
        <time>2018-07-28T14:07:42Z</time>
      </trkpt>
      <trkpt lat="42.23838" lon="-8.72915">
        <ele>6.083</ele>
        <time>2018-07-28T14:07:43Z</time>
      </trkpt>
      <trkpt lat="42.23844" lon="-8.72919">
        <ele>6.156</ele>
        <time>2018-07-28T14:07:44Z</time>
      </trkpt>
      <trkpt lat="42.23849" lon="-8.7292">
        <ele>6.228</ele>
        <time>2018-07-28T14:07:45Z</time>
      </trkpt>
      <trkpt lat="42.23854" lon="-8.7292">
        <ele>6.233</ele>
        <time>2018-07-28T14:07:46Z</time>
      </trkpt>
      <trkpt lat="42.23859" lon="-8.7292">
        <ele>6.268</ele>
        <time>2018-07-28T14:07:47Z</time>
      </trkpt>
      <trkpt lat="42.23864" lon="-8.72918">
        <ele>6.256</ele>
        <time>2018-07-28T14:07:48Z</time>
      </trkpt>
      <trkpt lat="42.2387" lon="-8.72915">
        <ele>6.272</ele>
        <time>2018-07-28T14:07:49Z</time>
      </trkpt>
      <trkpt lat="42.23877" lon="-8.72912">
        <ele>6.252</ele>
        <time>2018-07-28T14:07:50Z</time>
      </trkpt>
      <trkpt lat="42.23885" lon="-8.72907">
        <ele>6.353</ele>
        <time>2018-07-28T14:07:51Z</time>
      </trkpt>
      <trkpt lat="42.23891" lon="-8.72901">
        <ele>6.408</ele>
        <time>2018-07-28T14:07:52Z</time>
      </trkpt>
      <trkpt lat="42.23898" lon="-8.72894">
        <ele>6.408</ele>
        <time>2018-07-28T14:07:53Z</time>
      </trkpt>
      <trkpt lat="42.23902" lon="-8.72885">
        <ele>6.467</ele>
        <time>2018-07-28T14:07:54Z</time>
      </trkpt>
      <trkpt lat="42.23908" lon="-8.72874">
        <ele>6.552</ele>
        <time>2018-07-28T14:07:55Z</time>
      </trkpt>
      <trkpt lat="42.23914" lon="-8.72864">
        <ele>6.655</ele>
        <time>2018-07-28T14:07:56Z</time>
      </trkpt>
      <trkpt lat="42.2392" lon="-8.72852">
        <ele>6.887</ele>
        <time>2018-07-28T14:07:57Z</time>
      </trkpt>
      <trkpt lat="42.23926" lon="-8.72841">
        <ele>7.042</ele>
        <time>2018-07-28T14:07:58Z</time>
      </trkpt>
      <trkpt lat="42.2393" lon="-8.7283">
        <ele>7.147</ele>
        <time>2018-07-28T14:07:59Z</time>
      </trkpt>
      <trkpt lat="42.23936" lon="-8.72821">
        <ele>7.165</ele>
        <time>2018-07-28T14:08:00Z</time>
      </trkpt>
      <trkpt lat="42.23941" lon="-8.72812">
        <ele>7.121</ele>
        <time>2018-07-28T14:08:01Z</time>
      </trkpt>
      <trkpt lat="42.23946" lon="-8.72803">
        <ele>6.912</ele>
        <time>2018-07-28T14:08:02Z</time>
      </trkpt>
      <trkpt lat="42.23951" lon="-8.72795">
        <ele>6.732</ele>
        <time>2018-07-28T14:08:03Z</time>
      </trkpt>
      <trkpt lat="42.23957" lon="-8.72787">
        <ele>6.605</ele>
        <time>2018-07-28T14:08:04Z</time>
      </trkpt>
      <trkpt lat="42.2396" lon="-8.72779">
        <ele>6.508</ele>
        <time>2018-07-28T14:08:05Z</time>
      </trkpt>
      <trkpt lat="42.23963" lon="-8.72771">
        <ele>6.473</ele>
        <time>2018-07-28T14:08:06Z</time>
      </trkpt>
      <trkpt lat="42.23965" lon="-8.72764">
        <ele>6.368</ele>
        <time>2018-07-28T14:08:07Z</time>
      </trkpt>
      <trkpt lat="42.23967" lon="-8.72758">
        <ele>6.221</ele>
        <time>2018-07-28T14:08:08Z</time>
      </trkpt>
      <trkpt lat="42.23972" lon="-8.72755">
        <ele>6.113</ele>
        <time>2018-07-28T14:08:09Z</time>
      </trkpt>
      <trkpt lat="42.23975" lon="-8.7275">
        <ele>6.028</ele>
        <time>2018-07-28T14:08:10Z</time>
      </trkpt>
      <trkpt lat="42.23978" lon="-8.72745">
        <ele>6.083</ele>
        <time>2018-07-28T14:08:11Z</time>
      </trkpt>
      <trkpt lat="42.23981" lon="-8.72739">
        <ele>6.031</ele>
        <time>2018-07-28T14:08:12Z</time>
      </trkpt>
      <trkpt lat="42.23984" lon="-8.72731">
        <ele>6.087</ele>
        <time>2018-07-28T14:08:13Z</time>
      </trkpt>
      <trkpt lat="42.23988" lon="-8.72723">
        <ele>6.168</ele>
        <time>2018-07-28T14:08:14Z</time>
      </trkpt>
      <trkpt lat="42.23993" lon="-8.72716">
        <ele>6.242</ele>
        <time>2018-07-28T14:08:15Z</time>
      </trkpt>
      <trkpt lat="42.23999" lon="-8.72708">
        <ele>6.426</ele>
        <time>2018-07-28T14:08:16Z</time>
      </trkpt>
      <trkpt lat="42.24005" lon="-8.72699">
        <ele>6.608</ele>
        <time>2018-07-28T14:08:17Z</time>
      </trkpt>
      <trkpt lat="42.24012" lon="-8.72689">
        <ele>6.928</ele>
        <time>2018-07-28T14:08:18Z</time>
      </trkpt>
      <trkpt lat="42.24017" lon="-8.72681">
        <ele>7.263</ele>
        <time>2018-07-28T14:08:19Z</time>
      </trkpt>
      <trkpt lat="42.24022" lon="-8.72675">
        <ele>7.216</ele>
        <time>2018-07-28T14:08:20Z</time>
      </trkpt>
      <trkpt lat="42.24025" lon="-8.72669">
        <ele>7.218</ele>
        <time>2018-07-28T14:08:21Z</time>
      </trkpt>
      <trkpt lat="42.24027" lon="-8.72663">
        <ele>7.133</ele>
        <time>2018-07-28T14:08:22Z</time>
      </trkpt>
      <trkpt lat="42.24029" lon="-8.72653">
        <ele>6.688</ele>
        <time>2018-07-28T14:08:24Z</time>
      </trkpt>
      <trkpt lat="42.24031" lon="-8.72643">
        <ele>6.526</ele>
        <time>2018-07-28T14:08:26Z</time>
      </trkpt>
      <trkpt lat="42.2403" lon="-8.72636">
        <ele>6.592</ele>
        <time>2018-07-28T14:08:27Z</time>
      </trkpt>
      <trkpt lat="42.24031" lon="-8.72629">
        <ele>6.674</ele>
        <time>2018-07-28T14:08:28Z</time>
      </trkpt>
      <trkpt lat="42.24031" lon="-8.72622">
        <ele>6.856</ele>
        <time>2018-07-28T14:08:29Z</time>
      </trkpt>
      <trkpt lat="42.24033" lon="-8.72614">
        <ele>7.021</ele>
        <time>2018-07-28T14:08:30Z</time>
      </trkpt>
      <trkpt lat="42.24033" lon="-8.72606">
        <ele>7.408</ele>
        <time>2018-07-28T14:08:31Z</time>
      </trkpt>
      <trkpt lat="42.24033" lon="-8.72598">
        <ele>7.649</ele>
        <time>2018-07-28T14:08:32Z</time>
      </trkpt>
      <trkpt lat="42.24032" lon="-8.7259">
        <ele>7.764</ele>
        <time>2018-07-28T14:08:33Z</time>
      </trkpt>
      <trkpt lat="42.24032" lon="-8.72582">
        <ele>7.787</ele>
        <time>2018-07-28T14:08:34Z</time>
      </trkpt>
      <trkpt lat="42.24032" lon="-8.72574">
        <ele>7.659</ele>
        <time>2018-07-28T14:08:35Z</time>
      </trkpt>
      <trkpt lat="42.24031" lon="-8.72566">
        <ele>7.424</ele>
        <time>2018-07-28T14:08:36Z</time>
      </trkpt>
      <trkpt lat="42.24031" lon="-8.72557">
        <ele>7.369</ele>
        <time>2018-07-28T14:08:37Z</time>
      </trkpt>
      <trkpt lat="42.24031" lon="-8.72549">
        <ele>7.227</ele>
        <time>2018-07-28T14:08:38Z</time>
      </trkpt>
      <trkpt lat="42.2403" lon="-8.72541">
        <ele>7.273</ele>
        <time>2018-07-28T14:08:39Z</time>
      </trkpt>
      <trkpt lat="42.2403" lon="-8.72534">
        <ele>7.249</ele>
        <time>2018-07-28T14:08:40Z</time>
      </trkpt>
      <trkpt lat="42.24031" lon="-8.72527">
        <ele>7.202</ele>
        <time>2018-07-28T14:08:41Z</time>
      </trkpt>
      <trkpt lat="42.24031" lon="-8.7252">
        <ele>7.222</ele>
        <time>2018-07-28T14:08:42Z</time>
      </trkpt>
      <trkpt lat="42.24032" lon="-8.72514">
        <ele>7.208</ele>
        <time>2018-07-28T14:08:43Z</time>
      </trkpt>
      <trkpt lat="42.24035" lon="-8.72504">
        <ele>7.166</ele>
        <time>2018-07-28T14:08:45Z</time>
      </trkpt>
      <trkpt lat="42.24033" lon="-8.72497">
        <ele>7.061</ele>
        <time>2018-07-28T14:08:48Z</time>
      </trkpt>
      <trkpt lat="42.24027" lon="-8.72495">
        <ele>7.224</ele>
        <time>2018-07-28T14:08:51Z</time>
      </trkpt>
      <trkpt lat="42.24019" lon="-8.72496">
        <ele>7.566</ele>
        <time>2018-07-28T14:08:54Z</time>
      </trkpt>
      <trkpt lat="42.24011" lon="-8.72497">
        <ele>8.181</ele>
        <time>2018-07-28T14:08:56Z</time>
      </trkpt>
      <trkpt lat="42.24006" lon="-8.72497">
        <ele>8.586</ele>
        <time>2018-07-28T14:08:57Z</time>
      </trkpt>
      <trkpt lat="42.24002" lon="-8.72498">
        <ele>8.814</ele>
        <time>2018-07-28T14:08:58Z</time>
      </trkpt>
      <trkpt lat="42.23996" lon="-8.72498">
        <ele>9.32</ele>
        <time>2018-07-28T14:08:59Z</time>
      </trkpt>
      <trkpt lat="42.23991" lon="-8.72499">
        <ele>9.416</ele>
        <time>2018-07-28T14:09:00Z</time>
      </trkpt>
      <trkpt lat="42.23987" lon="-8.725">
        <ele>9.576</ele>
        <time>2018-07-28T14:09:01Z</time>
      </trkpt>
      <trkpt lat="42.23981" lon="-8.725">
        <ele>9.713</ele>
        <time>2018-07-28T14:09:02Z</time>
      </trkpt>
      <trkpt lat="42.23976" lon="-8.72499">
        <ele>10.008</ele>
        <time>2018-07-28T14:09:03Z</time>
      </trkpt>
      <trkpt lat="42.2397" lon="-8.72498">
        <ele>10.373</ele>
        <time>2018-07-28T14:09:04Z</time>
      </trkpt>
      <trkpt lat="42.23963" lon="-8.72496">
        <ele>10.628</ele>
        <time>2018-07-28T14:09:05Z</time>
      </trkpt>
      <trkpt lat="42.23956" lon="-8.72494">
        <ele>10.961</ele>
        <time>2018-07-28T14:09:06Z</time>
      </trkpt>
      <trkpt lat="42.23949" lon="-8.7249">
        <ele>11.293</ele>
        <time>2018-07-28T14:09:07Z</time>
      </trkpt>
      <trkpt lat="42.23943" lon="-8.72489">
        <ele>11.548</ele>
        <time>2018-07-28T14:09:08Z</time>
      </trkpt>
      <trkpt lat="42.23937" lon="-8.72487">
        <ele>11.923</ele>
        <time>2018-07-28T14:09:09Z</time>
      </trkpt>
      <trkpt lat="42.23931" lon="-8.72486">
        <ele>12.321</ele>
        <time>2018-07-28T14:09:10Z</time>
      </trkpt>
      <trkpt lat="42.23925" lon="-8.72485">
        <ele>12.737</ele>
        <time>2018-07-28T14:09:11Z</time>
      </trkpt>
      <trkpt lat="42.23919" lon="-8.72485">
        <ele>13.291</ele>
        <time>2018-07-28T14:09:12Z</time>
      </trkpt>
      <trkpt lat="42.23913" lon="-8.72484">
        <ele>13.781</ele>
        <time>2018-07-28T14:09:13Z</time>
      </trkpt>
      <trkpt lat="42.23907" lon="-8.72483">
        <ele>14.119</ele>
        <time>2018-07-28T14:09:14Z</time>
      </trkpt>
      <trkpt lat="42.23902" lon="-8.72482">
        <ele>14.508</ele>
        <time>2018-07-28T14:09:15Z</time>
      </trkpt>
      <trkpt lat="42.23894" lon="-8.72481">
        <ele>15.191</ele>
        <time>2018-07-28T14:09:17Z</time>
      </trkpt>
      <trkpt lat="42.23888" lon="-8.72478">
        <ele>15.546</ele>
        <time>2018-07-28T14:09:19Z</time>
      </trkpt>
      <trkpt lat="42.2388" lon="-8.72476">
        <ele>15.919</ele>
        <time>2018-07-28T14:09:21Z</time>
      </trkpt>
      <trkpt lat="42.23874" lon="-8.72475">
        <ele>16.131</ele>
        <time>2018-07-28T14:09:22Z</time>
      </trkpt>
      <trkpt lat="42.23868" lon="-8.72474">
        <ele>16.416</ele>
        <time>2018-07-28T14:09:23Z</time>
      </trkpt>
      <trkpt lat="42.2386" lon="-8.72472">
        <ele>17.261</ele>
        <time>2018-07-28T14:09:25Z</time>
      </trkpt>
      <trkpt lat="42.23855" lon="-8.72469">
        <ele>17.699</ele>
        <time>2018-07-28T14:09:26Z</time>
      </trkpt>
      <trkpt lat="42.23851" lon="-8.72467">
        <ele>18.195</ele>
        <time>2018-07-28T14:09:27Z</time>
      </trkpt>
      <trkpt lat="42.23845" lon="-8.72464">
        <ele>19.139</ele>
        <time>2018-07-28T14:09:29Z</time>
      </trkpt>
      <trkpt lat="42.23841" lon="-8.72458">
        <ele>20.301</ele>
        <time>2018-07-28T14:09:32Z</time>
      </trkpt>
      <trkpt lat="42.23837" lon="-8.72454">
        <ele>20.721</ele>
        <time>2018-07-28T14:09:34Z</time>
      </trkpt>
      <trkpt lat="42.23837" lon="-8.72444">
        <ele>20.908</ele>
        <time>2018-07-28T14:09:36Z</time>
      </trkpt>
      <trkpt lat="42.23838" lon="-8.72438">
        <ele>20.815</ele>
        <time>2018-07-28T14:09:37Z</time>
      </trkpt>
      <trkpt lat="42.23839" lon="-8.72431">
        <ele>20.77</ele>
        <time>2018-07-28T14:09:38Z</time>
      </trkpt>
      <trkpt lat="42.23838" lon="-8.72423">
        <ele>20.693</ele>
        <time>2018-07-28T14:09:39Z</time>
      </trkpt>
      <trkpt lat="42.23838" lon="-8.72415">
        <ele>20.595</ele>
        <time>2018-07-28T14:09:40Z</time>
      </trkpt>
      <trkpt lat="42.23838" lon="-8.72407">
        <ele>20.44</ele>
        <time>2018-07-28T14:09:41Z</time>
      </trkpt>
      <trkpt lat="42.23838" lon="-8.724">
        <ele>20.315</ele>
        <time>2018-07-28T14:09:42Z</time>
      </trkpt>
      <trkpt lat="42.23838" lon="-8.72394">
        <ele>20.253</ele>
        <time>2018-07-28T14:09:43Z</time>
      </trkpt>
      <trkpt lat="42.23838" lon="-8.72387">
        <ele>20.149</ele>
        <time>2018-07-28T14:09:44Z</time>
      </trkpt>
      <trkpt lat="42.23837" lon="-8.7238">
        <ele>20.032</ele>
        <time>2018-07-28T14:09:45Z</time>
      </trkpt>
      <trkpt lat="42.23837" lon="-8.72372">
        <ele>19.892</ele>
        <time>2018-07-28T14:09:46Z</time>
      </trkpt>
      <trkpt lat="42.23836" lon="-8.72364">
        <ele>19.511</ele>
        <time>2018-07-28T14:09:47Z</time>
      </trkpt>
      <trkpt lat="42.23836" lon="-8.72357">
        <ele>19.108</ele>
        <time>2018-07-28T14:09:48Z</time>
      </trkpt>
      <trkpt lat="42.23835" lon="-8.7235">
        <ele>18.735</ele>
        <time>2018-07-28T14:09:49Z</time>
      </trkpt>
      <trkpt lat="42.23836" lon="-8.72344">
        <ele>18.47</ele>
        <time>2018-07-28T14:09:50Z</time>
      </trkpt>
      <trkpt lat="42.23836" lon="-8.72338">
        <ele>18.123</ele>
        <time>2018-07-28T14:09:51Z</time>
      </trkpt>
      <trkpt lat="42.23836" lon="-8.72331">
        <ele>17.975</ele>
        <time>2018-07-28T14:09:52Z</time>
      </trkpt>
      <trkpt lat="42.23835" lon="-8.72325">
        <ele>17.64</ele>
        <time>2018-07-28T14:09:53Z</time>
      </trkpt>
      <trkpt lat="42.23835" lon="-8.72313">
        <ele>17.395</ele>
        <time>2018-07-28T14:09:55Z</time>
      </trkpt>
      <trkpt lat="42.23836" lon="-8.72306">
        <ele>17.273</ele>
        <time>2018-07-28T14:09:56Z</time>
      </trkpt>
      <trkpt lat="42.23839" lon="-8.72297">
        <ele>17.259</ele>
        <time>2018-07-28T14:09:57Z</time>
      </trkpt>
      <trkpt lat="42.23839" lon="-8.72287">
        <ele>17.273</ele>
        <time>2018-07-28T14:09:58Z</time>
      </trkpt>
      <trkpt lat="42.2384" lon="-8.72278">
        <ele>17.285</ele>
        <time>2018-07-28T14:09:59Z</time>
      </trkpt>
      <trkpt lat="42.23839" lon="-8.72271">
        <ele>17.213</ele>
        <time>2018-07-28T14:10:00Z</time>
      </trkpt>
      <trkpt lat="42.2384" lon="-8.7226">
        <ele>17.008</ele>
        <time>2018-07-28T14:10:02Z</time>
      </trkpt>
      <trkpt lat="42.23841" lon="-8.72253">
        <ele>16.889</ele>
        <time>2018-07-28T14:10:03Z</time>
      </trkpt>
      <trkpt lat="42.23842" lon="-8.72245">
        <ele>16.654</ele>
        <time>2018-07-28T14:10:04Z</time>
      </trkpt>
      <trkpt lat="42.23841" lon="-8.72236">
        <ele>16.587</ele>
        <time>2018-07-28T14:10:05Z</time>
      </trkpt>
      <trkpt lat="42.23841" lon="-8.72228">
        <ele>16.459</ele>
        <time>2018-07-28T14:10:06Z</time>
      </trkpt>
      <trkpt lat="42.23839" lon="-8.7222">
        <ele>16.324</ele>
        <time>2018-07-28T14:10:07Z</time>
      </trkpt>
      <trkpt lat="42.23838" lon="-8.72214">
        <ele>16.299</ele>
        <time>2018-07-28T14:10:08Z</time>
      </trkpt>
      <trkpt lat="42.23839" lon="-8.72207">
        <ele>16.157</ele>
        <time>2018-07-28T14:10:09Z</time>
      </trkpt>
      <trkpt lat="42.23839" lon="-8.722">
        <ele>16.043</ele>
        <time>2018-07-28T14:10:10Z</time>
      </trkpt>
      <trkpt lat="42.23839" lon="-8.72191">
        <ele>16.166</ele>
        <time>2018-07-28T14:10:11Z</time>
      </trkpt>
      <trkpt lat="42.23839" lon="-8.72181">
        <ele>16.229</ele>
        <time>2018-07-28T14:10:12Z</time>
      </trkpt>
      <trkpt lat="42.23839" lon="-8.72171">
        <ele>16.321</ele>
        <time>2018-07-28T14:10:13Z</time>
      </trkpt>
      <trkpt lat="42.23838" lon="-8.7216">
        <ele>16.408</ele>
        <time>2018-07-28T14:10:14Z</time>
      </trkpt>
      <trkpt lat="42.23837" lon="-8.7215">
        <ele>16.458</ele>
        <time>2018-07-28T14:10:15Z</time>
      </trkpt>
      <trkpt lat="42.23836" lon="-8.72141">
        <ele>16.353</ele>
        <time>2018-07-28T14:10:16Z</time>
      </trkpt>
      <trkpt lat="42.23836" lon="-8.72133">
        <ele>16.286</ele>
        <time>2018-07-28T14:10:17Z</time>
      </trkpt>
      <trkpt lat="42.23836" lon="-8.72126">
        <ele>16.178</ele>
        <time>2018-07-28T14:10:18Z</time>
      </trkpt>
      <trkpt lat="42.23836" lon="-8.72118">
        <ele>16.043</ele>
        <time>2018-07-28T14:10:19Z</time>
      </trkpt>
      <trkpt lat="42.23835" lon="-8.72111">
        <ele>15.928</ele>
        <time>2018-07-28T14:10:20Z</time>
      </trkpt>
      <trkpt lat="42.23834" lon="-8.72105">
        <ele>15.846</ele>
        <time>2018-07-28T14:10:21Z</time>
      </trkpt>
      <trkpt lat="42.23833" lon="-8.72098">
        <ele>15.722</ele>
        <time>2018-07-28T14:10:22Z</time>
      </trkpt>
      <trkpt lat="42.23832" lon="-8.72092">
        <ele>15.646</ele>
        <time>2018-07-28T14:10:23Z</time>
      </trkpt>
      <trkpt lat="42.23831" lon="-8.72081">
        <ele>15.688</ele>
        <time>2018-07-28T14:10:25Z</time>
      </trkpt>
      <trkpt lat="42.23829" lon="-8.72069">
        <ele>15.716</ele>
        <time>2018-07-28T14:10:27Z</time>
      </trkpt>
      <trkpt lat="42.23828" lon="-8.72062">
        <ele>15.808</ele>
        <time>2018-07-28T14:10:28Z</time>
      </trkpt>
      <trkpt lat="42.23828" lon="-8.72054">
        <ele>16.086</ele>
        <time>2018-07-28T14:10:29Z</time>
      </trkpt>
      <trkpt lat="42.23827" lon="-8.72048">
        <ele>16.121</ele>
        <time>2018-07-28T14:10:30Z</time>
      </trkpt>
      <trkpt lat="42.23826" lon="-8.72041">
        <ele>16.224</ele>
        <time>2018-07-28T14:10:31Z</time>
      </trkpt>
      <trkpt lat="42.23825" lon="-8.72034">
        <ele>16.236</ele>
        <time>2018-07-28T14:10:32Z</time>
      </trkpt>
      <trkpt lat="42.23825" lon="-8.72025">
        <ele>16.271</ele>
        <time>2018-07-28T14:10:33Z</time>
      </trkpt>
      <trkpt lat="42.23825" lon="-8.72016">
        <ele>16.136</ele>
        <time>2018-07-28T14:10:34Z</time>
      </trkpt>
      <trkpt lat="42.23824" lon="-8.72008">
        <ele>16.134</ele>
        <time>2018-07-28T14:10:35Z</time>
      </trkpt>
      <trkpt lat="42.23824" lon="-8.72">
        <ele>16.13</ele>
        <time>2018-07-28T14:10:36Z</time>
      </trkpt>
      <trkpt lat="42.23823" lon="-8.71994">
        <ele>16.152</ele>
        <time>2018-07-28T14:10:37Z</time>
      </trkpt>
      <trkpt lat="42.2382" lon="-8.71985">
        <ele>15.853</ele>
        <time>2018-07-28T14:10:39Z</time>
      </trkpt>
      <trkpt lat="42.23819" lon="-8.71977">
        <ele>15.508</ele>
        <time>2018-07-28T14:10:41Z</time>
      </trkpt>
      <trkpt lat="42.23824" lon="-8.71969">
        <ele>15.308</ele>
        <time>2018-07-28T14:10:43Z</time>
      </trkpt>
      <trkpt lat="42.23832" lon="-8.71964">
        <ele>15.487</ele>
        <time>2018-07-28T14:10:45Z</time>
      </trkpt>
      <trkpt lat="42.23836" lon="-8.71964">
        <ele>15.422</ele>
        <time>2018-07-28T14:10:46Z</time>
      </trkpt>
      <trkpt lat="42.23846" lon="-8.71962">
        <ele>15.485</ele>
        <time>2018-07-28T14:10:48Z</time>
      </trkpt>
      <trkpt lat="42.23852" lon="-8.71962">
        <ele>15.337</ele>
        <time>2018-07-28T14:10:49Z</time>
      </trkpt>
      <trkpt lat="42.23857" lon="-8.71961">
        <ele>15.082</ele>
        <time>2018-07-28T14:10:50Z</time>
      </trkpt>
      <trkpt lat="42.23862" lon="-8.7196">
        <ele>14.667</ele>
        <time>2018-07-28T14:10:51Z</time>
      </trkpt>
      <trkpt lat="42.23866" lon="-8.71957">
        <ele>14.025</ele>
        <time>2018-07-28T14:10:52Z</time>
      </trkpt>
      <trkpt lat="42.23872" lon="-8.71956">
        <ele>12.771</ele>
        <time>2018-07-28T14:10:54Z</time>
      </trkpt>
      <trkpt lat="42.23876" lon="-8.7195">
        <ele>11.742</ele>
        <time>2018-07-28T14:10:56Z</time>
      </trkpt>
      <trkpt lat="42.23881" lon="-8.71947">
        <ele>11.122</ele>
        <time>2018-07-28T14:10:58Z</time>
      </trkpt>
      <trkpt lat="42.23885" lon="-8.71943">
        <ele>10.914</ele>
        <time>2018-07-28T14:11:00Z</time>
      </trkpt>
      <trkpt lat="42.23889" lon="-8.71941">
        <ele>10.408</ele>
        <time>2018-07-28T14:11:02Z</time>
      </trkpt>
      <trkpt lat="42.23894" lon="-8.71938">
        <ele>10.246</ele>
        <time>2018-07-28T14:11:05Z</time>
      </trkpt>
      <trkpt lat="42.23899" lon="-8.71936">
        <ele>10.031</ele>
        <time>2018-07-28T14:11:08Z</time>
      </trkpt>
      <trkpt lat="42.23903" lon="-8.71941">
        <ele>9.954</ele>
        <time>2018-07-28T14:11:11Z</time>
      </trkpt>
      <trkpt lat="42.23908" lon="-8.71946">
        <ele>9.816</ele>
        <time>2018-07-28T14:11:13Z</time>
      </trkpt>
      <trkpt lat="42.23914" lon="-8.71943">
        <ele>9.731</ele>
        <time>2018-07-28T14:11:15Z</time>
      </trkpt>
      <trkpt lat="42.2392" lon="-8.71939">
        <ele>9.696</ele>
        <time>2018-07-28T14:11:17Z</time>
      </trkpt>
      <trkpt lat="42.23924" lon="-8.71927">
        <ele>9.424</ele>
        <time>2018-07-28T14:11:19Z</time>
      </trkpt>
      <trkpt lat="42.23926" lon="-8.71921">
        <ele>9.39</ele>
        <time>2018-07-28T14:11:20Z</time>
      </trkpt>
      <trkpt lat="42.23927" lon="-8.71912">
        <ele>9.269</ele>
        <time>2018-07-28T14:11:21Z</time>
      </trkpt>
      <trkpt lat="42.23928" lon="-8.71901">
        <ele>9.204</ele>
        <time>2018-07-28T14:11:22Z</time>
      </trkpt>
      <trkpt lat="42.23929" lon="-8.71891">
        <ele>9.224</ele>
        <time>2018-07-28T14:11:23Z</time>
      </trkpt>
      <trkpt lat="42.2393" lon="-8.71881">
        <ele>9.208</ele>
        <time>2018-07-28T14:11:24Z</time>
      </trkpt>
      <trkpt lat="42.23932" lon="-8.71873">
        <ele>9.248</ele>
        <time>2018-07-28T14:11:25Z</time>
      </trkpt>
      <trkpt lat="42.23933" lon="-8.71866">
        <ele>9.283</ele>
        <time>2018-07-28T14:11:26Z</time>
      </trkpt>
      <trkpt lat="42.23934" lon="-8.71856">
        <ele>9.226</ele>
        <time>2018-07-28T14:11:28Z</time>
      </trkpt>
      <trkpt lat="42.23934" lon="-8.71847">
        <ele>9.078</ele>
        <time>2018-07-28T14:11:30Z</time>
      </trkpt>
      <trkpt lat="42.23935" lon="-8.7184">
        <ele>8.873</ele>
        <time>2018-07-28T14:11:32Z</time>
      </trkpt>
      <trkpt lat="42.23931" lon="-8.71836">
        <ele>8.578</ele>
        <time>2018-07-28T14:11:49Z</time>
      </trkpt>
      <trkpt lat="42.23927" lon="-8.71833">
        <ele>8.756</ele>
        <time>2018-07-28T14:12:45Z</time>
      </trkpt>
      <trkpt lat="42.23933" lon="-8.71834">
        <ele>8.722</ele>
        <time>2018-07-28T14:12:53Z</time>
      </trkpt>
      <trkpt lat="42.23938" lon="-8.71835">
        <ele>9.033</ele>
        <time>2018-07-28T14:13:31Z</time>
      </trkpt>
      <trkpt lat="42.23942" lon="-8.71829">
        <ele>8.923</ele>
        <time>2018-07-28T14:13:38Z</time>
      </trkpt>
      <trkpt lat="42.23942" lon="-8.71814">
        <ele>9.215</ele>
        <time>2018-07-28T14:13:40Z</time>
      </trkpt>
      <trkpt lat="42.2394" lon="-8.71805">
        <ele>9.408</ele>
        <time>2018-07-28T14:13:41Z</time>
      </trkpt>
      <trkpt lat="42.23939" lon="-8.71795">
        <ele>9.585</ele>
        <time>2018-07-28T14:13:42Z</time>
      </trkpt>
      <trkpt lat="42.23937" lon="-8.71787">
        <ele>9.67</ele>
        <time>2018-07-28T14:13:43Z</time>
      </trkpt>
      <trkpt lat="42.23935" lon="-8.71778">
        <ele>9.613</ele>
        <time>2018-07-28T14:13:44Z</time>
      </trkpt>
      <trkpt lat="42.23933" lon="-8.7177">
        <ele>9.515</ele>
        <time>2018-07-28T14:13:45Z</time>
      </trkpt>
      <trkpt lat="42.23931" lon="-8.71763">
        <ele>9.36</ele>
        <time>2018-07-28T14:13:46Z</time>
      </trkpt>
      <trkpt lat="42.23932" lon="-8.71755">
        <ele>9.275</ele>
        <time>2018-07-28T14:13:47Z</time>
      </trkpt>
      <trkpt lat="42.23935" lon="-8.71748">
        <ele>9.073</ele>
        <time>2018-07-28T14:13:48Z</time>
      </trkpt>
      <trkpt lat="42.23939" lon="-8.71743">
        <ele>8.979</ele>
        <time>2018-07-28T14:13:49Z</time>
      </trkpt>
      <trkpt lat="42.23945" lon="-8.71741">
        <ele>8.998</ele>
        <time>2018-07-28T14:13:50Z</time>
      </trkpt>
      <trkpt lat="42.23952" lon="-8.71739">
        <ele>9.115</ele>
        <time>2018-07-28T14:13:51Z</time>
      </trkpt>
      <trkpt lat="42.23959" lon="-8.71736">
        <ele>9.226</ele>
        <time>2018-07-28T14:13:52Z</time>
      </trkpt>
      <trkpt lat="42.23963" lon="-8.71734">
        <ele>9.208</ele>
        <time>2018-07-28T14:13:53Z</time>
      </trkpt>
      <trkpt lat="42.23969" lon="-8.71729">
        <ele>9.021</ele>
        <time>2018-07-28T14:13:55Z</time>
      </trkpt>
      <trkpt lat="42.23971" lon="-8.71718">
        <ele>8.186</ele>
        <time>2018-07-28T14:13:57Z</time>
      </trkpt>
      <trkpt lat="42.23969" lon="-8.71709">
        <ele>8.059</ele>
        <time>2018-07-28T14:13:58Z</time>
      </trkpt>
      <trkpt lat="42.23966" lon="-8.717">
        <ele>7.961</ele>
        <time>2018-07-28T14:13:59Z</time>
      </trkpt>
      <trkpt lat="42.23964" lon="-8.71689">
        <ele>7.876</ele>
        <time>2018-07-28T14:14:00Z</time>
      </trkpt>
      <trkpt lat="42.23962" lon="-8.71677">
        <ele>7.761</ele>
        <time>2018-07-28T14:14:01Z</time>
      </trkpt>
      <trkpt lat="42.2396" lon="-8.71664">
        <ele>7.439</ele>
        <time>2018-07-28T14:14:02Z</time>
      </trkpt>
      <trkpt lat="42.23958" lon="-8.71651">
        <ele>7.025</ele>
        <time>2018-07-28T14:14:03Z</time>
      </trkpt>
      <trkpt lat="42.23956" lon="-8.71635">
        <ele>6.547</ele>
        <time>2018-07-28T14:14:04Z</time>
      </trkpt>
      <trkpt lat="42.23955" lon="-8.7162">
        <ele>6.029</ele>
        <time>2018-07-28T14:14:05Z</time>
      </trkpt>
      <trkpt lat="42.23954" lon="-8.71606">
        <ele>5.421</ele>
        <time>2018-07-28T14:14:06Z</time>
      </trkpt>
      <trkpt lat="42.23954" lon="-8.71594">
        <ele>4.808</ele>
        <time>2018-07-28T14:14:07Z</time>
      </trkpt>
      <trkpt lat="42.23951" lon="-8.71571">
        <ele>3.796</ele>
        <time>2018-07-28T14:14:09Z</time>
      </trkpt>
      <trkpt lat="42.2395" lon="-8.71561">
        <ele>3.211</ele>
        <time>2018-07-28T14:14:10Z</time>
      </trkpt>
      <trkpt lat="42.23948" lon="-8.71551">
        <ele>2.964</ele>
        <time>2018-07-28T14:14:11Z</time>
      </trkpt>
      <trkpt lat="42.23946" lon="-8.71541">
        <ele>2.596</ele>
        <time>2018-07-28T14:14:12Z</time>
      </trkpt>
      <trkpt lat="42.23944" lon="-8.71531">
        <ele>2.521</ele>
        <time>2018-07-28T14:14:13Z</time>
      </trkpt>
      <trkpt lat="42.23943" lon="-8.71521">
        <ele>2.496</ele>
        <time>2018-07-28T14:14:14Z</time>
      </trkpt>
      <trkpt lat="42.23941" lon="-8.71511">
        <ele>2.424</ele>
        <time>2018-07-28T14:14:15Z</time>
      </trkpt>
      <trkpt lat="42.23999" lon="-8.71253">
        <ele>2.27</ele>
        <time>2018-07-28T14:14:33Z</time>
      </trkpt>
      <trkpt lat="42.24005" lon="-8.71244">
        <ele>2.422</ele>
        <time>2018-07-28T14:14:34Z</time>
      </trkpt>
      <trkpt lat="42.24008" lon="-8.71231">
        <ele>2.562</ele>
        <time>2018-07-28T14:14:35Z</time>
      </trkpt>
      <trkpt lat="42.24013" lon="-8.71218">
        <ele>2.608</ele>
        <time>2018-07-28T14:14:36Z</time>
      </trkpt>
      <trkpt lat="42.24018" lon="-8.71207">
        <ele>2.708</ele>
        <time>2018-07-28T14:14:37Z</time>
      </trkpt>
      <trkpt lat="42.24025" lon="-8.71196">
        <ele>2.834</ele>
        <time>2018-07-28T14:14:38Z</time>
      </trkpt>
      <trkpt lat="42.2403" lon="-8.71182">
        <ele>2.999</ele>
        <time>2018-07-28T14:14:39Z</time>
      </trkpt>
      <trkpt lat="42.24037" lon="-8.71169">
        <ele>3.172</ele>
        <time>2018-07-28T14:14:40Z</time>
      </trkpt>
      <trkpt lat="42.24045" lon="-8.71158">
        <ele>3.594</ele>
        <time>2018-07-28T14:14:41Z</time>
      </trkpt>
      <trkpt lat="42.24051" lon="-8.71144">
        <ele>3.959</ele>
        <time>2018-07-28T14:14:42Z</time>
      </trkpt>
      <trkpt lat="42.24057" lon="-8.71131">
        <ele>4.464</ele>
        <time>2018-07-28T14:14:43Z</time>
      </trkpt>
      <trkpt lat="42.24064" lon="-8.71118">
        <ele>5.162</ele>
        <time>2018-07-28T14:14:44Z</time>
      </trkpt>
      <trkpt lat="42.24071" lon="-8.71104">
        <ele>6.058</ele>
        <time>2018-07-28T14:14:45Z</time>
      </trkpt>
      <trkpt lat="42.24077" lon="-8.71091">
        <ele>7.046</ele>
        <time>2018-07-28T14:14:46Z</time>
      </trkpt>
      <trkpt lat="42.24085" lon="-8.71076">
        <ele>9.388</ele>
        <time>2018-07-28T14:14:47Z</time>
      </trkpt>
      <trkpt lat="42.24091" lon="-8.71062">
        <ele>10.616</ele>
        <time>2018-07-28T14:14:48Z</time>
      </trkpt>
      <trkpt lat="42.24098" lon="-8.71048">
        <ele>11.708</ele>
        <time>2018-07-28T14:14:49Z</time>
      </trkpt>
      <trkpt lat="42.24104" lon="-8.71035">
        <ele>12.646</ele>
        <time>2018-07-28T14:14:50Z</time>
      </trkpt>
      <trkpt lat="42.2411" lon="-8.71023">
        <ele>13.411</ele>
        <time>2018-07-28T14:14:51Z</time>
      </trkpt>
      <trkpt lat="42.24116" lon="-8.71011">
        <ele>14.234</ele>
        <time>2018-07-28T14:14:52Z</time>
      </trkpt>
      <trkpt lat="42.24122" lon="-8.70999">
        <ele>14.846</ele>
        <time>2018-07-28T14:14:53Z</time>
      </trkpt>
      <trkpt lat="42.24128" lon="-8.70987">
        <ele>15.531</ele>
        <time>2018-07-28T14:14:54Z</time>
      </trkpt>
      <trkpt lat="42.24134" lon="-8.70975">
        <ele>16.366</ele>
        <time>2018-07-28T14:14:55Z</time>
      </trkpt>
      <trkpt lat="42.2414" lon="-8.70962">
        <ele>17.064</ele>
        <time>2018-07-28T14:14:56Z</time>
      </trkpt>
      <trkpt lat="42.24145" lon="-8.70949">
        <ele>17.52</ele>
        <time>2018-07-28T14:14:57Z</time>
      </trkpt>
      <trkpt lat="42.24151" lon="-8.70936">
        <ele>17.927</ele>
        <time>2018-07-28T14:14:58Z</time>
      </trkpt>
      <trkpt lat="42.24156" lon="-8.70922">
        <ele>18.368</ele>
        <time>2018-07-28T14:14:59Z</time>
      </trkpt>
      <trkpt lat="42.24162" lon="-8.70909">
        <ele>18.414</ele>
        <time>2018-07-28T14:15:00Z</time>
      </trkpt>
      <trkpt lat="42.24168" lon="-8.70895">
        <ele>18.508</ele>
        <time>2018-07-28T14:15:01Z</time>
      </trkpt>
      <trkpt lat="42.24174" lon="-8.70882">
        <ele>18.654</ele>
        <time>2018-07-28T14:15:02Z</time>
      </trkpt>
      <trkpt lat="42.2418" lon="-8.70868">
        <ele>18.689</ele>
        <time>2018-07-28T14:15:03Z</time>
      </trkpt>
      <trkpt lat="42.24186" lon="-8.70856">
        <ele>18.642</ele>
        <time>2018-07-28T14:15:04Z</time>
      </trkpt>
      <trkpt lat="42.24192" lon="-8.70844">
        <ele>18.254</ele>
        <time>2018-07-28T14:15:05Z</time>
      </trkpt>
      <trkpt lat="42.24197" lon="-8.70833">
        <ele>18.039</ele>
        <time>2018-07-28T14:15:06Z</time>
      </trkpt>
      <trkpt lat="42.24202" lon="-8.70823">
        <ele>17.894</ele>
        <time>2018-07-28T14:15:07Z</time>
      </trkpt>
      <trkpt lat="42.24207" lon="-8.70815">
        <ele>17.472</ele>
        <time>2018-07-28T14:15:08Z</time>
      </trkpt>
      <trkpt lat="42.24211" lon="-8.70807">
        <ele>17.148</ele>
        <time>2018-07-28T14:15:09Z</time>
      </trkpt>
      <trkpt lat="42.24215" lon="-8.708">
        <ele>16.828</ele>
        <time>2018-07-28T14:15:10Z</time>
      </trkpt>
      <trkpt lat="42.24219" lon="-8.70792">
        <ele>16.689</ele>
        <time>2018-07-28T14:15:11Z</time>
      </trkpt>
      <trkpt lat="42.24222" lon="-8.70785">
        <ele>16.317</ele>
        <time>2018-07-28T14:15:12Z</time>
      </trkpt>
      <trkpt lat="42.24225" lon="-8.70778">
        <ele>16.008</ele>
        <time>2018-07-28T14:15:13Z</time>
      </trkpt>
      <trkpt lat="42.24227" lon="-8.7077">
        <ele>15.794</ele>
        <time>2018-07-28T14:15:14Z</time>
      </trkpt>
      <trkpt lat="42.24227" lon="-8.70762">
        <ele>15.589</ele>
        <time>2018-07-28T14:15:15Z</time>
      </trkpt>
      <trkpt lat="42.24228" lon="-8.70754">
        <ele>15.362</ele>
        <time>2018-07-28T14:15:16Z</time>
      </trkpt>
      <trkpt lat="42.24229" lon="-8.70747">
        <ele>15.174</ele>
        <time>2018-07-28T14:15:17Z</time>
      </trkpt>
      <trkpt lat="42.24233" lon="-8.7074">
        <ele>15.099</ele>
        <time>2018-07-28T14:15:18Z</time>
      </trkpt>
      <trkpt lat="42.24238" lon="-8.70737">
        <ele>15.074</ele>
        <time>2018-07-28T14:15:19Z</time>
      </trkpt>
      <trkpt lat="42.24244" lon="-8.70734">
        <ele>15.132</ele>
        <time>2018-07-28T14:15:20Z</time>
      </trkpt>
      <trkpt lat="42.2425" lon="-8.7073">
        <ele>15.258</ele>
        <time>2018-07-28T14:15:21Z</time>
      </trkpt>
      <trkpt lat="42.24255" lon="-8.70726">
        <ele>15.337</ele>
        <time>2018-07-28T14:15:22Z</time>
      </trkpt>
      <trkpt lat="42.24259" lon="-8.70721">
        <ele>15.349</ele>
        <time>2018-07-28T14:15:23Z</time>
      </trkpt>
      <trkpt lat="42.24264" lon="-8.70715">
        <ele>15.113</ele>
        <time>2018-07-28T14:15:25Z</time>
      </trkpt>
      <trkpt lat="42.24271" lon="-8.70708">
        <ele>15.108</ele>
        <time>2018-07-28T14:15:27Z</time>
      </trkpt>
      <trkpt lat="42.24274" lon="-8.70705">
        <ele>15.275</ele>
        <time>2018-07-28T14:15:28Z</time>
      </trkpt>
      <trkpt lat="42.24278" lon="-8.707">
        <ele>15.37</ele>
        <time>2018-07-28T14:15:29Z</time>
      </trkpt>
      <trkpt lat="42.24284" lon="-8.70693">
        <ele>15.643</ele>
        <time>2018-07-28T14:15:31Z</time>
      </trkpt>
      <trkpt lat="42.24285" lon="-8.70681">
        <ele>16.035</ele>
        <time>2018-07-28T14:15:33Z</time>
      </trkpt>
      <trkpt lat="42.24285" lon="-8.70675">
        <ele>16.28</ele>
        <time>2018-07-28T14:15:34Z</time>
      </trkpt>
      <trkpt lat="42.24286" lon="-8.70669">
        <ele>16.425</ele>
        <time>2018-07-28T14:15:35Z</time>
      </trkpt>
      <trkpt lat="42.24289" lon="-8.70663">
        <ele>16.633</ele>
        <time>2018-07-28T14:15:36Z</time>
      </trkpt>
      <trkpt lat="42.24294" lon="-8.70658">
        <ele>16.899</ele>
        <time>2018-07-28T14:15:37Z</time>
      </trkpt>
      <trkpt lat="42.243" lon="-8.70653">
        <ele>17.016</ele>
        <time>2018-07-28T14:15:38Z</time>
      </trkpt>
      <trkpt lat="42.24305" lon="-8.70647">
        <ele>17.376</ele>
        <time>2018-07-28T14:15:39Z</time>
      </trkpt>
      <trkpt lat="42.2431" lon="-8.70641">
        <ele>18.013</ele>
        <time>2018-07-28T14:15:40Z</time>
      </trkpt>
      <trkpt lat="42.24314" lon="-8.70635">
        <ele>18.408</ele>
        <time>2018-07-28T14:15:41Z</time>
      </trkpt>
      <trkpt lat="42.2432" lon="-8.70627">
        <ele>19.033</ele>
        <time>2018-07-28T14:15:42Z</time>
      </trkpt>
      <trkpt lat="42.24328" lon="-8.70619">
        <ele>19.648</ele>
        <time>2018-07-28T14:15:43Z</time>
      </trkpt>
      <trkpt lat="42.24333" lon="-8.70611">
        <ele>20.191</ele>
        <time>2018-07-28T14:15:44Z</time>
      </trkpt>
      <trkpt lat="42.24337" lon="-8.70605">
        <ele>20.633</ele>
        <time>2018-07-28T14:15:45Z</time>
      </trkpt>
      <trkpt lat="42.24342" lon="-8.706">
        <ele>21.028</ele>
        <time>2018-07-28T14:15:46Z</time>
      </trkpt>
      <trkpt lat="42.24346" lon="-8.70596">
        <ele>21.363</ele>
        <time>2018-07-28T14:15:47Z</time>
      </trkpt>
      <trkpt lat="42.24349" lon="-8.70591">
        <ele>21.651</ele>
        <time>2018-07-28T14:15:48Z</time>
      </trkpt>
      <trkpt lat="42.24353" lon="-8.70585">
        <ele>21.877</ele>
        <time>2018-07-28T14:15:49Z</time>
      </trkpt>
      <trkpt lat="42.24359" lon="-8.70579">
        <ele>22.137</ele>
        <time>2018-07-28T14:15:50Z</time>
      </trkpt>
      <trkpt lat="42.24364" lon="-8.7057">
        <ele>22.549</ele>
        <time>2018-07-28T14:15:51Z</time>
      </trkpt>
      <trkpt lat="42.2437" lon="-8.70563">
        <ele>22.913</ele>
        <time>2018-07-28T14:15:52Z</time>
      </trkpt>
      <trkpt lat="42.24374" lon="-8.70552">
        <ele>23.408</ele>
        <time>2018-07-28T14:15:53Z</time>
      </trkpt>
      <trkpt lat="42.24381" lon="-8.70543">
        <ele>24.125</ele>
        <time>2018-07-28T14:15:54Z</time>
      </trkpt>
      <trkpt lat="42.24386" lon="-8.70533">
        <ele>24.73</ele>
        <time>2018-07-28T14:15:55Z</time>
      </trkpt>
      <trkpt lat="42.24392" lon="-8.70524">
        <ele>25.363</ele>
        <time>2018-07-28T14:15:56Z</time>
      </trkpt>
      <trkpt lat="42.24396" lon="-8.70516">
        <ele>26.335</ele>
        <time>2018-07-28T14:15:57Z</time>
      </trkpt>
      <trkpt lat="42.24399" lon="-8.70508">
        <ele>26.64</ele>
        <time>2018-07-28T14:15:58Z</time>
      </trkpt>
      <trkpt lat="42.24401" lon="-8.70502">
        <ele>26.945</ele>
        <time>2018-07-28T14:16:00Z</time>
      </trkpt>
      <trkpt lat="42.24403" lon="-8.70496">
        <ele>27.273</ele>
        <time>2018-07-28T14:16:08Z</time>
      </trkpt>
      <trkpt lat="42.24408" lon="-8.70493">
        <ele>27.349</ele>
        <time>2018-07-28T14:16:21Z</time>
      </trkpt>
      <trkpt lat="42.24414" lon="-8.70489">
        <ele>27.848</ele>
        <time>2018-07-28T14:16:23Z</time>
      </trkpt>
      <trkpt lat="42.24419" lon="-8.70484">
        <ele>28.161</ele>
        <time>2018-07-28T14:16:24Z</time>
      </trkpt>
      <trkpt lat="42.24425" lon="-8.70476">
        <ele>28.417</ele>
        <time>2018-07-28T14:16:25Z</time>
      </trkpt>
      <trkpt lat="42.24431" lon="-8.70468">
        <ele>28.908</ele>
        <time>2018-07-28T14:16:26Z</time>
      </trkpt>
      <trkpt lat="42.24436" lon="-8.7046">
        <ele>29.356</ele>
        <time>2018-07-28T14:16:27Z</time>
      </trkpt>
      <trkpt lat="42.24442" lon="-8.70452">
        <ele>29.681</ele>
        <time>2018-07-28T14:16:28Z</time>
      </trkpt>
      <trkpt lat="42.24449" lon="-8.70447">
        <ele>29.964</ele>
        <time>2018-07-28T14:16:29Z</time>
      </trkpt>
      <trkpt lat="42.24456" lon="-8.7044">
        <ele>30.226</ele>
        <time>2018-07-28T14:16:30Z</time>
      </trkpt>
      <trkpt lat="42.24463" lon="-8.70433">
        <ele>30.631</ele>
        <time>2018-07-28T14:16:31Z</time>
      </trkpt>
      <trkpt lat="42.2447" lon="-8.70425">
        <ele>30.926</ele>
        <time>2018-07-28T14:16:32Z</time>
      </trkpt>
      <trkpt lat="42.24475" lon="-8.70416">
        <ele>31.224</ele>
        <time>2018-07-28T14:16:33Z</time>
      </trkpt>
      <trkpt lat="42.24482" lon="-8.70408">
        <ele>31.51</ele>
        <time>2018-07-28T14:16:34Z</time>
      </trkpt>
      <trkpt lat="42.24489" lon="-8.70399">
        <ele>31.947</ele>
        <time>2018-07-28T14:16:35Z</time>
      </trkpt>
      <trkpt lat="42.24496" lon="-8.70387">
        <ele>32.329</ele>
        <time>2018-07-28T14:16:36Z</time>
      </trkpt>
      <trkpt lat="42.24505" lon="-8.70378">
        <ele>32.821</ele>
        <time>2018-07-28T14:16:37Z</time>
      </trkpt>
      <trkpt lat="42.24512" lon="-8.70368">
        <ele>33.308</ele>
        <time>2018-07-28T14:16:38Z</time>
      </trkpt>
      <trkpt lat="42.24519" lon="-8.70357">
        <ele>33.796</ele>
        <time>2018-07-28T14:16:39Z</time>
      </trkpt>
      <trkpt lat="42.24526" lon="-8.70347">
        <ele>33.961</ele>
        <time>2018-07-28T14:16:40Z</time>
      </trkpt>
      <trkpt lat="42.24534" lon="-8.70338">
        <ele>34.164</ele>
        <time>2018-07-28T14:16:41Z</time>
      </trkpt>
      <trkpt lat="42.24541" lon="-8.70328">
        <ele>34.366</ele>
        <time>2018-07-28T14:16:42Z</time>
      </trkpt>
      <trkpt lat="42.24547" lon="-8.7032">
        <ele>34.461</ele>
        <time>2018-07-28T14:16:43Z</time>
      </trkpt>
      <trkpt lat="42.24553" lon="-8.70311">
        <ele>34.596</ele>
        <time>2018-07-28T14:16:44Z</time>
      </trkpt>
      <trkpt lat="42.24558" lon="-8.70304">
        <ele>34.894</ele>
        <time>2018-07-28T14:16:45Z</time>
      </trkpt>
      <trkpt lat="42.24562" lon="-8.70297">
        <ele>35.09</ele>
        <time>2018-07-28T14:16:46Z</time>
      </trkpt>
      <trkpt lat="42.24566" lon="-8.70291">
        <ele>35.075</ele>
        <time>2018-07-28T14:16:47Z</time>
      </trkpt>
      <trkpt lat="42.24571" lon="-8.70285">
        <ele>35.028</ele>
        <time>2018-07-28T14:16:48Z</time>
      </trkpt>
      <trkpt lat="42.24575" lon="-8.7028">
        <ele>34.82</ele>
        <time>2018-07-28T14:16:49Z</time>
      </trkpt>
      <trkpt lat="42.24579" lon="-8.70276">
        <ele>34.808</ele>
        <time>2018-07-28T14:16:50Z</time>
      </trkpt>
      <trkpt lat="42.24582" lon="-8.70271">
        <ele>34.829</ele>
        <time>2018-07-28T14:16:51Z</time>
      </trkpt>
      <trkpt lat="42.24588" lon="-8.70261">
        <ele>35.024</ele>
        <time>2018-07-28T14:16:53Z</time>
      </trkpt>
      <trkpt lat="42.24591" lon="-8.70253">
        <ele>35.177</ele>
        <time>2018-07-28T14:16:54Z</time>
      </trkpt>
      <trkpt lat="42.24595" lon="-8.70244">
        <ele>35.419</ele>
        <time>2018-07-28T14:16:55Z</time>
      </trkpt>
      <trkpt lat="42.24601" lon="-8.70236">
        <ele>35.784</ele>
        <time>2018-07-28T14:16:56Z</time>
      </trkpt>
      <trkpt lat="42.24605" lon="-8.70228">
        <ele>36.069</ele>
        <time>2018-07-28T14:16:57Z</time>
      </trkpt>
      <trkpt lat="42.24609" lon="-8.70221">
        <ele>36.297</ele>
        <time>2018-07-28T14:16:58Z</time>
      </trkpt>
      <trkpt lat="42.24613" lon="-8.70214">
        <ele>36.483</ele>
        <time>2018-07-28T14:16:59Z</time>
      </trkpt>
      <trkpt lat="42.24617" lon="-8.70206">
        <ele>36.568</ele>
        <time>2018-07-28T14:17:00Z</time>
      </trkpt>
      <trkpt lat="42.24622" lon="-8.70199">
        <ele>36.542</ele>
        <time>2018-07-28T14:17:01Z</time>
      </trkpt>
      <trkpt lat="42.24628" lon="-8.70191">
        <ele>36.626</ele>
        <time>2018-07-28T14:17:02Z</time>
      </trkpt>
      <trkpt lat="42.24636" lon="-8.70182">
        <ele>36.908</ele>
        <time>2018-07-28T14:17:03Z</time>
      </trkpt>
      <trkpt lat="42.24643" lon="-8.70172">
        <ele>37.388</ele>
        <time>2018-07-28T14:17:04Z</time>
      </trkpt>
      <trkpt lat="42.24649" lon="-8.70163">
        <ele>37.643</ele>
        <time>2018-07-28T14:17:05Z</time>
      </trkpt>
      <trkpt lat="42.24655" lon="-8.70154">
        <ele>38.386</ele>
        <time>2018-07-28T14:17:06Z</time>
      </trkpt>
      <trkpt lat="42.24661" lon="-8.70146">
        <ele>38.638</ele>
        <time>2018-07-28T14:17:07Z</time>
      </trkpt>
      <trkpt lat="42.24666" lon="-8.70138">
        <ele>38.853</ele>
        <time>2018-07-28T14:17:08Z</time>
      </trkpt>
      <trkpt lat="42.24673" lon="-8.70126">
        <ele>38.928</ele>
        <time>2018-07-28T14:17:09Z</time>
      </trkpt>
      <trkpt lat="42.24676" lon="-8.7012">
        <ele>39.016</ele>
        <time>2018-07-28T14:17:10Z</time>
      </trkpt>
      <trkpt lat="42.24679" lon="-8.70114">
        <ele>38.922</ele>
        <time>2018-07-28T14:17:12Z</time>
      </trkpt>
      <trkpt lat="42.24679" lon="-8.70107">
        <ele>38.423</ele>
        <time>2018-07-28T14:17:18Z</time>
      </trkpt>
      <trkpt lat="42.24688" lon="-8.70096">
        <ele>38.683</ele>
        <time>2018-07-28T14:17:20Z</time>
      </trkpt>
      <trkpt lat="42.24693" lon="-8.70088">
        <ele>38.811</ele>
        <time>2018-07-28T14:17:21Z</time>
      </trkpt>
      <trkpt lat="42.24697" lon="-8.70082">
        <ele>39.108</ele>
        <time>2018-07-28T14:17:22Z</time>
      </trkpt>
      <trkpt lat="42.24703" lon="-8.70074">
        <ele>39.474</ele>
        <time>2018-07-28T14:17:23Z</time>
      </trkpt>
      <trkpt lat="42.24709" lon="-8.70064">
        <ele>39.919</ele>
        <time>2018-07-28T14:17:24Z</time>
      </trkpt>
      <trkpt lat="42.24714" lon="-8.70054">
        <ele>40.192</ele>
        <time>2018-07-28T14:17:25Z</time>
      </trkpt>
      <trkpt lat="42.2472" lon="-8.70045">
        <ele>40.344</ele>
        <time>2018-07-28T14:17:26Z</time>
      </trkpt>
      <trkpt lat="42.24725" lon="-8.70036">
        <ele>40.679</ele>
        <time>2018-07-28T14:17:27Z</time>
      </trkpt>
      <trkpt lat="42.24732" lon="-8.70024">
        <ele>40.914</ele>
        <time>2018-07-28T14:17:28Z</time>
      </trkpt>
      <trkpt lat="42.24738" lon="-8.70014">
        <ele>41.152</ele>
        <time>2018-07-28T14:17:29Z</time>
      </trkpt>
      <trkpt lat="42.24742" lon="-8.70006">
        <ele>41.238</ele>
        <time>2018-07-28T14:17:30Z</time>
      </trkpt>
      <trkpt lat="42.24746" lon="-8.69999">
        <ele>41.243</ele>
        <time>2018-07-28T14:17:31Z</time>
      </trkpt>
      <trkpt lat="42.24749" lon="-8.69993">
        <ele>41.264</ele>
        <time>2018-07-28T14:17:32Z</time>
      </trkpt>
      <trkpt lat="42.24752" lon="-8.69988">
        <ele>41.21</ele>
        <time>2018-07-28T14:17:33Z</time>
      </trkpt>
      <trkpt lat="42.24755" lon="-8.69982">
        <ele>41.208</ele>
        <time>2018-07-28T14:17:34Z</time>
      </trkpt>
      <trkpt lat="42.24758" lon="-8.69975">
        <ele>41.316</ele>
        <time>2018-07-28T14:17:35Z</time>
      </trkpt>
      <trkpt lat="42.24763" lon="-8.69968">
        <ele>41.621</ele>
        <time>2018-07-28T14:17:36Z</time>
      </trkpt>
      <trkpt lat="42.24767" lon="-8.69961">
        <ele>41.974</ele>
        <time>2018-07-28T14:17:37Z</time>
      </trkpt>
      <trkpt lat="42.24773" lon="-8.69955">
        <ele>42.336</ele>
        <time>2018-07-28T14:17:38Z</time>
      </trkpt>
      <trkpt lat="42.24777" lon="-8.6995">
        <ele>42.631</ele>
        <time>2018-07-28T14:17:39Z</time>
      </trkpt>
      <trkpt lat="42.2478" lon="-8.69946">
        <ele>42.886</ele>
        <time>2018-07-28T14:17:40Z</time>
      </trkpt>
      <trkpt lat="42.24784" lon="-8.69939">
        <ele>43.094</ele>
        <time>2018-07-28T14:17:41Z</time>
      </trkpt>
      <trkpt lat="42.24789" lon="-8.6993">
        <ele>43.49</ele>
        <time>2018-07-28T14:17:42Z</time>
      </trkpt>
      <trkpt lat="42.24795" lon="-8.69922">
        <ele>43.717</ele>
        <time>2018-07-28T14:17:43Z</time>
      </trkpt>
      <trkpt lat="42.24799" lon="-8.69913">
        <ele>44.087</ele>
        <time>2018-07-28T14:17:44Z</time>
      </trkpt>
      <trkpt lat="42.24799" lon="-8.69907">
        <ele>44.215</ele>
        <time>2018-07-28T14:17:45Z</time>
      </trkpt>
      <trkpt lat="42.24794" lon="-8.69904">
        <ele>44.308</ele>
        <time>2018-07-28T14:17:48Z</time>
      </trkpt>
      <trkpt lat="42.24791" lon="-8.69899">
        <ele>44.243</ele>
        <time>2018-07-28T14:17:55Z</time>
      </trkpt>
      <trkpt lat="42.24788" lon="-8.69894">
        <ele>44.468</ele>
        <time>2018-07-28T14:18:01Z</time>
      </trkpt>
      <trkpt lat="42.24789" lon="-8.69886">
        <ele>44.481</ele>
        <time>2018-07-28T14:18:10Z</time>
      </trkpt>
      <trkpt lat="42.24794" lon="-8.69881">
        <ele>44.543</ele>
        <time>2018-07-28T14:18:11Z</time>
      </trkpt>
      <trkpt lat="42.24799" lon="-8.69876">
        <ele>44.778</ele>
        <time>2018-07-28T14:18:12Z</time>
      </trkpt>
      <trkpt lat="42.24803" lon="-8.6987">
        <ele>45.043</ele>
        <time>2018-07-28T14:18:13Z</time>
      </trkpt>
      <trkpt lat="42.24808" lon="-8.69867">
        <ele>45.651</ele>
        <time>2018-07-28T14:18:15Z</time>
      </trkpt>
      <trkpt lat="42.24812" lon="-8.69862">
        <ele>45.677</ele>
        <time>2018-07-28T14:18:21Z</time>
      </trkpt>
      <trkpt lat="42.24818" lon="-8.69856">
        <ele>45.673</ele>
        <time>2018-07-28T14:18:23Z</time>
      </trkpt>
      <trkpt lat="42.24825" lon="-8.69848">
        <ele>45.885</ele>
        <time>2018-07-28T14:18:25Z</time>
      </trkpt>
      <trkpt lat="42.24831" lon="-8.69839">
        <ele>46.113</ele>
        <time>2018-07-28T14:18:27Z</time>
      </trkpt>
      <trkpt lat="42.24837" lon="-8.69832">
        <ele>46.308</ele>
        <time>2018-07-28T14:18:28Z</time>
      </trkpt>
      <trkpt lat="42.24841" lon="-8.69825">
        <ele>46.619</ele>
        <time>2018-07-28T14:18:29Z</time>
      </trkpt>
      <trkpt lat="42.24845" lon="-8.69817">
        <ele>47.114</ele>
        <time>2018-07-28T14:18:31Z</time>
      </trkpt>
      <trkpt lat="42.24844" lon="-8.69809">
        <ele>47.547</ele>
        <time>2018-07-28T14:18:33Z</time>
      </trkpt>
      <trkpt lat="42.24844" lon="-8.69802">
        <ele>47.619</ele>
        <time>2018-07-28T14:18:35Z</time>
      </trkpt>
      <trkpt lat="42.24848" lon="-8.69799">
        <ele>47.964</ele>
        <time>2018-07-28T14:18:41Z</time>
      </trkpt>
      <trkpt lat="42.24853" lon="-8.69795">
        <ele>48.029</ele>
        <time>2018-07-28T14:18:42Z</time>
      </trkpt>
      <trkpt lat="42.24858" lon="-8.69792">
        <ele>48.137</ele>
        <time>2018-07-28T14:18:44Z</time>
      </trkpt>
      <trkpt lat="42.24865" lon="-8.69784">
        <ele>48.453</ele>
        <time>2018-07-28T14:18:46Z</time>
      </trkpt>
      <trkpt lat="42.2487" lon="-8.69778">
        <ele>48.644</ele>
        <time>2018-07-28T14:18:47Z</time>
      </trkpt>
      <trkpt lat="42.24877" lon="-8.6977">
        <ele>48.905</ele>
        <time>2018-07-28T14:18:49Z</time>
      </trkpt>
      <trkpt lat="42.24881" lon="-8.69766">
        <ele>49.015</ele>
        <time>2018-07-28T14:18:50Z</time>
      </trkpt>
      <trkpt lat="42.24887" lon="-8.69758">
        <ele>49.408</ele>
        <time>2018-07-28T14:18:52Z</time>
      </trkpt>
      <trkpt lat="42.24894" lon="-8.6975">
        <ele>49.876</ele>
        <time>2018-07-28T14:18:54Z</time>
      </trkpt>
      <trkpt lat="42.24897" lon="-8.69745">
        <ele>50.111</ele>
        <time>2018-07-28T14:18:55Z</time>
      </trkpt>
      <trkpt lat="42.249" lon="-8.6974">
        <ele>50.344</ele>
        <time>2018-07-28T14:18:56Z</time>
      </trkpt>
      <trkpt lat="42.24905" lon="-8.69734">
        <ele>50.546</ele>
        <time>2018-07-28T14:18:57Z</time>
      </trkpt>
      <trkpt lat="42.24908" lon="-8.6973">
        <ele>50.761</ele>
        <time>2018-07-28T14:18:58Z</time>
      </trkpt>
      <trkpt lat="42.24913" lon="-8.69721">
        <ele>50.916</ele>
        <time>2018-07-28T14:19:00Z</time>
      </trkpt>
      <trkpt lat="42.2492" lon="-8.69711">
        <ele>51.094</ele>
        <time>2018-07-28T14:19:02Z</time>
      </trkpt>
      <trkpt lat="42.24923" lon="-8.69703">
        <ele>51.32</ele>
        <time>2018-07-28T14:19:04Z</time>
      </trkpt>
      <trkpt lat="42.24927" lon="-8.69695">
        <ele>51.695</ele>
        <time>2018-07-28T14:19:06Z</time>
      </trkpt>
      <trkpt lat="42.24935" lon="-8.69687">
        <ele>52.049</ele>
        <time>2018-07-28T14:19:08Z</time>
      </trkpt>
      <trkpt lat="42.24938" lon="-8.69681">
        <ele>52.423</ele>
        <time>2018-07-28T14:19:09Z</time>
      </trkpt>
      <trkpt lat="42.24941" lon="-8.69676">
        <ele>52.608</ele>
        <time>2018-07-28T14:19:10Z</time>
      </trkpt>
      <trkpt lat="42.24945" lon="-8.69671">
        <ele>52.821</ele>
        <time>2018-07-28T14:19:11Z</time>
      </trkpt>
      <trkpt lat="42.24948" lon="-8.69667">
        <ele>53.066</ele>
        <time>2018-07-28T14:19:12Z</time>
      </trkpt>
      <trkpt lat="42.24952" lon="-8.69659">
        <ele>53.479</ele>
        <time>2018-07-28T14:19:14Z</time>
      </trkpt>
      <trkpt lat="42.24958" lon="-8.69651">
        <ele>53.951</ele>
        <time>2018-07-28T14:19:16Z</time>
      </trkpt>
      <trkpt lat="42.24962" lon="-8.69646">
        <ele>54.286</ele>
        <time>2018-07-28T14:19:17Z</time>
      </trkpt>
      <trkpt lat="42.24966" lon="-8.69638">
        <ele>54.521</ele>
        <time>2018-07-28T14:19:18Z</time>
      </trkpt>
      <trkpt lat="42.24971" lon="-8.69631">
        <ele>54.819</ele>
        <time>2018-07-28T14:19:19Z</time>
      </trkpt>
      <trkpt lat="42.24974" lon="-8.69625">
        <ele>55.165</ele>
        <time>2018-07-28T14:19:20Z</time>
      </trkpt>
      <trkpt lat="42.24977" lon="-8.69619">
        <ele>55.431</ele>
        <time>2018-07-28T14:19:21Z</time>
      </trkpt>
      <trkpt lat="42.2498" lon="-8.69613">
        <ele>55.761</ele>
        <time>2018-07-28T14:19:23Z</time>
      </trkpt>
      <trkpt lat="42.24976" lon="-8.69611">
        <ele>55.707</ele>
        <time>2018-07-28T14:19:37Z</time>
      </trkpt>
      <trkpt lat="42.24971" lon="-8.69611">
        <ele>55.508</ele>
        <time>2018-07-28T14:19:59Z</time>
      </trkpt>
      <trkpt lat="42.24978" lon="-8.69602">
        <ele>55.995</ele>
        <time>2018-07-28T14:20:25Z</time>
      </trkpt>
      <trkpt lat="42.24982" lon="-8.69595">
        <ele>56.22</ele>
        <time>2018-07-28T14:20:26Z</time>
      </trkpt>
      <trkpt lat="42.24986" lon="-8.69587">
        <ele>56.543</ele>
        <time>2018-07-28T14:20:27Z</time>
      </trkpt>
      <trkpt lat="42.24991" lon="-8.69579">
        <ele>56.835</ele>
        <time>2018-07-28T14:20:28Z</time>
      </trkpt>
      <trkpt lat="42.24995" lon="-8.69572">
        <ele>57.16</ele>
        <time>2018-07-28T14:20:29Z</time>
      </trkpt>
      <trkpt lat="42.25" lon="-8.69564">
        <ele>57.485</ele>
        <time>2018-07-28T14:20:30Z</time>
      </trkpt>
      <trkpt lat="42.25005" lon="-8.69556">
        <ele>57.663</ele>
        <time>2018-07-28T14:20:31Z</time>
      </trkpt>
      <trkpt lat="42.2501" lon="-8.6955">
        <ele>57.919</ele>
        <time>2018-07-28T14:20:32Z</time>
      </trkpt>
      <trkpt lat="42.25014" lon="-8.69544">
        <ele>58.096</ele>
        <time>2018-07-28T14:20:33Z</time>
      </trkpt>
      <trkpt lat="42.25017" lon="-8.6954">
        <ele>58.031</ele>
        <time>2018-07-28T14:20:34Z</time>
      </trkpt>
      <trkpt lat="42.25022" lon="-8.69531">
        <ele>58.024</ele>
        <time>2018-07-28T14:20:36Z</time>
      </trkpt>
      <trkpt lat="42.25025" lon="-8.69526">
        <ele>58.008</ele>
        <time>2018-07-28T14:20:37Z</time>
      </trkpt>
      <trkpt lat="42.25032" lon="-8.69519">
        <ele>58.121</ele>
        <time>2018-07-28T14:20:39Z</time>
      </trkpt>
      <trkpt lat="42.25036" lon="-8.69515">
        <ele>58.116</ele>
        <time>2018-07-28T14:20:40Z</time>
      </trkpt>
      <trkpt lat="42.25041" lon="-8.69511">
        <ele>58.119</ele>
        <time>2018-07-28T14:20:41Z</time>
      </trkpt>
      <trkpt lat="42.25046" lon="-8.69506">
        <ele>58.111</ele>
        <time>2018-07-28T14:20:42Z</time>
      </trkpt>
      <trkpt lat="42.25051" lon="-8.695">
        <ele>58.116</ele>
        <time>2018-07-28T14:20:43Z</time>
      </trkpt>
      <trkpt lat="42.25057" lon="-8.69494">
        <ele>58.051</ele>
        <time>2018-07-28T14:20:44Z</time>
      </trkpt>
      <trkpt lat="42.25062" lon="-8.69489">
        <ele>57.939</ele>
        <time>2018-07-28T14:20:45Z</time>
      </trkpt>
      <trkpt lat="42.25067" lon="-8.69483">
        <ele>57.835</ele>
        <time>2018-07-28T14:20:46Z</time>
      </trkpt>
      <trkpt lat="42.25072" lon="-8.69477">
        <ele>57.644</ele>
        <time>2018-07-28T14:20:47Z</time>
      </trkpt>
      <trkpt lat="42.25078" lon="-8.69472">
        <ele>57.405</ele>
        <time>2018-07-28T14:20:48Z</time>
      </trkpt>
      <trkpt lat="42.25084" lon="-8.69465">
        <ele>57.215</ele>
        <time>2018-07-28T14:20:49Z</time>
      </trkpt>
      <trkpt lat="42.2509" lon="-8.69458">
        <ele>57.108</ele>
        <time>2018-07-28T14:20:50Z</time>
      </trkpt>
      <trkpt lat="42.25096" lon="-8.69452">
        <ele>56.826</ele>
        <time>2018-07-28T14:20:51Z</time>
      </trkpt>
      <trkpt lat="42.251" lon="-8.69446">
        <ele>56.571</ele>
        <time>2018-07-28T14:20:52Z</time>
      </trkpt>
      <trkpt lat="42.25102" lon="-8.6944">
        <ele>56.144</ele>
        <time>2018-07-28T14:20:53Z</time>
      </trkpt>
      <trkpt lat="42.25104" lon="-8.6943">
        <ele>55.136</ele>
        <time>2018-07-28T14:20:55Z</time>
      </trkpt>
      <trkpt lat="42.25107" lon="-8.69424">
        <ele>53.821</ele>
        <time>2018-07-28T14:20:59Z</time>
      </trkpt>
      <trkpt lat="42.25109" lon="-8.69419">
        <ele>53.486</ele>
        <time>2018-07-28T14:21:27Z</time>
      </trkpt>
      <trkpt lat="42.25113" lon="-8.69409">
        <ele>53.374</ele>
        <time>2018-07-28T14:21:29Z</time>
      </trkpt>
      <trkpt lat="42.25116" lon="-8.69401">
        <ele>53.25</ele>
        <time>2018-07-28T14:21:30Z</time>
      </trkpt>
      <trkpt lat="42.25119" lon="-8.69392">
        <ele>53.115</ele>
        <time>2018-07-28T14:21:31Z</time>
      </trkpt>
      <trkpt lat="42.25122" lon="-8.69382">
        <ele>53.065</ele>
        <time>2018-07-28T14:21:32Z</time>
      </trkpt>
      <trkpt lat="42.25125" lon="-8.69371">
        <ele>52.911</ele>
        <time>2018-07-28T14:21:33Z</time>
      </trkpt>
      <trkpt lat="42.25129" lon="-8.69359">
        <ele>52.808</ele>
        <time>2018-07-28T14:21:34Z</time>
      </trkpt>
      <trkpt lat="42.25131" lon="-8.69346">
        <ele>52.743</ele>
        <time>2018-07-28T14:21:35Z</time>
      </trkpt>
      <trkpt lat="42.25134" lon="-8.69332">
        <ele>52.628</ele>
        <time>2018-07-28T14:21:36Z</time>
      </trkpt>
      <trkpt lat="42.25137" lon="-8.69318">
        <ele>52.331</ele>
        <time>2018-07-28T14:21:37Z</time>
      </trkpt>
      <trkpt lat="42.25139" lon="-8.69305">
        <ele>52.083</ele>
        <time>2018-07-28T14:21:38Z</time>
      </trkpt>
      <trkpt lat="42.25141" lon="-8.69292">
        <ele>51.768</ele>
        <time>2018-07-28T14:21:39Z</time>
      </trkpt>
      <trkpt lat="42.25142" lon="-8.69278">
        <ele>51.223</ele>
        <time>2018-07-28T14:21:40Z</time>
      </trkpt>
      <trkpt lat="42.25142" lon="-8.69264">
        <ele>50.721</ele>
        <time>2018-07-28T14:21:41Z</time>
      </trkpt>
      <trkpt lat="42.25141" lon="-8.69251">
        <ele>50.237</ele>
        <time>2018-07-28T14:21:42Z</time>
      </trkpt>
      <trkpt lat="42.25141" lon="-8.69237">
        <ele>49.883</ele>
        <time>2018-07-28T14:21:43Z</time>
      </trkpt>
      <trkpt lat="42.25139" lon="-8.69223">
        <ele>49.425</ele>
        <time>2018-07-28T14:21:44Z</time>
      </trkpt>
      <trkpt lat="42.25136" lon="-8.69209">
        <ele>49.217</ele>
        <time>2018-07-28T14:21:45Z</time>
      </trkpt>
      <trkpt lat="42.25133" lon="-8.69195">
        <ele>49.008</ele>
        <time>2018-07-28T14:21:46Z</time>
      </trkpt>
      <trkpt lat="42.25128" lon="-8.69182">
        <ele>48.89</ele>
        <time>2018-07-28T14:21:47Z</time>
      </trkpt>
      <trkpt lat="42.25123" lon="-8.6917">
        <ele>48.575</ele>
        <time>2018-07-28T14:21:48Z</time>
      </trkpt>
      <trkpt lat="42.25117" lon="-8.69158">
        <ele>48.148</ele>
        <time>2018-07-28T14:21:49Z</time>
      </trkpt>
      <trkpt lat="42.2511" lon="-8.69145">
        <ele>47.44</ele>
        <time>2018-07-28T14:21:50Z</time>
      </trkpt>
      <trkpt lat="42.25103" lon="-8.69133">
        <ele>47.355</ele>
        <time>2018-07-28T14:21:51Z</time>
      </trkpt>
      <trkpt lat="42.25095" lon="-8.6912">
        <ele>47.35</ele>
        <time>2018-07-28T14:21:52Z</time>
      </trkpt>
      <trkpt lat="42.25087" lon="-8.69107">
        <ele>47.628</ele>
        <time>2018-07-28T14:21:53Z</time>
      </trkpt>
      <trkpt lat="42.25079" lon="-8.69094">
        <ele>47.754</ele>
        <time>2018-07-28T14:21:54Z</time>
      </trkpt>
      <trkpt lat="42.25072" lon="-8.69081">
        <ele>47.714</ele>
        <time>2018-07-28T14:21:55Z</time>
      </trkpt>
      <trkpt lat="42.25067" lon="-8.69067">
        <ele>47.754</ele>
        <time>2018-07-28T14:21:56Z</time>
      </trkpt>
      <trkpt lat="42.25065" lon="-8.69051">
        <ele>47.609</ele>
        <time>2018-07-28T14:21:57Z</time>
      </trkpt>
      <trkpt lat="42.25066" lon="-8.69036">
        <ele>47.208</ele>
        <time>2018-07-28T14:21:58Z</time>
      </trkpt>
      <trkpt lat="42.2507" lon="-8.69021">
        <ele>46.983</ele>
        <time>2018-07-28T14:21:59Z</time>
      </trkpt>
      <trkpt lat="42.25077" lon="-8.69007">
        <ele>46.628</ele>
        <time>2018-07-28T14:22:00Z</time>
      </trkpt>
      <trkpt lat="42.25086" lon="-8.68996">
        <ele>46.351</ele>
        <time>2018-07-28T14:22:01Z</time>
      </trkpt>
      <trkpt lat="42.25095" lon="-8.68985">
        <ele>46.053</ele>
        <time>2018-07-28T14:22:02Z</time>
      </trkpt>
      <trkpt lat="42.25104" lon="-8.68974">
        <ele>45.758</ele>
        <time>2018-07-28T14:22:03Z</time>
      </trkpt>
      <trkpt lat="42.25112" lon="-8.68964">
        <ele>45.453</ele>
        <time>2018-07-28T14:22:04Z</time>
      </trkpt>
      <trkpt lat="42.2512" lon="-8.68954">
        <ele>45.291</ele>
        <time>2018-07-28T14:22:05Z</time>
      </trkpt>
      <trkpt lat="42.25129" lon="-8.68945">
        <ele>45.077</ele>
        <time>2018-07-28T14:22:06Z</time>
      </trkpt>
      <trkpt lat="42.25137" lon="-8.68934">
        <ele>44.754</ele>
        <time>2018-07-28T14:22:07Z</time>
      </trkpt>
      <trkpt lat="42.25146" lon="-8.68924">
        <ele>44.356</ele>
        <time>2018-07-28T14:22:08Z</time>
      </trkpt>
      <trkpt lat="42.25156" lon="-8.68913">
        <ele>44.111</ele>
        <time>2018-07-28T14:22:09Z</time>
      </trkpt>
      <trkpt lat="42.25165" lon="-8.68902">
        <ele>44.108</ele>
        <time>2018-07-28T14:22:10Z</time>
      </trkpt>
      <trkpt lat="42.25174" lon="-8.6889">
        <ele>44.297</ele>
        <time>2018-07-28T14:22:11Z</time>
      </trkpt>
      <trkpt lat="42.25183" lon="-8.68878">
        <ele>44.442</ele>
        <time>2018-07-28T14:22:12Z</time>
      </trkpt>
      <trkpt lat="42.25193" lon="-8.68867">
        <ele>44.585</ele>
        <time>2018-07-28T14:22:13Z</time>
      </trkpt>
      <trkpt lat="42.25202" lon="-8.68855">
        <ele>44.767</ele>
        <time>2018-07-28T14:22:14Z</time>
      </trkpt>
      <trkpt lat="42.25211" lon="-8.68843">
        <ele>44.922</ele>
        <time>2018-07-28T14:22:15Z</time>
      </trkpt>
      <trkpt lat="42.25221" lon="-8.68832">
        <ele>45.317</ele>
        <time>2018-07-28T14:22:16Z</time>
      </trkpt>
      <trkpt lat="42.2523" lon="-8.68821">
        <ele>45.675</ele>
        <time>2018-07-28T14:22:17Z</time>
      </trkpt>
      <trkpt lat="42.2524" lon="-8.6881">
        <ele>46.121</ele>
        <time>2018-07-28T14:22:18Z</time>
      </trkpt>
      <trkpt lat="42.25251" lon="-8.688">
        <ele>46.593</ele>
        <time>2018-07-28T14:22:19Z</time>
      </trkpt>
      <trkpt lat="42.25262" lon="-8.68791">
        <ele>46.865</ele>
        <time>2018-07-28T14:22:20Z</time>
      </trkpt>
      <trkpt lat="42.25273" lon="-8.68783">
        <ele>47.321</ele>
        <time>2018-07-28T14:22:21Z</time>
      </trkpt>
      <trkpt lat="42.25284" lon="-8.68776">
        <ele>47.708</ele>
        <time>2018-07-28T14:22:22Z</time>
      </trkpt>
      <trkpt lat="42.25296" lon="-8.68771">
        <ele>47.911</ele>
        <time>2018-07-28T14:22:23Z</time>
      </trkpt>
      <trkpt lat="42.25308" lon="-8.68766">
        <ele>48.196</ele>
        <time>2018-07-28T14:22:24Z</time>
      </trkpt>
      <trkpt lat="42.2532" lon="-8.68761">
        <ele>48.599</ele>
        <time>2018-07-28T14:22:25Z</time>
      </trkpt>
      <trkpt lat="42.25329" lon="-8.68748">
        <ele>48.781</ele>
        <time>2018-07-28T14:22:26Z</time>
      </trkpt>
      <trkpt lat="42.25339" lon="-8.68734">
        <ele>49.516</ele>
        <time>2018-07-28T14:22:27Z</time>
      </trkpt>
      <trkpt lat="42.25349" lon="-8.6872">
        <ele>50.121</ele>
        <time>2018-07-28T14:22:28Z</time>
      </trkpt>
      <trkpt lat="42.25358" lon="-8.68707">
        <ele>50.649</ele>
        <time>2018-07-28T14:22:29Z</time>
      </trkpt>
      <trkpt lat="42.25368" lon="-8.68695">
        <ele>51.065</ele>
        <time>2018-07-28T14:22:30Z</time>
      </trkpt>
      <trkpt lat="42.25376" lon="-8.68682">
        <ele>51.627</ele>
        <time>2018-07-28T14:22:31Z</time>
      </trkpt>
      <trkpt lat="42.25385" lon="-8.68669">
        <ele>52.168</ele>
        <time>2018-07-28T14:22:32Z</time>
      </trkpt>
      <trkpt lat="42.25394" lon="-8.68656">
        <ele>52.614</ele>
        <time>2018-07-28T14:22:33Z</time>
      </trkpt>
      <trkpt lat="42.25404" lon="-8.68643">
        <ele>53.108</ele>
        <time>2018-07-28T14:22:34Z</time>
      </trkpt>
      <trkpt lat="42.25413" lon="-8.6863">
        <ele>53.624</ele>
        <time>2018-07-28T14:22:35Z</time>
      </trkpt>
      <trkpt lat="42.25421" lon="-8.68617">
        <ele>54.269</ele>
        <time>2018-07-28T14:22:36Z</time>
      </trkpt>
      <trkpt lat="42.25431" lon="-8.68604">
        <ele>54.782</ele>
        <time>2018-07-28T14:22:37Z</time>
      </trkpt>
      <trkpt lat="42.2544" lon="-8.6859">
        <ele>55.234</ele>
        <time>2018-07-28T14:22:38Z</time>
      </trkpt>
      <trkpt lat="42.25448" lon="-8.68575">
        <ele>55.759</ele>
        <time>2018-07-28T14:22:39Z</time>
      </trkpt>
      <trkpt lat="42.25456" lon="-8.6856">
        <ele>56.294</ele>
        <time>2018-07-28T14:22:40Z</time>
      </trkpt>
      <trkpt lat="42.25465" lon="-8.68546">
        <ele>56.652</ele>
        <time>2018-07-28T14:22:41Z</time>
      </trkpt>
      <trkpt lat="42.25473" lon="-8.68532">
        <ele>57.088</ele>
        <time>2018-07-28T14:22:42Z</time>
      </trkpt>
      <trkpt lat="42.25481" lon="-8.68519">
        <ele>57.314</ele>
        <time>2018-07-28T14:22:43Z</time>
      </trkpt>
      <trkpt lat="42.25489" lon="-8.68506">
        <ele>57.554</ele>
        <time>2018-07-28T14:22:44Z</time>
      </trkpt>
      <trkpt lat="42.25497" lon="-8.68495">
        <ele>57.609</ele>
        <time>2018-07-28T14:22:45Z</time>
      </trkpt>
      <trkpt lat="42.25506" lon="-8.68483">
        <ele>57.708</ele>
        <time>2018-07-28T14:22:46Z</time>
      </trkpt>
      <trkpt lat="42.25514" lon="-8.68472">
        <ele>58.113</ele>
        <time>2018-07-28T14:22:47Z</time>
      </trkpt>
      <trkpt lat="42.25523" lon="-8.6846">
        <ele>58.588</ele>
        <time>2018-07-28T14:22:48Z</time>
      </trkpt>
      <trkpt lat="42.25531" lon="-8.68448">
        <ele>59.161</ele>
        <time>2018-07-28T14:22:49Z</time>
      </trkpt>
      <trkpt lat="42.2554" lon="-8.68436">
        <ele>59.653</ele>
        <time>2018-07-28T14:22:50Z</time>
      </trkpt>
      <trkpt lat="42.25548" lon="-8.68424">
        <ele>60.158</ele>
        <time>2018-07-28T14:22:51Z</time>
      </trkpt>
      <trkpt lat="42.25556" lon="-8.68411">
        <ele>60.673</ele>
        <time>2018-07-28T14:22:52Z</time>
      </trkpt>
      <trkpt lat="42.25563" lon="-8.684">
        <ele>61.111</ele>
        <time>2018-07-28T14:22:53Z</time>
      </trkpt>
      <trkpt lat="42.2557" lon="-8.68388">
        <ele>61.497</ele>
        <time>2018-07-28T14:22:54Z</time>
      </trkpt>
      <trkpt lat="42.25577" lon="-8.68378">
        <ele>61.742</ele>
        <time>2018-07-28T14:22:55Z</time>
      </trkpt>
      <trkpt lat="42.25584" lon="-8.68369">
        <ele>61.822</ele>
        <time>2018-07-28T14:22:56Z</time>
      </trkpt>
      <trkpt lat="42.2559" lon="-8.68361">
        <ele>61.814</ele>
        <time>2018-07-28T14:22:57Z</time>
      </trkpt>
      <trkpt lat="42.25595" lon="-8.68353">
        <ele>61.708</ele>
        <time>2018-07-28T14:22:58Z</time>
      </trkpt>
      <trkpt lat="42.256" lon="-8.68347">
        <ele>61.616</ele>
        <time>2018-07-28T14:22:59Z</time>
      </trkpt>
      <trkpt lat="42.25605" lon="-8.68341">
        <ele>61.531</ele>
        <time>2018-07-28T14:23:00Z</time>
      </trkpt>
      <trkpt lat="42.2561" lon="-8.68334">
        <ele>61.374</ele>
        <time>2018-07-28T14:23:01Z</time>
      </trkpt>
      <trkpt lat="42.25616" lon="-8.68327">
        <ele>61.176</ele>
        <time>2018-07-28T14:23:02Z</time>
      </trkpt>
      <trkpt lat="42.25621" lon="-8.68319">
        <ele>61.111</ele>
        <time>2018-07-28T14:23:03Z</time>
      </trkpt>
      <trkpt lat="42.25626" lon="-8.6831">
        <ele>61.286</ele>
        <time>2018-07-28T14:23:04Z</time>
      </trkpt>
      <trkpt lat="42.2563" lon="-8.68302">
        <ele>61.274</ele>
        <time>2018-07-28T14:23:05Z</time>
      </trkpt>
      <trkpt lat="42.25635" lon="-8.68294">
        <ele>61.29</ele>
        <time>2018-07-28T14:23:06Z</time>
      </trkpt>
      <trkpt lat="42.25639" lon="-8.68285">
        <ele>61.114</ele>
        <time>2018-07-28T14:23:07Z</time>
      </trkpt>
      <trkpt lat="42.25644" lon="-8.68277">
        <ele>60.954</ele>
        <time>2018-07-28T14:23:08Z</time>
      </trkpt>
      <trkpt lat="42.25649" lon="-8.68271">
        <ele>60.709</ele>
        <time>2018-07-28T14:23:09Z</time>
      </trkpt>
      <trkpt lat="42.25654" lon="-8.68263">
        <ele>60.508</ele>
        <time>2018-07-28T14:23:10Z</time>
      </trkpt>
      <trkpt lat="42.25659" lon="-8.68254">
        <ele>60.413</ele>
        <time>2018-07-28T14:23:11Z</time>
      </trkpt>
      <trkpt lat="42.25664" lon="-8.68245">
        <ele>60.358</ele>
        <time>2018-07-28T14:23:12Z</time>
      </trkpt>
      <trkpt lat="42.25669" lon="-8.68237">
        <ele>60.321</ele>
        <time>2018-07-28T14:23:13Z</time>
      </trkpt>
      <trkpt lat="42.25674" lon="-8.68228">
        <ele>60.273</ele>
        <time>2018-07-28T14:23:14Z</time>
      </trkpt>
      <trkpt lat="42.25679" lon="-8.68221">
        <ele>60.158</ele>
        <time>2018-07-28T14:23:15Z</time>
      </trkpt>
      <trkpt lat="42.25684" lon="-8.68215">
        <ele>59.953</ele>
        <time>2018-07-28T14:23:16Z</time>
      </trkpt>
      <trkpt lat="42.25688" lon="-8.68209">
        <ele>59.591</ele>
        <time>2018-07-28T14:23:17Z</time>
      </trkpt>
      <trkpt lat="42.25692" lon="-8.68203">
        <ele>59.127</ele>
        <time>2018-07-28T14:23:18Z</time>
      </trkpt>
      <trkpt lat="42.25696" lon="-8.68199">
        <ele>58.776</ele>
        <time>2018-07-28T14:23:19Z</time>
      </trkpt>
      <trkpt lat="42.25699" lon="-8.68193">
        <ele>58.49</ele>
        <time>2018-07-28T14:23:20Z</time>
      </trkpt>
      <trkpt lat="42.25702" lon="-8.68188">
        <ele>57.919</ele>
        <time>2018-07-28T14:23:21Z</time>
      </trkpt>
      <trkpt lat="42.25704" lon="-8.68183">
        <ele>57.708</ele>
        <time>2018-07-28T14:23:22Z</time>
      </trkpt>
      <trkpt lat="42.25707" lon="-8.68177">
        <ele>57.689</ele>
        <time>2018-07-28T14:23:23Z</time>
      </trkpt>
      <trkpt lat="42.2571" lon="-8.68172">
        <ele>57.494</ele>
        <time>2018-07-28T14:23:24Z</time>
      </trkpt>
      <trkpt lat="42.25713" lon="-8.68169">
        <ele>57.267</ele>
        <time>2018-07-28T14:23:25Z</time>
      </trkpt>
      <trkpt lat="42.25717" lon="-8.68166">
        <ele>57.139</ele>
        <time>2018-07-28T14:23:26Z</time>
      </trkpt>
      <trkpt lat="42.25723" lon="-8.68161">
        <ele>56.784</ele>
        <time>2018-07-28T14:23:28Z</time>
      </trkpt>
      <trkpt lat="42.25728" lon="-8.68158">
        <ele>56.259</ele>
        <time>2018-07-28T14:23:31Z</time>
      </trkpt>
      <trkpt lat="42.25731" lon="-8.68164">
        <ele>56.037</ele>
        <time>2018-07-28T14:23:34Z</time>
      </trkpt>
      <trkpt lat="42.25731" lon="-8.68172">
        <ele>56.433</ele>
        <time>2018-07-28T14:23:38Z</time>
      </trkpt>
      <trkpt lat="42.25728" lon="-8.68176">
        <ele>56.387</ele>
        <time>2018-07-28T14:23:47Z</time>
      </trkpt>
      <trkpt lat="42.25723" lon="-8.6818">
        <ele>56.642</ele>
        <time>2018-07-28T14:23:49Z</time>
      </trkpt>
      <trkpt lat="42.25719" lon="-8.68187">
        <ele>57.026</ele>
        <time>2018-07-28T14:23:50Z</time>
      </trkpt>
      <trkpt lat="42.25714" lon="-8.68193">
        <ele>57.408</ele>
        <time>2018-07-28T14:23:51Z</time>
      </trkpt>
      <trkpt lat="42.25709" lon="-8.682">
        <ele>57.96</ele>
        <time>2018-07-28T14:23:52Z</time>
      </trkpt>
      <trkpt lat="42.25704" lon="-8.68207">
        <ele>58.495</ele>
        <time>2018-07-28T14:23:53Z</time>
      </trkpt>
      <trkpt lat="42.25701" lon="-8.68213">
        <ele>58.828</ele>
        <time>2018-07-28T14:23:54Z</time>
      </trkpt>
      <trkpt lat="42.25697" lon="-8.6822">
        <ele>58.99</ele>
        <time>2018-07-28T14:23:56Z</time>
      </trkpt>
      <trkpt lat="42.25694" lon="-8.68225">
        <ele>58.595</ele>
        <time>2018-07-28T14:23:59Z</time>
      </trkpt>
      <trkpt lat="42.25691" lon="-8.6823">
        <ele>58.69</ele>
        <time>2018-07-28T14:24:01Z</time>
      </trkpt>
      <trkpt lat="42.25683" lon="-8.68239">
        <ele>59.238</ele>
        <time>2018-07-28T14:24:03Z</time>
      </trkpt>
      <trkpt lat="42.25677" lon="-8.68245">
        <ele>59.694</ele>
        <time>2018-07-28T14:24:04Z</time>
      </trkpt>
      <trkpt lat="42.25671" lon="-8.68252">
        <ele>60.132</ele>
        <time>2018-07-28T14:24:05Z</time>
      </trkpt>
      <trkpt lat="42.25666" lon="-8.68259">
        <ele>60.492</ele>
        <time>2018-07-28T14:24:06Z</time>
      </trkpt>
      <trkpt lat="42.2566" lon="-8.68268">
        <ele>60.811</ele>
        <time>2018-07-28T14:24:07Z</time>
      </trkpt>
      <trkpt lat="42.25652" lon="-8.68278">
        <ele>61.208</ele>
        <time>2018-07-28T14:24:08Z</time>
      </trkpt>
      <trkpt lat="42.25644" lon="-8.6829">
        <ele>61.735</ele>
        <time>2018-07-28T14:24:09Z</time>
      </trkpt>
      <trkpt lat="42.25636" lon="-8.68302">
        <ele>62.53</ele>
        <time>2018-07-28T14:24:10Z</time>
      </trkpt>
      <trkpt lat="42.25629" lon="-8.68313">
        <ele>63.413</ele>
        <time>2018-07-28T14:24:11Z</time>
      </trkpt>
      <trkpt lat="42.25621" lon="-8.68324">
        <ele>64.815</ele>
        <time>2018-07-28T14:24:12Z</time>
      </trkpt>
      <trkpt lat="42.25614" lon="-8.68335">
        <ele>65.29</ele>
        <time>2018-07-28T14:24:13Z</time>
      </trkpt>
      <trkpt lat="42.25606" lon="-8.68345">
        <ele>65.245</ele>
        <time>2018-07-28T14:24:14Z</time>
      </trkpt>
      <trkpt lat="42.256" lon="-8.68355">
        <ele>65.243</ele>
        <time>2018-07-28T14:24:15Z</time>
      </trkpt>
      <trkpt lat="42.25594" lon="-8.68365">
        <ele>64.939</ele>
        <time>2018-07-28T14:24:16Z</time>
      </trkpt>
      <trkpt lat="42.25587" lon="-8.68375">
        <ele>64.731</ele>
        <time>2018-07-28T14:24:17Z</time>
      </trkpt>
      <trkpt lat="42.2558" lon="-8.68384">
        <ele>64.461</ele>
        <time>2018-07-28T14:24:18Z</time>
      </trkpt>
      <trkpt lat="42.25573" lon="-8.68395">
        <ele>64.107</ele>
        <time>2018-07-28T14:24:19Z</time>
      </trkpt>
      <trkpt lat="42.25566" lon="-8.68404">
        <ele>64.008</ele>
        <time>2018-07-28T14:24:20Z</time>
      </trkpt>
      <trkpt lat="42.2556" lon="-8.68413">
        <ele>63.985</ele>
        <time>2018-07-28T14:24:21Z</time>
      </trkpt>
      <trkpt lat="42.25555" lon="-8.6842">
        <ele>63.91</ele>
        <time>2018-07-28T14:24:22Z</time>
      </trkpt>
      <trkpt lat="42.25551" lon="-8.68426">
        <ele>63.543</ele>
        <time>2018-07-28T14:24:23Z</time>
      </trkpt>
      <trkpt lat="42.25549" lon="-8.68433">
        <ele>63.035</ele>
        <time>2018-07-28T14:24:24Z</time>
      </trkpt>
      <trkpt lat="42.25547" lon="-8.68439">
        <ele>62.36</ele>
        <time>2018-07-28T14:24:25Z</time>
      </trkpt>
      <trkpt lat="42.25545" lon="-8.68446">
        <ele>61.725</ele>
        <time>2018-07-28T14:24:26Z</time>
      </trkpt>
      <trkpt lat="42.25544" lon="-8.68453">
        <ele>61.013</ele>
        <time>2018-07-28T14:24:27Z</time>
      </trkpt>
      <trkpt lat="42.25543" lon="-8.68461">
        <ele>60.619</ele>
        <time>2018-07-28T14:24:28Z</time>
      </trkpt>
      <trkpt lat="42.25543" lon="-8.68469">
        <ele>59.513</ele>
        <time>2018-07-28T14:24:30Z</time>
      </trkpt>
      <trkpt lat="42.25542" lon="-8.68475">
        <ele>59.043</ele>
        <time>2018-07-28T14:24:32Z</time>
      </trkpt>
      <trkpt lat="42.25544" lon="-8.68482">
        <ele>58.107</ele>
        <time>2018-07-28T14:24:38Z</time>
      </trkpt>
      <trkpt lat="42.25543" lon="-8.68488">
        <ele>58.208</ele>
        <time>2018-07-28T14:25:52Z</time>
      </trkpt>
      <trkpt lat="42.25539" lon="-8.6849">
        <ele>58.233</ele>
        <time>2018-07-28T14:26:55Z</time>
      </trkpt>
      <trkpt lat="42.25542" lon="-8.68494">
        <ele>58.478</ele>
        <time>2018-07-28T14:28:47Z</time>
      </trkpt>
      <trkpt lat="42.25539" lon="-8.6849">
        <ele>58.471</ele>
        <time>2018-07-28T14:28:57Z</time>
      </trkpt>
      <trkpt lat="42.25533" lon="-8.68491">
        <ele>58.443</ele>
        <time>2018-07-28T14:29:04Z</time>
      </trkpt>
      <trkpt lat="42.25529" lon="-8.68491">
        <ele>58.248</ele>
        <time>2018-07-28T14:29:12Z</time>
      </trkpt>
      <trkpt lat="42.25523" lon="-8.68491">
        <ele>58.453</ele>
        <time>2018-07-28T14:29:16Z</time>
      </trkpt>
      <trkpt lat="42.25518" lon="-8.68497">
        <ele>58.441</ele>
        <time>2018-07-28T14:29:18Z</time>
      </trkpt>
      <trkpt lat="42.2552" lon="-8.68507">
        <ele>58.237</ele>
        <time>2018-07-28T14:29:20Z</time>
      </trkpt>
      <trkpt lat="42.25525" lon="-8.68514">
        <ele>57.591</ele>
        <time>2018-07-28T14:29:22Z</time>
      </trkpt>
      <trkpt lat="42.25532" lon="-8.6851">
        <ele>56.681</ele>
        <time>2018-07-28T14:29:24Z</time>
      </trkpt>
      <trkpt lat="42.25535" lon="-8.68505">
        <ele>56.219</ele>
        <time>2018-07-28T14:29:25Z</time>
      </trkpt>
      <trkpt lat="42.25538" lon="-8.685">
        <ele>56.008</ele>
        <time>2018-07-28T14:29:26Z</time>
      </trkpt>
      <trkpt lat="42.25541" lon="-8.68495">
        <ele>56.081</ele>
        <time>2018-07-28T14:29:27Z</time>
      </trkpt>
      <trkpt lat="42.25545" lon="-8.68485">
        <ele>56.136</ele>
        <time>2018-07-28T14:29:29Z</time>
      </trkpt>
      <trkpt lat="42.25547" lon="-8.68474">
        <ele>56.539</ele>
        <time>2018-07-28T14:29:31Z</time>
      </trkpt>
      <trkpt lat="42.25544" lon="-8.68466">
        <ele>57.621</ele>
        <time>2018-07-28T14:29:33Z</time>
      </trkpt>
      <trkpt lat="42.25542" lon="-8.6846">
        <ele>58.826</ele>
        <time>2018-07-28T14:29:39Z</time>
      </trkpt>
      <trkpt lat="42.25534" lon="-8.68462">
        <ele>59.091</ele>
        <time>2018-07-28T14:29:42Z</time>
      </trkpt>
      <trkpt lat="42.2553" lon="-8.68466">
        <ele>59.199</ele>
        <time>2018-07-28T14:29:43Z</time>
      </trkpt>
      <trkpt lat="42.25526" lon="-8.68472">
        <ele>59.225</ele>
        <time>2018-07-28T14:29:44Z</time>
      </trkpt>
      <trkpt lat="42.25521" lon="-8.68478">
        <ele>59.272</ele>
        <time>2018-07-28T14:29:45Z</time>
      </trkpt>
      <trkpt lat="42.25515" lon="-8.68485">
        <ele>59.213</ele>
        <time>2018-07-28T14:29:46Z</time>
      </trkpt>
      <trkpt lat="42.25509" lon="-8.68491">
        <ele>59.214</ele>
        <time>2018-07-28T14:29:47Z</time>
      </trkpt>
      <trkpt lat="42.25503" lon="-8.68499">
        <ele>59.208</ele>
        <time>2018-07-28T14:29:48Z</time>
      </trkpt>
      <trkpt lat="42.25496" lon="-8.68507">
        <ele>59.349</ele>
        <time>2018-07-28T14:29:49Z</time>
      </trkpt>
      <trkpt lat="42.25489" lon="-8.68515">
        <ele>59.364</ele>
        <time>2018-07-28T14:29:50Z</time>
      </trkpt>
      <trkpt lat="42.25483" lon="-8.68523">
        <ele>59.287</ele>
        <time>2018-07-28T14:29:51Z</time>
      </trkpt>
      <trkpt lat="42.25477" lon="-8.6853">
        <ele>59.099</ele>
        <time>2018-07-28T14:29:52Z</time>
      </trkpt>
      <trkpt lat="42.25472" lon="-8.68536">
        <ele>58.644</ele>
        <time>2018-07-28T14:29:53Z</time>
      </trkpt>
      <trkpt lat="42.25467" lon="-8.68541">
        <ele>58.039</ele>
        <time>2018-07-28T14:29:54Z</time>
      </trkpt>
      <trkpt lat="42.25463" lon="-8.68546">
        <ele>57.467</ele>
        <time>2018-07-28T14:29:55Z</time>
      </trkpt>
      <trkpt lat="42.2546" lon="-8.68551">
        <ele>56.883</ele>
        <time>2018-07-28T14:29:56Z</time>
      </trkpt>
      <trkpt lat="42.25456" lon="-8.68556">
        <ele>56.283</ele>
        <time>2018-07-28T14:29:57Z</time>
      </trkpt>
      <trkpt lat="42.25449" lon="-8.68562">
        <ele>55.325</ele>
        <time>2018-07-28T14:29:59Z</time>
      </trkpt>
      <trkpt lat="42.25443" lon="-8.6857">
        <ele>54.817</ele>
        <time>2018-07-28T14:30:01Z</time>
      </trkpt>
      <trkpt lat="42.25439" lon="-8.68565">
        <ele>53.908</ele>
        <time>2018-07-28T14:30:05Z</time>
      </trkpt>
      <trkpt lat="42.25443" lon="-8.68561">
        <ele>53.89</ele>
        <time>2018-07-28T14:30:06Z</time>
      </trkpt>
      <trkpt lat="42.25448" lon="-8.68556">
        <ele>53.865</ele>
        <time>2018-07-28T14:30:07Z</time>
      </trkpt>
      <trkpt lat="42.25453" lon="-8.68548">
        <ele>54.068</ele>
        <time>2018-07-28T14:30:08Z</time>
      </trkpt>
      <trkpt lat="42.25459" lon="-8.68539">
        <ele>54.45</ele>
        <time>2018-07-28T14:30:09Z</time>
      </trkpt>
      <trkpt lat="42.25466" lon="-8.6853">
        <ele>55.025</ele>
        <time>2018-07-28T14:30:10Z</time>
      </trkpt>
      <trkpt lat="42.25473" lon="-8.68522">
        <ele>55.55</ele>
        <time>2018-07-28T14:30:11Z</time>
      </trkpt>
      <trkpt lat="42.2548" lon="-8.68514">
        <ele>55.978</ele>
        <time>2018-07-28T14:30:12Z</time>
      </trkpt>
      <trkpt lat="42.25486" lon="-8.68507">
        <ele>56.234</ele>
        <time>2018-07-28T14:30:13Z</time>
      </trkpt>
      <trkpt lat="42.25492" lon="-8.68499">
        <ele>56.327</ele>
        <time>2018-07-28T14:30:14Z</time>
      </trkpt>
      <trkpt lat="42.25499" lon="-8.68491">
        <ele>56.468</ele>
        <time>2018-07-28T14:30:15Z</time>
      </trkpt>
      <trkpt lat="42.25506" lon="-8.68483">
        <ele>56.714</ele>
        <time>2018-07-28T14:30:16Z</time>
      </trkpt>
      <trkpt lat="42.25513" lon="-8.68474">
        <ele>57.108</ele>
        <time>2018-07-28T14:30:17Z</time>
      </trkpt>
      <trkpt lat="42.25521" lon="-8.68464">
        <ele>57.644</ele>
        <time>2018-07-28T14:30:18Z</time>
      </trkpt>
      <trkpt lat="42.25529" lon="-8.68454">
        <ele>58.119</ele>
        <time>2018-07-28T14:30:19Z</time>
      </trkpt>
      <trkpt lat="42.25538" lon="-8.68442">
        <ele>58.862</ele>
        <time>2018-07-28T14:30:20Z</time>
      </trkpt>
      <trkpt lat="42.25546" lon="-8.68431">
        <ele>60.264</ele>
        <time>2018-07-28T14:30:21Z</time>
      </trkpt>
      <trkpt lat="42.25555" lon="-8.68419">
        <ele>61.059</ele>
        <time>2018-07-28T14:30:22Z</time>
      </trkpt>
      <trkpt lat="42.25563" lon="-8.68407">
        <ele>61.684</ele>
        <time>2018-07-28T14:30:23Z</time>
      </trkpt>
      <trkpt lat="42.25571" lon="-8.68395">
        <ele>62.192</ele>
        <time>2018-07-28T14:30:24Z</time>
      </trkpt>
      <trkpt lat="42.25579" lon="-8.68383">
        <ele>62.458</ele>
        <time>2018-07-28T14:30:25Z</time>
      </trkpt>
      <trkpt lat="42.25587" lon="-8.6837">
        <ele>62.792</ele>
        <time>2018-07-28T14:30:26Z</time>
      </trkpt>
      <trkpt lat="42.25596" lon="-8.68357">
        <ele>62.873</ele>
        <time>2018-07-28T14:30:27Z</time>
      </trkpt>
      <trkpt lat="42.25604" lon="-8.68343">
        <ele>63.02</ele>
        <time>2018-07-28T14:30:28Z</time>
      </trkpt>
      <trkpt lat="42.25613" lon="-8.6833">
        <ele>63.208</ele>
        <time>2018-07-28T14:30:29Z</time>
      </trkpt>
      <trkpt lat="42.25621" lon="-8.68317">
        <ele>63.571</ele>
        <time>2018-07-28T14:30:30Z</time>
      </trkpt>
      <trkpt lat="42.25629" lon="-8.68305">
        <ele>63.656</ele>
        <time>2018-07-28T14:30:31Z</time>
      </trkpt>
      <trkpt lat="42.25637" lon="-8.68293">
        <ele>63.649</ele>
        <time>2018-07-28T14:30:32Z</time>
      </trkpt>
      <trkpt lat="42.25644" lon="-8.68282">
        <ele>63.541</ele>
        <time>2018-07-28T14:30:33Z</time>
      </trkpt>
      <trkpt lat="42.25651" lon="-8.68272">
        <ele>63.346</ele>
        <time>2018-07-28T14:30:34Z</time>
      </trkpt>
      <trkpt lat="42.25658" lon="-8.68262">
        <ele>62.911</ele>
        <time>2018-07-28T14:30:35Z</time>
      </trkpt>
      <trkpt lat="42.25664" lon="-8.68252">
        <ele>62.529</ele>
        <time>2018-07-28T14:30:36Z</time>
      </trkpt>
      <trkpt lat="42.2567" lon="-8.68243">
        <ele>62.225</ele>
        <time>2018-07-28T14:30:37Z</time>
      </trkpt>
      <trkpt lat="42.25676" lon="-8.68235">
        <ele>61.492</ele>
        <time>2018-07-28T14:30:38Z</time>
      </trkpt>
      <trkpt lat="42.25681" lon="-8.68227">
        <ele>61.073</ele>
        <time>2018-07-28T14:30:39Z</time>
      </trkpt>
      <trkpt lat="42.25686" lon="-8.68218">
        <ele>60.62</ele>
        <time>2018-07-28T14:30:40Z</time>
      </trkpt>
      <trkpt lat="42.25691" lon="-8.68211">
        <ele>60.208</ele>
        <time>2018-07-28T14:30:41Z</time>
      </trkpt>
      <trkpt lat="42.25695" lon="-8.68204">
        <ele>59.911</ele>
        <time>2018-07-28T14:30:42Z</time>
      </trkpt>
      <trkpt lat="42.25699" lon="-8.68198">
        <ele>59.776</ele>
        <time>2018-07-28T14:30:43Z</time>
      </trkpt>
      <trkpt lat="42.25702" lon="-8.68194">
        <ele>59.599</ele>
        <time>2018-07-28T14:30:44Z</time>
      </trkpt>
      <trkpt lat="42.25707" lon="-8.68187">
        <ele>58.731</ele>
        <time>2018-07-28T14:30:46Z</time>
      </trkpt>
      <trkpt lat="42.2571" lon="-8.68181">
        <ele>57.986</ele>
        <time>2018-07-28T14:30:48Z</time>
      </trkpt>
      <trkpt lat="42.25713" lon="-8.68174">
        <ele>57.131</ele>
        <time>2018-07-28T14:31:03Z</time>
      </trkpt>
      <trkpt lat="42.25717" lon="-8.68168">
        <ele>57.079</ele>
        <time>2018-07-28T14:31:05Z</time>
      </trkpt>
      <trkpt lat="42.2572" lon="-8.68163">
        <ele>57.085</ele>
        <time>2018-07-28T14:31:06Z</time>
      </trkpt>
      <trkpt lat="42.25724" lon="-8.68157">
        <ele>57.099</ele>
        <time>2018-07-28T14:31:07Z</time>
      </trkpt>
      <trkpt lat="42.25729" lon="-8.68148">
        <ele>57.107</ele>
        <time>2018-07-28T14:31:08Z</time>
      </trkpt>
      <trkpt lat="42.25735" lon="-8.68137">
        <ele>57.327</ele>
        <time>2018-07-28T14:31:09Z</time>
      </trkpt>
      <trkpt lat="42.25741" lon="-8.68127">
        <ele>57.408</ele>
        <time>2018-07-28T14:31:10Z</time>
      </trkpt>
      <trkpt lat="42.25748" lon="-8.68116">
        <ele>57.681</ele>
        <time>2018-07-28T14:31:11Z</time>
      </trkpt>
      <trkpt lat="42.25756" lon="-8.68105">
        <ele>57.716</ele>
        <time>2018-07-28T14:31:12Z</time>
      </trkpt>
      <trkpt lat="42.25766" lon="-8.68096">
        <ele>57.549</ele>
        <time>2018-07-28T14:31:13Z</time>
      </trkpt>
      <trkpt lat="42.25777" lon="-8.68087">
        <ele>57.331</ele>
        <time>2018-07-28T14:31:14Z</time>
      </trkpt>
      <trkpt lat="42.25787" lon="-8.68078">
        <ele>57.146</ele>
        <time>2018-07-28T14:31:15Z</time>
      </trkpt>
      <trkpt lat="42.25797" lon="-8.6807">
        <ele>56.891</ele>
        <time>2018-07-28T14:31:16Z</time>
      </trkpt>
      <trkpt lat="42.25807" lon="-8.68062">
        <ele>56.699</ele>
        <time>2018-07-28T14:31:17Z</time>
      </trkpt>
      <trkpt lat="42.25817" lon="-8.68054">
        <ele>56.485</ele>
        <time>2018-07-28T14:31:18Z</time>
      </trkpt>
      <trkpt lat="42.25826" lon="-8.68047">
        <ele>55.938</ele>
        <time>2018-07-28T14:31:19Z</time>
      </trkpt>
      <trkpt lat="42.25835" lon="-8.6804">
        <ele>55.37</ele>
        <time>2018-07-28T14:31:20Z</time>
      </trkpt>
      <trkpt lat="42.25844" lon="-8.68033">
        <ele>54.717</ele>
        <time>2018-07-28T14:31:21Z</time>
      </trkpt>
      <trkpt lat="42.25853" lon="-8.68027">
        <ele>54.108</ele>
        <time>2018-07-28T14:31:22Z</time>
      </trkpt>
      <trkpt lat="42.25861" lon="-8.68019">
        <ele>53.585</ele>
        <time>2018-07-28T14:31:23Z</time>
      </trkpt>
      <trkpt lat="42.25869" lon="-8.68012">
        <ele>53.39</ele>
        <time>2018-07-28T14:31:24Z</time>
      </trkpt>
      <trkpt lat="42.25879" lon="-8.68006">
        <ele>53.153</ele>
        <time>2018-07-28T14:31:25Z</time>
      </trkpt>
      <trkpt lat="42.25888" lon="-8.67998">
        <ele>53.025</ele>
        <time>2018-07-28T14:31:26Z</time>
      </trkpt>
      <trkpt lat="42.25899" lon="-8.6799">
        <ele>53.03</ele>
        <time>2018-07-28T14:31:27Z</time>
      </trkpt>
      <trkpt lat="42.25909" lon="-8.67983">
        <ele>52.815</ele>
        <time>2018-07-28T14:31:28Z</time>
      </trkpt>
      <trkpt lat="42.25921" lon="-8.67975">
        <ele>52.723</ele>
        <time>2018-07-28T14:31:29Z</time>
      </trkpt>
      <trkpt lat="42.25933" lon="-8.67967">
        <ele>52.499</ele>
        <time>2018-07-28T14:31:30Z</time>
      </trkpt>
      <trkpt lat="42.25945" lon="-8.6796">
        <ele>52.323</ele>
        <time>2018-07-28T14:31:31Z</time>
      </trkpt>
      <trkpt lat="42.25958" lon="-8.67956">
        <ele>52.183</ele>
        <time>2018-07-28T14:31:32Z</time>
      </trkpt>
      <trkpt lat="42.25972" lon="-8.67952">
        <ele>51.911</ele>
        <time>2018-07-28T14:31:33Z</time>
      </trkpt>
      <trkpt lat="42.25984" lon="-8.67948">
        <ele>51.608</ele>
        <time>2018-07-28T14:31:34Z</time>
      </trkpt>
      <trkpt lat="42.25994" lon="-8.67936">
        <ele>51.224</ele>
        <time>2018-07-28T14:31:35Z</time>
      </trkpt>
      <trkpt lat="42.26004" lon="-8.67924">
        <ele>50.859</ele>
        <time>2018-07-28T14:31:36Z</time>
      </trkpt>
      <trkpt lat="42.26015" lon="-8.67913">
        <ele>50.312</ele>
        <time>2018-07-28T14:31:37Z</time>
      </trkpt>
      <trkpt lat="42.26025" lon="-8.67902">
        <ele>49.844</ele>
        <time>2018-07-28T14:31:38Z</time>
      </trkpt>
      <trkpt lat="42.26036" lon="-8.67891">
        <ele>49.219</ele>
        <time>2018-07-28T14:31:39Z</time>
      </trkpt>
      <trkpt lat="42.26046" lon="-8.67881">
        <ele>48.614</ele>
        <time>2018-07-28T14:31:40Z</time>
      </trkpt>
      <trkpt lat="42.26057" lon="-8.67871">
        <ele>48.092</ele>
        <time>2018-07-28T14:31:41Z</time>
      </trkpt>
      <trkpt lat="42.26067" lon="-8.6786">
        <ele>47.358</ele>
        <time>2018-07-28T14:31:42Z</time>
      </trkpt>
      <trkpt lat="42.26077" lon="-8.67851">
        <ele>46.454</ele>
        <time>2018-07-28T14:31:43Z</time>
      </trkpt>
      <trkpt lat="42.26088" lon="-8.67842">
        <ele>45.756</ele>
        <time>2018-07-28T14:31:44Z</time>
      </trkpt>
      <trkpt lat="42.26097" lon="-8.67832">
        <ele>44.211</ele>
        <time>2018-07-28T14:31:45Z</time>
      </trkpt>
      <trkpt lat="42.26105" lon="-8.67821">
        <ele>43.408</ele>
        <time>2018-07-28T14:31:46Z</time>
      </trkpt>
      <trkpt lat="42.26112" lon="-8.67808">
        <ele>42.657</ele>
        <time>2018-07-28T14:31:47Z</time>
      </trkpt>
      <trkpt lat="42.26121" lon="-8.67796">
        <ele>41.942</ele>
        <time>2018-07-28T14:31:48Z</time>
      </trkpt>
      <trkpt lat="42.26129" lon="-8.67784">
        <ele>41.255</ele>
        <time>2018-07-28T14:31:49Z</time>
      </trkpt>
      <trkpt lat="42.26137" lon="-8.67771">
        <ele>40.667</ele>
        <time>2018-07-28T14:31:50Z</time>
      </trkpt>
      <trkpt lat="42.26145" lon="-8.67759">
        <ele>40.152</ele>
        <time>2018-07-28T14:31:51Z</time>
      </trkpt>
      <trkpt lat="42.26153" lon="-8.67747">
        <ele>39.757</ele>
        <time>2018-07-28T14:31:52Z</time>
      </trkpt>
      <trkpt lat="42.26161" lon="-8.67736">
        <ele>39.295</ele>
        <time>2018-07-28T14:31:53Z</time>
      </trkpt>
      <trkpt lat="42.26168" lon="-8.67726">
        <ele>38.941</ele>
        <time>2018-07-28T14:31:54Z</time>
      </trkpt>
      <trkpt lat="42.26175" lon="-8.67716">
        <ele>38.394</ele>
        <time>2018-07-28T14:31:55Z</time>
      </trkpt>
      <trkpt lat="42.26181" lon="-8.67706">
        <ele>37.957</ele>
        <time>2018-07-28T14:31:56Z</time>
      </trkpt>
      <trkpt lat="42.26188" lon="-8.67696">
        <ele>37.822</ele>
        <time>2018-07-28T14:31:57Z</time>
      </trkpt>
      <trkpt lat="42.26195" lon="-8.67686">
        <ele>37.708</ele>
        <time>2018-07-28T14:31:58Z</time>
      </trkpt>
      <trkpt lat="42.26203" lon="-8.67676">
        <ele>37.751</ele>
        <time>2018-07-28T14:31:59Z</time>
      </trkpt>
      <trkpt lat="42.26211" lon="-8.67664">
        <ele>37.976</ele>
        <time>2018-07-28T14:32:00Z</time>
      </trkpt>
      <trkpt lat="42.2622" lon="-8.67653">
        <ele>38.289</ele>
        <time>2018-07-28T14:32:01Z</time>
      </trkpt>
      <trkpt lat="42.26228" lon="-8.67641">
        <ele>39.521</ele>
        <time>2018-07-28T14:32:02Z</time>
      </trkpt>
      <trkpt lat="42.26235" lon="-8.67629">
        <ele>40.186</ele>
        <time>2018-07-28T14:32:03Z</time>
      </trkpt>
      <trkpt lat="42.26243" lon="-8.67617">
        <ele>40.941</ele>
        <time>2018-07-28T14:32:04Z</time>
      </trkpt>
      <trkpt lat="42.2625" lon="-8.67607">
        <ele>41.629</ele>
        <time>2018-07-28T14:32:05Z</time>
      </trkpt>
      <trkpt lat="42.26257" lon="-8.67596">
        <ele>42.195</ele>
        <time>2018-07-28T14:32:06Z</time>
      </trkpt>
      <trkpt lat="42.26262" lon="-8.67584">
        <ele>42.466</ele>
        <time>2018-07-28T14:32:07Z</time>
      </trkpt>
      <trkpt lat="42.26266" lon="-8.67573">
        <ele>42.529</ele>
        <time>2018-07-28T14:32:08Z</time>
      </trkpt>
      <trkpt lat="42.2627" lon="-8.67562">
        <ele>42.521</ele>
        <time>2018-07-28T14:32:09Z</time>
      </trkpt>
      <trkpt lat="42.26274" lon="-8.67551">
        <ele>42.208</ele>
        <time>2018-07-28T14:32:10Z</time>
      </trkpt>
      <trkpt lat="42.26278" lon="-8.67538">
        <ele>41.768</ele>
        <time>2018-07-28T14:32:11Z</time>
      </trkpt>
      <trkpt lat="42.26281" lon="-8.67526">
        <ele>41.263</ele>
        <time>2018-07-28T14:32:12Z</time>
      </trkpt>
      <trkpt lat="42.26283" lon="-8.67512">
        <ele>40.886</ele>
        <time>2018-07-28T14:32:13Z</time>
      </trkpt>
      <trkpt lat="42.26285" lon="-8.67497">
        <ele>40.558</ele>
        <time>2018-07-28T14:32:14Z</time>
      </trkpt>
      <trkpt lat="42.2629" lon="-8.67483">
        <ele>40.373</ele>
        <time>2018-07-28T14:32:15Z</time>
      </trkpt>
      <trkpt lat="42.26296" lon="-8.6747">
        <ele>40.358</ele>
        <time>2018-07-28T14:32:16Z</time>
      </trkpt>
      <trkpt lat="42.26304" lon="-8.67459">
        <ele>40.266</ele>
        <time>2018-07-28T14:32:17Z</time>
      </trkpt>
      <trkpt lat="42.26312" lon="-8.67448">
        <ele>40.112</ele>
        <time>2018-07-28T14:32:18Z</time>
      </trkpt>
      <trkpt lat="42.26323" lon="-8.6744">
        <ele>39.538</ele>
        <time>2018-07-28T14:32:19Z</time>
      </trkpt>
      <trkpt lat="42.26333" lon="-8.67434">
        <ele>38.97</ele>
        <time>2018-07-28T14:32:20Z</time>
      </trkpt>
      <trkpt lat="42.26344" lon="-8.67429">
        <ele>38.417</ele>
        <time>2018-07-28T14:32:21Z</time>
      </trkpt>
      <trkpt lat="42.26354" lon="-8.67425">
        <ele>38.008</ele>
        <time>2018-07-28T14:32:22Z</time>
      </trkpt>
      <trkpt lat="42.26364" lon="-8.67423">
        <ele>37.765</ele>
        <time>2018-07-28T14:32:23Z</time>
      </trkpt>
      <trkpt lat="42.26374" lon="-8.6742">
        <ele>37.48</ele>
        <time>2018-07-28T14:32:24Z</time>
      </trkpt>
      <trkpt lat="42.26385" lon="-8.67419">
        <ele>37.043</ele>
        <time>2018-07-28T14:32:25Z</time>
      </trkpt>
      <trkpt lat="42.26395" lon="-8.67418">
        <ele>36.775</ele>
        <time>2018-07-28T14:32:26Z</time>
      </trkpt>
      <trkpt lat="42.26406" lon="-8.67415">
        <ele>36.51</ele>
        <time>2018-07-28T14:32:27Z</time>
      </trkpt>
      <trkpt lat="42.26416" lon="-8.67413">
        <ele>36.265</ele>
        <time>2018-07-28T14:32:28Z</time>
      </trkpt>
      <trkpt lat="42.26427" lon="-8.67409">
        <ele>35.953</ele>
        <time>2018-07-28T14:32:29Z</time>
      </trkpt>
      <trkpt lat="42.26437" lon="-8.67406">
        <ele>35.799</ele>
        <time>2018-07-28T14:32:30Z</time>
      </trkpt>
      <trkpt lat="42.26447" lon="-8.67402">
        <ele>35.644</ele>
        <time>2018-07-28T14:32:31Z</time>
      </trkpt>
      <trkpt lat="42.26457" lon="-8.67398">
        <ele>35.305</ele>
        <time>2018-07-28T14:32:32Z</time>
      </trkpt>
      <trkpt lat="42.26468" lon="-8.67393">
        <ele>35.215</ele>
        <time>2018-07-28T14:32:33Z</time>
      </trkpt>
      <trkpt lat="42.26479" lon="-8.67389">
        <ele>35.208</ele>
        <time>2018-07-28T14:32:34Z</time>
      </trkpt>
      <trkpt lat="42.26491" lon="-8.67385">
        <ele>35.426</ele>
        <time>2018-07-28T14:32:35Z</time>
      </trkpt>
      <trkpt lat="42.26502" lon="-8.67382">
        <ele>35.921</ele>
        <time>2018-07-28T14:32:36Z</time>
      </trkpt>
      <trkpt lat="42.26513" lon="-8.67377">
        <ele>36.234</ele>
        <time>2018-07-28T14:32:37Z</time>
      </trkpt>
      <trkpt lat="42.26522" lon="-8.67373">
        <ele>36.296</ele>
        <time>2018-07-28T14:32:38Z</time>
      </trkpt>
      <trkpt lat="42.26531" lon="-8.67368">
        <ele>36.171</ele>
        <time>2018-07-28T14:32:39Z</time>
      </trkpt>
      <trkpt lat="42.26541" lon="-8.67366">
        <ele>36.056</ele>
        <time>2018-07-28T14:32:40Z</time>
      </trkpt>
      <trkpt lat="42.26551" lon="-8.67361">
        <ele>35.934</ele>
        <time>2018-07-28T14:32:41Z</time>
      </trkpt>
      <trkpt lat="42.2656" lon="-8.67354">
        <ele>35.91</ele>
        <time>2018-07-28T14:32:42Z</time>
      </trkpt>
      <trkpt lat="42.26569" lon="-8.67345">
        <ele>35.988</ele>
        <time>2018-07-28T14:32:43Z</time>
      </trkpt>
      <trkpt lat="42.26577" lon="-8.67336">
        <ele>36.124</ele>
        <time>2018-07-28T14:32:44Z</time>
      </trkpt>
      <trkpt lat="42.26584" lon="-8.67329">
        <ele>36.126</ele>
        <time>2018-07-28T14:32:45Z</time>
      </trkpt>
      <trkpt lat="42.2659" lon="-8.67326">
        <ele>35.808</ele>
        <time>2018-07-28T14:32:46Z</time>
      </trkpt>
      <trkpt lat="42.26597" lon="-8.67322">
        <ele>34.49</ele>
        <time>2018-07-28T14:32:48Z</time>
      </trkpt>
      <trkpt lat="42.26602" lon="-8.67319">
        <ele>33.055</ele>
        <time>2018-07-28T14:32:50Z</time>
      </trkpt>
      <trkpt lat="42.26606" lon="-8.67314">
        <ele>32.368</ele>
        <time>2018-07-28T14:32:52Z</time>
      </trkpt>
      <trkpt lat="42.26603" lon="-8.67306">
        <ele>32.16</ele>
        <time>2018-07-28T14:32:54Z</time>
      </trkpt>
      <trkpt lat="42.266" lon="-8.67301">
        <ele>32.335</ele>
        <time>2018-07-28T14:32:56Z</time>
      </trkpt>
      <trkpt lat="42.266" lon="-8.67294">
        <ele>33.62</ele>
        <time>2018-07-28T14:33:04Z</time>
      </trkpt>
      <trkpt lat="42.26595" lon="-8.67285">
        <ele>34.538</ele>
        <time>2018-07-28T14:33:05Z</time>
      </trkpt>
      <trkpt lat="42.26591" lon="-8.67276">
        <ele>35.584</ele>
        <time>2018-07-28T14:33:06Z</time>
      </trkpt>
      <trkpt lat="42.26588" lon="-8.6727">
        <ele>36.566</ele>
        <time>2018-07-28T14:33:07Z</time>
      </trkpt>
      <trkpt lat="42.26589" lon="-8.67258">
        <ele>38.129</ele>
        <time>2018-07-28T14:33:09Z</time>
      </trkpt>
      <trkpt lat="42.26593" lon="-8.67253">
        <ele>38.521</ele>
        <time>2018-07-28T14:33:10Z</time>
      </trkpt>
      <trkpt lat="42.26596" lon="-8.67248">
        <ele>39.108</ele>
        <time>2018-07-28T14:33:11Z</time>
      </trkpt>
      <trkpt lat="42.26598" lon="-8.67237">
        <ele>39.568</ele>
        <time>2018-07-28T14:33:13Z</time>
      </trkpt>
      <trkpt lat="42.26595" lon="-8.67231">
        <ele>39.623</ele>
        <time>2018-07-28T14:33:14Z</time>
      </trkpt>
      <trkpt lat="42.26591" lon="-8.6722">
        <ele>39.846</ele>
        <time>2018-07-28T14:33:16Z</time>
      </trkpt>
      <trkpt lat="42.26586" lon="-8.67217">
        <ele>40.168</ele>
        <time>2018-07-28T14:33:17Z</time>
      </trkpt>
      <trkpt lat="42.2658" lon="-8.67218">
        <ele>40.593</ele>
        <time>2018-07-28T14:33:18Z</time>
      </trkpt>
      <trkpt lat="42.26574" lon="-8.6722">
        <ele>41.128</ele>
        <time>2018-07-28T14:33:19Z</time>
      </trkpt>
      <trkpt lat="42.26568" lon="-8.67221">
        <ele>42.086</ele>
        <time>2018-07-28T14:33:20Z</time>
      </trkpt>
      <trkpt lat="42.26561" lon="-8.67216">
        <ele>43.122</ele>
        <time>2018-07-28T14:33:21Z</time>
      </trkpt>
      <trkpt lat="42.26554" lon="-8.67212">
        <ele>44.424</ele>
        <time>2018-07-28T14:33:22Z</time>
      </trkpt>
      <trkpt lat="42.26547" lon="-8.67208">
        <ele>45.804</ele>
        <time>2018-07-28T14:33:23Z</time>
      </trkpt>
      <trkpt lat="42.2654" lon="-8.67205">
        <ele>47.314</ele>
        <time>2018-07-28T14:33:24Z</time>
      </trkpt>
      <trkpt lat="42.26533" lon="-8.67202">
        <ele>48.908</ele>
        <time>2018-07-28T14:33:25Z</time>
      </trkpt>
      <trkpt lat="42.26526" lon="-8.672">
        <ele>50.574</ele>
        <time>2018-07-28T14:33:26Z</time>
      </trkpt>
      <trkpt lat="42.26519" lon="-8.67201">
        <ele>52.019</ele>
        <time>2018-07-28T14:33:27Z</time>
      </trkpt>
      <trkpt lat="42.26511" lon="-8.67202">
        <ele>55.242</ele>
        <time>2018-07-28T14:33:28Z</time>
      </trkpt>
      <trkpt lat="42.26503" lon="-8.67201">
        <ele>56.784</ele>
        <time>2018-07-28T14:33:29Z</time>
      </trkpt>
      <trkpt lat="42.26494" lon="-8.67201">
        <ele>58.119</ele>
        <time>2018-07-28T14:33:30Z</time>
      </trkpt>
      <trkpt lat="42.26485" lon="-8.67203">
        <ele>59.544</ele>
        <time>2018-07-28T14:33:31Z</time>
      </trkpt>
      <trkpt lat="42.26478" lon="-8.67204">
        <ele>60.822</ele>
        <time>2018-07-28T14:33:32Z</time>
      </trkpt>
      <trkpt lat="42.26472" lon="-8.67205">
        <ele>62.038</ele>
        <time>2018-07-28T14:33:33Z</time>
      </trkpt>
      <trkpt lat="42.26466" lon="-8.67205">
        <ele>63.288</ele>
        <time>2018-07-28T14:33:34Z</time>
      </trkpt>
      <trkpt lat="42.26461" lon="-8.67205">
        <ele>64.324</ele>
        <time>2018-07-28T14:33:35Z</time>
      </trkpt>
      <trkpt lat="42.26457" lon="-8.67207">
        <ele>65.326</ele>
        <time>2018-07-28T14:33:36Z</time>
      </trkpt>
      <trkpt lat="42.26452" lon="-8.67211">
        <ele>66.308</ele>
        <time>2018-07-28T14:33:37Z</time>
      </trkpt>
      <trkpt lat="42.26447" lon="-8.6721">
        <ele>67.14</ele>
        <time>2018-07-28T14:33:38Z</time>
      </trkpt>
      <trkpt lat="42.26441" lon="-8.67212">
        <ele>67.975</ele>
        <time>2018-07-28T14:33:39Z</time>
      </trkpt>
      <trkpt lat="42.26436" lon="-8.67211">
        <ele>68.568</ele>
        <time>2018-07-28T14:33:40Z</time>
      </trkpt>
      <trkpt lat="42.2643" lon="-8.67209">
        <ele>69.03</ele>
        <time>2018-07-28T14:33:41Z</time>
      </trkpt>
      <trkpt lat="42.26424" lon="-8.67204">
        <ele>69.655</ele>
        <time>2018-07-28T14:33:42Z</time>
      </trkpt>
      <trkpt lat="42.26418" lon="-8.67197">
        <ele>70.24</ele>
        <time>2018-07-28T14:33:43Z</time>
      </trkpt>
      <trkpt lat="42.26412" lon="-8.67192">
        <ele>70.998</ele>
        <time>2018-07-28T14:33:44Z</time>
      </trkpt>
      <trkpt lat="42.26406" lon="-8.67189">
        <ele>72.964</ele>
        <time>2018-07-28T14:33:45Z</time>
      </trkpt>
      <trkpt lat="42.26401" lon="-8.67184">
        <ele>74.029</ele>
        <time>2018-07-28T14:33:46Z</time>
      </trkpt>
      <trkpt lat="42.26396" lon="-8.67179">
        <ele>75.2</ele>
        <time>2018-07-28T14:33:47Z</time>
      </trkpt>
      <trkpt lat="42.26392" lon="-8.67173">
        <ele>76.42</ele>
        <time>2018-07-28T14:33:48Z</time>
      </trkpt>
      <trkpt lat="42.26387" lon="-8.67167">
        <ele>77.408</ele>
        <time>2018-07-28T14:33:49Z</time>
      </trkpt>
      <trkpt lat="42.26382" lon="-8.67161">
        <ele>78.594</ele>
        <time>2018-07-28T14:33:50Z</time>
      </trkpt>
      <trkpt lat="42.26378" lon="-8.67158">
        <ele>79.599</ele>
        <time>2018-07-28T14:33:51Z</time>
      </trkpt>
      <trkpt lat="42.26372" lon="-8.67158">
        <ele>81.322</ele>
        <time>2018-07-28T14:33:53Z</time>
      </trkpt>
      <trkpt lat="42.26365" lon="-8.67158">
        <ele>82.984</ele>
        <time>2018-07-28T14:33:55Z</time>
      </trkpt>
      <trkpt lat="42.2636" lon="-8.6716">
        <ele>84.169</ele>
        <time>2018-07-28T14:33:57Z</time>
      </trkpt>
      <trkpt lat="42.26359" lon="-8.67152">
        <ele>86.334</ele>
        <time>2018-07-28T14:34:01Z</time>
      </trkpt>
      <trkpt lat="42.26361" lon="-8.67143">
        <ele>88.392</ele>
        <time>2018-07-28T14:34:03Z</time>
      </trkpt>
      <trkpt lat="42.2636" lon="-8.67136">
        <ele>89.228</ele>
        <time>2018-07-28T14:34:04Z</time>
      </trkpt>
      <trkpt lat="42.26358" lon="-8.67129">
        <ele>90.243</ele>
        <time>2018-07-28T14:34:05Z</time>
      </trkpt>
      <trkpt lat="42.26357" lon="-8.67122">
        <ele>91.364</ele>
        <time>2018-07-28T14:34:06Z</time>
      </trkpt>
      <trkpt lat="42.26357" lon="-8.67115">
        <ele>92.51</ele>
        <time>2018-07-28T14:34:07Z</time>
      </trkpt>
      <trkpt lat="42.26357" lon="-8.67108">
        <ele>93.708</ele>
        <time>2018-07-28T14:34:08Z</time>
      </trkpt>
      <trkpt lat="42.26359" lon="-8.67098">
        <ele>95.756</ele>
        <time>2018-07-28T14:34:10Z</time>
      </trkpt>
      <trkpt lat="42.2636" lon="-8.6709">
        <ele>97.161</ele>
        <time>2018-07-28T14:34:12Z</time>
      </trkpt>
      <trkpt lat="42.26359" lon="-8.67082">
        <ele>98.464</ele>
        <time>2018-07-28T14:34:15Z</time>
      </trkpt>
      <trkpt lat="42.26359" lon="-8.67076">
        <ele>98.756</ele>
        <time>2018-07-28T14:34:17Z</time>
      </trkpt>
      <trkpt lat="42.26356" lon="-8.67071">
        <ele>98.691</ele>
        <time>2018-07-28T14:34:19Z</time>
      </trkpt>
      <trkpt lat="42.26351" lon="-8.67065">
        <ele>97.396</ele>
        <time>2018-07-28T14:34:21Z</time>
      </trkpt>
      <trkpt lat="42.26345" lon="-8.6706">
        <ele>96.294</ele>
        <time>2018-07-28T14:34:23Z</time>
      </trkpt>
      <trkpt lat="42.26339" lon="-8.6706">
        <ele>95.47</ele>
        <time>2018-07-28T14:34:25Z</time>
      </trkpt>
      <trkpt lat="42.2633" lon="-8.67057">
        <ele>95.223</ele>
        <time>2018-07-28T14:34:27Z</time>
      </trkpt>
      <trkpt lat="42.26321" lon="-8.67059">
        <ele>95.383</ele>
        <time>2018-07-28T14:34:29Z</time>
      </trkpt>
      <trkpt lat="42.26313" lon="-8.67063">
        <ele>95.711</ele>
        <time>2018-07-28T14:34:31Z</time>
      </trkpt>
      <trkpt lat="42.26307" lon="-8.67071">
        <ele>96.108</ele>
        <time>2018-07-28T14:34:33Z</time>
      </trkpt>
      <trkpt lat="42.26304" lon="-8.67076">
        <ele>96.244</ele>
        <time>2018-07-28T14:34:34Z</time>
      </trkpt>
      <trkpt lat="42.26298" lon="-8.67084">
        <ele>96.499</ele>
        <time>2018-07-28T14:34:36Z</time>
      </trkpt>
      <trkpt lat="42.26291" lon="-8.67091">
        <ele>96.642</ele>
        <time>2018-07-28T14:34:38Z</time>
      </trkpt>
      <trkpt lat="42.26287" lon="-8.67096">
        <ele>96.924</ele>
        <time>2018-07-28T14:34:39Z</time>
      </trkpt>
      <trkpt lat="42.26282" lon="-8.671">
        <ele>97.089</ele>
        <time>2018-07-28T14:34:40Z</time>
      </trkpt>
      <trkpt lat="42.26278" lon="-8.67105">
        <ele>97.164</ele>
        <time>2018-07-28T14:34:41Z</time>
      </trkpt>
      <trkpt lat="42.26273" lon="-8.67109">
        <ele>97.122</ele>
        <time>2018-07-28T14:34:42Z</time>
      </trkpt>
      <trkpt lat="42.26269" lon="-8.67113">
        <ele>97.138</ele>
        <time>2018-07-28T14:34:43Z</time>
      </trkpt>
      <trkpt lat="42.26265" lon="-8.67118">
        <ele>97.219</ele>
        <time>2018-07-28T14:34:44Z</time>
      </trkpt>
      <trkpt lat="42.26261" lon="-8.67122">
        <ele>97.409</ele>
        <time>2018-07-28T14:34:45Z</time>
      </trkpt>
      <trkpt lat="42.26257" lon="-8.67127">
        <ele>97.619</ele>
        <time>2018-07-28T14:34:46Z</time>
      </trkpt>
      <trkpt lat="42.26254" lon="-8.67132">
        <ele>97.908</ele>
        <time>2018-07-28T14:34:47Z</time>
      </trkpt>
      <trkpt lat="42.26247" lon="-8.67138">
        <ele>98.613</ele>
        <time>2018-07-28T14:34:49Z</time>
      </trkpt>
      <trkpt lat="42.26243" lon="-8.67143">
        <ele>99.198</ele>
        <time>2018-07-28T14:34:51Z</time>
      </trkpt>
      <trkpt lat="42.26246" lon="-8.67149">
        <ele>99.461</ele>
        <time>2018-07-28T14:34:53Z</time>
      </trkpt>
      <trkpt lat="42.2625" lon="-8.67156">
        <ele>99.383</ele>
        <time>2018-07-28T14:34:55Z</time>
      </trkpt>
      <trkpt lat="42.26246" lon="-8.67166">
        <ele>98.998</ele>
        <time>2018-07-28T14:34:57Z</time>
      </trkpt>
      <trkpt lat="42.2624" lon="-8.6717">
        <ele>98.953</ele>
        <time>2018-07-28T14:34:58Z</time>
      </trkpt>
      <trkpt lat="42.26235" lon="-8.67174">
        <ele>99.151</ele>
        <time>2018-07-28T14:34:59Z</time>
      </trkpt>
      <trkpt lat="42.26229" lon="-8.6718">
        <ele>99.457</ele>
        <time>2018-07-28T14:35:00Z</time>
      </trkpt>
      <trkpt lat="42.26224" lon="-8.67185">
        <ele>99.992</ele>
        <time>2018-07-28T14:35:01Z</time>
      </trkpt>
      <trkpt lat="42.26219" lon="-8.6719">
        <ele>100.473</ele>
        <time>2018-07-28T14:35:02Z</time>
      </trkpt>
      <trkpt lat="42.26215" lon="-8.67195">
        <ele>100.82</ele>
        <time>2018-07-28T14:35:03Z</time>
      </trkpt>
      <trkpt lat="42.26214" lon="-8.67201">
        <ele>101.108</ele>
        <time>2018-07-28T14:35:04Z</time>
      </trkpt>
      <trkpt lat="42.26213" lon="-8.67208">
        <ele>101.481</ele>
        <time>2018-07-28T14:35:05Z</time>
      </trkpt>
      <trkpt lat="42.26213" lon="-8.67214">
        <ele>101.816</ele>
        <time>2018-07-28T14:35:06Z</time>
      </trkpt>
      <trkpt lat="42.2621" lon="-8.67225">
        <ele>102.339</ele>
        <time>2018-07-28T14:35:08Z</time>
      </trkpt>
      <trkpt lat="42.26201" lon="-8.67229">
        <ele>102.851</ele>
        <time>2018-07-28T14:35:10Z</time>
      </trkpt>
      <trkpt lat="42.26194" lon="-8.67231">
        <ele>103.346</ele>
        <time>2018-07-28T14:35:12Z</time>
      </trkpt>
      <trkpt lat="42.26188" lon="-8.67227">
        <ele>103.991</ele>
        <time>2018-07-28T14:35:14Z</time>
      </trkpt>
      <trkpt lat="42.26181" lon="-8.67219">
        <ele>104.089</ele>
        <time>2018-07-28T14:35:16Z</time>
      </trkpt>
      <trkpt lat="42.26177" lon="-8.67215">
        <ele>104.185</ele>
        <time>2018-07-28T14:35:17Z</time>
      </trkpt>
      <trkpt lat="42.26171" lon="-8.67208">
        <ele>104.568</ele>
        <time>2018-07-28T14:35:19Z</time>
      </trkpt>
      <trkpt lat="42.26167" lon="-8.67202">
        <ele>104.842</ele>
        <time>2018-07-28T14:35:21Z</time>
      </trkpt>
      <trkpt lat="42.26162" lon="-8.67197">
        <ele>105.226</ele>
        <time>2018-07-28T14:35:23Z</time>
      </trkpt>
      <trkpt lat="42.26155" lon="-8.67189">
        <ele>105.808</ele>
        <time>2018-07-28T14:35:25Z</time>
      </trkpt>
      <trkpt lat="42.2615" lon="-8.67183">
        <ele>106.218</ele>
        <time>2018-07-28T14:35:26Z</time>
      </trkpt>
      <trkpt lat="42.26144" lon="-8.67178">
        <ele>106.733</ele>
        <time>2018-07-28T14:35:27Z</time>
      </trkpt>
      <trkpt lat="42.26138" lon="-8.67172">
        <ele>107.496</ele>
        <time>2018-07-28T14:35:28Z</time>
      </trkpt>
      <trkpt lat="42.26132" lon="-8.67167">
        <ele>108.198</ele>
        <time>2018-07-28T14:35:29Z</time>
      </trkpt>
      <trkpt lat="42.26126" lon="-8.67162">
        <ele>108.883</ele>
        <time>2018-07-28T14:35:30Z</time>
      </trkpt>
      <trkpt lat="42.26122" lon="-8.67158">
        <ele>109.458</ele>
        <time>2018-07-28T14:35:31Z</time>
      </trkpt>
      <trkpt lat="42.26116" lon="-8.67155">
        <ele>110.126</ele>
        <time>2018-07-28T14:35:33Z</time>
      </trkpt>
      <trkpt lat="42.26111" lon="-8.67155">
        <ele>110.262</ele>
        <time>2018-07-28T14:35:44Z</time>
      </trkpt>
      <trkpt lat="42.26107" lon="-8.67156">
        <ele>110.415</ele>
        <time>2018-07-28T14:35:52Z</time>
      </trkpt>
      <trkpt lat="42.26102" lon="-8.67151">
        <ele>110.665</ele>
        <time>2018-07-28T14:35:59Z</time>
      </trkpt>
      <trkpt lat="42.26107" lon="-8.67141">
        <ele>110.711</ele>
        <time>2018-07-28T14:36:01Z</time>
      </trkpt>
      <trkpt lat="42.26113" lon="-8.67133">
        <ele>110.808</ele>
        <time>2018-07-28T14:36:02Z</time>
      </trkpt>
      <trkpt lat="42.26119" lon="-8.67124">
        <ele>110.933</ele>
        <time>2018-07-28T14:36:03Z</time>
      </trkpt>
      <trkpt lat="42.26126" lon="-8.67115">
        <ele>111.148</ele>
        <time>2018-07-28T14:36:04Z</time>
      </trkpt>
      <trkpt lat="42.26133" lon="-8.67104">
        <ele>111.311</ele>
        <time>2018-07-28T14:36:05Z</time>
      </trkpt>
      <trkpt lat="42.2614" lon="-8.67094">
        <ele>111.563</ele>
        <time>2018-07-28T14:36:06Z</time>
      </trkpt>
      <trkpt lat="42.26148" lon="-8.67085">
        <ele>111.568</ele>
        <time>2018-07-28T14:36:07Z</time>
      </trkpt>
      <trkpt lat="42.26155" lon="-8.67075">
        <ele>111.043</ele>
        <time>2018-07-28T14:36:08Z</time>
      </trkpt>
      <trkpt lat="42.26163" lon="-8.67066">
        <ele>110.391</ele>
        <time>2018-07-28T14:36:09Z</time>
      </trkpt>
      <trkpt lat="42.26171" lon="-8.67057">
        <ele>109.587</ele>
        <time>2018-07-28T14:36:10Z</time>
      </trkpt>
      <trkpt lat="42.26178" lon="-8.67048">
        <ele>108.739</ele>
        <time>2018-07-28T14:36:11Z</time>
      </trkpt>
      <trkpt lat="42.26186" lon="-8.6704">
        <ele>108.101</ele>
        <time>2018-07-28T14:36:12Z</time>
      </trkpt>
      <trkpt lat="42.26193" lon="-8.67031">
        <ele>107.621</ele>
        <time>2018-07-28T14:36:13Z</time>
      </trkpt>
      <trkpt lat="42.262" lon="-8.67022">
        <ele>107.308</ele>
        <time>2018-07-28T14:36:14Z</time>
      </trkpt>
      <trkpt lat="42.26207" lon="-8.67014">
        <ele>106.995</ele>
        <time>2018-07-28T14:36:15Z</time>
      </trkpt>
      <trkpt lat="42.26213" lon="-8.67007">
        <ele>106.55</ele>
        <time>2018-07-28T14:36:16Z</time>
      </trkpt>
      <trkpt lat="42.2622" lon="-8.67001">
        <ele>106.053</ele>
        <time>2018-07-28T14:36:17Z</time>
      </trkpt>
      <trkpt lat="42.26226" lon="-8.66996">
        <ele>105.425</ele>
        <time>2018-07-28T14:36:18Z</time>
      </trkpt>
      <trkpt lat="42.26231" lon="-8.66998">
        <ele>104.83</ele>
        <time>2018-07-28T14:36:19Z</time>
      </trkpt>
      <trkpt lat="42.26236" lon="-8.67002">
        <ele>104.375</ele>
        <time>2018-07-28T14:36:20Z</time>
      </trkpt>
      <trkpt lat="42.2624" lon="-8.67008">
        <ele>103.843</ele>
        <time>2018-07-28T14:36:21Z</time>
      </trkpt>
      <trkpt lat="42.26243" lon="-8.67016">
        <ele>103.539</ele>
        <time>2018-07-28T14:36:22Z</time>
      </trkpt>
      <trkpt lat="42.26245" lon="-8.67025">
        <ele>103.334</ele>
        <time>2018-07-28T14:36:23Z</time>
      </trkpt>
      <trkpt lat="42.26248" lon="-8.67034">
        <ele>103.355</ele>
        <time>2018-07-28T14:36:24Z</time>
      </trkpt>
      <trkpt lat="42.26253" lon="-8.67043">
        <ele>103.31</ele>
        <time>2018-07-28T14:36:25Z</time>
      </trkpt>
      <trkpt lat="42.26259" lon="-8.6705">
        <ele>103.508</ele>
        <time>2018-07-28T14:36:26Z</time>
      </trkpt>
      <trkpt lat="42.26266" lon="-8.67053">
        <ele>103.595</ele>
        <time>2018-07-28T14:36:27Z</time>
      </trkpt>
      <trkpt lat="42.26273" lon="-8.67054">
        <ele>103.42</ele>
        <time>2018-07-28T14:36:28Z</time>
      </trkpt>
      <trkpt lat="42.2628" lon="-8.67045">
        <ele>103.343</ele>
        <time>2018-07-28T14:36:29Z</time>
      </trkpt>
      <trkpt lat="42.2629" lon="-8.67034">
        <ele>103.285</ele>
        <time>2018-07-28T14:36:30Z</time>
      </trkpt>
      <trkpt lat="42.263" lon="-8.67024">
        <ele>103.11</ele>
        <time>2018-07-28T14:36:31Z</time>
      </trkpt>
      <trkpt lat="42.2631" lon="-8.67012">
        <ele>103.195</ele>
        <time>2018-07-28T14:36:32Z</time>
      </trkpt>
      <trkpt lat="42.2632" lon="-8.67001">
        <ele>103.233</ele>
        <time>2018-07-28T14:36:33Z</time>
      </trkpt>
      <trkpt lat="42.26331" lon="-8.6699">
        <ele>103.479</ele>
        <time>2018-07-28T14:36:34Z</time>
      </trkpt>
      <trkpt lat="42.26341" lon="-8.66979">
        <ele>103.447</ele>
        <time>2018-07-28T14:36:35Z</time>
      </trkpt>
      <trkpt lat="42.26352" lon="-8.6697">
        <ele>103.529</ele>
        <time>2018-07-28T14:36:36Z</time>
      </trkpt>
      <trkpt lat="42.26362" lon="-8.66961">
        <ele>103.521</ele>
        <time>2018-07-28T14:36:37Z</time>
      </trkpt>
      <trkpt lat="42.26373" lon="-8.66952">
        <ele>103.508</ele>
        <time>2018-07-28T14:36:38Z</time>
      </trkpt>
      <trkpt lat="42.26384" lon="-8.66942">
        <ele>103.536</ele>
        <time>2018-07-28T14:36:39Z</time>
      </trkpt>
      <trkpt lat="42.26396" lon="-8.66931">
        <ele>103.591</ele>
        <time>2018-07-28T14:36:40Z</time>
      </trkpt>
      <trkpt lat="42.26408" lon="-8.6692">
        <ele>103.644</ele>
        <time>2018-07-28T14:36:41Z</time>
      </trkpt>
      <trkpt lat="42.2642" lon="-8.66907">
        <ele>103.886</ele>
        <time>2018-07-28T14:36:42Z</time>
      </trkpt>
      <trkpt lat="42.26432" lon="-8.66893">
        <ele>104.011</ele>
        <time>2018-07-28T14:36:43Z</time>
      </trkpt>
      <trkpt lat="42.26443" lon="-8.66877">
        <ele>104.356</ele>
        <time>2018-07-28T14:36:44Z</time>
      </trkpt>
      <trkpt lat="42.26458" lon="-8.66862">
        <ele>105.124</ele>
        <time>2018-07-28T14:36:45Z</time>
      </trkpt>
      <trkpt lat="42.26473" lon="-8.66846">
        <ele>105.49</ele>
        <time>2018-07-28T14:36:46Z</time>
      </trkpt>
      <trkpt lat="42.26488" lon="-8.66831">
        <ele>105.665</ele>
        <time>2018-07-28T14:36:47Z</time>
      </trkpt>
      <trkpt lat="42.265" lon="-8.6681">
        <ele>105.968</ele>
        <time>2018-07-28T14:36:48Z</time>
      </trkpt>
      <trkpt lat="42.26514" lon="-8.66793">
        <ele>106.114</ele>
        <time>2018-07-28T14:36:49Z</time>
      </trkpt>
      <trkpt lat="42.26527" lon="-8.66776">
        <ele>106.608</ele>
        <time>2018-07-28T14:36:50Z</time>
      </trkpt>
      <trkpt lat="42.26538" lon="-8.66756">
        <ele>107.488</ele>
        <time>2018-07-28T14:36:51Z</time>
      </trkpt>
      <trkpt lat="42.26549" lon="-8.66736">
        <ele>108.263</ele>
        <time>2018-07-28T14:36:52Z</time>
      </trkpt>
      <trkpt lat="42.26561" lon="-8.66717">
        <ele>108.786</ele>
        <time>2018-07-28T14:36:53Z</time>
      </trkpt>
      <trkpt lat="42.26573" lon="-8.66699">
        <ele>109.348</ele>
        <time>2018-07-28T14:36:54Z</time>
      </trkpt>
      <trkpt lat="42.26584" lon="-8.66681">
        <ele>109.543</ele>
        <time>2018-07-28T14:36:55Z</time>
      </trkpt>
      <trkpt lat="42.26594" lon="-8.66661">
        <ele>109.698</ele>
        <time>2018-07-28T14:36:56Z</time>
      </trkpt>
      <trkpt lat="42.26605" lon="-8.6664">
        <ele>110.156</ele>
        <time>2018-07-28T14:36:57Z</time>
      </trkpt>
      <trkpt lat="42.26617" lon="-8.6662">
        <ele>110.652</ele>
        <time>2018-07-28T14:36:58Z</time>
      </trkpt>
      <trkpt lat="42.2663" lon="-8.666">
        <ele>111.195</ele>
        <time>2018-07-28T14:36:59Z</time>
      </trkpt>
      <trkpt lat="42.26644" lon="-8.66582">
        <ele>111.749</ele>
        <time>2018-07-28T14:37:00Z</time>
      </trkpt>
      <trkpt lat="42.26655" lon="-8.66563">
        <ele>112.123</ele>
        <time>2018-07-28T14:37:01Z</time>
      </trkpt>
      <trkpt lat="42.26668" lon="-8.66549">
        <ele>112.108</ele>
        <time>2018-07-28T14:37:02Z</time>
      </trkpt>
      <trkpt lat="42.2668" lon="-8.66535">
        <ele>111.911</ele>
        <time>2018-07-28T14:37:03Z</time>
      </trkpt>
      <trkpt lat="42.26692" lon="-8.66522">
        <ele>111.886</ele>
        <time>2018-07-28T14:37:04Z</time>
      </trkpt>
      <trkpt lat="42.26703" lon="-8.66505">
        <ele>111.779</ele>
        <time>2018-07-28T14:37:05Z</time>
      </trkpt>
      <trkpt lat="42.26716" lon="-8.6649">
        <ele>111.791</ele>
        <time>2018-07-28T14:37:06Z</time>
      </trkpt>
      <trkpt lat="42.2673" lon="-8.66475">
        <ele>111.936</ele>
        <time>2018-07-28T14:37:07Z</time>
      </trkpt>
      <trkpt lat="42.26745" lon="-8.6646">
        <ele>112.221</ele>
        <time>2018-07-28T14:37:08Z</time>
      </trkpt>
      <trkpt lat="42.2676" lon="-8.66446">
        <ele>112.469</ele>
        <time>2018-07-28T14:37:09Z</time>
      </trkpt>
      <trkpt lat="42.26775" lon="-8.66435">
        <ele>112.935</ele>
        <time>2018-07-28T14:37:10Z</time>
      </trkpt>
      <trkpt lat="42.26792" lon="-8.66424">
        <ele>112.992</ele>
        <time>2018-07-28T14:37:11Z</time>
      </trkpt>
      <trkpt lat="42.26807" lon="-8.66417">
        <ele>112.873</ele>
        <time>2018-07-28T14:37:12Z</time>
      </trkpt>
      <trkpt lat="42.26825" lon="-8.66405">
        <ele>112.42</ele>
        <time>2018-07-28T14:37:13Z</time>
      </trkpt>
      <trkpt lat="42.26842" lon="-8.66396">
        <ele>111.908</ele>
        <time>2018-07-28T14:37:14Z</time>
      </trkpt>
      <trkpt lat="42.26859" lon="-8.66388">
        <ele>111.131</ele>
        <time>2018-07-28T14:37:15Z</time>
      </trkpt>
      <trkpt lat="42.26876" lon="-8.66382">
        <ele>110.416</ele>
        <time>2018-07-28T14:37:16Z</time>
      </trkpt>
      <trkpt lat="42.26891" lon="-8.66374">
        <ele>109.619</ele>
        <time>2018-07-28T14:37:17Z</time>
      </trkpt>
      <trkpt lat="42.26908" lon="-8.66368">
        <ele>108.961</ele>
        <time>2018-07-28T14:37:18Z</time>
      </trkpt>
      <trkpt lat="42.26925" lon="-8.66362">
        <ele>108.216</ele>
        <time>2018-07-28T14:37:19Z</time>
      </trkpt>
      <trkpt lat="42.26943" lon="-8.6636">
        <ele>107.491</ele>
        <time>2018-07-28T14:37:20Z</time>
      </trkpt>
      <trkpt lat="42.26961" lon="-8.66358">
        <ele>106.269</ele>
        <time>2018-07-28T14:37:21Z</time>
      </trkpt>
      <trkpt lat="42.26979" lon="-8.66355">
        <ele>105.655</ele>
        <time>2018-07-28T14:37:22Z</time>
      </trkpt>
      <trkpt lat="42.26997" lon="-8.66354">
        <ele>105.074</ele>
        <time>2018-07-28T14:37:23Z</time>
      </trkpt>
      <trkpt lat="42.27015" lon="-8.66352">
        <ele>104.556</ele>
        <time>2018-07-28T14:37:24Z</time>
      </trkpt>
      <trkpt lat="42.27032" lon="-8.66351">
        <ele>103.921</ele>
        <time>2018-07-28T14:37:25Z</time>
      </trkpt>
      <trkpt lat="42.27048" lon="-8.66352">
        <ele>103.508</ele>
        <time>2018-07-28T14:37:26Z</time>
      </trkpt>
      <trkpt lat="42.27064" lon="-8.66354">
        <ele>103.059</ele>
        <time>2018-07-28T14:37:27Z</time>
      </trkpt>
      <trkpt lat="42.2708" lon="-8.66353">
        <ele>102.594</ele>
        <time>2018-07-28T14:37:28Z</time>
      </trkpt>
      <trkpt lat="42.27097" lon="-8.66356">
        <ele>101.917</ele>
        <time>2018-07-28T14:37:29Z</time>
      </trkpt>
      <trkpt lat="42.27116" lon="-8.66361">
        <ele>101.369</ele>
        <time>2018-07-28T14:37:30Z</time>
      </trkpt>
      <trkpt lat="42.27134" lon="-8.66366">
        <ele>100.554</ele>
        <time>2018-07-28T14:37:31Z</time>
      </trkpt>
      <trkpt lat="42.27153" lon="-8.66371">
        <ele>99.659</ele>
        <time>2018-07-28T14:37:32Z</time>
      </trkpt>
      <trkpt lat="42.27172" lon="-8.66378">
        <ele>98.847</ele>
        <time>2018-07-28T14:37:33Z</time>
      </trkpt>
      <trkpt lat="42.2719" lon="-8.66387">
        <ele>97.943</ele>
        <time>2018-07-28T14:37:34Z</time>
      </trkpt>
      <trkpt lat="42.27208" lon="-8.66397">
        <ele>97.586</ele>
        <time>2018-07-28T14:37:35Z</time>
      </trkpt>
      <trkpt lat="42.27225" lon="-8.66406">
        <ele>97.26</ele>
        <time>2018-07-28T14:37:36Z</time>
      </trkpt>
      <trkpt lat="42.27243" lon="-8.66414">
        <ele>96.626</ele>
        <time>2018-07-28T14:37:37Z</time>
      </trkpt>
      <trkpt lat="42.2726" lon="-8.66427">
        <ele>96.208</ele>
        <time>2018-07-28T14:37:38Z</time>
      </trkpt>
      <trkpt lat="42.27277" lon="-8.66438">
        <ele>95.08</ele>
        <time>2018-07-28T14:37:39Z</time>
      </trkpt>
      <trkpt lat="42.27293" lon="-8.6645">
        <ele>94.185</ele>
        <time>2018-07-28T14:37:40Z</time>
      </trkpt>
      <trkpt lat="42.27306" lon="-8.66461">
        <ele>93.598</ele>
        <time>2018-07-28T14:37:41Z</time>
      </trkpt>
      <trkpt lat="42.2732" lon="-8.66475">
        <ele>92.68</ele>
        <time>2018-07-28T14:37:42Z</time>
      </trkpt>
      <trkpt lat="42.27334" lon="-8.66489">
        <ele>91.765</ele>
        <time>2018-07-28T14:37:43Z</time>
      </trkpt>
      <trkpt lat="42.27346" lon="-8.665">
        <ele>90.88</ele>
        <time>2018-07-28T14:37:44Z</time>
      </trkpt>
      <trkpt lat="42.2736" lon="-8.66513">
        <ele>89.778</ele>
        <time>2018-07-28T14:37:45Z</time>
      </trkpt>
      <trkpt lat="42.27375" lon="-8.66521">
        <ele>88.614</ele>
        <time>2018-07-28T14:37:46Z</time>
      </trkpt>
      <trkpt lat="42.27389" lon="-8.66531">
        <ele>87.731</ele>
        <time>2018-07-28T14:37:47Z</time>
      </trkpt>
      <trkpt lat="42.27405" lon="-8.66541">
        <ele>86.961</ele>
        <time>2018-07-28T14:37:48Z</time>
      </trkpt>
      <trkpt lat="42.27419" lon="-8.66549">
        <ele>86.007</ele>
        <time>2018-07-28T14:37:49Z</time>
      </trkpt>
      <trkpt lat="42.27434" lon="-8.66557">
        <ele>85.208</ele>
        <time>2018-07-28T14:37:50Z</time>
      </trkpt>
      <trkpt lat="42.2745" lon="-8.66561">
        <ele>84.585</ele>
        <time>2018-07-28T14:37:51Z</time>
      </trkpt>
      <trkpt lat="42.27465" lon="-8.66566">
        <ele>83.72</ele>
        <time>2018-07-28T14:37:52Z</time>
      </trkpt>
      <trkpt lat="42.27481" lon="-8.6657">
        <ele>83.093</ele>
        <time>2018-07-28T14:37:53Z</time>
      </trkpt>
      <trkpt lat="42.27498" lon="-8.66575">
        <ele>82.475</ele>
        <time>2018-07-28T14:37:54Z</time>
      </trkpt>
      <trkpt lat="42.27515" lon="-8.66579">
        <ele>82.15</ele>
        <time>2018-07-28T14:37:55Z</time>
      </trkpt>
      <trkpt lat="42.27533" lon="-8.66582">
        <ele>81.995</ele>
        <time>2018-07-28T14:37:56Z</time>
      </trkpt>
      <trkpt lat="42.27552" lon="-8.66585">
        <ele>81.723</ele>
        <time>2018-07-28T14:37:57Z</time>
      </trkpt>
      <trkpt lat="42.27571" lon="-8.66586">
        <ele>81.619</ele>
        <time>2018-07-28T14:37:58Z</time>
      </trkpt>
      <trkpt lat="42.27589" lon="-8.66583">
        <ele>81.054</ele>
        <time>2018-07-28T14:37:59Z</time>
      </trkpt>
      <trkpt lat="42.27608" lon="-8.66582">
        <ele>80.456</ele>
        <time>2018-07-28T14:38:00Z</time>
      </trkpt>
      <trkpt lat="42.27626" lon="-8.66577">
        <ele>79.711</ele>
        <time>2018-07-28T14:38:01Z</time>
      </trkpt>
      <trkpt lat="42.27643" lon="-8.66569">
        <ele>78.808</ele>
        <time>2018-07-28T14:38:02Z</time>
      </trkpt>
      <trkpt lat="42.27661" lon="-8.66566">
        <ele>77.937</ele>
        <time>2018-07-28T14:38:03Z</time>
      </trkpt>
      <trkpt lat="42.27679" lon="-8.66559">
        <ele>77.252</ele>
        <time>2018-07-28T14:38:04Z</time>
      </trkpt>
      <trkpt lat="42.27696" lon="-8.6655">
        <ele>76.535</ele>
        <time>2018-07-28T14:38:05Z</time>
      </trkpt>
      <trkpt lat="42.27712" lon="-8.66542">
        <ele>75.837</ele>
        <time>2018-07-28T14:38:06Z</time>
      </trkpt>
      <trkpt lat="42.27728" lon="-8.66532">
        <ele>75.142</ele>
        <time>2018-07-28T14:38:07Z</time>
      </trkpt>
      <trkpt lat="42.27743" lon="-8.66522">
        <ele>74.227</ele>
        <time>2018-07-28T14:38:08Z</time>
      </trkpt>
      <trkpt lat="42.27757" lon="-8.6651">
        <ele>73.345</ele>
        <time>2018-07-28T14:38:09Z</time>
      </trkpt>
      <trkpt lat="42.27771" lon="-8.66501">
        <ele>72.261</ele>
        <time>2018-07-28T14:38:10Z</time>
      </trkpt>
      <trkpt lat="42.27781" lon="-8.66492">
        <ele>71.056</ele>
        <time>2018-07-28T14:38:11Z</time>
      </trkpt>
      <trkpt lat="42.27791" lon="-8.66488">
        <ele>69.759</ele>
        <time>2018-07-28T14:38:12Z</time>
      </trkpt>
      <trkpt lat="42.27797" lon="-8.66479">
        <ele>68.514</ele>
        <time>2018-07-28T14:38:13Z</time>
      </trkpt>
      <trkpt lat="42.27803" lon="-8.66473">
        <ele>67.508</ele>
        <time>2018-07-28T14:38:14Z</time>
      </trkpt>
      <trkpt lat="42.27809" lon="-8.66465">
        <ele>65.987</ele>
        <time>2018-07-28T14:38:15Z</time>
      </trkpt>
      <trkpt lat="42.27815" lon="-8.66456">
        <ele>65.552</ele>
        <time>2018-07-28T14:38:16Z</time>
      </trkpt>
      <trkpt lat="42.27822" lon="-8.66444">
        <ele>65.135</ele>
        <time>2018-07-28T14:38:17Z</time>
      </trkpt>
      <trkpt lat="42.2783" lon="-8.66435">
        <ele>64.877</ele>
        <time>2018-07-28T14:38:18Z</time>
      </trkpt>
      <trkpt lat="42.27837" lon="-8.66415">
        <ele>64.542</ele>
        <time>2018-07-28T14:38:19Z</time>
      </trkpt>
      <trkpt lat="42.27847" lon="-8.66398">
        <ele>64.277</ele>
        <time>2018-07-28T14:38:20Z</time>
      </trkpt>
      <trkpt lat="42.27857" lon="-8.66381">
        <ele>64.245</ele>
        <time>2018-07-28T14:38:21Z</time>
      </trkpt>
      <trkpt lat="42.27866" lon="-8.66365">
        <ele>64.291</ele>
        <time>2018-07-28T14:38:22Z</time>
      </trkpt>
      <trkpt lat="42.27878" lon="-8.66348">
        <ele>64.315</ele>
        <time>2018-07-28T14:38:23Z</time>
      </trkpt>
      <trkpt lat="42.27889" lon="-8.66329">
        <ele>64.565</ele>
        <time>2018-07-28T14:38:24Z</time>
      </trkpt>
      <trkpt lat="42.279" lon="-8.66312">
        <ele>64.711</ele>
        <time>2018-07-28T14:38:25Z</time>
      </trkpt>
      <trkpt lat="42.2791" lon="-8.66294">
        <ele>64.708</ele>
        <time>2018-07-28T14:38:26Z</time>
      </trkpt>
      <trkpt lat="42.27921" lon="-8.66277">
        <ele>64.753</ele>
        <time>2018-07-28T14:38:27Z</time>
      </trkpt>
      <trkpt lat="42.27934" lon="-8.66261">
        <ele>64.798</ele>
        <time>2018-07-28T14:38:28Z</time>
      </trkpt>
      <trkpt lat="42.27947" lon="-8.66244">
        <ele>64.951</ele>
        <time>2018-07-28T14:38:29Z</time>
      </trkpt>
      <trkpt lat="42.2796" lon="-8.66228">
        <ele>65.063</ele>
        <time>2018-07-28T14:38:30Z</time>
      </trkpt>
      <trkpt lat="42.27974" lon="-8.66211">
        <ele>65.288</ele>
        <time>2018-07-28T14:38:31Z</time>
      </trkpt>
      <trkpt lat="42.27989" lon="-8.66195">
        <ele>65.443</ele>
        <time>2018-07-28T14:38:32Z</time>
      </trkpt>
      <trkpt lat="42.28004" lon="-8.66179">
        <ele>64.951</ele>
        <time>2018-07-28T14:38:33Z</time>
      </trkpt>
      <trkpt lat="42.28021" lon="-8.66169">
        <ele>64.577</ele>
        <time>2018-07-28T14:38:34Z</time>
      </trkpt>
      <trkpt lat="42.28038" lon="-8.66157">
        <ele>63.929</ele>
        <time>2018-07-28T14:38:35Z</time>
      </trkpt>
      <trkpt lat="42.28056" lon="-8.66148">
        <ele>63.4</ele>
        <time>2018-07-28T14:38:36Z</time>
      </trkpt>
      <trkpt lat="42.28072" lon="-8.6614">
        <ele>62.62</ele>
        <time>2018-07-28T14:38:37Z</time>
      </trkpt>
      <trkpt lat="42.28088" lon="-8.66132">
        <ele>62.208</ele>
        <time>2018-07-28T14:38:38Z</time>
      </trkpt>
      <trkpt lat="42.28104" lon="-8.66125">
        <ele>61.784</ele>
        <time>2018-07-28T14:38:39Z</time>
      </trkpt>
      <trkpt lat="42.28121" lon="-8.66118">
        <ele>61.269</ele>
        <time>2018-07-28T14:38:40Z</time>
      </trkpt>
      <trkpt lat="42.28139" lon="-8.66114">
        <ele>60.772</ele>
        <time>2018-07-28T14:38:41Z</time>
      </trkpt>
      <trkpt lat="42.28158" lon="-8.66108">
        <ele>60.274</ele>
        <time>2018-07-28T14:38:42Z</time>
      </trkpt>
      <trkpt lat="42.28177" lon="-8.66104">
        <ele>59.939</ele>
        <time>2018-07-28T14:38:43Z</time>
      </trkpt>
      <trkpt lat="42.28196" lon="-8.66098">
        <ele>59.724</ele>
        <time>2018-07-28T14:38:44Z</time>
      </trkpt>
      <trkpt lat="42.28215" lon="-8.66095">
        <ele>59.372</ele>
        <time>2018-07-28T14:38:45Z</time>
      </trkpt>
      <trkpt lat="42.28234" lon="-8.66092">
        <ele>59.078</ele>
        <time>2018-07-28T14:38:46Z</time>
      </trkpt>
      <trkpt lat="42.28252" lon="-8.66089">
        <ele>58.769</ele>
        <time>2018-07-28T14:38:47Z</time>
      </trkpt>
      <trkpt lat="42.28271" lon="-8.66085">
        <ele>58.204</ele>
        <time>2018-07-28T14:38:48Z</time>
      </trkpt>
      <trkpt lat="42.28288" lon="-8.66082">
        <ele>57.824</ele>
        <time>2018-07-28T14:38:49Z</time>
      </trkpt>
      <trkpt lat="42.28306" lon="-8.66081">
        <ele>57.408</ele>
        <time>2018-07-28T14:38:50Z</time>
      </trkpt>
      <trkpt lat="42.28323" lon="-8.66079">
        <ele>57.268</ele>
        <time>2018-07-28T14:38:51Z</time>
      </trkpt>
      <trkpt lat="42.2834" lon="-8.66078">
        <ele>57.013</ele>
        <time>2018-07-28T14:38:52Z</time>
      </trkpt>
      <trkpt lat="42.28356" lon="-8.66075">
        <ele>57.036</ele>
        <time>2018-07-28T14:38:53Z</time>
      </trkpt>
      <trkpt lat="42.28374" lon="-8.66074">
        <ele>57.098</ele>
        <time>2018-07-28T14:38:54Z</time>
      </trkpt>
      <trkpt lat="42.2839" lon="-8.66072">
        <ele>57.013</ele>
        <time>2018-07-28T14:38:55Z</time>
      </trkpt>
      <trkpt lat="42.28408" lon="-8.6607">
        <ele>57.048</ele>
        <time>2018-07-28T14:38:56Z</time>
      </trkpt>
      <trkpt lat="42.28425" lon="-8.6607">
        <ele>57.066</ele>
        <time>2018-07-28T14:38:57Z</time>
      </trkpt>
      <trkpt lat="42.28442" lon="-8.66067">
        <ele>57.132</ele>
        <time>2018-07-28T14:38:58Z</time>
      </trkpt>
      <trkpt lat="42.28459" lon="-8.66063">
        <ele>57.362</ele>
        <time>2018-07-28T14:38:59Z</time>
      </trkpt>
      <trkpt lat="42.28476" lon="-8.66061">
        <ele>57.383</ele>
        <time>2018-07-28T14:39:00Z</time>
      </trkpt>
      <trkpt lat="42.28493" lon="-8.66059">
        <ele>57.311</ele>
        <time>2018-07-28T14:39:01Z</time>
      </trkpt>
      <trkpt lat="42.2851" lon="-8.66061">
        <ele>57.308</ele>
        <time>2018-07-28T14:39:02Z</time>
      </trkpt>
      <trkpt lat="42.28526" lon="-8.66055">
        <ele>57.648</ele>
        <time>2018-07-28T14:39:03Z</time>
      </trkpt>
      <trkpt lat="42.28542" lon="-8.66052">
        <ele>57.773</ele>
        <time>2018-07-28T14:39:04Z</time>
      </trkpt>
      <trkpt lat="42.28559" lon="-8.66049">
        <ele>57.996</ele>
        <time>2018-07-28T14:39:05Z</time>
      </trkpt>
      <trkpt lat="42.28578" lon="-8.66048">
        <ele>58.488</ele>
        <time>2018-07-28T14:39:06Z</time>
      </trkpt>
      <trkpt lat="42.28596" lon="-8.66046">
        <ele>59.183</ele>
        <time>2018-07-28T14:39:07Z</time>
      </trkpt>
      <trkpt lat="42.28615" lon="-8.66043">
        <ele>59.928</ele>
        <time>2018-07-28T14:39:08Z</time>
      </trkpt>
      <trkpt lat="42.28633" lon="-8.66043">
        <ele>60.236</ele>
        <time>2018-07-28T14:39:09Z</time>
      </trkpt>
      <trkpt lat="42.28652" lon="-8.6604">
        <ele>60.652</ele>
        <time>2018-07-28T14:39:10Z</time>
      </trkpt>
      <trkpt lat="42.2867" lon="-8.66039">
        <ele>60.689</ele>
        <time>2018-07-28T14:39:11Z</time>
      </trkpt>
      <trkpt lat="42.28688" lon="-8.66037">
        <ele>60.706</ele>
        <time>2018-07-28T14:39:12Z</time>
      </trkpt>
      <trkpt lat="42.28706" lon="-8.66035">
        <ele>60.826</ele>
        <time>2018-07-28T14:39:13Z</time>
      </trkpt>
      <trkpt lat="42.28724" lon="-8.66032">
        <ele>60.808</ele>
        <time>2018-07-28T14:39:14Z</time>
      </trkpt>
      <trkpt lat="42.28741" lon="-8.66032">
        <ele>60.63</ele>
        <time>2018-07-28T14:39:15Z</time>
      </trkpt>
      <trkpt lat="42.28758" lon="-8.66032">
        <ele>60.515</ele>
        <time>2018-07-28T14:39:16Z</time>
      </trkpt>
      <trkpt lat="42.28774" lon="-8.66028">
        <ele>60.378</ele>
        <time>2018-07-28T14:39:17Z</time>
      </trkpt>
      <trkpt lat="42.2879" lon="-8.66026">
        <ele>60.01</ele>
        <time>2018-07-28T14:39:18Z</time>
      </trkpt>
      <trkpt lat="42.28807" lon="-8.66024">
        <ele>59.965</ele>
        <time>2018-07-28T14:39:19Z</time>
      </trkpt>
      <trkpt lat="42.28824" lon="-8.66021">
        <ele>59.95</ele>
        <time>2018-07-28T14:39:20Z</time>
      </trkpt>
      <trkpt lat="42.28842" lon="-8.6602">
        <ele>60.238</ele>
        <time>2018-07-28T14:39:21Z</time>
      </trkpt>
      <trkpt lat="42.2886" lon="-8.66018">
        <ele>60.484</ele>
        <time>2018-07-28T14:39:22Z</time>
      </trkpt>
      <trkpt lat="42.28878" lon="-8.66017">
        <ele>60.576</ele>
        <time>2018-07-28T14:39:23Z</time>
      </trkpt>
      <trkpt lat="42.28896" lon="-8.66015">
        <ele>60.69</ele>
        <time>2018-07-28T14:39:24Z</time>
      </trkpt>
      <trkpt lat="42.28914" lon="-8.66014">
        <ele>60.519</ele>
        <time>2018-07-28T14:39:25Z</time>
      </trkpt>
      <trkpt lat="42.28932" lon="-8.66012">
        <ele>60.508</ele>
        <time>2018-07-28T14:39:26Z</time>
      </trkpt>
      <trkpt lat="42.28949" lon="-8.66012">
        <ele>60.569</ele>
        <time>2018-07-28T14:39:27Z</time>
      </trkpt>
      <trkpt lat="42.28968" lon="-8.66011">
        <ele>60.354</ele>
        <time>2018-07-28T14:39:28Z</time>
      </trkpt>
      <trkpt lat="42.28984" lon="-8.66007">
        <ele>60.127</ele>
        <time>2018-07-28T14:39:29Z</time>
      </trkpt>
      <trkpt lat="42.29001" lon="-8.66003">
        <ele>59.929</ele>
        <time>2018-07-28T14:39:30Z</time>
      </trkpt>
      <trkpt lat="42.29018" lon="-8.66">
        <ele>59.934</ele>
        <time>2018-07-28T14:39:31Z</time>
      </trkpt>
      <trkpt lat="42.29037" lon="-8.65998">
        <ele>59.999</ele>
        <time>2018-07-28T14:39:32Z</time>
      </trkpt>
      <trkpt lat="42.29055" lon="-8.65996">
        <ele>60.177</ele>
        <time>2018-07-28T14:39:33Z</time>
      </trkpt>
      <trkpt lat="42.29072" lon="-8.65992">
        <ele>60.293</ele>
        <time>2018-07-28T14:39:34Z</time>
      </trkpt>
      <trkpt lat="42.2909" lon="-8.65988">
        <ele>60.239</ele>
        <time>2018-07-28T14:39:35Z</time>
      </trkpt>
      <trkpt lat="42.29107" lon="-8.65986">
        <ele>60.201</ele>
        <time>2018-07-28T14:39:36Z</time>
      </trkpt>
      <trkpt lat="42.29124" lon="-8.65986">
        <ele>60.021</ele>
        <time>2018-07-28T14:39:37Z</time>
      </trkpt>
      <trkpt lat="42.2914" lon="-8.65985">
        <ele>59.608</ele>
        <time>2018-07-28T14:39:38Z</time>
      </trkpt>
      <trkpt lat="42.29155" lon="-8.65983">
        <ele>59.245</ele>
        <time>2018-07-28T14:39:39Z</time>
      </trkpt>
      <trkpt lat="42.29173" lon="-8.65981">
        <ele>58.99</ele>
        <time>2018-07-28T14:39:40Z</time>
      </trkpt>
      <trkpt lat="42.29189" lon="-8.65977">
        <ele>58.753</ele>
        <time>2018-07-28T14:39:41Z</time>
      </trkpt>
      <trkpt lat="42.29206" lon="-8.65976">
        <ele>58.725</ele>
        <time>2018-07-28T14:39:42Z</time>
      </trkpt>
      <trkpt lat="42.29222" lon="-8.65972">
        <ele>58.71</ele>
        <time>2018-07-28T14:39:43Z</time>
      </trkpt>
      <trkpt lat="42.29237" lon="-8.65971">
        <ele>58.395</ele>
        <time>2018-07-28T14:39:44Z</time>
      </trkpt>
      <trkpt lat="42.29252" lon="-8.65969">
        <ele>57.993</ele>
        <time>2018-07-28T14:39:45Z</time>
      </trkpt>
      <trkpt lat="42.29266" lon="-8.65966">
        <ele>57.289</ele>
        <time>2018-07-28T14:39:46Z</time>
      </trkpt>
      <trkpt lat="42.29278" lon="-8.65962">
        <ele>56.567</ele>
        <time>2018-07-28T14:39:47Z</time>
      </trkpt>
      <trkpt lat="42.29291" lon="-8.6596">
        <ele>56.181</ele>
        <time>2018-07-28T14:39:48Z</time>
      </trkpt>
      <trkpt lat="42.29303" lon="-8.65954">
        <ele>56.019</ele>
        <time>2018-07-28T14:39:49Z</time>
      </trkpt>
      <trkpt lat="42.29316" lon="-8.65948">
        <ele>55.908</ele>
        <time>2018-07-28T14:39:50Z</time>
      </trkpt>
      <trkpt lat="42.29329" lon="-8.6594">
        <ele>55.848</ele>
        <time>2018-07-28T14:39:51Z</time>
      </trkpt>
      <trkpt lat="42.29341" lon="-8.65933">
        <ele>55.893</ele>
        <time>2018-07-28T14:39:52Z</time>
      </trkpt>
      <trkpt lat="42.29354" lon="-8.65926">
        <ele>55.816</ele>
        <time>2018-07-28T14:39:53Z</time>
      </trkpt>
      <trkpt lat="42.29367" lon="-8.65916">
        <ele>55.848</ele>
        <time>2018-07-28T14:39:54Z</time>
      </trkpt>
      <trkpt lat="42.29382" lon="-8.65907">
        <ele>56.033</ele>
        <time>2018-07-28T14:39:55Z</time>
      </trkpt>
      <trkpt lat="42.29395" lon="-8.65897">
        <ele>56.458</ele>
        <time>2018-07-28T14:39:56Z</time>
      </trkpt>
      <trkpt lat="42.29407" lon="-8.65886">
        <ele>56.896</ele>
        <time>2018-07-28T14:39:57Z</time>
      </trkpt>
      <trkpt lat="42.29419" lon="-8.65875">
        <ele>57.392</ele>
        <time>2018-07-28T14:39:58Z</time>
      </trkpt>
      <trkpt lat="42.29431" lon="-8.65867">
        <ele>57.727</ele>
        <time>2018-07-28T14:39:59Z</time>
      </trkpt>
      <trkpt lat="42.2944" lon="-8.65855">
        <ele>57.768</ele>
        <time>2018-07-28T14:40:00Z</time>
      </trkpt>
      <trkpt lat="42.29448" lon="-8.65844">
        <ele>57.514</ele>
        <time>2018-07-28T14:40:01Z</time>
      </trkpt>
      <trkpt lat="42.29453" lon="-8.65831">
        <ele>57.108</ele>
        <time>2018-07-28T14:40:02Z</time>
      </trkpt>
      <trkpt lat="42.29458" lon="-8.65818">
        <ele>56.744</ele>
        <time>2018-07-28T14:40:03Z</time>
      </trkpt>
      <trkpt lat="42.29463" lon="-8.65809">
        <ele>56.359</ele>
        <time>2018-07-28T14:40:04Z</time>
      </trkpt>
      <trkpt lat="42.29466" lon="-8.65797">
        <ele>55.842</ele>
        <time>2018-07-28T14:40:05Z</time>
      </trkpt>
      <trkpt lat="42.2947" lon="-8.65787">
        <ele>55.474</ele>
        <time>2018-07-28T14:40:06Z</time>
      </trkpt>
      <trkpt lat="42.29472" lon="-8.65776">
        <ele>55.249</ele>
        <time>2018-07-28T14:40:07Z</time>
      </trkpt>
      <trkpt lat="42.29468" lon="-8.65764">
        <ele>54.854</ele>
        <time>2018-07-28T14:40:08Z</time>
      </trkpt>
      <trkpt lat="42.29463" lon="-8.65753">
        <ele>54.332</ele>
        <time>2018-07-28T14:40:09Z</time>
      </trkpt>
      <trkpt lat="42.29454" lon="-8.65743">
        <ele>53.958</ele>
        <time>2018-07-28T14:40:10Z</time>
      </trkpt>
      <trkpt lat="42.29445" lon="-8.65738">
        <ele>53.662</ele>
        <time>2018-07-28T14:40:11Z</time>
      </trkpt>
      <trkpt lat="42.29434" lon="-8.65736">
        <ele>53.483</ele>
        <time>2018-07-28T14:40:12Z</time>
      </trkpt>
      <trkpt lat="42.29423" lon="-8.65736">
        <ele>53.311</ele>
        <time>2018-07-28T14:40:13Z</time>
      </trkpt>
      <trkpt lat="42.29412" lon="-8.65741">
        <ele>53.208</ele>
        <time>2018-07-28T14:40:14Z</time>
      </trkpt>
      <trkpt lat="42.29402" lon="-8.65748">
        <ele>53.078</ele>
        <time>2018-07-28T14:40:15Z</time>
      </trkpt>
      <trkpt lat="42.29393" lon="-8.65758">
        <ele>52.723</ele>
        <time>2018-07-28T14:40:16Z</time>
      </trkpt>
      <trkpt lat="42.29385" lon="-8.65771">
        <ele>52.576</ele>
        <time>2018-07-28T14:40:17Z</time>
      </trkpt>
      <trkpt lat="42.29377" lon="-8.65785">
        <ele>52.558</ele>
        <time>2018-07-28T14:40:18Z</time>
      </trkpt>
      <trkpt lat="42.2937" lon="-8.65802">
        <ele>52.533</ele>
        <time>2018-07-28T14:40:19Z</time>
      </trkpt>
      <trkpt lat="42.29362" lon="-8.65817">
        <ele>52.318</ele>
        <time>2018-07-28T14:40:20Z</time>
      </trkpt>
      <trkpt lat="42.29353" lon="-8.65832">
        <ele>52.046</ele>
        <time>2018-07-28T14:40:21Z</time>
      </trkpt>
      <trkpt lat="42.29344" lon="-8.65848">
        <ele>51.592</ele>
        <time>2018-07-28T14:40:22Z</time>
      </trkpt>
      <trkpt lat="42.29337" lon="-8.65863">
        <ele>50.963</ele>
        <time>2018-07-28T14:40:23Z</time>
      </trkpt>
      <trkpt lat="42.29327" lon="-8.65875">
        <ele>50.344</ele>
        <time>2018-07-28T14:40:24Z</time>
      </trkpt>
      <trkpt lat="42.29319" lon="-8.65886">
        <ele>49.818</ele>
        <time>2018-07-28T14:40:25Z</time>
      </trkpt>
      <trkpt lat="42.29308" lon="-8.65894">
        <ele>49.308</ele>
        <time>2018-07-28T14:40:26Z</time>
      </trkpt>
      <trkpt lat="42.29297" lon="-8.65902">
        <ele>49.058</ele>
        <time>2018-07-28T14:40:27Z</time>
      </trkpt>
      <trkpt lat="42.29286" lon="-8.6591">
        <ele>48.623</ele>
        <time>2018-07-28T14:40:28Z</time>
      </trkpt>
      <trkpt lat="42.29273" lon="-8.65917">
        <ele>48.196</ele>
        <time>2018-07-28T14:40:29Z</time>
      </trkpt>
      <trkpt lat="42.29261" lon="-8.65924">
        <ele>47.738</ele>
        <time>2018-07-28T14:40:30Z</time>
      </trkpt>
      <trkpt lat="42.29248" lon="-8.65931">
        <ele>47.453</ele>
        <time>2018-07-28T14:40:31Z</time>
      </trkpt>
      <trkpt lat="42.29237" lon="-8.65939">
        <ele>46.938</ele>
        <time>2018-07-28T14:40:32Z</time>
      </trkpt>
      <trkpt lat="42.29227" lon="-8.65944">
        <ele>45.946</ele>
        <time>2018-07-28T14:40:33Z</time>
      </trkpt>
      <trkpt lat="42.2922" lon="-8.65949">
        <ele>45.212</ele>
        <time>2018-07-28T14:40:34Z</time>
      </trkpt>
      <trkpt lat="42.29213" lon="-8.65962">
        <ele>44.595</ele>
        <time>2018-07-28T14:40:35Z</time>
      </trkpt>
      <trkpt lat="42.29206" lon="-8.65974">
        <ele>44.049</ele>
        <time>2018-07-28T14:40:36Z</time>
      </trkpt>
      <trkpt lat="42.29198" lon="-8.65988">
        <ele>43.423</ele>
        <time>2018-07-28T14:40:37Z</time>
      </trkpt>
      <trkpt lat="42.29192" lon="-8.66001">
        <ele>43.308</ele>
        <time>2018-07-28T14:40:38Z</time>
      </trkpt>
      <trkpt lat="42.29185" lon="-8.66018">
        <ele>43.031</ele>
        <time>2018-07-28T14:40:39Z</time>
      </trkpt>
      <trkpt lat="42.29179" lon="-8.66034">
        <ele>42.736</ele>
        <time>2018-07-28T14:40:40Z</time>
      </trkpt>
      <trkpt lat="42.29178" lon="-8.66048">
        <ele>42.339</ele>
        <time>2018-07-28T14:40:41Z</time>
      </trkpt>
      <trkpt lat="42.29177" lon="-8.66067">
        <ele>42.081</ele>
        <time>2018-07-28T14:40:42Z</time>
      </trkpt>
      <trkpt lat="42.29172" lon="-8.6608">
        <ele>41.186</ele>
        <time>2018-07-28T14:40:43Z</time>
      </trkpt>
      <trkpt lat="42.29168" lon="-8.66092">
        <ele>40.221</ele>
        <time>2018-07-28T14:40:44Z</time>
      </trkpt>
      <trkpt lat="42.29165" lon="-8.66098">
        <ele>39.269</ele>
        <time>2018-07-28T14:40:45Z</time>
      </trkpt>
      <trkpt lat="42.29167" lon="-8.66106">
        <ele>38.255</ele>
        <time>2018-07-28T14:40:46Z</time>
      </trkpt>
      <trkpt lat="42.29163" lon="-8.66112">
        <ele>37.293</ele>
        <time>2018-07-28T14:40:47Z</time>
      </trkpt>
      <trkpt lat="42.29163" lon="-8.6612">
        <ele>36.565</ele>
        <time>2018-07-28T14:40:48Z</time>
      </trkpt>
      <trkpt lat="42.29161" lon="-8.66127">
        <ele>36.121</ele>
        <time>2018-07-28T14:40:49Z</time>
      </trkpt>
      <trkpt lat="42.29163" lon="-8.66137">
        <ele>35.708</ele>
        <time>2018-07-28T14:40:50Z</time>
      </trkpt>
      <trkpt lat="42.29162" lon="-8.66146">
        <ele>35.691</ele>
        <time>2018-07-28T14:40:51Z</time>
      </trkpt>
      <trkpt lat="42.29163" lon="-8.66154">
        <ele>35.576</ele>
        <time>2018-07-28T14:40:52Z</time>
      </trkpt>
      <trkpt lat="42.29166" lon="-8.66165">
        <ele>35.489</ele>
        <time>2018-07-28T14:40:53Z</time>
      </trkpt>
      <trkpt lat="42.29169" lon="-8.66175">
        <ele>35.351</ele>
        <time>2018-07-28T14:40:54Z</time>
      </trkpt>
      <trkpt lat="42.29175" lon="-8.66182">
        <ele>35.356</ele>
        <time>2018-07-28T14:40:55Z</time>
      </trkpt>
      <trkpt lat="42.2918" lon="-8.66189">
        <ele>35.341</ele>
        <time>2018-07-28T14:40:56Z</time>
      </trkpt>
      <trkpt lat="42.29184" lon="-8.66196">
        <ele>35.399</ele>
        <time>2018-07-28T14:40:57Z</time>
      </trkpt>
      <trkpt lat="42.29189" lon="-8.66205">
        <ele>35.245</ele>
        <time>2018-07-28T14:40:59Z</time>
      </trkpt>
      <trkpt lat="42.29192" lon="-8.6621">
        <ele>35.177</ele>
        <time>2018-07-28T14:41:00Z</time>
      </trkpt>
      <trkpt lat="42.29196" lon="-8.66215">
        <ele>35.161</ele>
        <time>2018-07-28T14:41:01Z</time>
      </trkpt>
      <trkpt lat="42.29198" lon="-8.66222">
        <ele>35.127</ele>
        <time>2018-07-28T14:41:02Z</time>
      </trkpt>
      <trkpt lat="42.292" lon="-8.66234">
        <ele>35.208</ele>
        <time>2018-07-28T14:41:03Z</time>
      </trkpt>
      <trkpt lat="42.29202" lon="-8.66244">
        <ele>35.359</ele>
        <time>2018-07-28T14:41:04Z</time>
      </trkpt>
      <trkpt lat="42.29204" lon="-8.66253">
        <ele>35.324</ele>
        <time>2018-07-28T14:41:05Z</time>
      </trkpt>
      <trkpt lat="42.29205" lon="-8.66262">
        <ele>35.397</ele>
        <time>2018-07-28T14:41:06Z</time>
      </trkpt>
      <trkpt lat="42.29207" lon="-8.66271">
        <ele>35.359</ele>
        <time>2018-07-28T14:41:07Z</time>
      </trkpt>
      <trkpt lat="42.29204" lon="-8.66283">
        <ele>35.374</ele>
        <time>2018-07-28T14:41:08Z</time>
      </trkpt>
      <trkpt lat="42.29201" lon="-8.66296">
        <ele>35.669</ele>
        <time>2018-07-28T14:41:09Z</time>
      </trkpt>
      <trkpt lat="42.29195" lon="-8.66309">
        <ele>35.987</ele>
        <time>2018-07-28T14:41:10Z</time>
      </trkpt>
      <trkpt lat="42.29185" lon="-8.6632">
        <ele>36.173</ele>
        <time>2018-07-28T14:41:11Z</time>
      </trkpt>
      <trkpt lat="42.29181" lon="-8.66334">
        <ele>36.316</ele>
        <time>2018-07-28T14:41:12Z</time>
      </trkpt>
      <trkpt lat="42.29181" lon="-8.66349">
        <ele>36.576</ele>
        <time>2018-07-28T14:41:13Z</time>
      </trkpt>
      <trkpt lat="42.29185" lon="-8.66365">
        <ele>36.513</ele>
        <time>2018-07-28T14:41:14Z</time>
      </trkpt>
      <trkpt lat="42.29189" lon="-8.66381">
        <ele>36.308</ele>
        <time>2018-07-28T14:41:15Z</time>
      </trkpt>
      <trkpt lat="42.29193" lon="-8.66399">
        <ele>36.223</ele>
        <time>2018-07-28T14:41:16Z</time>
      </trkpt>
      <trkpt lat="42.29198" lon="-8.66418">
        <ele>35.988</ele>
        <time>2018-07-28T14:41:17Z</time>
      </trkpt>
      <trkpt lat="42.29201" lon="-8.66438">
        <ele>35.611</ele>
        <time>2018-07-28T14:41:18Z</time>
      </trkpt>
      <trkpt lat="42.29205" lon="-8.66456">
        <ele>35.273</ele>
        <time>2018-07-28T14:41:19Z</time>
      </trkpt>
      <trkpt lat="42.29207" lon="-8.66479">
        <ele>34.998</ele>
        <time>2018-07-28T14:41:20Z</time>
      </trkpt>
      <trkpt lat="42.29209" lon="-8.66498">
        <ele>34.613</ele>
        <time>2018-07-28T14:41:21Z</time>
      </trkpt>
      <trkpt lat="42.29211" lon="-8.66517">
        <ele>34.331</ele>
        <time>2018-07-28T14:41:22Z</time>
      </trkpt>
      <trkpt lat="42.29212" lon="-8.66539">
        <ele>33.977</ele>
        <time>2018-07-28T14:41:23Z</time>
      </trkpt>
      <trkpt lat="42.29214" lon="-8.66557">
        <ele>33.838</ele>
        <time>2018-07-28T14:41:24Z</time>
      </trkpt>
      <trkpt lat="42.29216" lon="-8.66574">
        <ele>33.57</ele>
        <time>2018-07-28T14:41:25Z</time>
      </trkpt>
      <trkpt lat="42.29216" lon="-8.66591">
        <ele>33.317</ele>
        <time>2018-07-28T14:41:26Z</time>
      </trkpt>
      <trkpt lat="42.29216" lon="-8.66605">
        <ele>33.008</ele>
        <time>2018-07-28T14:41:27Z</time>
      </trkpt>
      <trkpt lat="42.29219" lon="-8.66626">
        <ele>32.955</ele>
        <time>2018-07-28T14:41:28Z</time>
      </trkpt>
      <trkpt lat="42.29221" lon="-8.66644">
        <ele>32.98</ele>
        <time>2018-07-28T14:41:29Z</time>
      </trkpt>
      <trkpt lat="42.29225" lon="-8.66661">
        <ele>33.043</ele>
        <time>2018-07-28T14:41:30Z</time>
      </trkpt>
      <trkpt lat="42.29227" lon="-8.66679">
        <ele>33.225</ele>
        <time>2018-07-28T14:41:31Z</time>
      </trkpt>
      <trkpt lat="42.29227" lon="-8.66698">
        <ele>33.31</ele>
        <time>2018-07-28T14:41:32Z</time>
      </trkpt>
      <trkpt lat="42.29227" lon="-8.66717">
        <ele>33.325</ele>
        <time>2018-07-28T14:41:33Z</time>
      </trkpt>
      <trkpt lat="42.29227" lon="-8.66734">
        <ele>33.183</ele>
        <time>2018-07-28T14:41:34Z</time>
      </trkpt>
      <trkpt lat="42.29221" lon="-8.6675">
        <ele>33.189</ele>
        <time>2018-07-28T14:41:35Z</time>
      </trkpt>
      <trkpt lat="42.29209" lon="-8.66763">
        <ele>33.332</ele>
        <time>2018-07-28T14:41:36Z</time>
      </trkpt>
      <trkpt lat="42.29197" lon="-8.66774">
        <ele>33.392</ele>
        <time>2018-07-28T14:41:37Z</time>
      </trkpt>
      <trkpt lat="42.29187" lon="-8.66786">
        <ele>33.511</ele>
        <time>2018-07-28T14:41:38Z</time>
      </trkpt>
      <trkpt lat="42.29178" lon="-8.66798">
        <ele>33.508</ele>
        <time>2018-07-28T14:41:39Z</time>
      </trkpt>
      <trkpt lat="42.29167" lon="-8.66809">
        <ele>33.055</ele>
        <time>2018-07-28T14:41:40Z</time>
      </trkpt>
      <trkpt lat="42.29157" lon="-8.66821">
        <ele>32.98</ele>
        <time>2018-07-28T14:41:41Z</time>
      </trkpt>
      <trkpt lat="42.29149" lon="-8.66834">
        <ele>32.663</ele>
        <time>2018-07-28T14:41:42Z</time>
      </trkpt>
      <trkpt lat="42.29143" lon="-8.66853">
        <ele>32.655</ele>
        <time>2018-07-28T14:41:43Z</time>
      </trkpt>
      <trkpt lat="42.29141" lon="-8.66871">
        <ele>32.75</ele>
        <time>2018-07-28T14:41:44Z</time>
      </trkpt>
      <trkpt lat="42.29139" lon="-8.66889">
        <ele>32.785</ele>
        <time>2018-07-28T14:41:45Z</time>
      </trkpt>
      <trkpt lat="42.29137" lon="-8.66906">
        <ele>32.533</ele>
        <time>2018-07-28T14:41:46Z</time>
      </trkpt>
      <trkpt lat="42.29136" lon="-8.66924">
        <ele>32.419</ele>
        <time>2018-07-28T14:41:47Z</time>
      </trkpt>
      <trkpt lat="42.29139" lon="-8.66942">
        <ele>32.498</ele>
        <time>2018-07-28T14:41:48Z</time>
      </trkpt>
      <trkpt lat="42.29142" lon="-8.66959">
        <ele>31.815</ele>
        <time>2018-07-28T14:41:49Z</time>
      </trkpt>
      <trkpt lat="42.29142" lon="-8.66975">
        <ele>31.526</ele>
        <time>2018-07-28T14:41:50Z</time>
      </trkpt>
      <trkpt lat="42.29143" lon="-8.6699">
        <ele>31.008</ele>
        <time>2018-07-28T14:41:51Z</time>
      </trkpt>
      <trkpt lat="42.29144" lon="-8.67007">
        <ele>30.581</ele>
        <time>2018-07-28T14:41:52Z</time>
      </trkpt>
      <trkpt lat="42.29142" lon="-8.67024">
        <ele>29.826</ele>
        <time>2018-07-28T14:41:53Z</time>
      </trkpt>
      <trkpt lat="42.29143" lon="-8.67039">
        <ele>29.339</ele>
        <time>2018-07-28T14:41:54Z</time>
      </trkpt>
      <trkpt lat="42.29146" lon="-8.67054">
        <ele>28.981</ele>
        <time>2018-07-28T14:41:55Z</time>
      </trkpt>
      <trkpt lat="42.29144" lon="-8.67066">
        <ele>28.436</ele>
        <time>2018-07-28T14:41:56Z</time>
      </trkpt>
      <trkpt lat="42.29143" lon="-8.6708">
        <ele>27.471</ele>
        <time>2018-07-28T14:41:57Z</time>
      </trkpt>
      <trkpt lat="42.29141" lon="-8.67094">
        <ele>26.739</ele>
        <time>2018-07-28T14:41:58Z</time>
      </trkpt>
      <trkpt lat="42.2914" lon="-8.67108">
        <ele>25.935</ele>
        <time>2018-07-28T14:41:59Z</time>
      </trkpt>
      <trkpt lat="42.29138" lon="-8.67123">
        <ele>25.092</ele>
        <time>2018-07-28T14:42:00Z</time>
      </trkpt>
      <trkpt lat="42.29136" lon="-8.6714">
        <ele>24.373</ele>
        <time>2018-07-28T14:42:01Z</time>
      </trkpt>
      <trkpt lat="42.29134" lon="-8.67157">
        <ele>23.72</ele>
        <time>2018-07-28T14:42:02Z</time>
      </trkpt>
      <trkpt lat="42.29136" lon="-8.67175">
        <ele>23.308</ele>
        <time>2018-07-28T14:42:03Z</time>
      </trkpt>
      <trkpt lat="42.29138" lon="-8.67192">
        <ele>22.741</ele>
        <time>2018-07-28T14:42:04Z</time>
      </trkpt>
      <trkpt lat="42.29142" lon="-8.6721">
        <ele>22.036</ele>
        <time>2018-07-28T14:42:05Z</time>
      </trkpt>
      <trkpt lat="42.29145" lon="-8.67227">
        <ele>21.249</ele>
        <time>2018-07-28T14:42:06Z</time>
      </trkpt>
      <trkpt lat="42.29148" lon="-8.67243">
        <ele>20.341</ele>
        <time>2018-07-28T14:42:07Z</time>
      </trkpt>
      <trkpt lat="42.29151" lon="-8.67259">
        <ele>19.276</ele>
        <time>2018-07-28T14:42:08Z</time>
      </trkpt>
      <trkpt lat="42.29153" lon="-8.67275">
        <ele>18.411</ele>
        <time>2018-07-28T14:42:09Z</time>
      </trkpt>
      <trkpt lat="42.29155" lon="-8.67291">
        <ele>17.969</ele>
        <time>2018-07-28T14:42:10Z</time>
      </trkpt>
      <trkpt lat="42.29158" lon="-8.67307">
        <ele>17.615</ele>
        <time>2018-07-28T14:42:11Z</time>
      </trkpt>
      <trkpt lat="42.29161" lon="-8.67323">
        <ele>17.426</ele>
        <time>2018-07-28T14:42:12Z</time>
      </trkpt>
      <trkpt lat="42.29163" lon="-8.67339">
        <ele>17.347</ele>
        <time>2018-07-28T14:42:13Z</time>
      </trkpt>
      <trkpt lat="42.29167" lon="-8.67354">
        <ele>17.211</ele>
        <time>2018-07-28T14:42:14Z</time>
      </trkpt>
      <trkpt lat="42.2917" lon="-8.67369">
        <ele>16.908</ele>
        <time>2018-07-28T14:42:15Z</time>
      </trkpt>
      <trkpt lat="42.29172" lon="-8.67385">
        <ele>16.864</ele>
        <time>2018-07-28T14:42:16Z</time>
      </trkpt>
      <trkpt lat="42.29175" lon="-8.67401">
        <ele>16.769</ele>
        <time>2018-07-28T14:42:17Z</time>
      </trkpt>
      <trkpt lat="42.29175" lon="-8.67418">
        <ele>16.722</ele>
        <time>2018-07-28T14:42:18Z</time>
      </trkpt>
      <trkpt lat="42.29175" lon="-8.67436">
        <ele>16.754</ele>
        <time>2018-07-28T14:42:19Z</time>
      </trkpt>
      <trkpt lat="42.29173" lon="-8.67453">
        <ele>17.049</ele>
        <time>2018-07-28T14:42:20Z</time>
      </trkpt>
      <trkpt lat="42.29169" lon="-8.6747">
        <ele>17.064</ele>
        <time>2018-07-28T14:42:21Z</time>
      </trkpt>
      <trkpt lat="42.29166" lon="-8.67485">
        <ele>16.942</ele>
        <time>2018-07-28T14:42:22Z</time>
      </trkpt>
      <trkpt lat="42.29163" lon="-8.67501">
        <ele>16.528</ele>
        <time>2018-07-28T14:42:23Z</time>
      </trkpt>
      <trkpt lat="42.29159" lon="-8.67516">
        <ele>16.164</ele>
        <time>2018-07-28T14:42:24Z</time>
      </trkpt>
      <trkpt lat="42.29156" lon="-8.67532">
        <ele>15.706</ele>
        <time>2018-07-28T14:42:25Z</time>
      </trkpt>
      <trkpt lat="42.29151" lon="-8.67547">
        <ele>15.416</ele>
        <time>2018-07-28T14:42:26Z</time>
      </trkpt>
      <trkpt lat="42.29144" lon="-8.67561">
        <ele>15.408</ele>
        <time>2018-07-28T14:42:27Z</time>
      </trkpt>
      <trkpt lat="42.29138" lon="-8.67574">
        <ele>15.588</ele>
        <time>2018-07-28T14:42:28Z</time>
      </trkpt>
      <trkpt lat="42.29131" lon="-8.67586">
        <ele>15.523</ele>
        <time>2018-07-28T14:42:29Z</time>
      </trkpt>
      <trkpt lat="42.29125" lon="-8.67597">
        <ele>14.856</ele>
        <time>2018-07-28T14:42:30Z</time>
      </trkpt>
      <trkpt lat="42.29119" lon="-8.67609">
        <ele>14.148</ele>
        <time>2018-07-28T14:42:31Z</time>
      </trkpt>
      <trkpt lat="42.29113" lon="-8.67621">
        <ele>13.673</ele>
        <time>2018-07-28T14:42:32Z</time>
      </trkpt>
      <trkpt lat="42.29108" lon="-8.67632">
        <ele>13.218</ele>
        <time>2018-07-28T14:42:33Z</time>
      </trkpt>
      <trkpt lat="42.29103" lon="-8.67644">
        <ele>12.846</ele>
        <time>2018-07-28T14:42:34Z</time>
      </trkpt>
      <trkpt lat="42.29099" lon="-8.67657">
        <ele>12.442</ele>
        <time>2018-07-28T14:42:35Z</time>
      </trkpt>
      <trkpt lat="42.29096" lon="-8.6767">
        <ele>12.244</ele>
        <time>2018-07-28T14:42:36Z</time>
      </trkpt>
      <trkpt lat="42.29093" lon="-8.67683">
        <ele>11.805</ele>
        <time>2018-07-28T14:42:37Z</time>
      </trkpt>
      <trkpt lat="42.29091" lon="-8.67696">
        <ele>11.415</ele>
        <time>2018-07-28T14:42:38Z</time>
      </trkpt>
      <trkpt lat="42.29089" lon="-8.67709">
        <ele>11.408</ele>
        <time>2018-07-28T14:42:39Z</time>
      </trkpt>
      <trkpt lat="42.29087" lon="-8.67721">
        <ele>11.446</ele>
        <time>2018-07-28T14:42:40Z</time>
      </trkpt>
      <trkpt lat="42.29085" lon="-8.67733">
        <ele>11.811</ele>
        <time>2018-07-28T14:42:41Z</time>
      </trkpt>
      <trkpt lat="42.29084" lon="-8.67744">
        <ele>12.164</ele>
        <time>2018-07-28T14:42:42Z</time>
      </trkpt>
      <trkpt lat="42.29082" lon="-8.67754">
        <ele>12.116</ele>
        <time>2018-07-28T14:42:43Z</time>
      </trkpt>
      <trkpt lat="42.29081" lon="-8.67764">
        <ele>11.811</ele>
        <time>2018-07-28T14:42:44Z</time>
      </trkpt>
      <trkpt lat="42.29079" lon="-8.67775">
        <ele>11.536</ele>
        <time>2018-07-28T14:42:45Z</time>
      </trkpt>
      <trkpt lat="42.29076" lon="-8.67786">
        <ele>10.944</ele>
        <time>2018-07-28T14:42:46Z</time>
      </trkpt>
      <trkpt lat="42.29073" lon="-8.67796">
        <ele>10.53</ele>
        <time>2018-07-28T14:42:47Z</time>
      </trkpt>
      <trkpt lat="42.29071" lon="-8.67807">
        <ele>10.666</ele>
        <time>2018-07-28T14:42:48Z</time>
      </trkpt>
      <trkpt lat="42.29068" lon="-8.67816">
        <ele>10.629</ele>
        <time>2018-07-28T14:42:49Z</time>
      </trkpt>
      <trkpt lat="42.29062" lon="-8.67825">
        <ele>10.621</ele>
        <time>2018-07-28T14:42:50Z</time>
      </trkpt>
      <trkpt lat="42.29056" lon="-8.67834">
        <ele>10.608</ele>
        <time>2018-07-28T14:42:51Z</time>
      </trkpt>
      <trkpt lat="42.29047" lon="-8.67843">
        <ele>10.848</ele>
        <time>2018-07-28T14:42:52Z</time>
      </trkpt>
      <trkpt lat="42.29038" lon="-8.6785">
        <ele>11.023</ele>
        <time>2018-07-28T14:42:53Z</time>
      </trkpt>
      <trkpt lat="42.29029" lon="-8.67856">
        <ele>11.576</ele>
        <time>2018-07-28T14:42:54Z</time>
      </trkpt>
      <trkpt lat="42.29018" lon="-8.67861">
        <ele>12.068</ele>
        <time>2018-07-28T14:42:55Z</time>
      </trkpt>
      <trkpt lat="42.29008" lon="-8.67866">
        <ele>12.483</ele>
        <time>2018-07-28T14:42:56Z</time>
      </trkpt>
      <trkpt lat="42.28997" lon="-8.67872">
        <ele>12.838</ele>
        <time>2018-07-28T14:42:57Z</time>
      </trkpt>
      <trkpt lat="42.28986" lon="-8.67877">
        <ele>13.086</ele>
        <time>2018-07-28T14:42:58Z</time>
      </trkpt>
      <trkpt lat="42.28975" lon="-8.67884">
        <ele>13.192</ele>
        <time>2018-07-28T14:42:59Z</time>
      </trkpt>
      <trkpt lat="42.28966" lon="-8.67893">
        <ele>13.225</ele>
        <time>2018-07-28T14:43:00Z</time>
      </trkpt>
      <trkpt lat="42.28957" lon="-8.67901">
        <ele>13.226</ele>
        <time>2018-07-28T14:43:01Z</time>
      </trkpt>
      <trkpt lat="42.28949" lon="-8.67908">
        <ele>13.208</ele>
        <time>2018-07-28T14:43:02Z</time>
      </trkpt>
      <trkpt lat="42.2894" lon="-8.67916">
        <ele>13.208</ele>
        <time>2018-07-28T14:43:03Z</time>
      </trkpt>
      <trkpt lat="42.28932" lon="-8.67923">
        <ele>12.934</ele>
        <time>2018-07-28T14:43:04Z</time>
      </trkpt>
      <trkpt lat="42.28924" lon="-8.67932">
        <ele>12.779</ele>
        <time>2018-07-28T14:43:05Z</time>
      </trkpt>
      <trkpt lat="42.28915" lon="-8.6794">
        <ele>12.692</ele>
        <time>2018-07-28T14:43:06Z</time>
      </trkpt>
      <trkpt lat="42.28906" lon="-8.67948">
        <ele>12.574</ele>
        <time>2018-07-28T14:43:07Z</time>
      </trkpt>
      <trkpt lat="42.28896" lon="-8.67956">
        <ele>12.459</ele>
        <time>2018-07-28T14:43:08Z</time>
      </trkpt>
      <trkpt lat="42.28887" lon="-8.67964">
        <ele>12.454</ele>
        <time>2018-07-28T14:43:09Z</time>
      </trkpt>
      <trkpt lat="42.28878" lon="-8.67972">
        <ele>12.472</ele>
        <time>2018-07-28T14:43:10Z</time>
      </trkpt>
      <trkpt lat="42.2887" lon="-8.67979">
        <ele>12.248</ele>
        <time>2018-07-28T14:43:11Z</time>
      </trkpt>
      <trkpt lat="42.28862" lon="-8.67987">
        <ele>12.019</ele>
        <time>2018-07-28T14:43:12Z</time>
      </trkpt>
      <trkpt lat="42.28853" lon="-8.67995">
        <ele>11.709</ele>
        <time>2018-07-28T14:43:13Z</time>
      </trkpt>
      <trkpt lat="42.28845" lon="-8.68003">
        <ele>11.519</ele>
        <time>2018-07-28T14:43:14Z</time>
      </trkpt>
      <trkpt lat="42.28836" lon="-8.68011">
        <ele>11.308</ele>
        <time>2018-07-28T14:43:15Z</time>
      </trkpt>
      <trkpt lat="42.28826" lon="-8.6802">
        <ele>11.383</ele>
        <time>2018-07-28T14:43:16Z</time>
      </trkpt>
      <trkpt lat="42.28816" lon="-8.6803">
        <ele>11.498</ele>
        <time>2018-07-28T14:43:17Z</time>
      </trkpt>
      <trkpt lat="42.28805" lon="-8.6804">
        <ele>12.041</ele>
        <time>2018-07-28T14:43:18Z</time>
      </trkpt>
      <trkpt lat="42.28795" lon="-8.68049">
        <ele>12.753</ele>
        <time>2018-07-28T14:43:19Z</time>
      </trkpt>
      <trkpt lat="42.28785" lon="-8.68058">
        <ele>13.968</ele>
        <time>2018-07-28T14:43:20Z</time>
      </trkpt>
      <trkpt lat="42.28776" lon="-8.68066">
        <ele>14.463</ele>
        <time>2018-07-28T14:43:21Z</time>
      </trkpt>
      <trkpt lat="42.28766" lon="-8.68074">
        <ele>14.651</ele>
        <time>2018-07-28T14:43:22Z</time>
      </trkpt>
      <trkpt lat="42.28757" lon="-8.68084">
        <ele>14.737</ele>
        <time>2018-07-28T14:43:23Z</time>
      </trkpt>
      <trkpt lat="42.28748" lon="-8.68093">
        <ele>14.962</ele>
        <time>2018-07-28T14:43:24Z</time>
      </trkpt>
      <trkpt lat="42.28739" lon="-8.68102">
        <ele>15.483</ele>
        <time>2018-07-28T14:43:25Z</time>
      </trkpt>
      <trkpt lat="42.28731" lon="-8.68112">
        <ele>15.711</ele>
        <time>2018-07-28T14:43:26Z</time>
      </trkpt>
      <trkpt lat="42.28723" lon="-8.68121">
        <ele>15.908</ele>
        <time>2018-07-28T14:43:27Z</time>
      </trkpt>
      <trkpt lat="42.28715" lon="-8.68131">
        <ele>16.168</ele>
        <time>2018-07-28T14:43:28Z</time>
      </trkpt>
      <trkpt lat="42.28708" lon="-8.6814">
        <ele>16.163</ele>
        <time>2018-07-28T14:43:29Z</time>
      </trkpt>
      <trkpt lat="42.28702" lon="-8.68148">
        <ele>15.996</ele>
        <time>2018-07-28T14:43:30Z</time>
      </trkpt>
      <trkpt lat="42.28696" lon="-8.68156">
        <ele>15.838</ele>
        <time>2018-07-28T14:43:31Z</time>
      </trkpt>
      <trkpt lat="42.28691" lon="-8.68165">
        <ele>15.683</ele>
        <time>2018-07-28T14:43:32Z</time>
      </trkpt>
      <trkpt lat="42.28686" lon="-8.68174">
        <ele>15.248</ele>
        <time>2018-07-28T14:43:33Z</time>
      </trkpt>
      <trkpt lat="42.2868" lon="-8.68182">
        <ele>15.066</ele>
        <time>2018-07-28T14:43:34Z</time>
      </trkpt>
      <trkpt lat="42.28674" lon="-8.68191">
        <ele>15.022</ele>
        <time>2018-07-28T14:43:35Z</time>
      </trkpt>
      <trkpt lat="42.28668" lon="-8.68201">
        <ele>15.148</ele>
        <time>2018-07-28T14:43:36Z</time>
      </trkpt>
      <trkpt lat="42.28662" lon="-8.6821">
        <ele>15.661</ele>
        <time>2018-07-28T14:43:37Z</time>
      </trkpt>
      <trkpt lat="42.28657" lon="-8.68218">
        <ele>15.717</ele>
        <time>2018-07-28T14:43:38Z</time>
      </trkpt>
      <trkpt lat="42.28652" lon="-8.68226">
        <ele>15.708</ele>
        <time>2018-07-28T14:43:39Z</time>
      </trkpt>
      <trkpt lat="42.28647" lon="-8.68232">
        <ele>15.616</ele>
        <time>2018-07-28T14:43:40Z</time>
      </trkpt>
      <trkpt lat="42.28643" lon="-8.68239">
        <ele>15.311</ele>
        <time>2018-07-28T14:43:41Z</time>
      </trkpt>
      <trkpt lat="42.28639" lon="-8.68244">
        <ele>15.024</ele>
        <time>2018-07-28T14:43:42Z</time>
      </trkpt>
      <trkpt lat="42.28635" lon="-8.68249">
        <ele>14.826</ele>
        <time>2018-07-28T14:43:43Z</time>
      </trkpt>
      <trkpt lat="42.28632" lon="-8.68254">
        <ele>14.791</ele>
        <time>2018-07-28T14:43:44Z</time>
      </trkpt>
      <trkpt lat="42.28629" lon="-8.68258">
        <ele>14.586</ele>
        <time>2018-07-28T14:43:45Z</time>
      </trkpt>
      <trkpt lat="42.28626" lon="-8.68263">
        <ele>14.544</ele>
        <time>2018-07-28T14:43:46Z</time>
      </trkpt>
      <trkpt lat="42.28622" lon="-8.68267">
        <ele>14.56</ele>
        <time>2018-07-28T14:43:47Z</time>
      </trkpt>
      <trkpt lat="42.28619" lon="-8.68272">
        <ele>14.599</ele>
        <time>2018-07-28T14:43:48Z</time>
      </trkpt>
      <trkpt lat="42.28615" lon="-8.68277">
        <ele>14.507</ele>
        <time>2018-07-28T14:43:49Z</time>
      </trkpt>
      <trkpt lat="42.28612" lon="-8.68283">
        <ele>14.627</ele>
        <time>2018-07-28T14:43:50Z</time>
      </trkpt>
      <trkpt lat="42.28609" lon="-8.68288">
        <ele>14.608</ele>
        <time>2018-07-28T14:43:51Z</time>
      </trkpt>
      <trkpt lat="42.28604" lon="-8.68293">
        <ele>14.571</ele>
        <time>2018-07-28T14:43:53Z</time>
      </trkpt>
      <trkpt lat="42.28608" lon="-8.68297">
        <ele>13.566</ele>
        <time>2018-07-28T14:44:04Z</time>
      </trkpt>
      <trkpt lat="42.28604" lon="-8.68303">
        <ele>13.999</ele>
        <time>2018-07-28T14:44:20Z</time>
      </trkpt>
      <trkpt lat="42.286" lon="-8.68308">
        <ele>14.211</ele>
        <time>2018-07-28T14:44:21Z</time>
      </trkpt>
      <trkpt lat="42.28594" lon="-8.68317">
        <ele>14.576</ele>
        <time>2018-07-28T14:44:22Z</time>
      </trkpt>
      <trkpt lat="42.28587" lon="-8.68327">
        <ele>14.771</ele>
        <time>2018-07-28T14:44:23Z</time>
      </trkpt>
      <trkpt lat="42.2858" lon="-8.68337">
        <ele>14.899</ele>
        <time>2018-07-28T14:44:24Z</time>
      </trkpt>
      <trkpt lat="42.28572" lon="-8.68348">
        <ele>14.865</ele>
        <time>2018-07-28T14:44:25Z</time>
      </trkpt>
      <trkpt lat="42.28565" lon="-8.68359">
        <ele>14.763</ele>
        <time>2018-07-28T14:44:26Z</time>
      </trkpt>
      <trkpt lat="42.28558" lon="-8.68369">
        <ele>14.644</ele>
        <time>2018-07-28T14:44:27Z</time>
      </trkpt>
      <trkpt lat="42.2855" lon="-8.68378">
        <ele>14.718</ele>
        <time>2018-07-28T14:44:28Z</time>
      </trkpt>
      <trkpt lat="42.28542" lon="-8.68388">
        <ele>14.908</ele>
        <time>2018-07-28T14:44:29Z</time>
      </trkpt>
      <trkpt lat="42.28532" lon="-8.68396">
        <ele>15.488</ele>
        <time>2018-07-28T14:44:30Z</time>
      </trkpt>
      <trkpt lat="42.28521" lon="-8.68404">
        <ele>16.053</ele>
        <time>2018-07-28T14:44:31Z</time>
      </trkpt>
      <trkpt lat="42.2851" lon="-8.68411">
        <ele>16.616</ele>
        <time>2018-07-28T14:44:32Z</time>
      </trkpt>
      <trkpt lat="42.28499" lon="-8.68417">
        <ele>17.198</ele>
        <time>2018-07-28T14:44:33Z</time>
      </trkpt>
      <trkpt lat="42.28488" lon="-8.68423">
        <ele>17.643</ele>
        <time>2018-07-28T14:44:34Z</time>
      </trkpt>
      <trkpt lat="42.28478" lon="-8.68429">
        <ele>17.988</ele>
        <time>2018-07-28T14:44:35Z</time>
      </trkpt>
      <trkpt lat="42.28467" lon="-8.68435">
        <ele>18.276</ele>
        <time>2018-07-28T14:44:36Z</time>
      </trkpt>
      <trkpt lat="42.28457" lon="-8.68441">
        <ele>18.642</ele>
        <time>2018-07-28T14:44:37Z</time>
      </trkpt>
      <trkpt lat="42.28445" lon="-8.68447">
        <ele>19.084</ele>
        <time>2018-07-28T14:44:38Z</time>
      </trkpt>
      <trkpt lat="42.28433" lon="-8.68453">
        <ele>19.307</ele>
        <time>2018-07-28T14:44:39Z</time>
      </trkpt>
      <trkpt lat="42.28422" lon="-8.68458">
        <ele>19.617</ele>
        <time>2018-07-28T14:44:40Z</time>
      </trkpt>
      <trkpt lat="42.2841" lon="-8.68464">
        <ele>19.808</ele>
        <time>2018-07-28T14:44:41Z</time>
      </trkpt>
      <trkpt lat="42.28398" lon="-8.68471">
        <ele>19.85</ele>
        <time>2018-07-28T14:44:42Z</time>
      </trkpt>
      <trkpt lat="42.28386" lon="-8.68477">
        <ele>19.725</ele>
        <time>2018-07-28T14:44:43Z</time>
      </trkpt>
      <trkpt lat="42.28374" lon="-8.68483">
        <ele>19.848</ele>
        <time>2018-07-28T14:44:44Z</time>
      </trkpt>
      <trkpt lat="42.28362" lon="-8.68489">
        <ele>20.01</ele>
        <time>2018-07-28T14:44:45Z</time>
      </trkpt>
      <trkpt lat="42.2835" lon="-8.68494">
        <ele>20.475</ele>
        <time>2018-07-28T14:44:46Z</time>
      </trkpt>
      <trkpt lat="42.28337" lon="-8.68499">
        <ele>21.28</ele>
        <time>2018-07-28T14:44:47Z</time>
      </trkpt>
      <trkpt lat="42.28326" lon="-8.68505">
        <ele>22.228</ele>
        <time>2018-07-28T14:44:48Z</time>
      </trkpt>
      <trkpt lat="42.28315" lon="-8.68513">
        <ele>23.394</ele>
        <time>2018-07-28T14:44:49Z</time>
      </trkpt>
      <trkpt lat="42.28306" lon="-8.68525">
        <ele>24.478</ele>
        <time>2018-07-28T14:44:50Z</time>
      </trkpt>
      <trkpt lat="42.28299" lon="-8.68541">
        <ele>25.633</ele>
        <time>2018-07-28T14:44:51Z</time>
      </trkpt>
      <trkpt lat="42.28292" lon="-8.68558">
        <ele>26.826</ele>
        <time>2018-07-28T14:44:52Z</time>
      </trkpt>
      <trkpt lat="42.28287" lon="-8.68577">
        <ele>27.908</ele>
        <time>2018-07-28T14:44:53Z</time>
      </trkpt>
      <trkpt lat="42.28283" lon="-8.68594">
        <ele>28.989</ele>
        <time>2018-07-28T14:44:54Z</time>
      </trkpt>
      <trkpt lat="42.28279" lon="-8.68612">
        <ele>29.974</ele>
        <time>2018-07-28T14:44:55Z</time>
      </trkpt>
      <trkpt lat="42.28274" lon="-8.68631">
        <ele>30.627</ele>
        <time>2018-07-28T14:44:56Z</time>
      </trkpt>
      <trkpt lat="42.28268" lon="-8.6865">
        <ele>31.529</ele>
        <time>2018-07-28T14:44:57Z</time>
      </trkpt>
      <trkpt lat="42.28262" lon="-8.68668">
        <ele>32.674</ele>
        <time>2018-07-28T14:44:58Z</time>
      </trkpt>
      <trkpt lat="42.28255" lon="-8.68685">
        <ele>33.649</ele>
        <time>2018-07-28T14:44:59Z</time>
      </trkpt>
      <trkpt lat="42.28248" lon="-8.68701">
        <ele>35.487</ele>
        <time>2018-07-28T14:45:00Z</time>
      </trkpt>
      <trkpt lat="42.28241" lon="-8.68718">
        <ele>36.133</ele>
        <time>2018-07-28T14:45:01Z</time>
      </trkpt>
      <trkpt lat="42.28234" lon="-8.68735">
        <ele>36.641</ele>
        <time>2018-07-28T14:45:02Z</time>
      </trkpt>
      <trkpt lat="42.28229" lon="-8.68752">
        <ele>37.181</ele>
        <time>2018-07-28T14:45:03Z</time>
      </trkpt>
      <trkpt lat="42.28224" lon="-8.68769">
        <ele>37.609</ele>
        <time>2018-07-28T14:45:04Z</time>
      </trkpt>
      <trkpt lat="42.2822" lon="-8.68787">
        <ele>38.008</ele>
        <time>2018-07-28T14:45:05Z</time>
      </trkpt>
      <trkpt lat="42.28218" lon="-8.68805">
        <ele>38.476</ele>
        <time>2018-07-28T14:45:06Z</time>
      </trkpt>
      <trkpt lat="42.28216" lon="-8.68825">
        <ele>38.461</ele>
        <time>2018-07-28T14:45:07Z</time>
      </trkpt>
      <trkpt lat="42.28215" lon="-8.68844">
        <ele>38.564</ele>
        <time>2018-07-28T14:45:08Z</time>
      </trkpt>
      <trkpt lat="42.28214" lon="-8.68864">
        <ele>38.676</ele>
        <time>2018-07-28T14:45:09Z</time>
      </trkpt>
      <trkpt lat="42.28214" lon="-8.68884">
        <ele>39.091</ele>
        <time>2018-07-28T14:45:10Z</time>
      </trkpt>
      <trkpt lat="42.28213" lon="-8.68903">
        <ele>39.496</ele>
        <time>2018-07-28T14:45:11Z</time>
      </trkpt>
      <trkpt lat="42.28211" lon="-8.68922">
        <ele>39.994</ele>
        <time>2018-07-28T14:45:12Z</time>
      </trkpt>
      <trkpt lat="42.28207" lon="-8.68939">
        <ele>40.68</ele>
        <time>2018-07-28T14:45:13Z</time>
      </trkpt>
      <trkpt lat="42.282" lon="-8.68954">
        <ele>40.997</ele>
        <time>2018-07-28T14:45:14Z</time>
      </trkpt>
      <trkpt lat="42.28192" lon="-8.68967">
        <ele>40.923</ele>
        <time>2018-07-28T14:45:15Z</time>
      </trkpt>
      <trkpt lat="42.28182" lon="-8.68977">
        <ele>40.825</ele>
        <time>2018-07-28T14:45:16Z</time>
      </trkpt>
      <trkpt lat="42.28171" lon="-8.68985">
        <ele>40.108</ele>
        <time>2018-07-28T14:45:17Z</time>
      </trkpt>
      <trkpt lat="42.28159" lon="-8.68992">
        <ele>40.121</ele>
        <time>2018-07-28T14:45:18Z</time>
      </trkpt>
      <trkpt lat="42.28147" lon="-8.68999">
        <ele>40.186</ele>
        <time>2018-07-28T14:45:19Z</time>
      </trkpt>
      <trkpt lat="42.28134" lon="-8.69007">
        <ele>40.329</ele>
        <time>2018-07-28T14:45:20Z</time>
      </trkpt>
      <trkpt lat="42.28121" lon="-8.69015">
        <ele>40.831</ele>
        <time>2018-07-28T14:45:21Z</time>
      </trkpt>
      <trkpt lat="42.2811" lon="-8.69024">
        <ele>41.366</ele>
        <time>2018-07-28T14:45:22Z</time>
      </trkpt>
      <trkpt lat="42.28101" lon="-8.69036">
        <ele>41.741</ele>
        <time>2018-07-28T14:45:23Z</time>
      </trkpt>
      <trkpt lat="42.28094" lon="-8.6905">
        <ele>41.899</ele>
        <time>2018-07-28T14:45:24Z</time>
      </trkpt>
      <trkpt lat="42.28088" lon="-8.69066">
        <ele>42.125</ele>
        <time>2018-07-28T14:45:25Z</time>
      </trkpt>
      <trkpt lat="42.28082" lon="-8.69083">
        <ele>42.396</ele>
        <time>2018-07-28T14:45:26Z</time>
      </trkpt>
      <trkpt lat="42.28077" lon="-8.69101">
        <ele>42.631</ele>
        <time>2018-07-28T14:45:27Z</time>
      </trkpt>
      <trkpt lat="42.28071" lon="-8.69118">
        <ele>43.024</ele>
        <time>2018-07-28T14:45:28Z</time>
      </trkpt>
      <trkpt lat="42.28065" lon="-8.69136">
        <ele>43.808</ele>
        <time>2018-07-28T14:45:29Z</time>
      </trkpt>
      <trkpt lat="42.28059" lon="-8.69154">
        <ele>44.571</ele>
        <time>2018-07-28T14:45:30Z</time>
      </trkpt>
      <trkpt lat="42.28053" lon="-8.69172">
        <ele>45.176</ele>
        <time>2018-07-28T14:45:31Z</time>
      </trkpt>
      <trkpt lat="42.28047" lon="-8.69191">
        <ele>45.629</ele>
        <time>2018-07-28T14:45:32Z</time>
      </trkpt>
      <trkpt lat="42.28041" lon="-8.69209">
        <ele>46.261</ele>
        <time>2018-07-28T14:45:33Z</time>
      </trkpt>
      <trkpt lat="42.28036" lon="-8.69227">
        <ele>47.226</ele>
        <time>2018-07-28T14:45:34Z</time>
      </trkpt>
      <trkpt lat="42.28031" lon="-8.69245">
        <ele>47.611</ele>
        <time>2018-07-28T14:45:35Z</time>
      </trkpt>
      <trkpt lat="42.28027" lon="-8.69263">
        <ele>47.999</ele>
        <time>2018-07-28T14:45:36Z</time>
      </trkpt>
      <trkpt lat="42.28024" lon="-8.69282">
        <ele>48.045</ele>
        <time>2018-07-28T14:45:37Z</time>
      </trkpt>
      <trkpt lat="42.2802" lon="-8.693">
        <ele>48.137</ele>
        <time>2018-07-28T14:45:38Z</time>
      </trkpt>
      <trkpt lat="42.28018" lon="-8.6932">
        <ele>48.149</ele>
        <time>2018-07-28T14:45:39Z</time>
      </trkpt>
      <trkpt lat="42.28017" lon="-8.69339">
        <ele>48.113</ele>
        <time>2018-07-28T14:45:40Z</time>
      </trkpt>
      <trkpt lat="42.28018" lon="-8.69359">
        <ele>48.308</ele>
        <time>2018-07-28T14:45:41Z</time>
      </trkpt>
      <trkpt lat="42.28021" lon="-8.69377">
        <ele>48.415</ele>
        <time>2018-07-28T14:45:42Z</time>
      </trkpt>
      <trkpt lat="42.28024" lon="-8.69396">
        <ele>48.64</ele>
        <time>2018-07-28T14:45:43Z</time>
      </trkpt>
      <trkpt lat="42.28029" lon="-8.69413">
        <ele>48.613</ele>
        <time>2018-07-28T14:45:44Z</time>
      </trkpt>
      <trkpt lat="42.28034" lon="-8.69431">
        <ele>48.425</ele>
        <time>2018-07-28T14:45:45Z</time>
      </trkpt>
      <trkpt lat="42.2804" lon="-8.69449">
        <ele>48.14</ele>
        <time>2018-07-28T14:45:46Z</time>
      </trkpt>
      <trkpt lat="42.28047" lon="-8.69466">
        <ele>47.885</ele>
        <time>2018-07-28T14:45:47Z</time>
      </trkpt>
      <trkpt lat="42.28056" lon="-8.69484">
        <ele>47.533</ele>
        <time>2018-07-28T14:45:48Z</time>
      </trkpt>
      <trkpt lat="42.28066" lon="-8.69501">
        <ele>47.539</ele>
        <time>2018-07-28T14:45:49Z</time>
      </trkpt>
      <trkpt lat="42.28076" lon="-8.69516">
        <ele>48.268</ele>
        <time>2018-07-28T14:45:50Z</time>
      </trkpt>
      <trkpt lat="42.28087" lon="-8.6953">
        <ele>48.742</ele>
        <time>2018-07-28T14:45:51Z</time>
      </trkpt>
      <trkpt lat="42.28098" lon="-8.69545">
        <ele>49.126</ele>
        <time>2018-07-28T14:45:52Z</time>
      </trkpt>
      <trkpt lat="42.2811" lon="-8.6956">
        <ele>49.408</ele>
        <time>2018-07-28T14:45:53Z</time>
      </trkpt>
      <trkpt lat="42.2812" lon="-8.69576">
        <ele>49.518</ele>
        <time>2018-07-28T14:45:54Z</time>
      </trkpt>
      <trkpt lat="42.28127" lon="-8.6959">
        <ele>49.813</ele>
        <time>2018-07-28T14:45:55Z</time>
      </trkpt>
      <trkpt lat="42.28138" lon="-8.69606">
        <ele>50.016</ele>
        <time>2018-07-28T14:45:56Z</time>
      </trkpt>
      <trkpt lat="42.28149" lon="-8.69619">
        <ele>50.498</ele>
        <time>2018-07-28T14:45:57Z</time>
      </trkpt>
      <trkpt lat="42.28157" lon="-8.69635">
        <ele>50.543</ele>
        <time>2018-07-28T14:45:58Z</time>
      </trkpt>
      <trkpt lat="42.28169" lon="-8.69649">
        <ele>50.558</ele>
        <time>2018-07-28T14:45:59Z</time>
      </trkpt>
      <trkpt lat="42.28179" lon="-8.69662">
        <ele>50.266</ele>
        <time>2018-07-28T14:46:00Z</time>
      </trkpt>
      <trkpt lat="42.28187" lon="-8.69677">
        <ele>49.862</ele>
        <time>2018-07-28T14:46:01Z</time>
      </trkpt>
      <trkpt lat="42.28199" lon="-8.69692">
        <ele>49.456</ele>
        <time>2018-07-28T14:46:02Z</time>
      </trkpt>
      <trkpt lat="42.28208" lon="-8.69707">
        <ele>49.459</ele>
        <time>2018-07-28T14:46:03Z</time>
      </trkpt>
      <trkpt lat="42.28222" lon="-8.69722">
        <ele>49.514</ele>
        <time>2018-07-28T14:46:04Z</time>
      </trkpt>
      <trkpt lat="42.28232" lon="-8.69738">
        <ele>49.908</ele>
        <time>2018-07-28T14:46:05Z</time>
      </trkpt>
      <trkpt lat="42.28244" lon="-8.69753">
        <ele>50.287</ele>
        <time>2018-07-28T14:46:06Z</time>
      </trkpt>
      <trkpt lat="42.28251" lon="-8.69768">
        <ele>50.312</ele>
        <time>2018-07-28T14:46:07Z</time>
      </trkpt>
      <trkpt lat="42.28261" lon="-8.69784">
        <ele>50.555</ele>
        <time>2018-07-28T14:46:08Z</time>
      </trkpt>
      <trkpt lat="42.2827" lon="-8.69802">
        <ele>50.537</ele>
        <time>2018-07-28T14:46:09Z</time>
      </trkpt>
      <trkpt lat="42.28281" lon="-8.69819">
        <ele>50.752</ele>
        <time>2018-07-28T14:46:10Z</time>
      </trkpt>
      <trkpt lat="42.28291" lon="-8.6984">
        <ele>51.347</ele>
        <time>2018-07-28T14:46:11Z</time>
      </trkpt>
      <trkpt lat="42.28301" lon="-8.69861">
        <ele>52.365</ele>
        <time>2018-07-28T14:46:12Z</time>
      </trkpt>
      <trkpt lat="42.28308" lon="-8.69884">
        <ele>53.211</ele>
        <time>2018-07-28T14:46:13Z</time>
      </trkpt>
      <trkpt lat="42.28315" lon="-8.69908">
        <ele>54.285</ele>
        <time>2018-07-28T14:46:14Z</time>
      </trkpt>
      <trkpt lat="42.28319" lon="-8.69932">
        <ele>54.989</ele>
        <time>2018-07-28T14:46:15Z</time>
      </trkpt>
      <trkpt lat="42.28324" lon="-8.69954">
        <ele>55.417</ele>
        <time>2018-07-28T14:46:16Z</time>
      </trkpt>
      <trkpt lat="42.28329" lon="-8.69974">
        <ele>55.608</ele>
        <time>2018-07-28T14:46:17Z</time>
      </trkpt>
      <trkpt lat="42.28334" lon="-8.69995">
        <ele>55.81</ele>
        <time>2018-07-28T14:46:18Z</time>
      </trkpt>
      <trkpt lat="42.28338" lon="-8.70016">
        <ele>55.825</ele>
        <time>2018-07-28T14:46:19Z</time>
      </trkpt>
      <trkpt lat="42.28342" lon="-8.70039">
        <ele>56.018</ele>
        <time>2018-07-28T14:46:20Z</time>
      </trkpt>
      <trkpt lat="42.28347" lon="-8.70059">
        <ele>56.02</ele>
        <time>2018-07-28T14:46:21Z</time>
      </trkpt>
      <trkpt lat="42.28351" lon="-8.70077">
        <ele>55.865</ele>
        <time>2018-07-28T14:46:22Z</time>
      </trkpt>
      <trkpt lat="42.28355" lon="-8.70095">
        <ele>55.75</ele>
        <time>2018-07-28T14:46:23Z</time>
      </trkpt>
      <trkpt lat="42.28355" lon="-8.70113">
        <ele>55.878</ele>
        <time>2018-07-28T14:46:24Z</time>
      </trkpt>
      <trkpt lat="42.2835" lon="-8.70128">
        <ele>56.034</ele>
        <time>2018-07-28T14:46:25Z</time>
      </trkpt>
      <trkpt lat="42.28343" lon="-8.70142">
        <ele>56.588</ele>
        <time>2018-07-28T14:46:26Z</time>
      </trkpt>
      <trkpt lat="42.28334" lon="-8.70158">
        <ele>57.024</ele>
        <time>2018-07-28T14:46:27Z</time>
      </trkpt>
      <trkpt lat="42.28324" lon="-8.70171">
        <ele>57.326</ele>
        <time>2018-07-28T14:46:28Z</time>
      </trkpt>
      <trkpt lat="42.28313" lon="-8.70182">
        <ele>57.808</ele>
        <time>2018-07-28T14:46:29Z</time>
      </trkpt>
      <trkpt lat="42.28302" lon="-8.70197">
        <ele>58.25</ele>
        <time>2018-07-28T14:46:30Z</time>
      </trkpt>
      <trkpt lat="42.28293" lon="-8.70214">
        <ele>58.335</ele>
        <time>2018-07-28T14:46:31Z</time>
      </trkpt>
      <trkpt lat="42.28285" lon="-8.70231">
        <ele>58.348</ele>
        <time>2018-07-28T14:46:32Z</time>
      </trkpt>
      <trkpt lat="42.28277" lon="-8.70249">
        <ele>58.34</ele>
        <time>2018-07-28T14:46:33Z</time>
      </trkpt>
      <trkpt lat="42.2827" lon="-8.70267">
        <ele>58.335</ele>
        <time>2018-07-28T14:46:34Z</time>
      </trkpt>
      <trkpt lat="42.28267" lon="-8.70284">
        <ele>58.33</ele>
        <time>2018-07-28T14:46:35Z</time>
      </trkpt>
      <trkpt lat="42.28263" lon="-8.70299">
        <ele>58.588</ele>
        <time>2018-07-28T14:46:36Z</time>
      </trkpt>
      <trkpt lat="42.28261" lon="-8.70313">
        <ele>58.654</ele>
        <time>2018-07-28T14:46:37Z</time>
      </trkpt>
      <trkpt lat="42.28257" lon="-8.70327">
        <ele>58.666</ele>
        <time>2018-07-28T14:46:38Z</time>
      </trkpt>
      <trkpt lat="42.28253" lon="-8.70341">
        <ele>58.529</ele>
        <time>2018-07-28T14:46:39Z</time>
      </trkpt>
      <trkpt lat="42.28249" lon="-8.70354">
        <ele>58.321</ele>
        <time>2018-07-28T14:46:40Z</time>
      </trkpt>
      <trkpt lat="42.28247" lon="-8.70365">
        <ele>58.308</ele>
        <time>2018-07-28T14:46:41Z</time>
      </trkpt>
      <trkpt lat="42.28247" lon="-8.70379">
        <ele>58.658</ele>
        <time>2018-07-28T14:46:42Z</time>
      </trkpt>
      <trkpt lat="42.28248" lon="-8.70396">
        <ele>59.063</ele>
        <time>2018-07-28T14:46:43Z</time>
      </trkpt>
      <trkpt lat="42.28255" lon="-8.70413">
        <ele>59.686</ele>
        <time>2018-07-28T14:46:44Z</time>
      </trkpt>
      <trkpt lat="42.28263" lon="-8.70429">
        <ele>60.348</ele>
        <time>2018-07-28T14:46:45Z</time>
      </trkpt>
      <trkpt lat="42.28273" lon="-8.70445">
        <ele>61.313</ele>
        <time>2018-07-28T14:46:46Z</time>
      </trkpt>
      <trkpt lat="42.28281" lon="-8.70459">
        <ele>62.258</ele>
        <time>2018-07-28T14:46:47Z</time>
      </trkpt>
      <trkpt lat="42.28285" lon="-8.70475">
        <ele>63.126</ele>
        <time>2018-07-28T14:46:48Z</time>
      </trkpt>
      <trkpt lat="42.28288" lon="-8.7049">
        <ele>64.172</ele>
        <time>2018-07-28T14:46:49Z</time>
      </trkpt>
      <trkpt lat="42.28285" lon="-8.70509">
        <ele>65.182</ele>
        <time>2018-07-28T14:46:50Z</time>
      </trkpt>
      <trkpt lat="42.28283" lon="-8.70532">
        <ele>66.043</ele>
        <time>2018-07-28T14:46:51Z</time>
      </trkpt>
      <trkpt lat="42.28272" lon="-8.70553">
        <ele>66.717</ele>
        <time>2018-07-28T14:46:52Z</time>
      </trkpt>
      <trkpt lat="42.2826" lon="-8.70573">
        <ele>67.608</ele>
        <time>2018-07-28T14:46:53Z</time>
      </trkpt>
      <trkpt lat="42.28251" lon="-8.70591">
        <ele>68.31</ele>
        <time>2018-07-28T14:46:54Z</time>
      </trkpt>
      <trkpt lat="42.28244" lon="-8.7061">
        <ele>69.095</ele>
        <time>2018-07-28T14:46:55Z</time>
      </trkpt>
      <trkpt lat="42.28236" lon="-8.70628">
        <ele>69.558</ele>
        <time>2018-07-28T14:46:56Z</time>
      </trkpt>
      <trkpt lat="42.28229" lon="-8.70645">
        <ele>69.78</ele>
        <time>2018-07-28T14:46:57Z</time>
      </trkpt>
      <trkpt lat="42.28222" lon="-8.70662">
        <ele>69.915</ele>
        <time>2018-07-28T14:46:58Z</time>
      </trkpt>
      <trkpt lat="42.28214" lon="-8.70682">
        <ele>69.99</ele>
        <time>2018-07-28T14:46:59Z</time>
      </trkpt>
      <trkpt lat="42.28208" lon="-8.70699">
        <ele>70.088</ele>
        <time>2018-07-28T14:47:00Z</time>
      </trkpt>
      <trkpt lat="42.28201" lon="-8.70715">
        <ele>70.444</ele>
        <time>2018-07-28T14:47:01Z</time>
      </trkpt>
      <trkpt lat="42.28197" lon="-8.70729">
        <ele>70.952</ele>
        <time>2018-07-28T14:47:02Z</time>
      </trkpt>
      <trkpt lat="42.28193" lon="-8.70743">
        <ele>71.353</ele>
        <time>2018-07-28T14:47:03Z</time>
      </trkpt>
      <trkpt lat="42.28188" lon="-8.70758">
        <ele>71.808</ele>
        <time>2018-07-28T14:47:04Z</time>
      </trkpt>
      <trkpt lat="42.28183" lon="-8.70772">
        <ele>72.108</ele>
        <time>2018-07-28T14:47:05Z</time>
      </trkpt>
      <trkpt lat="42.28178" lon="-8.70785">
        <ele>72.527</ele>
        <time>2018-07-28T14:47:06Z</time>
      </trkpt>
      <trkpt lat="42.2817" lon="-8.70801">
        <ele>72.832</ele>
        <time>2018-07-28T14:47:07Z</time>
      </trkpt>
      <trkpt lat="42.28165" lon="-8.70817">
        <ele>73.055</ele>
        <time>2018-07-28T14:47:08Z</time>
      </trkpt>
      <trkpt lat="42.28158" lon="-8.70832">
        <ele>73.067</ele>
        <time>2018-07-28T14:47:09Z</time>
      </trkpt>
      <trkpt lat="42.28154" lon="-8.70847">
        <ele>72.812</ele>
        <time>2018-07-28T14:47:10Z</time>
      </trkpt>
      <trkpt lat="42.28148" lon="-8.70861">
        <ele>72.367</ele>
        <time>2018-07-28T14:47:11Z</time>
      </trkpt>
      <trkpt lat="42.28143" lon="-8.70875">
        <ele>71.775</ele>
        <time>2018-07-28T14:47:12Z</time>
      </trkpt>
      <trkpt lat="42.28137" lon="-8.70888">
        <ele>70.021</ele>
        <time>2018-07-28T14:47:13Z</time>
      </trkpt>
      <trkpt lat="42.28133" lon="-8.709">
        <ele>69.242</ele>
        <time>2018-07-28T14:47:14Z</time>
      </trkpt>
      <trkpt lat="42.28126" lon="-8.70913">
        <ele>68.522</ele>
        <time>2018-07-28T14:47:15Z</time>
      </trkpt>
      <trkpt lat="42.28115" lon="-8.7092">
        <ele>67.714</ele>
        <time>2018-07-28T14:47:16Z</time>
      </trkpt>
      <trkpt lat="42.28104" lon="-8.70928">
        <ele>66.908</ele>
        <time>2018-07-28T14:47:17Z</time>
      </trkpt>
      <trkpt lat="42.28094" lon="-8.70939">
        <ele>66.386</ele>
        <time>2018-07-28T14:47:18Z</time>
      </trkpt>
      <trkpt lat="42.28086" lon="-8.70951">
        <ele>65.811</ele>
        <time>2018-07-28T14:47:19Z</time>
      </trkpt>
      <trkpt lat="42.28077" lon="-8.70962">
        <ele>65.434</ele>
        <time>2018-07-28T14:47:20Z</time>
      </trkpt>
      <trkpt lat="42.28068" lon="-8.70971">
        <ele>64.976</ele>
        <time>2018-07-28T14:47:21Z</time>
      </trkpt>
      <trkpt lat="42.28061" lon="-8.7098">
        <ele>64.211</ele>
        <time>2018-07-28T14:47:22Z</time>
      </trkpt>
      <trkpt lat="42.28055" lon="-8.70991">
        <ele>63.486</ele>
        <time>2018-07-28T14:47:23Z</time>
      </trkpt>
      <trkpt lat="42.2805" lon="-8.71002">
        <ele>62.694</ele>
        <time>2018-07-28T14:47:24Z</time>
      </trkpt>
      <trkpt lat="42.28049" lon="-8.71014">
        <ele>61.74</ele>
        <time>2018-07-28T14:47:25Z</time>
      </trkpt>
      <trkpt lat="42.2805" lon="-8.71029">
        <ele>60.941</ele>
        <time>2018-07-28T14:47:26Z</time>
      </trkpt>
      <trkpt lat="42.28052" lon="-8.71044">
        <ele>60.481</ele>
        <time>2018-07-28T14:47:27Z</time>
      </trkpt>
      <trkpt lat="42.28055" lon="-8.71056">
        <ele>59.809</ele>
        <time>2018-07-28T14:47:28Z</time>
      </trkpt>
      <trkpt lat="42.28061" lon="-8.71067">
        <ele>58.508</ele>
        <time>2018-07-28T14:47:29Z</time>
      </trkpt>
      <trkpt lat="42.28068" lon="-8.71078">
        <ele>57.816</ele>
        <time>2018-07-28T14:47:30Z</time>
      </trkpt>
      <trkpt lat="42.28076" lon="-8.71088">
        <ele>57.271</ele>
        <time>2018-07-28T14:47:31Z</time>
      </trkpt>
      <trkpt lat="42.28087" lon="-8.71097">
        <ele>56.654</ele>
        <time>2018-07-28T14:47:32Z</time>
      </trkpt>
      <trkpt lat="42.28098" lon="-8.71102">
        <ele>56.076</ele>
        <time>2018-07-28T14:47:33Z</time>
      </trkpt>
      <trkpt lat="42.28108" lon="-8.71108">
        <ele>55.261</ele>
        <time>2018-07-28T14:47:34Z</time>
      </trkpt>
      <trkpt lat="42.28117" lon="-8.71114">
        <ele>54.556</ele>
        <time>2018-07-28T14:47:35Z</time>
      </trkpt>
      <trkpt lat="42.28126" lon="-8.71119">
        <ele>53.764</ele>
        <time>2018-07-28T14:47:36Z</time>
      </trkpt>
      <trkpt lat="42.28136" lon="-8.71122">
        <ele>53.07</ele>
        <time>2018-07-28T14:47:37Z</time>
      </trkpt>
      <trkpt lat="42.28146" lon="-8.71127">
        <ele>52.262</ele>
        <time>2018-07-28T14:47:38Z</time>
      </trkpt>
      <trkpt lat="42.28153" lon="-8.71129">
        <ele>51.483</ele>
        <time>2018-07-28T14:47:39Z</time>
      </trkpt>
      <trkpt lat="42.28162" lon="-8.71135">
        <ele>50.711</ele>
        <time>2018-07-28T14:47:40Z</time>
      </trkpt>
      <trkpt lat="42.28169" lon="-8.71143">
        <ele>49.908</ele>
        <time>2018-07-28T14:47:41Z</time>
      </trkpt>
      <trkpt lat="42.28172" lon="-8.71154">
        <ele>49.198</ele>
        <time>2018-07-28T14:47:42Z</time>
      </trkpt>
      <trkpt lat="42.28174" lon="-8.71163">
        <ele>48.243</ele>
        <time>2018-07-28T14:47:43Z</time>
      </trkpt>
      <trkpt lat="42.28177" lon="-8.7117">
        <ele>47.586</ele>
        <time>2018-07-28T14:47:44Z</time>
      </trkpt>
      <trkpt lat="42.28177" lon="-8.71179">
        <ele>46.818</ele>
        <time>2018-07-28T14:47:45Z</time>
      </trkpt>
      <trkpt lat="42.2818" lon="-8.71188">
        <ele>45.683</ele>
        <time>2018-07-28T14:47:46Z</time>
      </trkpt>
      <trkpt lat="42.2818" lon="-8.71198">
        <ele>45.268</ele>
        <time>2018-07-28T14:47:47Z</time>
      </trkpt>
      <trkpt lat="42.2818" lon="-8.71208">
        <ele>44.926</ele>
        <time>2018-07-28T14:47:48Z</time>
      </trkpt>
      <trkpt lat="42.28181" lon="-8.71218">
        <ele>44.622</ele>
        <time>2018-07-28T14:47:49Z</time>
      </trkpt>
      <trkpt lat="42.28183" lon="-8.71228">
        <ele>44.383</ele>
        <time>2018-07-28T14:47:50Z</time>
      </trkpt>
      <trkpt lat="42.28186" lon="-8.71239">
        <ele>44.025</ele>
        <time>2018-07-28T14:47:51Z</time>
      </trkpt>
      <trkpt lat="42.28188" lon="-8.71248">
        <ele>43.817</ele>
        <time>2018-07-28T14:47:52Z</time>
      </trkpt>
      <trkpt lat="42.2819" lon="-8.71256">
        <ele>43.508</ele>
        <time>2018-07-28T14:47:53Z</time>
      </trkpt>
      <trkpt lat="42.28193" lon="-8.71262">
        <ele>43.06</ele>
        <time>2018-07-28T14:47:54Z</time>
      </trkpt>
      <trkpt lat="42.28198" lon="-8.71266">
        <ele>41.765</ele>
        <time>2018-07-28T14:47:56Z</time>
      </trkpt>
      <trkpt lat="42.28202" lon="-8.71273">
        <ele>39.088</ele>
        <time>2018-07-28T14:48:01Z</time>
      </trkpt>
      <trkpt lat="42.28197" lon="-8.71271">
        <ele>38.66</ele>
        <time>2018-07-28T14:48:04Z</time>
      </trkpt>
      <trkpt lat="42.28202" lon="-8.71277">
        <ele>38.585</ele>
        <time>2018-07-28T14:48:08Z</time>
      </trkpt>
      <trkpt lat="42.28205" lon="-8.71282">
        <ele>38.69</ele>
        <time>2018-07-28T14:48:09Z</time>
      </trkpt>
      <trkpt lat="42.28213" lon="-8.71289">
        <ele>38.768</ele>
        <time>2018-07-28T14:48:10Z</time>
      </trkpt>
      <trkpt lat="42.28222" lon="-8.71296">
        <ele>38.914</ele>
        <time>2018-07-28T14:48:11Z</time>
      </trkpt>
      <trkpt lat="42.2823" lon="-8.71303">
        <ele>38.954</ele>
        <time>2018-07-28T14:48:12Z</time>
      </trkpt>
      <trkpt lat="42.28237" lon="-8.71312">
        <ele>39.056</ele>
        <time>2018-07-28T14:48:13Z</time>
      </trkpt>
      <trkpt lat="42.28247" lon="-8.71319">
        <ele>39.011</ele>
        <time>2018-07-28T14:48:14Z</time>
      </trkpt>
      <trkpt lat="42.28255" lon="-8.71328">
        <ele>38.708</ele>
        <time>2018-07-28T14:48:15Z</time>
      </trkpt>
      <trkpt lat="42.28262" lon="-8.71333">
        <ele>38.247</ele>
        <time>2018-07-28T14:48:16Z</time>
      </trkpt>
      <trkpt lat="42.28271" lon="-8.71338">
        <ele>37.822</ele>
        <time>2018-07-28T14:48:17Z</time>
      </trkpt>
      <trkpt lat="42.2828" lon="-8.71343">
        <ele>37.135</ele>
        <time>2018-07-28T14:48:18Z</time>
      </trkpt>
      <trkpt lat="42.28291" lon="-8.7135">
        <ele>36.097</ele>
        <time>2018-07-28T14:48:19Z</time>
      </trkpt>
      <trkpt lat="42.28303" lon="-8.71355">
        <ele>35.492</ele>
        <time>2018-07-28T14:48:20Z</time>
      </trkpt>
      <trkpt lat="42.28315" lon="-8.71359">
        <ele>34.787</ele>
        <time>2018-07-28T14:48:21Z</time>
      </trkpt>
      <trkpt lat="42.28326" lon="-8.71363">
        <ele>34.185</ele>
        <time>2018-07-28T14:48:22Z</time>
      </trkpt>
      <trkpt lat="42.28337" lon="-8.71367">
        <ele>33.321</ele>
        <time>2018-07-28T14:48:23Z</time>
      </trkpt>
      <trkpt lat="42.28349" lon="-8.71364">
        <ele>32.677</ele>
        <time>2018-07-28T14:48:24Z</time>
      </trkpt>
      <trkpt lat="42.2836" lon="-8.7136">
        <ele>31.961</ele>
        <time>2018-07-28T14:48:25Z</time>
      </trkpt>
      <trkpt lat="42.28372" lon="-8.71357">
        <ele>31.327</ele>
        <time>2018-07-28T14:48:26Z</time>
      </trkpt>
      <trkpt lat="42.28383" lon="-8.71351">
        <ele>30.708</ele>
        <time>2018-07-28T14:48:27Z</time>
      </trkpt>
      <trkpt lat="42.28394" lon="-8.71348">
        <ele>30.249</ele>
        <time>2018-07-28T14:48:28Z</time>
      </trkpt>
      <trkpt lat="42.28403" lon="-8.71347">
        <ele>29.554</ele>
        <time>2018-07-28T14:48:29Z</time>
      </trkpt>
      <trkpt lat="42.28413" lon="-8.7135">
        <ele>28.997</ele>
        <time>2018-07-28T14:48:30Z</time>
      </trkpt>
      <trkpt lat="42.28424" lon="-8.71351">
        <ele>28.319</ele>
        <time>2018-07-28T14:48:31Z</time>
      </trkpt>
      <trkpt lat="42.28436" lon="-8.71361">
        <ele>27.734</ele>
        <time>2018-07-28T14:48:32Z</time>
      </trkpt>
      <trkpt lat="42.28444" lon="-8.71378">
        <ele>27.139</ele>
        <time>2018-07-28T14:48:33Z</time>
      </trkpt>
      <trkpt lat="42.2845" lon="-8.71393">
        <ele>26.987</ele>
        <time>2018-07-28T14:48:34Z</time>
      </trkpt>
      <trkpt lat="42.28458" lon="-8.71407">
        <ele>26.643</ele>
        <time>2018-07-28T14:48:35Z</time>
      </trkpt>
      <trkpt lat="42.28466" lon="-8.71422">
        <ele>25.714</ele>
        <time>2018-07-28T14:48:36Z</time>
      </trkpt>
      <trkpt lat="42.28475" lon="-8.71436">
        <ele>25.354</ele>
        <time>2018-07-28T14:48:37Z</time>
      </trkpt>
      <trkpt lat="42.28483" lon="-8.71449">
        <ele>24.709</ele>
        <time>2018-07-28T14:48:38Z</time>
      </trkpt>
      <trkpt lat="42.28492" lon="-8.71462">
        <ele>24.208</ele>
        <time>2018-07-28T14:48:39Z</time>
      </trkpt>
      <trkpt lat="42.28501" lon="-8.71475">
        <ele>24.033</ele>
        <time>2018-07-28T14:48:40Z</time>
      </trkpt>
      <trkpt lat="42.2851" lon="-8.71483">
        <ele>23.848</ele>
        <time>2018-07-28T14:48:41Z</time>
      </trkpt>
      <trkpt lat="42.28522" lon="-8.71487">
        <ele>23.791</ele>
        <time>2018-07-28T14:48:42Z</time>
      </trkpt>
      <trkpt lat="42.28533" lon="-8.71496">
        <ele>23.623</ele>
        <time>2018-07-28T14:48:43Z</time>
      </trkpt>
      <trkpt lat="42.28546" lon="-8.71501">
        <ele>23.498</ele>
        <time>2018-07-28T14:48:44Z</time>
      </trkpt>
      <trkpt lat="42.2856" lon="-8.7151">
        <ele>23.253</ele>
        <time>2018-07-28T14:48:45Z</time>
      </trkpt>
      <trkpt lat="42.28573" lon="-8.71514">
        <ele>23.271</ele>
        <time>2018-07-28T14:48:46Z</time>
      </trkpt>
      <trkpt lat="42.28588" lon="-8.71516">
        <ele>23.417</ele>
        <time>2018-07-28T14:48:47Z</time>
      </trkpt>
      <trkpt lat="42.28602" lon="-8.71514">
        <ele>23.532</ele>
        <time>2018-07-28T14:48:48Z</time>
      </trkpt>
      <trkpt lat="42.28615" lon="-8.71509">
        <ele>23.792</ele>
        <time>2018-07-28T14:48:49Z</time>
      </trkpt>
      <trkpt lat="42.28629" lon="-8.71514">
        <ele>24.011</ele>
        <time>2018-07-28T14:48:50Z</time>
      </trkpt>
      <trkpt lat="42.28641" lon="-8.71524">
        <ele>24.108</ele>
        <time>2018-07-28T14:48:51Z</time>
      </trkpt>
      <trkpt lat="42.28652" lon="-8.71538">
        <ele>24.145</ele>
        <time>2018-07-28T14:48:52Z</time>
      </trkpt>
      <trkpt lat="42.28663" lon="-8.71553">
        <ele>24.22</ele>
        <time>2018-07-28T14:48:53Z</time>
      </trkpt>
      <trkpt lat="42.28675" lon="-8.71568">
        <ele>24.213</ele>
        <time>2018-07-28T14:48:54Z</time>
      </trkpt>
      <trkpt lat="42.28689" lon="-8.71579">
        <ele>23.965</ele>
        <time>2018-07-28T14:48:55Z</time>
      </trkpt>
      <trkpt lat="42.28703" lon="-8.71589">
        <ele>23.65</ele>
        <time>2018-07-28T14:48:56Z</time>
      </trkpt>
      <trkpt lat="42.28715" lon="-8.716">
        <ele>23.115</ele>
        <time>2018-07-28T14:48:57Z</time>
      </trkpt>
      <trkpt lat="42.28728" lon="-8.71612">
        <ele>22.783</ele>
        <time>2018-07-28T14:48:58Z</time>
      </trkpt>
      <trkpt lat="42.28741" lon="-8.71625">
        <ele>22.149</ele>
        <time>2018-07-28T14:48:59Z</time>
      </trkpt>
      <trkpt lat="42.28755" lon="-8.71631">
        <ele>21.571</ele>
        <time>2018-07-28T14:49:00Z</time>
      </trkpt>
      <trkpt lat="42.28769" lon="-8.71641">
        <ele>20.941</ele>
        <time>2018-07-28T14:49:01Z</time>
      </trkpt>
      <trkpt lat="42.28782" lon="-8.71645">
        <ele>20.115</ele>
        <time>2018-07-28T14:49:02Z</time>
      </trkpt>
      <trkpt lat="42.28795" lon="-8.71651">
        <ele>18.908</ele>
        <time>2018-07-28T14:49:03Z</time>
      </trkpt>
      <trkpt lat="42.28807" lon="-8.71657">
        <ele>17.929</ele>
        <time>2018-07-28T14:49:04Z</time>
      </trkpt>
      <trkpt lat="42.28818" lon="-8.71662">
        <ele>17.254</ele>
        <time>2018-07-28T14:49:05Z</time>
      </trkpt>
      <trkpt lat="42.28829" lon="-8.71665">
        <ele>16.187</ele>
        <time>2018-07-28T14:49:06Z</time>
      </trkpt>
      <trkpt lat="42.28839" lon="-8.71665">
        <ele>15.379</ele>
        <time>2018-07-28T14:49:07Z</time>
      </trkpt>
      <trkpt lat="42.28849" lon="-8.71668">
        <ele>14.874</ele>
        <time>2018-07-28T14:49:08Z</time>
      </trkpt>
      <trkpt lat="42.28856" lon="-8.71673">
        <ele>14.289</ele>
        <time>2018-07-28T14:49:09Z</time>
      </trkpt>
      <trkpt lat="42.28865" lon="-8.71677">
        <ele>13.877</ele>
        <time>2018-07-28T14:49:10Z</time>
      </trkpt>
      <trkpt lat="42.28875" lon="-8.71683">
        <ele>14.073</ele>
        <time>2018-07-28T14:49:11Z</time>
      </trkpt>
      <trkpt lat="42.28885" lon="-8.71689">
        <ele>14.443</ele>
        <time>2018-07-28T14:49:12Z</time>
      </trkpt>
      <trkpt lat="42.28894" lon="-8.71698">
        <ele>14.864</ele>
        <time>2018-07-28T14:49:13Z</time>
      </trkpt>
      <trkpt lat="42.28902" lon="-8.71705">
        <ele>15.01</ele>
        <time>2018-07-28T14:49:14Z</time>
      </trkpt>
      <trkpt lat="42.28909" lon="-8.71714">
        <ele>15.108</ele>
        <time>2018-07-28T14:49:15Z</time>
      </trkpt>
      <trkpt lat="42.28918" lon="-8.71719">
        <ele>15.276</ele>
        <time>2018-07-28T14:49:16Z</time>
      </trkpt>
      <trkpt lat="42.28928" lon="-8.71724">
        <ele>15.231</ele>
        <time>2018-07-28T14:49:17Z</time>
      </trkpt>
      <trkpt lat="42.28938" lon="-8.71729">
        <ele>15.234</ele>
        <time>2018-07-28T14:49:18Z</time>
      </trkpt>
      <trkpt lat="42.28945" lon="-8.71737">
        <ele>15.216</ele>
        <time>2018-07-28T14:49:19Z</time>
      </trkpt>
      <trkpt lat="42.28956" lon="-8.71745">
        <ele>15.591</ele>
        <time>2018-07-28T14:49:20Z</time>
      </trkpt>
      <trkpt lat="42.28962" lon="-8.71754">
        <ele>15.566</ele>
        <time>2018-07-28T14:49:21Z</time>
      </trkpt>
      <trkpt lat="42.28966" lon="-8.71765">
        <ele>15.534</ele>
        <time>2018-07-28T14:49:22Z</time>
      </trkpt>
      <trkpt lat="42.28972" lon="-8.71774">
        <ele>15.39</ele>
        <time>2018-07-28T14:49:23Z</time>
      </trkpt>
      <trkpt lat="42.28979" lon="-8.71784">
        <ele>15.048</ele>
        <time>2018-07-28T14:49:24Z</time>
      </trkpt>
      <trkpt lat="42.28983" lon="-8.71795">
        <ele>14.561</ele>
        <time>2018-07-28T14:49:25Z</time>
      </trkpt>
      <trkpt lat="42.28986" lon="-8.71808">
        <ele>13.317</ele>
        <time>2018-07-28T14:49:26Z</time>
      </trkpt>
      <trkpt lat="42.28987" lon="-8.71817">
        <ele>12.708</ele>
        <time>2018-07-28T14:49:27Z</time>
      </trkpt>
      <trkpt lat="42.28984" lon="-8.7183">
        <ele>12.286</ele>
        <time>2018-07-28T14:49:28Z</time>
      </trkpt>
      <trkpt lat="42.28976" lon="-8.71841">
        <ele>11.861</ele>
        <time>2018-07-28T14:49:29Z</time>
      </trkpt>
      <trkpt lat="42.2897" lon="-8.71853">
        <ele>11.744</ele>
        <time>2018-07-28T14:49:30Z</time>
      </trkpt>
      <trkpt lat="42.28963" lon="-8.71866">
        <ele>11.786</ele>
        <time>2018-07-28T14:49:31Z</time>
      </trkpt>
      <trkpt lat="42.28958" lon="-8.7188">
        <ele>11.941</ele>
        <time>2018-07-28T14:49:32Z</time>
      </trkpt>
      <trkpt lat="42.28955" lon="-8.71895">
        <ele>12.196</ele>
        <time>2018-07-28T14:49:33Z</time>
      </trkpt>
      <trkpt lat="42.28947" lon="-8.71904">
        <ele>12.564</ele>
        <time>2018-07-28T14:49:34Z</time>
      </trkpt>
      <trkpt lat="42.28939" lon="-8.71921">
        <ele>13.08</ele>
        <time>2018-07-28T14:49:35Z</time>
      </trkpt>
      <trkpt lat="42.28933" lon="-8.71935">
        <ele>13.559</ele>
        <time>2018-07-28T14:49:36Z</time>
      </trkpt>
      <trkpt lat="42.28927" lon="-8.71945">
        <ele>14.103</ele>
        <time>2018-07-28T14:49:37Z</time>
      </trkpt>
      <trkpt lat="42.2892" lon="-8.71956">
        <ele>14.623</ele>
        <time>2018-07-28T14:49:38Z</time>
      </trkpt>
      <trkpt lat="42.28913" lon="-8.71968">
        <ele>15.108</ele>
        <time>2018-07-28T14:49:39Z</time>
      </trkpt>
      <trkpt lat="42.289" lon="-8.71975">
        <ele>15.617</ele>
        <time>2018-07-28T14:49:40Z</time>
      </trkpt>
      <trkpt lat="42.28888" lon="-8.71986">
        <ele>16.172</ele>
        <time>2018-07-28T14:49:41Z</time>
      </trkpt>
      <trkpt lat="42.28876" lon="-8.71997">
        <ele>17.625</ele>
        <time>2018-07-28T14:49:42Z</time>
      </trkpt>
      <trkpt lat="42.28865" lon="-8.72008">
        <ele>18.577</ele>
        <time>2018-07-28T14:49:43Z</time>
      </trkpt>
      <trkpt lat="42.28855" lon="-8.7202">
        <ele>19.322</ele>
        <time>2018-07-28T14:49:44Z</time>
      </trkpt>
      <trkpt lat="42.28845" lon="-8.72031">
        <ele>20.067</ele>
        <time>2018-07-28T14:49:45Z</time>
      </trkpt>
      <trkpt lat="42.28835" lon="-8.7204">
        <ele>20.315</ele>
        <time>2018-07-28T14:49:46Z</time>
      </trkpt>
      <trkpt lat="42.28827" lon="-8.72049">
        <ele>20.721</ele>
        <time>2018-07-28T14:49:47Z</time>
      </trkpt>
      <trkpt lat="42.28818" lon="-8.72057">
        <ele>20.856</ele>
        <time>2018-07-28T14:49:48Z</time>
      </trkpt>
      <trkpt lat="42.28811" lon="-8.72065">
        <ele>20.859</ele>
        <time>2018-07-28T14:49:49Z</time>
      </trkpt>
      <trkpt lat="42.28804" lon="-8.72072">
        <ele>20.814</ele>
        <time>2018-07-28T14:49:50Z</time>
      </trkpt>
      <trkpt lat="42.28796" lon="-8.72078">
        <ele>20.908</ele>
        <time>2018-07-28T14:49:51Z</time>
      </trkpt>
      <trkpt lat="42.2879" lon="-8.72088">
        <ele>21.137</ele>
        <time>2018-07-28T14:49:52Z</time>
      </trkpt>
      <trkpt lat="42.28783" lon="-8.72096">
        <ele>21.232</ele>
        <time>2018-07-28T14:49:53Z</time>
      </trkpt>
      <trkpt lat="42.28775" lon="-8.72104">
        <ele>21.385</ele>
        <time>2018-07-28T14:49:54Z</time>
      </trkpt>
      <trkpt lat="42.28769" lon="-8.72113">
        <ele>21.447</ele>
        <time>2018-07-28T14:49:55Z</time>
      </trkpt>
      <trkpt lat="42.28761" lon="-8.7212">
        <ele>21.412</ele>
        <time>2018-07-28T14:49:56Z</time>
      </trkpt>
      <trkpt lat="42.28753" lon="-8.72126">
        <ele>21.477</ele>
        <time>2018-07-28T14:49:57Z</time>
      </trkpt>
      <trkpt lat="42.28746" lon="-8.72132">
        <ele>21.485</ele>
        <time>2018-07-28T14:49:58Z</time>
      </trkpt>
      <trkpt lat="42.28739" lon="-8.7214">
        <ele>21.151</ele>
        <time>2018-07-28T14:49:59Z</time>
      </trkpt>
      <trkpt lat="42.28731" lon="-8.7215">
        <ele>21.085</ele>
        <time>2018-07-28T14:50:00Z</time>
      </trkpt>
      <trkpt lat="42.28721" lon="-8.72158">
        <ele>20.889</ele>
        <time>2018-07-28T14:50:01Z</time>
      </trkpt>
      <trkpt lat="42.28712" lon="-8.72167">
        <ele>20.817</ele>
        <time>2018-07-28T14:50:02Z</time>
      </trkpt>
      <trkpt lat="42.287" lon="-8.72178">
        <ele>20.708</ele>
        <time>2018-07-28T14:50:03Z</time>
      </trkpt>
      <trkpt lat="42.28689" lon="-8.72187">
        <ele>20.79</ele>
        <time>2018-07-28T14:50:04Z</time>
      </trkpt>
      <trkpt lat="42.28678" lon="-8.72196">
        <ele>20.675</ele>
        <time>2018-07-28T14:50:05Z</time>
      </trkpt>
      <trkpt lat="42.28669" lon="-8.72209">
        <ele>20.538</ele>
        <time>2018-07-28T14:50:06Z</time>
      </trkpt>
      <trkpt lat="42.28659" lon="-8.72219">
        <ele>20.58</ele>
        <time>2018-07-28T14:50:07Z</time>
      </trkpt>
      <trkpt lat="42.2865" lon="-8.72226">
        <ele>20.565</ele>
        <time>2018-07-28T14:50:08Z</time>
      </trkpt>
      <trkpt lat="42.28639" lon="-8.72236">
        <ele>20.66</ele>
        <time>2018-07-28T14:50:09Z</time>
      </trkpt>
      <trkpt lat="42.2863" lon="-8.72245">
        <ele>20.898</ele>
        <time>2018-07-28T14:50:10Z</time>
      </trkpt>
      <trkpt lat="42.28625" lon="-8.72257">
        <ele>20.824</ele>
        <time>2018-07-28T14:50:11Z</time>
      </trkpt>
      <trkpt lat="42.28624" lon="-8.7227">
        <ele>20.748</ele>
        <time>2018-07-28T14:50:12Z</time>
      </trkpt>
      <trkpt lat="42.28624" lon="-8.72284">
        <ele>20.461</ele>
        <time>2018-07-28T14:50:13Z</time>
      </trkpt>
      <trkpt lat="42.28631" lon="-8.72299">
        <ele>20.117</ele>
        <time>2018-07-28T14:50:14Z</time>
      </trkpt>
      <trkpt lat="42.28634" lon="-8.72314">
        <ele>19.308</ele>
        <time>2018-07-28T14:50:15Z</time>
      </trkpt>
      <trkpt lat="42.28637" lon="-8.72328">
        <ele>18.896</ele>
        <time>2018-07-28T14:50:16Z</time>
      </trkpt>
      <trkpt lat="42.28639" lon="-8.72341">
        <ele>18.251</ele>
        <time>2018-07-28T14:50:17Z</time>
      </trkpt>
      <trkpt lat="42.28643" lon="-8.72356">
        <ele>17.634</ele>
        <time>2018-07-28T14:50:18Z</time>
      </trkpt>
      <trkpt lat="42.28648" lon="-8.72368">
        <ele>16.966</ele>
        <time>2018-07-28T14:50:19Z</time>
      </trkpt>
      <trkpt lat="42.28651" lon="-8.7238">
        <ele>16.241</ele>
        <time>2018-07-28T14:50:20Z</time>
      </trkpt>
      <trkpt lat="42.28656" lon="-8.72391">
        <ele>15.616</ele>
        <time>2018-07-28T14:50:21Z</time>
      </trkpt>
      <trkpt lat="42.28663" lon="-8.724">
        <ele>15.064</ele>
        <time>2018-07-28T14:50:22Z</time>
      </trkpt>
      <trkpt lat="42.28668" lon="-8.7241">
        <ele>14.46</ele>
        <time>2018-07-28T14:50:23Z</time>
      </trkpt>
      <trkpt lat="42.28674" lon="-8.7242">
        <ele>13.896</ele>
        <time>2018-07-28T14:50:24Z</time>
      </trkpt>
      <trkpt lat="42.28679" lon="-8.72432">
        <ele>13.331</ele>
        <time>2018-07-28T14:50:25Z</time>
      </trkpt>
      <trkpt lat="42.28684" lon="-8.72444">
        <ele>12.824</ele>
        <time>2018-07-28T14:50:26Z</time>
      </trkpt>
      <trkpt lat="42.28689" lon="-8.72455">
        <ele>12.508</ele>
        <time>2018-07-28T14:50:27Z</time>
      </trkpt>
      <trkpt lat="42.28691" lon="-8.72466">
        <ele>12.261</ele>
        <time>2018-07-28T14:50:28Z</time>
      </trkpt>
      <trkpt lat="42.28693" lon="-8.72478">
        <ele>12.086</ele>
        <time>2018-07-28T14:50:29Z</time>
      </trkpt>
      <trkpt lat="42.28696" lon="-8.72488">
        <ele>11.889</ele>
        <time>2018-07-28T14:50:30Z</time>
      </trkpt>
      <trkpt lat="42.28698" lon="-8.725">
        <ele>11.691</ele>
        <time>2018-07-28T14:50:31Z</time>
      </trkpt>
      <trkpt lat="42.28699" lon="-8.72512">
        <ele>11.266</ele>
        <time>2018-07-28T14:50:32Z</time>
      </trkpt>
      <trkpt lat="42.28701" lon="-8.72523">
        <ele>11.111</ele>
        <time>2018-07-28T14:50:33Z</time>
      </trkpt>
      <trkpt lat="42.28706" lon="-8.72534">
        <ele>11.099</ele>
        <time>2018-07-28T14:50:34Z</time>
      </trkpt>
      <trkpt lat="42.28709" lon="-8.72545">
        <ele>10.875</ele>
        <time>2018-07-28T14:50:35Z</time>
      </trkpt>
      <trkpt lat="42.28708" lon="-8.72557">
        <ele>10.762</ele>
        <time>2018-07-28T14:50:36Z</time>
      </trkpt>
      <trkpt lat="42.28712" lon="-8.72568">
        <ele>10.583</ele>
        <time>2018-07-28T14:50:37Z</time>
      </trkpt>
      <trkpt lat="42.28713" lon="-8.72577">
        <ele>10.311</ele>
        <time>2018-07-28T14:50:38Z</time>
      </trkpt>
      <trkpt lat="42.2872" lon="-8.72587">
        <ele>10.208</ele>
        <time>2018-07-28T14:50:39Z</time>
      </trkpt>
      <trkpt lat="42.28724" lon="-8.72599">
        <ele>10.178</ele>
        <time>2018-07-28T14:50:40Z</time>
      </trkpt>
      <trkpt lat="42.28729" lon="-8.7261">
        <ele>10.193</ele>
        <time>2018-07-28T14:50:41Z</time>
      </trkpt>
      <trkpt lat="42.28733" lon="-8.72625">
        <ele>10.156</ele>
        <time>2018-07-28T14:50:42Z</time>
      </trkpt>
      <trkpt lat="42.28734" lon="-8.7264">
        <ele>10.228</ele>
        <time>2018-07-28T14:50:43Z</time>
      </trkpt>
      <trkpt lat="42.28737" lon="-8.72653">
        <ele>10.283</ele>
        <time>2018-07-28T14:50:44Z</time>
      </trkpt>
      <trkpt lat="42.2874" lon="-8.72665">
        <ele>10.288</ele>
        <time>2018-07-28T14:50:45Z</time>
      </trkpt>
      <trkpt lat="42.28743" lon="-8.72676">
        <ele>10.246</ele>
        <time>2018-07-28T14:50:46Z</time>
      </trkpt>
      <trkpt lat="42.28745" lon="-8.72687">
        <ele>10.212</ele>
        <time>2018-07-28T14:50:47Z</time>
      </trkpt>
      <trkpt lat="42.28746" lon="-8.72698">
        <ele>10.212</ele>
        <time>2018-07-28T14:50:48Z</time>
      </trkpt>
      <trkpt lat="42.28748" lon="-8.7271">
        <ele>10.332</ele>
        <time>2018-07-28T14:50:49Z</time>
      </trkpt>
      <trkpt lat="42.2875" lon="-8.72724">
        <ele>10.405</ele>
        <time>2018-07-28T14:50:50Z</time>
      </trkpt>
      <trkpt lat="42.28754" lon="-8.72738">
        <ele>10.608</ele>
        <time>2018-07-28T14:50:51Z</time>
      </trkpt>
      <trkpt lat="42.28758" lon="-8.72755">
        <ele>10.853</ele>
        <time>2018-07-28T14:50:52Z</time>
      </trkpt>
      <trkpt lat="42.28762" lon="-8.72774">
        <ele>11.128</ele>
        <time>2018-07-28T14:50:53Z</time>
      </trkpt>
      <trkpt lat="42.28766" lon="-8.7279">
        <ele>11.441</ele>
        <time>2018-07-28T14:50:54Z</time>
      </trkpt>
      <trkpt lat="42.28771" lon="-8.72805">
        <ele>11.693</ele>
        <time>2018-07-28T14:50:55Z</time>
      </trkpt>
      <trkpt lat="42.28774" lon="-8.72821">
        <ele>11.718</ele>
        <time>2018-07-28T14:50:56Z</time>
      </trkpt>
      <trkpt lat="42.28777" lon="-8.72838">
        <ele>11.753</ele>
        <time>2018-07-28T14:50:57Z</time>
      </trkpt>
      <trkpt lat="42.2878" lon="-8.72855">
        <ele>11.721</ele>
        <time>2018-07-28T14:50:58Z</time>
      </trkpt>
      <trkpt lat="42.28786" lon="-8.72871">
        <ele>11.797</ele>
        <time>2018-07-28T14:50:59Z</time>
      </trkpt>
      <trkpt lat="42.28789" lon="-8.72887">
        <ele>11.673</ele>
        <time>2018-07-28T14:51:00Z</time>
      </trkpt>
      <trkpt lat="42.28791" lon="-8.72901">
        <ele>11.585</ele>
        <time>2018-07-28T14:51:01Z</time>
      </trkpt>
      <trkpt lat="42.28794" lon="-8.72915">
        <ele>11.413</ele>
        <time>2018-07-28T14:51:02Z</time>
      </trkpt>
      <trkpt lat="42.28797" lon="-8.72929">
        <ele>11.308</ele>
        <time>2018-07-28T14:51:03Z</time>
      </trkpt>
      <trkpt lat="42.288" lon="-8.72942">
        <ele>11.399</ele>
        <time>2018-07-28T14:51:04Z</time>
      </trkpt>
      <trkpt lat="42.28801" lon="-8.72955">
        <ele>11.284</ele>
        <time>2018-07-28T14:51:05Z</time>
      </trkpt>
      <trkpt lat="42.288" lon="-8.72968">
        <ele>11.217</ele>
        <time>2018-07-28T14:51:06Z</time>
      </trkpt>
      <trkpt lat="42.28796" lon="-8.72982">
        <ele>11.249</ele>
        <time>2018-07-28T14:51:07Z</time>
      </trkpt>
      <trkpt lat="42.28792" lon="-8.72995">
        <ele>11.094</ele>
        <time>2018-07-28T14:51:08Z</time>
      </trkpt>
      <trkpt lat="42.28787" lon="-8.73007">
        <ele>10.939</ele>
        <time>2018-07-28T14:51:09Z</time>
      </trkpt>
      <trkpt lat="42.28781" lon="-8.73019">
        <ele>10.977</ele>
        <time>2018-07-28T14:51:10Z</time>
      </trkpt>
      <trkpt lat="42.28776" lon="-8.73031">
        <ele>10.943</ele>
        <time>2018-07-28T14:51:11Z</time>
      </trkpt>
      <trkpt lat="42.2877" lon="-8.73042">
        <ele>10.934</ele>
        <time>2018-07-28T14:51:12Z</time>
      </trkpt>
      <trkpt lat="42.28764" lon="-8.73053">
        <ele>10.955</ele>
        <time>2018-07-28T14:51:13Z</time>
      </trkpt>
      <trkpt lat="42.28758" lon="-8.73064">
        <ele>10.91</ele>
        <time>2018-07-28T14:51:14Z</time>
      </trkpt>
      <trkpt lat="42.28752" lon="-8.73075">
        <ele>10.908</ele>
        <time>2018-07-28T14:51:15Z</time>
      </trkpt>
      <trkpt lat="42.28746" lon="-8.73087">
        <ele>10.915</ele>
        <time>2018-07-28T14:51:16Z</time>
      </trkpt>
      <trkpt lat="42.2874" lon="-8.73099">
        <ele>11.03</ele>
        <time>2018-07-28T14:51:17Z</time>
      </trkpt>
      <trkpt lat="42.28733" lon="-8.73111">
        <ele>11.133</ele>
        <time>2018-07-28T14:51:18Z</time>
      </trkpt>
      <trkpt lat="42.28728" lon="-8.73123">
        <ele>11.265</ele>
        <time>2018-07-28T14:51:19Z</time>
      </trkpt>
      <trkpt lat="42.28722" lon="-8.73134">
        <ele>11.36</ele>
        <time>2018-07-28T14:51:20Z</time>
      </trkpt>
      <trkpt lat="42.28717" lon="-8.73146">
        <ele>11.385</ele>
        <time>2018-07-28T14:51:21Z</time>
      </trkpt>
      <trkpt lat="42.28712" lon="-8.73157">
        <ele>11.213</ele>
        <time>2018-07-28T14:51:22Z</time>
      </trkpt>
      <trkpt lat="42.28707" lon="-8.73169">
        <ele>11.289</ele>
        <time>2018-07-28T14:51:23Z</time>
      </trkpt>
      <trkpt lat="42.28702" lon="-8.7318">
        <ele>11.297</ele>
        <time>2018-07-28T14:51:24Z</time>
      </trkpt>
      <trkpt lat="42.28697" lon="-8.7319">
        <ele>11.223</ele>
        <time>2018-07-28T14:51:25Z</time>
      </trkpt>
      <trkpt lat="42.28693" lon="-8.732">
        <ele>11.125</ele>
        <time>2018-07-28T14:51:26Z</time>
      </trkpt>
      <trkpt lat="42.28689" lon="-8.73209">
        <ele>11.008</ele>
        <time>2018-07-28T14:51:27Z</time>
      </trkpt>
      <trkpt lat="42.28684" lon="-8.73218">
        <ele>10.961</ele>
        <time>2018-07-28T14:51:28Z</time>
      </trkpt>
      <trkpt lat="42.2868" lon="-8.73226">
        <ele>10.736</ele>
        <time>2018-07-28T14:51:29Z</time>
      </trkpt>
      <trkpt lat="42.28676" lon="-8.73234">
        <ele>10.529</ele>
        <time>2018-07-28T14:51:30Z</time>
      </trkpt>
      <trkpt lat="42.28672" lon="-8.73242">
        <ele>10.381</ele>
        <time>2018-07-28T14:51:31Z</time>
      </trkpt>
      <trkpt lat="42.28668" lon="-8.7325">
        <ele>10.316</ele>
        <time>2018-07-28T14:51:32Z</time>
      </trkpt>
      <trkpt lat="42.28665" lon="-8.73257">
        <ele>10.231</ele>
        <time>2018-07-28T14:51:33Z</time>
      </trkpt>
      <trkpt lat="42.28661" lon="-8.73264">
        <ele>10.229</ele>
        <time>2018-07-28T14:51:34Z</time>
      </trkpt>
      <trkpt lat="42.28659" lon="-8.73271">
        <ele>10.125</ele>
        <time>2018-07-28T14:51:35Z</time>
      </trkpt>
      <trkpt lat="42.28657" lon="-8.73277">
        <ele>10.087</ele>
        <time>2018-07-28T14:51:36Z</time>
      </trkpt>
      <trkpt lat="42.28656" lon="-8.73283">
        <ele>9.642</ele>
        <time>2018-07-28T14:51:37Z</time>
      </trkpt>
      <trkpt lat="42.28652" lon="-8.73294">
        <ele>9.326</ele>
        <time>2018-07-28T14:51:39Z</time>
      </trkpt>
      <trkpt lat="42.2865" lon="-8.73306">
        <ele>9.208</ele>
        <time>2018-07-28T14:51:41Z</time>
      </trkpt>
      <trkpt lat="42.28646" lon="-8.73311">
        <ele>9.28</ele>
        <time>2018-07-28T14:51:42Z</time>
      </trkpt>
      <trkpt lat="42.2864" lon="-8.73314">
        <ele>9.375</ele>
        <time>2018-07-28T14:51:43Z</time>
      </trkpt>
      <trkpt lat="42.28632" lon="-8.73318">
        <ele>9.488</ele>
        <time>2018-07-28T14:51:44Z</time>
      </trkpt>
      <trkpt lat="42.28625" lon="-8.73325">
        <ele>9.67</ele>
        <time>2018-07-28T14:51:45Z</time>
      </trkpt>
      <trkpt lat="42.2862" lon="-8.73334">
        <ele>9.935</ele>
        <time>2018-07-28T14:51:46Z</time>
      </trkpt>
      <trkpt lat="42.28617" lon="-8.73345">
        <ele>10.24</ele>
        <time>2018-07-28T14:51:47Z</time>
      </trkpt>
      <trkpt lat="42.28614" lon="-8.73355">
        <ele>10.428</ele>
        <time>2018-07-28T14:51:48Z</time>
      </trkpt>
      <trkpt lat="42.2861" lon="-8.73364">
        <ele>10.694</ele>
        <time>2018-07-28T14:51:49Z</time>
      </trkpt>
      <trkpt lat="42.28606" lon="-8.73373">
        <ele>10.656</ele>
        <time>2018-07-28T14:51:50Z</time>
      </trkpt>
      <trkpt lat="42.28602" lon="-8.73381">
        <ele>10.659</ele>
        <time>2018-07-28T14:51:51Z</time>
      </trkpt>
      <trkpt lat="42.28598" lon="-8.73389">
        <ele>10.514</ele>
        <time>2018-07-28T14:51:52Z</time>
      </trkpt>
      <trkpt lat="42.28593" lon="-8.73396">
        <ele>10.508</ele>
        <time>2018-07-28T14:51:53Z</time>
      </trkpt>
      <trkpt lat="42.28587" lon="-8.73404">
        <ele>10.697</ele>
        <time>2018-07-28T14:51:54Z</time>
      </trkpt>
      <trkpt lat="42.2858" lon="-8.7341">
        <ele>10.762</ele>
        <time>2018-07-28T14:51:55Z</time>
      </trkpt>
      <trkpt lat="42.28572" lon="-8.73413">
        <ele>10.945</ele>
        <time>2018-07-28T14:51:56Z</time>
      </trkpt>
      <trkpt lat="42.28564" lon="-8.73417">
        <ele>11.167</ele>
        <time>2018-07-28T14:51:57Z</time>
      </trkpt>
      <trkpt lat="42.28557" lon="-8.73422">
        <ele>11.292</ele>
        <time>2018-07-28T14:51:58Z</time>
      </trkpt>
      <trkpt lat="42.28551" lon="-8.73427">
        <ele>11.357</ele>
        <time>2018-07-28T14:51:59Z</time>
      </trkpt>
      <trkpt lat="42.28543" lon="-8.73431">
        <ele>11.385</ele>
        <time>2018-07-28T14:52:00Z</time>
      </trkpt>
      <trkpt lat="42.28537" lon="-8.73438">
        <ele>11.341</ele>
        <time>2018-07-28T14:52:01Z</time>
      </trkpt>
      <trkpt lat="42.2853" lon="-8.73444">
        <ele>11.368</ele>
        <time>2018-07-28T14:52:02Z</time>
      </trkpt>
      <trkpt lat="42.28523" lon="-8.7345">
        <ele>11.242</ele>
        <time>2018-07-28T14:52:03Z</time>
      </trkpt>
      <trkpt lat="42.28516" lon="-8.73455">
        <ele>11.226</ele>
        <time>2018-07-28T14:52:04Z</time>
      </trkpt>
      <trkpt lat="42.28508" lon="-8.73461">
        <ele>11.208</ele>
        <time>2018-07-28T14:52:05Z</time>
      </trkpt>
      <trkpt lat="42.285" lon="-8.73467">
        <ele>11.228</ele>
        <time>2018-07-28T14:52:06Z</time>
      </trkpt>
      <trkpt lat="42.28492" lon="-8.73473">
        <ele>11.533</ele>
        <time>2018-07-28T14:52:07Z</time>
      </trkpt>
      <trkpt lat="42.28482" lon="-8.73479">
        <ele>11.926</ele>
        <time>2018-07-28T14:52:08Z</time>
      </trkpt>
      <trkpt lat="42.28472" lon="-8.73484">
        <ele>12.718</ele>
        <time>2018-07-28T14:52:09Z</time>
      </trkpt>
      <trkpt lat="42.28462" lon="-8.7349">
        <ele>13.233</ele>
        <time>2018-07-28T14:52:10Z</time>
      </trkpt>
      <trkpt lat="42.28452" lon="-8.73496">
        <ele>13.398</ele>
        <time>2018-07-28T14:52:11Z</time>
      </trkpt>
      <trkpt lat="42.28443" lon="-8.73501">
        <ele>13.496</ele>
        <time>2018-07-28T14:52:12Z</time>
      </trkpt>
      <trkpt lat="42.28435" lon="-8.73505">
        <ele>13.432</ele>
        <time>2018-07-28T14:52:13Z</time>
      </trkpt>
      <trkpt lat="42.28427" lon="-8.73509">
        <ele>13.356</ele>
        <time>2018-07-28T14:52:14Z</time>
      </trkpt>
      <trkpt lat="42.2842" lon="-8.73513">
        <ele>13.259</ele>
        <time>2018-07-28T14:52:15Z</time>
      </trkpt>
      <trkpt lat="42.28414" lon="-8.73517">
        <ele>13.114</ele>
        <time>2018-07-28T14:52:16Z</time>
      </trkpt>
      <trkpt lat="42.28409" lon="-8.73523">
        <ele>12.908</ele>
        <time>2018-07-28T14:52:17Z</time>
      </trkpt>
      <trkpt lat="42.28402" lon="-8.73528">
        <ele>12.917</ele>
        <time>2018-07-28T14:52:18Z</time>
      </trkpt>
      <trkpt lat="42.28394" lon="-8.73533">
        <ele>12.962</ele>
        <time>2018-07-28T14:52:19Z</time>
      </trkpt>
      <trkpt lat="42.28385" lon="-8.73538">
        <ele>13.025</ele>
        <time>2018-07-28T14:52:20Z</time>
      </trkpt>
      <trkpt lat="42.28376" lon="-8.73542">
        <ele>13.157</ele>
        <time>2018-07-28T14:52:21Z</time>
      </trkpt>
      <trkpt lat="42.28368" lon="-8.73546">
        <ele>13.352</ele>
        <time>2018-07-28T14:52:22Z</time>
      </trkpt>
      <trkpt lat="42.28361" lon="-8.7355">
        <ele>13.487</ele>
        <time>2018-07-28T14:52:23Z</time>
      </trkpt>
      <trkpt lat="42.28355" lon="-8.73554">
        <ele>13.545</ele>
        <time>2018-07-28T14:52:24Z</time>
      </trkpt>
      <trkpt lat="42.28349" lon="-8.73556">
        <ele>13.431</ele>
        <time>2018-07-28T14:52:25Z</time>
      </trkpt>
      <trkpt lat="42.28344" lon="-8.73558">
        <ele>13.152</ele>
        <time>2018-07-28T14:52:26Z</time>
      </trkpt>
      <trkpt lat="42.28338" lon="-8.73562">
        <ele>12.353</ele>
        <time>2018-07-28T14:52:28Z</time>
      </trkpt>
      <trkpt lat="42.28331" lon="-8.73568">
        <ele>11.908</ele>
        <time>2018-07-28T14:52:30Z</time>
      </trkpt>
      <trkpt lat="42.28325" lon="-8.73567">
        <ele>11.708</ele>
        <time>2018-07-28T14:52:32Z</time>
      </trkpt>
      <trkpt lat="42.2832" lon="-8.7356">
        <ele>11.397</ele>
        <time>2018-07-28T14:52:34Z</time>
      </trkpt>
      <trkpt lat="42.28319" lon="-8.73554">
        <ele>10.512</ele>
        <time>2018-07-28T14:52:36Z</time>
      </trkpt>
      <trkpt lat="42.28321" lon="-8.73544">
        <ele>9.625</ele>
        <time>2018-07-28T14:52:38Z</time>
      </trkpt>
      <trkpt lat="42.2832" lon="-8.73538">
        <ele>9.057</ele>
        <time>2018-07-28T14:52:40Z</time>
      </trkpt>
      <trkpt lat="42.28313" lon="-8.73539">
        <ele>9.192</ele>
        <time>2018-07-28T14:52:42Z</time>
      </trkpt>
      <trkpt lat="42.28308" lon="-8.73541">
        <ele>9.457</ele>
        <time>2018-07-28T14:52:43Z</time>
      </trkpt>
      <trkpt lat="42.28303" lon="-8.73544">
        <ele>9.855</ele>
        <time>2018-07-28T14:52:44Z</time>
      </trkpt>
      <trkpt lat="42.28297" lon="-8.73547">
        <ele>10.221</ele>
        <time>2018-07-28T14:52:45Z</time>
      </trkpt>
      <trkpt lat="42.2829" lon="-8.73547">
        <ele>10.513</ele>
        <time>2018-07-28T14:52:46Z</time>
      </trkpt>
      <trkpt lat="42.28283" lon="-8.7355">
        <ele>10.743</ele>
        <time>2018-07-28T14:52:47Z</time>
      </trkpt>
      <trkpt lat="42.28277" lon="-8.73552">
        <ele>10.707</ele>
        <time>2018-07-28T14:52:48Z</time>
      </trkpt>
      <trkpt lat="42.2827" lon="-8.73553">
        <ele>10.608</ele>
        <time>2018-07-28T14:52:49Z</time>
      </trkpt>
      <trkpt lat="42.28264" lon="-8.73556">
        <ele>10.533</ele>
        <time>2018-07-28T14:52:50Z</time>
      </trkpt>
      <trkpt lat="42.28258" lon="-8.73559">
        <ele>10.438</ele>
        <time>2018-07-28T14:52:51Z</time>
      </trkpt>
      <trkpt lat="42.28251" lon="-8.73562">
        <ele>10.411</ele>
        <time>2018-07-28T14:52:52Z</time>
      </trkpt>
      <trkpt lat="42.28243" lon="-8.73565">
        <ele>10.463</ele>
        <time>2018-07-28T14:52:53Z</time>
      </trkpt>
      <trkpt lat="42.28236" lon="-8.73568">
        <ele>10.438</ele>
        <time>2018-07-28T14:52:54Z</time>
      </trkpt>
      <trkpt lat="42.28229" lon="-8.73572">
        <ele>10.443</ele>
        <time>2018-07-28T14:52:55Z</time>
      </trkpt>
      <trkpt lat="42.28222" lon="-8.73577">
        <ele>10.331</ele>
        <time>2018-07-28T14:52:56Z</time>
      </trkpt>
      <trkpt lat="42.28217" lon="-8.73581">
        <ele>10.237</ele>
        <time>2018-07-28T14:52:57Z</time>
      </trkpt>
      <trkpt lat="42.2821" lon="-8.73584">
        <ele>10.111</ele>
        <time>2018-07-28T14:52:58Z</time>
      </trkpt>
      <trkpt lat="42.28204" lon="-8.73588">
        <ele>10.121</ele>
        <time>2018-07-28T14:52:59Z</time>
      </trkpt>
      <trkpt lat="42.28198" lon="-8.73592">
        <ele>10.203</ele>
        <time>2018-07-28T14:53:00Z</time>
      </trkpt>
      <trkpt lat="42.28192" lon="-8.73595">
        <ele>10.208</ele>
        <time>2018-07-28T14:53:01Z</time>
      </trkpt>
      <trkpt lat="42.28187" lon="-8.73598">
        <ele>10.233</ele>
        <time>2018-07-28T14:53:02Z</time>
      </trkpt>
      <trkpt lat="42.28182" lon="-8.73601">
        <ele>10.198</ele>
        <time>2018-07-28T14:53:03Z</time>
      </trkpt>
      <trkpt lat="42.28177" lon="-8.73603">
        <ele>10.051</ele>
        <time>2018-07-28T14:53:04Z</time>
      </trkpt>
      <trkpt lat="42.28169" lon="-8.73607">
        <ele>9.783</ele>
        <time>2018-07-28T14:53:06Z</time>
      </trkpt>
      <trkpt lat="42.28165" lon="-8.7361">
        <ele>9.678</ele>
        <time>2018-07-28T14:53:07Z</time>
      </trkpt>
      <trkpt lat="42.28161" lon="-8.73612">
        <ele>9.673</ele>
        <time>2018-07-28T14:53:08Z</time>
      </trkpt>
      <trkpt lat="42.28156" lon="-8.73614">
        <ele>9.651</ele>
        <time>2018-07-28T14:53:09Z</time>
      </trkpt>
      <trkpt lat="42.28152" lon="-8.73616">
        <ele>9.727</ele>
        <time>2018-07-28T14:53:10Z</time>
      </trkpt>
      <trkpt lat="42.28147" lon="-8.73621">
        <ele>9.862</ele>
        <time>2018-07-28T14:53:11Z</time>
      </trkpt>
      <trkpt lat="42.2814" lon="-8.73624">
        <ele>9.983</ele>
        <time>2018-07-28T14:53:12Z</time>
      </trkpt>
      <trkpt lat="42.28134" lon="-8.73628">
        <ele>9.911</ele>
        <time>2018-07-28T14:53:13Z</time>
      </trkpt>
      <trkpt lat="42.28128" lon="-8.73631">
        <ele>9.908</ele>
        <time>2018-07-28T14:53:14Z</time>
      </trkpt>
      <trkpt lat="42.28122" lon="-8.73632">
        <ele>9.978</ele>
        <time>2018-07-28T14:53:15Z</time>
      </trkpt>
      <trkpt lat="42.28116" lon="-8.73636">
        <ele>10.073</ele>
        <time>2018-07-28T14:53:16Z</time>
      </trkpt>
      <trkpt lat="42.28109" lon="-8.73639">
        <ele>10.166</ele>
        <time>2018-07-28T14:53:17Z</time>
      </trkpt>
      <trkpt lat="42.28102" lon="-8.73642">
        <ele>10.238</ele>
        <time>2018-07-28T14:53:18Z</time>
      </trkpt>
      <trkpt lat="42.28095" lon="-8.73646">
        <ele>10.393</ele>
        <time>2018-07-28T14:53:19Z</time>
      </trkpt>
      <trkpt lat="42.28089" lon="-8.73649">
        <ele>10.338</ele>
        <time>2018-07-28T14:53:20Z</time>
      </trkpt>
      <trkpt lat="42.28083" lon="-8.73648">
        <ele>10.166</ele>
        <time>2018-07-28T14:53:21Z</time>
      </trkpt>
      <trkpt lat="42.28079" lon="-8.73647">
        <ele>9.872</ele>
        <time>2018-07-28T14:53:22Z</time>
      </trkpt>
      <trkpt lat="42.28072" lon="-8.73645">
        <ele>9.313</ele>
        <time>2018-07-28T14:53:24Z</time>
      </trkpt>
      <trkpt lat="42.28065" lon="-8.73641">
        <ele>8.943</ele>
        <time>2018-07-28T14:53:26Z</time>
      </trkpt>
      <trkpt lat="42.28058" lon="-8.73638">
        <ele>8.907</ele>
        <time>2018-07-28T14:53:28Z</time>
      </trkpt>
      <trkpt lat="42.28053" lon="-8.73637">
        <ele>8.908</ele>
        <time>2018-07-28T14:53:29Z</time>
      </trkpt>
      <trkpt lat="42.28048" lon="-8.73637">
        <ele>9.053</ele>
        <time>2018-07-28T14:53:30Z</time>
      </trkpt>
      <trkpt lat="42.28042" lon="-8.73636">
        <ele>9.058</ele>
        <time>2018-07-28T14:53:31Z</time>
      </trkpt>
      <trkpt lat="42.28037" lon="-8.73635">
        <ele>9.121</ele>
        <time>2018-07-28T14:53:32Z</time>
      </trkpt>
      <trkpt lat="42.28031" lon="-8.73635">
        <ele>9.113</ele>
        <time>2018-07-28T14:53:33Z</time>
      </trkpt>
      <trkpt lat="42.28024" lon="-8.73633">
        <ele>9.178</ele>
        <time>2018-07-28T14:53:34Z</time>
      </trkpt>
      <trkpt lat="42.28017" lon="-8.73633">
        <ele>9.073</ele>
        <time>2018-07-28T14:53:35Z</time>
      </trkpt>
      <trkpt lat="42.28011" lon="-8.73634">
        <ele>9.031</ele>
        <time>2018-07-28T14:53:36Z</time>
      </trkpt>
      <trkpt lat="42.28004" lon="-8.73636">
        <ele>9.047</ele>
        <time>2018-07-28T14:53:37Z</time>
      </trkpt>
      <trkpt lat="42.27998" lon="-8.73637">
        <ele>9.061</ele>
        <time>2018-07-28T14:53:38Z</time>
      </trkpt>
      <trkpt lat="42.27992" lon="-8.73639">
        <ele>9.021</ele>
        <time>2018-07-28T14:53:39Z</time>
      </trkpt>
      <trkpt lat="42.27985" lon="-8.73639">
        <ele>9.013</ele>
        <time>2018-07-28T14:53:40Z</time>
      </trkpt>
      <trkpt lat="42.27978" lon="-8.73637">
        <ele>9.008</ele>
        <time>2018-07-28T14:53:41Z</time>
      </trkpt>
      <trkpt lat="42.27971" lon="-8.73637">
        <ele>9.048</ele>
        <time>2018-07-28T14:53:42Z</time>
      </trkpt>
      <trkpt lat="42.27964" lon="-8.73637">
        <ele>9.053</ele>
        <time>2018-07-28T14:53:43Z</time>
      </trkpt>
      <trkpt lat="42.27957" lon="-8.73636">
        <ele>9.086</ele>
        <time>2018-07-28T14:53:44Z</time>
      </trkpt>
      <trkpt lat="42.27951" lon="-8.73635">
        <ele>9.138</ele>
        <time>2018-07-28T14:53:45Z</time>
      </trkpt>
      <trkpt lat="42.27945" lon="-8.73635">
        <ele>9.123</ele>
        <time>2018-07-28T14:53:46Z</time>
      </trkpt>
      <trkpt lat="42.27939" lon="-8.73633">
        <ele>9.068</ele>
        <time>2018-07-28T14:53:47Z</time>
      </trkpt>
      <trkpt lat="42.27934" lon="-8.73631">
        <ele>8.836</ele>
        <time>2018-07-28T14:53:48Z</time>
      </trkpt>
      <trkpt lat="42.27929" lon="-8.7363">
        <ele>8.782</ele>
        <time>2018-07-28T14:53:49Z</time>
      </trkpt>
      <trkpt lat="42.27924" lon="-8.73628">
        <ele>8.611</ele>
        <time>2018-07-28T14:53:50Z</time>
      </trkpt>
      <trkpt lat="42.27916" lon="-8.73628">
        <ele>8.621</ele>
        <time>2018-07-28T14:53:52Z</time>
      </trkpt>
      <trkpt lat="42.27908" lon="-8.73626">
        <ele>8.603</ele>
        <time>2018-07-28T14:53:54Z</time>
      </trkpt>
      <trkpt lat="42.27903" lon="-8.73625">
        <ele>8.608</ele>
        <time>2018-07-28T14:53:55Z</time>
      </trkpt>
      <trkpt lat="42.27898" lon="-8.73625">
        <ele>8.783</ele>
        <time>2018-07-28T14:53:56Z</time>
      </trkpt>
      <trkpt lat="42.27892" lon="-8.73622">
        <ele>8.948</ele>
        <time>2018-07-28T14:53:57Z</time>
      </trkpt>
      <trkpt lat="42.27886" lon="-8.73621">
        <ele>9.071</ele>
        <time>2018-07-28T14:53:58Z</time>
      </trkpt>
      <trkpt lat="42.2788" lon="-8.73619">
        <ele>9.013</ele>
        <time>2018-07-28T14:53:59Z</time>
      </trkpt>
      <trkpt lat="42.27875" lon="-8.73618">
        <ele>9.018</ele>
        <time>2018-07-28T14:54:00Z</time>
      </trkpt>
      <trkpt lat="42.2787" lon="-8.73617">
        <ele>9.063</ele>
        <time>2018-07-28T14:54:01Z</time>
      </trkpt>
      <trkpt lat="42.27864" lon="-8.73617">
        <ele>9.131</ele>
        <time>2018-07-28T14:54:02Z</time>
      </trkpt>
      <trkpt lat="42.27858" lon="-8.73617">
        <ele>9.187</ele>
        <time>2018-07-28T14:54:03Z</time>
      </trkpt>
      <trkpt lat="42.27852" lon="-8.73615">
        <ele>9.174</ele>
        <time>2018-07-28T14:54:04Z</time>
      </trkpt>
      <trkpt lat="42.27846" lon="-8.73612">
        <ele>8.956</ele>
        <time>2018-07-28T14:54:05Z</time>
      </trkpt>
      <trkpt lat="42.27841" lon="-8.73608">
        <ele>8.821</ele>
        <time>2018-07-28T14:54:06Z</time>
      </trkpt>
      <trkpt lat="42.27836" lon="-8.73606">
        <ele>8.608</ele>
        <time>2018-07-28T14:54:07Z</time>
      </trkpt>
      <trkpt lat="42.27831" lon="-8.73603">
        <ele>8.559</ele>
        <time>2018-07-28T14:54:08Z</time>
      </trkpt>
      <trkpt lat="42.27825" lon="-8.73601">
        <ele>8.484</ele>
        <time>2018-07-28T14:54:09Z</time>
      </trkpt>
      <trkpt lat="42.27819" lon="-8.736">
        <ele>8.427</ele>
        <time>2018-07-28T14:54:10Z</time>
      </trkpt>
      <trkpt lat="42.27813" lon="-8.73598">
        <ele>8.439</ele>
        <time>2018-07-28T14:54:11Z</time>
      </trkpt>
      <trkpt lat="42.27806" lon="-8.73595">
        <ele>8.564</ele>
        <time>2018-07-28T14:54:12Z</time>
      </trkpt>
      <trkpt lat="42.27798" lon="-8.73594">
        <ele>8.649</ele>
        <time>2018-07-28T14:54:13Z</time>
      </trkpt>
      <trkpt lat="42.27789" lon="-8.73591">
        <ele>8.737</ele>
        <time>2018-07-28T14:54:14Z</time>
      </trkpt>
      <trkpt lat="42.27782" lon="-8.73589">
        <ele>8.863</ele>
        <time>2018-07-28T14:54:15Z</time>
      </trkpt>
      <trkpt lat="42.27775" lon="-8.73588">
        <ele>8.812</ele>
        <time>2018-07-28T14:54:16Z</time>
      </trkpt>
      <trkpt lat="42.27769" lon="-8.73587">
        <ele>8.732</ele>
        <time>2018-07-28T14:54:17Z</time>
      </trkpt>
      <trkpt lat="42.27763" lon="-8.73588">
        <ele>8.705</ele>
        <time>2018-07-28T14:54:18Z</time>
      </trkpt>
      <trkpt lat="42.27755" lon="-8.73588">
        <ele>8.808</ele>
        <time>2018-07-28T14:54:19Z</time>
      </trkpt>
      <trkpt lat="42.27748" lon="-8.7359">
        <ele>8.993</ele>
        <time>2018-07-28T14:54:20Z</time>
      </trkpt>
      <trkpt lat="42.27741" lon="-8.7359">
        <ele>9.078</ele>
        <time>2018-07-28T14:54:21Z</time>
      </trkpt>
      <trkpt lat="42.27735" lon="-8.73588">
        <ele>9.031</ele>
        <time>2018-07-28T14:54:22Z</time>
      </trkpt>
      <trkpt lat="42.27729" lon="-8.73589">
        <ele>9.093</ele>
        <time>2018-07-28T14:54:23Z</time>
      </trkpt>
      <trkpt lat="42.27723" lon="-8.73589">
        <ele>9.098</ele>
        <time>2018-07-28T14:54:24Z</time>
      </trkpt>
      <trkpt lat="42.27717" lon="-8.73589">
        <ele>9.113</ele>
        <time>2018-07-28T14:54:25Z</time>
      </trkpt>
      <trkpt lat="42.27711" lon="-8.73589">
        <ele>9.231</ele>
        <time>2018-07-28T14:54:26Z</time>
      </trkpt>
      <trkpt lat="42.27705" lon="-8.7359">
        <ele>9.367</ele>
        <time>2018-07-28T14:54:27Z</time>
      </trkpt>
      <trkpt lat="42.27699" lon="-8.73592">
        <ele>9.413</ele>
        <time>2018-07-28T14:54:28Z</time>
      </trkpt>
      <trkpt lat="42.27692" lon="-8.73595">
        <ele>9.443</ele>
        <time>2018-07-28T14:54:29Z</time>
      </trkpt>
      <trkpt lat="42.27686" lon="-8.73597">
        <ele>9.307</ele>
        <time>2018-07-28T14:54:30Z</time>
      </trkpt>
      <trkpt lat="42.2768" lon="-8.736">
        <ele>9.308</ele>
        <time>2018-07-28T14:54:31Z</time>
      </trkpt>
      <trkpt lat="42.27674" lon="-8.73601">
        <ele>9.273</ele>
        <time>2018-07-28T14:54:32Z</time>
      </trkpt>
      <trkpt lat="42.27667" lon="-8.73603">
        <ele>9.258</ele>
        <time>2018-07-28T14:54:33Z</time>
      </trkpt>
      <trkpt lat="42.27661" lon="-8.73605">
        <ele>9.261</ele>
        <time>2018-07-28T14:54:34Z</time>
      </trkpt>
      <trkpt lat="42.27654" lon="-8.73607">
        <ele>9.223</ele>
        <time>2018-07-28T14:54:35Z</time>
      </trkpt>
      <trkpt lat="42.27648" lon="-8.73609">
        <ele>9.218</ele>
        <time>2018-07-28T14:54:36Z</time>
      </trkpt>
      <trkpt lat="42.27643" lon="-8.73612">
        <ele>9.363</ele>
        <time>2018-07-28T14:54:37Z</time>
      </trkpt>
      <trkpt lat="42.27638" lon="-8.73615">
        <ele>9.381</ele>
        <time>2018-07-28T14:54:38Z</time>
      </trkpt>
      <trkpt lat="42.27634" lon="-8.73618">
        <ele>9.287</ele>
        <time>2018-07-28T14:54:39Z</time>
      </trkpt>
      <trkpt lat="42.27629" lon="-8.73621">
        <ele>9.169</ele>
        <time>2018-07-28T14:54:40Z</time>
      </trkpt>
      <trkpt lat="42.27622" lon="-8.73625">
        <ele>8.704</ele>
        <time>2018-07-28T14:54:42Z</time>
      </trkpt>
      <trkpt lat="42.27614" lon="-8.73626">
        <ele>8.724</ele>
        <time>2018-07-28T14:54:44Z</time>
      </trkpt>
      <trkpt lat="42.27607" lon="-8.73629">
        <ele>8.908</ele>
        <time>2018-07-28T14:54:46Z</time>
      </trkpt>
      <trkpt lat="42.276" lon="-8.73632">
        <ele>9.038</ele>
        <time>2018-07-28T14:54:48Z</time>
      </trkpt>
      <trkpt lat="42.27593" lon="-8.73638">
        <ele>9.083</ele>
        <time>2018-07-28T14:54:50Z</time>
      </trkpt>
      <trkpt lat="42.27589" lon="-8.7364">
        <ele>9.066</ele>
        <time>2018-07-28T14:54:51Z</time>
      </trkpt>
      <trkpt lat="42.27582" lon="-8.73644">
        <ele>8.918</ele>
        <time>2018-07-28T14:54:53Z</time>
      </trkpt>
      <trkpt lat="42.27577" lon="-8.7364">
        <ele>8.443</ele>
        <time>2018-07-28T14:54:56Z</time>
      </trkpt>
      <trkpt lat="42.27577" lon="-8.73633">
        <ele>7.698</ele>
        <time>2018-07-28T14:55:02Z</time>
      </trkpt>
      <trkpt lat="42.27573" lon="-8.7363">
        <ele>7.576</ele>
        <time>2018-07-28T14:55:14Z</time>
      </trkpt>
      <trkpt lat="42.27573" lon="-8.73624">
        <ele>7.432</ele>
        <time>2018-07-28T14:55:41Z</time>
      </trkpt>
      <trkpt lat="42.27578" lon="-8.73621">
        <ele>7.464</ele>
        <time>2018-07-28T14:55:43Z</time>
      </trkpt>
      <trkpt lat="42.27584" lon="-8.73618">
        <ele>7.306</ele>
        <time>2018-07-28T14:55:45Z</time>
      </trkpt>
      <trkpt lat="42.27588" lon="-8.73618">
        <ele>7.216</ele>
        <time>2018-07-28T14:55:47Z</time>
      </trkpt>
      <trkpt lat="42.27594" lon="-8.73618">
        <ele>7.308</ele>
        <time>2018-07-28T14:55:51Z</time>
      </trkpt>
      <trkpt lat="42.27598" lon="-8.73617">
        <ele>7.468</ele>
        <time>2018-07-28T14:56:55Z</time>
      </trkpt>
      <trkpt lat="42.27603" lon="-8.73615">
        <ele>7.013</ele>
        <time>2018-07-28T14:57:32Z</time>
      </trkpt>
      <trkpt lat="42.27602" lon="-8.73609">
        <ele>7.266</ele>
        <time>2018-07-28T14:58:51Z</time>
      </trkpt>
      <trkpt lat="42.27599" lon="-8.73603">
        <ele>7.348</ele>
        <time>2018-07-28T14:58:58Z</time>
      </trkpt>
      <trkpt lat="42.27596" lon="-8.73598">
        <ele>7.213</ele>
        <time>2018-07-28T14:59:05Z</time>
      </trkpt>
      <trkpt lat="42.27601" lon="-8.73594">
        <ele>7.438</ele>
        <time>2018-07-28T14:59:32Z</time>
      </trkpt>
      <trkpt lat="42.2761" lon="-8.73601">
        <ele>7.326</ele>
        <time>2018-07-28T14:59:42Z</time>
      </trkpt>
      <trkpt lat="42.27614" lon="-8.73602">
        <ele>7.332</ele>
        <time>2018-07-28T14:59:44Z</time>
      </trkpt>
      <trkpt lat="42.27618" lon="-8.73599">
        <ele>7.318</ele>
        <time>2018-07-28T14:59:54Z</time>
      </trkpt>
      <trkpt lat="42.27616" lon="-8.73605">
        <ele>7.398</ele>
        <time>2018-07-28T15:00:00Z</time>
      </trkpt>
      <trkpt lat="42.27614" lon="-8.73611">
        <ele>7.417</ele>
        <time>2018-07-28T15:00:33Z</time>
      </trkpt>
      <trkpt lat="42.2761" lon="-8.73615">
        <ele>7.408</ele>
        <time>2018-07-28T15:00:48Z</time>
      </trkpt>
      <trkpt lat="42.27614" lon="-8.73616">
        <ele>7.583</ele>
        <time>2018-07-28T15:03:01Z</time>
      </trkpt>
      <trkpt lat="42.27614" lon="-8.7361">
        <ele>7.168</ele>
        <time>2018-07-28T15:04:58Z</time>
      </trkpt>
      <trkpt lat="42.27614" lon="-8.73617">
        <ele>7.251</ele>
        <time>2018-07-28T15:05:30Z</time>
      </trkpt>
      <trkpt lat="42.27614" lon="-8.73611">
        <ele>7.223</ele>
        <time>2018-07-28T15:09:28Z</time>
      </trkpt>
      <trkpt lat="42.27613" lon="-8.73604">
        <ele>7.248</ele>
        <time>2018-07-28T15:10:56Z</time>
      </trkpt>
      <trkpt lat="42.27613" lon="-8.73611">
        <ele>7.413</ele>
        <time>2018-07-28T15:15:06Z</time>
      </trkpt>
      <trkpt lat="42.27614" lon="-8.73605">
        <ele>7.471</ele>
        <time>2018-07-28T15:16:04Z</time>
      </trkpt>
      <trkpt lat="42.27616" lon="-8.73599">
        <ele>8.017</ele>
        <time>2018-07-28T15:27:37Z</time>
      </trkpt>
      <trkpt lat="42.27621" lon="-8.73595">
        <ele>7.152</ele>
        <time>2018-07-28T15:34:20Z</time>
      </trkpt>
      <trkpt lat="42.27617" lon="-8.73597">
        <ele>7.753</ele>
        <time>2018-07-28T15:38:17Z</time>
      </trkpt>
      <trkpt lat="42.27616" lon="-8.73603">
        <ele>7.008</ele>
        <time>2018-07-28T15:44:14Z</time>
      </trkpt>
      <trkpt lat="42.27613" lon="-8.73608">
        <ele>7.608</ele>
        <time>2018-07-28T15:46:51Z</time>
      </trkpt>
      <trkpt lat="42.27612" lon="-8.73614">
        <ele>7.417</ele>
        <time>2018-07-28T15:48:15Z</time>
      </trkpt>
      <trkpt lat="42.27613" lon="-8.73607">
        <ele>7.852</ele>
        <time>2018-07-28T15:56:34Z</time>
      </trkpt>
      <trkpt lat="42.27606" lon="-8.73601">
        <ele>7.535</ele>
        <time>2018-07-28T15:56:45Z</time>
      </trkpt>
      <trkpt lat="42.276" lon="-8.73599">
        <ele>7.157</ele>
        <time>2018-07-28T15:56:49Z</time>
      </trkpt>
      <trkpt lat="42.27596" lon="-8.73601">
        <ele>8.232</ele>
        <time>2018-07-28T15:56:54Z</time>
      </trkpt>
      <trkpt lat="42.27598" lon="-8.73609">
        <ele>7.697</ele>
        <time>2018-07-28T15:57:05Z</time>
      </trkpt>
      <trkpt lat="42.27599" lon="-8.73615">
        <ele>6.265</ele>
        <time>2018-07-28T15:57:10Z</time>
      </trkpt>
      <trkpt lat="42.27604" lon="-8.73619">
        <ele>7.111</ele>
        <time>2018-07-28T15:58:21Z</time>
      </trkpt>
      <trkpt lat="42.27608" lon="-8.7362">
        <ele>7.478</ele>
        <time>2018-07-28T16:14:02Z</time>
      </trkpt>
      <trkpt lat="42.27604" lon="-8.73622">
        <ele>7.333</ele>
        <time>2018-07-28T16:17:11Z</time>
      </trkpt>
      <trkpt lat="42.27597" lon="-8.73625">
        <ele>7.626</ele>
        <time>2018-07-28T16:17:13Z</time>
      </trkpt>
      <trkpt lat="42.2759" lon="-8.73629">
        <ele>7.808</ele>
        <time>2018-07-28T16:17:14Z</time>
      </trkpt>
      <trkpt lat="42.27583" lon="-8.73633">
        <ele>8.019</ele>
        <time>2018-07-28T16:17:15Z</time>
      </trkpt>
      <trkpt lat="42.27576" lon="-8.73635">
        <ele>8.354</ele>
        <time>2018-07-28T16:17:16Z</time>
      </trkpt>
      <trkpt lat="42.27568" lon="-8.73639">
        <ele>8.677</ele>
        <time>2018-07-28T16:17:17Z</time>
      </trkpt>
      <trkpt lat="42.27559" lon="-8.73641">
        <ele>8.899</ele>
        <time>2018-07-28T16:17:18Z</time>
      </trkpt>
      <trkpt lat="42.27551" lon="-8.73645">
        <ele>8.944</ele>
        <time>2018-07-28T16:17:19Z</time>
      </trkpt>
      <trkpt lat="42.2754" lon="-8.73651">
        <ele>9.119</ele>
        <time>2018-07-28T16:17:20Z</time>
      </trkpt>
      <trkpt lat="42.2753" lon="-8.73658">
        <ele>9.487</ele>
        <time>2018-07-28T16:17:21Z</time>
      </trkpt>
      <trkpt lat="42.27521" lon="-8.73664">
        <ele>9.593</ele>
        <time>2018-07-28T16:17:22Z</time>
      </trkpt>
      <trkpt lat="42.27515" lon="-8.73667">
        <ele>9.578</ele>
        <time>2018-07-28T16:17:23Z</time>
      </trkpt>
      <trkpt lat="42.27509" lon="-8.73672">
        <ele>9.533</ele>
        <time>2018-07-28T16:17:24Z</time>
      </trkpt>
      <trkpt lat="42.27502" lon="-8.73676">
        <ele>9.426</ele>
        <time>2018-07-28T16:17:25Z</time>
      </trkpt>
      <trkpt lat="42.27495" lon="-8.73679">
        <ele>9.208</ele>
        <time>2018-07-28T16:17:26Z</time>
      </trkpt>
      <trkpt lat="42.27487" lon="-8.73684">
        <ele>9.089</ele>
        <time>2018-07-28T16:17:27Z</time>
      </trkpt>
      <trkpt lat="42.27479" lon="-8.73689">
        <ele>9.044</ele>
        <time>2018-07-28T16:17:28Z</time>
      </trkpt>
      <trkpt lat="42.27471" lon="-8.73696">
        <ele>9.067</ele>
        <time>2018-07-28T16:17:29Z</time>
      </trkpt>
      <trkpt lat="42.27465" lon="-8.73703">
        <ele>9.129</ele>
        <time>2018-07-28T16:17:30Z</time>
      </trkpt>
      <trkpt lat="42.2746" lon="-8.73709">
        <ele>9.414</ele>
        <time>2018-07-28T16:17:31Z</time>
      </trkpt>
      <trkpt lat="42.27456" lon="-8.73714">
        <ele>9.689</ele>
        <time>2018-07-28T16:17:32Z</time>
      </trkpt>
      <trkpt lat="42.27453" lon="-8.73719">
        <ele>9.697</ele>
        <time>2018-07-28T16:17:33Z</time>
      </trkpt>
      <trkpt lat="42.27449" lon="-8.73726">
        <ele>9.273</ele>
        <time>2018-07-28T16:17:35Z</time>
      </trkpt>
      <trkpt lat="42.27445" lon="-8.73732">
        <ele>8.497</ele>
        <time>2018-07-28T16:17:37Z</time>
      </trkpt>
      <trkpt lat="42.27441" lon="-8.73741">
        <ele>8.023</ele>
        <time>2018-07-28T16:17:39Z</time>
      </trkpt>
      <trkpt lat="42.27437" lon="-8.73753">
        <ele>8.525</ele>
        <time>2018-07-28T16:17:41Z</time>
      </trkpt>
      <trkpt lat="42.27434" lon="-8.7376">
        <ele>9.008</ele>
        <time>2018-07-28T16:17:42Z</time>
      </trkpt>
      <trkpt lat="42.27431" lon="-8.73768">
        <ele>9.231</ele>
        <time>2018-07-28T16:17:43Z</time>
      </trkpt>
      <trkpt lat="42.27428" lon="-8.73775">
        <ele>9.286</ele>
        <time>2018-07-28T16:17:44Z</time>
      </trkpt>
      <trkpt lat="42.27425" lon="-8.73783">
        <ele>9.479</ele>
        <time>2018-07-28T16:17:45Z</time>
      </trkpt>
      <trkpt lat="42.27422" lon="-8.73791">
        <ele>9.471</ele>
        <time>2018-07-28T16:17:46Z</time>
      </trkpt>
      <trkpt lat="42.27419" lon="-8.738">
        <ele>9.216</ele>
        <time>2018-07-28T16:17:47Z</time>
      </trkpt>
      <trkpt lat="42.27416" lon="-8.73809">
        <ele>9.271</ele>
        <time>2018-07-28T16:17:48Z</time>
      </trkpt>
      <trkpt lat="42.27408" lon="-8.73817">
        <ele>9.239</ele>
        <time>2018-07-28T16:17:49Z</time>
      </trkpt>
      <trkpt lat="42.27404" lon="-8.73827">
        <ele>9.145</ele>
        <time>2018-07-28T16:17:50Z</time>
      </trkpt>
      <trkpt lat="42.27401" lon="-8.73838">
        <ele>9.035</ele>
        <time>2018-07-28T16:17:51Z</time>
      </trkpt>
      <trkpt lat="42.27399" lon="-8.73849">
        <ele>9.086</ele>
        <time>2018-07-28T16:17:52Z</time>
      </trkpt>
      <trkpt lat="42.27396" lon="-8.7386">
        <ele>9.214</ele>
        <time>2018-07-28T16:17:53Z</time>
      </trkpt>
      <trkpt lat="42.27394" lon="-8.73871">
        <ele>9.608</ele>
        <time>2018-07-28T16:17:54Z</time>
      </trkpt>
      <trkpt lat="42.27391" lon="-8.73882">
        <ele>9.735</ele>
        <time>2018-07-28T16:17:55Z</time>
      </trkpt>
      <trkpt lat="42.27387" lon="-8.73894">
        <ele>9.78</ele>
        <time>2018-07-28T16:17:56Z</time>
      </trkpt>
      <trkpt lat="42.27383" lon="-8.73907">
        <ele>9.743</ele>
        <time>2018-07-28T16:17:57Z</time>
      </trkpt>
      <trkpt lat="42.27378" lon="-8.73919">
        <ele>9.515</ele>
        <time>2018-07-28T16:17:58Z</time>
      </trkpt>
      <trkpt lat="42.27373" lon="-8.7393">
        <ele>9.43</ele>
        <time>2018-07-28T16:17:59Z</time>
      </trkpt>
      <trkpt lat="42.27368" lon="-8.73942">
        <ele>9.475</ele>
        <time>2018-07-28T16:18:00Z</time>
      </trkpt>
      <trkpt lat="42.27362" lon="-8.73952">
        <ele>9.413</ele>
        <time>2018-07-28T16:18:01Z</time>
      </trkpt>
      <trkpt lat="42.27357" lon="-8.73962">
        <ele>9.469</ele>
        <time>2018-07-28T16:18:02Z</time>
      </trkpt>
      <trkpt lat="42.27352" lon="-8.73971">
        <ele>9.329</ele>
        <time>2018-07-28T16:18:03Z</time>
      </trkpt>
      <trkpt lat="42.27346" lon="-8.73979">
        <ele>9.1</ele>
        <time>2018-07-28T16:18:04Z</time>
      </trkpt>
      <trkpt lat="42.27339" lon="-8.73986">
        <ele>8.92</ele>
        <time>2018-07-28T16:18:05Z</time>
      </trkpt>
      <trkpt lat="42.27331" lon="-8.73992">
        <ele>8.708</ele>
        <time>2018-07-28T16:18:06Z</time>
      </trkpt>
      <trkpt lat="42.27322" lon="-8.73999">
        <ele>8.624</ele>
        <time>2018-07-28T16:18:07Z</time>
      </trkpt>
      <trkpt lat="42.27313" lon="-8.74004">
        <ele>8.679</ele>
        <time>2018-07-28T16:18:08Z</time>
      </trkpt>
      <trkpt lat="42.27305" lon="-8.74008">
        <ele>8.622</ele>
        <time>2018-07-28T16:18:09Z</time>
      </trkpt>
      <trkpt lat="42.27296" lon="-8.74012">
        <ele>8.634</ele>
        <time>2018-07-28T16:18:10Z</time>
      </trkpt>
      <trkpt lat="42.27287" lon="-8.74016">
        <ele>8.789</ele>
        <time>2018-07-28T16:18:11Z</time>
      </trkpt>
      <trkpt lat="42.27278" lon="-8.7402">
        <ele>8.754</ele>
        <time>2018-07-28T16:18:12Z</time>
      </trkpt>
      <trkpt lat="42.27271" lon="-8.74025">
        <ele>8.742</ele>
        <time>2018-07-28T16:18:13Z</time>
      </trkpt>
      <trkpt lat="42.27264" lon="-8.7403">
        <ele>8.798</ele>
        <time>2018-07-28T16:18:14Z</time>
      </trkpt>
      <trkpt lat="42.27257" lon="-8.74035">
        <ele>8.662</ele>
        <time>2018-07-28T16:18:15Z</time>
      </trkpt>
      <trkpt lat="42.27252" lon="-8.7404">
        <ele>8.483</ele>
        <time>2018-07-28T16:18:16Z</time>
      </trkpt>
      <trkpt lat="42.27247" lon="-8.74044">
        <ele>8.311</ele>
        <time>2018-07-28T16:18:17Z</time>
      </trkpt>
      <trkpt lat="42.27242" lon="-8.74048">
        <ele>8.208</ele>
        <time>2018-07-28T16:18:18Z</time>
      </trkpt>
      <trkpt lat="42.27239" lon="-8.74053">
        <ele>8.188</ele>
        <time>2018-07-28T16:18:19Z</time>
      </trkpt>
      <trkpt lat="42.27233" lon="-8.74059">
        <ele>8.093</ele>
        <time>2018-07-28T16:18:20Z</time>
      </trkpt>
      <trkpt lat="42.27225" lon="-8.74063">
        <ele>7.836</ele>
        <time>2018-07-28T16:18:21Z</time>
      </trkpt>
      <trkpt lat="42.27218" lon="-8.74064">
        <ele>7.838</ele>
        <time>2018-07-28T16:18:22Z</time>
      </trkpt>
      <trkpt lat="42.27212" lon="-8.74061">
        <ele>7.833</ele>
        <time>2018-07-28T16:18:23Z</time>
      </trkpt>
      <trkpt lat="42.27206" lon="-8.74058">
        <ele>7.918</ele>
        <time>2018-07-28T16:18:24Z</time>
      </trkpt>
      <trkpt lat="42.27199" lon="-8.74055">
        <ele>8.196</ele>
        <time>2018-07-28T16:18:25Z</time>
      </trkpt>
      <trkpt lat="42.27193" lon="-8.7405">
        <ele>8.362</ele>
        <time>2018-07-28T16:18:26Z</time>
      </trkpt>
      <trkpt lat="42.27185" lon="-8.74047">
        <ele>8.529</ele>
        <time>2018-07-28T16:18:27Z</time>
      </trkpt>
      <trkpt lat="42.27177" lon="-8.74044">
        <ele>9</ele>
        <time>2018-07-28T16:18:28Z</time>
      </trkpt>
      <trkpt lat="42.2717" lon="-8.74042">
        <ele>9.12</ele>
        <time>2018-07-28T16:18:29Z</time>
      </trkpt>
      <trkpt lat="42.27161" lon="-8.74055">
        <ele>9.108</ele>
        <time>2018-07-28T16:18:30Z</time>
      </trkpt>
      <trkpt lat="42.27154" lon="-8.74061">
        <ele>9.154</ele>
        <time>2018-07-28T16:18:31Z</time>
      </trkpt>
      <trkpt lat="42.27148" lon="-8.74063">
        <ele>9.169</ele>
        <time>2018-07-28T16:18:32Z</time>
      </trkpt>
      <trkpt lat="42.27141" lon="-8.74068">
        <ele>8.922</ele>
        <time>2018-07-28T16:18:33Z</time>
      </trkpt>
      <trkpt lat="42.27136" lon="-8.74074">
        <ele>8.754</ele>
        <time>2018-07-28T16:18:34Z</time>
      </trkpt>
      <trkpt lat="42.27131" lon="-8.74081">
        <ele>8.659</ele>
        <time>2018-07-28T16:18:35Z</time>
      </trkpt>
      <trkpt lat="42.27128" lon="-8.74091">
        <ele>8.634</ele>
        <time>2018-07-28T16:18:36Z</time>
      </trkpt>
      <trkpt lat="42.27125" lon="-8.74101">
        <ele>8.612</ele>
        <time>2018-07-28T16:18:37Z</time>
      </trkpt>
      <trkpt lat="42.27121" lon="-8.74111">
        <ele>8.798</ele>
        <time>2018-07-28T16:18:38Z</time>
      </trkpt>
      <trkpt lat="42.27116" lon="-8.74121">
        <ele>8.812</ele>
        <time>2018-07-28T16:18:39Z</time>
      </trkpt>
      <trkpt lat="42.27114" lon="-8.7413">
        <ele>8.832</ele>
        <time>2018-07-28T16:18:40Z</time>
      </trkpt>
      <trkpt lat="42.27113" lon="-8.74139">
        <ele>8.705</ele>
        <time>2018-07-28T16:18:41Z</time>
      </trkpt>
      <trkpt lat="42.27112" lon="-8.74148">
        <ele>8.408</ele>
        <time>2018-07-28T16:18:42Z</time>
      </trkpt>
      <trkpt lat="42.27111" lon="-8.74157">
        <ele>8.153</ele>
        <time>2018-07-28T16:18:43Z</time>
      </trkpt>
      <trkpt lat="42.27111" lon="-8.74166">
        <ele>8.048</ele>
        <time>2018-07-28T16:18:44Z</time>
      </trkpt>
      <trkpt lat="42.27111" lon="-8.74174">
        <ele>8.051</ele>
        <time>2018-07-28T16:18:45Z</time>
      </trkpt>
      <trkpt lat="42.2711" lon="-8.74184">
        <ele>7.933</ele>
        <time>2018-07-28T16:18:47Z</time>
      </trkpt>
      <trkpt lat="42.2711" lon="-8.74193">
        <ele>7.778</ele>
        <time>2018-07-28T16:18:49Z</time>
      </trkpt>
      <trkpt lat="42.2711" lon="-8.742">
        <ele>7.593</ele>
        <time>2018-07-28T16:18:51Z</time>
      </trkpt>
      <trkpt lat="42.2711" lon="-8.74209">
        <ele>7.631</ele>
        <time>2018-07-28T16:18:53Z</time>
      </trkpt>
      <trkpt lat="42.27109" lon="-8.74216">
        <ele>7.797</ele>
        <time>2018-07-28T16:18:54Z</time>
      </trkpt>
      <trkpt lat="42.27109" lon="-8.74224">
        <ele>7.894</ele>
        <time>2018-07-28T16:18:55Z</time>
      </trkpt>
      <trkpt lat="42.27107" lon="-8.74233">
        <ele>7.957</ele>
        <time>2018-07-28T16:18:56Z</time>
      </trkpt>
      <trkpt lat="42.27106" lon="-8.74243">
        <ele>8.022</ele>
        <time>2018-07-28T16:18:57Z</time>
      </trkpt>
      <trkpt lat="42.27106" lon="-8.74254">
        <ele>8.308</ele>
        <time>2018-07-28T16:18:58Z</time>
      </trkpt>
      <trkpt lat="42.27103" lon="-8.74265">
        <ele>8.691</ele>
        <time>2018-07-28T16:18:59Z</time>
      </trkpt>
      <trkpt lat="42.27102" lon="-8.74274">
        <ele>9.076</ele>
        <time>2018-07-28T16:19:00Z</time>
      </trkpt>
      <trkpt lat="42.27102" lon="-8.74281">
        <ele>9.569</ele>
        <time>2018-07-28T16:19:01Z</time>
      </trkpt>
      <trkpt lat="42.27102" lon="-8.74289">
        <ele>10.011</ele>
        <time>2018-07-28T16:19:02Z</time>
      </trkpt>
      <trkpt lat="42.27104" lon="-8.74295">
        <ele>11.416</ele>
        <time>2018-07-28T16:19:03Z</time>
      </trkpt>
      <trkpt lat="42.27106" lon="-8.74301">
        <ele>12.111</ele>
        <time>2018-07-28T16:19:04Z</time>
      </trkpt>
      <trkpt lat="42.27109" lon="-8.74308">
        <ele>12.829</ele>
        <time>2018-07-28T16:19:05Z</time>
      </trkpt>
      <trkpt lat="42.27113" lon="-8.74316">
        <ele>13.735</ele>
        <time>2018-07-28T16:19:06Z</time>
      </trkpt>
      <trkpt lat="42.27117" lon="-8.74324">
        <ele>14.631</ele>
        <time>2018-07-28T16:19:07Z</time>
      </trkpt>
      <trkpt lat="42.27122" lon="-8.7433">
        <ele>15.661</ele>
        <time>2018-07-28T16:19:08Z</time>
      </trkpt>
      <trkpt lat="42.27127" lon="-8.74335">
        <ele>16.607</ele>
        <time>2018-07-28T16:19:09Z</time>
      </trkpt>
      <trkpt lat="42.27134" lon="-8.74338">
        <ele>17.708</ele>
        <time>2018-07-28T16:19:10Z</time>
      </trkpt>
      <trkpt lat="42.2714" lon="-8.74336">
        <ele>18.935</ele>
        <time>2018-07-28T16:19:11Z</time>
      </trkpt>
      <trkpt lat="42.27146" lon="-8.74332">
        <ele>20.14</ele>
        <time>2018-07-28T16:19:12Z</time>
      </trkpt>
      <trkpt lat="42.27153" lon="-8.74328">
        <ele>21.543</ele>
        <time>2018-07-28T16:19:13Z</time>
      </trkpt>
      <trkpt lat="42.2716" lon="-8.74325">
        <ele>22.915</ele>
        <time>2018-07-28T16:19:14Z</time>
      </trkpt>
      <trkpt lat="42.27165" lon="-8.74323">
        <ele>24.36</ele>
        <time>2018-07-28T16:19:15Z</time>
      </trkpt>
      <trkpt lat="42.27171" lon="-8.74323">
        <ele>25.675</ele>
        <time>2018-07-28T16:19:16Z</time>
      </trkpt>
      <trkpt lat="42.27175" lon="-8.74322">
        <ele>26.783</ele>
        <time>2018-07-28T16:19:17Z</time>
      </trkpt>
      <trkpt lat="42.2718" lon="-8.74323">
        <ele>27.639</ele>
        <time>2018-07-28T16:19:18Z</time>
      </trkpt>
      <trkpt lat="42.27189" lon="-8.74326">
        <ele>29.926</ele>
        <time>2018-07-28T16:19:20Z</time>
      </trkpt>
      <trkpt lat="42.27192" lon="-8.74331">
        <ele>30.747</ele>
        <time>2018-07-28T16:19:21Z</time>
      </trkpt>
      <trkpt lat="42.27195" lon="-8.7434">
        <ele>31.611</ele>
        <time>2018-07-28T16:19:22Z</time>
      </trkpt>
      <trkpt lat="42.27198" lon="-8.7435">
        <ele>32.708</ele>
        <time>2018-07-28T16:19:23Z</time>
      </trkpt>
      <trkpt lat="42.27202" lon="-8.74361">
        <ele>33.914</ele>
        <time>2018-07-28T16:19:24Z</time>
      </trkpt>
      <trkpt lat="42.27205" lon="-8.74371">
        <ele>35.339</ele>
        <time>2018-07-28T16:19:25Z</time>
      </trkpt>
      <trkpt lat="42.2721" lon="-8.74382">
        <ele>36.782</ele>
        <time>2018-07-28T16:19:26Z</time>
      </trkpt>
      <trkpt lat="42.27214" lon="-8.74393">
        <ele>38.324</ele>
        <time>2018-07-28T16:19:27Z</time>
      </trkpt>
      <trkpt lat="42.27219" lon="-8.74404">
        <ele>39.839</ele>
        <time>2018-07-28T16:19:28Z</time>
      </trkpt>
      <trkpt lat="42.27224" lon="-8.74416">
        <ele>41.414</ele>
        <time>2018-07-28T16:19:29Z</time>
      </trkpt>
      <trkpt lat="42.27228" lon="-8.74429">
        <ele>42.972</ele>
        <time>2018-07-28T16:19:30Z</time>
      </trkpt>
      <trkpt lat="42.27233" lon="-8.7444">
        <ele>44.428</ele>
        <time>2018-07-28T16:19:31Z</time>
      </trkpt>
      <trkpt lat="42.27238" lon="-8.74452">
        <ele>45.845</ele>
        <time>2018-07-28T16:19:32Z</time>
      </trkpt>
      <trkpt lat="42.27242" lon="-8.74463">
        <ele>47.247</ele>
        <time>2018-07-28T16:19:33Z</time>
      </trkpt>
      <trkpt lat="42.27246" lon="-8.74473">
        <ele>48.411</ele>
        <time>2018-07-28T16:19:34Z</time>
      </trkpt>
      <trkpt lat="42.27252" lon="-8.7448">
        <ele>49.508</ele>
        <time>2018-07-28T16:19:35Z</time>
      </trkpt>
      <trkpt lat="42.27259" lon="-8.74489">
        <ele>51.536</ele>
        <time>2018-07-28T16:19:36Z</time>
      </trkpt>
      <trkpt lat="42.27269" lon="-8.74498">
        <ele>52.671</ele>
        <time>2018-07-28T16:19:37Z</time>
      </trkpt>
      <trkpt lat="42.27277" lon="-8.74508">
        <ele>53.724</ele>
        <time>2018-07-28T16:19:38Z</time>
      </trkpt>
      <trkpt lat="42.27285" lon="-8.74519">
        <ele>54.876</ele>
        <time>2018-07-28T16:19:39Z</time>
      </trkpt>
      <trkpt lat="42.27294" lon="-8.74529">
        <ele>55.961</ele>
        <time>2018-07-28T16:19:40Z</time>
      </trkpt>
      <trkpt lat="42.27303" lon="-8.7454">
        <ele>56.936</ele>
        <time>2018-07-28T16:19:41Z</time>
      </trkpt>
      <trkpt lat="42.27311" lon="-8.74551">
        <ele>57.634</ele>
        <time>2018-07-28T16:19:42Z</time>
      </trkpt>
      <trkpt lat="42.2732" lon="-8.74561">
        <ele>58.56</ele>
        <time>2018-07-28T16:19:43Z</time>
      </trkpt>
      <trkpt lat="42.2733" lon="-8.74572">
        <ele>59.352</ele>
        <time>2018-07-28T16:19:44Z</time>
      </trkpt>
      <trkpt lat="42.27338" lon="-8.74582">
        <ele>59.953</ele>
        <time>2018-07-28T16:19:45Z</time>
      </trkpt>
      <trkpt lat="42.27346" lon="-8.74591">
        <ele>60.308</ele>
        <time>2018-07-28T16:19:46Z</time>
      </trkpt>
      <trkpt lat="42.27354" lon="-8.746">
        <ele>60.608</ele>
        <time>2018-07-28T16:19:47Z</time>
      </trkpt>
      <trkpt lat="42.2736" lon="-8.7461">
        <ele>60.747</ele>
        <time>2018-07-28T16:19:48Z</time>
      </trkpt>
      <trkpt lat="42.27368" lon="-8.74618">
        <ele>60.962</ele>
        <time>2018-07-28T16:19:49Z</time>
      </trkpt>
      <trkpt lat="42.27375" lon="-8.74625">
        <ele>61.115</ele>
        <time>2018-07-28T16:19:50Z</time>
      </trkpt>
      <trkpt lat="42.27383" lon="-8.74631">
        <ele>61.327</ele>
        <time>2018-07-28T16:19:51Z</time>
      </trkpt>
      <trkpt lat="42.2739" lon="-8.74636">
        <ele>62.032</ele>
        <time>2018-07-28T16:19:52Z</time>
      </trkpt>
      <trkpt lat="42.27398" lon="-8.7464">
        <ele>62.357</ele>
        <time>2018-07-28T16:19:53Z</time>
      </trkpt>
      <trkpt lat="42.27406" lon="-8.74644">
        <ele>62.715</ele>
        <time>2018-07-28T16:19:54Z</time>
      </trkpt>
      <trkpt lat="42.27413" lon="-8.74648">
        <ele>63.141</ele>
        <time>2018-07-28T16:19:55Z</time>
      </trkpt>
      <trkpt lat="42.2742" lon="-8.74651">
        <ele>63.596</ele>
        <time>2018-07-28T16:19:56Z</time>
      </trkpt>
      <trkpt lat="42.27425" lon="-8.74654">
        <ele>63.831</ele>
        <time>2018-07-28T16:19:57Z</time>
      </trkpt>
      <trkpt lat="42.2743" lon="-8.74656">
        <ele>64.124</ele>
        <time>2018-07-28T16:19:58Z</time>
      </trkpt>
      <trkpt lat="42.27434" lon="-8.74659">
        <ele>64.508</ele>
        <time>2018-07-28T16:19:59Z</time>
      </trkpt>
      <trkpt lat="42.27438" lon="-8.74665">
        <ele>65.091</ele>
        <time>2018-07-28T16:20:00Z</time>
      </trkpt>
      <trkpt lat="42.27439" lon="-8.74675">
        <ele>65.646</ele>
        <time>2018-07-28T16:20:01Z</time>
      </trkpt>
      <trkpt lat="42.27441" lon="-8.74685">
        <ele>66.449</ele>
        <time>2018-07-28T16:20:02Z</time>
      </trkpt>
      <trkpt lat="42.27443" lon="-8.74696">
        <ele>67.351</ele>
        <time>2018-07-28T16:20:03Z</time>
      </trkpt>
      <trkpt lat="42.27445" lon="-8.74706">
        <ele>68.236</ele>
        <time>2018-07-28T16:20:04Z</time>
      </trkpt>
      <trkpt lat="42.27448" lon="-8.74716">
        <ele>69.061</ele>
        <time>2018-07-28T16:20:05Z</time>
      </trkpt>
      <trkpt lat="42.2745" lon="-8.74725">
        <ele>69.889</ele>
        <time>2018-07-28T16:20:06Z</time>
      </trkpt>
      <trkpt lat="42.27452" lon="-8.74733">
        <ele>70.555</ele>
        <time>2018-07-28T16:20:07Z</time>
      </trkpt>
      <trkpt lat="42.27454" lon="-8.7474">
        <ele>71.295</ele>
        <time>2018-07-28T16:20:08Z</time>
      </trkpt>
      <trkpt lat="42.27457" lon="-8.74747">
        <ele>71.949</ele>
        <time>2018-07-28T16:20:09Z</time>
      </trkpt>
      <trkpt lat="42.27461" lon="-8.74754">
        <ele>73.323</ele>
        <time>2018-07-28T16:20:10Z</time>
      </trkpt>
      <trkpt lat="42.27465" lon="-8.7476">
        <ele>74.008</ele>
        <time>2018-07-28T16:20:11Z</time>
      </trkpt>
      <trkpt lat="42.2747" lon="-8.74766">
        <ele>74.911</ele>
        <time>2018-07-28T16:20:12Z</time>
      </trkpt>
      <trkpt lat="42.27476" lon="-8.74771">
        <ele>75.996</ele>
        <time>2018-07-28T16:20:13Z</time>
      </trkpt>
      <trkpt lat="42.27482" lon="-8.74778">
        <ele>77.119</ele>
        <time>2018-07-28T16:20:14Z</time>
      </trkpt>
      <trkpt lat="42.27488" lon="-8.74785">
        <ele>78.251</ele>
        <time>2018-07-28T16:20:15Z</time>
      </trkpt>
      <trkpt lat="42.27494" lon="-8.7479">
        <ele>79.176</ele>
        <time>2018-07-28T16:20:16Z</time>
      </trkpt>
      <trkpt lat="42.27499" lon="-8.74796">
        <ele>79.811</ele>
        <time>2018-07-28T16:20:17Z</time>
      </trkpt>
      <trkpt lat="42.27504" lon="-8.74803">
        <ele>80.439</ele>
        <time>2018-07-28T16:20:18Z</time>
      </trkpt>
      <trkpt lat="42.2751" lon="-8.7481">
        <ele>80.815</ele>
        <time>2018-07-28T16:20:19Z</time>
      </trkpt>
      <trkpt lat="42.27516" lon="-8.74817">
        <ele>81.321</ele>
        <time>2018-07-28T16:20:20Z</time>
      </trkpt>
      <trkpt lat="42.27523" lon="-8.74823">
        <ele>81.941</ele>
        <time>2018-07-28T16:20:21Z</time>
      </trkpt>
      <trkpt lat="42.2753" lon="-8.74829">
        <ele>82.505</ele>
        <time>2018-07-28T16:20:22Z</time>
      </trkpt>
      <trkpt lat="42.27537" lon="-8.74834">
        <ele>83.008</ele>
        <time>2018-07-28T16:20:23Z</time>
      </trkpt>
      <trkpt lat="42.27543" lon="-8.74839">
        <ele>83.564</ele>
        <time>2018-07-28T16:20:24Z</time>
      </trkpt>
      <trkpt lat="42.27549" lon="-8.74844">
        <ele>83.849</ele>
        <time>2018-07-28T16:20:25Z</time>
      </trkpt>
      <trkpt lat="42.27555" lon="-8.7485">
        <ele>84.012</ele>
        <time>2018-07-28T16:20:26Z</time>
      </trkpt>
      <trkpt lat="42.2756" lon="-8.74857">
        <ele>84.274</ele>
        <time>2018-07-28T16:20:27Z</time>
      </trkpt>
      <trkpt lat="42.27565" lon="-8.74864">
        <ele>84.269</ele>
        <time>2018-07-28T16:20:28Z</time>
      </trkpt>
      <trkpt lat="42.27571" lon="-8.74871">
        <ele>84.244</ele>
        <time>2018-07-28T16:20:29Z</time>
      </trkpt>
      <trkpt lat="42.27577" lon="-8.74878">
        <ele>84.382</ele>
        <time>2018-07-28T16:20:30Z</time>
      </trkpt>
      <trkpt lat="42.27581" lon="-8.74882">
        <ele>84.398</ele>
        <time>2018-07-28T16:20:31Z</time>
      </trkpt>
      <trkpt lat="42.27587" lon="-8.74885">
        <ele>84.041</ele>
        <time>2018-07-28T16:20:33Z</time>
      </trkpt>
      <trkpt lat="42.27591" lon="-8.74888">
        <ele>82.781</ele>
        <time>2018-07-28T16:20:36Z</time>
      </trkpt>
      <trkpt lat="42.27595" lon="-8.74891">
        <ele>81.909</ele>
        <time>2018-07-28T16:20:47Z</time>
      </trkpt>
      <trkpt lat="42.27598" lon="-8.74897">
        <ele>82.208</ele>
        <time>2018-07-28T16:20:51Z</time>
      </trkpt>
      <trkpt lat="42.276" lon="-8.74907">
        <ele>82.566</ele>
        <time>2018-07-28T16:20:53Z</time>
      </trkpt>
      <trkpt lat="42.276" lon="-8.74914">
        <ele>82.641</ele>
        <time>2018-07-28T16:20:55Z</time>
      </trkpt>
      <trkpt lat="42.276" lon="-8.7492">
        <ele>81.744</ele>
        <time>2018-07-28T16:21:10Z</time>
      </trkpt>
      <trkpt lat="42.27596" lon="-8.74919">
        <ele>81.556</ele>
        <time>2018-07-28T16:21:23Z</time>
      </trkpt>
      <trkpt lat="42.27591" lon="-8.74929">
        <ele>81.691</ele>
        <time>2018-07-28T16:22:18Z</time>
      </trkpt>
      <trkpt lat="42.27589" lon="-8.74937">
        <ele>81.916</ele>
        <time>2018-07-28T16:22:19Z</time>
      </trkpt>
      <trkpt lat="42.27586" lon="-8.74946">
        <ele>82.074</ele>
        <time>2018-07-28T16:22:20Z</time>
      </trkpt>
      <trkpt lat="42.27584" lon="-8.74956">
        <ele>82.25</ele>
        <time>2018-07-28T16:22:21Z</time>
      </trkpt>
      <trkpt lat="42.27583" lon="-8.74969">
        <ele>82.547</ele>
        <time>2018-07-28T16:22:22Z</time>
      </trkpt>
      <trkpt lat="42.27581" lon="-8.74982">
        <ele>82.729</ele>
        <time>2018-07-28T16:22:23Z</time>
      </trkpt>
      <trkpt lat="42.27579" lon="-8.74997">
        <ele>83.021</ele>
        <time>2018-07-28T16:22:24Z</time>
      </trkpt>
      <trkpt lat="42.27576" lon="-8.75011">
        <ele>83.508</ele>
        <time>2018-07-28T16:22:25Z</time>
      </trkpt>
      <trkpt lat="42.27573" lon="-8.75026">
        <ele>83.826</ele>
        <time>2018-07-28T16:22:26Z</time>
      </trkpt>
      <trkpt lat="42.2757" lon="-8.75042">
        <ele>83.841</ele>
        <time>2018-07-28T16:22:27Z</time>
      </trkpt>
      <trkpt lat="42.27566" lon="-8.7506">
        <ele>83.974</ele>
        <time>2018-07-28T16:22:28Z</time>
      </trkpt>
      <trkpt lat="42.2756" lon="-8.75079">
        <ele>83.996</ele>
        <time>2018-07-28T16:22:29Z</time>
      </trkpt>
      <trkpt lat="42.27553" lon="-8.75096">
        <ele>83.831</ele>
        <time>2018-07-28T16:22:30Z</time>
      </trkpt>
      <trkpt lat="42.27544" lon="-8.75112">
        <ele>83.736</ele>
        <time>2018-07-28T16:22:31Z</time>
      </trkpt>
      <trkpt lat="42.27535" lon="-8.75127">
        <ele>83.644</ele>
        <time>2018-07-28T16:22:32Z</time>
      </trkpt>
      <trkpt lat="42.27524" lon="-8.75141">
        <ele>83.27</ele>
        <time>2018-07-28T16:22:33Z</time>
      </trkpt>
      <trkpt lat="42.27513" lon="-8.75155">
        <ele>82.818</ele>
        <time>2018-07-28T16:22:34Z</time>
      </trkpt>
      <trkpt lat="42.275" lon="-8.75165">
        <ele>82.698</ele>
        <time>2018-07-28T16:22:35Z</time>
      </trkpt>
      <trkpt lat="42.27485" lon="-8.75175">
        <ele>82.417</ele>
        <time>2018-07-28T16:22:36Z</time>
      </trkpt>
      <trkpt lat="42.27469" lon="-8.75181">
        <ele>82.208</ele>
        <time>2018-07-28T16:22:37Z</time>
      </trkpt>
      <trkpt lat="42.27452" lon="-8.75184">
        <ele>82.283</ele>
        <time>2018-07-28T16:22:38Z</time>
      </trkpt>
      <trkpt lat="42.27434" lon="-8.75186">
        <ele>82.568</ele>
        <time>2018-07-28T16:22:39Z</time>
      </trkpt>
      <trkpt lat="42.27418" lon="-8.75185">
        <ele>82.981</ele>
        <time>2018-07-28T16:22:40Z</time>
      </trkpt>
      <trkpt lat="42.27398" lon="-8.75185">
        <ele>83.293</ele>
        <time>2018-07-28T16:22:41Z</time>
      </trkpt>
      <trkpt lat="42.27382" lon="-8.75181">
        <ele>83.528</ele>
        <time>2018-07-28T16:22:42Z</time>
      </trkpt>
      <trkpt lat="42.27366" lon="-8.75174">
        <ele>83.553</ele>
        <time>2018-07-28T16:22:43Z</time>
      </trkpt>
      <trkpt lat="42.27349" lon="-8.75167">
        <ele>83.521</ele>
        <time>2018-07-28T16:22:44Z</time>
      </trkpt>
      <trkpt lat="42.27333" lon="-8.75163">
        <ele>83.697</ele>
        <time>2018-07-28T16:22:45Z</time>
      </trkpt>
      <trkpt lat="42.27315" lon="-8.75157">
        <ele>83.896</ele>
        <time>2018-07-28T16:22:46Z</time>
      </trkpt>
      <trkpt lat="42.27299" lon="-8.75146">
        <ele>83.931</ele>
        <time>2018-07-28T16:22:47Z</time>
      </trkpt>
      <trkpt lat="42.27282" lon="-8.75142">
        <ele>84.024</ele>
        <time>2018-07-28T16:22:48Z</time>
      </trkpt>
      <trkpt lat="42.27268" lon="-8.75135">
        <ele>84.008</ele>
        <time>2018-07-28T16:22:49Z</time>
      </trkpt>
      <trkpt lat="42.27255" lon="-8.7513">
        <ele>83.541</ele>
        <time>2018-07-28T16:22:50Z</time>
      </trkpt>
      <trkpt lat="42.27242" lon="-8.75127">
        <ele>82.836</ele>
        <time>2018-07-28T16:22:51Z</time>
      </trkpt>
      <trkpt lat="42.27231" lon="-8.75128">
        <ele>82.199</ele>
        <time>2018-07-28T16:22:52Z</time>
      </trkpt>
      <trkpt lat="42.2722" lon="-8.7513">
        <ele>81.261</ele>
        <time>2018-07-28T16:22:53Z</time>
      </trkpt>
      <trkpt lat="42.27208" lon="-8.75136">
        <ele>80.416</ele>
        <time>2018-07-28T16:22:54Z</time>
      </trkpt>
      <trkpt lat="42.272" lon="-8.7514">
        <ele>79.731</ele>
        <time>2018-07-28T16:22:55Z</time>
      </trkpt>
      <trkpt lat="42.2719" lon="-8.75145">
        <ele>79.189</ele>
        <time>2018-07-28T16:22:56Z</time>
      </trkpt>
      <trkpt lat="42.2718" lon="-8.7515">
        <ele>78.615</ele>
        <time>2018-07-28T16:22:57Z</time>
      </trkpt>
      <trkpt lat="42.27172" lon="-8.75158">
        <ele>78.444</ele>
        <time>2018-07-28T16:22:58Z</time>
      </trkpt>
      <trkpt lat="42.27165" lon="-8.75164">
        <ele>78.305</ele>
        <time>2018-07-28T16:22:59Z</time>
      </trkpt>
      <trkpt lat="42.27155" lon="-8.75172">
        <ele>78.115</ele>
        <time>2018-07-28T16:23:00Z</time>
      </trkpt>
      <trkpt lat="42.27148" lon="-8.7518">
        <ele>77.808</ele>
        <time>2018-07-28T16:23:01Z</time>
      </trkpt>
      <trkpt lat="42.27143" lon="-8.7519">
        <ele>76.836</ele>
        <time>2018-07-28T16:23:02Z</time>
      </trkpt>
      <trkpt lat="42.27138" lon="-8.75204">
        <ele>76.461</ele>
        <time>2018-07-28T16:23:03Z</time>
      </trkpt>
      <trkpt lat="42.27133" lon="-8.75217">
        <ele>76.224</ele>
        <time>2018-07-28T16:23:04Z</time>
      </trkpt>
      <trkpt lat="42.27129" lon="-8.75233">
        <ele>76.116</ele>
        <time>2018-07-28T16:23:05Z</time>
      </trkpt>
      <trkpt lat="42.27124" lon="-8.7525">
        <ele>76.171</ele>
        <time>2018-07-28T16:23:06Z</time>
      </trkpt>
      <trkpt lat="42.27119" lon="-8.75266">
        <ele>76.186</ele>
        <time>2018-07-28T16:23:07Z</time>
      </trkpt>
      <trkpt lat="42.27115" lon="-8.75286">
        <ele>75.914</ele>
        <time>2018-07-28T16:23:08Z</time>
      </trkpt>
      <trkpt lat="42.27112" lon="-8.75307">
        <ele>75.58</ele>
        <time>2018-07-28T16:23:09Z</time>
      </trkpt>
      <trkpt lat="42.2711" lon="-8.75329">
        <ele>75.071</ele>
        <time>2018-07-28T16:23:10Z</time>
      </trkpt>
      <trkpt lat="42.27106" lon="-8.75349">
        <ele>74.441</ele>
        <time>2018-07-28T16:23:11Z</time>
      </trkpt>
      <trkpt lat="42.27102" lon="-8.75363">
        <ele>73.615</ele>
        <time>2018-07-28T16:23:12Z</time>
      </trkpt>
      <trkpt lat="42.27097" lon="-8.75373">
        <ele>72.808</ele>
        <time>2018-07-28T16:23:13Z</time>
      </trkpt>
      <trkpt lat="42.27086" lon="-8.75385">
        <ele>72.129</ele>
        <time>2018-07-28T16:23:14Z</time>
      </trkpt>
      <trkpt lat="42.27074" lon="-8.75394">
        <ele>71.674</ele>
        <time>2018-07-28T16:23:15Z</time>
      </trkpt>
      <trkpt lat="42.27062" lon="-8.75403">
        <ele>71.277</ele>
        <time>2018-07-28T16:23:16Z</time>
      </trkpt>
      <trkpt lat="42.2705" lon="-8.75411">
        <ele>70.839</ele>
        <time>2018-07-28T16:23:17Z</time>
      </trkpt>
      <trkpt lat="42.27039" lon="-8.75419">
        <ele>70.424</ele>
        <time>2018-07-28T16:23:18Z</time>
      </trkpt>
      <trkpt lat="42.27028" lon="-8.75427">
        <ele>70.089</ele>
        <time>2018-07-28T16:23:19Z</time>
      </trkpt>
      <trkpt lat="42.27017" lon="-8.75436">
        <ele>68.727</ele>
        <time>2018-07-28T16:23:20Z</time>
      </trkpt>
      <trkpt lat="42.27005" lon="-8.75445">
        <ele>68.153</ele>
        <time>2018-07-28T16:23:21Z</time>
      </trkpt>
      <trkpt lat="42.26994" lon="-8.75455">
        <ele>67.648</ele>
        <time>2018-07-28T16:23:22Z</time>
      </trkpt>
      <trkpt lat="42.26983" lon="-8.75468">
        <ele>67.161</ele>
        <time>2018-07-28T16:23:23Z</time>
      </trkpt>
      <trkpt lat="42.26974" lon="-8.7548">
        <ele>66.917</ele>
        <time>2018-07-28T16:23:24Z</time>
      </trkpt>
      <trkpt lat="42.26966" lon="-8.75495">
        <ele>66.908</ele>
        <time>2018-07-28T16:23:25Z</time>
      </trkpt>
      <trkpt lat="42.26958" lon="-8.75511">
        <ele>66.986</ele>
        <time>2018-07-28T16:23:26Z</time>
      </trkpt>
      <trkpt lat="42.26949" lon="-8.75524">
        <ele>66.611</ele>
        <time>2018-07-28T16:23:27Z</time>
      </trkpt>
      <trkpt lat="42.26941" lon="-8.75539">
        <ele>66.594</ele>
        <time>2018-07-28T16:23:28Z</time>
      </trkpt>
      <trkpt lat="42.26932" lon="-8.75555">
        <ele>66.376</ele>
        <time>2018-07-28T16:23:29Z</time>
      </trkpt>
      <trkpt lat="42.26923" lon="-8.7557">
        <ele>65.931</ele>
        <time>2018-07-28T16:23:30Z</time>
      </trkpt>
      <trkpt lat="42.26914" lon="-8.75583">
        <ele>65.466</ele>
        <time>2018-07-28T16:23:31Z</time>
      </trkpt>
      <trkpt lat="42.26906" lon="-8.75597">
        <ele>65.234</ele>
        <time>2018-07-28T16:23:32Z</time>
      </trkpt>
      <trkpt lat="42.26897" lon="-8.75607">
        <ele>64.99</ele>
        <time>2018-07-28T16:23:33Z</time>
      </trkpt>
      <trkpt lat="42.26883" lon="-8.75618">
        <ele>64.418</ele>
        <time>2018-07-28T16:23:34Z</time>
      </trkpt>
      <trkpt lat="42.26871" lon="-8.75628">
        <ele>63.898</ele>
        <time>2018-07-28T16:23:35Z</time>
      </trkpt>
      <trkpt lat="42.26855" lon="-8.75636">
        <ele>63.217</ele>
        <time>2018-07-28T16:23:36Z</time>
      </trkpt>
      <trkpt lat="42.26837" lon="-8.75644">
        <ele>63.108</ele>
        <time>2018-07-28T16:23:37Z</time>
      </trkpt>
      <trkpt lat="42.26819" lon="-8.7565">
        <ele>63.213</ele>
        <time>2018-07-28T16:23:38Z</time>
      </trkpt>
      <trkpt lat="42.26802" lon="-8.75651">
        <ele>63.298</ele>
        <time>2018-07-28T16:23:39Z</time>
      </trkpt>
      <trkpt lat="42.26786" lon="-8.75651">
        <ele>63.251</ele>
        <time>2018-07-28T16:23:40Z</time>
      </trkpt>
      <trkpt lat="42.26769" lon="-8.75655">
        <ele>62.633</ele>
        <time>2018-07-28T16:23:41Z</time>
      </trkpt>
      <trkpt lat="42.26753" lon="-8.75655">
        <ele>61.948</ele>
        <time>2018-07-28T16:23:42Z</time>
      </trkpt>
      <trkpt lat="42.26743" lon="-8.75659">
        <ele>60.883</ele>
        <time>2018-07-28T16:23:43Z</time>
      </trkpt>
      <trkpt lat="42.26732" lon="-8.75666">
        <ele>60.461</ele>
        <time>2018-07-28T16:23:44Z</time>
      </trkpt>
      <trkpt lat="42.26722" lon="-8.7568">
        <ele>60.457</ele>
        <time>2018-07-28T16:23:45Z</time>
      </trkpt>
      <trkpt lat="42.26712" lon="-8.75697">
        <ele>60.477</ele>
        <time>2018-07-28T16:23:46Z</time>
      </trkpt>
      <trkpt lat="42.26702" lon="-8.75712">
        <ele>60.661</ele>
        <time>2018-07-28T16:23:47Z</time>
      </trkpt>
      <trkpt lat="42.26692" lon="-8.75724">
        <ele>60.927</ele>
        <time>2018-07-28T16:23:48Z</time>
      </trkpt>
      <trkpt lat="42.26681" lon="-8.75737">
        <ele>61.108</ele>
        <time>2018-07-28T16:23:49Z</time>
      </trkpt>
      <trkpt lat="42.26671" lon="-8.7575">
        <ele>61.169</ele>
        <time>2018-07-28T16:23:50Z</time>
      </trkpt>
      <trkpt lat="42.26661" lon="-8.75762">
        <ele>60.754</ele>
        <time>2018-07-28T16:23:51Z</time>
      </trkpt>
      <trkpt lat="42.26651" lon="-8.75774">
        <ele>60.287</ele>
        <time>2018-07-28T16:23:52Z</time>
      </trkpt>
      <trkpt lat="42.2664" lon="-8.75782">
        <ele>59.659</ele>
        <time>2018-07-28T16:23:53Z</time>
      </trkpt>
      <trkpt lat="42.26629" lon="-8.7579">
        <ele>58.344</ele>
        <time>2018-07-28T16:23:54Z</time>
      </trkpt>
      <trkpt lat="42.26619" lon="-8.75798">
        <ele>57.719</ele>
        <time>2018-07-28T16:23:55Z</time>
      </trkpt>
      <trkpt lat="42.26608" lon="-8.75803">
        <ele>57.157</ele>
        <time>2018-07-28T16:23:56Z</time>
      </trkpt>
      <trkpt lat="42.26595" lon="-8.75812">
        <ele>56.343</ele>
        <time>2018-07-28T16:23:57Z</time>
      </trkpt>
      <trkpt lat="42.26584" lon="-8.75814">
        <ele>55.537</ele>
        <time>2018-07-28T16:23:58Z</time>
      </trkpt>
      <trkpt lat="42.26574" lon="-8.75821">
        <ele>54.949</ele>
        <time>2018-07-28T16:23:59Z</time>
      </trkpt>
      <trkpt lat="42.26564" lon="-8.75827">
        <ele>54.513</ele>
        <time>2018-07-28T16:24:00Z</time>
      </trkpt>
      <trkpt lat="42.26551" lon="-8.75835">
        <ele>54.008</ele>
        <time>2018-07-28T16:24:01Z</time>
      </trkpt>
      <trkpt lat="42.26536" lon="-8.75843">
        <ele>53.785</ele>
        <time>2018-07-28T16:24:02Z</time>
      </trkpt>
      <trkpt lat="42.2652" lon="-8.75853">
        <ele>53.56</ele>
        <time>2018-07-28T16:24:03Z</time>
      </trkpt>
      <trkpt lat="42.26507" lon="-8.7586">
        <ele>53.133</ele>
        <time>2018-07-28T16:24:04Z</time>
      </trkpt>
      <trkpt lat="42.26493" lon="-8.75868">
        <ele>52.495</ele>
        <time>2018-07-28T16:24:05Z</time>
      </trkpt>
      <trkpt lat="42.2648" lon="-8.75877">
        <ele>52.06</ele>
        <time>2018-07-28T16:24:06Z</time>
      </trkpt>
      <trkpt lat="42.26466" lon="-8.75883">
        <ele>51.655</ele>
        <time>2018-07-28T16:24:07Z</time>
      </trkpt>
      <trkpt lat="42.26452" lon="-8.75893">
        <ele>51.373</ele>
        <time>2018-07-28T16:24:08Z</time>
      </trkpt>
      <trkpt lat="42.2644" lon="-8.75903">
        <ele>51.189</ele>
        <time>2018-07-28T16:24:09Z</time>
      </trkpt>
      <trkpt lat="42.26427" lon="-8.75909">
        <ele>51.178</ele>
        <time>2018-07-28T16:24:10Z</time>
      </trkpt>
      <trkpt lat="42.26414" lon="-8.75917">
        <ele>50.333</ele>
        <time>2018-07-28T16:24:11Z</time>
      </trkpt>
      <trkpt lat="42.26401" lon="-8.75928">
        <ele>49.626</ele>
        <time>2018-07-28T16:24:12Z</time>
      </trkpt>
      <trkpt lat="42.26389" lon="-8.75936">
        <ele>49.108</ele>
        <time>2018-07-28T16:24:13Z</time>
      </trkpt>
      <trkpt lat="42.26375" lon="-8.75943">
        <ele>48.279</ele>
        <time>2018-07-28T16:24:14Z</time>
      </trkpt>
      <trkpt lat="42.26364" lon="-8.75954">
        <ele>47.464</ele>
        <time>2018-07-28T16:24:15Z</time>
      </trkpt>
      <trkpt lat="42.26352" lon="-8.75967">
        <ele>46.657</ele>
        <time>2018-07-28T16:24:16Z</time>
      </trkpt>
      <trkpt lat="42.26348" lon="-8.75988">
        <ele>46.119</ele>
        <time>2018-07-28T16:24:17Z</time>
      </trkpt>
      <trkpt lat="42.26347" lon="-8.76009">
        <ele>45.524</ele>
        <time>2018-07-28T16:24:18Z</time>
      </trkpt>
      <trkpt lat="42.26345" lon="-8.76028">
        <ele>45.189</ele>
        <time>2018-07-28T16:24:19Z</time>
      </trkpt>
      <trkpt lat="42.26344" lon="-8.76046">
        <ele>44.917</ele>
        <time>2018-07-28T16:24:20Z</time>
      </trkpt>
      <trkpt lat="42.26342" lon="-8.76064">
        <ele>44.483</ele>
        <time>2018-07-28T16:24:21Z</time>
      </trkpt>
      <trkpt lat="42.26341" lon="-8.76083">
        <ele>43.889</ele>
        <time>2018-07-28T16:24:22Z</time>
      </trkpt>
      <trkpt lat="42.26339" lon="-8.76102">
        <ele>43.206</ele>
        <time>2018-07-28T16:24:23Z</time>
      </trkpt>
      <trkpt lat="42.26337" lon="-8.76121">
        <ele>42.726</ele>
        <time>2018-07-28T16:24:24Z</time>
      </trkpt>
      <trkpt lat="42.26335" lon="-8.76141">
        <ele>42.208</ele>
        <time>2018-07-28T16:24:25Z</time>
      </trkpt>
      <trkpt lat="42.26333" lon="-8.76162">
        <ele>41.64</ele>
        <time>2018-07-28T16:24:26Z</time>
      </trkpt>
      <trkpt lat="42.26331" lon="-8.76181">
        <ele>41.085</ele>
        <time>2018-07-28T16:24:27Z</time>
      </trkpt>
      <trkpt lat="42.26329" lon="-8.76198">
        <ele>39.218</ele>
        <time>2018-07-28T16:24:28Z</time>
      </trkpt>
      <trkpt lat="42.26328" lon="-8.76214">
        <ele>38.54</ele>
        <time>2018-07-28T16:24:29Z</time>
      </trkpt>
      <trkpt lat="42.26326" lon="-8.76232">
        <ele>37.725</ele>
        <time>2018-07-28T16:24:30Z</time>
      </trkpt>
      <trkpt lat="42.26325" lon="-8.7625">
        <ele>37.09</ele>
        <time>2018-07-28T16:24:31Z</time>
      </trkpt>
      <trkpt lat="42.26324" lon="-8.76269">
        <ele>36.498</ele>
        <time>2018-07-28T16:24:32Z</time>
      </trkpt>
      <trkpt lat="42.26322" lon="-8.76289">
        <ele>35.954</ele>
        <time>2018-07-28T16:24:33Z</time>
      </trkpt>
      <trkpt lat="42.26319" lon="-8.76306">
        <ele>35.278</ele>
        <time>2018-07-28T16:24:34Z</time>
      </trkpt>
      <trkpt lat="42.26318" lon="-8.76325">
        <ele>34.733</ele>
        <time>2018-07-28T16:24:35Z</time>
      </trkpt>
      <trkpt lat="42.26316" lon="-8.76342">
        <ele>34.226</ele>
        <time>2018-07-28T16:24:36Z</time>
      </trkpt>
      <trkpt lat="42.26313" lon="-8.76359">
        <ele>33.308</ele>
        <time>2018-07-28T16:24:37Z</time>
      </trkpt>
      <trkpt lat="42.2631" lon="-8.76377">
        <ele>32.589</ele>
        <time>2018-07-28T16:24:38Z</time>
      </trkpt>
      <trkpt lat="42.26308" lon="-8.76393">
        <ele>31.854</ele>
        <time>2018-07-28T16:24:39Z</time>
      </trkpt>
      <trkpt lat="42.26306" lon="-8.76411">
        <ele>30.927</ele>
        <time>2018-07-28T16:24:40Z</time>
      </trkpt>
      <trkpt lat="42.26305" lon="-8.76428">
        <ele>29.859</ele>
        <time>2018-07-28T16:24:41Z</time>
      </trkpt>
      <trkpt lat="42.26304" lon="-8.76446">
        <ele>29.064</ele>
        <time>2018-07-28T16:24:42Z</time>
      </trkpt>
      <trkpt lat="42.26303" lon="-8.76461">
        <ele>28.199</ele>
        <time>2018-07-28T16:24:43Z</time>
      </trkpt>
      <trkpt lat="42.26301" lon="-8.76476">
        <ele>27.017</ele>
        <time>2018-07-28T16:24:44Z</time>
      </trkpt>
      <trkpt lat="42.263" lon="-8.7649">
        <ele>25.093</ele>
        <time>2018-07-28T16:24:45Z</time>
      </trkpt>
      <trkpt lat="42.26299" lon="-8.76503">
        <ele>24.117</ele>
        <time>2018-07-28T16:24:46Z</time>
      </trkpt>
      <trkpt lat="42.26296" lon="-8.76511">
        <ele>23.287</ele>
        <time>2018-07-28T16:24:47Z</time>
      </trkpt>
      <trkpt lat="42.26298" lon="-8.76521">
        <ele>22.315</ele>
        <time>2018-07-28T16:24:48Z</time>
      </trkpt>
      <trkpt lat="42.26299" lon="-8.76529">
        <ele>21.308</ele>
        <time>2018-07-28T16:24:49Z</time>
      </trkpt>
      <trkpt lat="42.263" lon="-8.76537">
        <ele>20.333</ele>
        <time>2018-07-28T16:24:50Z</time>
      </trkpt>
      <trkpt lat="42.26299" lon="-8.76544">
        <ele>19.468</ele>
        <time>2018-07-28T16:24:51Z</time>
      </trkpt>
      <trkpt lat="42.263" lon="-8.76552">
        <ele>18.651</ele>
        <time>2018-07-28T16:24:52Z</time>
      </trkpt>
      <trkpt lat="42.263" lon="-8.76561">
        <ele>17.933</ele>
        <time>2018-07-28T16:24:53Z</time>
      </trkpt>
      <trkpt lat="42.263" lon="-8.7657">
        <ele>17.498</ele>
        <time>2018-07-28T16:24:54Z</time>
      </trkpt>
      <trkpt lat="42.263" lon="-8.76579">
        <ele>17.083</ele>
        <time>2018-07-28T16:24:55Z</time>
      </trkpt>
      <trkpt lat="42.26299" lon="-8.76588">
        <ele>16.741</ele>
        <time>2018-07-28T16:24:56Z</time>
      </trkpt>
      <trkpt lat="42.26297" lon="-8.76598">
        <ele>16.477</ele>
        <time>2018-07-28T16:24:57Z</time>
      </trkpt>
      <trkpt lat="42.26295" lon="-8.76611">
        <ele>16.169</ele>
        <time>2018-07-28T16:24:58Z</time>
      </trkpt>
      <trkpt lat="42.26295" lon="-8.76623">
        <ele>15.904</ele>
        <time>2018-07-28T16:24:59Z</time>
      </trkpt>
      <trkpt lat="42.26295" lon="-8.76635">
        <ele>15.924</ele>
        <time>2018-07-28T16:25:00Z</time>
      </trkpt>
      <trkpt lat="42.26295" lon="-8.76647">
        <ele>15.908</ele>
        <time>2018-07-28T16:25:01Z</time>
      </trkpt>
      <trkpt lat="42.26296" lon="-8.7666">
        <ele>15.758</ele>
        <time>2018-07-28T16:25:02Z</time>
      </trkpt>
      <trkpt lat="42.26298" lon="-8.76672">
        <ele>15.443</ele>
        <time>2018-07-28T16:25:03Z</time>
      </trkpt>
      <trkpt lat="42.26297" lon="-8.76686">
        <ele>14.876</ele>
        <time>2018-07-28T16:25:04Z</time>
      </trkpt>
      <trkpt lat="42.26297" lon="-8.76701">
        <ele>14.298</ele>
        <time>2018-07-28T16:25:05Z</time>
      </trkpt>
      <trkpt lat="42.26297" lon="-8.76716">
        <ele>13.613</ele>
        <time>2018-07-28T16:25:06Z</time>
      </trkpt>
      <trkpt lat="42.26299" lon="-8.76731">
        <ele>13.328</ele>
        <time>2018-07-28T16:25:07Z</time>
      </trkpt>
      <trkpt lat="42.26301" lon="-8.76745">
        <ele>13.046</ele>
        <time>2018-07-28T16:25:08Z</time>
      </trkpt>
      <trkpt lat="42.26306" lon="-8.76763">
        <ele>12.882</ele>
        <time>2018-07-28T16:25:09Z</time>
      </trkpt>
      <trkpt lat="42.26306" lon="-8.76779">
        <ele>12.596</ele>
        <time>2018-07-28T16:25:10Z</time>
      </trkpt>
      <trkpt lat="42.26306" lon="-8.76794">
        <ele>12.231</ele>
        <time>2018-07-28T16:25:11Z</time>
      </trkpt>
      <trkpt lat="42.26304" lon="-8.76808">
        <ele>11.824</ele>
        <time>2018-07-28T16:25:12Z</time>
      </trkpt>
      <trkpt lat="42.26303" lon="-8.76822">
        <ele>11.408</ele>
        <time>2018-07-28T16:25:13Z</time>
      </trkpt>
      <trkpt lat="42.26305" lon="-8.76836">
        <ele>11.471</ele>
        <time>2018-07-28T16:25:14Z</time>
      </trkpt>
      <trkpt lat="42.26305" lon="-8.76853">
        <ele>11.756</ele>
        <time>2018-07-28T16:25:15Z</time>
      </trkpt>
      <trkpt lat="42.26307" lon="-8.7687">
        <ele>11.959</ele>
        <time>2018-07-28T16:25:16Z</time>
      </trkpt>
      <trkpt lat="42.26308" lon="-8.76887">
        <ele>11.971</ele>
        <time>2018-07-28T16:25:17Z</time>
      </trkpt>
      <trkpt lat="42.26312" lon="-8.76904">
        <ele>12.136</ele>
        <time>2018-07-28T16:25:18Z</time>
      </trkpt>
      <trkpt lat="42.26313" lon="-8.76919">
        <ele>12.081</ele>
        <time>2018-07-28T16:25:19Z</time>
      </trkpt>
      <trkpt lat="42.26314" lon="-8.76935">
        <ele>11.879</ele>
        <time>2018-07-28T16:25:20Z</time>
      </trkpt>
      <trkpt lat="42.26316" lon="-8.76949">
        <ele>11.695</ele>
        <time>2018-07-28T16:25:21Z</time>
      </trkpt>
      <trkpt lat="42.26315" lon="-8.76961">
        <ele>11.351</ele>
        <time>2018-07-28T16:25:22Z</time>
      </trkpt>
      <trkpt lat="42.26317" lon="-8.76972">
        <ele>10.901</ele>
        <time>2018-07-28T16:25:23Z</time>
      </trkpt>
      <trkpt lat="42.26317" lon="-8.76981">
        <ele>10.311</ele>
        <time>2018-07-28T16:25:24Z</time>
      </trkpt>
      <trkpt lat="42.26319" lon="-8.76986">
        <ele>8.308</ele>
        <time>2018-07-28T16:25:28Z</time>
      </trkpt>
      <trkpt lat="42.26321" lon="-8.76993">
        <ele>8.087</ele>
        <time>2018-07-28T16:25:30Z</time>
      </trkpt>
      <trkpt lat="42.2632" lon="-8.77006">
        <ele>8.032</ele>
        <time>2018-07-28T16:25:32Z</time>
      </trkpt>
      <trkpt lat="42.26323" lon="-8.77012">
        <ele>8.095</ele>
        <time>2018-07-28T16:25:33Z</time>
      </trkpt>
      <trkpt lat="42.26325" lon="-8.77018">
        <ele>8.137</ele>
        <time>2018-07-28T16:25:34Z</time>
      </trkpt>
      <trkpt lat="42.26328" lon="-8.77027">
        <ele>8.172</ele>
        <time>2018-07-28T16:25:35Z</time>
      </trkpt>
      <trkpt lat="42.26329" lon="-8.7704">
        <ele>8.317</ele>
        <time>2018-07-28T16:25:37Z</time>
      </trkpt>
      <trkpt lat="42.2633" lon="-8.77048">
        <ele>8.315</ele>
        <time>2018-07-28T16:25:38Z</time>
      </trkpt>
      <trkpt lat="42.26332" lon="-8.77054">
        <ele>8.391</ele>
        <time>2018-07-28T16:25:39Z</time>
      </trkpt>
      <trkpt lat="42.26329" lon="-8.77061">
        <ele>8.333</ele>
        <time>2018-07-28T16:25:40Z</time>
      </trkpt>
      <trkpt lat="42.26328" lon="-8.77069">
        <ele>7.823</ele>
        <time>2018-07-28T16:25:47Z</time>
      </trkpt>
      <trkpt lat="42.2633" lon="-8.77075">
        <ele>8.115</ele>
        <time>2018-07-28T16:25:48Z</time>
      </trkpt>
      <trkpt lat="42.26331" lon="-8.77084">
        <ele>8.508</ele>
        <time>2018-07-28T16:25:49Z</time>
      </trkpt>
      <trkpt lat="42.26332" lon="-8.77093">
        <ele>8.895</ele>
        <time>2018-07-28T16:25:50Z</time>
      </trkpt>
      <trkpt lat="42.26333" lon="-8.77103">
        <ele>9.14</ele>
        <time>2018-07-28T16:25:51Z</time>
      </trkpt>
      <trkpt lat="42.26335" lon="-8.77114">
        <ele>9.523</ele>
        <time>2018-07-28T16:25:52Z</time>
      </trkpt>
      <trkpt lat="42.26336" lon="-8.77123">
        <ele>9.895</ele>
        <time>2018-07-28T16:25:53Z</time>
      </trkpt>
      <trkpt lat="42.26338" lon="-8.77131">
        <ele>10.12</ele>
        <time>2018-07-28T16:25:54Z</time>
      </trkpt>
      <trkpt lat="42.26339" lon="-8.77141">
        <ele>10.235</ele>
        <time>2018-07-28T16:25:55Z</time>
      </trkpt>
      <trkpt lat="42.26341" lon="-8.77151">
        <ele>10.613</ele>
        <time>2018-07-28T16:25:56Z</time>
      </trkpt>
      <trkpt lat="42.26341" lon="-8.77162">
        <ele>10.669</ele>
        <time>2018-07-28T16:25:57Z</time>
      </trkpt>
      <trkpt lat="42.26343" lon="-8.77172">
        <ele>10.352</ele>
        <time>2018-07-28T16:25:58Z</time>
      </trkpt>
      <trkpt lat="42.26344" lon="-8.77181">
        <ele>9.853</ele>
        <time>2018-07-28T16:25:59Z</time>
      </trkpt>
      <trkpt lat="42.26345" lon="-8.7719">
        <ele>9.408</ele>
        <time>2018-07-28T16:26:00Z</time>
      </trkpt>
      <trkpt lat="42.26347" lon="-8.772">
        <ele>8.808</ele>
        <time>2018-07-28T16:26:01Z</time>
      </trkpt>
      <trkpt lat="42.26349" lon="-8.77209">
        <ele>8.467</ele>
        <time>2018-07-28T16:26:02Z</time>
      </trkpt>
      <trkpt lat="42.2635" lon="-8.77217">
        <ele>8.432</ele>
        <time>2018-07-28T16:26:03Z</time>
      </trkpt>
      <trkpt lat="42.26352" lon="-8.77226">
        <ele>8.745</ele>
        <time>2018-07-28T16:26:04Z</time>
      </trkpt>
      <trkpt lat="42.26354" lon="-8.77234">
        <ele>8.987</ele>
        <time>2018-07-28T16:26:05Z</time>
      </trkpt>
      <trkpt lat="42.26355" lon="-8.77243">
        <ele>8.952</ele>
        <time>2018-07-28T16:26:06Z</time>
      </trkpt>
      <trkpt lat="42.26356" lon="-8.77251">
        <ele>8.977</ele>
        <time>2018-07-28T16:26:07Z</time>
      </trkpt>
      <trkpt lat="42.26357" lon="-8.7726">
        <ele>8.995</ele>
        <time>2018-07-28T16:26:08Z</time>
      </trkpt>
      <trkpt lat="42.26358" lon="-8.77268">
        <ele>8.931</ele>
        <time>2018-07-28T16:26:09Z</time>
      </trkpt>
      <trkpt lat="42.26358" lon="-8.77277">
        <ele>9.059</ele>
        <time>2018-07-28T16:26:10Z</time>
      </trkpt>
      <trkpt lat="42.2636" lon="-8.77286">
        <ele>9.103</ele>
        <time>2018-07-28T16:26:11Z</time>
      </trkpt>
      <trkpt lat="42.26361" lon="-8.77295">
        <ele>9.423</ele>
        <time>2018-07-28T16:26:12Z</time>
      </trkpt>
      <trkpt lat="42.26363" lon="-8.77304">
        <ele>9.508</ele>
        <time>2018-07-28T16:26:13Z</time>
      </trkpt>
      <trkpt lat="42.26364" lon="-8.77313">
        <ele>9.527</ele>
        <time>2018-07-28T16:26:14Z</time>
      </trkpt>
      <trkpt lat="42.26366" lon="-8.77321">
        <ele>9.592</ele>
        <time>2018-07-28T16:26:15Z</time>
      </trkpt>
      <trkpt lat="42.26367" lon="-8.77329">
        <ele>9.595</ele>
        <time>2018-07-28T16:26:16Z</time>
      </trkpt>
      <trkpt lat="42.26368" lon="-8.77337">
        <ele>9.347</ele>
        <time>2018-07-28T16:26:17Z</time>
      </trkpt>
      <trkpt lat="42.26369" lon="-8.77345">
        <ele>9.012</ele>
        <time>2018-07-28T16:26:18Z</time>
      </trkpt>
      <trkpt lat="42.2637" lon="-8.77354">
        <ele>8.997</ele>
        <time>2018-07-28T16:26:19Z</time>
      </trkpt>
      <trkpt lat="42.26371" lon="-8.77364">
        <ele>8.925</ele>
        <time>2018-07-28T16:26:20Z</time>
      </trkpt>
      <trkpt lat="42.26372" lon="-8.77375">
        <ele>8.961</ele>
        <time>2018-07-28T16:26:21Z</time>
      </trkpt>
      <trkpt lat="42.26373" lon="-8.77386">
        <ele>9.135</ele>
        <time>2018-07-28T16:26:22Z</time>
      </trkpt>
      <trkpt lat="42.26374" lon="-8.77398">
        <ele>9.586</ele>
        <time>2018-07-28T16:26:23Z</time>
      </trkpt>
      <trkpt lat="42.26376" lon="-8.77409">
        <ele>9.714</ele>
        <time>2018-07-28T16:26:24Z</time>
      </trkpt>
      <trkpt lat="42.26378" lon="-8.77422">
        <ele>10.108</ele>
        <time>2018-07-28T16:26:25Z</time>
      </trkpt>
      <trkpt lat="42.26379" lon="-8.77435">
        <ele>10.195</ele>
        <time>2018-07-28T16:26:26Z</time>
      </trkpt>
      <trkpt lat="42.26381" lon="-8.77448">
        <ele>10.12</ele>
        <time>2018-07-28T16:26:27Z</time>
      </trkpt>
      <trkpt lat="42.26384" lon="-8.7746">
        <ele>10.223</ele>
        <time>2018-07-28T16:26:28Z</time>
      </trkpt>
      <trkpt lat="42.26386" lon="-8.77473">
        <ele>10.265</ele>
        <time>2018-07-28T16:26:29Z</time>
      </trkpt>
      <trkpt lat="42.26387" lon="-8.77484">
        <ele>10.29</ele>
        <time>2018-07-28T16:26:30Z</time>
      </trkpt>
      <trkpt lat="42.2639" lon="-8.77495">
        <ele>10.035</ele>
        <time>2018-07-28T16:26:31Z</time>
      </trkpt>
      <trkpt lat="42.26392" lon="-8.77507">
        <ele>9.893</ele>
        <time>2018-07-28T16:26:32Z</time>
      </trkpt>
      <trkpt lat="42.26396" lon="-8.77518">
        <ele>9.579</ele>
        <time>2018-07-28T16:26:33Z</time>
      </trkpt>
      <trkpt lat="42.264" lon="-8.77529">
        <ele>9.164</ele>
        <time>2018-07-28T16:26:34Z</time>
      </trkpt>
      <trkpt lat="42.26404" lon="-8.77539">
        <ele>8.706</ele>
        <time>2018-07-28T16:26:35Z</time>
      </trkpt>
      <trkpt lat="42.26408" lon="-8.77548">
        <ele>8.516</ele>
        <time>2018-07-28T16:26:36Z</time>
      </trkpt>
      <trkpt lat="42.26412" lon="-8.77558">
        <ele>8.208</ele>
        <time>2018-07-28T16:26:37Z</time>
      </trkpt>
      <trkpt lat="42.26416" lon="-8.77567">
        <ele>7.958</ele>
        <time>2018-07-28T16:26:38Z</time>
      </trkpt>
      <trkpt lat="42.26421" lon="-8.77577">
        <ele>7.663</ele>
        <time>2018-07-28T16:26:39Z</time>
      </trkpt>
      <trkpt lat="42.26427" lon="-8.77587">
        <ele>7.466</ele>
        <time>2018-07-28T16:26:40Z</time>
      </trkpt>
      <trkpt lat="42.26431" lon="-8.77597">
        <ele>7.498</ele>
        <time>2018-07-28T16:26:41Z</time>
      </trkpt>
      <trkpt lat="42.26436" lon="-8.77607">
        <ele>7.143</ele>
        <time>2018-07-28T16:26:42Z</time>
      </trkpt>
      <trkpt lat="42.2644" lon="-8.77616">
        <ele>7.168</ele>
        <time>2018-07-28T16:26:43Z</time>
      </trkpt>
      <trkpt lat="42.26442" lon="-8.77627">
        <ele>7.176</ele>
        <time>2018-07-28T16:26:44Z</time>
      </trkpt>
      <trkpt lat="42.26445" lon="-8.77638">
        <ele>6.982</ele>
        <time>2018-07-28T16:26:45Z</time>
      </trkpt>
      <trkpt lat="42.26448" lon="-8.77648">
        <ele>6.754</ele>
        <time>2018-07-28T16:26:46Z</time>
      </trkpt>
      <trkpt lat="42.26451" lon="-8.77658">
        <ele>6.656</ele>
        <time>2018-07-28T16:26:47Z</time>
      </trkpt>
      <trkpt lat="42.26454" lon="-8.77668">
        <ele>6.611</ele>
        <time>2018-07-28T16:26:48Z</time>
      </trkpt>
      <trkpt lat="42.26457" lon="-8.77679">
        <ele>6.608</ele>
        <time>2018-07-28T16:26:49Z</time>
      </trkpt>
      <trkpt lat="42.2646" lon="-8.77691">
        <ele>6.667</ele>
        <time>2018-07-28T16:26:50Z</time>
      </trkpt>
      <trkpt lat="42.26461" lon="-8.77704">
        <ele>6.892</ele>
        <time>2018-07-28T16:26:51Z</time>
      </trkpt>
      <trkpt lat="42.26461" lon="-8.77717">
        <ele>7.075</ele>
        <time>2018-07-28T16:26:52Z</time>
      </trkpt>
      <trkpt lat="42.2646" lon="-8.77729">
        <ele>7.077</ele>
        <time>2018-07-28T16:26:53Z</time>
      </trkpt>
      <trkpt lat="42.26458" lon="-8.7774">
        <ele>7.012</ele>
        <time>2018-07-28T16:26:54Z</time>
      </trkpt>
      <trkpt lat="42.26456" lon="-8.77751">
        <ele>7.017</ele>
        <time>2018-07-28T16:26:55Z</time>
      </trkpt>
      <trkpt lat="42.26454" lon="-8.77762">
        <ele>7.025</ele>
        <time>2018-07-28T16:26:56Z</time>
      </trkpt>
      <trkpt lat="42.26452" lon="-8.77772">
        <ele>6.911</ele>
        <time>2018-07-28T16:26:57Z</time>
      </trkpt>
      <trkpt lat="42.2645" lon="-8.77782">
        <ele>6.826</ele>
        <time>2018-07-28T16:26:58Z</time>
      </trkpt>
      <trkpt lat="42.26448" lon="-8.77791">
        <ele>6.847</ele>
        <time>2018-07-28T16:26:59Z</time>
      </trkpt>
      <trkpt lat="42.26446" lon="-8.778">
        <ele>6.611</ele>
        <time>2018-07-28T16:27:00Z</time>
      </trkpt>
      <trkpt lat="42.26444" lon="-8.7781">
        <ele>6.408</ele>
        <time>2018-07-28T16:27:01Z</time>
      </trkpt>
      <trkpt lat="42.26442" lon="-8.77819">
        <ele>6.484</ele>
        <time>2018-07-28T16:27:02Z</time>
      </trkpt>
      <trkpt lat="42.26442" lon="-8.77827">
        <ele>6.159</ele>
        <time>2018-07-28T16:27:03Z</time>
      </trkpt>
      <trkpt lat="42.26441" lon="-8.77833">
        <ele>5.892</ele>
        <time>2018-07-28T16:27:04Z</time>
      </trkpt>
      <trkpt lat="42.26439" lon="-8.77844">
        <ele>5.494</ele>
        <time>2018-07-28T16:27:06Z</time>
      </trkpt>
      <trkpt lat="42.26434" lon="-8.77855">
        <ele>5.189</ele>
        <time>2018-07-28T16:27:08Z</time>
      </trkpt>
      <trkpt lat="42.26433" lon="-8.77863">
        <ele>5.164</ele>
        <time>2018-07-28T16:27:09Z</time>
      </trkpt>
      <trkpt lat="42.26432" lon="-8.7787">
        <ele>5.212</ele>
        <time>2018-07-28T16:27:10Z</time>
      </trkpt>
      <trkpt lat="42.26431" lon="-8.77877">
        <ele>5.238</ele>
        <time>2018-07-28T16:27:11Z</time>
      </trkpt>
      <trkpt lat="42.2643" lon="-8.77883">
        <ele>5.377</ele>
        <time>2018-07-28T16:27:12Z</time>
      </trkpt>
      <trkpt lat="42.26429" lon="-8.7789">
        <ele>5.461</ele>
        <time>2018-07-28T16:27:13Z</time>
      </trkpt>
      <trkpt lat="42.26428" lon="-8.77896">
        <ele>5.627</ele>
        <time>2018-07-28T16:27:14Z</time>
      </trkpt>
      <trkpt lat="42.26428" lon="-8.77902">
        <ele>5.708</ele>
        <time>2018-07-28T16:27:15Z</time>
      </trkpt>
      <trkpt lat="42.26427" lon="-8.77909">
        <ele>5.799</ele>
        <time>2018-07-28T16:27:16Z</time>
      </trkpt>
      <trkpt lat="42.26425" lon="-8.77916">
        <ele>5.654</ele>
        <time>2018-07-28T16:27:17Z</time>
      </trkpt>
      <trkpt lat="42.26425" lon="-8.77926">
        <ele>5.257</ele>
        <time>2018-07-28T16:27:19Z</time>
      </trkpt>
      <trkpt lat="42.26425" lon="-8.77934">
        <ele>5.149</ele>
        <time>2018-07-28T16:27:21Z</time>
      </trkpt>
      <trkpt lat="42.26423" lon="-8.77941">
        <ele>5.384</ele>
        <time>2018-07-28T16:27:23Z</time>
      </trkpt>
      <trkpt lat="42.26423" lon="-8.77954">
        <ele>5.629</ele>
        <time>2018-07-28T16:27:25Z</time>
      </trkpt>
      <trkpt lat="42.26424" lon="-8.77962">
        <ele>5.767</ele>
        <time>2018-07-28T16:27:26Z</time>
      </trkpt>
      <trkpt lat="42.26424" lon="-8.7797">
        <ele>5.833</ele>
        <time>2018-07-28T16:27:27Z</time>
      </trkpt>
      <trkpt lat="42.26423" lon="-8.77981">
        <ele>5.924</ele>
        <time>2018-07-28T16:27:28Z</time>
      </trkpt>
      <trkpt lat="42.26422" lon="-8.77992">
        <ele>6.104</ele>
        <time>2018-07-28T16:27:29Z</time>
      </trkpt>
      <trkpt lat="42.26422" lon="-8.78003">
        <ele>6.314</ele>
        <time>2018-07-28T16:27:30Z</time>
      </trkpt>
      <trkpt lat="42.26419" lon="-8.78014">
        <ele>6.508</ele>
        <time>2018-07-28T16:27:31Z</time>
      </trkpt>
      <trkpt lat="42.26416" lon="-8.78025">
        <ele>6.624</ele>
        <time>2018-07-28T16:27:32Z</time>
      </trkpt>
      <trkpt lat="42.26412" lon="-8.78034">
        <ele>6.619</ele>
        <time>2018-07-28T16:27:33Z</time>
      </trkpt>
      <trkpt lat="42.26408" lon="-8.78044">
        <ele>6.512</ele>
        <time>2018-07-28T16:27:34Z</time>
      </trkpt>
      <trkpt lat="42.26405" lon="-8.78053">
        <ele>6.424</ele>
        <time>2018-07-28T16:27:35Z</time>
      </trkpt>
      <trkpt lat="42.26401" lon="-8.78063">
        <ele>6.339</ele>
        <time>2018-07-28T16:27:36Z</time>
      </trkpt>
      <trkpt lat="42.26397" lon="-8.78073">
        <ele>6.314</ele>
        <time>2018-07-28T16:27:37Z</time>
      </trkpt>
      <trkpt lat="42.26393" lon="-8.78084">
        <ele>6.322</ele>
        <time>2018-07-28T16:27:38Z</time>
      </trkpt>
      <trkpt lat="42.26389" lon="-8.78095">
        <ele>6.548</ele>
        <time>2018-07-28T16:27:39Z</time>
      </trkpt>
      <trkpt lat="42.26386" lon="-8.78105">
        <ele>6.695</ele>
        <time>2018-07-28T16:27:40Z</time>
      </trkpt>
      <trkpt lat="42.26384" lon="-8.78115">
        <ele>6.749</ele>
        <time>2018-07-28T16:27:41Z</time>
      </trkpt>
      <trkpt lat="42.26382" lon="-8.78124">
        <ele>6.723</ele>
        <time>2018-07-28T16:27:42Z</time>
      </trkpt>
      <trkpt lat="42.26382" lon="-8.78133">
        <ele>6.608</ele>
        <time>2018-07-28T16:27:43Z</time>
      </trkpt>
      <trkpt lat="42.26381" lon="-8.78142">
        <ele>6.491</ele>
        <time>2018-07-28T16:27:44Z</time>
      </trkpt>
      <trkpt lat="42.2638" lon="-8.78152">
        <ele>6.336</ele>
        <time>2018-07-28T16:27:45Z</time>
      </trkpt>
      <trkpt lat="42.2638" lon="-8.78163">
        <ele>6.329</ele>
        <time>2018-07-28T16:27:46Z</time>
      </trkpt>
      <trkpt lat="42.26378" lon="-8.78175">
        <ele>6.461</ele>
        <time>2018-07-28T16:27:47Z</time>
      </trkpt>
      <trkpt lat="42.26378" lon="-8.78186">
        <ele>6.646</ele>
        <time>2018-07-28T16:27:48Z</time>
      </trkpt>
      <trkpt lat="42.26377" lon="-8.78196">
        <ele>6.881</ele>
        <time>2018-07-28T16:27:49Z</time>
      </trkpt>
      <trkpt lat="42.26377" lon="-8.78204">
        <ele>6.819</ele>
        <time>2018-07-28T16:27:50Z</time>
      </trkpt>
      <trkpt lat="42.26376" lon="-8.78211">
        <ele>6.625</ele>
        <time>2018-07-28T16:27:51Z</time>
      </trkpt>
      <trkpt lat="42.26376" lon="-8.78218">
        <ele>6.338</ele>
        <time>2018-07-28T16:27:52Z</time>
      </trkpt>
      <trkpt lat="42.26375" lon="-8.78225">
        <ele>6.07</ele>
        <time>2018-07-28T16:27:53Z</time>
      </trkpt>
      <trkpt lat="42.26375" lon="-8.78232">
        <ele>5.817</ele>
        <time>2018-07-28T16:27:54Z</time>
      </trkpt>
      <trkpt lat="42.26375" lon="-8.78238">
        <ele>5.708</ele>
        <time>2018-07-28T16:27:55Z</time>
      </trkpt>
      <trkpt lat="42.26376" lon="-8.78244">
        <ele>5.665</ele>
        <time>2018-07-28T16:27:56Z</time>
      </trkpt>
      <trkpt lat="42.26375" lon="-8.78252">
        <ele>5.69</ele>
        <time>2018-07-28T16:27:57Z</time>
      </trkpt>
      <trkpt lat="42.26375" lon="-8.78259">
        <ele>5.783</ele>
        <time>2018-07-28T16:27:58Z</time>
      </trkpt>
      <trkpt lat="42.26374" lon="-8.78267">
        <ele>5.875</ele>
        <time>2018-07-28T16:27:59Z</time>
      </trkpt>
      <trkpt lat="42.26374" lon="-8.78275">
        <ele>5.96</ele>
        <time>2018-07-28T16:28:00Z</time>
      </trkpt>
      <trkpt lat="42.26373" lon="-8.78283">
        <ele>6.015</ele>
        <time>2018-07-28T16:28:01Z</time>
      </trkpt>
      <trkpt lat="42.26372" lon="-8.78291">
        <ele>6.193</ele>
        <time>2018-07-28T16:28:02Z</time>
      </trkpt>
      <trkpt lat="42.26371" lon="-8.78299">
        <ele>6.239</ele>
        <time>2018-07-28T16:28:03Z</time>
      </trkpt>
      <trkpt lat="42.2637" lon="-8.78308">
        <ele>6.369</ele>
        <time>2018-07-28T16:28:04Z</time>
      </trkpt>
      <trkpt lat="42.26368" lon="-8.78317">
        <ele>6.604</ele>
        <time>2018-07-28T16:28:05Z</time>
      </trkpt>
      <trkpt lat="42.26366" lon="-8.78327">
        <ele>6.724</ele>
        <time>2018-07-28T16:28:06Z</time>
      </trkpt>
      <trkpt lat="42.26364" lon="-8.78338">
        <ele>7.108</ele>
        <time>2018-07-28T16:28:07Z</time>
      </trkpt>
      <trkpt lat="42.2636" lon="-8.78348">
        <ele>7.118</ele>
        <time>2018-07-28T16:28:08Z</time>
      </trkpt>
      <trkpt lat="42.26353" lon="-8.78359">
        <ele>7.213</ele>
        <time>2018-07-28T16:28:09Z</time>
      </trkpt>
      <trkpt lat="42.26344" lon="-8.7837">
        <ele>7.256</ele>
        <time>2018-07-28T16:28:10Z</time>
      </trkpt>
      <trkpt lat="42.26335" lon="-8.7838">
        <ele>7.358</ele>
        <time>2018-07-28T16:28:11Z</time>
      </trkpt>
      <trkpt lat="42.26328" lon="-8.78389">
        <ele>7.493</ele>
        <time>2018-07-28T16:28:12Z</time>
      </trkpt>
      <trkpt lat="42.26321" lon="-8.78398">
        <ele>7.438</ele>
        <time>2018-07-28T16:28:13Z</time>
      </trkpt>
      <trkpt lat="42.26314" lon="-8.78406">
        <ele>7.446</ele>
        <time>2018-07-28T16:28:14Z</time>
      </trkpt>
      <trkpt lat="42.26307" lon="-8.78414">
        <ele>7.272</ele>
        <time>2018-07-28T16:28:15Z</time>
      </trkpt>
      <trkpt lat="42.263" lon="-8.78422">
        <ele>6.997</ele>
        <time>2018-07-28T16:28:16Z</time>
      </trkpt>
      <trkpt lat="42.26294" lon="-8.7843">
        <ele>6.923</ele>
        <time>2018-07-28T16:28:17Z</time>
      </trkpt>
      <trkpt lat="42.26287" lon="-8.78438">
        <ele>7.025</ele>
        <time>2018-07-28T16:28:18Z</time>
      </trkpt>
      <trkpt lat="42.2628" lon="-8.78447">
        <ele>7.108</ele>
        <time>2018-07-28T16:28:19Z</time>
      </trkpt>
      <trkpt lat="42.26273" lon="-8.78455">
        <ele>7.261</ele>
        <time>2018-07-28T16:28:20Z</time>
      </trkpt>
      <trkpt lat="42.26266" lon="-8.78464">
        <ele>7.216</ele>
        <time>2018-07-28T16:28:21Z</time>
      </trkpt>
      <trkpt lat="42.26259" lon="-8.78473">
        <ele>7.049</ele>
        <time>2018-07-28T16:28:22Z</time>
      </trkpt>
      <trkpt lat="42.26252" lon="-8.78481">
        <ele>6.951</ele>
        <time>2018-07-28T16:28:23Z</time>
      </trkpt>
      <trkpt lat="42.26245" lon="-8.7849">
        <ele>6.946</ele>
        <time>2018-07-28T16:28:24Z</time>
      </trkpt>
      <trkpt lat="42.26238" lon="-8.78497">
        <ele>6.911</ele>
        <time>2018-07-28T16:28:25Z</time>
      </trkpt>
      <trkpt lat="42.26231" lon="-8.78504">
        <ele>7.079</ele>
        <time>2018-07-28T16:28:26Z</time>
      </trkpt>
      <trkpt lat="42.26223" lon="-8.7851">
        <ele>7.035</ele>
        <time>2018-07-28T16:28:27Z</time>
      </trkpt>
      <trkpt lat="42.26215" lon="-8.78516">
        <ele>7.098</ele>
        <time>2018-07-28T16:28:28Z</time>
      </trkpt>
      <trkpt lat="42.26207" lon="-8.78521">
        <ele>6.915</ele>
        <time>2018-07-28T16:28:29Z</time>
      </trkpt>
      <trkpt lat="42.26198" lon="-8.78525">
        <ele>6.826</ele>
        <time>2018-07-28T16:28:30Z</time>
      </trkpt>
      <trkpt lat="42.26189" lon="-8.78527">
        <ele>6.708</ele>
        <time>2018-07-28T16:28:31Z</time>
      </trkpt>
      <trkpt lat="42.2618" lon="-8.7853">
        <ele>6.731</ele>
        <time>2018-07-28T16:28:32Z</time>
      </trkpt>
      <trkpt lat="42.26171" lon="-8.78532">
        <ele>6.746</ele>
        <time>2018-07-28T16:28:33Z</time>
      </trkpt>
      <trkpt lat="42.26162" lon="-8.78534">
        <ele>6.749</ele>
        <time>2018-07-28T16:28:34Z</time>
      </trkpt>
      <trkpt lat="42.26153" lon="-8.78537">
        <ele>6.821</ele>
        <time>2018-07-28T16:28:35Z</time>
      </trkpt>
      <trkpt lat="42.26145" lon="-8.78538">
        <ele>6.896</ele>
        <time>2018-07-28T16:28:36Z</time>
      </trkpt>
      <trkpt lat="42.26138" lon="-8.78539">
        <ele>6.861</ele>
        <time>2018-07-28T16:28:37Z</time>
      </trkpt>
      <trkpt lat="42.26132" lon="-8.7854">
        <ele>6.769</ele>
        <time>2018-07-28T16:28:38Z</time>
      </trkpt>
      <trkpt lat="42.26126" lon="-8.78541">
        <ele>6.695</ele>
        <time>2018-07-28T16:28:39Z</time>
      </trkpt>
      <trkpt lat="42.26119" lon="-8.78542">
        <ele>6.457</ele>
        <time>2018-07-28T16:28:40Z</time>
      </trkpt>
      <trkpt lat="42.26113" lon="-8.78543">
        <ele>6.1</ele>
        <time>2018-07-28T16:28:41Z</time>
      </trkpt>
      <trkpt lat="42.26106" lon="-8.78544">
        <ele>6.12</ele>
        <time>2018-07-28T16:28:42Z</time>
      </trkpt>
      <trkpt lat="42.261" lon="-8.78544">
        <ele>6.108</ele>
        <time>2018-07-28T16:28:43Z</time>
      </trkpt>
      <trkpt lat="42.26094" lon="-8.78545">
        <ele>6.177</ele>
        <time>2018-07-28T16:28:44Z</time>
      </trkpt>
      <trkpt lat="42.26089" lon="-8.78546">
        <ele>6.062</ele>
        <time>2018-07-28T16:28:45Z</time>
      </trkpt>
      <trkpt lat="42.26084" lon="-8.78547">
        <ele>5.835</ele>
        <time>2018-07-28T16:28:46Z</time>
      </trkpt>
      <trkpt lat="42.26078" lon="-8.78547">
        <ele>5.647</ele>
        <time>2018-07-28T16:28:47Z</time>
      </trkpt>
      <trkpt lat="42.26073" lon="-8.78548">
        <ele>5.692</ele>
        <time>2018-07-28T16:28:48Z</time>
      </trkpt>
      <trkpt lat="42.26067" lon="-8.78548">
        <ele>5.637</ele>
        <time>2018-07-28T16:28:49Z</time>
      </trkpt>
      <trkpt lat="42.2606" lon="-8.78548">
        <ele>5.795</ele>
        <time>2018-07-28T16:28:50Z</time>
      </trkpt>
      <trkpt lat="42.26052" lon="-8.78549">
        <ele>5.941</ele>
        <time>2018-07-28T16:28:51Z</time>
      </trkpt>
      <trkpt lat="42.26044" lon="-8.78551">
        <ele>6.212</ele>
        <time>2018-07-28T16:28:52Z</time>
      </trkpt>
      <trkpt lat="42.26034" lon="-8.78554">
        <ele>6.432</ele>
        <time>2018-07-28T16:28:53Z</time>
      </trkpt>
      <trkpt lat="42.26025" lon="-8.78557">
        <ele>6.605</ele>
        <time>2018-07-28T16:28:54Z</time>
      </trkpt>
      <trkpt lat="42.26017" lon="-8.7856">
        <ele>6.708</ele>
        <time>2018-07-28T16:28:55Z</time>
      </trkpt>
      <trkpt lat="42.2601" lon="-8.78562">
        <ele>6.773</ele>
        <time>2018-07-28T16:28:56Z</time>
      </trkpt>
      <trkpt lat="42.26002" lon="-8.78564">
        <ele>6.568</ele>
        <time>2018-07-28T16:28:57Z</time>
      </trkpt>
      <trkpt lat="42.25994" lon="-8.78567">
        <ele>6.391</ele>
        <time>2018-07-28T16:28:58Z</time>
      </trkpt>
      <trkpt lat="42.25987" lon="-8.78569">
        <ele>6.213</ele>
        <time>2018-07-28T16:28:59Z</time>
      </trkpt>
      <trkpt lat="42.25979" lon="-8.78573">
        <ele>6.288</ele>
        <time>2018-07-28T16:29:00Z</time>
      </trkpt>
      <trkpt lat="42.25972" lon="-8.78576">
        <ele>6.113</ele>
        <time>2018-07-28T16:29:01Z</time>
      </trkpt>
      <trkpt lat="42.25964" lon="-8.7858">
        <ele>6.161</ele>
        <time>2018-07-28T16:29:02Z</time>
      </trkpt>
      <trkpt lat="42.25958" lon="-8.78582">
        <ele>6.127</ele>
        <time>2018-07-28T16:29:03Z</time>
      </trkpt>
      <trkpt lat="42.25952" lon="-8.78585">
        <ele>6.015</ele>
        <time>2018-07-28T16:29:04Z</time>
      </trkpt>
      <trkpt lat="42.25947" lon="-8.78588">
        <ele>5.965</ele>
        <time>2018-07-28T16:29:05Z</time>
      </trkpt>
      <trkpt lat="42.25943" lon="-8.7859">
        <ele>5.811</ele>
        <time>2018-07-28T16:29:06Z</time>
      </trkpt>
      <trkpt lat="42.25939" lon="-8.78593">
        <ele>5.708</ele>
        <time>2018-07-28T16:29:07Z</time>
      </trkpt>
      <trkpt lat="42.25935" lon="-8.78597">
        <ele>5.663</ele>
        <time>2018-07-28T16:29:08Z</time>
      </trkpt>
      <trkpt lat="42.25928" lon="-8.78603">
        <ele>5.648</ele>
        <time>2018-07-28T16:29:10Z</time>
      </trkpt>
      <trkpt lat="42.25919" lon="-8.78609">
        <ele>5.971</ele>
        <time>2018-07-28T16:29:12Z</time>
      </trkpt>
      <trkpt lat="42.25913" lon="-8.78613">
        <ele>6.113</ele>
        <time>2018-07-28T16:29:13Z</time>
      </trkpt>
      <trkpt lat="42.25907" lon="-8.78618">
        <ele>6.478</ele>
        <time>2018-07-28T16:29:14Z</time>
      </trkpt>
      <trkpt lat="42.25901" lon="-8.78624">
        <ele>7.323</ele>
        <time>2018-07-28T16:29:15Z</time>
      </trkpt>
      <trkpt lat="42.25894" lon="-8.7863">
        <ele>7.941</ele>
        <time>2018-07-28T16:29:16Z</time>
      </trkpt>
      <trkpt lat="42.25886" lon="-8.78636">
        <ele>8.577</ele>
        <time>2018-07-28T16:29:17Z</time>
      </trkpt>
      <trkpt lat="42.25879" lon="-8.78642">
        <ele>9.066</ele>
        <time>2018-07-28T16:29:18Z</time>
      </trkpt>
      <trkpt lat="42.2587" lon="-8.78648">
        <ele>9.529</ele>
        <time>2018-07-28T16:29:19Z</time>
      </trkpt>
      <trkpt lat="42.25862" lon="-8.78655">
        <ele>10.021</ele>
        <time>2018-07-28T16:29:20Z</time>
      </trkpt>
      <trkpt lat="42.25853" lon="-8.78662">
        <ele>10.408</ele>
        <time>2018-07-28T16:29:21Z</time>
      </trkpt>
      <trkpt lat="42.25844" lon="-8.78669">
        <ele>11.258</ele>
        <time>2018-07-28T16:29:22Z</time>
      </trkpt>
      <trkpt lat="42.25835" lon="-8.78677">
        <ele>12.123</ele>
        <time>2018-07-28T16:29:23Z</time>
      </trkpt>
      <trkpt lat="42.25826" lon="-8.78685">
        <ele>12.956</ele>
        <time>2018-07-28T16:29:24Z</time>
      </trkpt>
      <trkpt lat="42.2582" lon="-8.78692">
        <ele>13.618</ele>
        <time>2018-07-28T16:29:25Z</time>
      </trkpt>
      <trkpt lat="42.25813" lon="-8.78699">
        <ele>14.243</ele>
        <time>2018-07-28T16:29:26Z</time>
      </trkpt>
      <trkpt lat="42.25809" lon="-8.78706">
        <ele>14.788</ele>
        <time>2018-07-28T16:29:27Z</time>
      </trkpt>
      <trkpt lat="42.25805" lon="-8.78714">
        <ele>15.486</ele>
        <time>2018-07-28T16:29:28Z</time>
      </trkpt>
      <trkpt lat="42.25802" lon="-8.78726">
        <ele>16.232</ele>
        <time>2018-07-28T16:29:29Z</time>
      </trkpt>
      <trkpt lat="42.25803" lon="-8.78737">
        <ele>17.045</ele>
        <time>2018-07-28T16:29:30Z</time>
      </trkpt>
      <trkpt lat="42.25801" lon="-8.78748">
        <ele>17.747</ele>
        <time>2018-07-28T16:29:31Z</time>
      </trkpt>
      <trkpt lat="42.25797" lon="-8.78754">
        <ele>18.711</ele>
        <time>2018-07-28T16:29:32Z</time>
      </trkpt>
      <trkpt lat="42.25791" lon="-8.78759">
        <ele>19.108</ele>
        <time>2018-07-28T16:29:33Z</time>
      </trkpt>
      <trkpt lat="42.25783" lon="-8.78764">
        <ele>19.916</ele>
        <time>2018-07-28T16:29:34Z</time>
      </trkpt>
      <trkpt lat="42.25775" lon="-8.7877">
        <ele>20.951</ele>
        <time>2018-07-28T16:29:35Z</time>
      </trkpt>
      <trkpt lat="42.25767" lon="-8.78777">
        <ele>21.574</ele>
        <time>2018-07-28T16:29:36Z</time>
      </trkpt>
      <trkpt lat="42.25759" lon="-8.78785">
        <ele>21.826</ele>
        <time>2018-07-28T16:29:37Z</time>
      </trkpt>
      <trkpt lat="42.25752" lon="-8.78794">
        <ele>21.921</ele>
        <time>2018-07-28T16:29:38Z</time>
      </trkpt>
      <trkpt lat="42.25744" lon="-8.78803">
        <ele>21.996</ele>
        <time>2018-07-28T16:29:39Z</time>
      </trkpt>
      <trkpt lat="42.25737" lon="-8.78812">
        <ele>21.744</ele>
        <time>2018-07-28T16:29:40Z</time>
      </trkpt>
      <trkpt lat="42.25729" lon="-8.7882">
        <ele>21.72</ele>
        <time>2018-07-28T16:29:41Z</time>
      </trkpt>
      <trkpt lat="42.25722" lon="-8.78828">
        <ele>22.028</ele>
        <time>2018-07-28T16:29:42Z</time>
      </trkpt>
      <trkpt lat="42.25715" lon="-8.78839">
        <ele>22.389</ele>
        <time>2018-07-28T16:29:43Z</time>
      </trkpt>
      <trkpt lat="42.25708" lon="-8.78849">
        <ele>22.717</ele>
        <time>2018-07-28T16:29:44Z</time>
      </trkpt>
      <trkpt lat="42.25699" lon="-8.78859">
        <ele>23.508</ele>
        <time>2018-07-28T16:29:45Z</time>
      </trkpt>
      <trkpt lat="42.25691" lon="-8.78871">
        <ele>24.014</ele>
        <time>2018-07-28T16:29:46Z</time>
      </trkpt>
      <trkpt lat="42.25682" lon="-8.78883">
        <ele>24.779</ele>
        <time>2018-07-28T16:29:47Z</time>
      </trkpt>
      <trkpt lat="42.25673" lon="-8.78894">
        <ele>25.952</ele>
        <time>2018-07-28T16:29:48Z</time>
      </trkpt>
      <trkpt lat="42.25665" lon="-8.78905">
        <ele>26.234</ele>
        <time>2018-07-28T16:29:49Z</time>
      </trkpt>
      <trkpt lat="42.25657" lon="-8.78916">
        <ele>26.829</ele>
        <time>2018-07-28T16:29:50Z</time>
      </trkpt>
      <trkpt lat="42.25649" lon="-8.78928">
        <ele>27.334</ele>
        <time>2018-07-28T16:29:51Z</time>
      </trkpt>
      <trkpt lat="42.25641" lon="-8.7894">
        <ele>27.722</ele>
        <time>2018-07-28T16:29:52Z</time>
      </trkpt>
      <trkpt lat="42.25633" lon="-8.78952">
        <ele>28.298</ele>
        <time>2018-07-28T16:29:53Z</time>
      </trkpt>
      <trkpt lat="42.25624" lon="-8.78964">
        <ele>28.976</ele>
        <time>2018-07-28T16:29:54Z</time>
      </trkpt>
      <trkpt lat="42.25615" lon="-8.78977">
        <ele>29.79</ele>
        <time>2018-07-28T16:29:55Z</time>
      </trkpt>
      <trkpt lat="42.25606" lon="-8.7899">
        <ele>30.419</ele>
        <time>2018-07-28T16:29:56Z</time>
      </trkpt>
      <trkpt lat="42.25597" lon="-8.79003">
        <ele>30.908</ele>
        <time>2018-07-28T16:29:57Z</time>
      </trkpt>
      <trkpt lat="42.25588" lon="-8.79017">
        <ele>31.629</ele>
        <time>2018-07-28T16:29:58Z</time>
      </trkpt>
      <trkpt lat="42.25579" lon="-8.79032">
        <ele>32.474</ele>
        <time>2018-07-28T16:29:59Z</time>
      </trkpt>
      <trkpt lat="42.25569" lon="-8.79048">
        <ele>33.127</ele>
        <time>2018-07-28T16:30:00Z</time>
      </trkpt>
      <trkpt lat="42.25558" lon="-8.79065">
        <ele>34.169</ele>
        <time>2018-07-28T16:30:01Z</time>
      </trkpt>
      <trkpt lat="42.25548" lon="-8.79082">
        <ele>35.534</ele>
        <time>2018-07-28T16:30:02Z</time>
      </trkpt>
      <trkpt lat="42.25539" lon="-8.79097">
        <ele>36.739</ele>
        <time>2018-07-28T16:30:03Z</time>
      </trkpt>
      <trkpt lat="42.2553" lon="-8.79112">
        <ele>37.627</ele>
        <time>2018-07-28T16:30:04Z</time>
      </trkpt>
      <trkpt lat="42.25523" lon="-8.79126">
        <ele>38.523</ele>
        <time>2018-07-28T16:30:05Z</time>
      </trkpt>
      <trkpt lat="42.25515" lon="-8.7914">
        <ele>38.521</ele>
        <time>2018-07-28T16:30:06Z</time>
      </trkpt>
      <trkpt lat="42.25509" lon="-8.79153">
        <ele>38.541</ele>
        <time>2018-07-28T16:30:07Z</time>
      </trkpt>
      <trkpt lat="42.25502" lon="-8.79165">
        <ele>38.605</ele>
        <time>2018-07-28T16:30:08Z</time>
      </trkpt>
      <trkpt lat="42.25497" lon="-8.79175">
        <ele>38.708</ele>
        <time>2018-07-28T16:30:09Z</time>
      </trkpt>
      <trkpt lat="42.25492" lon="-8.79185">
        <ele>39.174</ele>
        <time>2018-07-28T16:30:10Z</time>
      </trkpt>
      <trkpt lat="42.25487" lon="-8.79194">
        <ele>39.879</ele>
        <time>2018-07-28T16:30:11Z</time>
      </trkpt>
      <trkpt lat="42.25482" lon="-8.79204">
        <ele>39.812</ele>
        <time>2018-07-28T16:30:12Z</time>
      </trkpt>
      <trkpt lat="42.25477" lon="-8.79215">
        <ele>39.884</ele>
        <time>2018-07-28T16:30:13Z</time>
      </trkpt>
      <trkpt lat="42.25471" lon="-8.79227">
        <ele>39.869</ele>
        <time>2018-07-28T16:30:14Z</time>
      </trkpt>
      <trkpt lat="42.25466" lon="-8.79237">
        <ele>39.824</ele>
        <time>2018-07-28T16:30:15Z</time>
      </trkpt>
      <trkpt lat="42.25461" lon="-8.79247">
        <ele>39.872</ele>
        <time>2018-07-28T16:30:16Z</time>
      </trkpt>
      <trkpt lat="42.25458" lon="-8.79254">
        <ele>39.858</ele>
        <time>2018-07-28T16:30:17Z</time>
      </trkpt>
      <trkpt lat="42.25455" lon="-8.7926">
        <ele>40.268</ele>
        <time>2018-07-28T16:30:18Z</time>
      </trkpt>
      <trkpt lat="42.25452" lon="-8.79266">
        <ele>40.542</ele>
        <time>2018-07-28T16:30:19Z</time>
      </trkpt>
      <trkpt lat="42.25449" lon="-8.79273">
        <ele>40.526</ele>
        <time>2018-07-28T16:30:20Z</time>
      </trkpt>
      <trkpt lat="42.25446" lon="-8.79279">
        <ele>40.608</ele>
        <time>2018-07-28T16:30:21Z</time>
      </trkpt>
      <trkpt lat="42.25442" lon="-8.79287">
        <ele>40.958</ele>
        <time>2018-07-28T16:30:22Z</time>
      </trkpt>
      <trkpt lat="42.25438" lon="-8.79297">
        <ele>41.293</ele>
        <time>2018-07-28T16:30:23Z</time>
      </trkpt>
      <trkpt lat="42.25433" lon="-8.79307">
        <ele>41.536</ele>
        <time>2018-07-28T16:30:24Z</time>
      </trkpt>
      <trkpt lat="42.25427" lon="-8.79318">
        <ele>41.988</ele>
        <time>2018-07-28T16:30:25Z</time>
      </trkpt>
      <trkpt lat="42.25422" lon="-8.79329">
        <ele>42.493</ele>
        <time>2018-07-28T16:30:26Z</time>
      </trkpt>
      <trkpt lat="42.25419" lon="-8.79337">
        <ele>42.788</ele>
        <time>2018-07-28T16:30:27Z</time>
      </trkpt>
      <trkpt lat="42.25416" lon="-8.79343">
        <ele>42.916</ele>
        <time>2018-07-28T16:30:28Z</time>
      </trkpt>
      <trkpt lat="42.25414" lon="-8.79349">
        <ele>43.182</ele>
        <time>2018-07-28T16:30:29Z</time>
      </trkpt>
      <trkpt lat="42.25412" lon="-8.79354">
        <ele>43.153</ele>
        <time>2018-07-28T16:30:30Z</time>
      </trkpt>
      <trkpt lat="42.2541" lon="-8.7936">
        <ele>43.104</ele>
        <time>2018-07-28T16:30:31Z</time>
      </trkpt>
      <trkpt lat="42.25408" lon="-8.79366">
        <ele>43.114</ele>
        <time>2018-07-28T16:30:32Z</time>
      </trkpt>
      <trkpt lat="42.25406" lon="-8.79373">
        <ele>43.208</ele>
        <time>2018-07-28T16:30:33Z</time>
      </trkpt>
      <trkpt lat="42.25404" lon="-8.79381">
        <ele>43.447</ele>
        <time>2018-07-28T16:30:34Z</time>
      </trkpt>
      <trkpt lat="42.25403" lon="-8.7939">
        <ele>43.752</ele>
        <time>2018-07-28T16:30:35Z</time>
      </trkpt>
      <trkpt lat="42.25402" lon="-8.79402">
        <ele>44.275</ele>
        <time>2018-07-28T16:30:36Z</time>
      </trkpt>
      <trkpt lat="42.25403" lon="-8.79415">
        <ele>44.967</ele>
        <time>2018-07-28T16:30:37Z</time>
      </trkpt>
      <trkpt lat="42.25403" lon="-8.79428">
        <ele>46.082</ele>
        <time>2018-07-28T16:30:38Z</time>
      </trkpt>
      <trkpt lat="42.25405" lon="-8.79442">
        <ele>46.417</ele>
        <time>2018-07-28T16:30:39Z</time>
      </trkpt>
      <trkpt lat="42.25407" lon="-8.79456">
        <ele>46.795</ele>
        <time>2018-07-28T16:30:40Z</time>
      </trkpt>
      <trkpt lat="42.2541" lon="-8.7947">
        <ele>46.881</ele>
        <time>2018-07-28T16:30:41Z</time>
      </trkpt>
      <trkpt lat="42.25412" lon="-8.79483">
        <ele>47.032</ele>
        <time>2018-07-28T16:30:42Z</time>
      </trkpt>
      <trkpt lat="42.25415" lon="-8.79495">
        <ele>47.092</ele>
        <time>2018-07-28T16:30:43Z</time>
      </trkpt>
      <trkpt lat="42.25417" lon="-8.79505">
        <ele>46.911</ele>
        <time>2018-07-28T16:30:44Z</time>
      </trkpt>
      <trkpt lat="42.25419" lon="-8.79516">
        <ele>46.608</ele>
        <time>2018-07-28T16:30:45Z</time>
      </trkpt>
      <trkpt lat="42.25421" lon="-8.79526">
        <ele>46.285</ele>
        <time>2018-07-28T16:30:46Z</time>
      </trkpt>
      <trkpt lat="42.25422" lon="-8.79535">
        <ele>45.65</ele>
        <time>2018-07-28T16:30:47Z</time>
      </trkpt>
      <trkpt lat="42.25424" lon="-8.79542">
        <ele>45.283</ele>
        <time>2018-07-28T16:30:48Z</time>
      </trkpt>
      <trkpt lat="42.25426" lon="-8.79548">
        <ele>44.825</ele>
        <time>2018-07-28T16:30:49Z</time>
      </trkpt>
      <trkpt lat="42.25428" lon="-8.79559">
        <ele>44.17</ele>
        <time>2018-07-28T16:30:51Z</time>
      </trkpt>
      <trkpt lat="42.2543" lon="-8.79566">
        <ele>43.535</ele>
        <time>2018-07-28T16:30:53Z</time>
      </trkpt>
      <trkpt lat="42.25431" lon="-8.79573">
        <ele>42.643</ele>
        <time>2018-07-28T16:30:56Z</time>
      </trkpt>
      <trkpt lat="42.25427" lon="-8.79569">
        <ele>42.039</ele>
        <time>2018-07-28T16:30:59Z</time>
      </trkpt>
      <trkpt lat="42.25425" lon="-8.79562">
        <ele>41.981</ele>
        <time>2018-07-28T16:31:00Z</time>
      </trkpt>
      <trkpt lat="42.25424" lon="-8.79552">
        <ele>41.961</ele>
        <time>2018-07-28T16:31:01Z</time>
      </trkpt>
      <trkpt lat="42.25422" lon="-8.79543">
        <ele>42.017</ele>
        <time>2018-07-28T16:31:02Z</time>
      </trkpt>
      <trkpt lat="42.2542" lon="-8.79533">
        <ele>42.208</ele>
        <time>2018-07-28T16:31:03Z</time>
      </trkpt>
      <trkpt lat="42.25418" lon="-8.79521">
        <ele>42.52</ele>
        <time>2018-07-28T16:31:04Z</time>
      </trkpt>
      <trkpt lat="42.25416" lon="-8.79509">
        <ele>42.855</ele>
        <time>2018-07-28T16:31:05Z</time>
      </trkpt>
      <trkpt lat="42.25413" lon="-8.79496">
        <ele>43.238</ele>
        <time>2018-07-28T16:31:06Z</time>
      </trkpt>
      <trkpt lat="42.2541" lon="-8.79482">
        <ele>43.71</ele>
        <time>2018-07-28T16:31:07Z</time>
      </trkpt>
      <trkpt lat="42.25408" lon="-8.79469">
        <ele>44.395</ele>
        <time>2018-07-28T16:31:08Z</time>
      </trkpt>
      <trkpt lat="42.25405" lon="-8.79456">
        <ele>44.81</ele>
        <time>2018-07-28T16:31:09Z</time>
      </trkpt>
      <trkpt lat="42.25402" lon="-8.79444">
        <ele>45.188</ele>
        <time>2018-07-28T16:31:10Z</time>
      </trkpt>
      <trkpt lat="42.254" lon="-8.79432">
        <ele>45.254</ele>
        <time>2018-07-28T16:31:11Z</time>
      </trkpt>
      <trkpt lat="42.25398" lon="-8.79419">
        <ele>45.255</ele>
        <time>2018-07-28T16:31:12Z</time>
      </trkpt>
      <trkpt lat="42.25397" lon="-8.79405">
        <ele>45.207</ele>
        <time>2018-07-28T16:31:13Z</time>
      </trkpt>
      <trkpt lat="42.25397" lon="-8.79392">
        <ele>45.217</ele>
        <time>2018-07-28T16:31:14Z</time>
      </trkpt>
      <trkpt lat="42.25398" lon="-8.79378">
        <ele>45.308</ele>
        <time>2018-07-28T16:31:15Z</time>
      </trkpt>
      <trkpt lat="42.25401" lon="-8.79365">
        <ele>45.587</ele>
        <time>2018-07-28T16:31:16Z</time>
      </trkpt>
      <trkpt lat="42.25405" lon="-8.79353">
        <ele>45.562</ele>
        <time>2018-07-28T16:31:17Z</time>
      </trkpt>
      <trkpt lat="42.2541" lon="-8.7934">
        <ele>45.695</ele>
        <time>2018-07-28T16:31:18Z</time>
      </trkpt>
      <trkpt lat="42.25415" lon="-8.79327">
        <ele>45.667</ele>
        <time>2018-07-28T16:31:19Z</time>
      </trkpt>
      <trkpt lat="42.25421" lon="-8.79315">
        <ele>45.682</ele>
        <time>2018-07-28T16:31:20Z</time>
      </trkpt>
      <trkpt lat="42.25428" lon="-8.79303">
        <ele>45.567</ele>
        <time>2018-07-28T16:31:21Z</time>
      </trkpt>
      <trkpt lat="42.25435" lon="-8.79291">
        <ele>45.445</ele>
        <time>2018-07-28T16:31:22Z</time>
      </trkpt>
      <trkpt lat="42.25441" lon="-8.79279">
        <ele>45.221</ele>
        <time>2018-07-28T16:31:23Z</time>
      </trkpt>
      <trkpt lat="42.25447" lon="-8.79266">
        <ele>44.759</ele>
        <time>2018-07-28T16:31:24Z</time>
      </trkpt>
      <trkpt lat="42.25452" lon="-8.79254">
        <ele>44.103</ele>
        <time>2018-07-28T16:31:25Z</time>
      </trkpt>
      <trkpt lat="42.25457" lon="-8.79244">
        <ele>43.323</ele>
        <time>2018-07-28T16:31:26Z</time>
      </trkpt>
      <trkpt lat="42.25462" lon="-8.79235">
        <ele>42.608</ele>
        <time>2018-07-28T16:31:27Z</time>
      </trkpt>
      <trkpt lat="42.25466" lon="-8.79226">
        <ele>41.717</ele>
        <time>2018-07-28T16:31:28Z</time>
      </trkpt>
      <trkpt lat="42.25469" lon="-8.79219">
        <ele>40.272</ele>
        <time>2018-07-28T16:31:29Z</time>
      </trkpt>
      <trkpt lat="42.25472" lon="-8.79213">
        <ele>39.795</ele>
        <time>2018-07-28T16:31:30Z</time>
      </trkpt>
      <trkpt lat="42.25478" lon="-8.79205">
        <ele>38.617</ele>
        <time>2018-07-28T16:31:32Z</time>
      </trkpt>
      <trkpt lat="42.25484" lon="-8.79197">
        <ele>37.712</ele>
        <time>2018-07-28T16:31:34Z</time>
      </trkpt>
      <trkpt lat="42.25487" lon="-8.79189">
        <ele>37.037</ele>
        <time>2018-07-28T16:31:36Z</time>
      </trkpt>
      <trkpt lat="42.25483" lon="-8.79186">
        <ele>36.625</ele>
        <time>2018-07-28T16:31:39Z</time>
      </trkpt>
      <trkpt lat="42.25478" lon="-8.79188">
        <ele>36.661</ele>
        <time>2018-07-28T16:31:40Z</time>
      </trkpt>
      <trkpt lat="42.25471" lon="-8.7919">
        <ele>36.768</ele>
        <time>2018-07-28T16:31:41Z</time>
      </trkpt>
      <trkpt lat="42.25465" lon="-8.79193">
        <ele>36.942</ele>
        <time>2018-07-28T16:31:42Z</time>
      </trkpt>
      <trkpt lat="42.2546" lon="-8.79194">
        <ele>37.126</ele>
        <time>2018-07-28T16:31:43Z</time>
      </trkpt>
      <trkpt lat="42.25452" lon="-8.79196">
        <ele>37.208</ele>
        <time>2018-07-28T16:31:45Z</time>
      </trkpt>
      <trkpt lat="42.25446" lon="-8.79198">
        <ele>37.038</ele>
        <time>2018-07-28T16:31:47Z</time>
      </trkpt>
      <trkpt lat="42.25441" lon="-8.79205">
        <ele>37.183</ele>
        <time>2018-07-28T16:31:49Z</time>
      </trkpt>
      <trkpt lat="42.25434" lon="-8.79213">
        <ele>37.436</ele>
        <time>2018-07-28T16:31:51Z</time>
      </trkpt>
      <trkpt lat="42.25428" lon="-8.7922">
        <ele>37.518</ele>
        <time>2018-07-28T16:31:53Z</time>
      </trkpt>
      <trkpt lat="42.25424" lon="-8.79229">
        <ele>37.213</ele>
        <time>2018-07-28T16:31:55Z</time>
      </trkpt>
      <trkpt lat="42.25417" lon="-8.7923">
        <ele>36.858</ele>
        <time>2018-07-28T16:31:57Z</time>
      </trkpt>
      <trkpt lat="42.25409" lon="-8.79224">
        <ele>36.776</ele>
        <time>2018-07-28T16:31:59Z</time>
      </trkpt>
      <trkpt lat="42.25406" lon="-8.79218">
        <ele>36.622</ele>
        <time>2018-07-28T16:32:00Z</time>
      </trkpt>
      <trkpt lat="42.25402" lon="-8.79215">
        <ele>36.638</ele>
        <time>2018-07-28T16:32:01Z</time>
      </trkpt>
      <trkpt lat="42.25395" lon="-8.79208">
        <ele>36.47</ele>
        <time>2018-07-28T16:32:03Z</time>
      </trkpt>
      <trkpt lat="42.25386" lon="-8.79203">
        <ele>36.117</ele>
        <time>2018-07-28T16:32:05Z</time>
      </trkpt>
      <trkpt lat="42.2538" lon="-8.792">
        <ele>36.108</ele>
        <time>2018-07-28T16:32:06Z</time>
      </trkpt>
      <trkpt lat="42.25374" lon="-8.79193">
        <ele>36.155</ele>
        <time>2018-07-28T16:32:07Z</time>
      </trkpt>
      <trkpt lat="42.25367" lon="-8.79187">
        <ele>35.93</ele>
        <time>2018-07-28T16:32:08Z</time>
      </trkpt>
      <trkpt lat="42.25359" lon="-8.79182">
        <ele>35.583</ele>
        <time>2018-07-28T16:32:09Z</time>
      </trkpt>
      <trkpt lat="42.25351" lon="-8.79176">
        <ele>34.915</ele>
        <time>2018-07-28T16:32:10Z</time>
      </trkpt>
      <trkpt lat="42.25343" lon="-8.79168">
        <ele>34.16</ele>
        <time>2018-07-28T16:32:11Z</time>
      </trkpt>
      <trkpt lat="42.25336" lon="-8.7916">
        <ele>33.045</ele>
        <time>2018-07-28T16:32:12Z</time>
      </trkpt>
      <trkpt lat="42.25328" lon="-8.79153">
        <ele>31.993</ele>
        <time>2018-07-28T16:32:13Z</time>
      </trkpt>
      <trkpt lat="42.2532" lon="-8.79146">
        <ele>30.719</ele>
        <time>2018-07-28T16:32:14Z</time>
      </trkpt>
      <trkpt lat="42.25313" lon="-8.7914">
        <ele>29.486</ele>
        <time>2018-07-28T16:32:15Z</time>
      </trkpt>
      <trkpt lat="42.25306" lon="-8.79134">
        <ele>28.16</ele>
        <time>2018-07-28T16:32:16Z</time>
      </trkpt>
      <trkpt lat="42.25299" lon="-8.79129">
        <ele>27.026</ele>
        <time>2018-07-28T16:32:17Z</time>
      </trkpt>
      <trkpt lat="42.25292" lon="-8.79123">
        <ele>25.908</ele>
        <time>2018-07-28T16:32:18Z</time>
      </trkpt>
      <trkpt lat="42.25285" lon="-8.7912">
        <ele>24.08</ele>
        <time>2018-07-28T16:32:19Z</time>
      </trkpt>
      <trkpt lat="42.25277" lon="-8.79116">
        <ele>23.255</ele>
        <time>2018-07-28T16:32:20Z</time>
      </trkpt>
      <trkpt lat="42.25269" lon="-8.79113">
        <ele>22.438</ele>
        <time>2018-07-28T16:32:21Z</time>
      </trkpt>
      <trkpt lat="42.25259" lon="-8.79111">
        <ele>21.77</ele>
        <time>2018-07-28T16:32:22Z</time>
      </trkpt>
      <trkpt lat="42.25248" lon="-8.79111">
        <ele>21.165</ele>
        <time>2018-07-28T16:32:23Z</time>
      </trkpt>
      <trkpt lat="42.25237" lon="-8.79109">
        <ele>20.51</ele>
        <time>2018-07-28T16:32:24Z</time>
      </trkpt>
      <trkpt lat="42.25227" lon="-8.79109">
        <ele>19.968</ele>
        <time>2018-07-28T16:32:25Z</time>
      </trkpt>
      <trkpt lat="42.25216" lon="-8.79107">
        <ele>19.334</ele>
        <time>2018-07-28T16:32:26Z</time>
      </trkpt>
      <trkpt lat="42.25205" lon="-8.79106">
        <ele>18.755</ele>
        <time>2018-07-28T16:32:27Z</time>
      </trkpt>
      <trkpt lat="42.25194" lon="-8.79104">
        <ele>18.207</ele>
        <time>2018-07-28T16:32:28Z</time>
      </trkpt>
      <trkpt lat="42.25183" lon="-8.79102">
        <ele>17.717</ele>
        <time>2018-07-28T16:32:29Z</time>
      </trkpt>
      <trkpt lat="42.25172" lon="-8.791">
        <ele>17.208</ele>
        <time>2018-07-28T16:32:30Z</time>
      </trkpt>
      <trkpt lat="42.25161" lon="-8.79096">
        <ele>16.897</ele>
        <time>2018-07-28T16:32:31Z</time>
      </trkpt>
      <trkpt lat="42.25151" lon="-8.79089">
        <ele>16.472</ele>
        <time>2018-07-28T16:32:32Z</time>
      </trkpt>
      <trkpt lat="42.25139" lon="-8.79081">
        <ele>16.115</ele>
        <time>2018-07-28T16:32:33Z</time>
      </trkpt>
      <trkpt lat="42.25128" lon="-8.79073">
        <ele>15.987</ele>
        <time>2018-07-28T16:32:34Z</time>
      </trkpt>
      <trkpt lat="42.25117" lon="-8.79064">
        <ele>15.722</ele>
        <time>2018-07-28T16:32:35Z</time>
      </trkpt>
      <trkpt lat="42.25107" lon="-8.79057">
        <ele>15.597</ele>
        <time>2018-07-28T16:32:36Z</time>
      </trkpt>
      <trkpt lat="42.25098" lon="-8.79047">
        <ele>14.845</ele>
        <time>2018-07-28T16:32:37Z</time>
      </trkpt>
      <trkpt lat="42.2509" lon="-8.79037">
        <ele>14.481</ele>
        <time>2018-07-28T16:32:38Z</time>
      </trkpt>
      <trkpt lat="42.25083" lon="-8.79027">
        <ele>13.917</ele>
        <time>2018-07-28T16:32:39Z</time>
      </trkpt>
      <trkpt lat="42.25077" lon="-8.7902">
        <ele>13.487</ele>
        <time>2018-07-28T16:32:40Z</time>
      </trkpt>
      <trkpt lat="42.25072" lon="-8.79014">
        <ele>12.915</ele>
        <time>2018-07-28T16:32:41Z</time>
      </trkpt>
      <trkpt lat="42.25067" lon="-8.7901">
        <ele>12.408</ele>
        <time>2018-07-28T16:32:42Z</time>
      </trkpt>
      <trkpt lat="42.25062" lon="-8.79008">
        <ele>12.063</ele>
        <time>2018-07-28T16:32:43Z</time>
      </trkpt>
      <trkpt lat="42.25057" lon="-8.79009">
        <ele>11.668</ele>
        <time>2018-07-28T16:32:44Z</time>
      </trkpt>
      <trkpt lat="42.2505" lon="-8.79011">
        <ele>11.311</ele>
        <time>2018-07-28T16:32:45Z</time>
      </trkpt>
      <trkpt lat="42.25044" lon="-8.79015">
        <ele>11.213</ele>
        <time>2018-07-28T16:32:46Z</time>
      </trkpt>
      <trkpt lat="42.25037" lon="-8.79019">
        <ele>11.288</ele>
        <time>2018-07-28T16:32:47Z</time>
      </trkpt>
      <trkpt lat="42.25032" lon="-8.79026">
        <ele>11.333</ele>
        <time>2018-07-28T16:32:48Z</time>
      </trkpt>
      <trkpt lat="42.25028" lon="-8.79033">
        <ele>11.481</ele>
        <time>2018-07-28T16:32:49Z</time>
      </trkpt>
      <trkpt lat="42.25023" lon="-8.79038">
        <ele>11.597</ele>
        <time>2018-07-28T16:32:50Z</time>
      </trkpt>
      <trkpt lat="42.25017" lon="-8.79042">
        <ele>11.565</ele>
        <time>2018-07-28T16:32:51Z</time>
      </trkpt>
      <trkpt lat="42.25012" lon="-8.79046">
        <ele>11.568</ele>
        <time>2018-07-28T16:32:52Z</time>
      </trkpt>
      <trkpt lat="42.25007" lon="-8.79049">
        <ele>11.314</ele>
        <time>2018-07-28T16:32:53Z</time>
      </trkpt>
      <trkpt lat="42.25003" lon="-8.79051">
        <ele>10.708</ele>
        <time>2018-07-28T16:32:54Z</time>
      </trkpt>
      <trkpt lat="42.24998" lon="-8.79054">
        <ele>10.428</ele>
        <time>2018-07-28T16:32:55Z</time>
      </trkpt>
      <trkpt lat="42.24994" lon="-8.79057">
        <ele>10.053</ele>
        <time>2018-07-28T16:32:56Z</time>
      </trkpt>
      <trkpt lat="42.2499" lon="-8.7906">
        <ele>9.736</ele>
        <time>2018-07-28T16:32:57Z</time>
      </trkpt>
      <trkpt lat="42.24985" lon="-8.79064">
        <ele>9.678</ele>
        <time>2018-07-28T16:32:58Z</time>
      </trkpt>
      <trkpt lat="42.24981" lon="-8.79069">
        <ele>9.463</ele>
        <time>2018-07-28T16:32:59Z</time>
      </trkpt>
      <trkpt lat="42.24978" lon="-8.79073">
        <ele>9.288</ele>
        <time>2018-07-28T16:33:00Z</time>
      </trkpt>
      <trkpt lat="42.24976" lon="-8.79079">
        <ele>9.096</ele>
        <time>2018-07-28T16:33:01Z</time>
      </trkpt>
      <trkpt lat="42.24971" lon="-8.79089">
        <ele>8.492</ele>
        <time>2018-07-28T16:33:03Z</time>
      </trkpt>
      <trkpt lat="42.24966" lon="-8.79097">
        <ele>8.093</ele>
        <time>2018-07-28T16:33:05Z</time>
      </trkpt>
      <trkpt lat="42.24959" lon="-8.79106">
        <ele>7.765</ele>
        <time>2018-07-28T16:33:07Z</time>
      </trkpt>
      <trkpt lat="42.24954" lon="-8.79114">
        <ele>7.521</ele>
        <time>2018-07-28T16:33:09Z</time>
      </trkpt>
      <trkpt lat="42.24948" lon="-8.79121">
        <ele>7.408</ele>
        <time>2018-07-28T16:33:11Z</time>
      </trkpt>
      <trkpt lat="42.24941" lon="-8.79127">
        <ele>7.281</ele>
        <time>2018-07-28T16:33:13Z</time>
      </trkpt>
      <trkpt lat="42.24934" lon="-8.79133">
        <ele>7.056</ele>
        <time>2018-07-28T16:33:15Z</time>
      </trkpt>
      <trkpt lat="42.24926" lon="-8.79136">
        <ele>6.799</ele>
        <time>2018-07-28T16:33:17Z</time>
      </trkpt>
      <trkpt lat="42.24917" lon="-8.79139">
        <ele>6.451</ele>
        <time>2018-07-28T16:33:19Z</time>
      </trkpt>
      <trkpt lat="42.24913" lon="-8.79141">
        <ele>6.356</ele>
        <time>2018-07-28T16:33:20Z</time>
      </trkpt>
      <trkpt lat="42.24908" lon="-8.79143">
        <ele>6.231</ele>
        <time>2018-07-28T16:33:21Z</time>
      </trkpt>
      <trkpt lat="42.249" lon="-8.79146">
        <ele>6.199</ele>
        <time>2018-07-28T16:33:23Z</time>
      </trkpt>
      <trkpt lat="42.24891" lon="-8.79148">
        <ele>6.075</ele>
        <time>2018-07-28T16:33:25Z</time>
      </trkpt>
      <trkpt lat="42.24884" lon="-8.79146">
        <ele>5.972</ele>
        <time>2018-07-28T16:33:27Z</time>
      </trkpt>
      <trkpt lat="42.24879" lon="-8.79146">
        <ele>5.713</ele>
        <time>2018-07-28T16:33:29Z</time>
      </trkpt>
      <trkpt lat="42.24877" lon="-8.79141">
        <ele>5.214</ele>
        <time>2018-07-28T16:33:42Z</time>
      </trkpt>
      <trkpt lat="42.24872" lon="-8.79138">
        <ele>4.908</ele>
        <time>2018-07-28T16:34:24Z</time>
      </trkpt>
      <trkpt lat="42.24868" lon="-8.79136">
        <ele>4.159</ele>
        <time>2018-07-28T16:34:43Z</time>
      </trkpt>
      <trkpt lat="42.24867" lon="-8.7913">
        <ele>4.044</ele>
        <time>2018-07-28T16:34:48Z</time>
      </trkpt>
      <trkpt lat="42.24871" lon="-8.79128">
        <ele>4.367</ele>
        <time>2018-07-28T16:36:15Z</time>
      </trkpt>
      <trkpt lat="42.24875" lon="-8.79132">
        <ele>4.479</ele>
        <time>2018-07-28T16:36:19Z</time>
      </trkpt>
      <trkpt lat="42.24876" lon="-8.79139">
        <ele>4.624</ele>
        <time>2018-07-28T16:36:22Z</time>
      </trkpt>
      <trkpt lat="42.24878" lon="-8.79144">
        <ele>5.369</ele>
        <time>2018-07-28T16:37:53Z</time>
      </trkpt>
      <trkpt lat="42.24885" lon="-8.79147">
        <ele>5.617</ele>
        <time>2018-07-28T16:37:55Z</time>
      </trkpt>
      <trkpt lat="42.2489" lon="-8.79148">
        <ele>5.813</ele>
        <time>2018-07-28T16:37:56Z</time>
      </trkpt>
      <trkpt lat="42.24896" lon="-8.79146">
        <ele>5.962</ele>
        <time>2018-07-28T16:37:57Z</time>
      </trkpt>
      <trkpt lat="42.24903" lon="-8.79144">
        <ele>6.083</ele>
        <time>2018-07-28T16:37:58Z</time>
      </trkpt>
      <trkpt lat="42.24909" lon="-8.79141">
        <ele>6.111</ele>
        <time>2018-07-28T16:37:59Z</time>
      </trkpt>
      <trkpt lat="42.24915" lon="-8.79139">
        <ele>6.108</ele>
        <time>2018-07-28T16:38:00Z</time>
      </trkpt>
      <trkpt lat="42.2492" lon="-8.79137">
        <ele>6.268</ele>
        <time>2018-07-28T16:38:01Z</time>
      </trkpt>
      <trkpt lat="42.24925" lon="-8.79134">
        <ele>6.373</ele>
        <time>2018-07-28T16:38:02Z</time>
      </trkpt>
      <trkpt lat="42.2493" lon="-8.79132">
        <ele>6.426</ele>
        <time>2018-07-28T16:38:03Z</time>
      </trkpt>
      <trkpt lat="42.24935" lon="-8.7913">
        <ele>6.468</ele>
        <time>2018-07-28T16:38:04Z</time>
      </trkpt>
      <trkpt lat="42.2494" lon="-8.79127">
        <ele>6.513</ele>
        <time>2018-07-28T16:38:05Z</time>
      </trkpt>
      <trkpt lat="42.24945" lon="-8.79123">
        <ele>6.818</ele>
        <time>2018-07-28T16:38:06Z</time>
      </trkpt>
      <trkpt lat="42.24951" lon="-8.79117">
        <ele>7.156</ele>
        <time>2018-07-28T16:38:07Z</time>
      </trkpt>
      <trkpt lat="42.24957" lon="-8.79108">
        <ele>7.522</ele>
        <time>2018-07-28T16:38:08Z</time>
      </trkpt>
      <trkpt lat="42.24963" lon="-8.79098">
        <ele>7.899</ele>
        <time>2018-07-28T16:38:09Z</time>
      </trkpt>
      <trkpt lat="42.24969" lon="-8.79088">
        <ele>8.407</ele>
        <time>2018-07-28T16:38:10Z</time>
      </trkpt>
      <trkpt lat="42.24973" lon="-8.79079">
        <ele>8.527</ele>
        <time>2018-07-28T16:38:11Z</time>
      </trkpt>
      <trkpt lat="42.24978" lon="-8.79072">
        <ele>8.608</ele>
        <time>2018-07-28T16:38:12Z</time>
      </trkpt>
      <trkpt lat="42.24984" lon="-8.79064">
        <ele>8.721</ele>
        <time>2018-07-28T16:38:13Z</time>
      </trkpt>
      <trkpt lat="42.2499" lon="-8.79057">
        <ele>8.836</ele>
        <time>2018-07-28T16:38:14Z</time>
      </trkpt>
      <trkpt lat="42.24997" lon="-8.7905">
        <ele>9.229</ele>
        <time>2018-07-28T16:38:15Z</time>
      </trkpt>
      <trkpt lat="42.25005" lon="-8.79044">
        <ele>9.971</ele>
        <time>2018-07-28T16:38:16Z</time>
      </trkpt>
      <trkpt lat="42.25013" lon="-8.79038">
        <ele>10.686</ele>
        <time>2018-07-28T16:38:17Z</time>
      </trkpt>
      <trkpt lat="42.25021" lon="-8.79032">
        <ele>11.481</ele>
        <time>2018-07-28T16:38:18Z</time>
      </trkpt>
      <trkpt lat="42.25029" lon="-8.79024">
        <ele>12.019</ele>
        <time>2018-07-28T16:38:19Z</time>
      </trkpt>
      <trkpt lat="42.25036" lon="-8.79018">
        <ele>12.595</ele>
        <time>2018-07-28T16:38:20Z</time>
      </trkpt>
      <trkpt lat="42.25044" lon="-8.79012">
        <ele>12.724</ele>
        <time>2018-07-28T16:38:21Z</time>
      </trkpt>
      <trkpt lat="42.25051" lon="-8.79008">
        <ele>12.704</ele>
        <time>2018-07-28T16:38:22Z</time>
      </trkpt>
      <trkpt lat="42.25057" lon="-8.79006">
        <ele>12.614</ele>
        <time>2018-07-28T16:38:23Z</time>
      </trkpt>
      <trkpt lat="42.25064" lon="-8.79011">
        <ele>12.408</ele>
        <time>2018-07-28T16:38:24Z</time>
      </trkpt>
      <trkpt lat="42.2507" lon="-8.79019">
        <ele>12.174</ele>
        <time>2018-07-28T16:38:25Z</time>
      </trkpt>
      <trkpt lat="42.25077" lon="-8.79029">
        <ele>12.039</ele>
        <time>2018-07-28T16:38:26Z</time>
      </trkpt>
      <trkpt lat="42.25084" lon="-8.79039">
        <ele>12.012</ele>
        <time>2018-07-28T16:38:27Z</time>
      </trkpt>
      <trkpt lat="42.25091" lon="-8.79048">
        <ele>12.224</ele>
        <time>2018-07-28T16:38:28Z</time>
      </trkpt>
      <trkpt lat="42.25099" lon="-8.79055">
        <ele>12.529</ele>
        <time>2018-07-28T16:38:29Z</time>
      </trkpt>
      <trkpt lat="42.25107" lon="-8.79061">
        <ele>13.094</ele>
        <time>2018-07-28T16:38:30Z</time>
      </trkpt>
      <trkpt lat="42.25115" lon="-8.79067">
        <ele>13.162</ele>
        <time>2018-07-28T16:38:31Z</time>
      </trkpt>
      <trkpt lat="42.25123" lon="-8.79073">
        <ele>13.188</ele>
        <time>2018-07-28T16:38:32Z</time>
      </trkpt>
      <trkpt lat="42.25132" lon="-8.79079">
        <ele>13.219</ele>
        <time>2018-07-28T16:38:33Z</time>
      </trkpt>
      <trkpt lat="42.25141" lon="-8.79086">
        <ele>13.509</ele>
        <time>2018-07-28T16:38:34Z</time>
      </trkpt>
      <trkpt lat="42.25151" lon="-8.79093">
        <ele>13.919</ele>
        <time>2018-07-28T16:38:35Z</time>
      </trkpt>
      <trkpt lat="42.25161" lon="-8.79099">
        <ele>14.308</ele>
        <time>2018-07-28T16:38:36Z</time>
      </trkpt>
      <trkpt lat="42.25172" lon="-8.79104">
        <ele>14.823</ele>
        <time>2018-07-28T16:38:37Z</time>
      </trkpt>
      <trkpt lat="42.25184" lon="-8.79109">
        <ele>15.748</ele>
        <time>2018-07-28T16:38:38Z</time>
      </trkpt>
      <trkpt lat="42.25196" lon="-8.79114">
        <ele>16.871</ele>
        <time>2018-07-28T16:38:39Z</time>
      </trkpt>
      <trkpt lat="42.2521" lon="-8.79118">
        <ele>18.053</ele>
        <time>2018-07-28T16:38:40Z</time>
      </trkpt>
      <trkpt lat="42.25224" lon="-8.79121">
        <ele>19.218</ele>
        <time>2018-07-28T16:38:41Z</time>
      </trkpt>
      <trkpt lat="42.25238" lon="-8.79125">
        <ele>20.343</ele>
        <time>2018-07-28T16:38:42Z</time>
      </trkpt>
      <trkpt lat="42.25251" lon="-8.79126">
        <ele>21.151</ele>
        <time>2018-07-28T16:38:43Z</time>
      </trkpt>
      <trkpt lat="42.25264" lon="-8.79128">
        <ele>21.547</ele>
        <time>2018-07-28T16:38:44Z</time>
      </trkpt>
      <trkpt lat="42.25277" lon="-8.79132">
        <ele>21.854</ele>
        <time>2018-07-28T16:38:45Z</time>
      </trkpt>
      <trkpt lat="42.2529" lon="-8.79139">
        <ele>22.256</ele>
        <time>2018-07-28T16:38:46Z</time>
      </trkpt>
      <trkpt lat="42.25302" lon="-8.79148">
        <ele>22.911</ele>
        <time>2018-07-28T16:38:47Z</time>
      </trkpt>
      <trkpt lat="42.25315" lon="-8.79158">
        <ele>24.108</ele>
        <time>2018-07-28T16:38:48Z</time>
      </trkpt>
      <trkpt lat="42.25327" lon="-8.79167">
        <ele>27.147</ele>
        <time>2018-07-28T16:38:49Z</time>
      </trkpt>
      <trkpt lat="42.25338" lon="-8.79175">
        <ele>28.652</ele>
        <time>2018-07-28T16:38:50Z</time>
      </trkpt>
      <trkpt lat="42.25349" lon="-8.79184">
        <ele>30.225</ele>
        <time>2018-07-28T16:38:51Z</time>
      </trkpt>
      <trkpt lat="42.25358" lon="-8.79192">
        <ele>31.777</ele>
        <time>2018-07-28T16:38:52Z</time>
      </trkpt>
      <trkpt lat="42.25367" lon="-8.792">
        <ele>33.252</ele>
        <time>2018-07-28T16:38:53Z</time>
      </trkpt>
      <trkpt lat="42.25376" lon="-8.79206">
        <ele>34.677</ele>
        <time>2018-07-28T16:38:54Z</time>
      </trkpt>
      <trkpt lat="42.25382" lon="-8.79211">
        <ele>35.825</ele>
        <time>2018-07-28T16:38:55Z</time>
      </trkpt>
      <trkpt lat="42.25389" lon="-8.79217">
        <ele>36.641</ele>
        <time>2018-07-28T16:38:56Z</time>
      </trkpt>
      <trkpt lat="42.25394" lon="-8.79223">
        <ele>37.286</ele>
        <time>2018-07-28T16:38:57Z</time>
      </trkpt>
      <trkpt lat="42.25399" lon="-8.79228">
        <ele>37.36</ele>
        <time>2018-07-28T16:38:58Z</time>
      </trkpt>
      <trkpt lat="42.25403" lon="-8.79233">
        <ele>37.326</ele>
        <time>2018-07-28T16:38:59Z</time>
      </trkpt>
      <trkpt lat="42.25406" lon="-8.79238">
        <ele>37.308</ele>
        <time>2018-07-28T16:39:00Z</time>
      </trkpt>
      <trkpt lat="42.25414" lon="-8.79239">
        <ele>37.32</ele>
        <time>2018-07-28T16:39:02Z</time>
      </trkpt>
      <trkpt lat="42.25418" lon="-8.79236">
        <ele>37.235</ele>
        <time>2018-07-28T16:39:03Z</time>
      </trkpt>
      <trkpt lat="42.25423" lon="-8.79231">
        <ele>37.268</ele>
        <time>2018-07-28T16:39:04Z</time>
      </trkpt>
      <trkpt lat="42.25429" lon="-8.79225">
        <ele>37.29</ele>
        <time>2018-07-28T16:39:05Z</time>
      </trkpt>
      <trkpt lat="42.25434" lon="-8.79219">
        <ele>37.355</ele>
        <time>2018-07-28T16:39:06Z</time>
      </trkpt>
      <trkpt lat="42.25439" lon="-8.79213">
        <ele>37.59</ele>
        <time>2018-07-28T16:39:07Z</time>
      </trkpt>
      <trkpt lat="42.25445" lon="-8.79208">
        <ele>38.188</ele>
        <time>2018-07-28T16:39:08Z</time>
      </trkpt>
      <trkpt lat="42.25452" lon="-8.79203">
        <ele>38.144</ele>
        <time>2018-07-28T16:39:09Z</time>
      </trkpt>
      <trkpt lat="42.25458" lon="-8.79197">
        <ele>38.026</ele>
        <time>2018-07-28T16:39:10Z</time>
      </trkpt>
      <trkpt lat="42.25464" lon="-8.79193">
        <ele>37.747</ele>
        <time>2018-07-28T16:39:11Z</time>
      </trkpt>
      <trkpt lat="42.25469" lon="-8.79189">
        <ele>37.211</ele>
        <time>2018-07-28T16:39:12Z</time>
      </trkpt>
      <trkpt lat="42.25476" lon="-8.79183">
        <ele>36.208</ele>
        <time>2018-07-28T16:39:14Z</time>
      </trkpt>
      <trkpt lat="42.25482" lon="-8.79177">
        <ele>35.634</ele>
        <time>2018-07-28T16:39:16Z</time>
      </trkpt>
      <trkpt lat="42.25487" lon="-8.79177">
        <ele>35.329</ele>
        <time>2018-07-28T16:39:19Z</time>
      </trkpt>
      <trkpt lat="42.2549" lon="-8.79184">
        <ele>35.522</ele>
        <time>2018-07-28T16:39:21Z</time>
      </trkpt>
      <trkpt lat="42.25489" lon="-8.7919">
        <ele>35.794</ele>
        <time>2018-07-28T16:39:22Z</time>
      </trkpt>
      <trkpt lat="42.25484" lon="-8.79201">
        <ele>36.369</ele>
        <time>2018-07-28T16:39:24Z</time>
      </trkpt>
      <trkpt lat="42.2548" lon="-8.79209">
        <ele>36.614</ele>
        <time>2018-07-28T16:39:25Z</time>
      </trkpt>
      <trkpt lat="42.25475" lon="-8.79218">
        <ele>37.052</ele>
        <time>2018-07-28T16:39:26Z</time>
      </trkpt>
      <trkpt lat="42.25471" lon="-8.79228">
        <ele>37.678</ele>
        <time>2018-07-28T16:39:27Z</time>
      </trkpt>
      <trkpt lat="42.25466" lon="-8.79238">
        <ele>38.825</ele>
        <time>2018-07-28T16:39:28Z</time>
      </trkpt>
      <trkpt lat="42.2546" lon="-8.79249">
        <ele>39.526</ele>
        <time>2018-07-28T16:39:29Z</time>
      </trkpt>
      <trkpt lat="42.25454" lon="-8.79261">
        <ele>40.408</ele>
        <time>2018-07-28T16:39:30Z</time>
      </trkpt>
      <trkpt lat="42.25448" lon="-8.79274">
        <ele>41.208</ele>
        <time>2018-07-28T16:39:31Z</time>
      </trkpt>
      <trkpt lat="42.2544" lon="-8.79288">
        <ele>42.034</ele>
        <time>2018-07-28T16:39:32Z</time>
      </trkpt>
      <trkpt lat="42.25433" lon="-8.79302">
        <ele>42.939</ele>
        <time>2018-07-28T16:39:33Z</time>
      </trkpt>
      <trkpt lat="42.25426" lon="-8.79317">
        <ele>43.642</ele>
        <time>2018-07-28T16:39:34Z</time>
      </trkpt>
      <trkpt lat="42.25418" lon="-8.79332">
        <ele>44.194</ele>
        <time>2018-07-28T16:39:35Z</time>
      </trkpt>
      <trkpt lat="42.25411" lon="-8.79347">
        <ele>44.619</ele>
        <time>2018-07-28T16:39:36Z</time>
      </trkpt>
      <trkpt lat="42.25403" lon="-8.79362">
        <ele>45.354</ele>
        <time>2018-07-28T16:39:37Z</time>
      </trkpt>
      <trkpt lat="42.25396" lon="-8.79376">
        <ele>45.822</ele>
        <time>2018-07-28T16:39:38Z</time>
      </trkpt>
      <trkpt lat="42.25397" lon="-8.79397">
        <ele>46.368</ele>
        <time>2018-07-28T16:39:39Z</time>
      </trkpt>
      <trkpt lat="42.25399" lon="-8.79417">
        <ele>47.115</ele>
        <time>2018-07-28T16:39:40Z</time>
      </trkpt>
      <trkpt lat="42.25402" lon="-8.79437">
        <ele>47.865</ele>
        <time>2018-07-28T16:39:41Z</time>
      </trkpt>
      <trkpt lat="42.25406" lon="-8.79456">
        <ele>48.411</ele>
        <time>2018-07-28T16:39:42Z</time>
      </trkpt>
      <trkpt lat="42.25409" lon="-8.79474">
        <ele>49.008</ele>
        <time>2018-07-28T16:39:43Z</time>
      </trkpt>
      <trkpt lat="42.25413" lon="-8.79492">
        <ele>49.633</ele>
        <time>2018-07-28T16:39:44Z</time>
      </trkpt>
      <trkpt lat="42.25416" lon="-8.79508">
        <ele>49.658</ele>
        <time>2018-07-28T16:39:45Z</time>
      </trkpt>
      <trkpt lat="42.25419" lon="-8.79525">
        <ele>49.191</ele>
        <time>2018-07-28T16:39:46Z</time>
      </trkpt>
      <trkpt lat="42.25422" lon="-8.79541">
        <ele>48.543</ele>
        <time>2018-07-28T16:39:47Z</time>
      </trkpt>
      <trkpt lat="42.25425" lon="-8.79558">
        <ele>47.828</ele>
        <time>2018-07-28T16:39:48Z</time>
      </trkpt>
      <trkpt lat="42.25428" lon="-8.79576">
        <ele>47.213</ele>
        <time>2018-07-28T16:39:49Z</time>
      </trkpt>
      <trkpt lat="42.25432" lon="-8.79593">
        <ele>46.831</ele>
        <time>2018-07-28T16:39:50Z</time>
      </trkpt>
      <trkpt lat="42.25435" lon="-8.79611">
        <ele>46.487</ele>
        <time>2018-07-28T16:39:51Z</time>
      </trkpt>
      <trkpt lat="42.25439" lon="-8.79629">
        <ele>46.027</ele>
        <time>2018-07-28T16:39:52Z</time>
      </trkpt>
      <trkpt lat="42.25442" lon="-8.79647">
        <ele>45.768</ele>
        <time>2018-07-28T16:39:53Z</time>
      </trkpt>
      <trkpt lat="42.25446" lon="-8.79665">
        <ele>45.414</ele>
        <time>2018-07-28T16:39:54Z</time>
      </trkpt>
      <trkpt lat="42.25449" lon="-8.79683">
        <ele>45.008</ele>
        <time>2018-07-28T16:39:55Z</time>
      </trkpt>
      <trkpt lat="42.25452" lon="-8.797">
        <ele>44.524</ele>
        <time>2018-07-28T16:39:56Z</time>
      </trkpt>
      <trkpt lat="42.25455" lon="-8.79718">
        <ele>43.839</ele>
        <time>2018-07-28T16:39:57Z</time>
      </trkpt>
      <trkpt lat="42.25458" lon="-8.79736">
        <ele>43.082</ele>
        <time>2018-07-28T16:39:58Z</time>
      </trkpt>
      <trkpt lat="42.25461" lon="-8.79754">
        <ele>42.364</ele>
        <time>2018-07-28T16:39:59Z</time>
      </trkpt>
      <trkpt lat="42.25464" lon="-8.79773">
        <ele>41.629</ele>
        <time>2018-07-28T16:40:00Z</time>
      </trkpt>
      <trkpt lat="42.25468" lon="-8.79792">
        <ele>41.174</ele>
        <time>2018-07-28T16:40:01Z</time>
      </trkpt>
      <trkpt lat="42.25473" lon="-8.79811">
        <ele>40.892</ele>
        <time>2018-07-28T16:40:02Z</time>
      </trkpt>
      <trkpt lat="42.25478" lon="-8.79829">
        <ele>40.518</ele>
        <time>2018-07-28T16:40:03Z</time>
      </trkpt>
      <trkpt lat="42.25488" lon="-8.79843">
        <ele>40.111</ele>
        <time>2018-07-28T16:40:04Z</time>
      </trkpt>
      <trkpt lat="42.25498" lon="-8.79857">
        <ele>40.021</ele>
        <time>2018-07-28T16:40:05Z</time>
      </trkpt>
      <trkpt lat="42.2551" lon="-8.79865">
        <ele>40.003</ele>
        <time>2018-07-28T16:40:06Z</time>
      </trkpt>
      <trkpt lat="42.25523" lon="-8.79871">
        <ele>40.008</ele>
        <time>2018-07-28T16:40:07Z</time>
      </trkpt>
      <trkpt lat="42.25536" lon="-8.7988">
        <ele>40.423</ele>
        <time>2018-07-28T16:40:08Z</time>
      </trkpt>
      <trkpt lat="42.2555" lon="-8.79886">
        <ele>40.918</ele>
        <time>2018-07-28T16:40:09Z</time>
      </trkpt>
      <trkpt lat="42.25563" lon="-8.79893">
        <ele>41.741</ele>
        <time>2018-07-28T16:40:10Z</time>
      </trkpt>
      <trkpt lat="42.25577" lon="-8.799">
        <ele>42.873</ele>
        <time>2018-07-28T16:40:11Z</time>
      </trkpt>
      <trkpt lat="42.25592" lon="-8.79907">
        <ele>43.968</ele>
        <time>2018-07-28T16:40:12Z</time>
      </trkpt>
      <trkpt lat="42.25606" lon="-8.79914">
        <ele>45.093</ele>
        <time>2018-07-28T16:40:13Z</time>
      </trkpt>
      <trkpt lat="42.25621" lon="-8.79921">
        <ele>46.331</ele>
        <time>2018-07-28T16:40:14Z</time>
      </trkpt>
      <trkpt lat="42.25636" lon="-8.79925">
        <ele>47.537</ele>
        <time>2018-07-28T16:40:15Z</time>
      </trkpt>
      <trkpt lat="42.25651" lon="-8.7993">
        <ele>48.569</ele>
        <time>2018-07-28T16:40:16Z</time>
      </trkpt>
      <trkpt lat="42.25666" lon="-8.79937">
        <ele>49.604</ele>
        <time>2018-07-28T16:40:17Z</time>
      </trkpt>
      <trkpt lat="42.2568" lon="-8.7994">
        <ele>50.624</ele>
        <time>2018-07-28T16:40:18Z</time>
      </trkpt>
      <trkpt lat="42.25695" lon="-8.79947">
        <ele>51.208</ele>
        <time>2018-07-28T16:40:19Z</time>
      </trkpt>
      <trkpt lat="42.2571" lon="-8.79953">
        <ele>51.668</ele>
        <time>2018-07-28T16:40:20Z</time>
      </trkpt>
      <trkpt lat="42.25724" lon="-8.7996">
        <ele>52.143</ele>
        <time>2018-07-28T16:40:21Z</time>
      </trkpt>
      <trkpt lat="42.25737" lon="-8.79967">
        <ele>52.716</ele>
        <time>2018-07-28T16:40:22Z</time>
      </trkpt>
      <trkpt lat="42.25752" lon="-8.79976">
        <ele>54.228</ele>
        <time>2018-07-28T16:40:23Z</time>
      </trkpt>
      <trkpt lat="42.25766" lon="-8.79984">
        <ele>55.483</ele>
        <time>2018-07-28T16:40:24Z</time>
      </trkpt>
      <trkpt lat="42.25779" lon="-8.79997">
        <ele>56.718</ele>
        <time>2018-07-28T16:40:25Z</time>
      </trkpt>
      <trkpt lat="42.25793" lon="-8.80013">
        <ele>57.836</ele>
        <time>2018-07-28T16:40:26Z</time>
      </trkpt>
      <trkpt lat="42.25809" lon="-8.80027">
        <ele>59.072</ele>
        <time>2018-07-28T16:40:27Z</time>
      </trkpt>
      <trkpt lat="42.25826" lon="-8.80041">
        <ele>60.656</ele>
        <time>2018-07-28T16:40:28Z</time>
      </trkpt>
      <trkpt lat="42.25843" lon="-8.80052">
        <ele>61.959</ele>
        <time>2018-07-28T16:40:29Z</time>
      </trkpt>
      <trkpt lat="42.25862" lon="-8.8006">
        <ele>63.014</ele>
        <time>2018-07-28T16:40:30Z</time>
      </trkpt>
      <trkpt lat="42.25877" lon="-8.80068">
        <ele>63.908</ele>
        <time>2018-07-28T16:40:31Z</time>
      </trkpt>
      <trkpt lat="42.25892" lon="-8.80079">
        <ele>64.657</ele>
        <time>2018-07-28T16:40:32Z</time>
      </trkpt>
      <trkpt lat="42.25907" lon="-8.80088">
        <ele>64.992</ele>
        <time>2018-07-28T16:40:33Z</time>
      </trkpt>
      <trkpt lat="42.2592" lon="-8.80101">
        <ele>65.335</ele>
        <time>2018-07-28T16:40:34Z</time>
      </trkpt>
      <trkpt lat="42.25934" lon="-8.80113">
        <ele>66.147</ele>
        <time>2018-07-28T16:40:35Z</time>
      </trkpt>
      <trkpt lat="42.25949" lon="-8.80123">
        <ele>66.852</ele>
        <time>2018-07-28T16:40:36Z</time>
      </trkpt>
      <trkpt lat="42.25961" lon="-8.80138">
        <ele>67.717</ele>
        <time>2018-07-28T16:40:37Z</time>
      </trkpt>
      <trkpt lat="42.25976" lon="-8.80151">
        <ele>68.555</ele>
        <time>2018-07-28T16:40:38Z</time>
      </trkpt>
      <trkpt lat="42.25991" lon="-8.80159">
        <ele>69.321</ele>
        <time>2018-07-28T16:40:39Z</time>
      </trkpt>
      <trkpt lat="42.26005" lon="-8.80169">
        <ele>70.038</ele>
        <time>2018-07-28T16:40:40Z</time>
      </trkpt>
      <trkpt lat="42.26018" lon="-8.80182">
        <ele>71.27</ele>
        <time>2018-07-28T16:40:41Z</time>
      </trkpt>
      <trkpt lat="42.26033" lon="-8.80191">
        <ele>71.817</ele>
        <time>2018-07-28T16:40:42Z</time>
      </trkpt>
      <trkpt lat="42.26046" lon="-8.80201">
        <ele>72.308</ele>
        <time>2018-07-28T16:40:43Z</time>
      </trkpt>
      <trkpt lat="42.26061" lon="-8.80205">
        <ele>73.035</ele>
        <time>2018-07-28T16:40:44Z</time>
      </trkpt>
      <trkpt lat="42.26077" lon="-8.80206">
        <ele>73.69</ele>
        <time>2018-07-28T16:40:45Z</time>
      </trkpt>
      <trkpt lat="42.26091" lon="-8.80206">
        <ele>74.173</ele>
        <time>2018-07-28T16:40:46Z</time>
      </trkpt>
      <trkpt lat="42.26106" lon="-8.80203">
        <ele>74.865</ele>
        <time>2018-07-28T16:40:47Z</time>
      </trkpt>
      <trkpt lat="42.26123" lon="-8.80199">
        <ele>75.68</ele>
        <time>2018-07-28T16:40:48Z</time>
      </trkpt>
      <trkpt lat="42.26137" lon="-8.80201">
        <ele>76.045</ele>
        <time>2018-07-28T16:40:49Z</time>
      </trkpt>
      <trkpt lat="42.26147" lon="-8.80206">
        <ele>76.343</ele>
        <time>2018-07-28T16:40:50Z</time>
      </trkpt>
      <trkpt lat="42.26155" lon="-8.80216">
        <ele>76.729</ele>
        <time>2018-07-28T16:40:51Z</time>
      </trkpt>
      <trkpt lat="42.26163" lon="-8.80228">
        <ele>77.269</ele>
        <time>2018-07-28T16:40:52Z</time>
      </trkpt>
      <trkpt lat="42.26171" lon="-8.80243">
        <ele>77.304</ele>
        <time>2018-07-28T16:40:53Z</time>
      </trkpt>
      <trkpt lat="42.2618" lon="-8.80258">
        <ele>77.724</ele>
        <time>2018-07-28T16:40:54Z</time>
      </trkpt>
      <trkpt lat="42.26189" lon="-8.80274">
        <ele>78.608</ele>
        <time>2018-07-28T16:40:55Z</time>
      </trkpt>
      <trkpt lat="42.26195" lon="-8.8029">
        <ele>79.838</ele>
        <time>2018-07-28T16:40:56Z</time>
      </trkpt>
      <trkpt lat="42.26203" lon="-8.80308">
        <ele>80.413</ele>
        <time>2018-07-28T16:40:57Z</time>
      </trkpt>
      <trkpt lat="42.26206" lon="-8.80328">
        <ele>82.246</ele>
        <time>2018-07-28T16:40:58Z</time>
      </trkpt>
      <trkpt lat="42.26207" lon="-8.80348">
        <ele>83.148</ele>
        <time>2018-07-28T16:40:59Z</time>
      </trkpt>
      <trkpt lat="42.26207" lon="-8.80368">
        <ele>83.673</ele>
        <time>2018-07-28T16:41:00Z</time>
      </trkpt>
      <trkpt lat="42.2621" lon="-8.80388">
        <ele>84.658</ele>
        <time>2018-07-28T16:41:01Z</time>
      </trkpt>
      <trkpt lat="42.26211" lon="-8.80405">
        <ele>85.466</ele>
        <time>2018-07-28T16:41:02Z</time>
      </trkpt>
      <trkpt lat="42.26216" lon="-8.80423">
        <ele>85.462</ele>
        <time>2018-07-28T16:41:03Z</time>
      </trkpt>
      <trkpt lat="42.26219" lon="-8.80442">
        <ele>85.494</ele>
        <time>2018-07-28T16:41:04Z</time>
      </trkpt>
      <trkpt lat="42.26217" lon="-8.80454">
        <ele>84.657</ele>
        <time>2018-07-28T16:41:05Z</time>
      </trkpt>
      <trkpt lat="42.26217" lon="-8.8047">
        <ele>83.622</ele>
        <time>2018-07-28T16:41:06Z</time>
      </trkpt>
      <trkpt lat="42.26218" lon="-8.80486">
        <ele>82.408</ele>
        <time>2018-07-28T16:41:07Z</time>
      </trkpt>
      <trkpt lat="42.26212" lon="-8.805">
        <ele>81.381</ele>
        <time>2018-07-28T16:41:08Z</time>
      </trkpt>
      <trkpt lat="42.26204" lon="-8.80515">
        <ele>80.716</ele>
        <time>2018-07-28T16:41:09Z</time>
      </trkpt>
      <trkpt lat="42.26196" lon="-8.80531">
        <ele>80.259</ele>
        <time>2018-07-28T16:41:10Z</time>
      </trkpt>
      <trkpt lat="42.26187" lon="-8.80546">
        <ele>79.931</ele>
        <time>2018-07-28T16:41:11Z</time>
      </trkpt>
      <trkpt lat="42.26179" lon="-8.80561">
        <ele>79.626</ele>
        <time>2018-07-28T16:41:12Z</time>
      </trkpt>
      <trkpt lat="42.26172" lon="-8.80576">
        <ele>79.391</ele>
        <time>2018-07-28T16:41:13Z</time>
      </trkpt>
      <trkpt lat="42.26166" lon="-8.8059">
        <ele>78.749</ele>
        <time>2018-07-28T16:41:14Z</time>
      </trkpt>
      <trkpt lat="42.26161" lon="-8.80605">
        <ele>78.125</ele>
        <time>2018-07-28T16:41:15Z</time>
      </trkpt>
      <trkpt lat="42.26156" lon="-8.80621">
        <ele>76.994</ele>
        <time>2018-07-28T16:41:16Z</time>
      </trkpt>
      <trkpt lat="42.26152" lon="-8.80639">
        <ele>76.557</ele>
        <time>2018-07-28T16:41:17Z</time>
      </trkpt>
      <trkpt lat="42.26148" lon="-8.80658">
        <ele>76.222</ele>
        <time>2018-07-28T16:41:18Z</time>
      </trkpt>
      <trkpt lat="42.26144" lon="-8.80676">
        <ele>76.008</ele>
        <time>2018-07-28T16:41:19Z</time>
      </trkpt>
      <trkpt lat="42.26142" lon="-8.80694">
        <ele>75.751</ele>
        <time>2018-07-28T16:41:20Z</time>
      </trkpt>
      <trkpt lat="42.26141" lon="-8.80713">
        <ele>75.396</ele>
        <time>2018-07-28T16:41:21Z</time>
      </trkpt>
      <trkpt lat="42.26141" lon="-8.80732">
        <ele>74.759</ele>
        <time>2018-07-28T16:41:22Z</time>
      </trkpt>
      <trkpt lat="42.26141" lon="-8.80751">
        <ele>74.271</ele>
        <time>2018-07-28T16:41:23Z</time>
      </trkpt>
      <trkpt lat="42.26143" lon="-8.80767">
        <ele>73.526</ele>
        <time>2018-07-28T16:41:24Z</time>
      </trkpt>
      <trkpt lat="42.26147" lon="-8.80785">
        <ele>72.931</ele>
        <time>2018-07-28T16:41:25Z</time>
      </trkpt>
      <trkpt lat="42.26151" lon="-8.80802">
        <ele>72.439</ele>
        <time>2018-07-28T16:41:26Z</time>
      </trkpt>
      <trkpt lat="42.26157" lon="-8.80818">
        <ele>72.145</ele>
        <time>2018-07-28T16:41:27Z</time>
      </trkpt>
      <trkpt lat="42.26163" lon="-8.80836">
        <ele>71.816</ele>
        <time>2018-07-28T16:41:28Z</time>
      </trkpt>
      <trkpt lat="42.2617" lon="-8.80851">
        <ele>71.676</ele>
        <time>2018-07-28T16:41:29Z</time>
      </trkpt>
      <trkpt lat="42.26176" lon="-8.80864">
        <ele>71.413</ele>
        <time>2018-07-28T16:41:30Z</time>
      </trkpt>
      <trkpt lat="42.26186" lon="-8.80881">
        <ele>71.108</ele>
        <time>2018-07-28T16:41:31Z</time>
      </trkpt>
      <trkpt lat="42.26195" lon="-8.80895">
        <ele>70.773</ele>
        <time>2018-07-28T16:41:32Z</time>
      </trkpt>
      <trkpt lat="42.26207" lon="-8.80908">
        <ele>70.368</ele>
        <time>2018-07-28T16:41:33Z</time>
      </trkpt>
      <trkpt lat="42.26219" lon="-8.80921">
        <ele>70.011</ele>
        <time>2018-07-28T16:41:34Z</time>
      </trkpt>
      <trkpt lat="42.26232" lon="-8.80933">
        <ele>70.063</ele>
        <time>2018-07-28T16:41:35Z</time>
      </trkpt>
      <trkpt lat="42.26246" lon="-8.80944">
        <ele>70.188</ele>
        <time>2018-07-28T16:41:36Z</time>
      </trkpt>
      <trkpt lat="42.2626" lon="-8.80955">
        <ele>70.143</ele>
        <time>2018-07-28T16:41:37Z</time>
      </trkpt>
      <trkpt lat="42.26273" lon="-8.80967">
        <ele>70.061</ele>
        <time>2018-07-28T16:41:38Z</time>
      </trkpt>
      <trkpt lat="42.26285" lon="-8.80977">
        <ele>69.777</ele>
        <time>2018-07-28T16:41:39Z</time>
      </trkpt>
      <trkpt lat="42.26299" lon="-8.80983">
        <ele>69.222</ele>
        <time>2018-07-28T16:41:40Z</time>
      </trkpt>
      <trkpt lat="42.26312" lon="-8.8099">
        <ele>68.662</ele>
        <time>2018-07-28T16:41:41Z</time>
      </trkpt>
      <trkpt lat="42.26325" lon="-8.80996">
        <ele>68.008</ele>
        <time>2018-07-28T16:41:42Z</time>
      </trkpt>
      <trkpt lat="42.2634" lon="-8.81001">
        <ele>67.108</ele>
        <time>2018-07-28T16:41:43Z</time>
      </trkpt>
      <trkpt lat="42.26357" lon="-8.81002">
        <ele>66.424</ele>
        <time>2018-07-28T16:41:44Z</time>
      </trkpt>
      <trkpt lat="42.26372" lon="-8.81001">
        <ele>65.559</ele>
        <time>2018-07-28T16:41:45Z</time>
      </trkpt>
      <trkpt lat="42.26386" lon="-8.81005">
        <ele>64.662</ele>
        <time>2018-07-28T16:41:46Z</time>
      </trkpt>
      <trkpt lat="42.26399" lon="-8.81012">
        <ele>63.714</ele>
        <time>2018-07-28T16:41:47Z</time>
      </trkpt>
      <trkpt lat="42.26413" lon="-8.8102">
        <ele>63.499</ele>
        <time>2018-07-28T16:41:48Z</time>
      </trkpt>
      <trkpt lat="42.26425" lon="-8.8103">
        <ele>63.354</ele>
        <time>2018-07-28T16:41:49Z</time>
      </trkpt>
      <trkpt lat="42.26439" lon="-8.81041">
        <ele>63.222</ele>
        <time>2018-07-28T16:41:50Z</time>
      </trkpt>
      <trkpt lat="42.26451" lon="-8.81055">
        <ele>63.458</ele>
        <time>2018-07-28T16:41:51Z</time>
      </trkpt>
      <trkpt lat="42.26465" lon="-8.8107">
        <ele>63.411</ele>
        <time>2018-07-28T16:41:52Z</time>
      </trkpt>
      <trkpt lat="42.26478" lon="-8.81085">
        <ele>63.321</ele>
        <time>2018-07-28T16:41:53Z</time>
      </trkpt>
      <trkpt lat="42.26488" lon="-8.811">
        <ele>63.103</ele>
        <time>2018-07-28T16:41:54Z</time>
      </trkpt>
      <trkpt lat="42.26495" lon="-8.81118">
        <ele>63.008</ele>
        <time>2018-07-28T16:41:55Z</time>
      </trkpt>
      <trkpt lat="42.26497" lon="-8.8114">
        <ele>62.763</ele>
        <time>2018-07-28T16:41:56Z</time>
      </trkpt>
      <trkpt lat="42.265" lon="-8.81161">
        <ele>62.298</ele>
        <time>2018-07-28T16:41:57Z</time>
      </trkpt>
      <trkpt lat="42.26503" lon="-8.81182">
        <ele>61.941</ele>
        <time>2018-07-28T16:41:58Z</time>
      </trkpt>
      <trkpt lat="42.26507" lon="-8.81204">
        <ele>61.363</ele>
        <time>2018-07-28T16:41:59Z</time>
      </trkpt>
      <trkpt lat="42.26515" lon="-8.8122">
        <ele>60.558</ele>
        <time>2018-07-28T16:42:00Z</time>
      </trkpt>
      <trkpt lat="42.26519" lon="-8.81237">
        <ele>59.593</ele>
        <time>2018-07-28T16:42:01Z</time>
      </trkpt>
      <trkpt lat="42.26521" lon="-8.81249">
        <ele>58.281</ele>
        <time>2018-07-28T16:42:02Z</time>
      </trkpt>
      <trkpt lat="42.26522" lon="-8.8126">
        <ele>56.647</ele>
        <time>2018-07-28T16:42:03Z</time>
      </trkpt>
      <trkpt lat="42.26525" lon="-8.81271">
        <ele>55.153</ele>
        <time>2018-07-28T16:42:04Z</time>
      </trkpt>
      <trkpt lat="42.26528" lon="-8.81277">
        <ele>53.704</ele>
        <time>2018-07-28T16:42:05Z</time>
      </trkpt>
      <trkpt lat="42.26527" lon="-8.81287">
        <ele>52.614</ele>
        <time>2018-07-28T16:42:06Z</time>
      </trkpt>
      <trkpt lat="42.26528" lon="-8.81295">
        <ele>51.908</ele>
        <time>2018-07-28T16:42:07Z</time>
      </trkpt>
      <trkpt lat="42.26533" lon="-8.81304">
        <ele>50.937</ele>
        <time>2018-07-28T16:42:08Z</time>
      </trkpt>
      <trkpt lat="42.26538" lon="-8.81314">
        <ele>50.422</ele>
        <time>2018-07-28T16:42:09Z</time>
      </trkpt>
      <trkpt lat="42.2654" lon="-8.81324">
        <ele>49.965</ele>
        <time>2018-07-28T16:42:10Z</time>
      </trkpt>
      <trkpt lat="42.26544" lon="-8.81334">
        <ele>49.567</ele>
        <time>2018-07-28T16:42:11Z</time>
      </trkpt>
      <trkpt lat="42.26548" lon="-8.81343">
        <ele>49.042</ele>
        <time>2018-07-28T16:42:12Z</time>
      </trkpt>
      <trkpt lat="42.26549" lon="-8.81354">
        <ele>48.437</ele>
        <time>2018-07-28T16:42:13Z</time>
      </trkpt>
      <trkpt lat="42.26551" lon="-8.81365">
        <ele>47.995</ele>
        <time>2018-07-28T16:42:14Z</time>
      </trkpt>
      <trkpt lat="42.26555" lon="-8.81378">
        <ele>47.561</ele>
        <time>2018-07-28T16:42:15Z</time>
      </trkpt>
      <trkpt lat="42.26558" lon="-8.81387">
        <ele>46.762</ele>
        <time>2018-07-28T16:42:16Z</time>
      </trkpt>
      <trkpt lat="42.26562" lon="-8.814">
        <ele>46.183</ele>
        <time>2018-07-28T16:42:17Z</time>
      </trkpt>
      <trkpt lat="42.26566" lon="-8.81413">
        <ele>45.811</ele>
        <time>2018-07-28T16:42:18Z</time>
      </trkpt>
      <trkpt lat="42.26573" lon="-8.81425">
        <ele>45.408</ele>
        <time>2018-07-28T16:42:19Z</time>
      </trkpt>
      <trkpt lat="42.26579" lon="-8.8144">
        <ele>45.068</ele>
        <time>2018-07-28T16:42:20Z</time>
      </trkpt>
      <trkpt lat="42.26588" lon="-8.81452">
        <ele>44.673</ele>
        <time>2018-07-28T16:42:21Z</time>
      </trkpt>
      <trkpt lat="42.26595" lon="-8.81464">
        <ele>44.226</ele>
        <time>2018-07-28T16:42:22Z</time>
      </trkpt>
      <trkpt lat="42.26604" lon="-8.81475">
        <ele>43.738</ele>
        <time>2018-07-28T16:42:23Z</time>
      </trkpt>
      <trkpt lat="42.26616" lon="-8.81482">
        <ele>43.253</ele>
        <time>2018-07-28T16:42:24Z</time>
      </trkpt>
      <trkpt lat="42.26628" lon="-8.8149">
        <ele>42.328</ele>
        <time>2018-07-28T16:42:25Z</time>
      </trkpt>
      <trkpt lat="42.26639" lon="-8.815">
        <ele>42.186</ele>
        <time>2018-07-28T16:42:26Z</time>
      </trkpt>
      <trkpt lat="42.26647" lon="-8.81511">
        <ele>41.962</ele>
        <time>2018-07-28T16:42:27Z</time>
      </trkpt>
      <trkpt lat="42.26659" lon="-8.81519">
        <ele>41.662</ele>
        <time>2018-07-28T16:42:28Z</time>
      </trkpt>
      <trkpt lat="42.2667" lon="-8.81529">
        <ele>41.283</ele>
        <time>2018-07-28T16:42:29Z</time>
      </trkpt>
      <trkpt lat="42.26681" lon="-8.81539">
        <ele>40.711</ele>
        <time>2018-07-28T16:42:30Z</time>
      </trkpt>
      <trkpt lat="42.26695" lon="-8.81547">
        <ele>40.008</ele>
        <time>2018-07-28T16:42:31Z</time>
      </trkpt>
      <trkpt lat="42.26706" lon="-8.81558">
        <ele>39.548</ele>
        <time>2018-07-28T16:42:32Z</time>
      </trkpt>
      <trkpt lat="42.26717" lon="-8.81568">
        <ele>39.383</ele>
        <time>2018-07-28T16:42:33Z</time>
      </trkpt>
      <trkpt lat="42.26729" lon="-8.81579">
        <ele>39.016</ele>
        <time>2018-07-28T16:42:34Z</time>
      </trkpt>
      <trkpt lat="42.26741" lon="-8.8159">
        <ele>38.578</ele>
        <time>2018-07-28T16:42:35Z</time>
      </trkpt>
      <trkpt lat="42.26752" lon="-8.81602">
        <ele>38.173</ele>
        <time>2018-07-28T16:42:36Z</time>
      </trkpt>
      <trkpt lat="42.26764" lon="-8.81612">
        <ele>38.028</ele>
        <time>2018-07-28T16:42:37Z</time>
      </trkpt>
      <trkpt lat="42.26777" lon="-8.81622">
        <ele>37.586</ele>
        <time>2018-07-28T16:42:38Z</time>
      </trkpt>
      <trkpt lat="42.26785" lon="-8.81627">
        <ele>36.922</ele>
        <time>2018-07-28T16:42:39Z</time>
      </trkpt>
      <trkpt lat="42.26789" lon="-8.81635">
        <ele>36.071</ele>
        <time>2018-07-28T16:42:40Z</time>
      </trkpt>
      <trkpt lat="42.26795" lon="-8.81644">
        <ele>31.041</ele>
        <time>2018-07-28T16:42:42Z</time>
      </trkpt>
      <trkpt lat="42.26799" lon="-8.81649">
        <ele>29.715</ele>
        <time>2018-07-28T16:42:43Z</time>
      </trkpt>
      <trkpt lat="42.26803" lon="-8.81656">
        <ele>28.808</ele>
        <time>2018-07-28T16:42:44Z</time>
      </trkpt>
      <trkpt lat="42.26809" lon="-8.81663">
        <ele>28.489</ele>
        <time>2018-07-28T16:42:45Z</time>
      </trkpt>
      <trkpt lat="42.26816" lon="-8.8167">
        <ele>28.124</ele>
        <time>2018-07-28T16:42:46Z</time>
      </trkpt>
      <trkpt lat="42.26823" lon="-8.81677">
        <ele>28.147</ele>
        <time>2018-07-28T16:42:47Z</time>
      </trkpt>
      <trkpt lat="42.26828" lon="-8.81687">
        <ele>28.169</ele>
        <time>2018-07-28T16:42:48Z</time>
      </trkpt>
      <trkpt lat="42.26835" lon="-8.81692">
        <ele>28.174</ele>
        <time>2018-07-28T16:42:49Z</time>
      </trkpt>
      <trkpt lat="42.26839" lon="-8.81698">
        <ele>28.149</ele>
        <time>2018-07-28T16:42:50Z</time>
      </trkpt>
      <trkpt lat="42.26843" lon="-8.81702">
        <ele>28.067</ele>
        <time>2018-07-28T16:42:51Z</time>
      </trkpt>
      <trkpt lat="42.26846" lon="-8.81707">
        <ele>27.713</ele>
        <time>2018-07-28T16:42:52Z</time>
      </trkpt>
      <trkpt lat="42.26854" lon="-8.8171">
        <ele>26.993</ele>
        <time>2018-07-28T16:42:54Z</time>
      </trkpt>
      <trkpt lat="42.26863" lon="-8.81716">
        <ele>26.265</ele>
        <time>2018-07-28T16:42:56Z</time>
      </trkpt>
      <trkpt lat="42.26868" lon="-8.8172">
        <ele>26.121</ele>
        <time>2018-07-28T16:42:57Z</time>
      </trkpt>
      <trkpt lat="42.26873" lon="-8.81721">
        <ele>25.908</ele>
        <time>2018-07-28T16:42:58Z</time>
      </trkpt>
      <trkpt lat="42.26878" lon="-8.81724">
        <ele>25.631</ele>
        <time>2018-07-28T16:42:59Z</time>
      </trkpt>
      <trkpt lat="42.26883" lon="-8.81726">
        <ele>25.336</ele>
        <time>2018-07-28T16:43:00Z</time>
      </trkpt>
      <trkpt lat="42.2689" lon="-8.8173">
        <ele>24.559</ele>
        <time>2018-07-28T16:43:02Z</time>
      </trkpt>
      <trkpt lat="42.26894" lon="-8.81737">
        <ele>22.781</ele>
        <time>2018-07-28T16:43:14Z</time>
      </trkpt>
      <trkpt lat="42.26889" lon="-8.81739">
        <ele>22.836</ele>
        <time>2018-07-28T16:43:17Z</time>
      </trkpt>
      <trkpt lat="42.26885" lon="-8.81734">
        <ele>22.751</ele>
        <time>2018-07-28T16:43:19Z</time>
      </trkpt>
      <trkpt lat="42.26883" lon="-8.81729">
        <ele>22.859</ele>
        <time>2018-07-28T16:43:27Z</time>
      </trkpt>
      <trkpt lat="42.26877" lon="-8.81729">
        <ele>22.955</ele>
        <time>2018-07-28T16:43:28Z</time>
      </trkpt>
      <trkpt lat="42.26869" lon="-8.81724">
        <ele>23.042</ele>
        <time>2018-07-28T16:43:29Z</time>
      </trkpt>
      <trkpt lat="42.2686" lon="-8.81719">
        <ele>23.222</ele>
        <time>2018-07-28T16:43:30Z</time>
      </trkpt>
      <trkpt lat="42.26851" lon="-8.81714">
        <ele>23.514</ele>
        <time>2018-07-28T16:43:31Z</time>
      </trkpt>
      <trkpt lat="42.26842" lon="-8.81711">
        <ele>24.508</ele>
        <time>2018-07-28T16:43:32Z</time>
      </trkpt>
      <trkpt lat="42.26834" lon="-8.81706">
        <ele>25.176</ele>
        <time>2018-07-28T16:43:33Z</time>
      </trkpt>
      <trkpt lat="42.26829" lon="-8.81698">
        <ele>25.631</ele>
        <time>2018-07-28T16:43:34Z</time>
      </trkpt>
      <trkpt lat="42.26821" lon="-8.81687">
        <ele>26.154</ele>
        <time>2018-07-28T16:43:35Z</time>
      </trkpt>
      <trkpt lat="42.26813" lon="-8.81676">
        <ele>26.516</ele>
        <time>2018-07-28T16:43:36Z</time>
      </trkpt>
      <trkpt lat="42.26804" lon="-8.81663">
        <ele>26.931</ele>
        <time>2018-07-28T16:43:37Z</time>
      </trkpt>
      <trkpt lat="42.26796" lon="-8.81652">
        <ele>27.246</ele>
        <time>2018-07-28T16:43:38Z</time>
      </trkpt>
      <trkpt lat="42.26787" lon="-8.8164">
        <ele>27.514</ele>
        <time>2018-07-28T16:43:39Z</time>
      </trkpt>
      <trkpt lat="42.26775" lon="-8.81629">
        <ele>27.94</ele>
        <time>2018-07-28T16:43:40Z</time>
      </trkpt>
      <trkpt lat="42.26765" lon="-8.81618">
        <ele>28.472</ele>
        <time>2018-07-28T16:43:41Z</time>
      </trkpt>
      <trkpt lat="42.26754" lon="-8.81607">
        <ele>29.113</ele>
        <time>2018-07-28T16:43:42Z</time>
      </trkpt>
      <trkpt lat="42.26744" lon="-8.81596">
        <ele>29.914</ele>
        <time>2018-07-28T16:43:43Z</time>
      </trkpt>
      <trkpt lat="42.26731" lon="-8.81588">
        <ele>30.808</ele>
        <time>2018-07-28T16:43:44Z</time>
      </trkpt>
      <trkpt lat="42.26722" lon="-8.81576">
        <ele>31.779</ele>
        <time>2018-07-28T16:43:45Z</time>
      </trkpt>
      <trkpt lat="42.26708" lon="-8.81566">
        <ele>32.714</ele>
        <time>2018-07-28T16:43:46Z</time>
      </trkpt>
      <trkpt lat="42.26695" lon="-8.81555">
        <ele>33.567</ele>
        <time>2018-07-28T16:43:47Z</time>
      </trkpt>
      <trkpt lat="42.26683" lon="-8.81542">
        <ele>34.429</ele>
        <time>2018-07-28T16:43:48Z</time>
      </trkpt>
      <trkpt lat="42.2667" lon="-8.81532">
        <ele>35.154</ele>
        <time>2018-07-28T16:43:49Z</time>
      </trkpt>
      <trkpt lat="42.26659" lon="-8.81523">
        <ele>36.159</ele>
        <time>2018-07-28T16:43:50Z</time>
      </trkpt>
      <trkpt lat="42.26647" lon="-8.8151">
        <ele>36.697</ele>
        <time>2018-07-28T16:43:51Z</time>
      </trkpt>
      <trkpt lat="42.26634" lon="-8.81498">
        <ele>37.133</ele>
        <time>2018-07-28T16:43:52Z</time>
      </trkpt>
      <trkpt lat="42.2662" lon="-8.81486">
        <ele>37.566</ele>
        <time>2018-07-28T16:43:53Z</time>
      </trkpt>
      <trkpt lat="42.26608" lon="-8.81476">
        <ele>38.029</ele>
        <time>2018-07-28T16:43:54Z</time>
      </trkpt>
      <trkpt lat="42.26596" lon="-8.81464">
        <ele>38.421</ele>
        <time>2018-07-28T16:43:55Z</time>
      </trkpt>
      <trkpt lat="42.26586" lon="-8.81455">
        <ele>38.808</ele>
        <time>2018-07-28T16:43:56Z</time>
      </trkpt>
      <trkpt lat="42.26577" lon="-8.81442">
        <ele>39.238</ele>
        <time>2018-07-28T16:43:57Z</time>
      </trkpt>
      <trkpt lat="42.2657" lon="-8.81427">
        <ele>39.763</ele>
        <time>2018-07-28T16:43:58Z</time>
      </trkpt>
      <trkpt lat="42.26564" lon="-8.81408">
        <ele>40.436</ele>
        <time>2018-07-28T16:43:59Z</time>
      </trkpt>
      <trkpt lat="42.26557" lon="-8.8139">
        <ele>41.238</ele>
        <time>2018-07-28T16:44:00Z</time>
      </trkpt>
      <trkpt lat="42.26551" lon="-8.81371">
        <ele>42.143</ele>
        <time>2018-07-28T16:44:01Z</time>
      </trkpt>
      <trkpt lat="42.26545" lon="-8.81354">
        <ele>43.018</ele>
        <time>2018-07-28T16:44:02Z</time>
      </trkpt>
      <trkpt lat="42.2654" lon="-8.81338">
        <ele>44.046</ele>
        <time>2018-07-28T16:44:03Z</time>
      </trkpt>
      <trkpt lat="42.26535" lon="-8.81322">
        <ele>44.952</ele>
        <time>2018-07-28T16:44:04Z</time>
      </trkpt>
      <trkpt lat="42.2653" lon="-8.81307">
        <ele>45.795</ele>
        <time>2018-07-28T16:44:05Z</time>
      </trkpt>
      <trkpt lat="42.26526" lon="-8.81293">
        <ele>47.449</ele>
        <time>2018-07-28T16:44:06Z</time>
      </trkpt>
      <trkpt lat="42.26522" lon="-8.81278">
        <ele>48.223</ele>
        <time>2018-07-28T16:44:07Z</time>
      </trkpt>
      <trkpt lat="42.26518" lon="-8.81263">
        <ele>49.108</ele>
        <time>2018-07-28T16:44:08Z</time>
      </trkpt>
      <trkpt lat="42.26514" lon="-8.81248">
        <ele>50.031</ele>
        <time>2018-07-28T16:44:09Z</time>
      </trkpt>
      <trkpt lat="42.2651" lon="-8.81233">
        <ele>50.786</ele>
        <time>2018-07-28T16:44:10Z</time>
      </trkpt>
      <trkpt lat="42.26506" lon="-8.81218">
        <ele>51.499</ele>
        <time>2018-07-28T16:44:11Z</time>
      </trkpt>
      <trkpt lat="42.26503" lon="-8.81204">
        <ele>51.991</ele>
        <time>2018-07-28T16:44:12Z</time>
      </trkpt>
      <trkpt lat="42.26499" lon="-8.81189">
        <ele>52.386</ele>
        <time>2018-07-28T16:44:13Z</time>
      </trkpt>
      <trkpt lat="42.26496" lon="-8.81174">
        <ele>52.861</ele>
        <time>2018-07-28T16:44:14Z</time>
      </trkpt>
      <trkpt lat="42.26492" lon="-8.81159">
        <ele>53.559</ele>
        <time>2018-07-28T16:44:15Z</time>
      </trkpt>
      <trkpt lat="42.26489" lon="-8.81145">
        <ele>54.315</ele>
        <time>2018-07-28T16:44:16Z</time>
      </trkpt>
      <trkpt lat="42.26487" lon="-8.8113">
        <ele>55.072</ele>
        <time>2018-07-28T16:44:17Z</time>
      </trkpt>
      <trkpt lat="42.26483" lon="-8.81115">
        <ele>55.813</ele>
        <time>2018-07-28T16:44:18Z</time>
      </trkpt>
      <trkpt lat="42.26479" lon="-8.811">
        <ele>56.514</ele>
        <time>2018-07-28T16:44:19Z</time>
      </trkpt>
      <trkpt lat="42.26471" lon="-8.81087">
        <ele>57.008</ele>
        <time>2018-07-28T16:44:20Z</time>
      </trkpt>
      <trkpt lat="42.26462" lon="-8.81075">
        <ele>57.479</ele>
        <time>2018-07-28T16:44:21Z</time>
      </trkpt>
      <trkpt lat="42.26453" lon="-8.81063">
        <ele>57.934</ele>
        <time>2018-07-28T16:44:22Z</time>
      </trkpt>
      <trkpt lat="42.26444" lon="-8.81051">
        <ele>58.927</ele>
        <time>2018-07-28T16:44:23Z</time>
      </trkpt>
      <trkpt lat="42.26434" lon="-8.81039">
        <ele>59.329</ele>
        <time>2018-07-28T16:44:24Z</time>
      </trkpt>
      <trkpt lat="42.26424" lon="-8.81027">
        <ele>59.824</ele>
        <time>2018-07-28T16:44:25Z</time>
      </trkpt>
      <trkpt lat="42.26412" lon="-8.81018">
        <ele>60.269</ele>
        <time>2018-07-28T16:44:26Z</time>
      </trkpt>
      <trkpt lat="42.264" lon="-8.8101">
        <ele>60.567</ele>
        <time>2018-07-28T16:44:27Z</time>
      </trkpt>
      <trkpt lat="42.26387" lon="-8.81003">
        <ele>60.773</ele>
        <time>2018-07-28T16:44:28Z</time>
      </trkpt>
      <trkpt lat="42.26374" lon="-8.81001">
        <ele>60.969</ele>
        <time>2018-07-28T16:44:29Z</time>
      </trkpt>
      <trkpt lat="42.26362" lon="-8.81001">
        <ele>61.104</ele>
        <time>2018-07-28T16:44:30Z</time>
      </trkpt>
      <trkpt lat="42.26349" lon="-8.81001">
        <ele>61.224</ele>
        <time>2018-07-28T16:44:31Z</time>
      </trkpt>
      <trkpt lat="42.26336" lon="-8.81">
        <ele>61.308</ele>
        <time>2018-07-28T16:44:32Z</time>
      </trkpt>
      <trkpt lat="42.26322" lon="-8.80997">
        <ele>61.528</ele>
        <time>2018-07-28T16:44:33Z</time>
      </trkpt>
      <trkpt lat="42.26308" lon="-8.80991">
        <ele>61.683</ele>
        <time>2018-07-28T16:44:34Z</time>
      </trkpt>
      <trkpt lat="42.26295" lon="-8.80983">
        <ele>62.116</ele>
        <time>2018-07-28T16:44:35Z</time>
      </trkpt>
      <trkpt lat="42.26282" lon="-8.80974">
        <ele>62.778</ele>
        <time>2018-07-28T16:44:36Z</time>
      </trkpt>
      <trkpt lat="42.26271" lon="-8.80966">
        <ele>63.243</ele>
        <time>2018-07-28T16:44:37Z</time>
      </trkpt>
      <trkpt lat="42.2626" lon="-8.80957">
        <ele>63.848</ele>
        <time>2018-07-28T16:44:38Z</time>
      </trkpt>
      <trkpt lat="42.2625" lon="-8.80948">
        <ele>64.356</ele>
        <time>2018-07-28T16:44:39Z</time>
      </trkpt>
      <trkpt lat="42.2624" lon="-8.80939">
        <ele>64.752</ele>
        <time>2018-07-28T16:44:40Z</time>
      </trkpt>
      <trkpt lat="42.26231" lon="-8.8093">
        <ele>65.141</ele>
        <time>2018-07-28T16:44:41Z</time>
      </trkpt>
      <trkpt lat="42.26221" lon="-8.80921">
        <ele>65.481</ele>
        <time>2018-07-28T16:44:42Z</time>
      </trkpt>
      <trkpt lat="42.26211" lon="-8.80912">
        <ele>65.609</ele>
        <time>2018-07-28T16:44:43Z</time>
      </trkpt>
      <trkpt lat="42.26201" lon="-8.80903">
        <ele>66.008</ele>
        <time>2018-07-28T16:44:44Z</time>
      </trkpt>
      <trkpt lat="42.26191" lon="-8.80892">
        <ele>66.356</ele>
        <time>2018-07-28T16:44:45Z</time>
      </trkpt>
      <trkpt lat="42.26181" lon="-8.80881">
        <ele>66.641</ele>
        <time>2018-07-28T16:44:46Z</time>
      </trkpt>
      <trkpt lat="42.26173" lon="-8.80868">
        <ele>66.964</ele>
        <time>2018-07-28T16:44:47Z</time>
      </trkpt>
      <trkpt lat="42.26166" lon="-8.80854">
        <ele>67.346</ele>
        <time>2018-07-28T16:44:48Z</time>
      </trkpt>
      <trkpt lat="42.26159" lon="-8.8084">
        <ele>67.661</ele>
        <time>2018-07-28T16:44:49Z</time>
      </trkpt>
      <trkpt lat="42.26153" lon="-8.80825">
        <ele>67.996</ele>
        <time>2018-07-28T16:44:50Z</time>
      </trkpt>
      <trkpt lat="42.26148" lon="-8.8081">
        <ele>68.124</ele>
        <time>2018-07-28T16:44:51Z</time>
      </trkpt>
      <trkpt lat="42.26143" lon="-8.80794">
        <ele>68.26</ele>
        <time>2018-07-28T16:44:52Z</time>
      </trkpt>
      <trkpt lat="42.2614" lon="-8.80779">
        <ele>68.395</ele>
        <time>2018-07-28T16:44:53Z</time>
      </trkpt>
      <trkpt lat="42.26138" lon="-8.80764">
        <ele>68.449</ele>
        <time>2018-07-28T16:44:54Z</time>
      </trkpt>
      <trkpt lat="42.26136" lon="-8.80748">
        <ele>68.623</ele>
        <time>2018-07-28T16:44:55Z</time>
      </trkpt>
      <trkpt lat="42.26135" lon="-8.80733">
        <ele>68.808</ele>
        <time>2018-07-28T16:44:56Z</time>
      </trkpt>
      <trkpt lat="42.26135" lon="-8.80716">
        <ele>69.721</ele>
        <time>2018-07-28T16:44:57Z</time>
      </trkpt>
      <trkpt lat="42.26135" lon="-8.80699">
        <ele>70.356</ele>
        <time>2018-07-28T16:44:58Z</time>
      </trkpt>
      <trkpt lat="42.26135" lon="-8.80682">
        <ele>71.059</ele>
        <time>2018-07-28T16:44:59Z</time>
      </trkpt>
      <trkpt lat="42.26137" lon="-8.80665">
        <ele>71.931</ele>
        <time>2018-07-28T16:45:00Z</time>
      </trkpt>
      <trkpt lat="42.26141" lon="-8.80649">
        <ele>72.686</ele>
        <time>2018-07-28T16:45:01Z</time>
      </trkpt>
      <trkpt lat="42.26145" lon="-8.80634">
        <ele>73.051</ele>
        <time>2018-07-28T16:45:02Z</time>
      </trkpt>
      <trkpt lat="42.26151" lon="-8.8062">
        <ele>73.279</ele>
        <time>2018-07-28T16:45:03Z</time>
      </trkpt>
      <trkpt lat="42.26156" lon="-8.80607">
        <ele>73.325</ele>
        <time>2018-07-28T16:45:04Z</time>
      </trkpt>
      <trkpt lat="42.2616" lon="-8.80595">
        <ele>73.566</ele>
        <time>2018-07-28T16:45:05Z</time>
      </trkpt>
      <trkpt lat="42.26166" lon="-8.80583">
        <ele>73.729</ele>
        <time>2018-07-28T16:45:06Z</time>
      </trkpt>
      <trkpt lat="42.26171" lon="-8.80571">
        <ele>74.121</ele>
        <time>2018-07-28T16:45:07Z</time>
      </trkpt>
      <trkpt lat="42.26176" lon="-8.8056">
        <ele>74.608</ele>
        <time>2018-07-28T16:45:08Z</time>
      </trkpt>
      <trkpt lat="42.26181" lon="-8.8055">
        <ele>75.048</ele>
        <time>2018-07-28T16:45:09Z</time>
      </trkpt>
      <trkpt lat="42.26186" lon="-8.80541">
        <ele>75.293</ele>
        <time>2018-07-28T16:45:10Z</time>
      </trkpt>
      <trkpt lat="42.26191" lon="-8.80533">
        <ele>75.356</ele>
        <time>2018-07-28T16:45:11Z</time>
      </trkpt>
      <trkpt lat="42.26196" lon="-8.80525">
        <ele>75.438</ele>
        <time>2018-07-28T16:45:12Z</time>
      </trkpt>
      <trkpt lat="42.26201" lon="-8.80517">
        <ele>75.613</ele>
        <time>2018-07-28T16:45:13Z</time>
      </trkpt>
      <trkpt lat="42.26205" lon="-8.80509">
        <ele>75.998</ele>
        <time>2018-07-28T16:45:14Z</time>
      </trkpt>
      <trkpt lat="42.26209" lon="-8.80503">
        <ele>76.276</ele>
        <time>2018-07-28T16:45:15Z</time>
      </trkpt>
      <trkpt lat="42.26212" lon="-8.80496">
        <ele>76.422</ele>
        <time>2018-07-28T16:45:16Z</time>
      </trkpt>
      <trkpt lat="42.26214" lon="-8.8049">
        <ele>76.588</ele>
        <time>2018-07-28T16:45:17Z</time>
      </trkpt>
      <trkpt lat="42.26215" lon="-8.80481">
        <ele>76.724</ele>
        <time>2018-07-28T16:45:19Z</time>
      </trkpt>
      <trkpt lat="42.26211" lon="-8.80486">
        <ele>76.826</ele>
        <time>2018-07-28T16:45:22Z</time>
      </trkpt>
      <trkpt lat="42.26209" lon="-8.80492">
        <ele>76.708</ele>
        <time>2018-07-28T16:45:23Z</time>
      </trkpt>
      <trkpt lat="42.26205" lon="-8.80499">
        <ele>76.51</ele>
        <time>2018-07-28T16:45:24Z</time>
      </trkpt>
      <trkpt lat="42.26201" lon="-8.80507">
        <ele>76.215</ele>
        <time>2018-07-28T16:45:25Z</time>
      </trkpt>
      <trkpt lat="42.26196" lon="-8.80515">
        <ele>75.818</ele>
        <time>2018-07-28T16:45:26Z</time>
      </trkpt>
      <trkpt lat="42.26192" lon="-8.80521">
        <ele>75.28</ele>
        <time>2018-07-28T16:45:27Z</time>
      </trkpt>
      <trkpt lat="42.26188" lon="-8.80527">
        <ele>74.435</ele>
        <time>2018-07-28T16:45:28Z</time>
      </trkpt>
      <trkpt lat="42.26185" lon="-8.80532">
        <ele>73.43</ele>
        <time>2018-07-28T16:45:29Z</time>
      </trkpt>
      <trkpt lat="42.26182" lon="-8.80537">
        <ele>72.228</ele>
        <time>2018-07-28T16:45:30Z</time>
      </trkpt>
      <trkpt lat="42.26179" lon="-8.80542">
        <ele>71.144</ele>
        <time>2018-07-28T16:45:31Z</time>
      </trkpt>
      <trkpt lat="42.26175" lon="-8.80546">
        <ele>69.034</ele>
        <time>2018-07-28T16:45:32Z</time>
      </trkpt>
      <trkpt lat="42.26172" lon="-8.80551">
        <ele>68.255</ele>
        <time>2018-07-28T16:45:33Z</time>
      </trkpt>
      <trkpt lat="42.26168" lon="-8.80556">
        <ele>67.51</ele>
        <time>2018-07-28T16:45:34Z</time>
      </trkpt>
      <trkpt lat="42.26163" lon="-8.80564">
        <ele>66.808</ele>
        <time>2018-07-28T16:45:35Z</time>
      </trkpt>
      <trkpt lat="42.26158" lon="-8.80573">
        <ele>66.155</ele>
        <time>2018-07-28T16:45:36Z</time>
      </trkpt>
      <trkpt lat="42.26151" lon="-8.80583">
        <ele>65.43</ele>
        <time>2018-07-28T16:45:37Z</time>
      </trkpt>
      <trkpt lat="42.26145" lon="-8.80592">
        <ele>64.523</ele>
        <time>2018-07-28T16:45:38Z</time>
      </trkpt>
      <trkpt lat="42.26138" lon="-8.80602">
        <ele>63.415</ele>
        <time>2018-07-28T16:45:39Z</time>
      </trkpt>
      <trkpt lat="42.26132" lon="-8.80612">
        <ele>62.28</ele>
        <time>2018-07-28T16:45:40Z</time>
      </trkpt>
      <trkpt lat="42.26127" lon="-8.80621">
        <ele>61.065</ele>
        <time>2018-07-28T16:45:41Z</time>
      </trkpt>
      <trkpt lat="42.26121" lon="-8.80631">
        <ele>59.773</ele>
        <time>2018-07-28T16:45:42Z</time>
      </trkpt>
      <trkpt lat="42.26115" lon="-8.8064">
        <ele>58.579</ele>
        <time>2018-07-28T16:45:43Z</time>
      </trkpt>
      <trkpt lat="42.26109" lon="-8.80649">
        <ele>57.353</ele>
        <time>2018-07-28T16:45:44Z</time>
      </trkpt>
      <trkpt lat="42.26104" lon="-8.80659">
        <ele>56.104</ele>
        <time>2018-07-28T16:45:45Z</time>
      </trkpt>
      <trkpt lat="42.26099" lon="-8.80671">
        <ele>54.914</ele>
        <time>2018-07-28T16:45:46Z</time>
      </trkpt>
      <trkpt lat="42.26097" lon="-8.80684">
        <ele>54.008</ele>
        <time>2018-07-28T16:45:47Z</time>
      </trkpt>
      <trkpt lat="42.26096" lon="-8.80698">
        <ele>53.217</ele>
        <time>2018-07-28T16:45:48Z</time>
      </trkpt>
      <trkpt lat="42.26095" lon="-8.80714">
        <ele>53.272</ele>
        <time>2018-07-28T16:45:49Z</time>
      </trkpt>
      <trkpt lat="42.26093" lon="-8.80731">
        <ele>53.515</ele>
        <time>2018-07-28T16:45:50Z</time>
      </trkpt>
      <trkpt lat="42.26092" lon="-8.80747">
        <ele>53.647</ele>
        <time>2018-07-28T16:45:51Z</time>
      </trkpt>
      <trkpt lat="42.26091" lon="-8.80762">
        <ele>53.662</ele>
        <time>2018-07-28T16:45:52Z</time>
      </trkpt>
      <trkpt lat="42.2609" lon="-8.80777">
        <ele>53.557</ele>
        <time>2018-07-28T16:45:53Z</time>
      </trkpt>
      <trkpt lat="42.2609" lon="-8.8079">
        <ele>53.355</ele>
        <time>2018-07-28T16:45:54Z</time>
      </trkpt>
      <trkpt lat="42.2609" lon="-8.80802">
        <ele>53.111</ele>
        <time>2018-07-28T16:45:55Z</time>
      </trkpt>
      <trkpt lat="42.26091" lon="-8.80813">
        <ele>52.979</ele>
        <time>2018-07-28T16:45:56Z</time>
      </trkpt>
      <trkpt lat="42.26092" lon="-8.80824">
        <ele>52.705</ele>
        <time>2018-07-28T16:45:57Z</time>
      </trkpt>
      <trkpt lat="42.26093" lon="-8.80834">
        <ele>52.525</ele>
        <time>2018-07-28T16:45:58Z</time>
      </trkpt>
      <trkpt lat="42.26094" lon="-8.80845">
        <ele>52.208</ele>
        <time>2018-07-28T16:45:59Z</time>
      </trkpt>
      <trkpt lat="42.26097" lon="-8.80856">
        <ele>51.999</ele>
        <time>2018-07-28T16:46:00Z</time>
      </trkpt>
      <trkpt lat="42.26099" lon="-8.80866">
        <ele>51.574</ele>
        <time>2018-07-28T16:46:01Z</time>
      </trkpt>
      <trkpt lat="42.26102" lon="-8.80875">
        <ele>50.827</ele>
        <time>2018-07-28T16:46:02Z</time>
      </trkpt>
      <trkpt lat="42.26105" lon="-8.80883">
        <ele>49.919</ele>
        <time>2018-07-28T16:46:03Z</time>
      </trkpt>
      <trkpt lat="42.26107" lon="-8.80889">
        <ele>49.084</ele>
        <time>2018-07-28T16:46:04Z</time>
      </trkpt>
      <trkpt lat="42.2611" lon="-8.80898">
        <ele>45.889</ele>
        <time>2018-07-28T16:46:06Z</time>
      </trkpt>
      <trkpt lat="42.26112" lon="-8.80906">
        <ele>44.567</ele>
        <time>2018-07-28T16:46:08Z</time>
      </trkpt>
      <trkpt lat="42.26111" lon="-8.80914">
        <ele>43.823</ele>
        <time>2018-07-28T16:46:10Z</time>
      </trkpt>
      <trkpt lat="42.26105" lon="-8.80922">
        <ele>43.354</ele>
        <time>2018-07-28T16:46:12Z</time>
      </trkpt>
      <trkpt lat="42.26101" lon="-8.80927">
        <ele>42.956</ele>
        <time>2018-07-28T16:46:13Z</time>
      </trkpt>
      <trkpt lat="42.26097" lon="-8.80932">
        <ele>42.411</ele>
        <time>2018-07-28T16:46:14Z</time>
      </trkpt>
      <trkpt lat="42.26093" lon="-8.80938">
        <ele>41.808</ele>
        <time>2018-07-28T16:46:15Z</time>
      </trkpt>
      <trkpt lat="42.26089" lon="-8.80943">
        <ele>41.117</ele>
        <time>2018-07-28T16:46:16Z</time>
      </trkpt>
      <trkpt lat="42.26085" lon="-8.80949">
        <ele>40.372</ele>
        <time>2018-07-28T16:46:17Z</time>
      </trkpt>
      <trkpt lat="42.26081" lon="-8.80955">
        <ele>39.535</ele>
        <time>2018-07-28T16:46:18Z</time>
      </trkpt>
      <trkpt lat="42.26078" lon="-8.80961">
        <ele>38.797</ele>
        <time>2018-07-28T16:46:19Z</time>
      </trkpt>
      <trkpt lat="42.26075" lon="-8.80968">
        <ele>37.812</ele>
        <time>2018-07-28T16:46:20Z</time>
      </trkpt>
      <trkpt lat="42.26072" lon="-8.80975">
        <ele>37.027</ele>
        <time>2018-07-28T16:46:21Z</time>
      </trkpt>
      <trkpt lat="42.2607" lon="-8.80983">
        <ele>36.315</ele>
        <time>2018-07-28T16:46:22Z</time>
      </trkpt>
      <trkpt lat="42.26068" lon="-8.80992">
        <ele>34.681</ele>
        <time>2018-07-28T16:46:23Z</time>
      </trkpt>
      <trkpt lat="42.26066" lon="-8.81001">
        <ele>33.749</ele>
        <time>2018-07-28T16:46:24Z</time>
      </trkpt>
      <trkpt lat="42.26064" lon="-8.81011">
        <ele>32.802</ele>
        <time>2018-07-28T16:46:25Z</time>
      </trkpt>
      <trkpt lat="42.2606" lon="-8.81021">
        <ele>31.822</ele>
        <time>2018-07-28T16:46:26Z</time>
      </trkpt>
      <trkpt lat="42.26056" lon="-8.81031">
        <ele>30.708</ele>
        <time>2018-07-28T16:46:27Z</time>
      </trkpt>
      <trkpt lat="42.26052" lon="-8.81041">
        <ele>29.636</ele>
        <time>2018-07-28T16:46:28Z</time>
      </trkpt>
      <trkpt lat="42.26048" lon="-8.8105">
        <ele>28.491</ele>
        <time>2018-07-28T16:46:29Z</time>
      </trkpt>
      <trkpt lat="42.26044" lon="-8.8106">
        <ele>27.274</ele>
        <time>2018-07-28T16:46:30Z</time>
      </trkpt>
      <trkpt lat="42.26041" lon="-8.81069">
        <ele>26.046</ele>
        <time>2018-07-28T16:46:31Z</time>
      </trkpt>
      <trkpt lat="42.26037" lon="-8.81079">
        <ele>24.941</ele>
        <time>2018-07-28T16:46:32Z</time>
      </trkpt>
      <trkpt lat="42.26034" lon="-8.81088">
        <ele>24.076</ele>
        <time>2018-07-28T16:46:33Z</time>
      </trkpt>
      <trkpt lat="42.26032" lon="-8.81097">
        <ele>23.364</ele>
        <time>2018-07-28T16:46:34Z</time>
      </trkpt>
      <trkpt lat="42.26029" lon="-8.81107">
        <ele>22.66</ele>
        <time>2018-07-28T16:46:35Z</time>
      </trkpt>
      <trkpt lat="42.26027" lon="-8.81116">
        <ele>21.989</ele>
        <time>2018-07-28T16:46:36Z</time>
      </trkpt>
      <trkpt lat="42.26025" lon="-8.81126">
        <ele>21.406</ele>
        <time>2018-07-28T16:46:37Z</time>
      </trkpt>
      <trkpt lat="42.26022" lon="-8.81135">
        <ele>20.926</ele>
        <time>2018-07-28T16:46:38Z</time>
      </trkpt>
      <trkpt lat="42.2602" lon="-8.81144">
        <ele>20.308</ele>
        <time>2018-07-28T16:46:39Z</time>
      </trkpt>
      <trkpt lat="42.2602" lon="-8.81152">
        <ele>19.19</ele>
        <time>2018-07-28T16:46:40Z</time>
      </trkpt>
      <trkpt lat="42.2602" lon="-8.81159">
        <ele>18.415</ele>
        <time>2018-07-28T16:46:41Z</time>
      </trkpt>
      <trkpt lat="42.26019" lon="-8.8117">
        <ele>17.168</ele>
        <time>2018-07-28T16:46:43Z</time>
      </trkpt>
      <trkpt lat="42.26019" lon="-8.81177">
        <ele>15.83</ele>
        <time>2018-07-28T16:46:45Z</time>
      </trkpt>
      <trkpt lat="42.26018" lon="-8.81184">
        <ele>14.975</ele>
        <time>2018-07-28T16:46:47Z</time>
      </trkpt>
      <trkpt lat="42.26017" lon="-8.81191">
        <ele>14.42</ele>
        <time>2018-07-28T16:46:49Z</time>
      </trkpt>
      <trkpt lat="42.26016" lon="-8.81199">
        <ele>14.198</ele>
        <time>2018-07-28T16:46:51Z</time>
      </trkpt>
      <trkpt lat="42.26014" lon="-8.81206">
        <ele>13.524</ele>
        <time>2018-07-28T16:46:53Z</time>
      </trkpt>
      <trkpt lat="42.26014" lon="-8.81213">
        <ele>12.635</ele>
        <time>2018-07-28T16:46:56Z</time>
      </trkpt>
      <trkpt lat="42.26015" lon="-8.81219">
        <ele>11.686</ele>
        <time>2018-07-28T16:47:12Z</time>
      </trkpt>
      <trkpt lat="42.26011" lon="-8.81223">
        <ele>11.914</ele>
        <time>2018-07-28T16:47:27Z</time>
      </trkpt>
      <trkpt lat="42.2601" lon="-8.8123">
        <ele>11.508</ele>
        <time>2018-07-28T16:47:31Z</time>
      </trkpt>
      <trkpt lat="42.26009" lon="-8.81237">
        <ele>10.825</ele>
        <time>2018-07-28T16:47:34Z</time>
      </trkpt>
      <trkpt lat="42.26007" lon="-8.81242">
        <ele>10.21</ele>
        <time>2018-07-28T16:47:44Z</time>
      </trkpt>
      <trkpt lat="42.26001" lon="-8.81242">
        <ele>10.113</ele>
        <time>2018-07-28T16:47:55Z</time>
      </trkpt>
      <trkpt lat="42.25995" lon="-8.8124">
        <ele>10.135</ele>
        <time>2018-07-28T16:47:58Z</time>
      </trkpt>
      <trkpt lat="42.2599" lon="-8.81237">
        <ele>10.02</ele>
        <time>2018-07-28T16:48:01Z</time>
      </trkpt>
      <trkpt lat="42.25987" lon="-8.81232">
        <ele>9.955</ele>
        <time>2018-07-28T16:48:04Z</time>
      </trkpt>
      <trkpt lat="42.25984" lon="-8.81226">
        <ele>9.633</ele>
        <time>2018-07-28T16:48:08Z</time>
      </trkpt>
      <trkpt lat="42.25984" lon="-8.81219">
        <ele>9.559</ele>
        <time>2018-07-28T16:48:13Z</time>
      </trkpt>
      <trkpt lat="42.2599" lon="-8.81218">
        <ele>9.749</ele>
        <time>2018-07-28T16:48:16Z</time>
      </trkpt>
      <trkpt lat="42.25994" lon="-8.8122">
        <ele>10.102</ele>
        <time>2018-07-28T16:48:18Z</time>
      </trkpt>
      <trkpt lat="42.26001" lon="-8.81222">
        <ele>10.522</ele>
        <time>2018-07-28T16:48:21Z</time>
      </trkpt>
      <trkpt lat="42.26006" lon="-8.81225">
        <ele>10.708</ele>
        <time>2018-07-28T16:48:24Z</time>
      </trkpt>
      <trkpt lat="42.26011" lon="-8.81222">
        <ele>11.256</ele>
        <time>2018-07-28T16:48:27Z</time>
      </trkpt>
      <trkpt lat="42.26012" lon="-8.81215">
        <ele>11.581</ele>
        <time>2018-07-28T16:48:29Z</time>
      </trkpt>
      <trkpt lat="42.26014" lon="-8.81209">
        <ele>11.954</ele>
        <time>2018-07-28T16:48:31Z</time>
      </trkpt>
      <trkpt lat="42.26016" lon="-8.81203">
        <ele>12.386</ele>
        <time>2018-07-28T16:48:33Z</time>
      </trkpt>
      <trkpt lat="42.26017" lon="-8.81197">
        <ele>12.651</ele>
        <time>2018-07-28T16:48:35Z</time>
      </trkpt>
      <trkpt lat="42.26018" lon="-8.8119">
        <ele>12.926</ele>
        <time>2018-07-28T16:48:37Z</time>
      </trkpt>
      <trkpt lat="42.2602" lon="-8.81183">
        <ele>13.264</ele>
        <time>2018-07-28T16:48:39Z</time>
      </trkpt>
      <trkpt lat="42.26021" lon="-8.81174">
        <ele>13.57</ele>
        <time>2018-07-28T16:48:41Z</time>
      </trkpt>
      <trkpt lat="42.26023" lon="-8.81167">
        <ele>13.743</ele>
        <time>2018-07-28T16:48:42Z</time>
      </trkpt>
      <trkpt lat="42.26024" lon="-8.81159">
        <ele>14.364</ele>
        <time>2018-07-28T16:48:43Z</time>
      </trkpt>
      <trkpt lat="42.26025" lon="-8.81151">
        <ele>14.81</ele>
        <time>2018-07-28T16:48:44Z</time>
      </trkpt>
      <trkpt lat="42.26025" lon="-8.81142">
        <ele>15.308</ele>
        <time>2018-07-28T16:48:45Z</time>
      </trkpt>
      <trkpt lat="42.26027" lon="-8.81134">
        <ele>15.886</ele>
        <time>2018-07-28T16:48:46Z</time>
      </trkpt>
      <trkpt lat="42.26028" lon="-8.81127">
        <ele>16.321</ele>
        <time>2018-07-28T16:48:47Z</time>
      </trkpt>
      <trkpt lat="42.26031" lon="-8.81117">
        <ele>17.364</ele>
        <time>2018-07-28T16:48:49Z</time>
      </trkpt>
      <trkpt lat="42.26034" lon="-8.81108">
        <ele>18.166</ele>
        <time>2018-07-28T16:48:51Z</time>
      </trkpt>
      <trkpt lat="42.26037" lon="-8.81097">
        <ele>18.951</ele>
        <time>2018-07-28T16:48:53Z</time>
      </trkpt>
      <trkpt lat="42.26039" lon="-8.8109">
        <ele>19.396</ele>
        <time>2018-07-28T16:48:54Z</time>
      </trkpt>
      <trkpt lat="42.26042" lon="-8.81083">
        <ele>19.764</ele>
        <time>2018-07-28T16:48:55Z</time>
      </trkpt>
      <trkpt lat="42.26044" lon="-8.81074">
        <ele>20.19</ele>
        <time>2018-07-28T16:48:56Z</time>
      </trkpt>
      <trkpt lat="42.26047" lon="-8.81067">
        <ele>20.692</ele>
        <time>2018-07-28T16:48:57Z</time>
      </trkpt>
      <trkpt lat="42.2605" lon="-8.81058">
        <ele>21.173</ele>
        <time>2018-07-28T16:48:58Z</time>
      </trkpt>
      <trkpt lat="42.26054" lon="-8.81049">
        <ele>21.72</ele>
        <time>2018-07-28T16:48:59Z</time>
      </trkpt>
      <trkpt lat="42.26058" lon="-8.8104">
        <ele>22.408</ele>
        <time>2018-07-28T16:49:00Z</time>
      </trkpt>
      <trkpt lat="42.26061" lon="-8.81032">
        <ele>23.971</ele>
        <time>2018-07-28T16:49:01Z</time>
      </trkpt>
      <trkpt lat="42.26064" lon="-8.81024">
        <ele>24.896</ele>
        <time>2018-07-28T16:49:02Z</time>
      </trkpt>
      <trkpt lat="42.26067" lon="-8.81017">
        <ele>25.789</ele>
        <time>2018-07-28T16:49:03Z</time>
      </trkpt>
      <trkpt lat="42.2607" lon="-8.81009">
        <ele>26.671</ele>
        <time>2018-07-28T16:49:04Z</time>
      </trkpt>
      <trkpt lat="42.26071" lon="-8.81001">
        <ele>27.666</ele>
        <time>2018-07-28T16:49:05Z</time>
      </trkpt>
      <trkpt lat="42.26073" lon="-8.80994">
        <ele>28.661</ele>
        <time>2018-07-28T16:49:06Z</time>
      </trkpt>
      <trkpt lat="42.26074" lon="-8.80986">
        <ele>29.619</ele>
        <time>2018-07-28T16:49:07Z</time>
      </trkpt>
      <trkpt lat="42.26076" lon="-8.80978">
        <ele>30.775</ele>
        <time>2018-07-28T16:49:08Z</time>
      </trkpt>
      <trkpt lat="42.26078" lon="-8.8097">
        <ele>31.826</ele>
        <time>2018-07-28T16:49:09Z</time>
      </trkpt>
      <trkpt lat="42.2608" lon="-8.80963">
        <ele>32.847</ele>
        <time>2018-07-28T16:49:10Z</time>
      </trkpt>
      <trkpt lat="42.26081" lon="-8.80956">
        <ele>33.711</ele>
        <time>2018-07-28T16:49:11Z</time>
      </trkpt>
      <trkpt lat="42.26084" lon="-8.8095">
        <ele>34.508</ele>
        <time>2018-07-28T16:49:12Z</time>
      </trkpt>
      <trkpt lat="42.26088" lon="-8.80944">
        <ele>35.314</ele>
        <time>2018-07-28T16:49:13Z</time>
      </trkpt>
      <trkpt lat="42.26093" lon="-8.80938">
        <ele>36.169</ele>
        <time>2018-07-28T16:49:14Z</time>
      </trkpt>
      <trkpt lat="42.26097" lon="-8.80932">
        <ele>37.092</ele>
        <time>2018-07-28T16:49:15Z</time>
      </trkpt>
      <trkpt lat="42.261" lon="-8.80928">
        <ele>37.884</ele>
        <time>2018-07-28T16:49:16Z</time>
      </trkpt>
      <trkpt lat="42.26104" lon="-8.80921">
        <ele>39.369</ele>
        <time>2018-07-28T16:49:18Z</time>
      </trkpt>
      <trkpt lat="42.26108" lon="-8.80914">
        <ele>40.944</ele>
        <time>2018-07-28T16:49:20Z</time>
      </trkpt>
      <trkpt lat="42.26113" lon="-8.80913">
        <ele>42.362</ele>
        <time>2018-07-28T16:49:32Z</time>
      </trkpt>
      <trkpt lat="42.26118" lon="-8.80925">
        <ele>42.788</ele>
        <time>2018-07-28T16:49:34Z</time>
      </trkpt>
      <trkpt lat="42.26119" lon="-8.80933">
        <ele>43.093</ele>
        <time>2018-07-28T16:49:35Z</time>
      </trkpt>
      <trkpt lat="42.26121" lon="-8.80942">
        <ele>43.265</ele>
        <time>2018-07-28T16:49:36Z</time>
      </trkpt>
      <trkpt lat="42.26123" lon="-8.80951">
        <ele>43.321</ele>
        <time>2018-07-28T16:49:37Z</time>
      </trkpt>
      <trkpt lat="42.26126" lon="-8.80959">
        <ele>43.308</ele>
        <time>2018-07-28T16:49:38Z</time>
      </trkpt>
      <trkpt lat="42.26129" lon="-8.80967">
        <ele>43.141</ele>
        <time>2018-07-28T16:49:39Z</time>
      </trkpt>
      <trkpt lat="42.26132" lon="-8.80975">
        <ele>42.716</ele>
        <time>2018-07-28T16:49:40Z</time>
      </trkpt>
      <trkpt lat="42.26136" lon="-8.80982">
        <ele>42.219</ele>
        <time>2018-07-28T16:49:41Z</time>
      </trkpt>
      <trkpt lat="42.26139" lon="-8.8099">
        <ele>41.681</ele>
        <time>2018-07-28T16:49:42Z</time>
      </trkpt>
      <trkpt lat="42.26143" lon="-8.80997">
        <ele>41.026</ele>
        <time>2018-07-28T16:49:43Z</time>
      </trkpt>
      <trkpt lat="42.26147" lon="-8.81004">
        <ele>40.351</ele>
        <time>2018-07-28T16:49:44Z</time>
      </trkpt>
      <trkpt lat="42.26151" lon="-8.81009">
        <ele>39.799</ele>
        <time>2018-07-28T16:49:45Z</time>
      </trkpt>
      <trkpt lat="42.26155" lon="-8.81014">
        <ele>39.215</ele>
        <time>2018-07-28T16:49:46Z</time>
      </trkpt>
      <trkpt lat="42.26159" lon="-8.81017">
        <ele>38.798</ele>
        <time>2018-07-28T16:49:47Z</time>
      </trkpt>
      <trkpt lat="42.26166" lon="-8.81022">
        <ele>37.615</ele>
        <time>2018-07-28T16:49:49Z</time>
      </trkpt>
      <trkpt lat="42.26173" lon="-8.81025">
        <ele>36.526</ele>
        <time>2018-07-28T16:49:51Z</time>
      </trkpt>
      <trkpt lat="42.2618" lon="-8.81029">
        <ele>35.608</ele>
        <time>2018-07-28T16:49:53Z</time>
      </trkpt>
      <trkpt lat="42.26184" lon="-8.81038">
        <ele>34.971</ele>
        <time>2018-07-28T16:49:55Z</time>
      </trkpt>
      <trkpt lat="42.26182" lon="-8.81044">
        <ele>34.236</ele>
        <time>2018-07-28T16:49:56Z</time>
      </trkpt>
      <trkpt lat="42.26178" lon="-8.8105">
        <ele>33.829</ele>
        <time>2018-07-28T16:49:57Z</time>
      </trkpt>
      <trkpt lat="42.26175" lon="-8.81055">
        <ele>33.381</ele>
        <time>2018-07-28T16:49:58Z</time>
      </trkpt>
      <trkpt lat="42.2617" lon="-8.81063">
        <ele>32.156</ele>
        <time>2018-07-28T16:50:00Z</time>
      </trkpt>
      <trkpt lat="42.26168" lon="-8.81074">
        <ele>30.951</ele>
        <time>2018-07-28T16:50:02Z</time>
      </trkpt>
      <trkpt lat="42.26167" lon="-8.81082">
        <ele>30.579</ele>
        <time>2018-07-28T16:50:03Z</time>
      </trkpt>
      <trkpt lat="42.26165" lon="-8.81091">
        <ele>30.125</ele>
        <time>2018-07-28T16:50:04Z</time>
      </trkpt>
      <trkpt lat="42.26166" lon="-8.81102">
        <ele>29.799</ele>
        <time>2018-07-28T16:50:05Z</time>
      </trkpt>
      <trkpt lat="42.26168" lon="-8.81113">
        <ele>29.207</ele>
        <time>2018-07-28T16:50:06Z</time>
      </trkpt>
      <trkpt lat="42.2617" lon="-8.81124">
        <ele>28.727</ele>
        <time>2018-07-28T16:50:07Z</time>
      </trkpt>
      <trkpt lat="42.26171" lon="-8.81137">
        <ele>28.108</ele>
        <time>2018-07-28T16:50:08Z</time>
      </trkpt>
      <trkpt lat="42.26172" lon="-8.8115">
        <ele>27.431</ele>
        <time>2018-07-28T16:50:09Z</time>
      </trkpt>
      <trkpt lat="42.26174" lon="-8.81164">
        <ele>26.746</ele>
        <time>2018-07-28T16:50:10Z</time>
      </trkpt>
      <trkpt lat="42.26176" lon="-8.81178">
        <ele>26.199</ele>
        <time>2018-07-28T16:50:11Z</time>
      </trkpt>
      <trkpt lat="42.2618" lon="-8.81192">
        <ele>25.431</ele>
        <time>2018-07-28T16:50:12Z</time>
      </trkpt>
      <trkpt lat="42.26182" lon="-8.81207">
        <ele>24.716</ele>
        <time>2018-07-28T16:50:13Z</time>
      </trkpt>
      <trkpt lat="42.26184" lon="-8.81221">
        <ele>23.121</ele>
        <time>2018-07-28T16:50:14Z</time>
      </trkpt>
      <trkpt lat="42.26185" lon="-8.81236">
        <ele>22.279</ele>
        <time>2018-07-28T16:50:15Z</time>
      </trkpt>
      <trkpt lat="42.26186" lon="-8.81251">
        <ele>21.595</ele>
        <time>2018-07-28T16:50:16Z</time>
      </trkpt>
      <trkpt lat="42.26187" lon="-8.81266">
        <ele>20.795</ele>
        <time>2018-07-28T16:50:17Z</time>
      </trkpt>
      <trkpt lat="42.26186" lon="-8.81282">
        <ele>20.049</ele>
        <time>2018-07-28T16:50:18Z</time>
      </trkpt>
      <trkpt lat="42.26184" lon="-8.81297">
        <ele>19.523</ele>
        <time>2018-07-28T16:50:19Z</time>
      </trkpt>
      <trkpt lat="42.26182" lon="-8.81312">
        <ele>19.108</ele>
        <time>2018-07-28T16:50:20Z</time>
      </trkpt>
      <trkpt lat="42.26182" lon="-8.81328">
        <ele>18.721</ele>
        <time>2018-07-28T16:50:21Z</time>
      </trkpt>
      <trkpt lat="42.26182" lon="-8.81344">
        <ele>18.286</ele>
        <time>2018-07-28T16:50:22Z</time>
      </trkpt>
      <trkpt lat="42.2618" lon="-8.81359">
        <ele>17.849</ele>
        <time>2018-07-28T16:50:23Z</time>
      </trkpt>
      <trkpt lat="42.26179" lon="-8.81375">
        <ele>17.421</ele>
        <time>2018-07-28T16:50:24Z</time>
      </trkpt>
      <trkpt lat="42.26178" lon="-8.81391">
        <ele>17.046</ele>
        <time>2018-07-28T16:50:25Z</time>
      </trkpt>
      <trkpt lat="42.26178" lon="-8.81407">
        <ele>16.631</ele>
        <time>2018-07-28T16:50:26Z</time>
      </trkpt>
      <trkpt lat="42.26177" lon="-8.81422">
        <ele>16.349</ele>
        <time>2018-07-28T16:50:27Z</time>
      </trkpt>
      <trkpt lat="42.26176" lon="-8.81438">
        <ele>15.815</ele>
        <time>2018-07-28T16:50:28Z</time>
      </trkpt>
      <trkpt lat="42.26175" lon="-8.81453">
        <ele>15.378</ele>
        <time>2018-07-28T16:50:29Z</time>
      </trkpt>
      <trkpt lat="42.26175" lon="-8.81468">
        <ele>14.833</ele>
        <time>2018-07-28T16:50:30Z</time>
      </trkpt>
      <trkpt lat="42.26176" lon="-8.81481">
        <ele>14.326</ele>
        <time>2018-07-28T16:50:31Z</time>
      </trkpt>
      <trkpt lat="42.26177" lon="-8.81495">
        <ele>13.508</ele>
        <time>2018-07-28T16:50:32Z</time>
      </trkpt>
      <trkpt lat="42.26178" lon="-8.81508">
        <ele>13.069</ele>
        <time>2018-07-28T16:50:33Z</time>
      </trkpt>
      <trkpt lat="42.2618" lon="-8.81521">
        <ele>12.524</ele>
        <time>2018-07-28T16:50:34Z</time>
      </trkpt>
      <trkpt lat="42.26181" lon="-8.81533">
        <ele>11.917</ele>
        <time>2018-07-28T16:50:35Z</time>
      </trkpt>
      <trkpt lat="42.26182" lon="-8.81544">
        <ele>11.439</ele>
        <time>2018-07-28T16:50:36Z</time>
      </trkpt>
      <trkpt lat="42.26184" lon="-8.81554">
        <ele>10.824</ele>
        <time>2018-07-28T16:50:37Z</time>
      </trkpt>
      <trkpt lat="42.26185" lon="-8.81565">
        <ele>10.329</ele>
        <time>2018-07-28T16:50:38Z</time>
      </trkpt>
      <trkpt lat="42.26187" lon="-8.81576">
        <ele>9.817</ele>
        <time>2018-07-28T16:50:39Z</time>
      </trkpt>
      <trkpt lat="42.26189" lon="-8.81585">
        <ele>9.343</ele>
        <time>2018-07-28T16:50:40Z</time>
      </trkpt>
      <trkpt lat="42.26192" lon="-8.81595">
        <ele>8.965</ele>
        <time>2018-07-28T16:50:41Z</time>
      </trkpt>
      <trkpt lat="42.26195" lon="-8.81603">
        <ele>8.768</ele>
        <time>2018-07-28T16:50:42Z</time>
      </trkpt>
      <trkpt lat="42.262" lon="-8.81611">
        <ele>8.514</ele>
        <time>2018-07-28T16:50:43Z</time>
      </trkpt>
      <trkpt lat="42.26205" lon="-8.81618">
        <ele>8.508</ele>
        <time>2018-07-28T16:50:44Z</time>
      </trkpt>
      <trkpt lat="42.26209" lon="-8.81629">
        <ele>8.648</ele>
        <time>2018-07-28T16:50:45Z</time>
      </trkpt>
      <trkpt lat="42.26211" lon="-8.81643">
        <ele>8.783</ele>
        <time>2018-07-28T16:50:46Z</time>
      </trkpt>
      <trkpt lat="42.2621" lon="-8.81657">
        <ele>8.846</ele>
        <time>2018-07-28T16:50:47Z</time>
      </trkpt>
      <trkpt lat="42.2621" lon="-8.81671">
        <ele>9.088</ele>
        <time>2018-07-28T16:50:48Z</time>
      </trkpt>
      <trkpt lat="42.26209" lon="-8.81684">
        <ele>9.033</ele>
        <time>2018-07-28T16:50:49Z</time>
      </trkpt>
      <trkpt lat="42.26208" lon="-8.81697">
        <ele>9.088</ele>
        <time>2018-07-28T16:50:50Z</time>
      </trkpt>
      <trkpt lat="42.26205" lon="-8.81708">
        <ele>9.056</ele>
        <time>2018-07-28T16:50:51Z</time>
      </trkpt>
      <trkpt lat="42.26203" lon="-8.8172">
        <ele>9.062</ele>
        <time>2018-07-28T16:50:52Z</time>
      </trkpt>
      <trkpt lat="42.26199" lon="-8.81732">
        <ele>9.059</ele>
        <time>2018-07-28T16:50:53Z</time>
      </trkpt>
      <trkpt lat="42.26194" lon="-8.81742">
        <ele>9.103</ele>
        <time>2018-07-28T16:50:54Z</time>
      </trkpt>
      <trkpt lat="42.26189" lon="-8.8175">
        <ele>9.123</ele>
        <time>2018-07-28T16:50:55Z</time>
      </trkpt>
      <trkpt lat="42.26184" lon="-8.81758">
        <ele>9.108</ele>
        <time>2018-07-28T16:50:56Z</time>
      </trkpt>
      <trkpt lat="42.2618" lon="-8.81766">
        <ele>8.997</ele>
        <time>2018-07-28T16:50:57Z</time>
      </trkpt>
      <trkpt lat="42.26181" lon="-8.81773">
        <ele>8.712</ele>
        <time>2018-07-28T16:50:58Z</time>
      </trkpt>
      <trkpt lat="42.26183" lon="-8.81781">
        <ele>8.465</ele>
        <time>2018-07-28T16:50:59Z</time>
      </trkpt>
      <trkpt lat="42.26186" lon="-8.81788">
        <ele>8.257</ele>
        <time>2018-07-28T16:51:00Z</time>
      </trkpt>
      <trkpt lat="42.2619" lon="-8.81794">
        <ele>8.212</ele>
        <time>2018-07-28T16:51:01Z</time>
      </trkpt>
      <trkpt lat="42.26195" lon="-8.81801">
        <ele>8.257</ele>
        <time>2018-07-28T16:51:02Z</time>
      </trkpt>
      <trkpt lat="42.26199" lon="-8.81807">
        <ele>8.435</ele>
        <time>2018-07-28T16:51:03Z</time>
      </trkpt>
      <trkpt lat="42.26202" lon="-8.81812">
        <ele>8.861</ele>
        <time>2018-07-28T16:51:04Z</time>
      </trkpt>
      <trkpt lat="42.26204" lon="-8.81818">
        <ele>9.599</ele>
        <time>2018-07-28T16:51:06Z</time>
      </trkpt>
      <trkpt lat="42.26208" lon="-8.81823">
        <ele>10.707</ele>
        <time>2018-07-28T16:51:09Z</time>
      </trkpt>
      <trkpt lat="42.26212" lon="-8.81832">
        <ele>11.427</ele>
        <time>2018-07-28T16:51:11Z</time>
      </trkpt>
      <trkpt lat="42.26219" lon="-8.81835">
        <ele>11.908</ele>
        <time>2018-07-28T16:51:12Z</time>
      </trkpt>
      <trkpt lat="42.26226" lon="-8.81837">
        <ele>12.561</ele>
        <time>2018-07-28T16:51:13Z</time>
      </trkpt>
      <trkpt lat="42.26233" lon="-8.81839">
        <ele>13.316</ele>
        <time>2018-07-28T16:51:14Z</time>
      </trkpt>
      <trkpt lat="42.26239" lon="-8.81842">
        <ele>14.179</ele>
        <time>2018-07-28T16:51:15Z</time>
      </trkpt>
      <trkpt lat="42.26244" lon="-8.81846">
        <ele>14.821</ele>
        <time>2018-07-28T16:51:16Z</time>
      </trkpt>
      <trkpt lat="42.26249" lon="-8.81849">
        <ele>15.386</ele>
        <time>2018-07-28T16:51:17Z</time>
      </trkpt>
      <trkpt lat="42.26255" lon="-8.81856">
        <ele>15.951</ele>
        <time>2018-07-28T16:51:19Z</time>
      </trkpt>
      <trkpt lat="42.2626" lon="-8.81859">
        <ele>16.149</ele>
        <time>2018-07-28T16:51:22Z</time>
      </trkpt>
      <trkpt lat="42.26255" lon="-8.81862">
        <ele>16.485</ele>
        <time>2018-07-28T16:51:26Z</time>
      </trkpt>
      <trkpt lat="42.2625" lon="-8.81862">
        <ele>17.084</ele>
        <time>2018-07-28T16:51:27Z</time>
      </trkpt>
      <trkpt lat="42.26244" lon="-8.81865">
        <ele>17.707</ele>
        <time>2018-07-28T16:51:28Z</time>
      </trkpt>
      <trkpt lat="42.26237" lon="-8.81866">
        <ele>18.617</ele>
        <time>2018-07-28T16:51:29Z</time>
      </trkpt>
      <trkpt lat="42.26231" lon="-8.81868">
        <ele>19.308</ele>
        <time>2018-07-28T16:51:30Z</time>
      </trkpt>
      <trkpt lat="42.26224" lon="-8.81868">
        <ele>20.06</ele>
        <time>2018-07-28T16:51:31Z</time>
      </trkpt>
      <trkpt lat="42.26217" lon="-8.81868">
        <ele>20.585</ele>
        <time>2018-07-28T16:51:32Z</time>
      </trkpt>
      <trkpt lat="42.2621" lon="-8.81869">
        <ele>20.878</ele>
        <time>2018-07-28T16:51:33Z</time>
      </trkpt>
      <trkpt lat="42.26202" lon="-8.8187">
        <ele>21.05</ele>
        <time>2018-07-28T16:51:34Z</time>
      </trkpt>
      <trkpt lat="42.26194" lon="-8.81871">
        <ele>21.445</ele>
        <time>2018-07-28T16:51:35Z</time>
      </trkpt>
      <trkpt lat="42.26186" lon="-8.81872">
        <ele>21.96</ele>
        <time>2018-07-28T16:51:36Z</time>
      </trkpt>
      <trkpt lat="42.26179" lon="-8.81874">
        <ele>22.548</ele>
        <time>2018-07-28T16:51:37Z</time>
      </trkpt>
      <trkpt lat="42.26172" lon="-8.81875">
        <ele>23.174</ele>
        <time>2018-07-28T16:51:38Z</time>
      </trkpt>
      <trkpt lat="42.26166" lon="-8.81878">
        <ele>23.666</ele>
        <time>2018-07-28T16:51:39Z</time>
      </trkpt>
      <trkpt lat="42.26162" lon="-8.81886">
        <ele>24.129</ele>
        <time>2018-07-28T16:51:40Z</time>
      </trkpt>
      <trkpt lat="42.26158" lon="-8.81893">
        <ele>24.621</ele>
        <time>2018-07-28T16:51:41Z</time>
      </trkpt>
      <trkpt lat="42.26155" lon="-8.81901">
        <ele>25.208</ele>
        <time>2018-07-28T16:51:42Z</time>
      </trkpt>
      <trkpt lat="42.26153" lon="-8.81906">
        <ele>25.938</ele>
        <time>2018-07-28T16:51:43Z</time>
      </trkpt>
      <trkpt lat="42.26149" lon="-8.81917">
        <ele>28.073</ele>
        <time>2018-07-28T16:51:45Z</time>
      </trkpt>
      <trkpt lat="42.26142" lon="-8.81922">
        <ele>29.446</ele>
        <time>2018-07-28T16:51:47Z</time>
      </trkpt>
      <trkpt lat="42.26136" lon="-8.81918">
        <ele>30.388</ele>
        <time>2018-07-28T16:51:48Z</time>
      </trkpt>
      <trkpt lat="42.26128" lon="-8.81915">
        <ele>31.283</ele>
        <time>2018-07-28T16:51:49Z</time>
      </trkpt>
      <trkpt lat="42.26122" lon="-8.8191">
        <ele>32.238</ele>
        <time>2018-07-28T16:51:50Z</time>
      </trkpt>
      <trkpt lat="42.26115" lon="-8.81904">
        <ele>33.296</ele>
        <time>2018-07-28T16:51:51Z</time>
      </trkpt>
      <trkpt lat="42.2611" lon="-8.81898">
        <ele>34.182</ele>
        <time>2018-07-28T16:51:52Z</time>
      </trkpt>
      <trkpt lat="42.26105" lon="-8.81893">
        <ele>34.833</ele>
        <time>2018-07-28T16:51:53Z</time>
      </trkpt>
      <trkpt lat="42.261" lon="-8.81889">
        <ele>35.323</ele>
        <time>2018-07-28T16:51:54Z</time>
      </trkpt>
      <trkpt lat="42.26096" lon="-8.81883">
        <ele>35.815</ele>
        <time>2018-07-28T16:51:55Z</time>
      </trkpt>
      <trkpt lat="42.26092" lon="-8.81877">
        <ele>36.208</ele>
        <time>2018-07-28T16:51:56Z</time>
      </trkpt>
      <trkpt lat="42.26088" lon="-8.81872">
        <ele>36.675</ele>
        <time>2018-07-28T16:51:57Z</time>
      </trkpt>
      <trkpt lat="42.26084" lon="-8.81867">
        <ele>36.96</ele>
        <time>2018-07-28T16:51:58Z</time>
      </trkpt>
      <trkpt lat="42.26075" lon="-8.81866">
        <ele>37.353</ele>
        <time>2018-07-28T16:52:00Z</time>
      </trkpt>
      <trkpt lat="42.26069" lon="-8.81867">
        <ele>37.555</ele>
        <time>2018-07-28T16:52:01Z</time>
      </trkpt>
      <trkpt lat="42.26064" lon="-8.81874">
        <ele>37.69</ele>
        <time>2018-07-28T16:52:02Z</time>
      </trkpt>
      <trkpt lat="42.26058" lon="-8.81882">
        <ele>38.385</ele>
        <time>2018-07-28T16:52:03Z</time>
      </trkpt>
      <trkpt lat="42.26052" lon="-8.81891">
        <ele>39.023</ele>
        <time>2018-07-28T16:52:04Z</time>
      </trkpt>
      <trkpt lat="42.26046" lon="-8.81899">
        <ele>39.959</ele>
        <time>2018-07-28T16:52:05Z</time>
      </trkpt>
      <trkpt lat="42.26039" lon="-8.81906">
        <ele>41.015</ele>
        <time>2018-07-28T16:52:06Z</time>
      </trkpt>
      <trkpt lat="42.26031" lon="-8.81911">
        <ele>42.365</ele>
        <time>2018-07-28T16:52:07Z</time>
      </trkpt>
      <trkpt lat="42.26023" lon="-8.81915">
        <ele>43.811</ele>
        <time>2018-07-28T16:52:08Z</time>
      </trkpt>
      <trkpt lat="42.26016" lon="-8.81917">
        <ele>45.108</ele>
        <time>2018-07-28T16:52:09Z</time>
      </trkpt>
      <trkpt lat="42.2601" lon="-8.81921">
        <ele>46.363</ele>
        <time>2018-07-28T16:52:10Z</time>
      </trkpt>
      <trkpt lat="42.26006" lon="-8.81923">
        <ele>47.538</ele>
        <time>2018-07-28T16:52:11Z</time>
      </trkpt>
      <trkpt lat="42.25999" lon="-8.81926">
        <ele>49.041</ele>
        <time>2018-07-28T16:52:13Z</time>
      </trkpt>
      <trkpt lat="42.25995" lon="-8.8193">
        <ele>49.623</ele>
        <time>2018-07-28T16:52:15Z</time>
      </trkpt>
      <trkpt lat="42.2599" lon="-8.81931">
        <ele>49.478</ele>
        <time>2018-07-28T16:52:29Z</time>
      </trkpt>
      <trkpt lat="42.25986" lon="-8.81936">
        <ele>49.943</ele>
        <time>2018-07-28T16:52:32Z</time>
      </trkpt>
      <trkpt lat="42.25985" lon="-8.81949">
        <ele>50.961</ele>
        <time>2018-07-28T16:52:34Z</time>
      </trkpt>
      <trkpt lat="42.25984" lon="-8.81957">
        <ele>51.677</ele>
        <time>2018-07-28T16:52:35Z</time>
      </trkpt>
      <trkpt lat="42.25984" lon="-8.81966">
        <ele>52.479</ele>
        <time>2018-07-28T16:52:36Z</time>
      </trkpt>
      <trkpt lat="42.25984" lon="-8.81975">
        <ele>53.105</ele>
        <time>2018-07-28T16:52:37Z</time>
      </trkpt>
      <trkpt lat="42.25983" lon="-8.81984">
        <ele>53.725</ele>
        <time>2018-07-28T16:52:38Z</time>
      </trkpt>
      <trkpt lat="42.25979" lon="-8.81991">
        <ele>55.208</ele>
        <time>2018-07-28T16:52:39Z</time>
      </trkpt>
      <trkpt lat="42.25976" lon="-8.81999">
        <ele>55.949</ele>
        <time>2018-07-28T16:52:40Z</time>
      </trkpt>
      <trkpt lat="42.25973" lon="-8.82007">
        <ele>56.784</ele>
        <time>2018-07-28T16:52:41Z</time>
      </trkpt>
      <trkpt lat="42.2597" lon="-8.82016">
        <ele>57.737</ele>
        <time>2018-07-28T16:52:42Z</time>
      </trkpt>
      <trkpt lat="42.25966" lon="-8.82026">
        <ele>58.769</ele>
        <time>2018-07-28T16:52:43Z</time>
      </trkpt>
      <trkpt lat="42.25962" lon="-8.82036">
        <ele>59.664</ele>
        <time>2018-07-28T16:52:44Z</time>
      </trkpt>
      <trkpt lat="42.25958" lon="-8.82048">
        <ele>60.439</ele>
        <time>2018-07-28T16:52:45Z</time>
      </trkpt>
      <trkpt lat="42.25955" lon="-8.82058">
        <ele>61.157</ele>
        <time>2018-07-28T16:52:46Z</time>
      </trkpt>
      <trkpt lat="42.25953" lon="-8.82068">
        <ele>61.613</ele>
        <time>2018-07-28T16:52:47Z</time>
      </trkpt>
      <trkpt lat="42.25951" lon="-8.82078">
        <ele>62.014</ele>
        <time>2018-07-28T16:52:48Z</time>
      </trkpt>
      <trkpt lat="42.2595" lon="-8.82088">
        <ele>62.354</ele>
        <time>2018-07-28T16:52:49Z</time>
      </trkpt>
      <trkpt lat="42.25949" lon="-8.82099">
        <ele>62.809</ele>
        <time>2018-07-28T16:52:50Z</time>
      </trkpt>
      <trkpt lat="42.25949" lon="-8.82111">
        <ele>63.408</ele>
        <time>2018-07-28T16:52:51Z</time>
      </trkpt>
      <trkpt lat="42.25949" lon="-8.82122">
        <ele>64.383</ele>
        <time>2018-07-28T16:52:52Z</time>
      </trkpt>
      <trkpt lat="42.25949" lon="-8.82133">
        <ele>65.398</ele>
        <time>2018-07-28T16:52:53Z</time>
      </trkpt>
      <trkpt lat="42.25949" lon="-8.82145">
        <ele>66.491</ele>
        <time>2018-07-28T16:52:54Z</time>
      </trkpt>
      <trkpt lat="42.25949" lon="-8.82156">
        <ele>67.573</ele>
        <time>2018-07-28T16:52:55Z</time>
      </trkpt>
      <trkpt lat="42.2595" lon="-8.82166">
        <ele>69.428</ele>
        <time>2018-07-28T16:52:56Z</time>
      </trkpt>
      <trkpt lat="42.25951" lon="-8.82177">
        <ele>70.163</ele>
        <time>2018-07-28T16:52:57Z</time>
      </trkpt>
      <trkpt lat="42.25952" lon="-8.82188">
        <ele>70.781</ele>
        <time>2018-07-28T16:52:58Z</time>
      </trkpt>
      <trkpt lat="42.25952" lon="-8.82199">
        <ele>71.437</ele>
        <time>2018-07-28T16:52:59Z</time>
      </trkpt>
      <trkpt lat="42.25952" lon="-8.82211">
        <ele>72.121</ele>
        <time>2018-07-28T16:53:00Z</time>
      </trkpt>
      <trkpt lat="42.25951" lon="-8.82222">
        <ele>72.841</ele>
        <time>2018-07-28T16:53:01Z</time>
      </trkpt>
      <trkpt lat="42.2595" lon="-8.82233">
        <ele>73.605</ele>
        <time>2018-07-28T16:53:02Z</time>
      </trkpt>
      <trkpt lat="42.25949" lon="-8.82243">
        <ele>74.508</ele>
        <time>2018-07-28T16:53:03Z</time>
      </trkpt>
      <trkpt lat="42.25948" lon="-8.82252">
        <ele>75.244</ele>
        <time>2018-07-28T16:53:04Z</time>
      </trkpt>
      <trkpt lat="42.2595" lon="-8.82261">
        <ele>75.659</ele>
        <time>2018-07-28T16:53:05Z</time>
      </trkpt>
      <trkpt lat="42.2595" lon="-8.8227">
        <ele>76.052</ele>
        <time>2018-07-28T16:53:06Z</time>
      </trkpt>
      <trkpt lat="42.2595" lon="-8.82279">
        <ele>76.384</ele>
        <time>2018-07-28T16:53:07Z</time>
      </trkpt>
      <trkpt lat="42.25947" lon="-8.82288">
        <ele>76.619</ele>
        <time>2018-07-28T16:53:08Z</time>
      </trkpt>
      <trkpt lat="42.25942" lon="-8.82296">
        <ele>76.934</ele>
        <time>2018-07-28T16:53:09Z</time>
      </trkpt>
      <trkpt lat="42.25937" lon="-8.82304">
        <ele>77.532</ele>
        <time>2018-07-28T16:53:10Z</time>
      </trkpt>
      <trkpt lat="42.25933" lon="-8.82312">
        <ele>78.028</ele>
        <time>2018-07-28T16:53:11Z</time>
      </trkpt>
      <trkpt lat="42.25931" lon="-8.82321">
        <ele>78.679</ele>
        <time>2018-07-28T16:53:12Z</time>
      </trkpt>
      <trkpt lat="42.25929" lon="-8.82331">
        <ele>79.105</ele>
        <time>2018-07-28T16:53:13Z</time>
      </trkpt>
      <trkpt lat="42.25927" lon="-8.8234">
        <ele>80.025</ele>
        <time>2018-07-28T16:53:14Z</time>
      </trkpt>
      <trkpt lat="42.25925" lon="-8.82349">
        <ele>80.508</ele>
        <time>2018-07-28T16:53:15Z</time>
      </trkpt>
      <trkpt lat="42.25923" lon="-8.82357">
        <ele>81.159</ele>
        <time>2018-07-28T16:53:16Z</time>
      </trkpt>
      <trkpt lat="42.25921" lon="-8.82366">
        <ele>81.744</ele>
        <time>2018-07-28T16:53:17Z</time>
      </trkpt>
      <trkpt lat="42.25919" lon="-8.82373">
        <ele>82.097</ele>
        <time>2018-07-28T16:53:18Z</time>
      </trkpt>
      <trkpt lat="42.25918" lon="-8.82379">
        <ele>82.179</ele>
        <time>2018-07-28T16:53:19Z</time>
      </trkpt>
      <trkpt lat="42.25915" lon="-8.8239">
        <ele>81.734</ele>
        <time>2018-07-28T16:53:21Z</time>
      </trkpt>
      <trkpt lat="42.25914" lon="-8.82399">
        <ele>80.679</ele>
        <time>2018-07-28T16:53:23Z</time>
      </trkpt>
      <trkpt lat="42.25914" lon="-8.82405">
        <ele>79.277</ele>
        <time>2018-07-28T16:53:35Z</time>
      </trkpt>
      <trkpt lat="42.2591" lon="-8.8241">
        <ele>79.453</ele>
        <time>2018-07-28T16:53:47Z</time>
      </trkpt>
      <trkpt lat="42.25908" lon="-8.82421">
        <ele>79.559</ele>
        <time>2018-07-28T16:53:49Z</time>
      </trkpt>
      <trkpt lat="42.25906" lon="-8.82429">
        <ele>79.503</ele>
        <time>2018-07-28T16:53:50Z</time>
      </trkpt>
      <trkpt lat="42.25905" lon="-8.82436">
        <ele>79.523</ele>
        <time>2018-07-28T16:53:51Z</time>
      </trkpt>
      <trkpt lat="42.25903" lon="-8.82443">
        <ele>79.308</ele>
        <time>2018-07-28T16:53:52Z</time>
      </trkpt>
      <trkpt lat="42.25902" lon="-8.82449">
        <ele>78.957</ele>
        <time>2018-07-28T16:53:53Z</time>
      </trkpt>
      <trkpt lat="42.259" lon="-8.8246">
        <ele>78.032</ele>
        <time>2018-07-28T16:53:55Z</time>
      </trkpt>
      <trkpt lat="42.25898" lon="-8.8247">
        <ele>77.045</ele>
        <time>2018-07-28T16:53:57Z</time>
      </trkpt>
      <trkpt lat="42.25895" lon="-8.8248">
        <ele>76.247</ele>
        <time>2018-07-28T16:53:59Z</time>
      </trkpt>
      <trkpt lat="42.25893" lon="-8.8249">
        <ele>75.472</ele>
        <time>2018-07-28T16:54:01Z</time>
      </trkpt>
      <trkpt lat="42.25888" lon="-8.825">
        <ele>74.767</ele>
        <time>2018-07-28T16:54:03Z</time>
      </trkpt>
      <trkpt lat="42.25887" lon="-8.82508">
        <ele>74.485</ele>
        <time>2018-07-28T16:54:04Z</time>
      </trkpt>
      <trkpt lat="42.25886" lon="-8.82515">
        <ele>74.151</ele>
        <time>2018-07-28T16:54:05Z</time>
      </trkpt>
      <trkpt lat="42.25886" lon="-8.82523">
        <ele>73.826</ele>
        <time>2018-07-28T16:54:06Z</time>
      </trkpt>
      <trkpt lat="42.25886" lon="-8.82529">
        <ele>72.947</ele>
        <time>2018-07-28T16:54:07Z</time>
      </trkpt>
      <trkpt lat="42.25886" lon="-8.82537">
        <ele>72.411</ele>
        <time>2018-07-28T16:54:08Z</time>
      </trkpt>
      <trkpt lat="42.25886" lon="-8.82544">
        <ele>71.908</ele>
        <time>2018-07-28T16:54:09Z</time>
      </trkpt>
      <trkpt lat="42.25886" lon="-8.8255">
        <ele>71.364</ele>
        <time>2018-07-28T16:54:10Z</time>
      </trkpt>
      <trkpt lat="42.25886" lon="-8.82557">
        <ele>70.629</ele>
        <time>2018-07-28T16:54:11Z</time>
      </trkpt>
      <trkpt lat="42.25886" lon="-8.82563">
        <ele>69.962</ele>
        <time>2018-07-28T16:54:12Z</time>
      </trkpt>
      <trkpt lat="42.25887" lon="-8.82569">
        <ele>69.264</ele>
        <time>2018-07-28T16:54:13Z</time>
      </trkpt>
      <trkpt lat="42.25889" lon="-8.8258">
        <ele>68.099</ele>
        <time>2018-07-28T16:54:15Z</time>
      </trkpt>
      <trkpt lat="42.25889" lon="-8.82586">
        <ele>66.964</ele>
        <time>2018-07-28T16:54:17Z</time>
      </trkpt>
      <trkpt lat="42.25889" lon="-8.82593">
        <ele>65.642</ele>
        <time>2018-07-28T16:54:20Z</time>
      </trkpt>
      <trkpt lat="42.25889" lon="-8.82601">
        <ele>64.818</ele>
        <time>2018-07-28T16:54:24Z</time>
      </trkpt>
      <trkpt lat="42.25887" lon="-8.82607">
        <ele>64.445</ele>
        <time>2018-07-28T16:54:41Z</time>
      </trkpt>
      <trkpt lat="42.25882" lon="-8.82609">
        <ele>64.147</ele>
        <time>2018-07-28T16:54:46Z</time>
      </trkpt>
      <trkpt lat="42.25877" lon="-8.8261">
        <ele>63.811</ele>
        <time>2018-07-28T16:54:48Z</time>
      </trkpt>
      <trkpt lat="42.25871" lon="-8.82609">
        <ele>62.508</ele>
        <time>2018-07-28T16:54:51Z</time>
      </trkpt>
      <trkpt lat="42.25867" lon="-8.82607">
        <ele>60.956</ele>
        <time>2018-07-28T16:54:58Z</time>
      </trkpt>
      <trkpt lat="42.25863" lon="-8.82609">
        <ele>60.461</ele>
        <time>2018-07-28T16:55:15Z</time>
      </trkpt>
      <trkpt lat="42.25858" lon="-8.82611">
        <ele>60.034</ele>
        <time>2018-07-28T16:55:40Z</time>
      </trkpt>
      <trkpt lat="42.25855" lon="-8.82616">
        <ele>59.926</ele>
        <time>2018-07-28T16:55:50Z</time>
      </trkpt>
      <trkpt lat="42.25854" lon="-8.82623">
        <ele>59.521</ele>
        <time>2018-07-28T16:55:53Z</time>
      </trkpt>
      <trkpt lat="42.25853" lon="-8.8263">
        <ele>59.086</ele>
        <time>2018-07-28T16:55:55Z</time>
      </trkpt>
      <trkpt lat="42.25852" lon="-8.82636">
        <ele>58.074</ele>
        <time>2018-07-28T16:55:57Z</time>
      </trkpt>
      <trkpt lat="42.25852" lon="-8.82643">
        <ele>57.31</ele>
        <time>2018-07-28T16:56:00Z</time>
      </trkpt>
      <trkpt lat="42.25859" lon="-8.82646">
        <ele>57.032</ele>
        <time>2018-07-28T16:56:02Z</time>
      </trkpt>
      <trkpt lat="42.25866" lon="-8.82648">
        <ele>56.992</ele>
        <time>2018-07-28T16:56:04Z</time>
      </trkpt>
      <trkpt lat="42.25873" lon="-8.8265">
        <ele>56.911</ele>
        <time>2018-07-28T16:56:06Z</time>
      </trkpt>
      <trkpt lat="42.25878" lon="-8.82652">
        <ele>56.908</ele>
        <time>2018-07-28T16:56:08Z</time>
      </trkpt>
      <trkpt lat="42.25882" lon="-8.82653">
        <ele>56.545</ele>
        <time>2018-07-28T16:56:10Z</time>
      </trkpt>
      <trkpt lat="42.25887" lon="-8.82657">
        <ele>55.81</ele>
        <time>2018-07-28T16:56:12Z</time>
      </trkpt>
      <trkpt lat="42.25889" lon="-8.82663">
        <ele>54.463</ele>
        <time>2018-07-28T16:56:15Z</time>
      </trkpt>
      <trkpt lat="42.25893" lon="-8.82668">
        <ele>53.145</ele>
        <time>2018-07-28T16:56:29Z</time>
      </trkpt>
      <trkpt lat="42.25898" lon="-8.82672">
        <ele>52.72</ele>
        <time>2018-07-28T16:56:32Z</time>
      </trkpt>
      <trkpt lat="42.25904" lon="-8.82669">
        <ele>52.735</ele>
        <time>2018-07-28T16:56:34Z</time>
      </trkpt>
      <trkpt lat="42.25912" lon="-8.82665">
        <ele>52.913</ele>
        <time>2018-07-28T16:56:36Z</time>
      </trkpt>
      <trkpt lat="42.2592" lon="-8.82661">
        <ele>53.189</ele>
        <time>2018-07-28T16:56:38Z</time>
      </trkpt>
      <trkpt lat="42.25925" lon="-8.82661">
        <ele>53.213</ele>
        <time>2018-07-28T16:56:39Z</time>
      </trkpt>
      <trkpt lat="42.25931" lon="-8.82663">
        <ele>53.343</ele>
        <time>2018-07-28T16:56:40Z</time>
      </trkpt>
      <trkpt lat="42.25936" lon="-8.82669">
        <ele>53.507</ele>
        <time>2018-07-28T16:56:41Z</time>
      </trkpt>
      <trkpt lat="42.25941" lon="-8.82675">
        <ele>53.908</ele>
        <time>2018-07-28T16:56:42Z</time>
      </trkpt>
      <trkpt lat="42.25947" lon="-8.82683">
        <ele>54.453</ele>
        <time>2018-07-28T16:56:43Z</time>
      </trkpt>
      <trkpt lat="42.25952" lon="-8.82691">
        <ele>55.118</ele>
        <time>2018-07-28T16:56:44Z</time>
      </trkpt>
      <trkpt lat="42.25957" lon="-8.82698">
        <ele>55.881</ele>
        <time>2018-07-28T16:56:45Z</time>
      </trkpt>
      <trkpt lat="42.25963" lon="-8.82705">
        <ele>56.473</ele>
        <time>2018-07-28T16:56:46Z</time>
      </trkpt>
      <trkpt lat="42.25968" lon="-8.82711">
        <ele>56.948</ele>
        <time>2018-07-28T16:56:47Z</time>
      </trkpt>
      <trkpt lat="42.25973" lon="-8.82715">
        <ele>57.353</ele>
        <time>2018-07-28T16:56:48Z</time>
      </trkpt>
      <trkpt lat="42.25978" lon="-8.82719">
        <ele>57.641</ele>
        <time>2018-07-28T16:56:49Z</time>
      </trkpt>
      <trkpt lat="42.25983" lon="-8.82722">
        <ele>57.797</ele>
        <time>2018-07-28T16:56:50Z</time>
      </trkpt>
      <trkpt lat="42.25991" lon="-8.82726">
        <ele>58.265</ele>
        <time>2018-07-28T16:56:52Z</time>
      </trkpt>
      <trkpt lat="42.25998" lon="-8.82722">
        <ele>58.368</ele>
        <time>2018-07-28T16:56:54Z</time>
      </trkpt>
      <trkpt lat="42.26002" lon="-8.82716">
        <ele>58.314</ele>
        <time>2018-07-28T16:56:55Z</time>
      </trkpt>
      <trkpt lat="42.26007" lon="-8.82709">
        <ele>58.308</ele>
        <time>2018-07-28T16:56:56Z</time>
      </trkpt>
      <trkpt lat="42.26013" lon="-8.82703">
        <ele>58.428</ele>
        <time>2018-07-28T16:56:57Z</time>
      </trkpt>
      <trkpt lat="42.2602" lon="-8.82699">
        <ele>58.513</ele>
        <time>2018-07-28T16:56:58Z</time>
      </trkpt>
      <trkpt lat="42.26028" lon="-8.82697">
        <ele>58.566</ele>
        <time>2018-07-28T16:56:59Z</time>
      </trkpt>
      <trkpt lat="42.26037" lon="-8.82697">
        <ele>58.538</ele>
        <time>2018-07-28T16:57:00Z</time>
      </trkpt>
      <trkpt lat="42.26046" lon="-8.82701">
        <ele>58.563</ele>
        <time>2018-07-28T16:57:01Z</time>
      </trkpt>
      <trkpt lat="42.26053" lon="-8.82709">
        <ele>58.528</ele>
        <time>2018-07-28T16:57:02Z</time>
      </trkpt>
      <trkpt lat="42.26059" lon="-8.82719">
        <ele>58.586</ele>
        <time>2018-07-28T16:57:03Z</time>
      </trkpt>
      <trkpt lat="42.26064" lon="-8.8273">
        <ele>58.782</ele>
        <time>2018-07-28T16:57:04Z</time>
      </trkpt>
      <trkpt lat="42.26068" lon="-8.8274">
        <ele>58.922</ele>
        <time>2018-07-28T16:57:05Z</time>
      </trkpt>
      <trkpt lat="42.26073" lon="-8.82749">
        <ele>59.062</ele>
        <time>2018-07-28T16:57:06Z</time>
      </trkpt>
      <trkpt lat="42.26079" lon="-8.82758">
        <ele>59.208</ele>
        <time>2018-07-28T16:57:07Z</time>
      </trkpt>
      <trkpt lat="42.26086" lon="-8.82762">
        <ele>59.208</ele>
        <time>2018-07-28T16:57:08Z</time>
      </trkpt>
      <trkpt lat="42.26096" lon="-8.82763">
        <ele>59.394</ele>
        <time>2018-07-28T16:57:09Z</time>
      </trkpt>
      <trkpt lat="42.26108" lon="-8.8276">
        <ele>59.939</ele>
        <time>2018-07-28T16:57:10Z</time>
      </trkpt>
      <trkpt lat="42.26119" lon="-8.82758">
        <ele>60.612</ele>
        <time>2018-07-28T16:57:11Z</time>
      </trkpt>
      <trkpt lat="42.26129" lon="-8.82757">
        <ele>61.484</ele>
        <time>2018-07-28T16:57:12Z</time>
      </trkpt>
      <trkpt lat="42.2614" lon="-8.82756">
        <ele>62.589</ele>
        <time>2018-07-28T16:57:13Z</time>
      </trkpt>
      <trkpt lat="42.26152" lon="-8.82761">
        <ele>63.674</ele>
        <time>2018-07-28T16:57:14Z</time>
      </trkpt>
      <trkpt lat="42.26162" lon="-8.8277">
        <ele>64.812</ele>
        <time>2018-07-28T16:57:15Z</time>
      </trkpt>
      <trkpt lat="42.26171" lon="-8.8278">
        <ele>66.128</ele>
        <time>2018-07-28T16:57:16Z</time>
      </trkpt>
      <trkpt lat="42.2618" lon="-8.82789">
        <ele>67.491</ele>
        <time>2018-07-28T16:57:17Z</time>
      </trkpt>
      <trkpt lat="42.26187" lon="-8.82798">
        <ele>68.581</ele>
        <time>2018-07-28T16:57:18Z</time>
      </trkpt>
      <trkpt lat="42.26194" lon="-8.82806">
        <ele>69.319</ele>
        <time>2018-07-28T16:57:19Z</time>
      </trkpt>
      <trkpt lat="42.26199" lon="-8.82812">
        <ele>69.608</ele>
        <time>2018-07-28T16:57:20Z</time>
      </trkpt>
      <trkpt lat="42.26204" lon="-8.82817">
        <ele>69.681</ele>
        <time>2018-07-28T16:57:21Z</time>
      </trkpt>
      <trkpt lat="42.26209" lon="-8.8282">
        <ele>69.696</ele>
        <time>2018-07-28T16:57:22Z</time>
      </trkpt>
      <trkpt lat="42.26214" lon="-8.82824">
        <ele>69.459</ele>
        <time>2018-07-28T16:57:23Z</time>
      </trkpt>
      <trkpt lat="42.2622" lon="-8.82826">
        <ele>69.471</ele>
        <time>2018-07-28T16:57:24Z</time>
      </trkpt>
      <trkpt lat="42.26227" lon="-8.8283">
        <ele>69.436</ele>
        <time>2018-07-28T16:57:25Z</time>
      </trkpt>
      <trkpt lat="42.26235" lon="-8.82832">
        <ele>69.651</ele>
        <time>2018-07-28T16:57:26Z</time>
      </trkpt>
      <trkpt lat="42.26243" lon="-8.82831">
        <ele>69.979</ele>
        <time>2018-07-28T16:57:27Z</time>
      </trkpt>
      <trkpt lat="42.26252" lon="-8.82829">
        <ele>70.735</ele>
        <time>2018-07-28T16:57:28Z</time>
      </trkpt>
      <trkpt lat="42.26259" lon="-8.82824">
        <ele>71.193</ele>
        <time>2018-07-28T16:57:29Z</time>
      </trkpt>
      <trkpt lat="42.26266" lon="-8.82817">
        <ele>71.665</ele>
        <time>2018-07-28T16:57:30Z</time>
      </trkpt>
      <trkpt lat="42.26272" lon="-8.8281">
        <ele>72.021</ele>
        <time>2018-07-28T16:57:31Z</time>
      </trkpt>
      <trkpt lat="42.26278" lon="-8.82805">
        <ele>72.408</ele>
        <time>2018-07-28T16:57:32Z</time>
      </trkpt>
      <trkpt lat="42.26283" lon="-8.82799">
        <ele>72.811</ele>
        <time>2018-07-28T16:57:33Z</time>
      </trkpt>
      <trkpt lat="42.26289" lon="-8.82794">
        <ele>73.226</ele>
        <time>2018-07-28T16:57:34Z</time>
      </trkpt>
      <trkpt lat="42.26296" lon="-8.82793">
        <ele>73.659</ele>
        <time>2018-07-28T16:57:35Z</time>
      </trkpt>
      <trkpt lat="42.26304" lon="-8.82796">
        <ele>74.051</ele>
        <time>2018-07-28T16:57:36Z</time>
      </trkpt>
      <trkpt lat="42.26312" lon="-8.82802">
        <ele>74.526</ele>
        <time>2018-07-28T16:57:37Z</time>
      </trkpt>
      <trkpt lat="42.2632" lon="-8.8281">
        <ele>75.271</ele>
        <time>2018-07-28T16:57:38Z</time>
      </trkpt>
      <trkpt lat="42.26326" lon="-8.82818">
        <ele>75.949</ele>
        <time>2018-07-28T16:57:39Z</time>
      </trkpt>
      <trkpt lat="42.26332" lon="-8.82824">
        <ele>76.555</ele>
        <time>2018-07-28T16:57:40Z</time>
      </trkpt>
      <trkpt lat="42.26338" lon="-8.82831">
        <ele>77.087</ele>
        <time>2018-07-28T16:57:41Z</time>
      </trkpt>
      <trkpt lat="42.26344" lon="-8.82836">
        <ele>77.442</ele>
        <time>2018-07-28T16:57:42Z</time>
      </trkpt>
      <trkpt lat="42.2635" lon="-8.82841">
        <ele>77.726</ele>
        <time>2018-07-28T16:57:43Z</time>
      </trkpt>
      <trkpt lat="42.26357" lon="-8.82846">
        <ele>78.108</ele>
        <time>2018-07-28T16:57:44Z</time>
      </trkpt>
      <trkpt lat="42.26364" lon="-8.82851">
        <ele>78.65</ele>
        <time>2018-07-28T16:57:45Z</time>
      </trkpt>
      <trkpt lat="42.26372" lon="-8.82857">
        <ele>79.275</ele>
        <time>2018-07-28T16:57:46Z</time>
      </trkpt>
      <trkpt lat="42.26381" lon="-8.82863">
        <ele>80.478</ele>
        <time>2018-07-28T16:57:47Z</time>
      </trkpt>
      <trkpt lat="42.26389" lon="-8.82867">
        <ele>80.98</ele>
        <time>2018-07-28T16:57:48Z</time>
      </trkpt>
      <trkpt lat="42.26399" lon="-8.8287">
        <ele>81.385</ele>
        <time>2018-07-28T16:57:49Z</time>
      </trkpt>
      <trkpt lat="42.26407" lon="-8.82873">
        <ele>81.64</ele>
        <time>2018-07-28T16:57:50Z</time>
      </trkpt>
      <trkpt lat="42.26415" lon="-8.82876">
        <ele>81.678</ele>
        <time>2018-07-28T16:57:51Z</time>
      </trkpt>
      <trkpt lat="42.26423" lon="-8.82877">
        <ele>81.624</ele>
        <time>2018-07-28T16:57:52Z</time>
      </trkpt>
      <trkpt lat="42.26432" lon="-8.82874">
        <ele>81.434</ele>
        <time>2018-07-28T16:57:53Z</time>
      </trkpt>
      <trkpt lat="42.26439" lon="-8.82868">
        <ele>81.455</ele>
        <time>2018-07-28T16:57:54Z</time>
      </trkpt>
      <trkpt lat="42.26447" lon="-8.8286">
        <ele>81.51</ele>
        <time>2018-07-28T16:57:55Z</time>
      </trkpt>
      <trkpt lat="42.26454" lon="-8.82852">
        <ele>81.808</ele>
        <time>2018-07-28T16:57:56Z</time>
      </trkpt>
      <trkpt lat="42.26461" lon="-8.82845">
        <ele>82.265</ele>
        <time>2018-07-28T16:57:57Z</time>
      </trkpt>
      <trkpt lat="42.26467" lon="-8.82839">
        <ele>82.61</ele>
        <time>2018-07-28T16:57:58Z</time>
      </trkpt>
      <trkpt lat="42.26474" lon="-8.82832">
        <ele>83.023</ele>
        <time>2018-07-28T16:57:59Z</time>
      </trkpt>
      <trkpt lat="42.26479" lon="-8.82825">
        <ele>83.315</ele>
        <time>2018-07-28T16:58:00Z</time>
      </trkpt>
      <trkpt lat="42.26485" lon="-8.82818">
        <ele>83.51</ele>
        <time>2018-07-28T16:58:01Z</time>
      </trkpt>
      <trkpt lat="42.26491" lon="-8.82812">
        <ele>83.855</ele>
        <time>2018-07-28T16:58:02Z</time>
      </trkpt>
      <trkpt lat="42.26496" lon="-8.82806">
        <ele>84.113</ele>
        <time>2018-07-28T16:58:03Z</time>
      </trkpt>
      <trkpt lat="42.265" lon="-8.82801">
        <ele>84.429</ele>
        <time>2018-07-28T16:58:04Z</time>
      </trkpt>
      <trkpt lat="42.26503" lon="-8.82796">
        <ele>84.833</ele>
        <time>2018-07-28T16:58:05Z</time>
      </trkpt>
      <trkpt lat="42.26509" lon="-8.8279">
        <ele>84.923</ele>
        <time>2018-07-28T16:58:07Z</time>
      </trkpt>
      <trkpt lat="42.26514" lon="-8.8279">
        <ele>85.015</ele>
        <time>2018-07-28T16:58:09Z</time>
      </trkpt>
      <trkpt lat="42.26519" lon="-8.828">
        <ele>85.208</ele>
        <time>2018-07-28T16:58:11Z</time>
      </trkpt>
      <trkpt lat="42.2652" lon="-8.82806">
        <ele>85.435</ele>
        <time>2018-07-28T16:58:12Z</time>
      </trkpt>
      <trkpt lat="42.26523" lon="-8.82812">
        <ele>85.62</ele>
        <time>2018-07-28T16:58:13Z</time>
      </trkpt>
      <trkpt lat="42.26526" lon="-8.82821">
        <ele>85.993</ele>
        <time>2018-07-28T16:58:14Z</time>
      </trkpt>
      <trkpt lat="42.2653" lon="-8.82832">
        <ele>86.395</ele>
        <time>2018-07-28T16:58:15Z</time>
      </trkpt>
      <trkpt lat="42.26535" lon="-8.82845">
        <ele>86.82</ele>
        <time>2018-07-28T16:58:16Z</time>
      </trkpt>
      <trkpt lat="42.26539" lon="-8.82859">
        <ele>87.485</ele>
        <time>2018-07-28T16:58:17Z</time>
      </trkpt>
      <trkpt lat="42.26543" lon="-8.82875">
        <ele>87.973</ele>
        <time>2018-07-28T16:58:18Z</time>
      </trkpt>
      <trkpt lat="42.26547" lon="-8.8289">
        <ele>88.529</ele>
        <time>2018-07-28T16:58:19Z</time>
      </trkpt>
      <trkpt lat="42.26551" lon="-8.82906">
        <ele>89.085</ele>
        <time>2018-07-28T16:58:20Z</time>
      </trkpt>
      <trkpt lat="42.26556" lon="-8.82923">
        <ele>89.389</ele>
        <time>2018-07-28T16:58:21Z</time>
      </trkpt>
      <trkpt lat="42.26561" lon="-8.8294">
        <ele>89.717</ele>
        <time>2018-07-28T16:58:22Z</time>
      </trkpt>
      <trkpt lat="42.26565" lon="-8.82957">
        <ele>90.108</ele>
        <time>2018-07-28T16:58:23Z</time>
      </trkpt>
      <trkpt lat="42.2657" lon="-8.82973">
        <ele>90.61</ele>
        <time>2018-07-28T16:58:24Z</time>
      </trkpt>
      <trkpt lat="42.26575" lon="-8.82987">
        <ele>90.965</ele>
        <time>2018-07-28T16:58:25Z</time>
      </trkpt>
      <trkpt lat="42.26581" lon="-8.83002">
        <ele>90.938</ele>
        <time>2018-07-28T16:58:26Z</time>
      </trkpt>
      <trkpt lat="42.26589" lon="-8.83012">
        <ele>90.95</ele>
        <time>2018-07-28T16:58:27Z</time>
      </trkpt>
      <trkpt lat="42.26599" lon="-8.8302">
        <ele>90.935</ele>
        <time>2018-07-28T16:58:28Z</time>
      </trkpt>
      <trkpt lat="42.26611" lon="-8.83025">
        <ele>90.98</ele>
        <time>2018-07-28T16:58:29Z</time>
      </trkpt>
      <trkpt lat="42.26621" lon="-8.8303">
        <ele>91.058</ele>
        <time>2018-07-28T16:58:30Z</time>
      </trkpt>
      <trkpt lat="42.26632" lon="-8.83037">
        <ele>91.194</ele>
        <time>2018-07-28T16:58:31Z</time>
      </trkpt>
      <trkpt lat="42.26641" lon="-8.83043">
        <ele>91.234</ele>
        <time>2018-07-28T16:58:32Z</time>
      </trkpt>
      <trkpt lat="42.2665" lon="-8.83051">
        <ele>91.455</ele>
        <time>2018-07-28T16:58:33Z</time>
      </trkpt>
      <trkpt lat="42.26657" lon="-8.83061">
        <ele>91.61</ele>
        <time>2018-07-28T16:58:34Z</time>
      </trkpt>
      <trkpt lat="42.26662" lon="-8.83075">
        <ele>91.908</ele>
        <time>2018-07-28T16:58:35Z</time>
      </trkpt>
      <trkpt lat="42.26667" lon="-8.83089">
        <ele>92.465</ele>
        <time>2018-07-28T16:58:36Z</time>
      </trkpt>
      <trkpt lat="42.26673" lon="-8.83106">
        <ele>93.28</ele>
        <time>2018-07-28T16:58:37Z</time>
      </trkpt>
      <trkpt lat="42.26679" lon="-8.83124">
        <ele>94.173</ele>
        <time>2018-07-28T16:58:38Z</time>
      </trkpt>
      <trkpt lat="42.26686" lon="-8.83142">
        <ele>95.435</ele>
        <time>2018-07-28T16:58:39Z</time>
      </trkpt>
      <trkpt lat="42.26692" lon="-8.8316">
        <ele>96.67</ele>
        <time>2018-07-28T16:58:40Z</time>
      </trkpt>
      <trkpt lat="42.26699" lon="-8.83178">
        <ele>97.765</ele>
        <time>2018-07-28T16:58:41Z</time>
      </trkpt>
      <trkpt lat="42.26707" lon="-8.83196">
        <ele>99.443</ele>
        <time>2018-07-28T16:58:42Z</time>
      </trkpt>
      <trkpt lat="42.26714" lon="-8.83214">
        <ele>100.019</ele>
        <time>2018-07-28T16:58:43Z</time>
      </trkpt>
      <trkpt lat="42.26722" lon="-8.83233">
        <ele>100.845</ele>
        <time>2018-07-28T16:58:44Z</time>
      </trkpt>
      <trkpt lat="42.2673" lon="-8.8325">
        <ele>101.947</ele>
        <time>2018-07-28T16:58:45Z</time>
      </trkpt>
      <trkpt lat="42.26739" lon="-8.83267">
        <ele>103.211</ele>
        <time>2018-07-28T16:58:46Z</time>
      </trkpt>
      <trkpt lat="42.26747" lon="-8.83284">
        <ele>104.708</ele>
        <time>2018-07-28T16:58:47Z</time>
      </trkpt>
      <trkpt lat="42.26757" lon="-8.83299">
        <ele>106.126</ele>
        <time>2018-07-28T16:58:48Z</time>
      </trkpt>
      <trkpt lat="42.26767" lon="-8.83314">
        <ele>107.541</ele>
        <time>2018-07-28T16:58:49Z</time>
      </trkpt>
      <trkpt lat="42.26778" lon="-8.83328">
        <ele>108.614</ele>
        <time>2018-07-28T16:58:50Z</time>
      </trkpt>
      <trkpt lat="42.26787" lon="-8.83342">
        <ele>109.766</ele>
        <time>2018-07-28T16:58:51Z</time>
      </trkpt>
      <trkpt lat="42.26795" lon="-8.83357">
        <ele>110.871</ele>
        <time>2018-07-28T16:58:52Z</time>
      </trkpt>
      <trkpt lat="42.26803" lon="-8.83374">
        <ele>112.256</ele>
        <time>2018-07-28T16:58:53Z</time>
      </trkpt>
      <trkpt lat="42.26804" lon="-8.83396">
        <ele>113.894</ele>
        <time>2018-07-28T16:58:54Z</time>
      </trkpt>
      <trkpt lat="42.26805" lon="-8.83418">
        <ele>115.66</ele>
        <time>2018-07-28T16:58:55Z</time>
      </trkpt>
      <trkpt lat="42.26809" lon="-8.83442">
        <ele>117.356</ele>
        <time>2018-07-28T16:58:56Z</time>
      </trkpt>
      <trkpt lat="42.2681" lon="-8.83466">
        <ele>118.959</ele>
        <time>2018-07-28T16:58:57Z</time>
      </trkpt>
      <trkpt lat="42.26813" lon="-8.8349">
        <ele>120.114</ele>
        <time>2018-07-28T16:58:58Z</time>
      </trkpt>
      <trkpt lat="42.26813" lon="-8.83512">
        <ele>121.008</ele>
        <time>2018-07-28T16:58:59Z</time>
      </trkpt>
      <trkpt lat="42.26813" lon="-8.83534">
        <ele>122.447</ele>
        <time>2018-07-28T16:59:00Z</time>
      </trkpt>
      <trkpt lat="42.2681" lon="-8.83555">
        <ele>123.052</ele>
        <time>2018-07-28T16:59:01Z</time>
      </trkpt>
      <trkpt lat="42.26808" lon="-8.83575">
        <ele>123.645</ele>
        <time>2018-07-28T16:59:02Z</time>
      </trkpt>
      <trkpt lat="42.26806" lon="-8.83595">
        <ele>124.227</ele>
        <time>2018-07-28T16:59:03Z</time>
      </trkpt>
      <trkpt lat="42.26805" lon="-8.83616">
        <ele>124.982</ele>
        <time>2018-07-28T16:59:04Z</time>
      </trkpt>
      <trkpt lat="42.26799" lon="-8.83634">
        <ele>125.567</ele>
        <time>2018-07-28T16:59:05Z</time>
      </trkpt>
      <trkpt lat="42.26794" lon="-8.83656">
        <ele>126.285</ele>
        <time>2018-07-28T16:59:06Z</time>
      </trkpt>
      <trkpt lat="42.26788" lon="-8.83676">
        <ele>127.121</ele>
        <time>2018-07-28T16:59:07Z</time>
      </trkpt>
      <trkpt lat="42.26779" lon="-8.83694">
        <ele>128.019</ele>
        <time>2018-07-28T16:59:08Z</time>
      </trkpt>
      <trkpt lat="42.26767" lon="-8.83712">
        <ele>128.409</ele>
        <time>2018-07-28T16:59:09Z</time>
      </trkpt>
      <trkpt lat="42.26757" lon="-8.83727">
        <ele>128.519</ele>
        <time>2018-07-28T16:59:10Z</time>
      </trkpt>
      <trkpt lat="42.26747" lon="-8.8374">
        <ele>128.508</ele>
        <time>2018-07-28T16:59:11Z</time>
      </trkpt>
      <trkpt lat="42.26737" lon="-8.83752">
        <ele>127.983</ele>
        <time>2018-07-28T16:59:12Z</time>
      </trkpt>
      <trkpt lat="42.2673" lon="-8.83763">
        <ele>126.928</ele>
        <time>2018-07-28T16:59:13Z</time>
      </trkpt>
      <trkpt lat="42.26723" lon="-8.83773">
        <ele>125.931</ele>
        <time>2018-07-28T16:59:14Z</time>
      </trkpt>
      <trkpt lat="42.26718" lon="-8.83786">
        <ele>124.973</ele>
        <time>2018-07-28T16:59:15Z</time>
      </trkpt>
      <trkpt lat="42.26715" lon="-8.83797">
        <ele>123.858</ele>
        <time>2018-07-28T16:59:16Z</time>
      </trkpt>
      <trkpt lat="42.26714" lon="-8.83813">
        <ele>122.493</ele>
        <time>2018-07-28T16:59:17Z</time>
      </trkpt>
      <trkpt lat="42.26716" lon="-8.83829">
        <ele>122.011</ele>
        <time>2018-07-28T16:59:18Z</time>
      </trkpt>
      <trkpt lat="42.26716" lon="-8.83843">
        <ele>121.417</ele>
        <time>2018-07-28T16:59:19Z</time>
      </trkpt>
      <trkpt lat="42.26715" lon="-8.83858">
        <ele>120.868</ele>
        <time>2018-07-28T16:59:20Z</time>
      </trkpt>
      <trkpt lat="42.26713" lon="-8.83875">
        <ele>120.242</ele>
        <time>2018-07-28T16:59:21Z</time>
      </trkpt>
      <trkpt lat="42.26711" lon="-8.83888">
        <ele>119.526</ele>
        <time>2018-07-28T16:59:22Z</time>
      </trkpt>
      <trkpt lat="42.26712" lon="-8.83901">
        <ele>118.708</ele>
        <time>2018-07-28T16:59:23Z</time>
      </trkpt>
      <trkpt lat="42.26715" lon="-8.83913">
        <ele>118.198</ele>
        <time>2018-07-28T16:59:24Z</time>
      </trkpt>
      <trkpt lat="42.26721" lon="-8.83926">
        <ele>117.843</ele>
        <time>2018-07-28T16:59:25Z</time>
      </trkpt>
      <trkpt lat="42.26731" lon="-8.83938">
        <ele>117.896</ele>
        <time>2018-07-28T16:59:26Z</time>
      </trkpt>
      <trkpt lat="42.2674" lon="-8.83951">
        <ele>117.858</ele>
        <time>2018-07-28T16:59:27Z</time>
      </trkpt>
      <trkpt lat="42.2675" lon="-8.83967">
        <ele>117.993</ele>
        <time>2018-07-28T16:59:28Z</time>
      </trkpt>
      <trkpt lat="42.26755" lon="-8.83986">
        <ele>118.298</ele>
        <time>2018-07-28T16:59:29Z</time>
      </trkpt>
      <trkpt lat="42.2676" lon="-8.84003">
        <ele>118.426</ele>
        <time>2018-07-28T16:59:30Z</time>
      </trkpt>
      <trkpt lat="42.26766" lon="-8.84019">
        <ele>118.852</ele>
        <time>2018-07-28T16:59:31Z</time>
      </trkpt>
      <trkpt lat="42.26771" lon="-8.84036">
        <ele>118.955</ele>
        <time>2018-07-28T16:59:32Z</time>
      </trkpt>
      <trkpt lat="42.26777" lon="-8.84051">
        <ele>119.107</ele>
        <time>2018-07-28T16:59:33Z</time>
      </trkpt>
      <trkpt lat="42.26785" lon="-8.84066">
        <ele>119.317</ele>
        <time>2018-07-28T16:59:34Z</time>
      </trkpt>
      <trkpt lat="42.26799" lon="-8.84075">
        <ele>120.508</ele>
        <time>2018-07-28T16:59:35Z</time>
      </trkpt>
      <trkpt lat="42.26812" lon="-8.84089">
        <ele>121.617</ele>
        <time>2018-07-28T16:59:36Z</time>
      </trkpt>
      <trkpt lat="42.26826" lon="-8.84105">
        <ele>122.952</ele>
        <time>2018-07-28T16:59:37Z</time>
      </trkpt>
      <trkpt lat="42.26834" lon="-8.8412">
        <ele>124.345</ele>
        <time>2018-07-28T16:59:38Z</time>
      </trkpt>
      <trkpt lat="42.26842" lon="-8.84137">
        <ele>125.667</ele>
        <time>2018-07-28T16:59:39Z</time>
      </trkpt>
      <trkpt lat="42.26851" lon="-8.84153">
        <ele>127.142</ele>
        <time>2018-07-28T16:59:40Z</time>
      </trkpt>
      <trkpt lat="42.26861" lon="-8.84169">
        <ele>128.487</ele>
        <time>2018-07-28T16:59:41Z</time>
      </trkpt>
      <trkpt lat="42.26871" lon="-8.84181">
        <ele>129.455</ele>
        <time>2018-07-28T16:59:42Z</time>
      </trkpt>
      <trkpt lat="42.26883" lon="-8.84192">
        <ele>130.241</ele>
        <time>2018-07-28T16:59:43Z</time>
      </trkpt>
      <trkpt lat="42.26892" lon="-8.84199">
        <ele>130.929</ele>
        <time>2018-07-28T16:59:44Z</time>
      </trkpt>
      <trkpt lat="42.269" lon="-8.84206">
        <ele>131.1</ele>
        <time>2018-07-28T16:59:45Z</time>
      </trkpt>
      <trkpt lat="42.26901" lon="-8.84219">
        <ele>131.22</ele>
        <time>2018-07-28T16:59:46Z</time>
      </trkpt>
      <trkpt lat="42.26898" lon="-8.84234">
        <ele>131.508</ele>
        <time>2018-07-28T16:59:47Z</time>
      </trkpt>
      <trkpt lat="42.26894" lon="-8.84256">
        <ele>131.984</ele>
        <time>2018-07-28T16:59:48Z</time>
      </trkpt>
      <trkpt lat="42.26888" lon="-8.84276">
        <ele>132.719</ele>
        <time>2018-07-28T16:59:49Z</time>
      </trkpt>
      <trkpt lat="42.26883" lon="-8.84294">
        <ele>133.872</ele>
        <time>2018-07-28T16:59:50Z</time>
      </trkpt>
      <trkpt lat="42.26877" lon="-8.8431">
        <ele>135.014</ele>
        <time>2018-07-28T16:59:51Z</time>
      </trkpt>
      <trkpt lat="42.26874" lon="-8.84325">
        <ele>137.469</ele>
        <time>2018-07-28T16:59:52Z</time>
      </trkpt>
      <trkpt lat="42.26871" lon="-8.84339">
        <ele>138.234</ele>
        <time>2018-07-28T16:59:53Z</time>
      </trkpt>
      <trkpt lat="42.26867" lon="-8.84354">
        <ele>138.892</ele>
        <time>2018-07-28T16:59:54Z</time>
      </trkpt>
      <trkpt lat="42.26863" lon="-8.84365">
        <ele>139.268</ele>
        <time>2018-07-28T16:59:55Z</time>
      </trkpt>
      <trkpt lat="42.26862" lon="-8.84376">
        <ele>139.497</ele>
        <time>2018-07-28T16:59:56Z</time>
      </trkpt>
      <trkpt lat="42.26861" lon="-8.84386">
        <ele>139.423</ele>
        <time>2018-07-28T16:59:57Z</time>
      </trkpt>
      <trkpt lat="42.26859" lon="-8.84402">
        <ele>139.325</ele>
        <time>2018-07-28T16:59:58Z</time>
      </trkpt>
      <trkpt lat="42.26864" lon="-8.84417">
        <ele>138.908</ele>
        <time>2018-07-28T16:59:59Z</time>
      </trkpt>
      <trkpt lat="42.26874" lon="-8.84428">
        <ele>138.461</ele>
        <time>2018-07-28T17:00:00Z</time>
      </trkpt>
      <trkpt lat="42.26886" lon="-8.84437">
        <ele>137.926</ele>
        <time>2018-07-28T17:00:01Z</time>
      </trkpt>
      <trkpt lat="42.269" lon="-8.84444">
        <ele>137.679</ele>
        <time>2018-07-28T17:00:02Z</time>
      </trkpt>
      <trkpt lat="42.26916" lon="-8.84452">
        <ele>137.591</ele>
        <time>2018-07-28T17:00:03Z</time>
      </trkpt>
      <trkpt lat="42.26932" lon="-8.84458">
        <ele>137.516</ele>
        <time>2018-07-28T17:00:04Z</time>
      </trkpt>
      <trkpt lat="42.26946" lon="-8.84466">
        <ele>137.571</ele>
        <time>2018-07-28T17:00:05Z</time>
      </trkpt>
      <trkpt lat="42.26963" lon="-8.84471">
        <ele>137.339</ele>
        <time>2018-07-28T17:00:06Z</time>
      </trkpt>
      <trkpt lat="42.26978" lon="-8.84478">
        <ele>136.575</ele>
        <time>2018-07-28T17:00:07Z</time>
      </trkpt>
      <trkpt lat="42.26992" lon="-8.84485">
        <ele>135.292</ele>
        <time>2018-07-28T17:00:08Z</time>
      </trkpt>
      <trkpt lat="42.27006" lon="-8.84492">
        <ele>132.273</ele>
        <time>2018-07-28T17:00:09Z</time>
      </trkpt>
      <trkpt lat="42.27019" lon="-8.84499">
        <ele>130.72</ele>
        <time>2018-07-28T17:00:10Z</time>
      </trkpt>
      <trkpt lat="42.27033" lon="-8.84504">
        <ele>129.608</ele>
        <time>2018-07-28T17:00:11Z</time>
      </trkpt>
      <trkpt lat="42.27047" lon="-8.8451">
        <ele>128.931</ele>
        <time>2018-07-28T17:00:12Z</time>
      </trkpt>
      <trkpt lat="42.27061" lon="-8.84514">
        <ele>128.846</ele>
        <time>2018-07-28T17:00:13Z</time>
      </trkpt>
      <trkpt lat="42.27075" lon="-8.84525">
        <ele>128.829</ele>
        <time>2018-07-28T17:00:14Z</time>
      </trkpt>
      <trkpt lat="42.27089" lon="-8.84539">
        <ele>129.081</ele>
        <time>2018-07-28T17:00:15Z</time>
      </trkpt>
      <trkpt lat="42.27102" lon="-8.84554">
        <ele>129.446</ele>
        <time>2018-07-28T17:00:16Z</time>
      </trkpt>
      <trkpt lat="42.27114" lon="-8.84572">
        <ele>130.011</ele>
        <time>2018-07-28T17:00:17Z</time>
      </trkpt>
      <trkpt lat="42.27126" lon="-8.84589">
        <ele>130.729</ele>
        <time>2018-07-28T17:00:18Z</time>
      </trkpt>
      <trkpt lat="42.27141" lon="-8.84603">
        <ele>130.865</ele>
        <time>2018-07-28T17:00:19Z</time>
      </trkpt>
      <trkpt lat="42.27154" lon="-8.84617">
        <ele>130.855</ele>
        <time>2018-07-28T17:00:20Z</time>
      </trkpt>
      <trkpt lat="42.27168" lon="-8.84629">
        <ele>130.107</ele>
        <time>2018-07-28T17:00:21Z</time>
      </trkpt>
      <trkpt lat="42.2718" lon="-8.84644">
        <ele>128.817</ele>
        <time>2018-07-28T17:00:22Z</time>
      </trkpt>
      <trkpt lat="42.2719" lon="-8.84658">
        <ele>127.208</ele>
        <time>2018-07-28T17:00:23Z</time>
      </trkpt>
      <trkpt lat="42.272" lon="-8.84674">
        <ele>125.417</ele>
        <time>2018-07-28T17:00:24Z</time>
      </trkpt>
      <trkpt lat="42.27211" lon="-8.84692">
        <ele>124.012</ele>
        <time>2018-07-28T17:00:25Z</time>
      </trkpt>
      <trkpt lat="42.27221" lon="-8.84712">
        <ele>121.865</ele>
        <time>2018-07-28T17:00:26Z</time>
      </trkpt>
      <trkpt lat="42.27231" lon="-8.84729">
        <ele>120.697</ele>
        <time>2018-07-28T17:00:27Z</time>
      </trkpt>
      <trkpt lat="42.27241" lon="-8.84748">
        <ele>119.672</ele>
        <time>2018-07-28T17:00:28Z</time>
      </trkpt>
      <trkpt lat="42.27249" lon="-8.84769">
        <ele>118.417</ele>
        <time>2018-07-28T17:00:29Z</time>
      </trkpt>
      <trkpt lat="42.27257" lon="-8.84789">
        <ele>116.975</ele>
        <time>2018-07-28T17:00:30Z</time>
      </trkpt>
      <trkpt lat="42.27268" lon="-8.84801">
        <ele>115.451</ele>
        <time>2018-07-28T17:00:31Z</time>
      </trkpt>
      <trkpt lat="42.27278" lon="-8.84818">
        <ele>113.892</ele>
        <time>2018-07-28T17:00:32Z</time>
      </trkpt>
      <trkpt lat="42.27287" lon="-8.84834">
        <ele>112.173</ele>
        <time>2018-07-28T17:00:33Z</time>
      </trkpt>
      <trkpt lat="42.27297" lon="-8.8485">
        <ele>110.52</ele>
        <time>2018-07-28T17:00:34Z</time>
      </trkpt>
      <trkpt lat="42.27306" lon="-8.84865">
        <ele>108.908</ele>
        <time>2018-07-28T17:00:35Z</time>
      </trkpt>
      <trkpt lat="42.27317" lon="-8.84879">
        <ele>107.481</ele>
        <time>2018-07-28T17:00:36Z</time>
      </trkpt>
      <trkpt lat="42.27328" lon="-8.84897">
        <ele>106.046</ele>
        <time>2018-07-28T17:00:37Z</time>
      </trkpt>
      <trkpt lat="42.27338" lon="-8.84913">
        <ele>104.749</ele>
        <time>2018-07-28T17:00:38Z</time>
      </trkpt>
      <trkpt lat="42.2735" lon="-8.84932">
        <ele>103.541</ele>
        <time>2018-07-28T17:00:39Z</time>
      </trkpt>
      <trkpt lat="42.2736" lon="-8.84947">
        <ele>102.536</ele>
        <time>2018-07-28T17:00:40Z</time>
      </trkpt>
      <trkpt lat="42.2737" lon="-8.84962">
        <ele>101.651</ele>
        <time>2018-07-28T17:00:41Z</time>
      </trkpt>
      <trkpt lat="42.27379" lon="-8.84975">
        <ele>100.779</ele>
        <time>2018-07-28T17:00:42Z</time>
      </trkpt>
      <trkpt lat="42.27389" lon="-8.84995">
        <ele>98.775</ele>
        <time>2018-07-28T17:00:43Z</time>
      </trkpt>
      <trkpt lat="42.27394" lon="-8.85015">
        <ele>97.661</ele>
        <time>2018-07-28T17:00:44Z</time>
      </trkpt>
      <trkpt lat="42.274" lon="-8.85038">
        <ele>96.421</ele>
        <time>2018-07-28T17:00:45Z</time>
      </trkpt>
      <trkpt lat="42.27404" lon="-8.85059">
        <ele>95.113</ele>
        <time>2018-07-28T17:00:46Z</time>
      </trkpt>
      <trkpt lat="42.27408" lon="-8.8508">
        <ele>93.708</ele>
        <time>2018-07-28T17:00:47Z</time>
      </trkpt>
      <trkpt lat="42.27411" lon="-8.85102">
        <ele>92.228</ele>
        <time>2018-07-28T17:00:48Z</time>
      </trkpt>
      <trkpt lat="42.27416" lon="-8.85123">
        <ele>90.923</ele>
        <time>2018-07-28T17:00:49Z</time>
      </trkpt>
      <trkpt lat="42.27422" lon="-8.85143">
        <ele>89.456</ele>
        <time>2018-07-28T17:00:50Z</time>
      </trkpt>
      <trkpt lat="42.27425" lon="-8.85161">
        <ele>88.058</ele>
        <time>2018-07-28T17:00:51Z</time>
      </trkpt>
      <trkpt lat="42.27429" lon="-8.85179">
        <ele>86.733</ele>
        <time>2018-07-28T17:00:52Z</time>
      </trkpt>
      <trkpt lat="42.27433" lon="-8.85195">
        <ele>85.518</ele>
        <time>2018-07-28T17:00:53Z</time>
      </trkpt>
      <trkpt lat="42.27436" lon="-8.8521">
        <ele>84.216</ele>
        <time>2018-07-28T17:00:54Z</time>
      </trkpt>
      <trkpt lat="42.2744" lon="-8.85225">
        <ele>83.242</ele>
        <time>2018-07-28T17:00:55Z</time>
      </trkpt>
      <trkpt lat="42.27443" lon="-8.85239">
        <ele>82.139</ele>
        <time>2018-07-28T17:00:56Z</time>
      </trkpt>
      <trkpt lat="42.27447" lon="-8.85253">
        <ele>81.101</ele>
        <time>2018-07-28T17:00:57Z</time>
      </trkpt>
      <trkpt lat="42.2745" lon="-8.85267">
        <ele>79.921</ele>
        <time>2018-07-28T17:00:58Z</time>
      </trkpt>
      <trkpt lat="42.27454" lon="-8.85278">
        <ele>78.708</ele>
        <time>2018-07-28T17:00:59Z</time>
      </trkpt>
      <trkpt lat="42.27459" lon="-8.8529">
        <ele>76.475</ele>
        <time>2018-07-28T17:01:00Z</time>
      </trkpt>
      <trkpt lat="42.27465" lon="-8.85306">
        <ele>75.47</ele>
        <time>2018-07-28T17:01:01Z</time>
      </trkpt>
      <trkpt lat="42.27475" lon="-8.85317">
        <ele>74.523</ele>
        <time>2018-07-28T17:01:02Z</time>
      </trkpt>
      <trkpt lat="42.27484" lon="-8.85329">
        <ele>73.645</ele>
        <time>2018-07-28T17:01:03Z</time>
      </trkpt>
      <trkpt lat="42.27491" lon="-8.85342">
        <ele>72.51</ele>
        <time>2018-07-28T17:01:04Z</time>
      </trkpt>
      <trkpt lat="42.275" lon="-8.85353">
        <ele>71.645</ele>
        <time>2018-07-28T17:01:05Z</time>
      </trkpt>
      <trkpt lat="42.2751" lon="-8.85363">
        <ele>70.723</ele>
        <time>2018-07-28T17:01:06Z</time>
      </trkpt>
      <trkpt lat="42.27519" lon="-8.85371">
        <ele>69.989</ele>
        <time>2018-07-28T17:01:07Z</time>
      </trkpt>
      <trkpt lat="42.27529" lon="-8.85378">
        <ele>69.246</ele>
        <time>2018-07-28T17:01:08Z</time>
      </trkpt>
      <trkpt lat="42.27539" lon="-8.85384">
        <ele>68.488</ele>
        <time>2018-07-28T17:01:09Z</time>
      </trkpt>
      <trkpt lat="42.2755" lon="-8.85391">
        <ele>67.616</ele>
        <time>2018-07-28T17:01:10Z</time>
      </trkpt>
      <trkpt lat="42.27562" lon="-8.85396">
        <ele>66.808</ele>
        <time>2018-07-28T17:01:11Z</time>
      </trkpt>
      <trkpt lat="42.27573" lon="-8.85405">
        <ele>65.926</ele>
        <time>2018-07-28T17:01:12Z</time>
      </trkpt>
      <trkpt lat="42.27583" lon="-8.85411">
        <ele>64.971</ele>
        <time>2018-07-28T17:01:13Z</time>
      </trkpt>
      <trkpt lat="42.27597" lon="-8.85412">
        <ele>63.934</ele>
        <time>2018-07-28T17:01:14Z</time>
      </trkpt>
      <trkpt lat="42.27608" lon="-8.85415">
        <ele>62.886</ele>
        <time>2018-07-28T17:01:15Z</time>
      </trkpt>
      <trkpt lat="42.27618" lon="-8.85418">
        <ele>61.591</ele>
        <time>2018-07-28T17:01:16Z</time>
      </trkpt>
      <trkpt lat="42.27626" lon="-8.8543">
        <ele>59.046</ele>
        <time>2018-07-28T17:01:17Z</time>
      </trkpt>
      <trkpt lat="42.27628" lon="-8.85447">
        <ele>57.984</ele>
        <time>2018-07-28T17:01:18Z</time>
      </trkpt>
      <trkpt lat="42.27627" lon="-8.85464">
        <ele>57.14</ele>
        <time>2018-07-28T17:01:19Z</time>
      </trkpt>
      <trkpt lat="42.27622" lon="-8.85478">
        <ele>56.457</ele>
        <time>2018-07-28T17:01:20Z</time>
      </trkpt>
      <trkpt lat="42.27615" lon="-8.85491">
        <ele>55.9</ele>
        <time>2018-07-28T17:01:21Z</time>
      </trkpt>
      <trkpt lat="42.27604" lon="-8.855">
        <ele>55.52</ele>
        <time>2018-07-28T17:01:22Z</time>
      </trkpt>
      <trkpt lat="42.27593" lon="-8.85508">
        <ele>55.308</ele>
        <time>2018-07-28T17:01:23Z</time>
      </trkpt>
      <trkpt lat="42.27579" lon="-8.85518">
        <ele>55.357</ele>
        <time>2018-07-28T17:01:24Z</time>
      </trkpt>
      <trkpt lat="42.27567" lon="-8.85528">
        <ele>55.412</ele>
        <time>2018-07-28T17:01:25Z</time>
      </trkpt>
      <trkpt lat="42.27551" lon="-8.85538">
        <ele>55.655</ele>
        <time>2018-07-28T17:01:26Z</time>
      </trkpt>
      <trkpt lat="42.27541" lon="-8.85549">
        <ele>55.687</ele>
        <time>2018-07-28T17:01:27Z</time>
      </trkpt>
      <trkpt lat="42.27531" lon="-8.8556">
        <ele>55.622</ele>
        <time>2018-07-28T17:01:28Z</time>
      </trkpt>
      <trkpt lat="42.27523" lon="-8.85572">
        <ele>55.467</ele>
        <time>2018-07-28T17:01:29Z</time>
      </trkpt>
      <trkpt lat="42.27515" lon="-8.85582">
        <ele>55.025</ele>
        <time>2018-07-28T17:01:30Z</time>
      </trkpt>
      <trkpt lat="42.27506" lon="-8.85593">
        <ele>54.571</ele>
        <time>2018-07-28T17:01:31Z</time>
      </trkpt>
      <trkpt lat="42.27499" lon="-8.85603">
        <ele>54.118</ele>
        <time>2018-07-28T17:01:32Z</time>
      </trkpt>
      <trkpt lat="42.27489" lon="-8.85612">
        <ele>53.798</ele>
        <time>2018-07-28T17:01:33Z</time>
      </trkpt>
      <trkpt lat="42.2748" lon="-8.8562">
        <ele>53.417</ele>
        <time>2018-07-28T17:01:34Z</time>
      </trkpt>
      <trkpt lat="42.27472" lon="-8.85628">
        <ele>53.408</ele>
        <time>2018-07-28T17:01:35Z</time>
      </trkpt>
      <trkpt lat="42.27463" lon="-8.85637">
        <ele>53.773</ele>
        <time>2018-07-28T17:01:36Z</time>
      </trkpt>
      <trkpt lat="42.27455" lon="-8.85644">
        <ele>54.288</ele>
        <time>2018-07-28T17:01:37Z</time>
      </trkpt>
      <trkpt lat="42.27448" lon="-8.85653">
        <ele>54.711</ele>
        <time>2018-07-28T17:01:38Z</time>
      </trkpt>
      <trkpt lat="42.27443" lon="-8.85667">
        <ele>55.283</ele>
        <time>2018-07-28T17:01:39Z</time>
      </trkpt>
      <trkpt lat="42.27436" lon="-8.85677">
        <ele>55.748</ele>
        <time>2018-07-28T17:01:40Z</time>
      </trkpt>
      <trkpt lat="42.27427" lon="-8.85686">
        <ele>55.933</ele>
        <time>2018-07-28T17:01:41Z</time>
      </trkpt>
      <trkpt lat="42.2742" lon="-8.85696">
        <ele>56.251</ele>
        <time>2018-07-28T17:01:42Z</time>
      </trkpt>
      <trkpt lat="42.27412" lon="-8.85707">
        <ele>56.437</ele>
        <time>2018-07-28T17:01:43Z</time>
      </trkpt>
      <trkpt lat="42.27401" lon="-8.85715">
        <ele>56.488</ele>
        <time>2018-07-28T17:01:44Z</time>
      </trkpt>
      <trkpt lat="42.27392" lon="-8.85726">
        <ele>56.424</ele>
        <time>2018-07-28T17:01:45Z</time>
      </trkpt>
      <trkpt lat="42.27383" lon="-8.85733">
        <ele>56.326</ele>
        <time>2018-07-28T17:01:46Z</time>
      </trkpt>
      <trkpt lat="42.27374" lon="-8.85741">
        <ele>56.008</ele>
        <time>2018-07-28T17:01:47Z</time>
      </trkpt>
      <trkpt lat="42.27364" lon="-8.85749">
        <ele>55.57</ele>
        <time>2018-07-28T17:01:48Z</time>
      </trkpt>
      <trkpt lat="42.27353" lon="-8.85754">
        <ele>55.155</ele>
        <time>2018-07-28T17:01:49Z</time>
      </trkpt>
      <trkpt lat="42.27343" lon="-8.8576">
        <ele>54.428</ele>
        <time>2018-07-28T17:01:50Z</time>
      </trkpt>
      <trkpt lat="42.27332" lon="-8.85767">
        <ele>54.13</ele>
        <time>2018-07-28T17:01:51Z</time>
      </trkpt>
      <trkpt lat="42.2732" lon="-8.85772">
        <ele>54.045</ele>
        <time>2018-07-28T17:01:52Z</time>
      </trkpt>
      <trkpt lat="42.27306" lon="-8.85768">
        <ele>53.93</ele>
        <time>2018-07-28T17:01:53Z</time>
      </trkpt>
      <trkpt lat="42.27293" lon="-8.85764">
        <ele>53.878</ele>
        <time>2018-07-28T17:01:54Z</time>
      </trkpt>
      <trkpt lat="42.27283" lon="-8.85767">
        <ele>53.844</ele>
        <time>2018-07-28T17:01:55Z</time>
      </trkpt>
      <trkpt lat="42.27272" lon="-8.85768">
        <ele>53.714</ele>
        <time>2018-07-28T17:01:56Z</time>
      </trkpt>
      <trkpt lat="42.27261" lon="-8.85765">
        <ele>53.554</ele>
        <time>2018-07-28T17:01:57Z</time>
      </trkpt>
      <trkpt lat="42.27252" lon="-8.85772">
        <ele>53.209</ele>
        <time>2018-07-28T17:01:58Z</time>
      </trkpt>
      <trkpt lat="42.27245" lon="-8.85776">
        <ele>52.908</ele>
        <time>2018-07-28T17:01:59Z</time>
      </trkpt>
      <trkpt lat="42.27238" lon="-8.85782">
        <ele>52.553</ele>
        <time>2018-07-28T17:02:00Z</time>
      </trkpt>
      <trkpt lat="42.27232" lon="-8.85786">
        <ele>52.298</ele>
        <time>2018-07-28T17:02:01Z</time>
      </trkpt>
      <trkpt lat="42.27226" lon="-8.85787">
        <ele>52.281</ele>
        <time>2018-07-28T17:02:02Z</time>
      </trkpt>
      <trkpt lat="42.2722" lon="-8.85788">
        <ele>52.223</ele>
        <time>2018-07-28T17:02:03Z</time>
      </trkpt>
      <trkpt lat="42.27216" lon="-8.85794">
        <ele>52.468</ele>
        <time>2018-07-28T17:02:04Z</time>
      </trkpt>
      <trkpt lat="42.27214" lon="-8.85802">
        <ele>52.783</ele>
        <time>2018-07-28T17:02:05Z</time>
      </trkpt>
      <trkpt lat="42.27211" lon="-8.8581">
        <ele>54.221</ele>
        <time>2018-07-28T17:02:06Z</time>
      </trkpt>
      <trkpt lat="42.27208" lon="-8.85817">
        <ele>55.027</ele>
        <time>2018-07-28T17:02:07Z</time>
      </trkpt>
      <trkpt lat="42.27205" lon="-8.85824">
        <ele>55.832</ele>
        <time>2018-07-28T17:02:08Z</time>
      </trkpt>
      <trkpt lat="42.27202" lon="-8.85829">
        <ele>56.692</ele>
        <time>2018-07-28T17:02:09Z</time>
      </trkpt>
      <trkpt lat="42.27199" lon="-8.85836">
        <ele>57.111</ele>
        <time>2018-07-28T17:02:10Z</time>
      </trkpt>
      <trkpt lat="42.27194" lon="-8.85835">
        <ele>57.408</ele>
        <time>2018-07-28T17:02:15Z</time>
      </trkpt>
      <trkpt lat="42.27187" lon="-8.85837">
        <ele>58.145</ele>
        <time>2018-07-28T17:02:23Z</time>
      </trkpt>
      <trkpt lat="42.2718" lon="-8.85842">
        <ele>58.75</ele>
        <time>2018-07-28T17:02:24Z</time>
      </trkpt>
      <trkpt lat="42.27174" lon="-8.85847">
        <ele>59.423</ele>
        <time>2018-07-28T17:02:25Z</time>
      </trkpt>
      <trkpt lat="42.27168" lon="-8.85852">
        <ele>60.035</ele>
        <time>2018-07-28T17:02:26Z</time>
      </trkpt>
      <trkpt lat="42.27162" lon="-8.85858">
        <ele>60.61</ele>
        <time>2018-07-28T17:02:27Z</time>
      </trkpt>
      <trkpt lat="42.27156" lon="-8.85866">
        <ele>61.135</ele>
        <time>2018-07-28T17:02:28Z</time>
      </trkpt>
      <trkpt lat="42.27151" lon="-8.85873">
        <ele>61.393</ele>
        <time>2018-07-28T17:02:29Z</time>
      </trkpt>
      <trkpt lat="42.2715" lon="-8.8588">
        <ele>61.419</ele>
        <time>2018-07-28T17:02:30Z</time>
      </trkpt>
      <trkpt lat="42.27148" lon="-8.85887">
        <ele>61.644</ele>
        <time>2018-07-28T17:02:31Z</time>
      </trkpt>
      <trkpt lat="42.27144" lon="-8.85893">
        <ele>61.805</ele>
        <time>2018-07-28T17:02:32Z</time>
      </trkpt>
      <trkpt lat="42.27138" lon="-8.859">
        <ele>62.115</ele>
        <time>2018-07-28T17:02:33Z</time>
      </trkpt>
      <trkpt lat="42.27131" lon="-8.85906">
        <ele>62.608</ele>
        <time>2018-07-28T17:02:34Z</time>
      </trkpt>
      <trkpt lat="42.27121" lon="-8.8591">
        <ele>63.366</ele>
        <time>2018-07-28T17:02:35Z</time>
      </trkpt>
      <trkpt lat="42.27113" lon="-8.85917">
        <ele>64.371</ele>
        <time>2018-07-28T17:02:36Z</time>
      </trkpt>
      <trkpt lat="42.27105" lon="-8.85921">
        <ele>65.594</ele>
        <time>2018-07-28T17:02:37Z</time>
      </trkpt>
      <trkpt lat="42.27097" lon="-8.85926">
        <ele>66.766</ele>
        <time>2018-07-28T17:02:38Z</time>
      </trkpt>
      <trkpt lat="42.27089" lon="-8.85933">
        <ele>67.931</ele>
        <time>2018-07-28T17:02:39Z</time>
      </trkpt>
      <trkpt lat="42.27082" lon="-8.85941">
        <ele>69.966</ele>
        <time>2018-07-28T17:02:40Z</time>
      </trkpt>
      <trkpt lat="42.27076" lon="-8.8595">
        <ele>70.464</ele>
        <time>2018-07-28T17:02:41Z</time>
      </trkpt>
      <trkpt lat="42.27069" lon="-8.85956">
        <ele>70.82</ele>
        <time>2018-07-28T17:02:42Z</time>
      </trkpt>
      <trkpt lat="42.2706" lon="-8.85963">
        <ele>70.885</ele>
        <time>2018-07-28T17:02:43Z</time>
      </trkpt>
      <trkpt lat="42.27053" lon="-8.85966">
        <ele>70.889</ele>
        <time>2018-07-28T17:02:44Z</time>
      </trkpt>
      <trkpt lat="42.27047" lon="-8.85966">
        <ele>70.717</ele>
        <time>2018-07-28T17:02:45Z</time>
      </trkpt>
      <trkpt lat="42.27041" lon="-8.85965">
        <ele>70.508</ele>
        <time>2018-07-28T17:02:46Z</time>
      </trkpt>
      <trkpt lat="42.27037" lon="-8.85966">
        <ele>70.28</ele>
        <time>2018-07-28T17:02:47Z</time>
      </trkpt>
      <trkpt lat="42.27031" lon="-8.85963">
        <ele>70.055</ele>
        <time>2018-07-28T17:02:48Z</time>
      </trkpt>
      <trkpt lat="42.27028" lon="-8.85969">
        <ele>69.918</ele>
        <time>2018-07-28T17:02:49Z</time>
      </trkpt>
      <trkpt lat="42.27027" lon="-8.8598">
        <ele>70.01</ele>
        <time>2018-07-28T17:02:51Z</time>
      </trkpt>
      <trkpt lat="42.27031" lon="-8.85987">
        <ele>70.435</ele>
        <time>2018-07-28T17:02:52Z</time>
      </trkpt>
      <trkpt lat="42.27037" lon="-8.85992">
        <ele>71.15</ele>
        <time>2018-07-28T17:02:53Z</time>
      </trkpt>
      <trkpt lat="42.27043" lon="-8.85995">
        <ele>72.078</ele>
        <time>2018-07-28T17:02:54Z</time>
      </trkpt>
      <trkpt lat="42.27048" lon="-8.85998">
        <ele>73.014</ele>
        <time>2018-07-28T17:02:55Z</time>
      </trkpt>
      <trkpt lat="42.27054" lon="-8.86001">
        <ele>74.865</ele>
        <time>2018-07-28T17:02:57Z</time>
      </trkpt>
      <trkpt lat="42.27059" lon="-8.86004">
        <ele>74.468</ele>
        <time>2018-07-28T17:03:00Z</time>
      </trkpt>
      <trkpt lat="42.27063" lon="-8.8601">
        <ele>73.914</ele>
        <time>2018-07-28T17:03:03Z</time>
      </trkpt>
      <trkpt lat="42.27065" lon="-8.86017">
        <ele>73.008</ele>
        <time>2018-07-28T17:03:08Z</time>
      </trkpt>
      <trkpt lat="42.27069" lon="-8.86023">
        <ele>72.648</ele>
        <time>2018-07-28T17:03:12Z</time>
      </trkpt>
      <trkpt lat="42.2707" lon="-8.8603">
        <ele>72.223</ele>
        <time>2018-07-28T17:03:14Z</time>
      </trkpt>
      <trkpt lat="42.27069" lon="-8.86037">
        <ele>72.176</ele>
        <time>2018-07-28T17:03:16Z</time>
      </trkpt>
      <trkpt lat="42.27069" lon="-8.86044">
        <ele>72.078</ele>
        <time>2018-07-28T17:03:18Z</time>
      </trkpt>
      <trkpt lat="42.2707" lon="-8.86051">
        <ele>71.973</ele>
        <time>2018-07-28T17:03:20Z</time>
      </trkpt>
      <trkpt lat="42.27069" lon="-8.86058">
        <ele>71.768</ele>
        <time>2018-07-28T17:03:22Z</time>
      </trkpt>
      <trkpt lat="42.27068" lon="-8.86064">
        <ele>71.416</ele>
        <time>2018-07-28T17:03:26Z</time>
      </trkpt>
      <trkpt lat="42.27068" lon="-8.8607">
        <ele>71.392</ele>
        <time>2018-07-28T17:03:33Z</time>
      </trkpt>
      <trkpt lat="42.27071" lon="-8.86077">
        <ele>71.283</ele>
        <time>2018-07-28T17:03:36Z</time>
      </trkpt>
      <trkpt lat="42.27068" lon="-8.86082">
        <ele>70.625</ele>
        <time>2018-07-28T17:03:53Z</time>
      </trkpt>
      <trkpt lat="42.27072" lon="-8.86087">
        <ele>70.817</ele>
        <time>2018-07-28T17:04:01Z</time>
      </trkpt>
      <trkpt lat="42.27077" lon="-8.86093">
        <ele>71.108</ele>
        <time>2018-07-28T17:04:03Z</time>
      </trkpt>
      <trkpt lat="42.27082" lon="-8.86098">
        <ele>71.36</ele>
        <time>2018-07-28T17:04:05Z</time>
      </trkpt>
      <trkpt lat="42.27087" lon="-8.86103">
        <ele>71.585</ele>
        <time>2018-07-28T17:04:07Z</time>
      </trkpt>
      <trkpt lat="42.27091" lon="-8.8611">
        <ele>71.928</ele>
        <time>2018-07-28T17:04:09Z</time>
      </trkpt>
      <trkpt lat="42.27094" lon="-8.86116">
        <ele>72.22</ele>
        <time>2018-07-28T17:04:13Z</time>
      </trkpt>
      <trkpt lat="42.27099" lon="-8.8612">
        <ele>71.725</ele>
        <time>2018-07-28T17:06:30Z</time>
      </trkpt>
      <trkpt lat="42.27098" lon="-8.86126">
        <ele>71.33</ele>
        <time>2018-07-28T17:06:55Z</time>
      </trkpt>
      <trkpt lat="42.27096" lon="-8.86132">
        <ele>71.798</ele>
        <time>2018-07-28T17:06:59Z</time>
      </trkpt>
      <trkpt lat="42.27092" lon="-8.86129">
        <ele>70.894</ele>
        <time>2018-07-28T17:07:24Z</time>
      </trkpt>
      <trkpt lat="42.27087" lon="-8.86131">
        <ele>71.314</ele>
        <time>2018-07-28T17:07:29Z</time>
      </trkpt>
      <trkpt lat="42.27083" lon="-8.86135">
        <ele>71.854</ele>
        <time>2018-07-28T17:07:36Z</time>
      </trkpt>
      <trkpt lat="42.27081" lon="-8.86141">
        <ele>73.509</ele>
        <time>2018-07-28T17:07:51Z</time>
      </trkpt>
      <trkpt lat="42.27085" lon="-8.86137">
        <ele>75.408</ele>
        <time>2018-07-28T17:10:28Z</time>
      </trkpt>
      <trkpt lat="42.27085" lon="-8.86143">
        <ele>75.513</ele>
        <time>2018-07-28T17:11:02Z</time>
      </trkpt>
      <trkpt lat="42.27084" lon="-8.86137">
        <ele>75.878</ele>
        <time>2018-07-28T17:11:56Z</time>
      </trkpt>
      <trkpt lat="42.2708" lon="-8.86141">
        <ele>75.511</ele>
        <time>2018-07-28T17:12:39Z</time>
      </trkpt>
      <trkpt lat="42.27081" lon="-8.86135">
        <ele>73.153</ele>
        <time>2018-07-28T17:13:04Z</time>
      </trkpt>
      <trkpt lat="42.2708" lon="-8.86129">
        <ele>71.188</ele>
        <time>2018-07-28T17:13:31Z</time>
      </trkpt>
      <trkpt lat="42.2708" lon="-8.86122">
        <ele>70.913</ele>
        <time>2018-07-28T17:13:47Z</time>
      </trkpt>
      <trkpt lat="42.27079" lon="-8.86129">
        <ele>69.741</ele>
        <time>2018-07-28T17:16:00Z</time>
      </trkpt>
      <trkpt lat="42.27077" lon="-8.86134">
        <ele>69.627</ele>
        <time>2018-07-28T17:16:07Z</time>
      </trkpt>
      <trkpt lat="42.27081" lon="-8.86133">
        <ele>70.267</ele>
        <time>2018-07-28T17:17:29Z</time>
      </trkpt>
      <trkpt lat="42.27085" lon="-8.86129">
        <ele>69.881</ele>
        <time>2018-07-28T17:18:08Z</time>
      </trkpt>
      <trkpt lat="42.27087" lon="-8.86124">
        <ele>69.919</ele>
        <time>2018-07-28T17:18:28Z</time>
      </trkpt>
      <trkpt lat="42.27091" lon="-8.86121">
        <ele>72.108</ele>
        <time>2018-07-28T17:20:44Z</time>
      </trkpt>
      <trkpt lat="42.27095" lon="-8.86117">
        <ele>72.498</ele>
        <time>2018-07-28T17:22:26Z</time>
      </trkpt>
      <trkpt lat="42.271" lon="-8.86115">
        <ele>72.483</ele>
        <time>2018-07-28T17:22:32Z</time>
      </trkpt>
      <trkpt lat="42.27099" lon="-8.86108">
        <ele>72.486</ele>
        <time>2018-07-28T17:22:37Z</time>
      </trkpt>
      <trkpt lat="42.27095" lon="-8.861">
        <ele>72.178</ele>
        <time>2018-07-28T17:22:40Z</time>
      </trkpt>
      <trkpt lat="42.27089" lon="-8.86093">
        <ele>71.973</ele>
        <time>2018-07-28T17:22:42Z</time>
      </trkpt>
      <trkpt lat="42.27082" lon="-8.86088">
        <ele>71.548</ele>
        <time>2018-07-28T17:22:44Z</time>
      </trkpt>
      <trkpt lat="42.27075" lon="-8.86084">
        <ele>71.276</ele>
        <time>2018-07-28T17:22:46Z</time>
      </trkpt>
      <trkpt lat="42.27069" lon="-8.86078">
        <ele>70.992</ele>
        <time>2018-07-28T17:22:48Z</time>
      </trkpt>
      <trkpt lat="42.27068" lon="-8.86068">
        <ele>70.868</ele>
        <time>2018-07-28T17:22:50Z</time>
      </trkpt>
      <trkpt lat="42.27068" lon="-8.86057">
        <ele>71.042</ele>
        <time>2018-07-28T17:22:52Z</time>
      </trkpt>
      <trkpt lat="42.2707" lon="-8.86049">
        <ele>71.426</ele>
        <time>2018-07-28T17:22:54Z</time>
      </trkpt>
      <trkpt lat="42.27071" lon="-8.86042">
        <ele>71.508</ele>
        <time>2018-07-28T17:22:56Z</time>
      </trkpt>
      <trkpt lat="42.27071" lon="-8.86035">
        <ele>71.668</ele>
        <time>2018-07-28T17:22:58Z</time>
      </trkpt>
      <trkpt lat="42.27068" lon="-8.86027">
        <ele>71.773</ele>
        <time>2018-07-28T17:23:00Z</time>
      </trkpt>
      <trkpt lat="42.27065" lon="-8.86024">
        <ele>72.076</ele>
        <time>2018-07-28T17:23:02Z</time>
      </trkpt>
      <trkpt lat="42.2706" lon="-8.86026">
        <ele>72.228</ele>
        <time>2018-07-28T17:23:03Z</time>
      </trkpt>
      <trkpt lat="42.27053" lon="-8.86027">
        <ele>72.583</ele>
        <time>2018-07-28T17:23:04Z</time>
      </trkpt>
      <trkpt lat="42.27045" lon="-8.86028">
        <ele>72.958</ele>
        <time>2018-07-28T17:23:05Z</time>
      </trkpt>
      <trkpt lat="42.27036" lon="-8.86029">
        <ele>73.476</ele>
        <time>2018-07-28T17:23:06Z</time>
      </trkpt>
      <trkpt lat="42.27027" lon="-8.8603">
        <ele>73.872</ele>
        <time>2018-07-28T17:23:07Z</time>
      </trkpt>
      <trkpt lat="42.2702" lon="-8.86031">
        <ele>74.127</ele>
        <time>2018-07-28T17:23:08Z</time>
      </trkpt>
      <trkpt lat="42.27012" lon="-8.86031">
        <ele>74.468</ele>
        <time>2018-07-28T17:23:09Z</time>
      </trkpt>
      <trkpt lat="42.27007" lon="-8.86031">
        <ele>74.514</ele>
        <time>2018-07-28T17:23:10Z</time>
      </trkpt>
      <trkpt lat="42.27" lon="-8.86029">
        <ele>74.608</ele>
        <time>2018-07-28T17:23:11Z</time>
      </trkpt>
      <trkpt lat="42.26995" lon="-8.86025">
        <ele>74.714</ele>
        <time>2018-07-28T17:23:12Z</time>
      </trkpt>
      <trkpt lat="42.26989" lon="-8.8602">
        <ele>74.879</ele>
        <time>2018-07-28T17:23:13Z</time>
      </trkpt>
      <trkpt lat="42.26982" lon="-8.86014">
        <ele>74.952</ele>
        <time>2018-07-28T17:23:14Z</time>
      </trkpt>
      <trkpt lat="42.26977" lon="-8.86009">
        <ele>75.174</ele>
        <time>2018-07-28T17:23:15Z</time>
      </trkpt>
      <trkpt lat="42.26971" lon="-8.86006">
        <ele>75.319</ele>
        <time>2018-07-28T17:23:16Z</time>
      </trkpt>
      <trkpt lat="42.26966" lon="-8.86003">
        <ele>75.564</ele>
        <time>2018-07-28T17:23:17Z</time>
      </trkpt>
      <trkpt lat="42.26961" lon="-8.86003">
        <ele>75.822</ele>
        <time>2018-07-28T17:23:18Z</time>
      </trkpt>
      <trkpt lat="42.26956" lon="-8.86003">
        <ele>76.168</ele>
        <time>2018-07-28T17:23:19Z</time>
      </trkpt>
      <trkpt lat="42.26952" lon="-8.86005">
        <ele>76.433</ele>
        <time>2018-07-28T17:23:20Z</time>
      </trkpt>
      <trkpt lat="42.26946" lon="-8.8601">
        <ele>76.923</ele>
        <time>2018-07-28T17:23:21Z</time>
      </trkpt>
      <trkpt lat="42.26939" lon="-8.86015">
        <ele>77.415</ele>
        <time>2018-07-28T17:23:22Z</time>
      </trkpt>
      <trkpt lat="42.26933" lon="-8.8602">
        <ele>78.008</ele>
        <time>2018-07-28T17:23:23Z</time>
      </trkpt>
      <trkpt lat="42.26926" lon="-8.86025">
        <ele>78.735</ele>
        <time>2018-07-28T17:23:24Z</time>
      </trkpt>
      <trkpt lat="42.26921" lon="-8.86029">
        <ele>79.46</ele>
        <time>2018-07-28T17:23:25Z</time>
      </trkpt>
      <trkpt lat="42.26915" lon="-8.86034">
        <ele>80.073</ele>
        <time>2018-07-28T17:23:26Z</time>
      </trkpt>
      <trkpt lat="42.26911" lon="-8.86043">
        <ele>80.615</ele>
        <time>2018-07-28T17:23:27Z</time>
      </trkpt>
      <trkpt lat="42.26908" lon="-8.86052">
        <ele>81.17</ele>
        <time>2018-07-28T17:23:28Z</time>
      </trkpt>
      <trkpt lat="42.26905" lon="-8.86059">
        <ele>81.715</ele>
        <time>2018-07-28T17:23:29Z</time>
      </trkpt>
      <trkpt lat="42.26903" lon="-8.86065">
        <ele>82.253</ele>
        <time>2018-07-28T17:23:30Z</time>
      </trkpt>
      <trkpt lat="42.269" lon="-8.86071">
        <ele>83.319</ele>
        <time>2018-07-28T17:23:31Z</time>
      </trkpt>
      <trkpt lat="42.26893" lon="-8.8608">
        <ele>84.492</ele>
        <time>2018-07-28T17:23:33Z</time>
      </trkpt>
      <trkpt lat="42.26883" lon="-8.86086">
        <ele>85.673</ele>
        <time>2018-07-28T17:23:35Z</time>
      </trkpt>
      <trkpt lat="42.26876" lon="-8.86089">
        <ele>86.32</ele>
        <time>2018-07-28T17:23:36Z</time>
      </trkpt>
      <trkpt lat="42.26869" lon="-8.86092">
        <ele>87.008</ele>
        <time>2018-07-28T17:23:37Z</time>
      </trkpt>
      <trkpt lat="42.26862" lon="-8.86095">
        <ele>87.711</ele>
        <time>2018-07-28T17:23:38Z</time>
      </trkpt>
      <trkpt lat="42.26856" lon="-8.86097">
        <ele>88.456</ele>
        <time>2018-07-28T17:23:39Z</time>
      </trkpt>
      <trkpt lat="42.2685" lon="-8.86098">
        <ele>89.179</ele>
        <time>2018-07-28T17:23:40Z</time>
      </trkpt>
      <trkpt lat="42.26843" lon="-8.86099">
        <ele>89.751</ele>
        <time>2018-07-28T17:23:41Z</time>
      </trkpt>
      <trkpt lat="42.26836" lon="-8.86101">
        <ele>90.166</ele>
        <time>2018-07-28T17:23:42Z</time>
      </trkpt>
      <trkpt lat="42.26829" lon="-8.86103">
        <ele>90.571</ele>
        <time>2018-07-28T17:23:43Z</time>
      </trkpt>
      <trkpt lat="42.26822" lon="-8.86106">
        <ele>90.829</ele>
        <time>2018-07-28T17:23:44Z</time>
      </trkpt>
      <trkpt lat="42.26815" lon="-8.86109">
        <ele>91.185</ele>
        <time>2018-07-28T17:23:45Z</time>
      </trkpt>
      <trkpt lat="42.26809" lon="-8.86112">
        <ele>91.324</ele>
        <time>2018-07-28T17:23:46Z</time>
      </trkpt>
      <trkpt lat="42.26803" lon="-8.86114">
        <ele>91.404</ele>
        <time>2018-07-28T17:23:47Z</time>
      </trkpt>
      <trkpt lat="42.26799" lon="-8.86117">
        <ele>91.414</ele>
        <time>2018-07-28T17:23:48Z</time>
      </trkpt>
      <trkpt lat="42.26794" lon="-8.8612">
        <ele>91.308</ele>
        <time>2018-07-28T17:23:49Z</time>
      </trkpt>
      <trkpt lat="42.26789" lon="-8.86123">
        <ele>91.234</ele>
        <time>2018-07-28T17:23:50Z</time>
      </trkpt>
      <trkpt lat="42.26782" lon="-8.86125">
        <ele>91.189</ele>
        <time>2018-07-28T17:23:52Z</time>
      </trkpt>
      <trkpt lat="42.26777" lon="-8.86126">
        <ele>91.192</ele>
        <time>2018-07-28T17:23:53Z</time>
      </trkpt>
      <trkpt lat="42.26772" lon="-8.86127">
        <ele>91.034</ele>
        <time>2018-07-28T17:23:54Z</time>
      </trkpt>
      <trkpt lat="42.26762" lon="-8.86128">
        <ele>90.759</ele>
        <time>2018-07-28T17:23:56Z</time>
      </trkpt>
      <trkpt lat="42.26758" lon="-8.86129">
        <ele>90.514</ele>
        <time>2018-07-28T17:23:57Z</time>
      </trkpt>
      <trkpt lat="42.26753" lon="-8.86129">
        <ele>90.252</ele>
        <time>2018-07-28T17:23:58Z</time>
      </trkpt>
      <trkpt lat="42.26748" lon="-8.8613">
        <ele>89.898</ele>
        <time>2018-07-28T17:23:59Z</time>
      </trkpt>
      <trkpt lat="42.26742" lon="-8.86131">
        <ele>89.466</ele>
        <time>2018-07-28T17:24:00Z</time>
      </trkpt>
      <trkpt lat="42.26736" lon="-8.86132">
        <ele>88.929</ele>
        <time>2018-07-28T17:24:01Z</time>
      </trkpt>
      <trkpt lat="42.2673" lon="-8.86133">
        <ele>88.521</ele>
        <time>2018-07-28T17:24:02Z</time>
      </trkpt>
      <trkpt lat="42.26724" lon="-8.86134">
        <ele>88.108</ele>
        <time>2018-07-28T17:24:03Z</time>
      </trkpt>
      <trkpt lat="42.26718" lon="-8.86135">
        <ele>87.748</ele>
        <time>2018-07-28T17:24:04Z</time>
      </trkpt>
      <trkpt lat="42.26708" lon="-8.86136">
        <ele>87.283</ele>
        <time>2018-07-28T17:24:06Z</time>
      </trkpt>
      <trkpt lat="42.26703" lon="-8.86137">
        <ele>87.066</ele>
        <time>2018-07-28T17:24:07Z</time>
      </trkpt>
      <trkpt lat="42.26694" lon="-8.8614">
        <ele>86.668</ele>
        <time>2018-07-28T17:24:09Z</time>
      </trkpt>
      <trkpt lat="42.26688" lon="-8.86142">
        <ele>86.573</ele>
        <time>2018-07-28T17:24:10Z</time>
      </trkpt>
      <trkpt lat="42.26682" lon="-8.86144">
        <ele>86.428</ele>
        <time>2018-07-28T17:24:11Z</time>
      </trkpt>
      <trkpt lat="42.26676" lon="-8.86145">
        <ele>86.366</ele>
        <time>2018-07-28T17:24:12Z</time>
      </trkpt>
      <trkpt lat="42.2667" lon="-8.86146">
        <ele>86.282</ele>
        <time>2018-07-28T17:24:13Z</time>
      </trkpt>
      <trkpt lat="42.26664" lon="-8.86147">
        <ele>86.094</ele>
        <time>2018-07-28T17:24:14Z</time>
      </trkpt>
      <trkpt lat="42.26659" lon="-8.86148">
        <ele>85.757</ele>
        <time>2018-07-28T17:24:15Z</time>
      </trkpt>
      <trkpt lat="42.26654" lon="-8.86149">
        <ele>85.422</ele>
        <time>2018-07-28T17:24:16Z</time>
      </trkpt>
      <trkpt lat="42.26649" lon="-8.8615">
        <ele>85.108</ele>
        <time>2018-07-28T17:24:17Z</time>
      </trkpt>
      <trkpt lat="42.26644" lon="-8.86152">
        <ele>84.981</ele>
        <time>2018-07-28T17:24:18Z</time>
      </trkpt>
      <trkpt lat="42.2664" lon="-8.86156">
        <ele>84.766</ele>
        <time>2018-07-28T17:24:19Z</time>
      </trkpt>
      <trkpt lat="42.26635" lon="-8.8616">
        <ele>84.699</ele>
        <time>2018-07-28T17:24:20Z</time>
      </trkpt>
      <trkpt lat="42.2663" lon="-8.86165">
        <ele>84.591</ele>
        <time>2018-07-28T17:24:21Z</time>
      </trkpt>
      <trkpt lat="42.26625" lon="-8.86169">
        <ele>84.396</ele>
        <time>2018-07-28T17:24:22Z</time>
      </trkpt>
      <trkpt lat="42.26621" lon="-8.86174">
        <ele>84.211</ele>
        <time>2018-07-28T17:24:23Z</time>
      </trkpt>
      <trkpt lat="42.26616" lon="-8.86179">
        <ele>84.199</ele>
        <time>2018-07-28T17:24:24Z</time>
      </trkpt>
      <trkpt lat="42.26611" lon="-8.86183">
        <ele>83.975</ele>
        <time>2018-07-28T17:24:25Z</time>
      </trkpt>
      <trkpt lat="42.26607" lon="-8.86188">
        <ele>83.548</ele>
        <time>2018-07-28T17:24:26Z</time>
      </trkpt>
      <trkpt lat="42.26604" lon="-8.86192">
        <ele>83.361</ele>
        <time>2018-07-28T17:24:27Z</time>
      </trkpt>
      <trkpt lat="42.266" lon="-8.86196">
        <ele>83.117</ele>
        <time>2018-07-28T17:24:28Z</time>
      </trkpt>
      <trkpt lat="42.26596" lon="-8.862">
        <ele>82.908</ele>
        <time>2018-07-28T17:24:29Z</time>
      </trkpt>
      <trkpt lat="42.26592" lon="-8.86204">
        <ele>82.846</ele>
        <time>2018-07-28T17:24:30Z</time>
      </trkpt>
      <trkpt lat="42.26587" lon="-8.86206">
        <ele>82.791</ele>
        <time>2018-07-28T17:24:31Z</time>
      </trkpt>
      <trkpt lat="42.26583" lon="-8.86208">
        <ele>82.674</ele>
        <time>2018-07-28T17:24:32Z</time>
      </trkpt>
      <trkpt lat="42.26578" lon="-8.8621">
        <ele>82.566</ele>
        <time>2018-07-28T17:24:33Z</time>
      </trkpt>
      <trkpt lat="42.26569" lon="-8.86216">
        <ele>82.451</ele>
        <time>2018-07-28T17:24:35Z</time>
      </trkpt>
      <trkpt lat="42.26564" lon="-8.86219">
        <ele>82.456</ele>
        <time>2018-07-28T17:24:36Z</time>
      </trkpt>
      <trkpt lat="42.26559" lon="-8.86223">
        <ele>82.484</ele>
        <time>2018-07-28T17:24:37Z</time>
      </trkpt>
      <trkpt lat="42.26553" lon="-8.8623">
        <ele>82.49</ele>
        <time>2018-07-28T17:24:38Z</time>
      </trkpt>
      <trkpt lat="42.26548" lon="-8.86234">
        <ele>82.346</ele>
        <time>2018-07-28T17:24:39Z</time>
      </trkpt>
      <trkpt lat="42.26543" lon="-8.86238">
        <ele>82.288</ele>
        <time>2018-07-28T17:24:40Z</time>
      </trkpt>
      <trkpt lat="42.26537" lon="-8.86242">
        <ele>82.116</ele>
        <time>2018-07-28T17:24:41Z</time>
      </trkpt>
      <trkpt lat="42.26531" lon="-8.86244">
        <ele>82.008</ele>
        <time>2018-07-28T17:24:42Z</time>
      </trkpt>
      <trkpt lat="42.26526" lon="-8.86246">
        <ele>82.036</ele>
        <time>2018-07-28T17:24:43Z</time>
      </trkpt>
      <trkpt lat="42.2652" lon="-8.86249">
        <ele>82.121</ele>
        <time>2018-07-28T17:24:44Z</time>
      </trkpt>
      <trkpt lat="42.26515" lon="-8.86251">
        <ele>82.484</ele>
        <time>2018-07-28T17:24:45Z</time>
      </trkpt>
      <trkpt lat="42.26509" lon="-8.86254">
        <ele>82.716</ele>
        <time>2018-07-28T17:24:46Z</time>
      </trkpt>
      <trkpt lat="42.26503" lon="-8.86256">
        <ele>83.031</ele>
        <time>2018-07-28T17:24:47Z</time>
      </trkpt>
      <trkpt lat="42.26498" lon="-8.86258">
        <ele>83.386</ele>
        <time>2018-07-28T17:24:48Z</time>
      </trkpt>
      <trkpt lat="42.26493" lon="-8.8626">
        <ele>83.614</ele>
        <time>2018-07-28T17:24:49Z</time>
      </trkpt>
      <trkpt lat="42.26488" lon="-8.86262">
        <ele>83.86</ele>
        <time>2018-07-28T17:24:50Z</time>
      </trkpt>
      <trkpt lat="42.26481" lon="-8.86264">
        <ele>84.194</ele>
        <time>2018-07-28T17:24:51Z</time>
      </trkpt>
      <trkpt lat="42.26475" lon="-8.86265">
        <ele>84.357</ele>
        <time>2018-07-28T17:24:52Z</time>
      </trkpt>
      <trkpt lat="42.26468" lon="-8.86268">
        <ele>84.522</ele>
        <time>2018-07-28T17:24:53Z</time>
      </trkpt>
      <trkpt lat="42.26463" lon="-8.8627">
        <ele>84.708</ele>
        <time>2018-07-28T17:24:54Z</time>
      </trkpt>
      <trkpt lat="42.26458" lon="-8.86272">
        <ele>85.071</ele>
        <time>2018-07-28T17:24:55Z</time>
      </trkpt>
      <trkpt lat="42.26453" lon="-8.86276">
        <ele>85.226</ele>
        <time>2018-07-28T17:24:56Z</time>
      </trkpt>
      <trkpt lat="42.26447" lon="-8.86281">
        <ele>85.489</ele>
        <time>2018-07-28T17:24:57Z</time>
      </trkpt>
      <trkpt lat="42.26443" lon="-8.86285">
        <ele>85.521</ele>
        <time>2018-07-28T17:24:58Z</time>
      </trkpt>
      <trkpt lat="42.26438" lon="-8.8629">
        <ele>85.716</ele>
        <time>2018-07-28T17:24:59Z</time>
      </trkpt>
      <trkpt lat="42.26432" lon="-8.86295">
        <ele>85.931</ele>
        <time>2018-07-28T17:25:00Z</time>
      </trkpt>
      <trkpt lat="42.26427" lon="-8.86302">
        <ele>86.089</ele>
        <time>2018-07-28T17:25:01Z</time>
      </trkpt>
      <trkpt lat="42.26422" lon="-8.86307">
        <ele>86.125</ele>
        <time>2018-07-28T17:25:02Z</time>
      </trkpt>
      <trkpt lat="42.26416" lon="-8.86312">
        <ele>86.497</ele>
        <time>2018-07-28T17:25:03Z</time>
      </trkpt>
      <trkpt lat="42.26411" lon="-8.86316">
        <ele>86.523</ele>
        <time>2018-07-28T17:25:04Z</time>
      </trkpt>
      <trkpt lat="42.26405" lon="-8.86321">
        <ele>86.725</ele>
        <time>2018-07-28T17:25:05Z</time>
      </trkpt>
      <trkpt lat="42.26399" lon="-8.86324">
        <ele>87.008</ele>
        <time>2018-07-28T17:25:06Z</time>
      </trkpt>
      <trkpt lat="42.26393" lon="-8.86328">
        <ele>87.231</ele>
        <time>2018-07-28T17:25:07Z</time>
      </trkpt>
      <trkpt lat="42.26387" lon="-8.8633">
        <ele>87.696</ele>
        <time>2018-07-28T17:25:08Z</time>
      </trkpt>
      <trkpt lat="42.26381" lon="-8.86332">
        <ele>88.199</ele>
        <time>2018-07-28T17:25:09Z</time>
      </trkpt>
      <trkpt lat="42.26375" lon="-8.86334">
        <ele>88.581</ele>
        <time>2018-07-28T17:25:10Z</time>
      </trkpt>
      <trkpt lat="42.26368" lon="-8.86336">
        <ele>88.996</ele>
        <time>2018-07-28T17:25:11Z</time>
      </trkpt>
      <trkpt lat="42.26361" lon="-8.86338">
        <ele>89.391</ele>
        <time>2018-07-28T17:25:12Z</time>
      </trkpt>
      <trkpt lat="42.26355" lon="-8.8634">
        <ele>89.629</ele>
        <time>2018-07-28T17:25:13Z</time>
      </trkpt>
      <trkpt lat="42.26349" lon="-8.86342">
        <ele>89.895</ele>
        <time>2018-07-28T17:25:14Z</time>
      </trkpt>
      <trkpt lat="42.26344" lon="-8.86344">
        <ele>90.154</ele>
        <time>2018-07-28T17:25:15Z</time>
      </trkpt>
      <trkpt lat="42.26339" lon="-8.86345">
        <ele>90.456</ele>
        <time>2018-07-28T17:25:16Z</time>
      </trkpt>
      <trkpt lat="42.26334" lon="-8.86347">
        <ele>90.611</ele>
        <time>2018-07-28T17:25:17Z</time>
      </trkpt>
      <trkpt lat="42.26329" lon="-8.86348">
        <ele>90.908</ele>
        <time>2018-07-28T17:25:18Z</time>
      </trkpt>
      <trkpt lat="42.26324" lon="-8.8635">
        <ele>91.257</ele>
        <time>2018-07-28T17:25:19Z</time>
      </trkpt>
      <trkpt lat="42.26313" lon="-8.86352">
        <ele>92.012</ele>
        <time>2018-07-28T17:25:21Z</time>
      </trkpt>
      <trkpt lat="42.26307" lon="-8.86354">
        <ele>92.355</ele>
        <time>2018-07-28T17:25:22Z</time>
      </trkpt>
      <trkpt lat="42.263" lon="-8.86356">
        <ele>92.587</ele>
        <time>2018-07-28T17:25:23Z</time>
      </trkpt>
      <trkpt lat="42.26295" lon="-8.86357">
        <ele>92.872</ele>
        <time>2018-07-28T17:25:24Z</time>
      </trkpt>
      <trkpt lat="42.26289" lon="-8.86359">
        <ele>93.187</ele>
        <time>2018-07-28T17:25:25Z</time>
      </trkpt>
      <trkpt lat="42.26282" lon="-8.86362">
        <ele>93.375</ele>
        <time>2018-07-28T17:25:26Z</time>
      </trkpt>
      <trkpt lat="42.26276" lon="-8.86364">
        <ele>93.551</ele>
        <time>2018-07-28T17:25:27Z</time>
      </trkpt>
      <trkpt lat="42.2627" lon="-8.86365">
        <ele>93.816</ele>
        <time>2018-07-28T17:25:28Z</time>
      </trkpt>
      <trkpt lat="42.26263" lon="-8.86368">
        <ele>94.176</ele>
        <time>2018-07-28T17:25:29Z</time>
      </trkpt>
      <trkpt lat="42.26257" lon="-8.8637">
        <ele>94.313</ele>
        <time>2018-07-28T17:25:30Z</time>
      </trkpt>
      <trkpt lat="42.26253" lon="-8.86373">
        <ele>94.508</ele>
        <time>2018-07-28T17:25:31Z</time>
      </trkpt>
      <trkpt lat="42.26245" lon="-8.86379">
        <ele>94.853</ele>
        <time>2018-07-28T17:25:33Z</time>
      </trkpt>
      <trkpt lat="42.26241" lon="-8.86383">
        <ele>94.988</ele>
        <time>2018-07-28T17:25:34Z</time>
      </trkpt>
      <trkpt lat="42.26237" lon="-8.86387">
        <ele>95.061</ele>
        <time>2018-07-28T17:25:35Z</time>
      </trkpt>
      <trkpt lat="42.26234" lon="-8.86392">
        <ele>95.153</ele>
        <time>2018-07-28T17:25:36Z</time>
      </trkpt>
      <trkpt lat="42.26228" lon="-8.864">
        <ele>95.228</ele>
        <time>2018-07-28T17:25:37Z</time>
      </trkpt>
      <trkpt lat="42.26224" lon="-8.86405">
        <ele>95.443</ele>
        <time>2018-07-28T17:25:38Z</time>
      </trkpt>
      <trkpt lat="42.26222" lon="-8.86411">
        <ele>95.641</ele>
        <time>2018-07-28T17:25:39Z</time>
      </trkpt>
      <trkpt lat="42.2622" lon="-8.86417">
        <ele>96.017</ele>
        <time>2018-07-28T17:25:40Z</time>
      </trkpt>
      <trkpt lat="42.26217" lon="-8.86424">
        <ele>96.222</ele>
        <time>2018-07-28T17:25:41Z</time>
      </trkpt>
      <trkpt lat="42.26214" lon="-8.86429">
        <ele>96.462</ele>
        <time>2018-07-28T17:25:42Z</time>
      </trkpt>
      <trkpt lat="42.26205" lon="-8.86431">
        <ele>96.708</ele>
        <time>2018-07-28T17:25:44Z</time>
      </trkpt>
      <trkpt lat="42.262" lon="-8.86432">
        <ele>96.808</ele>
        <time>2018-07-28T17:25:45Z</time>
      </trkpt>
      <trkpt lat="42.26192" lon="-8.86432">
        <ele>96.984</ele>
        <time>2018-07-28T17:25:47Z</time>
      </trkpt>
      <trkpt lat="42.26184" lon="-8.86432">
        <ele>96.919</ele>
        <time>2018-07-28T17:25:49Z</time>
      </trkpt>
      <trkpt lat="42.26176" lon="-8.86432">
        <ele>96.952</ele>
        <time>2018-07-28T17:25:51Z</time>
      </trkpt>
      <trkpt lat="42.26171" lon="-8.86431">
        <ele>96.914</ele>
        <time>2018-07-28T17:25:52Z</time>
      </trkpt>
      <trkpt lat="42.26162" lon="-8.86431">
        <ele>96.969</ele>
        <time>2018-07-28T17:25:54Z</time>
      </trkpt>
      <trkpt lat="42.26158" lon="-8.86432">
        <ele>96.934</ele>
        <time>2018-07-28T17:25:55Z</time>
      </trkpt>
      <trkpt lat="42.26152" lon="-8.86432">
        <ele>96.912</ele>
        <time>2018-07-28T17:25:56Z</time>
      </trkpt>
      <trkpt lat="42.26147" lon="-8.86433">
        <ele>96.998</ele>
        <time>2018-07-28T17:25:57Z</time>
      </trkpt>
      <trkpt lat="42.26142" lon="-8.86434">
        <ele>96.997</ele>
        <time>2018-07-28T17:25:58Z</time>
      </trkpt>
      <trkpt lat="42.26136" lon="-8.86434">
        <ele>96.923</ele>
        <time>2018-07-28T17:25:59Z</time>
      </trkpt>
      <trkpt lat="42.26131" lon="-8.86435">
        <ele>96.825</ele>
        <time>2018-07-28T17:26:00Z</time>
      </trkpt>
      <trkpt lat="42.26126" lon="-8.86436">
        <ele>96.708</ele>
        <time>2018-07-28T17:26:01Z</time>
      </trkpt>
      <trkpt lat="42.2612" lon="-8.86436">
        <ele>96.661</ele>
        <time>2018-07-28T17:26:02Z</time>
      </trkpt>
      <trkpt lat="42.26115" lon="-8.86437">
        <ele>96.686</ele>
        <time>2018-07-28T17:26:03Z</time>
      </trkpt>
      <trkpt lat="42.2611" lon="-8.86438">
        <ele>96.659</ele>
        <time>2018-07-28T17:26:04Z</time>
      </trkpt>
      <trkpt lat="42.26101" lon="-8.8644">
        <ele>96.621</ele>
        <time>2018-07-28T17:26:06Z</time>
      </trkpt>
      <trkpt lat="42.26094" lon="-8.86442">
        <ele>96.686</ele>
        <time>2018-07-28T17:26:08Z</time>
      </trkpt>
      <trkpt lat="42.26082" lon="-8.86443">
        <ele>96.691</ele>
        <time>2018-07-28T17:26:10Z</time>
      </trkpt>
      <trkpt lat="42.26076" lon="-8.86443">
        <ele>96.649</ele>
        <time>2018-07-28T17:26:11Z</time>
      </trkpt>
      <trkpt lat="42.26071" lon="-8.86443">
        <ele>96.695</ele>
        <time>2018-07-28T17:26:12Z</time>
      </trkpt>
      <trkpt lat="42.26062" lon="-8.86444">
        <ele>96.662</ele>
        <time>2018-07-28T17:26:14Z</time>
      </trkpt>
      <trkpt lat="42.26057" lon="-8.86446">
        <ele>96.383</ele>
        <time>2018-07-28T17:26:15Z</time>
      </trkpt>
      <trkpt lat="42.26053" lon="-8.8645">
        <ele>96.211</ele>
        <time>2018-07-28T17:26:16Z</time>
      </trkpt>
      <trkpt lat="42.26048" lon="-8.86455">
        <ele>96.108</ele>
        <time>2018-07-28T17:26:17Z</time>
      </trkpt>
      <trkpt lat="42.26044" lon="-8.86462">
        <ele>95.978</ele>
        <time>2018-07-28T17:26:18Z</time>
      </trkpt>
      <trkpt lat="42.2604" lon="-8.86467">
        <ele>95.863</ele>
        <time>2018-07-28T17:26:19Z</time>
      </trkpt>
      <trkpt lat="42.26035" lon="-8.86476">
        <ele>95.636</ele>
        <time>2018-07-28T17:26:21Z</time>
      </trkpt>
      <trkpt lat="42.26032" lon="-8.86483">
        <ele>95.618</ele>
        <time>2018-07-28T17:26:22Z</time>
      </trkpt>
      <trkpt lat="42.26028" lon="-8.86493">
        <ele>95.643</ele>
        <time>2018-07-28T17:26:24Z</time>
      </trkpt>
      <trkpt lat="42.26024" lon="-8.86497">
        <ele>95.668</ele>
        <time>2018-07-28T17:26:25Z</time>
      </trkpt>
      <trkpt lat="42.2602" lon="-8.86499">
        <ele>95.636</ele>
        <time>2018-07-28T17:26:26Z</time>
      </trkpt>
      <trkpt lat="42.26015" lon="-8.86502">
        <ele>95.642</ele>
        <time>2018-07-28T17:26:27Z</time>
      </trkpt>
      <trkpt lat="42.26009" lon="-8.86503">
        <ele>95.699</ele>
        <time>2018-07-28T17:26:28Z</time>
      </trkpt>
      <trkpt lat="42.26005" lon="-8.86502">
        <ele>95.607</ele>
        <time>2018-07-28T17:26:29Z</time>
      </trkpt>
      <trkpt lat="42.25998" lon="-8.86502">
        <ele>95.627</ele>
        <time>2018-07-28T17:26:30Z</time>
      </trkpt>
      <trkpt lat="42.25992" lon="-8.86503">
        <ele>95.608</ele>
        <time>2018-07-28T17:26:31Z</time>
      </trkpt>
      <trkpt lat="42.25986" lon="-8.86503">
        <ele>95.611</ele>
        <time>2018-07-28T17:26:32Z</time>
      </trkpt>
      <trkpt lat="42.25981" lon="-8.86504">
        <ele>95.876</ele>
        <time>2018-07-28T17:26:33Z</time>
      </trkpt>
      <trkpt lat="42.25975" lon="-8.86505">
        <ele>96.059</ele>
        <time>2018-07-28T17:26:34Z</time>
      </trkpt>
      <trkpt lat="42.2597" lon="-8.86506">
        <ele>96.141</ele>
        <time>2018-07-28T17:26:35Z</time>
      </trkpt>
      <trkpt lat="42.25964" lon="-8.86508">
        <ele>96.256</ele>
        <time>2018-07-28T17:26:36Z</time>
      </trkpt>
      <trkpt lat="42.25959" lon="-8.86509">
        <ele>96.281</ele>
        <time>2018-07-28T17:26:37Z</time>
      </trkpt>
      <trkpt lat="42.25953" lon="-8.8651">
        <ele>96.239</ele>
        <time>2018-07-28T17:26:38Z</time>
      </trkpt>
      <trkpt lat="42.25948" lon="-8.86512">
        <ele>96.165</ele>
        <time>2018-07-28T17:26:39Z</time>
      </trkpt>
      <trkpt lat="42.25943" lon="-8.86514">
        <ele>96.097</ele>
        <time>2018-07-28T17:26:40Z</time>
      </trkpt>
      <trkpt lat="42.25938" lon="-8.86516">
        <ele>95.923</ele>
        <time>2018-07-28T17:26:41Z</time>
      </trkpt>
      <trkpt lat="42.25932" lon="-8.86517">
        <ele>95.825</ele>
        <time>2018-07-28T17:26:42Z</time>
      </trkpt>
      <trkpt lat="42.25927" lon="-8.86518">
        <ele>95.608</ele>
        <time>2018-07-28T17:26:43Z</time>
      </trkpt>
      <trkpt lat="42.25922" lon="-8.86519">
        <ele>95.491</ele>
        <time>2018-07-28T17:26:44Z</time>
      </trkpt>
      <trkpt lat="42.25914" lon="-8.8652">
        <ele>94.966</ele>
        <time>2018-07-28T17:26:46Z</time>
      </trkpt>
      <trkpt lat="42.25905" lon="-8.8652">
        <ele>94.419</ele>
        <time>2018-07-28T17:26:48Z</time>
      </trkpt>
      <trkpt lat="42.259" lon="-8.86521">
        <ele>94.221</ele>
        <time>2018-07-28T17:26:49Z</time>
      </trkpt>
      <trkpt lat="42.25895" lon="-8.86522">
        <ele>94.036</ele>
        <time>2018-07-28T17:26:50Z</time>
      </trkpt>
      <trkpt lat="42.25891" lon="-8.86523">
        <ele>93.751</ele>
        <time>2018-07-28T17:26:51Z</time>
      </trkpt>
      <trkpt lat="42.25886" lon="-8.86525">
        <ele>93.649</ele>
        <time>2018-07-28T17:26:52Z</time>
      </trkpt>
      <trkpt lat="42.25881" lon="-8.86526">
        <ele>93.465</ele>
        <time>2018-07-28T17:26:53Z</time>
      </trkpt>
      <trkpt lat="42.25872" lon="-8.86526">
        <ele>92.981</ele>
        <time>2018-07-28T17:26:55Z</time>
      </trkpt>
      <trkpt lat="42.25867" lon="-8.86527">
        <ele>92.761</ele>
        <time>2018-07-28T17:26:56Z</time>
      </trkpt>
      <trkpt lat="42.25862" lon="-8.8653">
        <ele>92.417</ele>
        <time>2018-07-28T17:26:57Z</time>
      </trkpt>
      <trkpt lat="42.25857" lon="-8.86532">
        <ele>92.108</ele>
        <time>2018-07-28T17:26:58Z</time>
      </trkpt>
      <trkpt lat="42.25853" lon="-8.86537">
        <ele>91.81</ele>
        <time>2018-07-28T17:26:59Z</time>
      </trkpt>
      <trkpt lat="42.25849" lon="-8.86542">
        <ele>91.525</ele>
        <time>2018-07-28T17:27:00Z</time>
      </trkpt>
      <trkpt lat="42.25846" lon="-8.86546">
        <ele>91.118</ele>
        <time>2018-07-28T17:27:01Z</time>
      </trkpt>
      <trkpt lat="42.25843" lon="-8.86551">
        <ele>90.78</ele>
        <time>2018-07-28T17:27:02Z</time>
      </trkpt>
      <trkpt lat="42.25835" lon="-8.86558">
        <ele>90.015</ele>
        <time>2018-07-28T17:27:04Z</time>
      </trkpt>
      <trkpt lat="42.25828" lon="-8.86566">
        <ele>89.21</ele>
        <time>2018-07-28T17:27:06Z</time>
      </trkpt>
      <trkpt lat="42.2582" lon="-8.86568">
        <ele>87.858</ele>
        <time>2018-07-28T17:27:08Z</time>
      </trkpt>
      <trkpt lat="42.25816" lon="-8.86569">
        <ele>87.434</ele>
        <time>2018-07-28T17:27:09Z</time>
      </trkpt>
      <trkpt lat="42.25811" lon="-8.86571">
        <ele>87.059</ele>
        <time>2018-07-28T17:27:10Z</time>
      </trkpt>
      <trkpt lat="42.25806" lon="-8.86573">
        <ele>86.603</ele>
        <time>2018-07-28T17:27:11Z</time>
      </trkpt>
      <trkpt lat="42.25802" lon="-8.86575">
        <ele>86.223</ele>
        <time>2018-07-28T17:27:12Z</time>
      </trkpt>
      <trkpt lat="42.25794" lon="-8.86576">
        <ele>85.508</ele>
        <time>2018-07-28T17:27:14Z</time>
      </trkpt>
      <trkpt lat="42.25785" lon="-8.86578">
        <ele>84.997</ele>
        <time>2018-07-28T17:27:16Z</time>
      </trkpt>
      <trkpt lat="42.25777" lon="-8.86581">
        <ele>84.422</ele>
        <time>2018-07-28T17:27:18Z</time>
      </trkpt>
      <trkpt lat="42.25769" lon="-8.86582">
        <ele>83.835</ele>
        <time>2018-07-28T17:27:20Z</time>
      </trkpt>
      <trkpt lat="42.2576" lon="-8.86587">
        <ele>83.397</ele>
        <time>2018-07-28T17:27:22Z</time>
      </trkpt>
      <trkpt lat="42.25757" lon="-8.86591">
        <ele>83.132</ele>
        <time>2018-07-28T17:27:23Z</time>
      </trkpt>
      <trkpt lat="42.25752" lon="-8.86592">
        <ele>82.987</ele>
        <time>2018-07-28T17:27:24Z</time>
      </trkpt>
      <trkpt lat="42.25747" lon="-8.86595">
        <ele>82.715</ele>
        <time>2018-07-28T17:27:25Z</time>
      </trkpt>
      <trkpt lat="42.2574" lon="-8.86598">
        <ele>82.081</ele>
        <time>2018-07-28T17:27:27Z</time>
      </trkpt>
      <trkpt lat="42.25735" lon="-8.86601">
        <ele>81.822</ele>
        <time>2018-07-28T17:27:28Z</time>
      </trkpt>
      <trkpt lat="42.25731" lon="-8.86603">
        <ele>81.762</ele>
        <time>2018-07-28T17:27:29Z</time>
      </trkpt>
      <trkpt lat="42.25726" lon="-8.86605">
        <ele>81.508</ele>
        <time>2018-07-28T17:27:30Z</time>
      </trkpt>
      <trkpt lat="42.25718" lon="-8.86607">
        <ele>81.308</ele>
        <time>2018-07-28T17:27:32Z</time>
      </trkpt>
      <trkpt lat="42.2571" lon="-8.86607">
        <ele>81.144</ele>
        <time>2018-07-28T17:27:34Z</time>
      </trkpt>
      <trkpt lat="42.25704" lon="-8.86607">
        <ele>80.889</ele>
        <time>2018-07-28T17:27:36Z</time>
      </trkpt>
      <trkpt lat="42.25699" lon="-8.86606">
        <ele>80.532</ele>
        <time>2018-07-28T17:27:38Z</time>
      </trkpt>
      <trkpt lat="42.25694" lon="-8.86605">
        <ele>80.394</ele>
        <time>2018-07-28T17:27:40Z</time>
      </trkpt>
      <trkpt lat="42.2569" lon="-8.86605">
        <ele>79.799</ele>
        <time>2018-07-28T17:27:44Z</time>
      </trkpt>
      <trkpt lat="42.25694" lon="-8.866">
        <ele>79.924</ele>
        <time>2018-07-28T17:29:55Z</time>
      </trkpt>
      <trkpt lat="42.25687" lon="-8.86596">
        <ele>79.532</ele>
        <time>2018-07-28T17:30:47Z</time>
      </trkpt>
      <trkpt lat="42.25681" lon="-8.86593">
        <ele>79.168</ele>
        <time>2018-07-28T17:30:49Z</time>
      </trkpt>
      <trkpt lat="42.25674" lon="-8.86588">
        <ele>78.554</ele>
        <time>2018-07-28T17:30:51Z</time>
      </trkpt>
      <trkpt lat="42.25669" lon="-8.8658">
        <ele>78.056</ele>
        <time>2018-07-28T17:30:53Z</time>
      </trkpt>
      <trkpt lat="42.25665" lon="-8.86571">
        <ele>77.511</ele>
        <time>2018-07-28T17:30:55Z</time>
      </trkpt>
      <trkpt lat="42.25662" lon="-8.86562">
        <ele>77.108</ele>
        <time>2018-07-28T17:30:57Z</time>
      </trkpt>
      <trkpt lat="42.25661" lon="-8.86551">
        <ele>76.687</ele>
        <time>2018-07-28T17:30:59Z</time>
      </trkpt>
      <trkpt lat="42.25662" lon="-8.86541">
        <ele>76.132</ele>
        <time>2018-07-28T17:31:01Z</time>
      </trkpt>
      <trkpt lat="42.25662" lon="-8.86535">
        <ele>75.895</ele>
        <time>2018-07-28T17:31:02Z</time>
      </trkpt>
      <trkpt lat="42.25661" lon="-8.86524">
        <ele>75.227</ele>
        <time>2018-07-28T17:31:04Z</time>
      </trkpt>
      <trkpt lat="42.25657" lon="-8.86518">
        <ele>74.572</ele>
        <time>2018-07-28T17:31:05Z</time>
      </trkpt>
      <trkpt lat="42.2565" lon="-8.86511">
        <ele>73.977</ele>
        <time>2018-07-28T17:31:07Z</time>
      </trkpt>
      <trkpt lat="42.25645" lon="-8.86508">
        <ele>73.615</ele>
        <time>2018-07-28T17:31:08Z</time>
      </trkpt>
      <trkpt lat="42.25641" lon="-8.86505">
        <ele>73.411</ele>
        <time>2018-07-28T17:31:09Z</time>
      </trkpt>
      <trkpt lat="42.25633" lon="-8.86501">
        <ele>72.971</ele>
        <time>2018-07-28T17:31:11Z</time>
      </trkpt>
      <trkpt lat="42.25629" lon="-8.86498">
        <ele>72.741</ele>
        <time>2018-07-28T17:31:12Z</time>
      </trkpt>
      <trkpt lat="42.25623" lon="-8.86491">
        <ele>72.215</ele>
        <time>2018-07-28T17:31:14Z</time>
      </trkpt>
      <trkpt lat="42.25619" lon="-8.86481">
        <ele>71.708</ele>
        <time>2018-07-28T17:31:16Z</time>
      </trkpt>
      <trkpt lat="42.25615" lon="-8.8647">
        <ele>71.179</ele>
        <time>2018-07-28T17:31:18Z</time>
      </trkpt>
      <trkpt lat="42.25613" lon="-8.86464">
        <ele>70.844</ele>
        <time>2018-07-28T17:31:19Z</time>
      </trkpt>
      <trkpt lat="42.2561" lon="-8.86454">
        <ele>70.247</ele>
        <time>2018-07-28T17:31:21Z</time>
      </trkpt>
      <trkpt lat="42.25606" lon="-8.86443">
        <ele>69.599</ele>
        <time>2018-07-28T17:31:23Z</time>
      </trkpt>
      <trkpt lat="42.25604" lon="-8.86438">
        <ele>68.884</ele>
        <time>2018-07-28T17:31:24Z</time>
      </trkpt>
      <trkpt lat="42.25603" lon="-8.86431">
        <ele>68.589</ele>
        <time>2018-07-28T17:31:25Z</time>
      </trkpt>
      <trkpt lat="42.256" lon="-8.86426">
        <ele>68.247</ele>
        <time>2018-07-28T17:31:26Z</time>
      </trkpt>
      <trkpt lat="42.25596" lon="-8.86421">
        <ele>67.963</ele>
        <time>2018-07-28T17:31:27Z</time>
      </trkpt>
      <trkpt lat="42.25591" lon="-8.86417">
        <ele>67.623</ele>
        <time>2018-07-28T17:31:28Z</time>
      </trkpt>
      <trkpt lat="42.25586" lon="-8.86414">
        <ele>67.383</ele>
        <time>2018-07-28T17:31:29Z</time>
      </trkpt>
      <trkpt lat="42.25581" lon="-8.86411">
        <ele>67.011</ele>
        <time>2018-07-28T17:31:30Z</time>
      </trkpt>
      <trkpt lat="42.25576" lon="-8.86409">
        <ele>66.708</ele>
        <time>2018-07-28T17:31:31Z</time>
      </trkpt>
      <trkpt lat="42.2557" lon="-8.86407">
        <ele>66.384</ele>
        <time>2018-07-28T17:31:32Z</time>
      </trkpt>
      <trkpt lat="42.25565" lon="-8.86406">
        <ele>66.039</ele>
        <time>2018-07-28T17:31:33Z</time>
      </trkpt>
      <trkpt lat="42.25559" lon="-8.86406">
        <ele>65.652</ele>
        <time>2018-07-28T17:31:34Z</time>
      </trkpt>
      <trkpt lat="42.25554" lon="-8.86405">
        <ele>65.264</ele>
        <time>2018-07-28T17:31:35Z</time>
      </trkpt>
      <trkpt lat="42.25547" lon="-8.86402">
        <ele>64.879</ele>
        <time>2018-07-28T17:31:36Z</time>
      </trkpt>
      <trkpt lat="42.25542" lon="-8.86401">
        <ele>64.494</ele>
        <time>2018-07-28T17:31:37Z</time>
      </trkpt>
      <trkpt lat="42.25536" lon="-8.86398">
        <ele>64.032</ele>
        <time>2018-07-28T17:31:38Z</time>
      </trkpt>
      <trkpt lat="42.25531" lon="-8.86396">
        <ele>63.618</ele>
        <time>2018-07-28T17:31:39Z</time>
      </trkpt>
      <trkpt lat="42.25527" lon="-8.86394">
        <ele>63.289</ele>
        <time>2018-07-28T17:31:40Z</time>
      </trkpt>
      <trkpt lat="42.25519" lon="-8.86392">
        <ele>62.306</ele>
        <time>2018-07-28T17:31:42Z</time>
      </trkpt>
      <trkpt lat="42.25511" lon="-8.86389">
        <ele>61.526</ele>
        <time>2018-07-28T17:31:44Z</time>
      </trkpt>
      <trkpt lat="42.25507" lon="-8.86385">
        <ele>61.308</ele>
        <time>2018-07-28T17:31:45Z</time>
      </trkpt>
      <trkpt lat="42.25504" lon="-8.8638">
        <ele>61.26</ele>
        <time>2018-07-28T17:31:46Z</time>
      </trkpt>
      <trkpt lat="42.25499" lon="-8.86374">
        <ele>61.275</ele>
        <time>2018-07-28T17:31:47Z</time>
      </trkpt>
      <trkpt lat="42.25496" lon="-8.86367">
        <ele>61.338</ele>
        <time>2018-07-28T17:31:48Z</time>
      </trkpt>
      <trkpt lat="42.25492" lon="-8.8636">
        <ele>61.55</ele>
        <time>2018-07-28T17:31:49Z</time>
      </trkpt>
      <trkpt lat="42.25488" lon="-8.86353">
        <ele>61.875</ele>
        <time>2018-07-28T17:31:50Z</time>
      </trkpt>
      <trkpt lat="42.25484" lon="-8.86346">
        <ele>62.24</ele>
        <time>2018-07-28T17:31:51Z</time>
      </trkpt>
      <trkpt lat="42.2548" lon="-8.86338">
        <ele>62.668</ele>
        <time>2018-07-28T17:31:52Z</time>
      </trkpt>
      <trkpt lat="42.25476" lon="-8.86331">
        <ele>63.134</ele>
        <time>2018-07-28T17:31:53Z</time>
      </trkpt>
      <trkpt lat="42.25472" lon="-8.86324">
        <ele>63.583</ele>
        <time>2018-07-28T17:31:54Z</time>
      </trkpt>
      <trkpt lat="42.25468" lon="-8.86317">
        <ele>63.925</ele>
        <time>2018-07-28T17:31:55Z</time>
      </trkpt>
      <trkpt lat="42.25464" lon="-8.86309">
        <ele>64.317</ele>
        <time>2018-07-28T17:31:56Z</time>
      </trkpt>
      <trkpt lat="42.25461" lon="-8.86302">
        <ele>64.708</ele>
        <time>2018-07-28T17:31:57Z</time>
      </trkpt>
      <trkpt lat="42.25455" lon="-8.8629">
        <ele>65.37</ele>
        <time>2018-07-28T17:31:59Z</time>
      </trkpt>
      <trkpt lat="42.25453" lon="-8.86284">
        <ele>65.615</ele>
        <time>2018-07-28T17:32:00Z</time>
      </trkpt>
      <trkpt lat="42.25449" lon="-8.86274">
        <ele>66.058</ele>
        <time>2018-07-28T17:32:02Z</time>
      </trkpt>
      <trkpt lat="42.25446" lon="-8.86265">
        <ele>66.25</ele>
        <time>2018-07-28T17:32:04Z</time>
      </trkpt>
      <trkpt lat="42.25444" lon="-8.8626">
        <ele>66.895</ele>
        <time>2018-07-28T17:32:22Z</time>
      </trkpt>
      <trkpt lat="42.25449" lon="-8.86258">
        <ele>67.09</ele>
        <time>2018-07-28T17:32:41Z</time>
      </trkpt>
      <trkpt lat="42.25455" lon="-8.86257">
        <ele>67.338</ele>
        <time>2018-07-28T17:32:43Z</time>
      </trkpt>
      <trkpt lat="42.25461" lon="-8.86259">
        <ele>67.864</ele>
        <time>2018-07-28T17:32:46Z</time>
      </trkpt>
      <trkpt lat="42.25468" lon="-8.86261">
        <ele>68.482</ele>
        <time>2018-07-28T17:33:13Z</time>
      </trkpt>
      <trkpt lat="42.25473" lon="-8.86263">
        <ele>69.043</ele>
        <time>2018-07-28T17:33:14Z</time>
      </trkpt>
      <trkpt lat="42.25477" lon="-8.86266">
        <ele>69.617</ele>
        <time>2018-07-28T17:33:15Z</time>
      </trkpt>
      <trkpt lat="42.25482" lon="-8.86271">
        <ele>70.208</ele>
        <time>2018-07-28T17:33:16Z</time>
      </trkpt>
      <trkpt lat="42.25487" lon="-8.86274">
        <ele>70.91</ele>
        <time>2018-07-28T17:33:17Z</time>
      </trkpt>
      <trkpt lat="42.25492" lon="-8.86276">
        <ele>71.645</ele>
        <time>2018-07-28T17:33:18Z</time>
      </trkpt>
      <trkpt lat="42.25497" lon="-8.86278">
        <ele>72.258</ele>
        <time>2018-07-28T17:33:19Z</time>
      </trkpt>
      <trkpt lat="42.25502" lon="-8.86279">
        <ele>72.86</ele>
        <time>2018-07-28T17:33:20Z</time>
      </trkpt>
      <trkpt lat="42.25507" lon="-8.86279">
        <ele>73.225</ele>
        <time>2018-07-28T17:33:21Z</time>
      </trkpt>
      <trkpt lat="42.25515" lon="-8.86281">
        <ele>74.05</ele>
        <time>2018-07-28T17:33:23Z</time>
      </trkpt>
      <trkpt lat="42.25523" lon="-8.86281">
        <ele>74.748</ele>
        <time>2018-07-28T17:33:25Z</time>
      </trkpt>
      <trkpt lat="42.25533" lon="-8.86279">
        <ele>75.594</ele>
        <time>2018-07-28T17:33:27Z</time>
      </trkpt>
      <trkpt lat="42.2554" lon="-8.86278">
        <ele>75.922</ele>
        <time>2018-07-28T17:33:28Z</time>
      </trkpt>
      <trkpt lat="42.25546" lon="-8.86278">
        <ele>76.362</ele>
        <time>2018-07-28T17:33:29Z</time>
      </trkpt>
      <trkpt lat="42.25553" lon="-8.86276">
        <ele>76.708</ele>
        <time>2018-07-28T17:33:30Z</time>
      </trkpt>
      <trkpt lat="42.2556" lon="-8.86275">
        <ele>77.208</ele>
        <time>2018-07-28T17:33:31Z</time>
      </trkpt>
      <trkpt lat="42.25567" lon="-8.86274">
        <ele>78.144</ele>
        <time>2018-07-28T17:33:32Z</time>
      </trkpt>
      <trkpt lat="42.25573" lon="-8.86273">
        <ele>78.779</ele>
        <time>2018-07-28T17:33:33Z</time>
      </trkpt>
      <trkpt lat="42.2558" lon="-8.86273">
        <ele>79.432</ele>
        <time>2018-07-28T17:33:34Z</time>
      </trkpt>
      <trkpt lat="42.25586" lon="-8.86273">
        <ele>80.114</ele>
        <time>2018-07-28T17:33:35Z</time>
      </trkpt>
      <trkpt lat="42.25592" lon="-8.86274">
        <ele>80.889</ele>
        <time>2018-07-28T17:33:36Z</time>
      </trkpt>
      <trkpt lat="42.25599" lon="-8.86275">
        <ele>81.594</ele>
        <time>2018-07-28T17:33:37Z</time>
      </trkpt>
      <trkpt lat="42.25604" lon="-8.86277">
        <ele>82.382</ele>
        <time>2018-07-28T17:33:38Z</time>
      </trkpt>
      <trkpt lat="42.2561" lon="-8.86279">
        <ele>82.918</ele>
        <time>2018-07-28T17:33:39Z</time>
      </trkpt>
      <trkpt lat="42.25616" lon="-8.8628">
        <ele>83.544</ele>
        <time>2018-07-28T17:33:40Z</time>
      </trkpt>
      <trkpt lat="42.25622" lon="-8.86282">
        <ele>84.205</ele>
        <time>2018-07-28T17:33:41Z</time>
      </trkpt>
      <trkpt lat="42.25628" lon="-8.86283">
        <ele>84.815</ele>
        <time>2018-07-28T17:33:42Z</time>
      </trkpt>
      <trkpt lat="42.25633" lon="-8.86284">
        <ele>85.308</ele>
        <time>2018-07-28T17:33:43Z</time>
      </trkpt>
      <trkpt lat="42.25639" lon="-8.86284">
        <ele>85.826</ele>
        <time>2018-07-28T17:33:44Z</time>
      </trkpt>
      <trkpt lat="42.25645" lon="-8.86283">
        <ele>86.331</ele>
        <time>2018-07-28T17:33:45Z</time>
      </trkpt>
      <trkpt lat="42.2565" lon="-8.86282">
        <ele>86.764</ele>
        <time>2018-07-28T17:33:46Z</time>
      </trkpt>
      <trkpt lat="42.25658" lon="-8.8628">
        <ele>87.446</ele>
        <time>2018-07-28T17:33:48Z</time>
      </trkpt>
      <trkpt lat="42.25664" lon="-8.86279">
        <ele>87.681</ele>
        <time>2018-07-28T17:33:49Z</time>
      </trkpt>
      <trkpt lat="42.25669" lon="-8.86278">
        <ele>87.896</ele>
        <time>2018-07-28T17:33:50Z</time>
      </trkpt>
      <trkpt lat="42.25673" lon="-8.86277">
        <ele>87.814</ele>
        <time>2018-07-28T17:33:51Z</time>
      </trkpt>
      <trkpt lat="42.25679" lon="-8.86276">
        <ele>87.63</ele>
        <time>2018-07-28T17:33:52Z</time>
      </trkpt>
      <trkpt lat="42.25685" lon="-8.86275">
        <ele>87.581</ele>
        <time>2018-07-28T17:33:53Z</time>
      </trkpt>
      <trkpt lat="42.2569" lon="-8.86274">
        <ele>87.461</ele>
        <time>2018-07-28T17:33:54Z</time>
      </trkpt>
      <trkpt lat="42.25696" lon="-8.86272">
        <ele>87.217</ele>
        <time>2018-07-28T17:33:55Z</time>
      </trkpt>
      <trkpt lat="42.25702" lon="-8.86271">
        <ele>87.108</ele>
        <time>2018-07-28T17:33:56Z</time>
      </trkpt>
      <trkpt lat="42.25708" lon="-8.86269">
        <ele>87.08</ele>
        <time>2018-07-28T17:33:57Z</time>
      </trkpt>
      <trkpt lat="42.25715" lon="-8.86267">
        <ele>87.075</ele>
        <time>2018-07-28T17:33:58Z</time>
      </trkpt>
      <trkpt lat="42.25721" lon="-8.86264">
        <ele>87.058</ele>
        <time>2018-07-28T17:33:59Z</time>
      </trkpt>
      <trkpt lat="42.25727" lon="-8.86261">
        <ele>87.02</ele>
        <time>2018-07-28T17:34:00Z</time>
      </trkpt>
      <trkpt lat="42.25733" lon="-8.86256">
        <ele>87.085</ele>
        <time>2018-07-28T17:34:01Z</time>
      </trkpt>
      <trkpt lat="42.25738" lon="-8.86254">
        <ele>87.01</ele>
        <time>2018-07-28T17:34:02Z</time>
      </trkpt>
      <trkpt lat="42.25744" lon="-8.8625">
        <ele>87.018</ele>
        <time>2018-07-28T17:34:03Z</time>
      </trkpt>
      <trkpt lat="42.25749" lon="-8.86247">
        <ele>87.014</ele>
        <time>2018-07-28T17:34:04Z</time>
      </trkpt>
      <trkpt lat="42.25754" lon="-8.86243">
        <ele>86.979</ele>
        <time>2018-07-28T17:34:05Z</time>
      </trkpt>
      <trkpt lat="42.25759" lon="-8.8624">
        <ele>86.705</ele>
        <time>2018-07-28T17:34:06Z</time>
      </trkpt>
      <trkpt lat="42.25767" lon="-8.86232">
        <ele>86.425</ele>
        <time>2018-07-28T17:34:08Z</time>
      </trkpt>
      <trkpt lat="42.2577" lon="-8.86227">
        <ele>86.208</ele>
        <time>2018-07-28T17:34:09Z</time>
      </trkpt>
      <trkpt lat="42.25776" lon="-8.86219">
        <ele>85.739</ele>
        <time>2018-07-28T17:34:11Z</time>
      </trkpt>
      <trkpt lat="42.25779" lon="-8.86213">
        <ele>85.494</ele>
        <time>2018-07-28T17:34:12Z</time>
      </trkpt>
      <trkpt lat="42.25782" lon="-8.86207">
        <ele>85.257</ele>
        <time>2018-07-28T17:34:13Z</time>
      </trkpt>
      <trkpt lat="42.25786" lon="-8.86202">
        <ele>85.099</ele>
        <time>2018-07-28T17:34:14Z</time>
      </trkpt>
      <trkpt lat="42.25789" lon="-8.86198">
        <ele>85.024</ele>
        <time>2018-07-28T17:34:15Z</time>
      </trkpt>
      <trkpt lat="42.25792" lon="-8.86193">
        <ele>85.029</ele>
        <time>2018-07-28T17:34:16Z</time>
      </trkpt>
      <trkpt lat="42.25796" lon="-8.86189">
        <ele>84.967</ele>
        <time>2018-07-28T17:34:17Z</time>
      </trkpt>
      <trkpt lat="42.25804" lon="-8.8618">
        <ele>84.783</ele>
        <time>2018-07-28T17:34:19Z</time>
      </trkpt>
      <trkpt lat="42.25808" lon="-8.86175">
        <ele>84.564</ele>
        <time>2018-07-28T17:34:20Z</time>
      </trkpt>
      <trkpt lat="42.25813" lon="-8.86169">
        <ele>84.306</ele>
        <time>2018-07-28T17:34:21Z</time>
      </trkpt>
      <trkpt lat="42.25818" lon="-8.86163">
        <ele>84.216</ele>
        <time>2018-07-28T17:34:22Z</time>
      </trkpt>
      <trkpt lat="42.25824" lon="-8.86159">
        <ele>84.008</ele>
        <time>2018-07-28T17:34:23Z</time>
      </trkpt>
      <trkpt lat="42.25829" lon="-8.86155">
        <ele>83.998</ele>
        <time>2018-07-28T17:34:24Z</time>
      </trkpt>
      <trkpt lat="42.25834" lon="-8.86149">
        <ele>83.953</ele>
        <time>2018-07-28T17:34:25Z</time>
      </trkpt>
      <trkpt lat="42.25841" lon="-8.86144">
        <ele>84.116</ele>
        <time>2018-07-28T17:34:26Z</time>
      </trkpt>
      <trkpt lat="42.25849" lon="-8.86139">
        <ele>84.468</ele>
        <time>2018-07-28T17:34:27Z</time>
      </trkpt>
      <trkpt lat="42.25856" lon="-8.86135">
        <ele>84.943</ele>
        <time>2018-07-28T17:34:28Z</time>
      </trkpt>
      <trkpt lat="42.25863" lon="-8.8613">
        <ele>85.548</ele>
        <time>2018-07-28T17:34:29Z</time>
      </trkpt>
      <trkpt lat="42.25869" lon="-8.86126">
        <ele>86.336</ele>
        <time>2018-07-28T17:34:30Z</time>
      </trkpt>
      <trkpt lat="42.25876" lon="-8.86121">
        <ele>87.162</ele>
        <time>2018-07-28T17:34:31Z</time>
      </trkpt>
      <trkpt lat="42.25882" lon="-8.86117">
        <ele>87.976</ele>
        <time>2018-07-28T17:34:32Z</time>
      </trkpt>
      <trkpt lat="42.25889" lon="-8.86113">
        <ele>88.79</ele>
        <time>2018-07-28T17:34:33Z</time>
      </trkpt>
      <trkpt lat="42.25896" lon="-8.86109">
        <ele>89.519</ele>
        <time>2018-07-28T17:34:34Z</time>
      </trkpt>
      <trkpt lat="42.25901" lon="-8.86104">
        <ele>90.308</ele>
        <time>2018-07-28T17:34:35Z</time>
      </trkpt>
      <trkpt lat="42.25907" lon="-8.86101">
        <ele>91.299</ele>
        <time>2018-07-28T17:34:36Z</time>
      </trkpt>
      <trkpt lat="42.25913" lon="-8.86103">
        <ele>92.144</ele>
        <time>2018-07-28T17:34:37Z</time>
      </trkpt>
      <trkpt lat="42.25921" lon="-8.86101">
        <ele>93.087</ele>
        <time>2018-07-28T17:34:38Z</time>
      </trkpt>
      <trkpt lat="42.25927" lon="-8.86098">
        <ele>93.949</ele>
        <time>2018-07-28T17:34:39Z</time>
      </trkpt>
      <trkpt lat="42.25934" lon="-8.86094">
        <ele>94.734</ele>
        <time>2018-07-28T17:34:40Z</time>
      </trkpt>
      <trkpt lat="42.2594" lon="-8.86089">
        <ele>96.339</ele>
        <time>2018-07-28T17:34:41Z</time>
      </trkpt>
      <trkpt lat="42.25944" lon="-8.86084">
        <ele>96.987</ele>
        <time>2018-07-28T17:34:42Z</time>
      </trkpt>
      <trkpt lat="42.2595" lon="-8.8608">
        <ele>97.993</ele>
        <time>2018-07-28T17:34:44Z</time>
      </trkpt>
      <trkpt lat="42.25955" lon="-8.86072">
        <ele>98.613</ele>
        <time>2018-07-28T17:34:46Z</time>
      </trkpt>
      <trkpt lat="42.25959" lon="-8.86069">
        <ele>99.243</ele>
        <time>2018-07-28T17:34:48Z</time>
      </trkpt>
      <trkpt lat="42.2596" lon="-8.86062">
        <ele>99.507</ele>
        <time>2018-07-28T17:34:49Z</time>
      </trkpt>
      <trkpt lat="42.25962" lon="-8.86056">
        <ele>99.908</ele>
        <time>2018-07-28T17:34:50Z</time>
      </trkpt>
      <trkpt lat="42.25967" lon="-8.86046">
        <ele>100.823</ele>
        <time>2018-07-28T17:34:52Z</time>
      </trkpt>
      <trkpt lat="42.2597" lon="-8.8604">
        <ele>101.338</ele>
        <time>2018-07-28T17:34:53Z</time>
      </trkpt>
      <trkpt lat="42.25973" lon="-8.86035">
        <ele>101.981</ele>
        <time>2018-07-28T17:34:54Z</time>
      </trkpt>
      <trkpt lat="42.25978" lon="-8.86029">
        <ele>102.463</ele>
        <time>2018-07-28T17:34:55Z</time>
      </trkpt>
      <trkpt lat="42.25984" lon="-8.86021">
        <ele>103.058</ele>
        <time>2018-07-28T17:34:56Z</time>
      </trkpt>
      <trkpt lat="42.25991" lon="-8.86011">
        <ele>103.753</ele>
        <time>2018-07-28T17:34:57Z</time>
      </trkpt>
      <trkpt lat="42.26" lon="-8.85998">
        <ele>105.061</ele>
        <time>2018-07-28T17:34:58Z</time>
      </trkpt>
      <trkpt lat="42.26006" lon="-8.8599">
        <ele>105.757</ele>
        <time>2018-07-28T17:34:59Z</time>
      </trkpt>
      <trkpt lat="42.26011" lon="-8.85984">
        <ele>106.353</ele>
        <time>2018-07-28T17:35:00Z</time>
      </trkpt>
      <trkpt lat="42.26017" lon="-8.85981">
        <ele>106.604</ele>
        <time>2018-07-28T17:35:01Z</time>
      </trkpt>
      <trkpt lat="42.26023" lon="-8.85977">
        <ele>106.914</ele>
        <time>2018-07-28T17:35:02Z</time>
      </trkpt>
      <trkpt lat="42.26028" lon="-8.85973">
        <ele>106.908</ele>
        <time>2018-07-28T17:35:03Z</time>
      </trkpt>
      <trkpt lat="42.26032" lon="-8.8597">
        <ele>106.867</ele>
        <time>2018-07-28T17:35:04Z</time>
      </trkpt>
      <trkpt lat="42.26037" lon="-8.85967">
        <ele>106.562</ele>
        <time>2018-07-28T17:35:05Z</time>
      </trkpt>
      <trkpt lat="42.26041" lon="-8.85963">
        <ele>106.175</ele>
        <time>2018-07-28T17:35:06Z</time>
      </trkpt>
      <trkpt lat="42.26052" lon="-8.85956">
        <ele>105.147</ele>
        <time>2018-07-28T17:35:08Z</time>
      </trkpt>
      <trkpt lat="42.26059" lon="-8.85953">
        <ele>104.692</ele>
        <time>2018-07-28T17:35:09Z</time>
      </trkpt>
      <trkpt lat="42.26069" lon="-8.85947">
        <ele>103.637</ele>
        <time>2018-07-28T17:35:11Z</time>
      </trkpt>
      <trkpt lat="42.26074" lon="-8.85944">
        <ele>103.195</ele>
        <time>2018-07-28T17:35:12Z</time>
      </trkpt>
      <trkpt lat="42.2608" lon="-8.85944">
        <ele>102.651</ele>
        <time>2018-07-28T17:35:13Z</time>
      </trkpt>
      <trkpt lat="42.26086" lon="-8.85943">
        <ele>102.186</ele>
        <time>2018-07-28T17:35:14Z</time>
      </trkpt>
      <trkpt lat="42.26091" lon="-8.85942">
        <ele>101.26</ele>
        <time>2018-07-28T17:35:15Z</time>
      </trkpt>
      <trkpt lat="42.26101" lon="-8.85937">
        <ele>100.526</ele>
        <time>2018-07-28T17:35:17Z</time>
      </trkpt>
      <trkpt lat="42.26107" lon="-8.85936">
        <ele>99.908</ele>
        <time>2018-07-28T17:35:19Z</time>
      </trkpt>
      <trkpt lat="42.26112" lon="-8.85935">
        <ele>98.92</ele>
        <time>2018-07-28T17:35:22Z</time>
      </trkpt>
      <trkpt lat="42.26117" lon="-8.8593">
        <ele>97.965</ele>
        <time>2018-07-28T17:35:24Z</time>
      </trkpt>
      <trkpt lat="42.26124" lon="-8.85922">
        <ele>96.888</ele>
        <time>2018-07-28T17:35:26Z</time>
      </trkpt>
      <trkpt lat="42.2613" lon="-8.85919">
        <ele>96.45</ele>
        <time>2018-07-28T17:35:27Z</time>
      </trkpt>
      <trkpt lat="42.26135" lon="-8.85917">
        <ele>96.015</ele>
        <time>2018-07-28T17:35:28Z</time>
      </trkpt>
      <trkpt lat="42.26143" lon="-8.85918">
        <ele>95.74</ele>
        <time>2018-07-28T17:35:29Z</time>
      </trkpt>
      <trkpt lat="42.26151" lon="-8.85919">
        <ele>95.368</ele>
        <time>2018-07-28T17:35:30Z</time>
      </trkpt>
      <trkpt lat="42.26157" lon="-8.8592">
        <ele>94.914</ele>
        <time>2018-07-28T17:35:31Z</time>
      </trkpt>
      <trkpt lat="42.26166" lon="-8.85923">
        <ele>94.919</ele>
        <time>2018-07-28T17:35:32Z</time>
      </trkpt>
      <trkpt lat="42.26174" lon="-8.85925">
        <ele>94.909</ele>
        <time>2018-07-28T17:35:33Z</time>
      </trkpt>
      <trkpt lat="42.26183" lon="-8.85928">
        <ele>95.219</ele>
        <time>2018-07-28T17:35:34Z</time>
      </trkpt>
      <trkpt lat="42.26192" lon="-8.85934">
        <ele>95.508</ele>
        <time>2018-07-28T17:35:35Z</time>
      </trkpt>
      <trkpt lat="42.26201" lon="-8.85939">
        <ele>95.943</ele>
        <time>2018-07-28T17:35:36Z</time>
      </trkpt>
      <trkpt lat="42.2621" lon="-8.85945">
        <ele>96.478</ele>
        <time>2018-07-28T17:35:37Z</time>
      </trkpt>
      <trkpt lat="42.2622" lon="-8.8595">
        <ele>97.031</ele>
        <time>2018-07-28T17:35:38Z</time>
      </trkpt>
      <trkpt lat="42.2623" lon="-8.85954">
        <ele>97.673</ele>
        <time>2018-07-28T17:35:39Z</time>
      </trkpt>
      <trkpt lat="42.26241" lon="-8.85956">
        <ele>98.328</ele>
        <time>2018-07-28T17:35:40Z</time>
      </trkpt>
      <trkpt lat="42.2625" lon="-8.85957">
        <ele>99.073</ele>
        <time>2018-07-28T17:35:41Z</time>
      </trkpt>
      <trkpt lat="42.26258" lon="-8.85957">
        <ele>99.561</ele>
        <time>2018-07-28T17:35:42Z</time>
      </trkpt>
      <trkpt lat="42.26264" lon="-8.85957">
        <ele>99.977</ele>
        <time>2018-07-28T17:35:43Z</time>
      </trkpt>
      <trkpt lat="42.26271" lon="-8.85954">
        <ele>100.342</ele>
        <time>2018-07-28T17:35:44Z</time>
      </trkpt>
      <trkpt lat="42.26277" lon="-8.85951">
        <ele>100.622</ele>
        <time>2018-07-28T17:35:45Z</time>
      </trkpt>
      <trkpt lat="42.26284" lon="-8.85948">
        <ele>101.114</ele>
        <time>2018-07-28T17:35:46Z</time>
      </trkpt>
      <trkpt lat="42.2629" lon="-8.85946">
        <ele>101.408</ele>
        <time>2018-07-28T17:35:47Z</time>
      </trkpt>
      <trkpt lat="42.26296" lon="-8.85945">
        <ele>101.756</ele>
        <time>2018-07-28T17:35:48Z</time>
      </trkpt>
      <trkpt lat="42.26302" lon="-8.85943">
        <ele>102.131</ele>
        <time>2018-07-28T17:35:49Z</time>
      </trkpt>
      <trkpt lat="42.2631" lon="-8.85942">
        <ele>102.664</ele>
        <time>2018-07-28T17:35:50Z</time>
      </trkpt>
      <trkpt lat="42.26317" lon="-8.85944">
        <ele>103.176</ele>
        <time>2018-07-28T17:35:51Z</time>
      </trkpt>
      <trkpt lat="42.26325" lon="-8.85946">
        <ele>103.691</ele>
        <time>2018-07-28T17:35:52Z</time>
      </trkpt>
      <trkpt lat="42.26333" lon="-8.8595">
        <ele>104.146</ele>
        <time>2018-07-28T17:35:53Z</time>
      </trkpt>
      <trkpt lat="42.26339" lon="-8.85952">
        <ele>104.424</ele>
        <time>2018-07-28T17:35:54Z</time>
      </trkpt>
      <trkpt lat="42.26346" lon="-8.85955">
        <ele>104.73</ele>
        <time>2018-07-28T17:35:55Z</time>
      </trkpt>
      <trkpt lat="42.26352" lon="-8.85954">
        <ele>104.765</ele>
        <time>2018-07-28T17:35:56Z</time>
      </trkpt>
      <trkpt lat="42.26358" lon="-8.85954">
        <ele>104.668</ele>
        <time>2018-07-28T17:35:57Z</time>
      </trkpt>
      <trkpt lat="42.26364" lon="-8.85952">
        <ele>104.414</ele>
        <time>2018-07-28T17:35:58Z</time>
      </trkpt>
      <trkpt lat="42.26371" lon="-8.8595">
        <ele>104.408</ele>
        <time>2018-07-28T17:35:59Z</time>
      </trkpt>
      <trkpt lat="42.26378" lon="-8.85948">
        <ele>104.428</ele>
        <time>2018-07-28T17:36:00Z</time>
      </trkpt>
      <trkpt lat="42.26385" lon="-8.85947">
        <ele>104.693</ele>
        <time>2018-07-28T17:36:01Z</time>
      </trkpt>
      <trkpt lat="42.26393" lon="-8.85947">
        <ele>104.936</ele>
        <time>2018-07-28T17:36:02Z</time>
      </trkpt>
      <trkpt lat="42.26401" lon="-8.85947">
        <ele>105.668</ele>
        <time>2018-07-28T17:36:03Z</time>
      </trkpt>
      <trkpt lat="42.26412" lon="-8.8595">
        <ele>106.123</ele>
        <time>2018-07-28T17:36:04Z</time>
      </trkpt>
      <trkpt lat="42.26423" lon="-8.85955">
        <ele>106.588</ele>
        <time>2018-07-28T17:36:05Z</time>
      </trkpt>
      <trkpt lat="42.26432" lon="-8.85958">
        <ele>106.816</ele>
        <time>2018-07-28T17:36:06Z</time>
      </trkpt>
      <trkpt lat="42.2644" lon="-8.85963">
        <ele>107.192</ele>
        <time>2018-07-28T17:36:07Z</time>
      </trkpt>
      <trkpt lat="42.26447" lon="-8.85967">
        <ele>107.388</ele>
        <time>2018-07-28T17:36:08Z</time>
      </trkpt>
      <trkpt lat="42.26454" lon="-8.85971">
        <ele>107.324</ele>
        <time>2018-07-28T17:36:09Z</time>
      </trkpt>
      <trkpt lat="42.26461" lon="-8.85975">
        <ele>107.326</ele>
        <time>2018-07-28T17:36:10Z</time>
      </trkpt>
      <trkpt lat="42.26469" lon="-8.8598">
        <ele>107.408</ele>
        <time>2018-07-28T17:36:11Z</time>
      </trkpt>
      <trkpt lat="42.26475" lon="-8.85984">
        <ele>107.53</ele>
        <time>2018-07-28T17:36:12Z</time>
      </trkpt>
      <trkpt lat="42.26482" lon="-8.85989">
        <ele>107.785</ele>
        <time>2018-07-28T17:36:13Z</time>
      </trkpt>
      <trkpt lat="42.26487" lon="-8.85992">
        <ele>107.928</ele>
        <time>2018-07-28T17:36:14Z</time>
      </trkpt>
      <trkpt lat="42.26492" lon="-8.85997">
        <ele>108.16</ele>
        <time>2018-07-28T17:36:15Z</time>
      </trkpt>
      <trkpt lat="42.26498" lon="-8.86001">
        <ele>108.125</ele>
        <time>2018-07-28T17:36:16Z</time>
      </trkpt>
      <trkpt lat="42.26502" lon="-8.86005">
        <ele>108.15</ele>
        <time>2018-07-28T17:36:17Z</time>
      </trkpt>
      <trkpt lat="42.26506" lon="-8.86007">
        <ele>108.158</ele>
        <time>2018-07-28T17:36:18Z</time>
      </trkpt>
      <trkpt lat="42.26504" lon="-8.86013">
        <ele>108.034</ele>
        <time>2018-07-28T17:36:27Z</time>
      </trkpt>
      <trkpt lat="42.26507" lon="-8.86021">
        <ele>107.926</ele>
        <time>2018-07-28T17:36:51Z</time>
      </trkpt>
      <trkpt lat="42.26515" lon="-8.86025">
        <ele>108.247</ele>
        <time>2018-07-28T17:36:53Z</time>
      </trkpt>
      <trkpt lat="42.2652" lon="-8.86027">
        <ele>108.311</ele>
        <time>2018-07-28T17:36:54Z</time>
      </trkpt>
      <trkpt lat="42.26526" lon="-8.86031">
        <ele>108.508</ele>
        <time>2018-07-28T17:36:55Z</time>
      </trkpt>
      <trkpt lat="42.26531" lon="-8.86033">
        <ele>108.764</ele>
        <time>2018-07-28T17:36:56Z</time>
      </trkpt>
      <trkpt lat="42.2654" lon="-8.86037">
        <ele>109.169</ele>
        <time>2018-07-28T17:36:57Z</time>
      </trkpt>
      <trkpt lat="42.26548" lon="-8.86041">
        <ele>109.552</ele>
        <time>2018-07-28T17:36:58Z</time>
      </trkpt>
      <trkpt lat="42.26555" lon="-8.86044">
        <ele>110.014</ele>
        <time>2018-07-28T17:36:59Z</time>
      </trkpt>
      <trkpt lat="42.26562" lon="-8.86046">
        <ele>110.439</ele>
        <time>2018-07-28T17:37:00Z</time>
      </trkpt>
      <trkpt lat="42.2657" lon="-8.86049">
        <ele>110.784</ele>
        <time>2018-07-28T17:37:01Z</time>
      </trkpt>
      <trkpt lat="42.26575" lon="-8.8605">
        <ele>110.952</ele>
        <time>2018-07-28T17:37:02Z</time>
      </trkpt>
      <trkpt lat="42.2658" lon="-8.8605">
        <ele>111.088</ele>
        <time>2018-07-28T17:37:03Z</time>
      </trkpt>
      <trkpt lat="42.26589" lon="-8.86047">
        <ele>110.929</ele>
        <time>2018-07-28T17:37:05Z</time>
      </trkpt>
      <trkpt lat="42.26594" lon="-8.86044">
        <ele>110.7</ele>
        <time>2018-07-28T17:37:06Z</time>
      </trkpt>
      <trkpt lat="42.26598" lon="-8.86041">
        <ele>109.92</ele>
        <time>2018-07-28T17:37:07Z</time>
      </trkpt>
      <trkpt lat="42.26603" lon="-8.86037">
        <ele>109.408</ele>
        <time>2018-07-28T17:37:08Z</time>
      </trkpt>
      <trkpt lat="42.26608" lon="-8.86032">
        <ele>108.234</ele>
        <time>2018-07-28T17:37:10Z</time>
      </trkpt>
      <trkpt lat="42.26617" lon="-8.86023">
        <ele>106.819</ele>
        <time>2018-07-28T17:37:12Z</time>
      </trkpt>
      <trkpt lat="42.26621" lon="-8.8602">
        <ele>106.292</ele>
        <time>2018-07-28T17:37:13Z</time>
      </trkpt>
      <trkpt lat="42.26624" lon="-8.86016">
        <ele>105.654</ele>
        <time>2018-07-28T17:37:14Z</time>
      </trkpt>
      <trkpt lat="42.26629" lon="-8.86012">
        <ele>105.169</ele>
        <time>2018-07-28T17:37:15Z</time>
      </trkpt>
      <trkpt lat="42.26636" lon="-8.86006">
        <ele>104.234</ele>
        <time>2018-07-28T17:37:17Z</time>
      </trkpt>
      <trkpt lat="42.26646" lon="-8.85999">
        <ele>103.342</ele>
        <time>2018-07-28T17:37:19Z</time>
      </trkpt>
      <trkpt lat="42.2665" lon="-8.85997">
        <ele>102.768</ele>
        <time>2018-07-28T17:37:20Z</time>
      </trkpt>
      <trkpt lat="42.26656" lon="-8.85995">
        <ele>102.216</ele>
        <time>2018-07-28T17:37:21Z</time>
      </trkpt>
      <trkpt lat="42.26663" lon="-8.85996">
        <ele>101.876</ele>
        <time>2018-07-28T17:37:22Z</time>
      </trkpt>
      <trkpt lat="42.2667" lon="-8.85998">
        <ele>100.613</ele>
        <time>2018-07-28T17:37:23Z</time>
      </trkpt>
      <trkpt lat="42.26676" lon="-8.85999">
        <ele>99.908</ele>
        <time>2018-07-28T17:37:24Z</time>
      </trkpt>
      <trkpt lat="42.26682" lon="-8.86001">
        <ele>99.213</ele>
        <time>2018-07-28T17:37:25Z</time>
      </trkpt>
      <trkpt lat="42.26688" lon="-8.86003">
        <ele>98.428</ele>
        <time>2018-07-28T17:37:26Z</time>
      </trkpt>
      <trkpt lat="42.26694" lon="-8.86006">
        <ele>97.781</ele>
        <time>2018-07-28T17:37:27Z</time>
      </trkpt>
      <trkpt lat="42.26699" lon="-8.8601">
        <ele>97.213</ele>
        <time>2018-07-28T17:37:28Z</time>
      </trkpt>
      <trkpt lat="42.26705" lon="-8.86014">
        <ele>96.918</ele>
        <time>2018-07-28T17:37:29Z</time>
      </trkpt>
      <trkpt lat="42.26711" lon="-8.86018">
        <ele>96.653</ele>
        <time>2018-07-28T17:37:30Z</time>
      </trkpt>
      <trkpt lat="42.26715" lon="-8.86023">
        <ele>96.481</ele>
        <time>2018-07-28T17:37:31Z</time>
      </trkpt>
      <trkpt lat="42.26719" lon="-8.86028">
        <ele>96.317</ele>
        <time>2018-07-28T17:37:32Z</time>
      </trkpt>
      <trkpt lat="42.26723" lon="-8.86035">
        <ele>96.111</ele>
        <time>2018-07-28T17:37:33Z</time>
      </trkpt>
      <trkpt lat="42.26725" lon="-8.86042">
        <ele>95.921</ele>
        <time>2018-07-28T17:37:34Z</time>
      </trkpt>
      <trkpt lat="42.26727" lon="-8.8605">
        <ele>95.703</ele>
        <time>2018-07-28T17:37:35Z</time>
      </trkpt>
      <trkpt lat="42.26727" lon="-8.86059">
        <ele>95.408</ele>
        <time>2018-07-28T17:37:36Z</time>
      </trkpt>
      <trkpt lat="42.26727" lon="-8.86067">
        <ele>94.943</ele>
        <time>2018-07-28T17:37:37Z</time>
      </trkpt>
      <trkpt lat="42.26726" lon="-8.86074">
        <ele>94.348</ele>
        <time>2018-07-28T17:37:38Z</time>
      </trkpt>
      <trkpt lat="42.26724" lon="-8.86081">
        <ele>93.011</ele>
        <time>2018-07-28T17:37:39Z</time>
      </trkpt>
      <trkpt lat="42.26722" lon="-8.86087">
        <ele>92.513</ele>
        <time>2018-07-28T17:37:40Z</time>
      </trkpt>
      <trkpt lat="42.26719" lon="-8.86093">
        <ele>92.168</ele>
        <time>2018-07-28T17:37:41Z</time>
      </trkpt>
      <trkpt lat="42.26713" lon="-8.86103">
        <ele>91.453</ele>
        <time>2018-07-28T17:37:43Z</time>
      </trkpt>
      <trkpt lat="42.26709" lon="-8.8611">
        <ele>90.851</ele>
        <time>2018-07-28T17:37:45Z</time>
      </trkpt>
      <trkpt lat="42.26708" lon="-8.86118">
        <ele>90.117</ele>
        <time>2018-07-28T17:37:47Z</time>
      </trkpt>
      <trkpt lat="42.26709" lon="-8.86125">
        <ele>89.326</ele>
        <time>2018-07-28T17:37:49Z</time>
      </trkpt>
      <trkpt lat="42.26712" lon="-8.86132">
        <ele>88.347</ele>
        <time>2018-07-28T17:37:51Z</time>
      </trkpt>
      <trkpt lat="42.26719" lon="-8.86135">
        <ele>87.411</ele>
        <time>2018-07-28T17:37:53Z</time>
      </trkpt>
      <trkpt lat="42.26723" lon="-8.86134">
        <ele>87.008</ele>
        <time>2018-07-28T17:37:54Z</time>
      </trkpt>
      <trkpt lat="42.26728" lon="-8.86132">
        <ele>86.814</ele>
        <time>2018-07-28T17:37:55Z</time>
      </trkpt>
      <trkpt lat="42.26732" lon="-8.8613">
        <ele>86.799</ele>
        <time>2018-07-28T17:37:56Z</time>
      </trkpt>
      <trkpt lat="42.26742" lon="-8.86127">
        <ele>87.022</ele>
        <time>2018-07-28T17:37:58Z</time>
      </trkpt>
      <trkpt lat="42.26751" lon="-8.86125">
        <ele>87.514</ele>
        <time>2018-07-28T17:38:00Z</time>
      </trkpt>
      <trkpt lat="42.26757" lon="-8.86123">
        <ele>87.829</ele>
        <time>2018-07-28T17:38:01Z</time>
      </trkpt>
      <trkpt lat="42.26763" lon="-8.86121">
        <ele>88.154</ele>
        <time>2018-07-28T17:38:02Z</time>
      </trkpt>
      <trkpt lat="42.2677" lon="-8.86121">
        <ele>88.572</ele>
        <time>2018-07-28T17:38:03Z</time>
      </trkpt>
      <trkpt lat="42.26776" lon="-8.8612">
        <ele>88.948</ele>
        <time>2018-07-28T17:38:04Z</time>
      </trkpt>
      <trkpt lat="42.26783" lon="-8.86118">
        <ele>89.454</ele>
        <time>2018-07-28T17:38:05Z</time>
      </trkpt>
      <trkpt lat="42.26789" lon="-8.86116">
        <ele>90.056</ele>
        <time>2018-07-28T17:38:06Z</time>
      </trkpt>
      <trkpt lat="42.26795" lon="-8.86113">
        <ele>90.511</ele>
        <time>2018-07-28T17:38:07Z</time>
      </trkpt>
      <trkpt lat="42.26801" lon="-8.86111">
        <ele>91.008</ele>
        <time>2018-07-28T17:38:08Z</time>
      </trkpt>
      <trkpt lat="42.26806" lon="-8.86108">
        <ele>91.497</ele>
        <time>2018-07-28T17:38:09Z</time>
      </trkpt>
      <trkpt lat="42.26811" lon="-8.86105">
        <ele>91.862</ele>
        <time>2018-07-28T17:38:10Z</time>
      </trkpt>
      <trkpt lat="42.26817" lon="-8.86103">
        <ele>92.015</ele>
        <time>2018-07-28T17:38:11Z</time>
      </trkpt>
      <trkpt lat="42.26823" lon="-8.861">
        <ele>92.117</ele>
        <time>2018-07-28T17:38:12Z</time>
      </trkpt>
      <trkpt lat="42.26828" lon="-8.86097">
        <ele>92.192</ele>
        <time>2018-07-28T17:38:13Z</time>
      </trkpt>
      <trkpt lat="42.26834" lon="-8.86095">
        <ele>92.097</ele>
        <time>2018-07-28T17:38:14Z</time>
      </trkpt>
      <trkpt lat="42.26839" lon="-8.86094">
        <ele>92.035</ele>
        <time>2018-07-28T17:38:15Z</time>
      </trkpt>
      <trkpt lat="42.26844" lon="-8.86092">
        <ele>91.951</ele>
        <time>2018-07-28T17:38:16Z</time>
      </trkpt>
      <trkpt lat="42.26849" lon="-8.86091">
        <ele>91.732</ele>
        <time>2018-07-28T17:38:17Z</time>
      </trkpt>
      <trkpt lat="42.26854" lon="-8.86089">
        <ele>91.492</ele>
        <time>2018-07-28T17:38:18Z</time>
      </trkpt>
      <trkpt lat="42.26859" lon="-8.86086">
        <ele>91.111</ele>
        <time>2018-07-28T17:38:19Z</time>
      </trkpt>
      <trkpt lat="42.26866" lon="-8.86082">
        <ele>90.508</ele>
        <time>2018-07-28T17:38:21Z</time>
      </trkpt>
      <trkpt lat="42.26874" lon="-8.86077">
        <ele>90.075</ele>
        <time>2018-07-28T17:38:23Z</time>
      </trkpt>
      <trkpt lat="42.26881" lon="-8.86073">
        <ele>89.52</ele>
        <time>2018-07-28T17:38:25Z</time>
      </trkpt>
      <trkpt lat="42.26887" lon="-8.8607">
        <ele>89.113</ele>
        <time>2018-07-28T17:38:26Z</time>
      </trkpt>
      <trkpt lat="42.26893" lon="-8.86065">
        <ele>88.755</ele>
        <time>2018-07-28T17:38:27Z</time>
      </trkpt>
      <trkpt lat="42.26899" lon="-8.86061">
        <ele>87.71</ele>
        <time>2018-07-28T17:38:28Z</time>
      </trkpt>
      <trkpt lat="42.26903" lon="-8.86056">
        <ele>87.075</ele>
        <time>2018-07-28T17:38:29Z</time>
      </trkpt>
      <trkpt lat="42.26909" lon="-8.86049">
        <ele>85.843</ele>
        <time>2018-07-28T17:38:31Z</time>
      </trkpt>
      <trkpt lat="42.26912" lon="-8.8604">
        <ele>84.779</ele>
        <time>2018-07-28T17:38:33Z</time>
      </trkpt>
      <trkpt lat="42.26915" lon="-8.86032">
        <ele>83.752</ele>
        <time>2018-07-28T17:38:35Z</time>
      </trkpt>
      <trkpt lat="42.2692" lon="-8.86024">
        <ele>82.953</ele>
        <time>2018-07-28T17:38:37Z</time>
      </trkpt>
      <trkpt lat="42.26924" lon="-8.8602">
        <ele>82.608</ele>
        <time>2018-07-28T17:38:38Z</time>
      </trkpt>
      <trkpt lat="42.26929" lon="-8.86016">
        <ele>82.308</ele>
        <time>2018-07-28T17:38:39Z</time>
      </trkpt>
      <trkpt lat="42.26933" lon="-8.86012">
        <ele>82.087</ele>
        <time>2018-07-28T17:38:40Z</time>
      </trkpt>
      <trkpt lat="42.26937" lon="-8.86008">
        <ele>81.522</ele>
        <time>2018-07-28T17:38:41Z</time>
      </trkpt>
      <trkpt lat="42.26943" lon="-8.86004">
        <ele>81.055</ele>
        <time>2018-07-28T17:38:42Z</time>
      </trkpt>
      <trkpt lat="42.26947" lon="-8.86001">
        <ele>80.597</ele>
        <time>2018-07-28T17:38:43Z</time>
      </trkpt>
      <trkpt lat="42.26955" lon="-8.85998">
        <ele>78.912</ele>
        <time>2018-07-28T17:38:45Z</time>
      </trkpt>
      <trkpt lat="42.2696" lon="-8.85996">
        <ele>78.557</ele>
        <time>2018-07-28T17:38:46Z</time>
      </trkpt>
      <trkpt lat="42.26965" lon="-8.85994">
        <ele>78.155</ele>
        <time>2018-07-28T17:38:47Z</time>
      </trkpt>
      <trkpt lat="42.26972" lon="-8.85996">
        <ele>77.871</ele>
        <time>2018-07-28T17:38:48Z</time>
      </trkpt>
      <trkpt lat="42.26977" lon="-8.85998">
        <ele>77.519</ele>
        <time>2018-07-28T17:38:49Z</time>
      </trkpt>
      <trkpt lat="42.26982" lon="-8.86002">
        <ele>77.109</ele>
        <time>2018-07-28T17:38:50Z</time>
      </trkpt>
      <trkpt lat="42.26986" lon="-8.86006">
        <ele>76.819</ele>
        <time>2018-07-28T17:38:51Z</time>
      </trkpt>
      <trkpt lat="42.26991" lon="-8.86008">
        <ele>76.508</ele>
        <time>2018-07-28T17:38:52Z</time>
      </trkpt>
      <trkpt lat="42.26995" lon="-8.86012">
        <ele>76.113</ele>
        <time>2018-07-28T17:38:53Z</time>
      </trkpt>
      <trkpt lat="42.27" lon="-8.86015">
        <ele>75.828</ele>
        <time>2018-07-28T17:38:54Z</time>
      </trkpt>
      <trkpt lat="42.27004" lon="-8.86018">
        <ele>75.691</ele>
        <time>2018-07-28T17:38:55Z</time>
      </trkpt>
      <trkpt lat="42.2701" lon="-8.86023">
        <ele>75.453</ele>
        <time>2018-07-28T17:38:56Z</time>
      </trkpt>
      <trkpt lat="42.27015" lon="-8.86025">
        <ele>75.298</ele>
        <time>2018-07-28T17:38:57Z</time>
      </trkpt>
      <trkpt lat="42.27021" lon="-8.86028">
        <ele>75.093</ele>
        <time>2018-07-28T17:38:58Z</time>
      </trkpt>
      <trkpt lat="42.27026" lon="-8.86028">
        <ele>74.841</ele>
        <time>2018-07-28T17:38:59Z</time>
      </trkpt>
      <trkpt lat="42.27035" lon="-8.86028">
        <ele>74.747</ele>
        <time>2018-07-28T17:39:01Z</time>
      </trkpt>
      <trkpt lat="42.27044" lon="-8.86027">
        <ele>74.836</ele>
        <time>2018-07-28T17:39:03Z</time>
      </trkpt>
      <trkpt lat="42.27048" lon="-8.86026">
        <ele>74.817</ele>
        <time>2018-07-28T17:39:04Z</time>
      </trkpt>
      <trkpt lat="42.27053" lon="-8.86025">
        <ele>74.718</ele>
        <time>2018-07-28T17:39:05Z</time>
      </trkpt>
      <trkpt lat="42.27058" lon="-8.86024">
        <ele>74.508</ele>
        <time>2018-07-28T17:39:06Z</time>
      </trkpt>
      <trkpt lat="42.27064" lon="-8.86021">
        <ele>73.975</ele>
        <time>2018-07-28T17:39:08Z</time>
      </trkpt>
      <trkpt lat="42.27069" lon="-8.86019">
        <ele>73.37</ele>
        <time>2018-07-28T17:39:10Z</time>
      </trkpt>
      <trkpt lat="42.27072" lon="-8.86014">
        <ele>73.033</ele>
        <time>2018-07-28T17:39:14Z</time>
      </trkpt>
      <trkpt lat="42.2707" lon="-8.86007">
        <ele>73.185</ele>
        <time>2018-07-28T17:39:24Z</time>
      </trkpt>
      <trkpt lat="42.27064" lon="-8.86002">
        <ele>73.38</ele>
        <time>2018-07-28T17:39:30Z</time>
      </trkpt>
      <trkpt lat="42.27056" lon="-8.85999">
        <ele>73.695</ele>
        <time>2018-07-28T17:39:31Z</time>
      </trkpt>
      <trkpt lat="42.2705" lon="-8.85997">
        <ele>74.333</ele>
        <time>2018-07-28T17:39:32Z</time>
      </trkpt>
      <trkpt lat="42.27045" lon="-8.85994">
        <ele>74.669</ele>
        <time>2018-07-28T17:39:33Z</time>
      </trkpt>
      <trkpt lat="42.2704" lon="-8.85991">
        <ele>74.668</ele>
        <time>2018-07-28T17:39:34Z</time>
      </trkpt>
      <trkpt lat="42.27035" lon="-8.85989">
        <ele>74.642</ele>
        <time>2018-07-28T17:39:35Z</time>
      </trkpt>
      <trkpt lat="42.27031" lon="-8.85986">
        <ele>74.326</ele>
        <time>2018-07-28T17:39:36Z</time>
      </trkpt>
      <trkpt lat="42.27026" lon="-8.85983">
        <ele>73.908</ele>
        <time>2018-07-28T17:39:37Z</time>
      </trkpt>
      <trkpt lat="42.27023" lon="-8.85978">
        <ele>73.438</ele>
        <time>2018-07-28T17:39:38Z</time>
      </trkpt>
      <trkpt lat="42.27023" lon="-8.85968">
        <ele>72.213</ele>
        <time>2018-07-28T17:39:40Z</time>
      </trkpt>
      <trkpt lat="42.27028" lon="-8.85963">
        <ele>71.216</ele>
        <time>2018-07-28T17:39:42Z</time>
      </trkpt>
      <trkpt lat="42.27035" lon="-8.85962">
        <ele>70.898</ele>
        <time>2018-07-28T17:39:43Z</time>
      </trkpt>
      <trkpt lat="42.27044" lon="-8.85961">
        <ele>70.643</ele>
        <time>2018-07-28T17:39:44Z</time>
      </trkpt>
      <trkpt lat="42.27051" lon="-8.8596">
        <ele>70.638</ele>
        <time>2018-07-28T17:39:45Z</time>
      </trkpt>
      <trkpt lat="42.27059" lon="-8.85958">
        <ele>70.676</ele>
        <time>2018-07-28T17:39:46Z</time>
      </trkpt>
      <trkpt lat="42.27067" lon="-8.85956">
        <ele>70.782</ele>
        <time>2018-07-28T17:39:47Z</time>
      </trkpt>
      <trkpt lat="42.27075" lon="-8.85953">
        <ele>70.917</ele>
        <time>2018-07-28T17:39:48Z</time>
      </trkpt>
      <trkpt lat="42.27084" lon="-8.85947">
        <ele>71.087</ele>
        <time>2018-07-28T17:39:49Z</time>
      </trkpt>
      <trkpt lat="42.27091" lon="-8.85941">
        <ele>71.015</ele>
        <time>2018-07-28T17:39:50Z</time>
      </trkpt>
      <trkpt lat="42.27097" lon="-8.85934">
        <ele>71.008</ele>
        <time>2018-07-28T17:39:51Z</time>
      </trkpt>
      <trkpt lat="42.27103" lon="-8.85926">
        <ele>71.023</ele>
        <time>2018-07-28T17:39:52Z</time>
      </trkpt>
      <trkpt lat="42.27108" lon="-8.85919">
        <ele>70.918</ele>
        <time>2018-07-28T17:39:53Z</time>
      </trkpt>
      <trkpt lat="42.27115" lon="-8.85914">
        <ele>70.661</ele>
        <time>2018-07-28T17:39:54Z</time>
      </trkpt>
      <trkpt lat="42.27123" lon="-8.8591">
        <ele>70.443</ele>
        <time>2018-07-28T17:39:55Z</time>
      </trkpt>
      <trkpt lat="42.2713" lon="-8.85906">
        <ele>70.088</ele>
        <time>2018-07-28T17:39:56Z</time>
      </trkpt>
      <trkpt lat="42.27139" lon="-8.859">
        <ele>69.583</ele>
        <time>2018-07-28T17:39:57Z</time>
      </trkpt>
      <trkpt lat="42.27147" lon="-8.85894">
        <ele>68.981</ele>
        <time>2018-07-28T17:39:58Z</time>
      </trkpt>
      <trkpt lat="42.27154" lon="-8.85886">
        <ele>68.297</ele>
        <time>2018-07-28T17:39:59Z</time>
      </trkpt>
      <trkpt lat="42.2716" lon="-8.85876">
        <ele>67.326</ele>
        <time>2018-07-28T17:40:00Z</time>
      </trkpt>
      <trkpt lat="42.27165" lon="-8.85866">
        <ele>66.347</ele>
        <time>2018-07-28T17:40:01Z</time>
      </trkpt>
      <trkpt lat="42.27172" lon="-8.85856">
        <ele>65.411</ele>
        <time>2018-07-28T17:40:02Z</time>
      </trkpt>
      <trkpt lat="42.2718" lon="-8.85849">
        <ele>64.508</ele>
        <time>2018-07-28T17:40:03Z</time>
      </trkpt>
      <trkpt lat="42.27187" lon="-8.85841">
        <ele>63.054</ele>
        <time>2018-07-28T17:40:04Z</time>
      </trkpt>
      <trkpt lat="42.27195" lon="-8.85834">
        <ele>62.569</ele>
        <time>2018-07-28T17:40:05Z</time>
      </trkpt>
      <trkpt lat="42.27201" lon="-8.85828">
        <ele>61.722</ele>
        <time>2018-07-28T17:40:06Z</time>
      </trkpt>
      <trkpt lat="42.27206" lon="-8.85823">
        <ele>61.074</ele>
        <time>2018-07-28T17:40:07Z</time>
      </trkpt>
      <trkpt lat="42.2721" lon="-8.85819">
        <ele>60.399</ele>
        <time>2018-07-28T17:40:08Z</time>
      </trkpt>
      <trkpt lat="42.27215" lon="-8.8581">
        <ele>58.694</ele>
        <time>2018-07-28T17:40:10Z</time>
      </trkpt>
      <trkpt lat="42.27219" lon="-8.858">
        <ele>57.252</ele>
        <time>2018-07-28T17:40:12Z</time>
      </trkpt>
      <trkpt lat="42.27224" lon="-8.85791">
        <ele>56.278</ele>
        <time>2018-07-28T17:40:14Z</time>
      </trkpt>
      <trkpt lat="42.27228" lon="-8.85787">
        <ele>55.781</ele>
        <time>2018-07-28T17:40:15Z</time>
      </trkpt>
      <trkpt lat="42.27236" lon="-8.85787">
        <ele>55.361</ele>
        <time>2018-07-28T17:40:16Z</time>
      </trkpt>
      <trkpt lat="42.27244" lon="-8.85783">
        <ele>55.017</ele>
        <time>2018-07-28T17:40:17Z</time>
      </trkpt>
      <trkpt lat="42.27252" lon="-8.85777">
        <ele>54.608</ele>
        <time>2018-07-28T17:40:18Z</time>
      </trkpt>
      <trkpt lat="42.2726" lon="-8.85771">
        <ele>54.28</ele>
        <time>2018-07-28T17:40:19Z</time>
      </trkpt>
      <trkpt lat="42.27268" lon="-8.85764">
        <ele>53.575</ele>
        <time>2018-07-28T17:40:20Z</time>
      </trkpt>
      <trkpt lat="42.27277" lon="-8.85762">
        <ele>53.268</ele>
        <time>2018-07-28T17:40:21Z</time>
      </trkpt>
      <trkpt lat="42.27287" lon="-8.85759">
        <ele>53.17</ele>
        <time>2018-07-28T17:40:22Z</time>
      </trkpt>
      <trkpt lat="42.27297" lon="-8.85757">
        <ele>53.185</ele>
        <time>2018-07-28T17:40:23Z</time>
      </trkpt>
      <trkpt lat="42.27307" lon="-8.85755">
        <ele>53.15</ele>
        <time>2018-07-28T17:40:24Z</time>
      </trkpt>
      <trkpt lat="42.27316" lon="-8.85754">
        <ele>53.178</ele>
        <time>2018-07-28T17:40:25Z</time>
      </trkpt>
      <trkpt lat="42.27325" lon="-8.85752">
        <ele>53.144</ele>
        <time>2018-07-28T17:40:26Z</time>
      </trkpt>
      <trkpt lat="42.27333" lon="-8.8575">
        <ele>53.067</ele>
        <time>2018-07-28T17:40:27Z</time>
      </trkpt>
      <trkpt lat="42.2734" lon="-8.85747">
        <ele>52.781</ele>
        <time>2018-07-28T17:40:28Z</time>
      </trkpt>
      <trkpt lat="42.27348" lon="-8.85744">
        <ele>52.519</ele>
        <time>2018-07-28T17:40:29Z</time>
      </trkpt>
      <trkpt lat="42.27357" lon="-8.8574">
        <ele>52.408</ele>
        <time>2018-07-28T17:40:30Z</time>
      </trkpt>
      <trkpt lat="42.27367" lon="-8.85735">
        <ele>52.488</ele>
        <time>2018-07-28T17:40:31Z</time>
      </trkpt>
      <trkpt lat="42.27376" lon="-8.85729">
        <ele>52.563</ele>
        <time>2018-07-28T17:40:32Z</time>
      </trkpt>
      <trkpt lat="42.27384" lon="-8.8572">
        <ele>52.846</ele>
        <time>2018-07-28T17:40:33Z</time>
      </trkpt>
      <trkpt lat="42.27394" lon="-8.8571">
        <ele>53.368</ele>
        <time>2018-07-28T17:40:34Z</time>
      </trkpt>
      <trkpt lat="42.27404" lon="-8.85699">
        <ele>54.133</ele>
        <time>2018-07-28T17:40:35Z</time>
      </trkpt>
      <trkpt lat="42.27414" lon="-8.85688">
        <ele>56.138</ele>
        <time>2018-07-28T17:40:36Z</time>
      </trkpt>
      <trkpt lat="42.27424" lon="-8.85678">
        <ele>56.886</ele>
        <time>2018-07-28T17:40:37Z</time>
      </trkpt>
      <trkpt lat="42.27433" lon="-8.85667">
        <ele>57.352</ele>
        <time>2018-07-28T17:40:38Z</time>
      </trkpt>
      <trkpt lat="42.27443" lon="-8.85656">
        <ele>57.324</ele>
        <time>2018-07-28T17:40:39Z</time>
      </trkpt>
      <trkpt lat="42.27454" lon="-8.85645">
        <ele>57.304</ele>
        <time>2018-07-28T17:40:40Z</time>
      </trkpt>
      <trkpt lat="42.27464" lon="-8.85633">
        <ele>57.314</ele>
        <time>2018-07-28T17:40:41Z</time>
      </trkpt>
      <trkpt lat="42.27474" lon="-8.85622">
        <ele>57.208</ele>
        <time>2018-07-28T17:40:42Z</time>
      </trkpt>
      <trkpt lat="42.27483" lon="-8.85613">
        <ele>57.144</ele>
        <time>2018-07-28T17:40:43Z</time>
      </trkpt>
      <trkpt lat="42.27491" lon="-8.85604">
        <ele>56.859</ele>
        <time>2018-07-28T17:40:44Z</time>
      </trkpt>
      <trkpt lat="42.27498" lon="-8.85597">
        <ele>56.172</ele>
        <time>2018-07-28T17:40:45Z</time>
      </trkpt>
      <trkpt lat="42.27504" lon="-8.85591">
        <ele>55.054</ele>
        <time>2018-07-28T17:40:46Z</time>
      </trkpt>
      <trkpt lat="42.27509" lon="-8.85585">
        <ele>54.059</ele>
        <time>2018-07-28T17:40:47Z</time>
      </trkpt>
      <trkpt lat="42.27514" lon="-8.85581">
        <ele>53.034</ele>
        <time>2018-07-28T17:40:48Z</time>
      </trkpt>
      <trkpt lat="42.27518" lon="-8.85578">
        <ele>52.222</ele>
        <time>2018-07-28T17:40:49Z</time>
      </trkpt>
      <trkpt lat="42.27523" lon="-8.85573">
        <ele>51.288</ele>
        <time>2018-07-28T17:40:51Z</time>
      </trkpt>
      <trkpt lat="42.27526" lon="-8.85578">
        <ele>50.453</ele>
        <time>2018-07-28T17:41:10Z</time>
      </trkpt>
      <trkpt lat="42.27521" lon="-8.85577">
        <ele>50.504</ele>
        <time>2018-07-28T17:41:42Z</time>
      </trkpt>
      <trkpt lat="42.27523" lon="-8.8557">
        <ele>50.714</ele>
        <time>2018-07-28T17:41:56Z</time>
      </trkpt>
      <trkpt lat="42.27529" lon="-8.85565">
        <ele>51.408</ele>
        <time>2018-07-28T17:41:57Z</time>
      </trkpt>
      <trkpt lat="42.27535" lon="-8.85559">
        <ele>51.917</ele>
        <time>2018-07-28T17:41:58Z</time>
      </trkpt>
      <trkpt lat="42.2754" lon="-8.85553">
        <ele>52.352</ele>
        <time>2018-07-28T17:41:59Z</time>
      </trkpt>
      <trkpt lat="42.27547" lon="-8.85545">
        <ele>52.715</ele>
        <time>2018-07-28T17:42:00Z</time>
      </trkpt>
      <trkpt lat="42.27555" lon="-8.85536">
        <ele>53.127</ele>
        <time>2018-07-28T17:42:01Z</time>
      </trkpt>
      <trkpt lat="42.27565" lon="-8.85527">
        <ele>53.572</ele>
        <time>2018-07-28T17:42:02Z</time>
      </trkpt>
      <trkpt lat="42.27573" lon="-8.85517">
        <ele>53.937</ele>
        <time>2018-07-28T17:42:03Z</time>
      </trkpt>
      <trkpt lat="42.27583" lon="-8.85509">
        <ele>54.315</ele>
        <time>2018-07-28T17:42:04Z</time>
      </trkpt>
      <trkpt lat="42.27593" lon="-8.85503">
        <ele>54.621</ele>
        <time>2018-07-28T17:42:05Z</time>
      </trkpt>
      <trkpt lat="42.27602" lon="-8.85494">
        <ele>54.849</ele>
        <time>2018-07-28T17:42:06Z</time>
      </trkpt>
      <trkpt lat="42.27607" lon="-8.85481">
        <ele>54.902</ele>
        <time>2018-07-28T17:42:07Z</time>
      </trkpt>
      <trkpt lat="42.2761" lon="-8.85466">
        <ele>55.022</ele>
        <time>2018-07-28T17:42:08Z</time>
      </trkpt>
      <trkpt lat="42.27611" lon="-8.8545">
        <ele>55.108</ele>
        <time>2018-07-28T17:42:09Z</time>
      </trkpt>
      <trkpt lat="42.27608" lon="-8.85434">
        <ele>55.326</ele>
        <time>2018-07-28T17:42:10Z</time>
      </trkpt>
      <trkpt lat="42.27601" lon="-8.85423">
        <ele>55.631</ele>
        <time>2018-07-28T17:42:11Z</time>
      </trkpt>
      <trkpt lat="42.27591" lon="-8.85415">
        <ele>56.274</ele>
        <time>2018-07-28T17:42:12Z</time>
      </trkpt>
      <trkpt lat="42.2758" lon="-8.85409">
        <ele>57.976</ele>
        <time>2018-07-28T17:42:13Z</time>
      </trkpt>
      <trkpt lat="42.27568" lon="-8.85404">
        <ele>59.151</ele>
        <time>2018-07-28T17:42:14Z</time>
      </trkpt>
      <trkpt lat="42.27557" lon="-8.85398">
        <ele>60.496</ele>
        <time>2018-07-28T17:42:15Z</time>
      </trkpt>
      <trkpt lat="42.27545" lon="-8.85389">
        <ele>61.654</ele>
        <time>2018-07-28T17:42:16Z</time>
      </trkpt>
      <trkpt lat="42.27534" lon="-8.85381">
        <ele>62.94</ele>
        <time>2018-07-28T17:42:17Z</time>
      </trkpt>
      <trkpt lat="42.27522" lon="-8.85372">
        <ele>64.274</ele>
        <time>2018-07-28T17:42:18Z</time>
      </trkpt>
      <trkpt lat="42.27511" lon="-8.85364">
        <ele>65.356</ele>
        <time>2018-07-28T17:42:19Z</time>
      </trkpt>
      <trkpt lat="42.27501" lon="-8.85355">
        <ele>66.621</ele>
        <time>2018-07-28T17:42:20Z</time>
      </trkpt>
      <trkpt lat="42.27491" lon="-8.85344">
        <ele>67.908</ele>
        <time>2018-07-28T17:42:21Z</time>
      </trkpt>
      <trkpt lat="42.2748" lon="-8.8533">
        <ele>69.129</ele>
        <time>2018-07-28T17:42:22Z</time>
      </trkpt>
      <trkpt lat="42.2747" lon="-8.85314">
        <ele>70.264</ele>
        <time>2018-07-28T17:42:23Z</time>
      </trkpt>
      <trkpt lat="42.2746" lon="-8.85298">
        <ele>71.517</ele>
        <time>2018-07-28T17:42:24Z</time>
      </trkpt>
      <trkpt lat="42.27449" lon="-8.85281">
        <ele>72.699</ele>
        <time>2018-07-28T17:42:25Z</time>
      </trkpt>
      <trkpt lat="42.27441" lon="-8.85263">
        <ele>73.874</ele>
        <time>2018-07-28T17:42:26Z</time>
      </trkpt>
      <trkpt lat="42.27434" lon="-8.85245">
        <ele>74.919</ele>
        <time>2018-07-28T17:42:27Z</time>
      </trkpt>
      <trkpt lat="42.27428" lon="-8.85225">
        <ele>76.297</ele>
        <time>2018-07-28T17:42:28Z</time>
      </trkpt>
      <trkpt lat="42.27422" lon="-8.85203">
        <ele>77.583</ele>
        <time>2018-07-28T17:42:29Z</time>
      </trkpt>
      <trkpt lat="42.27418" lon="-8.85176">
        <ele>80.685</ele>
        <time>2018-07-28T17:42:30Z</time>
      </trkpt>
      <trkpt lat="42.27414" lon="-8.85147">
        <ele>82.189</ele>
        <time>2018-07-28T17:42:31Z</time>
      </trkpt>
      <trkpt lat="42.27408" lon="-8.85119">
        <ele>84.017</ele>
        <time>2018-07-28T17:42:32Z</time>
      </trkpt>
      <trkpt lat="42.27402" lon="-8.85091">
        <ele>86.008</ele>
        <time>2018-07-28T17:42:33Z</time>
      </trkpt>
      <trkpt lat="42.27397" lon="-8.85064">
        <ele>87.69</ele>
        <time>2018-07-28T17:42:34Z</time>
      </trkpt>
      <trkpt lat="42.27393" lon="-8.85042">
        <ele>89.115</ele>
        <time>2018-07-28T17:42:35Z</time>
      </trkpt>
      <trkpt lat="42.27389" lon="-8.8502">
        <ele>90.718</ele>
        <time>2018-07-28T17:42:36Z</time>
      </trkpt>
      <trkpt lat="42.27384" lon="-8.84998">
        <ele>91.83</ele>
        <time>2018-07-28T17:42:37Z</time>
      </trkpt>
      <trkpt lat="42.27379" lon="-8.84978">
        <ele>92.755</ele>
        <time>2018-07-28T17:42:38Z</time>
      </trkpt>
      <trkpt lat="42.27371" lon="-8.84958">
        <ele>93.89</ele>
        <time>2018-07-28T17:42:39Z</time>
      </trkpt>
      <trkpt lat="42.2736" lon="-8.8494">
        <ele>95.098</ele>
        <time>2018-07-28T17:42:40Z</time>
      </trkpt>
      <trkpt lat="42.27348" lon="-8.84923">
        <ele>96.474</ele>
        <time>2018-07-28T17:42:41Z</time>
      </trkpt>
      <trkpt lat="42.27335" lon="-8.84906">
        <ele>98.071</ele>
        <time>2018-07-28T17:42:42Z</time>
      </trkpt>
      <trkpt lat="42.27324" lon="-8.84889">
        <ele>99.541</ele>
        <time>2018-07-28T17:42:43Z</time>
      </trkpt>
      <trkpt lat="42.27311" lon="-8.84873">
        <ele>100.915</ele>
        <time>2018-07-28T17:42:44Z</time>
      </trkpt>
      <trkpt lat="42.27298" lon="-8.84854">
        <ele>102.408</ele>
        <time>2018-07-28T17:42:45Z</time>
      </trkpt>
      <trkpt lat="42.27284" lon="-8.84835">
        <ele>105.589</ele>
        <time>2018-07-28T17:42:46Z</time>
      </trkpt>
      <trkpt lat="42.27271" lon="-8.84816">
        <ele>106.874</ele>
        <time>2018-07-28T17:42:47Z</time>
      </trkpt>
      <trkpt lat="42.27259" lon="-8.84795">
        <ele>108.247</ele>
        <time>2018-07-28T17:42:48Z</time>
      </trkpt>
      <trkpt lat="42.27246" lon="-8.84774">
        <ele>109.639</ele>
        <time>2018-07-28T17:42:49Z</time>
      </trkpt>
      <trkpt lat="42.27234" lon="-8.84753">
        <ele>110.854</ele>
        <time>2018-07-28T17:42:50Z</time>
      </trkpt>
      <trkpt lat="42.27221" lon="-8.84733">
        <ele>112.089</ele>
        <time>2018-07-28T17:42:51Z</time>
      </trkpt>
      <trkpt lat="42.27211" lon="-8.84715">
        <ele>113.747</ele>
        <time>2018-07-28T17:42:52Z</time>
      </trkpt>
      <trkpt lat="42.27202" lon="-8.84693">
        <ele>115.423</ele>
        <time>2018-07-28T17:42:53Z</time>
      </trkpt>
      <trkpt lat="42.27193" lon="-8.84672">
        <ele>116.817</ele>
        <time>2018-07-28T17:42:54Z</time>
      </trkpt>
      <trkpt lat="42.27179" lon="-8.84651">
        <ele>118.487</ele>
        <time>2018-07-28T17:42:55Z</time>
      </trkpt>
      <trkpt lat="42.27163" lon="-8.84633">
        <ele>120.615</ele>
        <time>2018-07-28T17:42:56Z</time>
      </trkpt>
      <trkpt lat="42.27147" lon="-8.84615">
        <ele>122.608</ele>
        <time>2018-07-28T17:42:57Z</time>
      </trkpt>
      <trkpt lat="42.27133" lon="-8.84597">
        <ele>124.713</ele>
        <time>2018-07-28T17:42:58Z</time>
      </trkpt>
      <trkpt lat="42.2712" lon="-8.8458">
        <ele>126.958</ele>
        <time>2018-07-28T17:42:59Z</time>
      </trkpt>
      <trkpt lat="42.27107" lon="-8.84563">
        <ele>128.791</ele>
        <time>2018-07-28T17:43:00Z</time>
      </trkpt>
      <trkpt lat="42.27093" lon="-8.84548">
        <ele>129.853</ele>
        <time>2018-07-28T17:43:01Z</time>
      </trkpt>
      <trkpt lat="42.27078" lon="-8.84536">
        <ele>130.738</ele>
        <time>2018-07-28T17:43:02Z</time>
      </trkpt>
      <trkpt lat="42.27064" lon="-8.8452">
        <ele>131.663</ele>
        <time>2018-07-28T17:43:03Z</time>
      </trkpt>
      <trkpt lat="42.27049" lon="-8.84504">
        <ele>131.681</ele>
        <time>2018-07-28T17:43:04Z</time>
      </trkpt>
      <trkpt lat="42.27034" lon="-8.84491">
        <ele>131.627</ele>
        <time>2018-07-28T17:43:05Z</time>
      </trkpt>
      <trkpt lat="42.27016" lon="-8.84482">
        <ele>131.881</ele>
        <time>2018-07-28T17:43:06Z</time>
      </trkpt>
      <trkpt lat="42.26994" lon="-8.84481">
        <ele>132.261</ele>
        <time>2018-07-28T17:43:07Z</time>
      </trkpt>
      <trkpt lat="42.26972" lon="-8.84474">
        <ele>132.917</ele>
        <time>2018-07-28T17:43:08Z</time>
      </trkpt>
      <trkpt lat="42.26953" lon="-8.84459">
        <ele>133.808</ele>
        <time>2018-07-28T17:43:09Z</time>
      </trkpt>
      <trkpt lat="42.26935" lon="-8.84448">
        <ele>135.13</ele>
        <time>2018-07-28T17:43:10Z</time>
      </trkpt>
      <trkpt lat="42.26918" lon="-8.84437">
        <ele>136.365</ele>
        <time>2018-07-28T17:43:11Z</time>
      </trkpt>
      <trkpt lat="42.269" lon="-8.84429">
        <ele>137.278</ele>
        <time>2018-07-28T17:43:12Z</time>
      </trkpt>
      <trkpt lat="42.26885" lon="-8.84422">
        <ele>137.97</ele>
        <time>2018-07-28T17:43:13Z</time>
      </trkpt>
      <trkpt lat="42.2687" lon="-8.84412">
        <ele>138.925</ele>
        <time>2018-07-28T17:43:14Z</time>
      </trkpt>
      <trkpt lat="42.26853" lon="-8.84403">
        <ele>139.47</ele>
        <time>2018-07-28T17:43:15Z</time>
      </trkpt>
      <trkpt lat="42.2684" lon="-8.8439">
        <ele>139.578</ele>
        <time>2018-07-28T17:43:16Z</time>
      </trkpt>
      <trkpt lat="42.26832" lon="-8.84377">
        <ele>139.664</ele>
        <time>2018-07-28T17:43:17Z</time>
      </trkpt>
      <trkpt lat="42.26826" lon="-8.8436">
        <ele>139.823</ele>
        <time>2018-07-28T17:43:18Z</time>
      </trkpt>
      <trkpt lat="42.26835" lon="-8.84341">
        <ele>140.383</ele>
        <time>2018-07-28T17:43:19Z</time>
      </trkpt>
      <trkpt lat="42.26849" lon="-8.84316">
        <ele>141.011</ele>
        <time>2018-07-28T17:43:20Z</time>
      </trkpt>
      <trkpt lat="42.26864" lon="-8.84291">
        <ele>141.408</ele>
        <time>2018-07-28T17:43:21Z</time>
      </trkpt>
      <trkpt lat="42.26878" lon="-8.84267">
        <ele>141.624</ele>
        <time>2018-07-28T17:43:22Z</time>
      </trkpt>
      <trkpt lat="42.26885" lon="-8.84244">
        <ele>141.699</ele>
        <time>2018-07-28T17:43:23Z</time>
      </trkpt>
      <trkpt lat="42.26892" lon="-8.84225">
        <ele>140.812</ele>
        <time>2018-07-28T17:43:24Z</time>
      </trkpt>
      <trkpt lat="42.26895" lon="-8.84206">
        <ele>139.264</ele>
        <time>2018-07-28T17:43:25Z</time>
      </trkpt>
      <trkpt lat="42.26894" lon="-8.84189">
        <ele>137.579</ele>
        <time>2018-07-28T17:43:26Z</time>
      </trkpt>
      <trkpt lat="42.26886" lon="-8.84171">
        <ele>135.824</ele>
        <time>2018-07-28T17:43:27Z</time>
      </trkpt>
      <trkpt lat="42.26871" lon="-8.84161">
        <ele>134.532</ele>
        <time>2018-07-28T17:43:28Z</time>
      </trkpt>
      <trkpt lat="42.26855" lon="-8.84149">
        <ele>133.778</ele>
        <time>2018-07-28T17:43:29Z</time>
      </trkpt>
      <trkpt lat="42.2684" lon="-8.84137">
        <ele>133.349</ele>
        <time>2018-07-28T17:43:30Z</time>
      </trkpt>
      <trkpt lat="42.26828" lon="-8.84121">
        <ele>133.302</ele>
        <time>2018-07-28T17:43:31Z</time>
      </trkpt>
      <trkpt lat="42.26818" lon="-8.84105">
        <ele>133.322</ele>
        <time>2018-07-28T17:43:32Z</time>
      </trkpt>
      <trkpt lat="42.2681" lon="-8.84085">
        <ele>132.808</ele>
        <time>2018-07-28T17:43:33Z</time>
      </trkpt>
      <trkpt lat="42.26803" lon="-8.84067">
        <ele>130.756</ele>
        <time>2018-07-28T17:43:34Z</time>
      </trkpt>
      <trkpt lat="42.26792" lon="-8.8405">
        <ele>129.341</ele>
        <time>2018-07-28T17:43:35Z</time>
      </trkpt>
      <trkpt lat="42.26781" lon="-8.84036">
        <ele>127.914</ele>
        <time>2018-07-28T17:43:36Z</time>
      </trkpt>
      <trkpt lat="42.26769" lon="-8.84029">
        <ele>126.716</ele>
        <time>2018-07-28T17:43:37Z</time>
      </trkpt>
      <trkpt lat="42.26756" lon="-8.8402">
        <ele>125.891</ele>
        <time>2018-07-28T17:43:38Z</time>
      </trkpt>
      <trkpt lat="42.26752" lon="-8.84">
        <ele>124.926</ele>
        <time>2018-07-28T17:43:39Z</time>
      </trkpt>
      <trkpt lat="42.26747" lon="-8.8398">
        <ele>124.224</ele>
        <time>2018-07-28T17:43:40Z</time>
      </trkpt>
      <trkpt lat="42.26742" lon="-8.83957">
        <ele>123.54</ele>
        <time>2018-07-28T17:43:41Z</time>
      </trkpt>
      <trkpt lat="42.26738" lon="-8.83937">
        <ele>122.984</ele>
        <time>2018-07-28T17:43:42Z</time>
      </trkpt>
      <trkpt lat="42.26729" lon="-8.83921">
        <ele>122.307</ele>
        <time>2018-07-28T17:43:43Z</time>
      </trkpt>
      <trkpt lat="42.26721" lon="-8.8391">
        <ele>121.717</ele>
        <time>2018-07-28T17:43:44Z</time>
      </trkpt>
      <trkpt lat="42.26712" lon="-8.839">
        <ele>121.108</ele>
        <time>2018-07-28T17:43:45Z</time>
      </trkpt>
      <trkpt lat="42.26705" lon="-8.83889">
        <ele>120.65</ele>
        <time>2018-07-28T17:43:46Z</time>
      </trkpt>
      <trkpt lat="42.26702" lon="-8.83877">
        <ele>120.115</ele>
        <time>2018-07-28T17:43:47Z</time>
      </trkpt>
      <trkpt lat="42.26703" lon="-8.83861">
        <ele>119.798</ele>
        <time>2018-07-28T17:43:48Z</time>
      </trkpt>
      <trkpt lat="42.26707" lon="-8.83844">
        <ele>119.79</ele>
        <time>2018-07-28T17:43:49Z</time>
      </trkpt>
      <trkpt lat="42.26712" lon="-8.83826">
        <ele>120.095</ele>
        <time>2018-07-28T17:43:50Z</time>
      </trkpt>
      <trkpt lat="42.26714" lon="-8.83809">
        <ele>120.46</ele>
        <time>2018-07-28T17:43:51Z</time>
      </trkpt>
      <trkpt lat="42.26717" lon="-8.83793">
        <ele>120.998</ele>
        <time>2018-07-28T17:43:52Z</time>
      </trkpt>
      <trkpt lat="42.26719" lon="-8.83778">
        <ele>121.424</ele>
        <time>2018-07-28T17:43:53Z</time>
      </trkpt>
      <trkpt lat="42.26721" lon="-8.83765">
        <ele>121.831</ele>
        <time>2018-07-28T17:43:54Z</time>
      </trkpt>
      <trkpt lat="42.26728" lon="-8.83751">
        <ele>122.161</ele>
        <time>2018-07-28T17:43:55Z</time>
      </trkpt>
      <trkpt lat="42.26734" lon="-8.83739">
        <ele>122.407</ele>
        <time>2018-07-28T17:43:56Z</time>
      </trkpt>
      <trkpt lat="42.26742" lon="-8.83727">
        <ele>122.708</ele>
        <time>2018-07-28T17:43:57Z</time>
      </trkpt>
      <trkpt lat="42.2675" lon="-8.83715">
        <ele>123.175</ele>
        <time>2018-07-28T17:43:58Z</time>
      </trkpt>
      <trkpt lat="42.26757" lon="-8.83701">
        <ele>123.64</ele>
        <time>2018-07-28T17:43:59Z</time>
      </trkpt>
      <trkpt lat="42.26764" lon="-8.83687">
        <ele>124.223</ele>
        <time>2018-07-28T17:44:00Z</time>
      </trkpt>
      <trkpt lat="42.26776" lon="-8.83671">
        <ele>124.875</ele>
        <time>2018-07-28T17:44:01Z</time>
      </trkpt>
      <trkpt lat="42.26786" lon="-8.83659">
        <ele>125.53</ele>
        <time>2018-07-28T17:44:02Z</time>
      </trkpt>
      <trkpt lat="42.2679" lon="-8.83643">
        <ele>126.125</ele>
        <time>2018-07-28T17:44:03Z</time>
      </trkpt>
      <trkpt lat="42.26798" lon="-8.83625">
        <ele>126.953</ele>
        <time>2018-07-28T17:44:04Z</time>
      </trkpt>
      <trkpt lat="42.26803" lon="-8.83603">
        <ele>127.629</ele>
        <time>2018-07-28T17:44:05Z</time>
      </trkpt>
      <trkpt lat="42.26806" lon="-8.83576">
        <ele>129.717</ele>
        <time>2018-07-28T17:44:06Z</time>
      </trkpt>
      <trkpt lat="42.26804" lon="-8.83548">
        <ele>130.487</ele>
        <time>2018-07-28T17:44:07Z</time>
      </trkpt>
      <trkpt lat="42.26804" lon="-8.8352">
        <ele>130.615</ele>
        <time>2018-07-28T17:44:08Z</time>
      </trkpt>
      <trkpt lat="42.26804" lon="-8.83491">
        <ele>130.608</ele>
        <time>2018-07-28T17:44:09Z</time>
      </trkpt>
      <trkpt lat="42.26803" lon="-8.83464">
        <ele>130.253</ele>
        <time>2018-07-28T17:44:10Z</time>
      </trkpt>
      <trkpt lat="42.26803" lon="-8.83439">
        <ele>129.488</ele>
        <time>2018-07-28T17:44:11Z</time>
      </trkpt>
      <trkpt lat="42.26803" lon="-8.83415">
        <ele>128.691</ele>
        <time>2018-07-28T17:44:12Z</time>
      </trkpt>
      <trkpt lat="42.26801" lon="-8.83392">
        <ele>127.723</ele>
        <time>2018-07-28T17:44:13Z</time>
      </trkpt>
      <trkpt lat="42.26804" lon="-8.83368">
        <ele>126.518</ele>
        <time>2018-07-28T17:44:14Z</time>
      </trkpt>
      <trkpt lat="42.26802" lon="-8.83347">
        <ele>124.883</ele>
        <time>2018-07-28T17:44:15Z</time>
      </trkpt>
      <trkpt lat="42.26797" lon="-8.83327">
        <ele>122.981</ele>
        <time>2018-07-28T17:44:16Z</time>
      </trkpt>
      <trkpt lat="42.2679" lon="-8.83308">
        <ele>120.967</ele>
        <time>2018-07-28T17:44:17Z</time>
      </trkpt>
      <trkpt lat="42.26774" lon="-8.83295">
        <ele>119.196</ele>
        <time>2018-07-28T17:44:18Z</time>
      </trkpt>
      <trkpt lat="42.26759" lon="-8.8328">
        <ele>117.631</ele>
        <time>2018-07-28T17:44:19Z</time>
      </trkpt>
      <trkpt lat="42.26744" lon="-8.83262">
        <ele>116.124</ele>
        <time>2018-07-28T17:44:20Z</time>
      </trkpt>
      <trkpt lat="42.26732" lon="-8.83241">
        <ele>113.908</ele>
        <time>2018-07-28T17:44:21Z</time>
      </trkpt>
      <trkpt lat="42.26722" lon="-8.8322">
        <ele>112.941</ele>
        <time>2018-07-28T17:44:22Z</time>
      </trkpt>
      <trkpt lat="42.26713" lon="-8.83198">
        <ele>111.766</ele>
        <time>2018-07-28T17:44:23Z</time>
      </trkpt>
      <trkpt lat="42.26704" lon="-8.83177">
        <ele>110.589</ele>
        <time>2018-07-28T17:44:24Z</time>
      </trkpt>
      <trkpt lat="42.26695" lon="-8.83156">
        <ele>109.241</ele>
        <time>2018-07-28T17:44:25Z</time>
      </trkpt>
      <trkpt lat="42.26685" lon="-8.83134">
        <ele>107.956</ele>
        <time>2018-07-28T17:44:26Z</time>
      </trkpt>
      <trkpt lat="42.26678" lon="-8.83112">
        <ele>106.261</ele>
        <time>2018-07-28T17:44:27Z</time>
      </trkpt>
      <trkpt lat="42.26671" lon="-8.83091">
        <ele>104.439</ele>
        <time>2018-07-28T17:44:28Z</time>
      </trkpt>
      <trkpt lat="42.26666" lon="-8.83072">
        <ele>102.665</ele>
        <time>2018-07-28T17:44:29Z</time>
      </trkpt>
      <trkpt lat="42.26661" lon="-8.83056">
        <ele>100.875</ele>
        <time>2018-07-28T17:44:30Z</time>
      </trkpt>
      <trkpt lat="42.26658" lon="-8.83041">
        <ele>98.828</ele>
        <time>2018-07-28T17:44:31Z</time>
      </trkpt>
      <trkpt lat="42.26655" lon="-8.83027">
        <ele>97.12</ele>
        <time>2018-07-28T17:44:32Z</time>
      </trkpt>
      <trkpt lat="42.26646" lon="-8.83017">
        <ele>95.708</ele>
        <time>2018-07-28T17:44:33Z</time>
      </trkpt>
      <trkpt lat="42.26635" lon="-8.8301">
        <ele>94.569</ele>
        <time>2018-07-28T17:44:34Z</time>
      </trkpt>
      <trkpt lat="42.26621" lon="-8.83003">
        <ele>93.844</ele>
        <time>2018-07-28T17:44:35Z</time>
      </trkpt>
      <trkpt lat="42.26608" lon="-8.82998">
        <ele>93.567</ele>
        <time>2018-07-28T17:44:36Z</time>
      </trkpt>
      <trkpt lat="42.26596" lon="-8.82997">
        <ele>93.229</ele>
        <time>2018-07-28T17:44:37Z</time>
      </trkpt>
      <trkpt lat="42.26582" lon="-8.82996">
        <ele>92.954</ele>
        <time>2018-07-28T17:44:38Z</time>
      </trkpt>
      <trkpt lat="42.26573" lon="-8.82985">
        <ele>92.939</ele>
        <time>2018-07-28T17:44:39Z</time>
      </trkpt>
      <trkpt lat="42.26564" lon="-8.82969">
        <ele>93.037</ele>
        <time>2018-07-28T17:44:40Z</time>
      </trkpt>
      <trkpt lat="42.26562" lon="-8.82943">
        <ele>93.213</ele>
        <time>2018-07-28T17:44:41Z</time>
      </trkpt>
      <trkpt lat="42.26561" lon="-8.82918">
        <ele>93.443</ele>
        <time>2018-07-28T17:44:42Z</time>
      </trkpt>
      <trkpt lat="42.26558" lon="-8.82896">
        <ele>93.664</ele>
        <time>2018-07-28T17:44:43Z</time>
      </trkpt>
      <trkpt lat="42.26554" lon="-8.82874">
        <ele>93.71</ele>
        <time>2018-07-28T17:44:44Z</time>
      </trkpt>
      <trkpt lat="42.2655" lon="-8.82853">
        <ele>93.708</ele>
        <time>2018-07-28T17:44:45Z</time>
      </trkpt>
      <trkpt lat="42.26545" lon="-8.82836">
        <ele>93.316</ele>
        <time>2018-07-28T17:44:46Z</time>
      </trkpt>
      <trkpt lat="42.26538" lon="-8.8282">
        <ele>93.051</ele>
        <time>2018-07-28T17:44:47Z</time>
      </trkpt>
      <trkpt lat="42.26535" lon="-8.82805">
        <ele>92.634</ele>
        <time>2018-07-28T17:44:48Z</time>
      </trkpt>
      <trkpt lat="42.26531" lon="-8.82793">
        <ele>92.076</ele>
        <time>2018-07-28T17:44:49Z</time>
      </trkpt>
      <trkpt lat="42.26529" lon="-8.82781">
        <ele>91.311</ele>
        <time>2018-07-28T17:44:50Z</time>
      </trkpt>
      <trkpt lat="42.26528" lon="-8.82766">
        <ele>90.936</ele>
        <time>2018-07-28T17:44:51Z</time>
      </trkpt>
      <trkpt lat="42.26529" lon="-8.82746">
        <ele>90.594</ele>
        <time>2018-07-28T17:44:52Z</time>
      </trkpt>
      <trkpt lat="42.2654" lon="-8.82729">
        <ele>90.66</ele>
        <time>2018-07-28T17:44:53Z</time>
      </trkpt>
      <trkpt lat="42.26548" lon="-8.82712">
        <ele>90.823</ele>
        <time>2018-07-28T17:44:54Z</time>
      </trkpt>
      <trkpt lat="42.26558" lon="-8.82696">
        <ele>91.083</ele>
        <time>2018-07-28T17:44:55Z</time>
      </trkpt>
      <trkpt lat="42.26566" lon="-8.8268">
        <ele>91.011</ele>
        <time>2018-07-28T17:44:56Z</time>
      </trkpt>
      <trkpt lat="42.26577" lon="-8.82665">
        <ele>90.808</ele>
        <time>2018-07-28T17:44:57Z</time>
      </trkpt>
      <trkpt lat="42.26587" lon="-8.82652">
        <ele>90.454</ele>
        <time>2018-07-28T17:44:58Z</time>
      </trkpt>
      <trkpt lat="42.26595" lon="-8.82638">
        <ele>90.259</ele>
        <time>2018-07-28T17:44:59Z</time>
      </trkpt>
      <trkpt lat="42.26601" lon="-8.82626">
        <ele>89.862</ele>
        <time>2018-07-28T17:45:00Z</time>
      </trkpt>
      <trkpt lat="42.26609" lon="-8.82614">
        <ele>89.534</ele>
        <time>2018-07-28T17:45:01Z</time>
      </trkpt>
      <trkpt lat="42.26616" lon="-8.826">
        <ele>89.189</ele>
        <time>2018-07-28T17:45:02Z</time>
      </trkpt>
      <trkpt lat="42.26625" lon="-8.82591">
        <ele>88.554</ele>
        <time>2018-07-28T17:45:03Z</time>
      </trkpt>
      <trkpt lat="42.26631" lon="-8.82583">
        <ele>87.522</ele>
        <time>2018-07-28T17:45:04Z</time>
      </trkpt>
      <trkpt lat="42.26637" lon="-8.8258">
        <ele>86.488</ele>
        <time>2018-07-28T17:45:05Z</time>
      </trkpt>
      <trkpt lat="42.26644" lon="-8.82581">
        <ele>85.416</ele>
        <time>2018-07-28T17:45:06Z</time>
      </trkpt>
      <trkpt lat="42.26653" lon="-8.82588">
        <ele>84.376</ele>
        <time>2018-07-28T17:45:07Z</time>
      </trkpt>
      <trkpt lat="42.26662" lon="-8.82598">
        <ele>83.213</ele>
        <time>2018-07-28T17:45:08Z</time>
      </trkpt>
      <trkpt lat="42.26672" lon="-8.8261">
        <ele>82.108</ele>
        <time>2018-07-28T17:45:09Z</time>
      </trkpt>
      <trkpt lat="42.26682" lon="-8.82621">
        <ele>81.663</ele>
        <time>2018-07-28T17:45:10Z</time>
      </trkpt>
      <trkpt lat="42.26692" lon="-8.82632">
        <ele>81.148</ele>
        <time>2018-07-28T17:45:11Z</time>
      </trkpt>
      <trkpt lat="42.26703" lon="-8.82641">
        <ele>80.781</ele>
        <time>2018-07-28T17:45:12Z</time>
      </trkpt>
      <trkpt lat="42.26711" lon="-8.82654">
        <ele>80.293</ele>
        <time>2018-07-28T17:45:13Z</time>
      </trkpt>
      <trkpt lat="42.26716" lon="-8.82663">
        <ele>79.788</ele>
        <time>2018-07-28T17:45:14Z</time>
      </trkpt>
      <trkpt lat="42.26727" lon="-8.82674">
        <ele>78.813</ele>
        <time>2018-07-28T17:45:15Z</time>
      </trkpt>
      <trkpt lat="42.26735" lon="-8.82682">
        <ele>77.771</ele>
        <time>2018-07-28T17:45:16Z</time>
      </trkpt>
      <trkpt lat="42.26745" lon="-8.82689">
        <ele>76.447</ele>
        <time>2018-07-28T17:45:17Z</time>
      </trkpt>
      <trkpt lat="42.26757" lon="-8.82695">
        <ele>75.132</ele>
        <time>2018-07-28T17:45:18Z</time>
      </trkpt>
      <trkpt lat="42.26773" lon="-8.82701">
        <ele>73.992</ele>
        <time>2018-07-28T17:45:19Z</time>
      </trkpt>
      <trkpt lat="42.2679" lon="-8.82703">
        <ele>73.111</ele>
        <time>2018-07-28T17:45:20Z</time>
      </trkpt>
      <trkpt lat="42.26805" lon="-8.82707">
        <ele>72.508</ele>
        <time>2018-07-28T17:45:21Z</time>
      </trkpt>
      <trkpt lat="42.26819" lon="-8.82709">
        <ele>72.035</ele>
        <time>2018-07-28T17:45:22Z</time>
      </trkpt>
      <trkpt lat="42.26832" lon="-8.8271">
        <ele>71.33</ele>
        <time>2018-07-28T17:45:23Z</time>
      </trkpt>
      <trkpt lat="42.26846" lon="-8.82712">
        <ele>70.373</ele>
        <time>2018-07-28T17:45:24Z</time>
      </trkpt>
      <trkpt lat="42.2686" lon="-8.82714">
        <ele>68.335</ele>
        <time>2018-07-28T17:45:25Z</time>
      </trkpt>
      <trkpt lat="42.26876" lon="-8.82717">
        <ele>67.41</ele>
        <time>2018-07-28T17:45:26Z</time>
      </trkpt>
      <trkpt lat="42.26889" lon="-8.82718">
        <ele>66.515</ele>
        <time>2018-07-28T17:45:27Z</time>
      </trkpt>
      <trkpt lat="42.26904" lon="-8.82721">
        <ele>65.643</ele>
        <time>2018-07-28T17:45:28Z</time>
      </trkpt>
      <trkpt lat="42.26914" lon="-8.82727">
        <ele>64.689</ele>
        <time>2018-07-28T17:45:29Z</time>
      </trkpt>
      <trkpt lat="42.26923" lon="-8.82732">
        <ele>63.865</ele>
        <time>2018-07-28T17:45:30Z</time>
      </trkpt>
      <trkpt lat="42.26932" lon="-8.82737">
        <ele>62.968</ele>
        <time>2018-07-28T17:45:31Z</time>
      </trkpt>
      <trkpt lat="42.26938" lon="-8.82744">
        <ele>61.814</ele>
        <time>2018-07-28T17:45:32Z</time>
      </trkpt>
      <trkpt lat="42.26939" lon="-8.82759">
        <ele>60.708</ele>
        <time>2018-07-28T17:45:33Z</time>
      </trkpt>
      <trkpt lat="42.26939" lon="-8.8277">
        <ele>59.778</ele>
        <time>2018-07-28T17:45:34Z</time>
      </trkpt>
      <trkpt lat="42.2694" lon="-8.82781">
        <ele>58.323</ele>
        <time>2018-07-28T17:45:35Z</time>
      </trkpt>
      <trkpt lat="42.26941" lon="-8.8279">
        <ele>56.966</ele>
        <time>2018-07-28T17:45:36Z</time>
      </trkpt>
      <trkpt lat="42.26942" lon="-8.82798">
        <ele>55.638</ele>
        <time>2018-07-28T17:45:37Z</time>
      </trkpt>
      <trkpt lat="42.26941" lon="-8.82807">
        <ele>54.473</ele>
        <time>2018-07-28T17:45:38Z</time>
      </trkpt>
      <trkpt lat="42.2694" lon="-8.82815">
        <ele>53.318</ele>
        <time>2018-07-28T17:45:39Z</time>
      </trkpt>
      <trkpt lat="42.26943" lon="-8.82819">
        <ele>51.036</ele>
        <time>2018-07-28T17:45:41Z</time>
      </trkpt>
      <trkpt lat="42.26948" lon="-8.82822">
        <ele>49.852</ele>
        <time>2018-07-28T17:45:44Z</time>
      </trkpt>
      <trkpt lat="42.26952" lon="-8.82825">
        <ele>48.643</ele>
        <time>2018-07-28T17:45:51Z</time>
      </trkpt>
      <trkpt lat="42.26953" lon="-8.82833">
        <ele>48.664</ele>
        <time>2018-07-28T17:45:52Z</time>
      </trkpt>
      <trkpt lat="42.26957" lon="-8.82843">
        <ele>48.71</ele>
        <time>2018-07-28T17:45:53Z</time>
      </trkpt>
      <trkpt lat="42.2696" lon="-8.82853">
        <ele>48.808</ele>
        <time>2018-07-28T17:45:54Z</time>
      </trkpt>
      <trkpt lat="42.26963" lon="-8.82864">
        <ele>49.086</ele>
        <time>2018-07-28T17:45:55Z</time>
      </trkpt>
      <trkpt lat="42.2697" lon="-8.82876">
        <ele>49.971</ele>
        <time>2018-07-28T17:45:56Z</time>
      </trkpt>
      <trkpt lat="42.26973" lon="-8.82891">
        <ele>50.424</ele>
        <time>2018-07-28T17:45:57Z</time>
      </trkpt>
      <trkpt lat="42.26979" lon="-8.82901">
        <ele>50.816</ele>
        <time>2018-07-28T17:45:58Z</time>
      </trkpt>
      <trkpt lat="42.26983" lon="-8.82914">
        <ele>51.031</ele>
        <time>2018-07-28T17:45:59Z</time>
      </trkpt>
      <trkpt lat="42.26988" lon="-8.82923">
        <ele>51.116</ele>
        <time>2018-07-28T17:46:00Z</time>
      </trkpt>
      <trkpt lat="42.26993" lon="-8.82932">
        <ele>51.294</ele>
        <time>2018-07-28T17:46:01Z</time>
      </trkpt>
      <trkpt lat="42.26999" lon="-8.82942">
        <ele>51.45</ele>
        <time>2018-07-28T17:46:02Z</time>
      </trkpt>
      <trkpt lat="42.27004" lon="-8.82952">
        <ele>51.792</ele>
        <time>2018-07-28T17:46:03Z</time>
      </trkpt>
      <trkpt lat="42.2701" lon="-8.82961">
        <ele>52.173</ele>
        <time>2018-07-28T17:46:04Z</time>
      </trkpt>
      <trkpt lat="42.27014" lon="-8.82969">
        <ele>52.52</ele>
        <time>2018-07-28T17:46:05Z</time>
      </trkpt>
      <trkpt lat="42.27021" lon="-8.82977">
        <ele>52.708</ele>
        <time>2018-07-28T17:46:06Z</time>
      </trkpt>
      <trkpt lat="42.27031" lon="-8.82982">
        <ele>52.741</ele>
        <time>2018-07-28T17:46:07Z</time>
      </trkpt>
      <trkpt lat="42.27041" lon="-8.82982">
        <ele>52.746</ele>
        <time>2018-07-28T17:46:08Z</time>
      </trkpt>
      <trkpt lat="42.27052" lon="-8.82981">
        <ele>52.699</ele>
        <time>2018-07-28T17:46:09Z</time>
      </trkpt>
      <trkpt lat="42.27063" lon="-8.82981">
        <ele>52.551</ele>
        <time>2018-07-28T17:46:10Z</time>
      </trkpt>
      <trkpt lat="42.27075" lon="-8.8298">
        <ele>52.566</ele>
        <time>2018-07-28T17:46:11Z</time>
      </trkpt>
      <trkpt lat="42.27083" lon="-8.82978">
        <ele>52.781</ele>
        <time>2018-07-28T17:46:12Z</time>
      </trkpt>
      <trkpt lat="42.27096" lon="-8.82973">
        <ele>52.929</ele>
        <time>2018-07-28T17:46:13Z</time>
      </trkpt>
      <trkpt lat="42.27106" lon="-8.82967">
        <ele>53.155</ele>
        <time>2018-07-28T17:46:14Z</time>
      </trkpt>
      <trkpt lat="42.27116" lon="-8.82962">
        <ele>53.364</ele>
        <time>2018-07-28T17:46:15Z</time>
      </trkpt>
      <trkpt lat="42.27125" lon="-8.82962">
        <ele>53.606</ele>
        <time>2018-07-28T17:46:16Z</time>
      </trkpt>
      <trkpt lat="42.27134" lon="-8.82966">
        <ele>53.916</ele>
        <time>2018-07-28T17:46:17Z</time>
      </trkpt>
      <trkpt lat="42.27145" lon="-8.82972">
        <ele>54.108</ele>
        <time>2018-07-28T17:46:18Z</time>
      </trkpt>
      <trkpt lat="42.27154" lon="-8.82984">
        <ele>54.578</ele>
        <time>2018-07-28T17:46:19Z</time>
      </trkpt>
      <trkpt lat="42.27159" lon="-8.83002">
        <ele>55.073</ele>
        <time>2018-07-28T17:46:20Z</time>
      </trkpt>
      <trkpt lat="42.27162" lon="-8.83017">
        <ele>55.886</ele>
        <time>2018-07-28T17:46:21Z</time>
      </trkpt>
      <trkpt lat="42.27167" lon="-8.83031">
        <ele>56.668</ele>
        <time>2018-07-28T17:46:22Z</time>
      </trkpt>
      <trkpt lat="42.27171" lon="-8.83043">
        <ele>57.583</ele>
        <time>2018-07-28T17:46:23Z</time>
      </trkpt>
      <trkpt lat="42.27174" lon="-8.83054">
        <ele>58.218</ele>
        <time>2018-07-28T17:46:24Z</time>
      </trkpt>
      <trkpt lat="42.27178" lon="-8.83065">
        <ele>58.226</ele>
        <time>2018-07-28T17:46:25Z</time>
      </trkpt>
      <trkpt lat="42.27185" lon="-8.83074">
        <ele>58.162</ele>
        <time>2018-07-28T17:46:26Z</time>
      </trkpt>
      <trkpt lat="42.27191" lon="-8.83085">
        <ele>57.037</ele>
        <time>2018-07-28T17:46:27Z</time>
      </trkpt>
      <trkpt lat="42.27196" lon="-8.83095">
        <ele>56.549</ele>
        <time>2018-07-28T17:46:28Z</time>
      </trkpt>
      <trkpt lat="42.27204" lon="-8.83105">
        <ele>56.413</ele>
        <time>2018-07-28T17:46:29Z</time>
      </trkpt>
      <trkpt lat="42.27214" lon="-8.83115">
        <ele>56.308</ele>
        <time>2018-07-28T17:46:30Z</time>
      </trkpt>
      <trkpt lat="42.27225" lon="-8.83119">
        <ele>56.315</ele>
        <time>2018-07-28T17:46:31Z</time>
      </trkpt>
      <trkpt lat="42.27236" lon="-8.83123">
        <ele>56.34</ele>
        <time>2018-07-28T17:46:32Z</time>
      </trkpt>
      <trkpt lat="42.27249" lon="-8.83124">
        <ele>56.363</ele>
        <time>2018-07-28T17:46:33Z</time>
      </trkpt>
      <trkpt lat="42.27261" lon="-8.83129">
        <ele>56.255</ele>
        <time>2018-07-28T17:46:34Z</time>
      </trkpt>
      <trkpt lat="42.2727" lon="-8.83137">
        <ele>56.06</ele>
        <time>2018-07-28T17:46:35Z</time>
      </trkpt>
      <trkpt lat="42.27281" lon="-8.83146">
        <ele>55.875</ele>
        <time>2018-07-28T17:46:36Z</time>
      </trkpt>
      <trkpt lat="42.27292" lon="-8.83157">
        <ele>55.623</ele>
        <time>2018-07-28T17:46:37Z</time>
      </trkpt>
      <trkpt lat="42.27305" lon="-8.83167">
        <ele>55.149</ele>
        <time>2018-07-28T17:46:38Z</time>
      </trkpt>
      <trkpt lat="42.27315" lon="-8.83178">
        <ele>54.422</ele>
        <time>2018-07-28T17:46:39Z</time>
      </trkpt>
      <trkpt lat="42.27327" lon="-8.83188">
        <ele>53.662</ele>
        <time>2018-07-28T17:46:40Z</time>
      </trkpt>
      <trkpt lat="42.27338" lon="-8.832">
        <ele>52.908</ele>
        <time>2018-07-28T17:46:41Z</time>
      </trkpt>
      <trkpt lat="42.27349" lon="-8.83211">
        <ele>52.208</ele>
        <time>2018-07-28T17:46:42Z</time>
      </trkpt>
      <trkpt lat="42.2736" lon="-8.83221">
        <ele>51.184</ele>
        <time>2018-07-28T17:46:43Z</time>
      </trkpt>
      <trkpt lat="42.27371" lon="-8.83229">
        <ele>50.859</ele>
        <time>2018-07-28T17:46:44Z</time>
      </trkpt>
      <trkpt lat="42.2738" lon="-8.83242">
        <ele>50.732</ele>
        <time>2018-07-28T17:46:45Z</time>
      </trkpt>
      <trkpt lat="42.27388" lon="-8.83258">
        <ele>50.164</ele>
        <time>2018-07-28T17:46:46Z</time>
      </trkpt>
      <trkpt lat="42.27393" lon="-8.83276">
        <ele>49.549</ele>
        <time>2018-07-28T17:46:47Z</time>
      </trkpt>
      <trkpt lat="42.27398" lon="-8.83292">
        <ele>48.734</ele>
        <time>2018-07-28T17:46:48Z</time>
      </trkpt>
      <trkpt lat="42.27404" lon="-8.83307">
        <ele>47.652</ele>
        <time>2018-07-28T17:46:49Z</time>
      </trkpt>
      <trkpt lat="42.27412" lon="-8.8332">
        <ele>46.428</ele>
        <time>2018-07-28T17:46:50Z</time>
      </trkpt>
      <trkpt lat="42.27423" lon="-8.83329">
        <ele>45.658</ele>
        <time>2018-07-28T17:46:51Z</time>
      </trkpt>
      <trkpt lat="42.27435" lon="-8.83338">
        <ele>45.352</ele>
        <time>2018-07-28T17:46:52Z</time>
      </trkpt>
      <trkpt lat="42.27445" lon="-8.83347">
        <ele>45.317</ele>
        <time>2018-07-28T17:46:53Z</time>
      </trkpt>
      <trkpt lat="42.27456" lon="-8.83356">
        <ele>45.408</ele>
        <time>2018-07-28T17:46:54Z</time>
      </trkpt>
      <trkpt lat="42.27466" lon="-8.83365">
        <ele>45.417</ele>
        <time>2018-07-28T17:46:55Z</time>
      </trkpt>
      <trkpt lat="42.27477" lon="-8.83372">
        <ele>45.122</ele>
        <time>2018-07-28T17:46:56Z</time>
      </trkpt>
      <trkpt lat="42.27489" lon="-8.83376">
        <ele>44.725</ele>
        <time>2018-07-28T17:46:57Z</time>
      </trkpt>
      <trkpt lat="42.27502" lon="-8.83378">
        <ele>44.687</ele>
        <time>2018-07-28T17:46:58Z</time>
      </trkpt>
      <trkpt lat="42.27514" lon="-8.83375">
        <ele>45.272</ele>
        <time>2018-07-28T17:46:59Z</time>
      </trkpt>
      <trkpt lat="42.27528" lon="-8.83372">
        <ele>46.177</ele>
        <time>2018-07-28T17:47:00Z</time>
      </trkpt>
      <trkpt lat="42.27543" lon="-8.83369">
        <ele>46.965</ele>
        <time>2018-07-28T17:47:01Z</time>
      </trkpt>
      <trkpt lat="42.27557" lon="-8.8337">
        <ele>47.681</ele>
        <time>2018-07-28T17:47:02Z</time>
      </trkpt>
      <trkpt lat="42.27571" lon="-8.83376">
        <ele>48.181</ele>
        <time>2018-07-28T17:47:03Z</time>
      </trkpt>
      <trkpt lat="42.27585" lon="-8.83381">
        <ele>48.461</ele>
        <time>2018-07-28T17:47:04Z</time>
      </trkpt>
      <trkpt lat="42.27598" lon="-8.83387">
        <ele>48.617</ele>
        <time>2018-07-28T17:47:05Z</time>
      </trkpt>
      <trkpt lat="42.27612" lon="-8.83393">
        <ele>48.808</ele>
        <time>2018-07-28T17:47:06Z</time>
      </trkpt>
      <trkpt lat="42.27625" lon="-8.83398">
        <ele>49.38</ele>
        <time>2018-07-28T17:47:07Z</time>
      </trkpt>
      <trkpt lat="42.27639" lon="-8.83404">
        <ele>49.895</ele>
        <time>2018-07-28T17:47:08Z</time>
      </trkpt>
      <trkpt lat="42.27651" lon="-8.83409">
        <ele>50.428</ele>
        <time>2018-07-28T17:47:09Z</time>
      </trkpt>
      <trkpt lat="42.27662" lon="-8.83414">
        <ele>51.07</ele>
        <time>2018-07-28T17:47:10Z</time>
      </trkpt>
      <trkpt lat="42.27671" lon="-8.83423">
        <ele>51.515</ele>
        <time>2018-07-28T17:47:11Z</time>
      </trkpt>
      <trkpt lat="42.27679" lon="-8.83434">
        <ele>51.78</ele>
        <time>2018-07-28T17:47:12Z</time>
      </trkpt>
      <trkpt lat="42.27688" lon="-8.83443">
        <ele>52.238</ele>
        <time>2018-07-28T17:47:13Z</time>
      </trkpt>
      <trkpt lat="42.27698" lon="-8.83446">
        <ele>52.454</ele>
        <time>2018-07-28T17:47:14Z</time>
      </trkpt>
      <trkpt lat="42.27708" lon="-8.83445">
        <ele>52.689</ele>
        <time>2018-07-28T17:47:15Z</time>
      </trkpt>
      <trkpt lat="42.27719" lon="-8.8344">
        <ele>52.706</ele>
        <time>2018-07-28T17:47:16Z</time>
      </trkpt>
      <trkpt lat="42.27728" lon="-8.83434">
        <ele>52.726</ele>
        <time>2018-07-28T17:47:17Z</time>
      </trkpt>
      <trkpt lat="42.27738" lon="-8.83431">
        <ele>52.508</ele>
        <time>2018-07-28T17:47:18Z</time>
      </trkpt>
      <trkpt lat="42.27748" lon="-8.8343">
        <ele>52.26</ele>
        <time>2018-07-28T17:47:19Z</time>
      </trkpt>
      <trkpt lat="42.27758" lon="-8.83431">
        <ele>51.785</ele>
        <time>2018-07-28T17:47:20Z</time>
      </trkpt>
      <trkpt lat="42.27767" lon="-8.83433">
        <ele>50.978</ele>
        <time>2018-07-28T17:47:21Z</time>
      </trkpt>
      <trkpt lat="42.27775" lon="-8.83437">
        <ele>50.15</ele>
        <time>2018-07-28T17:47:22Z</time>
      </trkpt>
      <trkpt lat="42.27783" lon="-8.8344">
        <ele>49.275</ele>
        <time>2018-07-28T17:47:23Z</time>
      </trkpt>
      <trkpt lat="42.27792" lon="-8.83442">
        <ele>48.42</ele>
        <time>2018-07-28T17:47:24Z</time>
      </trkpt>
      <trkpt lat="42.27801" lon="-8.83441">
        <ele>47.648</ele>
        <time>2018-07-28T17:47:25Z</time>
      </trkpt>
      <trkpt lat="42.2781" lon="-8.83437">
        <ele>47.154</ele>
        <time>2018-07-28T17:47:26Z</time>
      </trkpt>
      <trkpt lat="42.27819" lon="-8.8343">
        <ele>46.845</ele>
        <time>2018-07-28T17:47:27Z</time>
      </trkpt>
      <trkpt lat="42.27828" lon="-8.83423">
        <ele>46.647</ele>
        <time>2018-07-28T17:47:28Z</time>
      </trkpt>
      <trkpt lat="42.27837" lon="-8.83416">
        <ele>46.411</ele>
        <time>2018-07-28T17:47:29Z</time>
      </trkpt>
      <trkpt lat="42.27847" lon="-8.83409">
        <ele>46.308</ele>
        <time>2018-07-28T17:47:30Z</time>
      </trkpt>
      <trkpt lat="42.27857" lon="-8.83406">
        <ele>46.276</ele>
        <time>2018-07-28T17:47:31Z</time>
      </trkpt>
      <trkpt lat="42.27868" lon="-8.83404">
        <ele>46.071</ele>
        <time>2018-07-28T17:47:32Z</time>
      </trkpt>
      <trkpt lat="42.27879" lon="-8.83404">
        <ele>45.494</ele>
        <time>2018-07-28T17:47:33Z</time>
      </trkpt>
      <trkpt lat="42.27891" lon="-8.83407">
        <ele>44.926</ele>
        <time>2018-07-28T17:47:34Z</time>
      </trkpt>
      <trkpt lat="42.27902" lon="-8.83412">
        <ele>44.221</ele>
        <time>2018-07-28T17:47:35Z</time>
      </trkpt>
      <trkpt lat="42.27912" lon="-8.83417">
        <ele>43.276</ele>
        <time>2018-07-28T17:47:36Z</time>
      </trkpt>
      <trkpt lat="42.27923" lon="-8.83422">
        <ele>42.264</ele>
        <time>2018-07-28T17:47:37Z</time>
      </trkpt>
      <trkpt lat="42.27932" lon="-8.83425">
        <ele>41.32</ele>
        <time>2018-07-28T17:47:38Z</time>
      </trkpt>
      <trkpt lat="42.27942" lon="-8.83426">
        <ele>40.387</ele>
        <time>2018-07-28T17:47:39Z</time>
      </trkpt>
      <trkpt lat="42.27951" lon="-8.83426">
        <ele>39.342</ele>
        <time>2018-07-28T17:47:40Z</time>
      </trkpt>
      <trkpt lat="42.27961" lon="-8.83422">
        <ele>38.626</ele>
        <time>2018-07-28T17:47:41Z</time>
      </trkpt>
      <trkpt lat="42.2797" lon="-8.83414">
        <ele>37.808</ele>
        <time>2018-07-28T17:47:42Z</time>
      </trkpt>
      <trkpt lat="42.27979" lon="-8.83407">
        <ele>37.16</ele>
        <time>2018-07-28T17:47:43Z</time>
      </trkpt>
      <trkpt lat="42.27987" lon="-8.834">
        <ele>36.135</ele>
        <time>2018-07-28T17:47:44Z</time>
      </trkpt>
      <trkpt lat="42.27995" lon="-8.83394">
        <ele>35.528</ele>
        <time>2018-07-28T17:47:45Z</time>
      </trkpt>
      <trkpt lat="42.28002" lon="-8.83388">
        <ele>35.18</ele>
        <time>2018-07-28T17:47:46Z</time>
      </trkpt>
      <trkpt lat="42.2801" lon="-8.83384">
        <ele>34.725</ele>
        <time>2018-07-28T17:47:47Z</time>
      </trkpt>
      <trkpt lat="42.28019" lon="-8.83383">
        <ele>34.33</ele>
        <time>2018-07-28T17:47:48Z</time>
      </trkpt>
      <trkpt lat="42.28028" lon="-8.83384">
        <ele>34.198</ele>
        <time>2018-07-28T17:47:49Z</time>
      </trkpt>
      <trkpt lat="42.28037" lon="-8.83385">
        <ele>33.974</ele>
        <time>2018-07-28T17:47:50Z</time>
      </trkpt>
      <trkpt lat="42.28046" lon="-8.83387">
        <ele>33.749</ele>
        <time>2018-07-28T17:47:51Z</time>
      </trkpt>
      <trkpt lat="42.28055" lon="-8.83389">
        <ele>33.702</ele>
        <time>2018-07-28T17:47:52Z</time>
      </trkpt>
      <trkpt lat="42.28064" lon="-8.83392">
        <ele>33.722</ele>
        <time>2018-07-28T17:47:53Z</time>
      </trkpt>
      <trkpt lat="42.28073" lon="-8.83394">
        <ele>34.108</ele>
        <time>2018-07-28T17:47:54Z</time>
      </trkpt>
      <trkpt lat="42.28082" lon="-8.83395">
        <ele>34.596</ele>
        <time>2018-07-28T17:47:55Z</time>
      </trkpt>
      <trkpt lat="42.28092" lon="-8.83398">
        <ele>34.721</ele>
        <time>2018-07-28T17:47:56Z</time>
      </trkpt>
      <trkpt lat="42.28101" lon="-8.83406">
        <ele>34.954</ele>
        <time>2018-07-28T17:47:57Z</time>
      </trkpt>
      <trkpt lat="42.2811" lon="-8.83417">
        <ele>35.056</ele>
        <time>2018-07-28T17:47:58Z</time>
      </trkpt>
      <trkpt lat="42.28119" lon="-8.83428">
        <ele>35.291</ele>
        <time>2018-07-28T17:47:59Z</time>
      </trkpt>
      <trkpt lat="42.28129" lon="-8.83438">
        <ele>35.496</ele>
        <time>2018-07-28T17:48:00Z</time>
      </trkpt>
      <trkpt lat="42.28137" lon="-8.83449">
        <ele>35.554</ele>
        <time>2018-07-28T17:48:01Z</time>
      </trkpt>
      <trkpt lat="42.28145" lon="-8.83459">
        <ele>35.65</ele>
        <time>2018-07-28T17:48:02Z</time>
      </trkpt>
      <trkpt lat="42.28152" lon="-8.83467">
        <ele>35.663</ele>
        <time>2018-07-28T17:48:03Z</time>
      </trkpt>
      <trkpt lat="42.28161" lon="-8.83475">
        <ele>35.544</ele>
        <time>2018-07-28T17:48:04Z</time>
      </trkpt>
      <trkpt lat="42.2817" lon="-8.8348">
        <ele>35.518</ele>
        <time>2018-07-28T17:48:05Z</time>
      </trkpt>
      <trkpt lat="42.2818" lon="-8.83484">
        <ele>35.708</ele>
        <time>2018-07-28T17:48:06Z</time>
      </trkpt>
      <trkpt lat="42.2819" lon="-8.83488">
        <ele>35.988</ele>
        <time>2018-07-28T17:48:07Z</time>
      </trkpt>
      <trkpt lat="42.28199" lon="-8.83495">
        <ele>36.473</ele>
        <time>2018-07-28T17:48:08Z</time>
      </trkpt>
      <trkpt lat="42.28205" lon="-8.83509">
        <ele>37.046</ele>
        <time>2018-07-28T17:48:09Z</time>
      </trkpt>
      <trkpt lat="42.28208" lon="-8.83527">
        <ele>37.748</ele>
        <time>2018-07-28T17:48:10Z</time>
      </trkpt>
      <trkpt lat="42.28214" lon="-8.83544">
        <ele>38.463</ele>
        <time>2018-07-28T17:48:11Z</time>
      </trkpt>
      <trkpt lat="42.28219" lon="-8.83559">
        <ele>39.288</ele>
        <time>2018-07-28T17:48:12Z</time>
      </trkpt>
      <trkpt lat="42.28223" lon="-8.83574">
        <ele>39.896</ele>
        <time>2018-07-28T17:48:13Z</time>
      </trkpt>
      <trkpt lat="42.28225" lon="-8.83591">
        <ele>40.322</ele>
        <time>2018-07-28T17:48:14Z</time>
      </trkpt>
      <trkpt lat="42.28224" lon="-8.83608">
        <ele>41.323</ele>
        <time>2018-07-28T17:48:15Z</time>
      </trkpt>
      <trkpt lat="42.28222" lon="-8.83625">
        <ele>41.883</ele>
        <time>2018-07-28T17:48:16Z</time>
      </trkpt>
      <trkpt lat="42.28221" lon="-8.83641">
        <ele>42.411</ele>
        <time>2018-07-28T17:48:17Z</time>
      </trkpt>
      <trkpt lat="42.28222" lon="-8.83656">
        <ele>43.008</ele>
        <time>2018-07-28T17:48:18Z</time>
      </trkpt>
      <trkpt lat="42.28225" lon="-8.83671">
        <ele>43.524</ele>
        <time>2018-07-28T17:48:19Z</time>
      </trkpt>
      <trkpt lat="42.2823" lon="-8.83684">
        <ele>43.829</ele>
        <time>2018-07-28T17:48:20Z</time>
      </trkpt>
      <trkpt lat="42.28237" lon="-8.83694">
        <ele>44.152</ele>
        <time>2018-07-28T17:48:21Z</time>
      </trkpt>
      <trkpt lat="42.28246" lon="-8.83703">
        <ele>44.644</ele>
        <time>2018-07-28T17:48:22Z</time>
      </trkpt>
      <trkpt lat="42.28254" lon="-8.8371">
        <ele>44.969</ele>
        <time>2018-07-28T17:48:23Z</time>
      </trkpt>
      <trkpt lat="42.28263" lon="-8.83715">
        <ele>45.274</ele>
        <time>2018-07-28T17:48:24Z</time>
      </trkpt>
      <trkpt lat="42.28272" lon="-8.8372">
        <ele>45.332</ele>
        <time>2018-07-28T17:48:25Z</time>
      </trkpt>
      <trkpt lat="42.28281" lon="-8.83724">
        <ele>45.378</ele>
        <time>2018-07-28T17:48:26Z</time>
      </trkpt>
      <trkpt lat="42.2829" lon="-8.83728">
        <ele>45.028</ele>
        <time>2018-07-28T17:48:27Z</time>
      </trkpt>
      <trkpt lat="42.28298" lon="-8.83734">
        <ele>44.789</ele>
        <time>2018-07-28T17:48:28Z</time>
      </trkpt>
      <trkpt lat="42.28305" lon="-8.83739">
        <ele>44.317</ele>
        <time>2018-07-28T17:48:29Z</time>
      </trkpt>
      <trkpt lat="42.28311" lon="-8.83745">
        <ele>43.908</ele>
        <time>2018-07-28T17:48:30Z</time>
      </trkpt>
      <trkpt lat="42.28318" lon="-8.83751">
        <ele>43.244</ele>
        <time>2018-07-28T17:48:31Z</time>
      </trkpt>
      <trkpt lat="42.28325" lon="-8.83757">
        <ele>42.979</ele>
        <time>2018-07-28T17:48:32Z</time>
      </trkpt>
      <trkpt lat="42.28332" lon="-8.83764">
        <ele>42.782</ele>
        <time>2018-07-28T17:48:33Z</time>
      </trkpt>
      <trkpt lat="42.28339" lon="-8.83768">
        <ele>42.634</ele>
        <time>2018-07-28T17:48:34Z</time>
      </trkpt>
      <trkpt lat="42.28346" lon="-8.83773">
        <ele>42.659</ele>
        <time>2018-07-28T17:48:35Z</time>
      </trkpt>
      <trkpt lat="42.28354" lon="-8.83775">
        <ele>42.654</ele>
        <time>2018-07-28T17:48:36Z</time>
      </trkpt>
      <trkpt lat="42.28362" lon="-8.83773">
        <ele>42.672</ele>
        <time>2018-07-28T17:48:37Z</time>
      </trkpt>
      <trkpt lat="42.28371" lon="-8.8377">
        <ele>42.678</ele>
        <time>2018-07-28T17:48:38Z</time>
      </trkpt>
      <trkpt lat="42.2838" lon="-8.8377">
        <ele>42.421</ele>
        <time>2018-07-28T17:48:39Z</time>
      </trkpt>
      <trkpt lat="42.28387" lon="-8.83773">
        <ele>42.141</ele>
        <time>2018-07-28T17:48:40Z</time>
      </trkpt>
      <trkpt lat="42.28395" lon="-8.83775">
        <ele>41.805</ele>
        <time>2018-07-28T17:48:41Z</time>
      </trkpt>
      <trkpt lat="42.28402" lon="-8.8378">
        <ele>41.408</ele>
        <time>2018-07-28T17:48:42Z</time>
      </trkpt>
      <trkpt lat="42.28409" lon="-8.83786">
        <ele>41.174</ele>
        <time>2018-07-28T17:48:43Z</time>
      </trkpt>
      <trkpt lat="42.28415" lon="-8.83795">
        <ele>41.039</ele>
        <time>2018-07-28T17:48:44Z</time>
      </trkpt>
      <trkpt lat="42.28422" lon="-8.83804">
        <ele>41.042</ele>
        <time>2018-07-28T17:48:45Z</time>
      </trkpt>
      <trkpt lat="42.28429" lon="-8.83811">
        <ele>41.614</ele>
        <time>2018-07-28T17:48:46Z</time>
      </trkpt>
      <trkpt lat="42.28436" lon="-8.83817">
        <ele>42.199</ele>
        <time>2018-07-28T17:48:47Z</time>
      </trkpt>
      <trkpt lat="42.28443" lon="-8.83822">
        <ele>42.614</ele>
        <time>2018-07-28T17:48:48Z</time>
      </trkpt>
      <trkpt lat="42.2845" lon="-8.83825">
        <ele>43.212</ele>
        <time>2018-07-28T17:48:49Z</time>
      </trkpt>
      <trkpt lat="42.28458" lon="-8.83827">
        <ele>43.788</ele>
        <time>2018-07-28T17:48:50Z</time>
      </trkpt>
      <trkpt lat="42.28465" lon="-8.83825">
        <ele>44.233</ele>
        <time>2018-07-28T17:48:51Z</time>
      </trkpt>
      <trkpt lat="42.28472" lon="-8.83821">
        <ele>44.823</ele>
        <time>2018-07-28T17:48:52Z</time>
      </trkpt>
      <trkpt lat="42.28478" lon="-8.83817">
        <ele>45.415</ele>
        <time>2018-07-28T17:48:53Z</time>
      </trkpt>
      <trkpt lat="42.28484" lon="-8.83814">
        <ele>46.008</ele>
        <time>2018-07-28T17:48:54Z</time>
      </trkpt>
      <trkpt lat="42.28491" lon="-8.83813">
        <ele>46.545</ele>
        <time>2018-07-28T17:48:55Z</time>
      </trkpt>
      <trkpt lat="42.28499" lon="-8.83816">
        <ele>47.07</ele>
        <time>2018-07-28T17:48:56Z</time>
      </trkpt>
      <trkpt lat="42.28507" lon="-8.83823">
        <ele>47.663</ele>
        <time>2018-07-28T17:48:57Z</time>
      </trkpt>
      <trkpt lat="42.28512" lon="-8.83834">
        <ele>48.345</ele>
        <time>2018-07-28T17:48:58Z</time>
      </trkpt>
      <trkpt lat="42.28518" lon="-8.83846">
        <ele>49.26</ele>
        <time>2018-07-28T17:48:59Z</time>
      </trkpt>
      <trkpt lat="42.28522" lon="-8.83857">
        <ele>50.125</ele>
        <time>2018-07-28T17:49:00Z</time>
      </trkpt>
      <trkpt lat="42.28527" lon="-8.83868">
        <ele>52.093</ele>
        <time>2018-07-28T17:49:01Z</time>
      </trkpt>
      <trkpt lat="42.28531" lon="-8.83877">
        <ele>52.569</ele>
        <time>2018-07-28T17:49:02Z</time>
      </trkpt>
      <trkpt lat="42.28534" lon="-8.83886">
        <ele>52.898</ele>
        <time>2018-07-28T17:49:03Z</time>
      </trkpt>
      <trkpt lat="42.28536" lon="-8.83895">
        <ele>53.015</ele>
        <time>2018-07-28T17:49:04Z</time>
      </trkpt>
      <trkpt lat="42.28537" lon="-8.83902">
        <ele>53.026</ele>
        <time>2018-07-28T17:49:05Z</time>
      </trkpt>
      <trkpt lat="42.28538" lon="-8.83911">
        <ele>52.808</ele>
        <time>2018-07-28T17:49:07Z</time>
      </trkpt>
      <trkpt lat="42.28539" lon="-8.83918">
        <ele>52.511</ele>
        <time>2018-07-28T17:49:09Z</time>
      </trkpt>
      <trkpt lat="42.28539" lon="-8.83926">
        <ele>51.836</ele>
        <time>2018-07-28T17:49:11Z</time>
      </trkpt>
      <trkpt lat="42.28538" lon="-8.83933">
        <ele>50.699</ele>
        <time>2018-07-28T17:49:13Z</time>
      </trkpt>
      <trkpt lat="42.2854" lon="-8.83942">
        <ele>48.411</ele>
        <time>2018-07-28T17:49:16Z</time>
      </trkpt>
      <trkpt lat="42.28542" lon="-8.8395">
        <ele>47.286</ele>
        <time>2018-07-28T17:49:18Z</time>
      </trkpt>
      <trkpt lat="42.28544" lon="-8.83957">
        <ele>47.021</ele>
        <time>2018-07-28T17:49:19Z</time>
      </trkpt>
      <trkpt lat="42.28547" lon="-8.83963">
        <ele>46.829</ele>
        <time>2018-07-28T17:49:20Z</time>
      </trkpt>
      <trkpt lat="42.28549" lon="-8.8397">
        <ele>46.595</ele>
        <time>2018-07-28T17:49:21Z</time>
      </trkpt>
      <trkpt lat="42.28552" lon="-8.83976">
        <ele>46.291</ele>
        <time>2018-07-28T17:49:22Z</time>
      </trkpt>
      <trkpt lat="42.28554" lon="-8.83983">
        <ele>45.981</ele>
        <time>2018-07-28T17:49:23Z</time>
      </trkpt>
      <trkpt lat="42.28556" lon="-8.83993">
        <ele>45.019</ele>
        <time>2018-07-28T17:49:25Z</time>
      </trkpt>
      <trkpt lat="42.28559" lon="-8.84001">
        <ele>44.208</ele>
        <time>2018-07-28T17:49:27Z</time>
      </trkpt>
      <trkpt lat="42.28565" lon="-8.84008">
        <ele>43.121</ele>
        <time>2018-07-28T17:49:29Z</time>
      </trkpt>
      <trkpt lat="42.28573" lon="-8.84008">
        <ele>41.726</ele>
        <time>2018-07-28T17:49:31Z</time>
      </trkpt>
      <trkpt lat="42.28578" lon="-8.84">
        <ele>39.449</ele>
        <time>2018-07-28T17:49:33Z</time>
      </trkpt>
      <trkpt lat="42.28579" lon="-8.83994">
        <ele>38.831</ele>
        <time>2018-07-28T17:49:34Z</time>
      </trkpt>
      <trkpt lat="42.28581" lon="-8.83987">
        <ele>38.476</ele>
        <time>2018-07-28T17:49:35Z</time>
      </trkpt>
      <trkpt lat="42.28583" lon="-8.8398">
        <ele>38.111</ele>
        <time>2018-07-28T17:49:36Z</time>
      </trkpt>
      <trkpt lat="42.28585" lon="-8.83974">
        <ele>37.829</ele>
        <time>2018-07-28T17:49:37Z</time>
      </trkpt>
      <trkpt lat="42.28587" lon="-8.83967">
        <ele>37.575</ele>
        <time>2018-07-28T17:49:38Z</time>
      </trkpt>
      <trkpt lat="42.28591" lon="-8.83962">
        <ele>37.263</ele>
        <time>2018-07-28T17:49:39Z</time>
      </trkpt>
      <trkpt lat="42.28596" lon="-8.83957">
        <ele>36.944</ele>
        <time>2018-07-28T17:49:40Z</time>
      </trkpt>
      <trkpt lat="42.286" lon="-8.83951">
        <ele>36.618</ele>
        <time>2018-07-28T17:49:41Z</time>
      </trkpt>
      <trkpt lat="42.28603" lon="-8.83945">
        <ele>36.408</ele>
        <time>2018-07-28T17:49:42Z</time>
      </trkpt>
      <trkpt lat="42.28607" lon="-8.8394">
        <ele>36.348</ele>
        <time>2018-07-28T17:49:43Z</time>
      </trkpt>
      <trkpt lat="42.2861" lon="-8.83935">
        <ele>36.253</ele>
        <time>2018-07-28T17:49:44Z</time>
      </trkpt>
      <trkpt lat="42.28614" lon="-8.83931">
        <ele>36.166</ele>
        <time>2018-07-28T17:49:45Z</time>
      </trkpt>
      <trkpt lat="42.28619" lon="-8.83927">
        <ele>36.068</ele>
        <time>2018-07-28T17:49:46Z</time>
      </trkpt>
      <trkpt lat="42.28623" lon="-8.83924">
        <ele>35.953</ele>
        <time>2018-07-28T17:49:47Z</time>
      </trkpt>
      <trkpt lat="42.28627" lon="-8.8392">
        <ele>35.438</ele>
        <time>2018-07-28T17:49:48Z</time>
      </trkpt>
      <trkpt lat="42.28631" lon="-8.83916">
        <ele>35.136</ele>
        <time>2018-07-28T17:49:49Z</time>
      </trkpt>
      <trkpt lat="42.28634" lon="-8.83911">
        <ele>34.762</ele>
        <time>2018-07-28T17:49:50Z</time>
      </trkpt>
      <trkpt lat="42.28639" lon="-8.83906">
        <ele>33.923</ele>
        <time>2018-07-28T17:49:52Z</time>
      </trkpt>
      <trkpt lat="42.28643" lon="-8.83902">
        <ele>33.283</ele>
        <time>2018-07-28T17:49:54Z</time>
      </trkpt>
      <trkpt lat="42.28649" lon="-8.83896">
        <ele>32.511</ele>
        <time>2018-07-28T17:49:56Z</time>
      </trkpt>
      <trkpt lat="42.28652" lon="-8.8389">
        <ele>32.208</ele>
        <time>2018-07-28T17:49:57Z</time>
      </trkpt>
      <trkpt lat="42.28655" lon="-8.83885">
        <ele>31.884</ele>
        <time>2018-07-28T17:49:58Z</time>
      </trkpt>
      <trkpt lat="42.28658" lon="-8.83879">
        <ele>31.339</ele>
        <time>2018-07-28T17:49:59Z</time>
      </trkpt>
      <trkpt lat="42.28661" lon="-8.83874">
        <ele>30.892</ele>
        <time>2018-07-28T17:50:00Z</time>
      </trkpt>
      <trkpt lat="42.28668" lon="-8.83867">
        <ele>29.844</ele>
        <time>2018-07-28T17:50:02Z</time>
      </trkpt>
      <trkpt lat="42.28673" lon="-8.8386">
        <ele>28.379</ele>
        <time>2018-07-28T17:50:04Z</time>
      </trkpt>
      <trkpt lat="42.2868" lon="-8.83856">
        <ele>27.284</ele>
        <time>2018-07-28T17:50:06Z</time>
      </trkpt>
      <trkpt lat="42.28688" lon="-8.83854">
        <ele>26.152</ele>
        <time>2018-07-28T17:50:08Z</time>
      </trkpt>
      <trkpt lat="42.28695" lon="-8.8385">
        <ele>24.638</ele>
        <time>2018-07-28T17:50:10Z</time>
      </trkpt>
      <trkpt lat="42.287" lon="-8.83845">
        <ele>23.235</ele>
        <time>2018-07-28T17:50:12Z</time>
      </trkpt>
      <trkpt lat="42.28702" lon="-8.83839">
        <ele>22.186</ele>
        <time>2018-07-28T17:50:14Z</time>
      </trkpt>
      <trkpt lat="42.28703" lon="-8.83831">
        <ele>21.414</ele>
        <time>2018-07-28T17:50:16Z</time>
      </trkpt>
      <trkpt lat="42.28703" lon="-8.83822">
        <ele>20.708</ele>
        <time>2018-07-28T17:50:18Z</time>
      </trkpt>
      <trkpt lat="42.28703" lon="-8.83815">
        <ele>19.565</ele>
        <time>2018-07-28T17:50:20Z</time>
      </trkpt>
      <trkpt lat="42.28703" lon="-8.83808">
        <ele>18.44</ele>
        <time>2018-07-28T17:50:23Z</time>
      </trkpt>
      <trkpt lat="42.28703" lon="-8.83801">
        <ele>17.293</ele>
        <time>2018-07-28T17:50:27Z</time>
      </trkpt>
      <trkpt lat="42.28703" lon="-8.83795">
        <ele>16.175</ele>
        <time>2018-07-28T17:50:43Z</time>
      </trkpt>
      <trkpt lat="42.28698" lon="-8.8379">
        <ele>15.86</ele>
        <time>2018-07-28T17:51:00Z</time>
      </trkpt>
      <trkpt lat="42.28691" lon="-8.8379">
        <ele>15.815</ele>
        <time>2018-07-28T17:51:02Z</time>
      </trkpt>
      <trkpt lat="42.28683" lon="-8.83792">
        <ele>15.623</ele>
        <time>2018-07-28T17:51:04Z</time>
      </trkpt>
      <trkpt lat="42.28674" lon="-8.83794">
        <ele>14.989</ele>
        <time>2018-07-28T17:51:06Z</time>
      </trkpt>
      <trkpt lat="42.2867" lon="-8.83794">
        <ele>14.663</ele>
        <time>2018-07-28T17:51:07Z</time>
      </trkpt>
      <trkpt lat="42.28662" lon="-8.8379">
        <ele>14.044</ele>
        <time>2018-07-28T17:51:09Z</time>
      </trkpt>
      <trkpt lat="42.28654" lon="-8.83784">
        <ele>13.618</ele>
        <time>2018-07-28T17:51:11Z</time>
      </trkpt>
      <trkpt lat="42.28649" lon="-8.83779">
        <ele>13.508</ele>
        <time>2018-07-28T17:51:12Z</time>
      </trkpt>
      <trkpt lat="42.28644" lon="-8.83774">
        <ele>13.448</ele>
        <time>2018-07-28T17:51:13Z</time>
      </trkpt>
      <trkpt lat="42.28638" lon="-8.83769">
        <ele>13.323</ele>
        <time>2018-07-28T17:51:14Z</time>
      </trkpt>
      <trkpt lat="42.28633" lon="-8.83764">
        <ele>13.216</ele>
        <time>2018-07-28T17:51:15Z</time>
      </trkpt>
      <trkpt lat="42.28628" lon="-8.83759">
        <ele>13.158</ele>
        <time>2018-07-28T17:51:16Z</time>
      </trkpt>
      <trkpt lat="42.28624" lon="-8.83756">
        <ele>13.023</ele>
        <time>2018-07-28T17:51:17Z</time>
      </trkpt>
      <trkpt lat="42.28618" lon="-8.8375">
        <ele>12.768</ele>
        <time>2018-07-28T17:51:19Z</time>
      </trkpt>
      <trkpt lat="42.28613" lon="-8.83743">
        <ele>12.616</ele>
        <time>2018-07-28T17:51:21Z</time>
      </trkpt>
      <trkpt lat="42.28608" lon="-8.83738">
        <ele>12.722</ele>
        <time>2018-07-28T17:51:23Z</time>
      </trkpt>
      <trkpt lat="42.28605" lon="-8.83733">
        <ele>12.957</ele>
        <time>2018-07-28T17:51:25Z</time>
      </trkpt>
      <trkpt lat="42.28601" lon="-8.83729">
        <ele>13.1</ele>
        <time>2018-07-28T17:51:27Z</time>
      </trkpt>
      <trkpt lat="42.28596" lon="-8.83723">
        <ele>13.32</ele>
        <time>2018-07-28T17:51:29Z</time>
      </trkpt>
      <trkpt lat="42.28589" lon="-8.83719">
        <ele>13.408</ele>
        <time>2018-07-28T17:51:31Z</time>
      </trkpt>
      <trkpt lat="42.28582" lon="-8.83714">
        <ele>13.627</ele>
        <time>2018-07-28T17:51:33Z</time>
      </trkpt>
      <trkpt lat="42.28576" lon="-8.8371">
        <ele>13.852</ele>
        <time>2018-07-28T17:51:35Z</time>
      </trkpt>
      <trkpt lat="42.28572" lon="-8.83706">
        <ele>14.195</ele>
        <time>2018-07-28T17:51:41Z</time>
      </trkpt>
      <trkpt lat="42.28577" lon="-8.83708">
        <ele>14.067</ele>
        <time>2018-07-28T17:51:53Z</time>
      </trkpt>
      <trkpt lat="42.28582" lon="-8.83713">
        <ele>14.162</ele>
        <time>2018-07-28T17:51:55Z</time>
      </trkpt>
      <trkpt lat="42.28586" lon="-8.83717">
        <ele>14.257</ele>
        <time>2018-07-28T17:51:56Z</time>
      </trkpt>
      <trkpt lat="42.28591" lon="-8.83721">
        <ele>14.315</ele>
        <time>2018-07-28T17:51:57Z</time>
      </trkpt>
      <trkpt lat="42.28595" lon="-8.83724">
        <ele>14.411</ele>
        <time>2018-07-28T17:51:58Z</time>
      </trkpt>
      <trkpt lat="42.28602" lon="-8.8373">
        <ele>14.481</ele>
        <time>2018-07-28T17:52:00Z</time>
      </trkpt>
      <trkpt lat="42.28608" lon="-8.83737">
        <ele>14.161</ele>
        <time>2018-07-28T17:52:02Z</time>
      </trkpt>
      <trkpt lat="42.28614" lon="-8.83744">
        <ele>13.717</ele>
        <time>2018-07-28T17:52:04Z</time>
      </trkpt>
      <trkpt lat="42.2862" lon="-8.83751">
        <ele>13.408</ele>
        <time>2018-07-28T17:52:06Z</time>
      </trkpt>
      <trkpt lat="42.28624" lon="-8.83756">
        <ele>13.36</ele>
        <time>2018-07-28T17:52:07Z</time>
      </trkpt>
      <trkpt lat="42.28629" lon="-8.83761">
        <ele>13.335</ele>
        <time>2018-07-28T17:52:08Z</time>
      </trkpt>
      <trkpt lat="42.28635" lon="-8.83767">
        <ele>13.478</ele>
        <time>2018-07-28T17:52:09Z</time>
      </trkpt>
      <trkpt lat="42.28641" lon="-8.83774">
        <ele>13.71</ele>
        <time>2018-07-28T17:52:10Z</time>
      </trkpt>
      <trkpt lat="42.28647" lon="-8.83779">
        <ele>13.835</ele>
        <time>2018-07-28T17:52:11Z</time>
      </trkpt>
      <trkpt lat="42.28651" lon="-8.83784">
        <ele>13.81</ele>
        <time>2018-07-28T17:52:12Z</time>
      </trkpt>
      <trkpt lat="42.28656" lon="-8.83787">
        <ele>13.898</ele>
        <time>2018-07-28T17:52:13Z</time>
      </trkpt>
      <trkpt lat="42.28661" lon="-8.83788">
        <ele>13.814</ele>
        <time>2018-07-28T17:52:14Z</time>
      </trkpt>
      <trkpt lat="42.28666" lon="-8.83787">
        <ele>13.883</ele>
        <time>2018-07-28T17:52:15Z</time>
      </trkpt>
      <trkpt lat="42.28671" lon="-8.83786">
        <ele>13.925</ele>
        <time>2018-07-28T17:52:16Z</time>
      </trkpt>
      <trkpt lat="42.28675" lon="-8.83785">
        <ele>14.117</ele>
        <time>2018-07-28T17:52:17Z</time>
      </trkpt>
      <trkpt lat="42.2868" lon="-8.83786">
        <ele>14.308</ele>
        <time>2018-07-28T17:52:18Z</time>
      </trkpt>
      <trkpt lat="42.28685" lon="-8.83787">
        <ele>14.62</ele>
        <time>2018-07-28T17:52:19Z</time>
      </trkpt>
      <trkpt lat="42.2869" lon="-8.83789">
        <ele>14.995</ele>
        <time>2018-07-28T17:52:20Z</time>
      </trkpt>
      <trkpt lat="42.28695" lon="-8.83791">
        <ele>15.318</ele>
        <time>2018-07-28T17:52:21Z</time>
      </trkpt>
      <trkpt lat="42.28701" lon="-8.83794">
        <ele>15.74</ele>
        <time>2018-07-28T17:52:23Z</time>
      </trkpt>
      <trkpt lat="42.28708" lon="-8.83795">
        <ele>15.885</ele>
        <time>2018-07-28T17:52:25Z</time>
      </trkpt>
      <trkpt lat="42.28714" lon="-8.83798">
        <ele>15.75</ele>
        <time>2018-07-28T17:52:27Z</time>
      </trkpt>
      <trkpt lat="42.28718" lon="-8.83803">
        <ele>15.998</ele>
        <time>2018-07-28T17:52:29Z</time>
      </trkpt>
      <trkpt lat="42.28722" lon="-8.83809">
        <ele>16.224</ele>
        <time>2018-07-28T17:52:31Z</time>
      </trkpt>
      <trkpt lat="42.28728" lon="-8.83817">
        <ele>16.542</ele>
        <time>2018-07-28T17:52:33Z</time>
      </trkpt>
      <trkpt lat="42.28734" lon="-8.83826">
        <ele>16.522</ele>
        <time>2018-07-28T17:52:35Z</time>
      </trkpt>
      <trkpt lat="42.28737" lon="-8.83831">
        <ele>16.314</ele>
        <time>2018-07-28T17:52:36Z</time>
      </trkpt>
      <trkpt lat="42.2874" lon="-8.83836">
        <ele>16.108</ele>
        <time>2018-07-28T17:52:37Z</time>
      </trkpt>
      <trkpt lat="42.28744" lon="-8.8384">
        <ele>15.956</ele>
        <time>2018-07-28T17:52:38Z</time>
      </trkpt>
      <trkpt lat="42.28747" lon="-8.83844">
        <ele>15.781</ele>
        <time>2018-07-28T17:52:39Z</time>
      </trkpt>
      <trkpt lat="42.28752" lon="-8.83848">
        <ele>15.634</ele>
        <time>2018-07-28T17:52:40Z</time>
      </trkpt>
      <trkpt lat="42.28756" lon="-8.83851">
        <ele>15.656</ele>
        <time>2018-07-28T17:52:41Z</time>
      </trkpt>
      <trkpt lat="42.28762" lon="-8.83854">
        <ele>15.791</ele>
        <time>2018-07-28T17:52:42Z</time>
      </trkpt>
      <trkpt lat="42.28768" lon="-8.83856">
        <ele>15.886</ele>
        <time>2018-07-28T17:52:43Z</time>
      </trkpt>
      <trkpt lat="42.28774" lon="-8.83859">
        <ele>15.944</ele>
        <time>2018-07-28T17:52:44Z</time>
      </trkpt>
      <trkpt lat="42.2878" lon="-8.83862">
        <ele>15.93</ele>
        <time>2018-07-28T17:52:45Z</time>
      </trkpt>
      <trkpt lat="42.28785" lon="-8.83865">
        <ele>15.932</ele>
        <time>2018-07-28T17:52:46Z</time>
      </trkpt>
      <trkpt lat="42.28789" lon="-8.83868">
        <ele>15.992</ele>
        <time>2018-07-28T17:52:47Z</time>
      </trkpt>
      <trkpt lat="42.28793" lon="-8.83873">
        <ele>15.611</ele>
        <time>2018-07-28T17:52:49Z</time>
      </trkpt>
      <trkpt lat="42.28795" lon="-8.83881">
        <ele>15.308</ele>
        <time>2018-07-28T17:53:02Z</time>
      </trkpt>
      <trkpt lat="42.28796" lon="-8.83888">
        <ele>15.495</ele>
        <time>2018-07-28T17:53:10Z</time>
      </trkpt>
      <trkpt lat="42.28799" lon="-8.83893">
        <ele>15.53</ele>
        <time>2018-07-28T17:53:12Z</time>
      </trkpt>
      <trkpt lat="42.28803" lon="-8.83896">
        <ele>15.543</ele>
        <time>2018-07-28T17:53:14Z</time>
      </trkpt>
      <trkpt lat="42.28809" lon="-8.83901">
        <ele>15.615</ele>
        <time>2018-07-28T17:53:17Z</time>
      </trkpt>
      <trkpt lat="42.28813" lon="-8.83905">
        <ele>15.78</ele>
        <time>2018-07-28T17:53:19Z</time>
      </trkpt>
      <trkpt lat="42.28818" lon="-8.83913">
        <ele>15.915</ele>
        <time>2018-07-28T17:53:21Z</time>
      </trkpt>
      <trkpt lat="42.28822" lon="-8.83918">
        <ele>16.143</ele>
        <time>2018-07-28T17:53:22Z</time>
      </trkpt>
      <trkpt lat="42.28824" lon="-8.83922">
        <ele>16.339</ele>
        <time>2018-07-28T17:53:23Z</time>
      </trkpt>
      <trkpt lat="42.28828" lon="-8.83927">
        <ele>16.524</ele>
        <time>2018-07-28T17:53:24Z</time>
      </trkpt>
      <trkpt lat="42.28832" lon="-8.83932">
        <ele>16.704</ele>
        <time>2018-07-28T17:53:25Z</time>
      </trkpt>
      <trkpt lat="42.28835" lon="-8.83938">
        <ele>16.914</ele>
        <time>2018-07-28T17:53:26Z</time>
      </trkpt>
      <trkpt lat="42.28839" lon="-8.83944">
        <ele>17.108</ele>
        <time>2018-07-28T17:53:27Z</time>
      </trkpt>
      <trkpt lat="42.28842" lon="-8.8395">
        <ele>17.324</ele>
        <time>2018-07-28T17:53:28Z</time>
      </trkpt>
      <trkpt lat="42.28847" lon="-8.83955">
        <ele>17.569</ele>
        <time>2018-07-28T17:53:29Z</time>
      </trkpt>
      <trkpt lat="42.2885" lon="-8.83961">
        <ele>17.642</ele>
        <time>2018-07-28T17:53:30Z</time>
      </trkpt>
      <trkpt lat="42.28857" lon="-8.83967">
        <ele>17.784</ele>
        <time>2018-07-28T17:53:32Z</time>
      </trkpt>
      <trkpt lat="42.28865" lon="-8.83972">
        <ele>17.989</ele>
        <time>2018-07-28T17:53:34Z</time>
      </trkpt>
      <trkpt lat="42.28871" lon="-8.83973">
        <ele>18.174</ele>
        <time>2018-07-28T17:53:35Z</time>
      </trkpt>
      <trkpt lat="42.28877" lon="-8.83973">
        <ele>18.472</ele>
        <time>2018-07-28T17:53:36Z</time>
      </trkpt>
      <trkpt lat="42.28883" lon="-8.83973">
        <ele>18.748</ele>
        <time>2018-07-28T17:53:37Z</time>
      </trkpt>
      <trkpt lat="42.28888" lon="-8.83972">
        <ele>19.076</ele>
        <time>2018-07-28T17:53:38Z</time>
      </trkpt>
      <trkpt lat="42.28896" lon="-8.83973">
        <ele>19.49</ele>
        <time>2018-07-28T17:53:40Z</time>
      </trkpt>
      <trkpt lat="42.28905" lon="-8.83977">
        <ele>19.619</ele>
        <time>2018-07-28T17:53:42Z</time>
      </trkpt>
      <trkpt lat="42.28909" lon="-8.83979">
        <ele>19.808</ele>
        <time>2018-07-28T17:53:43Z</time>
      </trkpt>
      <trkpt lat="42.28913" lon="-8.83982">
        <ele>20.049</ele>
        <time>2018-07-28T17:53:44Z</time>
      </trkpt>
      <trkpt lat="42.28921" lon="-8.83986">
        <ele>20.544</ele>
        <time>2018-07-28T17:53:46Z</time>
      </trkpt>
      <trkpt lat="42.28926" lon="-8.83991">
        <ele>21.177</ele>
        <time>2018-07-28T17:53:48Z</time>
      </trkpt>
      <trkpt lat="42.2893" lon="-8.83996">
        <ele>21.279</ele>
        <time>2018-07-28T17:53:50Z</time>
      </trkpt>
      <trkpt lat="42.28932" lon="-8.84002">
        <ele>20.854</ele>
        <time>2018-07-28T17:53:54Z</time>
      </trkpt>
      <trkpt lat="42.28935" lon="-8.84008">
        <ele>20.459</ele>
        <time>2018-07-28T17:54:02Z</time>
      </trkpt>
      <trkpt lat="42.28938" lon="-8.84012">
        <ele>20.397</ele>
        <time>2018-07-28T17:54:17Z</time>
      </trkpt>
      <trkpt lat="42.28945" lon="-8.84019">
        <ele>20.183</ele>
        <time>2018-07-28T17:54:19Z</time>
      </trkpt>
      <trkpt lat="42.28951" lon="-8.84027">
        <ele>19.533</ele>
        <time>2018-07-28T17:54:21Z</time>
      </trkpt>
      <trkpt lat="42.28957" lon="-8.84033">
        <ele>18.923</ele>
        <time>2018-07-28T17:54:23Z</time>
      </trkpt>
      <trkpt lat="42.28964" lon="-8.84038">
        <ele>18.315</ele>
        <time>2018-07-28T17:54:25Z</time>
      </trkpt>
      <trkpt lat="42.28968" lon="-8.84042">
        <ele>18.008</ele>
        <time>2018-07-28T17:54:26Z</time>
      </trkpt>
      <trkpt lat="42.28973" lon="-8.84045">
        <ele>17.855</ele>
        <time>2018-07-28T17:54:27Z</time>
      </trkpt>
      <trkpt lat="42.28979" lon="-8.84047">
        <ele>17.62</ele>
        <time>2018-07-28T17:54:28Z</time>
      </trkpt>
      <trkpt lat="42.28986" lon="-8.8405">
        <ele>17.463</ele>
        <time>2018-07-28T17:54:29Z</time>
      </trkpt>
      <trkpt lat="42.28992" lon="-8.84052">
        <ele>17.245</ele>
        <time>2018-07-28T17:54:30Z</time>
      </trkpt>
      <trkpt lat="42.28998" lon="-8.84055">
        <ele>17.06</ele>
        <time>2018-07-28T17:54:31Z</time>
      </trkpt>
      <trkpt lat="42.29003" lon="-8.84057">
        <ele>16.895</ele>
        <time>2018-07-28T17:54:32Z</time>
      </trkpt>
      <trkpt lat="42.29011" lon="-8.84059">
        <ele>16.323</ele>
        <time>2018-07-28T17:54:34Z</time>
      </trkpt>
      <trkpt lat="42.29016" lon="-8.8406">
        <ele>15.529</ele>
        <time>2018-07-28T17:54:36Z</time>
      </trkpt>
      <trkpt lat="42.29018" lon="-8.84066">
        <ele>14.975</ele>
        <time>2018-07-28T17:54:57Z</time>
      </trkpt>
      <trkpt lat="42.29021" lon="-8.84073">
        <ele>14.928</ele>
        <time>2018-07-28T17:55:00Z</time>
      </trkpt>
      <trkpt lat="42.29022" lon="-8.84079">
        <ele>14.32</ele>
        <time>2018-07-28T17:55:09Z</time>
      </trkpt>
      <trkpt lat="42.29018" lon="-8.84075">
        <ele>14.408</ele>
        <time>2018-07-28T17:55:52Z</time>
      </trkpt>
      <trkpt lat="42.29016" lon="-8.84069">
        <ele>14.679</ele>
        <time>2018-07-28T17:55:55Z</time>
      </trkpt>
      <trkpt lat="42.29013" lon="-8.84064">
        <ele>14.644</ele>
        <time>2018-07-28T17:56:45Z</time>
      </trkpt>
      <trkpt lat="42.29009" lon="-8.84061">
        <ele>14.717</ele>
        <time>2018-07-28T17:57:14Z</time>
      </trkpt>
      <trkpt lat="42.29006" lon="-8.84054">
        <ele>15.179</ele>
        <time>2018-07-28T17:58:33Z</time>
      </trkpt>
      <trkpt lat="42.29002" lon="-8.84054">
        <ele>15.234</ele>
        <time>2018-07-28T17:58:34Z</time>
      </trkpt>
      <trkpt lat="42.28998" lon="-8.84052">
        <ele>15.449</ele>
        <time>2018-07-28T17:58:35Z</time>
      </trkpt>
      <trkpt lat="42.28989" lon="-8.84048">
        <ele>15.917</ele>
        <time>2018-07-28T17:58:37Z</time>
      </trkpt>
      <trkpt lat="42.28984" lon="-8.84046">
        <ele>16.293</ele>
        <time>2018-07-28T17:58:38Z</time>
      </trkpt>
      <trkpt lat="42.28979" lon="-8.84043">
        <ele>16.582</ele>
        <time>2018-07-28T17:58:39Z</time>
      </trkpt>
      <trkpt lat="42.28974" lon="-8.84041">
        <ele>16.743</ele>
        <time>2018-07-28T17:58:40Z</time>
      </trkpt>
      <trkpt lat="42.28966" lon="-8.84036">
        <ele>16.917</ele>
        <time>2018-07-28T17:58:42Z</time>
      </trkpt>
      <trkpt lat="42.28962" lon="-8.84033">
        <ele>17.108</ele>
        <time>2018-07-28T17:58:43Z</time>
      </trkpt>
      <trkpt lat="42.28957" lon="-8.8403">
        <ele>17.48</ele>
        <time>2018-07-28T17:58:44Z</time>
      </trkpt>
      <trkpt lat="42.28953" lon="-8.84025">
        <ele>17.745</ele>
        <time>2018-07-28T17:58:45Z</time>
      </trkpt>
      <trkpt lat="42.28949" lon="-8.84021">
        <ele>18.068</ele>
        <time>2018-07-28T17:58:46Z</time>
      </trkpt>
      <trkpt lat="42.28945" lon="-8.84015">
        <ele>18.78</ele>
        <time>2018-07-28T17:58:47Z</time>
      </trkpt>
      <trkpt lat="42.28941" lon="-8.84008">
        <ele>19.175</ele>
        <time>2018-07-28T17:58:49Z</time>
      </trkpt>
      <trkpt lat="42.28936" lon="-8.84009">
        <ele>20.01</ele>
        <time>2018-07-28T17:58:56Z</time>
      </trkpt>
      <trkpt lat="42.28929" lon="-8.84016">
        <ele>20.518</ele>
        <time>2018-07-28T17:58:58Z</time>
      </trkpt>
      <trkpt lat="42.28923" lon="-8.84023">
        <ele>20.914</ele>
        <time>2018-07-28T17:58:59Z</time>
      </trkpt>
      <trkpt lat="42.28916" lon="-8.84031">
        <ele>21.667</ele>
        <time>2018-07-28T17:59:00Z</time>
      </trkpt>
      <trkpt lat="42.2891" lon="-8.84038">
        <ele>21.981</ele>
        <time>2018-07-28T17:59:01Z</time>
      </trkpt>
      <trkpt lat="42.28904" lon="-8.84045">
        <ele>23.119</ele>
        <time>2018-07-28T17:59:02Z</time>
      </trkpt>
      <trkpt lat="42.28897" lon="-8.84052">
        <ele>24.008</ele>
        <time>2018-07-28T17:59:03Z</time>
      </trkpt>
      <trkpt lat="42.28888" lon="-8.8406">
        <ele>25.588</ele>
        <time>2018-07-28T17:59:04Z</time>
      </trkpt>
      <trkpt lat="42.2888" lon="-8.84071">
        <ele>26.513</ele>
        <time>2018-07-28T17:59:05Z</time>
      </trkpt>
      <trkpt lat="42.28872" lon="-8.84081">
        <ele>26.866</ele>
        <time>2018-07-28T17:59:06Z</time>
      </trkpt>
      <trkpt lat="42.28863" lon="-8.84092">
        <ele>27.468</ele>
        <time>2018-07-28T17:59:07Z</time>
      </trkpt>
      <trkpt lat="42.28856" lon="-8.84102">
        <ele>27.913</ele>
        <time>2018-07-28T17:59:08Z</time>
      </trkpt>
      <trkpt lat="42.28849" lon="-8.84111">
        <ele>28.548</ele>
        <time>2018-07-28T17:59:09Z</time>
      </trkpt>
      <trkpt lat="42.28844" lon="-8.8412">
        <ele>29.196</ele>
        <time>2018-07-28T17:59:10Z</time>
      </trkpt>
      <trkpt lat="42.28838" lon="-8.84128">
        <ele>29.872</ele>
        <time>2018-07-28T17:59:11Z</time>
      </trkpt>
      <trkpt lat="42.2883" lon="-8.84135">
        <ele>30.629</ele>
        <time>2018-07-28T17:59:12Z</time>
      </trkpt>
      <trkpt lat="42.28821" lon="-8.8414">
        <ele>31.8</ele>
        <time>2018-07-28T17:59:13Z</time>
      </trkpt>
      <trkpt lat="42.28812" lon="-8.84147">
        <ele>33.12</ele>
        <time>2018-07-28T17:59:14Z</time>
      </trkpt>
      <trkpt lat="42.28805" lon="-8.84153">
        <ele>34.308</ele>
        <time>2018-07-28T17:59:15Z</time>
      </trkpt>
      <trkpt lat="42.28797" lon="-8.84155">
        <ele>35.444</ele>
        <time>2018-07-28T17:59:16Z</time>
      </trkpt>
      <trkpt lat="42.28789" lon="-8.84154">
        <ele>36.459</ele>
        <time>2018-07-28T17:59:17Z</time>
      </trkpt>
      <trkpt lat="42.28783" lon="-8.8415">
        <ele>37.292</ele>
        <time>2018-07-28T17:59:18Z</time>
      </trkpt>
      <trkpt lat="42.28777" lon="-8.84145">
        <ele>37.914</ele>
        <time>2018-07-28T17:59:19Z</time>
      </trkpt>
      <trkpt lat="42.28772" lon="-8.8414">
        <ele>38.529</ele>
        <time>2018-07-28T17:59:20Z</time>
      </trkpt>
      <trkpt lat="42.28766" lon="-8.84136">
        <ele>39.264</ele>
        <time>2018-07-28T17:59:21Z</time>
      </trkpt>
      <trkpt lat="42.28759" lon="-8.84137">
        <ele>40.252</ele>
        <time>2018-07-28T17:59:22Z</time>
      </trkpt>
      <trkpt lat="42.28751" lon="-8.8414">
        <ele>40.898</ele>
        <time>2018-07-28T17:59:23Z</time>
      </trkpt>
      <trkpt lat="42.28742" lon="-8.8414">
        <ele>41.599</ele>
        <time>2018-07-28T17:59:24Z</time>
      </trkpt>
      <trkpt lat="42.28733" lon="-8.84138">
        <ele>42.407</ele>
        <time>2018-07-28T17:59:25Z</time>
      </trkpt>
      <trkpt lat="42.28722" lon="-8.84135">
        <ele>43.527</ele>
        <time>2018-07-28T17:59:26Z</time>
      </trkpt>
      <trkpt lat="42.28712" lon="-8.84133">
        <ele>44.908</ele>
        <time>2018-07-28T17:59:27Z</time>
      </trkpt>
      <trkpt lat="42.28704" lon="-8.84128">
        <ele>46.651</ele>
        <time>2018-07-28T17:59:28Z</time>
      </trkpt>
      <trkpt lat="42.28696" lon="-8.84125">
        <ele>48.316</ele>
        <time>2018-07-28T17:59:29Z</time>
      </trkpt>
      <trkpt lat="42.28689" lon="-8.84122">
        <ele>49.819</ele>
        <time>2018-07-28T17:59:30Z</time>
      </trkpt>
      <trkpt lat="42.28683" lon="-8.84122">
        <ele>51.231</ele>
        <time>2018-07-28T17:59:31Z</time>
      </trkpt>
      <trkpt lat="42.28677" lon="-8.84123">
        <ele>52.386</ele>
        <time>2018-07-28T17:59:32Z</time>
      </trkpt>
      <trkpt lat="42.2867" lon="-8.84123">
        <ele>53.061</ele>
        <time>2018-07-28T17:59:33Z</time>
      </trkpt>
      <trkpt lat="42.28663" lon="-8.84123">
        <ele>53.629</ele>
        <time>2018-07-28T17:59:34Z</time>
      </trkpt>
      <trkpt lat="42.28656" lon="-8.84121">
        <ele>54.395</ele>
        <time>2018-07-28T17:59:35Z</time>
      </trkpt>
      <trkpt lat="42.28648" lon="-8.84119">
        <ele>55.044</ele>
        <time>2018-07-28T17:59:36Z</time>
      </trkpt>
      <trkpt lat="42.2864" lon="-8.84116">
        <ele>55.705</ele>
        <time>2018-07-28T17:59:37Z</time>
      </trkpt>
      <trkpt lat="42.28632" lon="-8.84113">
        <ele>56.515</ele>
        <time>2018-07-28T17:59:38Z</time>
      </trkpt>
      <trkpt lat="42.28624" lon="-8.84111">
        <ele>57.908</ele>
        <time>2018-07-28T17:59:39Z</time>
      </trkpt>
      <trkpt lat="42.28616" lon="-8.84109">
        <ele>58.436</ele>
        <time>2018-07-28T17:59:40Z</time>
      </trkpt>
      <trkpt lat="42.28608" lon="-8.84106">
        <ele>58.761</ele>
        <time>2018-07-28T17:59:41Z</time>
      </trkpt>
      <trkpt lat="42.28599" lon="-8.84105">
        <ele>59.144</ele>
        <time>2018-07-28T17:59:42Z</time>
      </trkpt>
      <trkpt lat="42.2859" lon="-8.84103">
        <ele>59.376</ele>
        <time>2018-07-28T17:59:43Z</time>
      </trkpt>
      <trkpt lat="42.28581" lon="-8.84103">
        <ele>59.511</ele>
        <time>2018-07-28T17:59:44Z</time>
      </trkpt>
      <trkpt lat="42.28572" lon="-8.84104">
        <ele>59.896</ele>
        <time>2018-07-28T17:59:45Z</time>
      </trkpt>
      <trkpt lat="42.28563" lon="-8.84105">
        <ele>60.084</ele>
        <time>2018-07-28T17:59:46Z</time>
      </trkpt>
      <trkpt lat="42.28554" lon="-8.84106">
        <ele>60.16</ele>
        <time>2018-07-28T17:59:47Z</time>
      </trkpt>
      <trkpt lat="42.28546" lon="-8.84107">
        <ele>60.251</ele>
        <time>2018-07-28T17:59:48Z</time>
      </trkpt>
      <trkpt lat="42.2854" lon="-8.84109">
        <ele>60.201</ele>
        <time>2018-07-28T17:59:49Z</time>
      </trkpt>
      <trkpt lat="42.28533" lon="-8.84111">
        <ele>60.011</ele>
        <time>2018-07-28T17:59:51Z</time>
      </trkpt>
      <trkpt lat="42.28528" lon="-8.84112">
        <ele>59.408</ele>
        <time>2018-07-28T17:59:53Z</time>
      </trkpt>
      <trkpt lat="42.28524" lon="-8.84116">
        <ele>58.857</ele>
        <time>2018-07-28T18:00:41Z</time>
      </trkpt>
      <trkpt lat="42.28519" lon="-8.84113">
        <ele>58.892</ele>
        <time>2018-07-28T18:00:43Z</time>
      </trkpt>
      <trkpt lat="42.28516" lon="-8.84103">
        <ele>58.665</ele>
        <time>2018-07-28T18:00:45Z</time>
      </trkpt>
      <trkpt lat="42.28513" lon="-8.84095">
        <ele>58.537</ele>
        <time>2018-07-28T18:00:46Z</time>
      </trkpt>
      <trkpt lat="42.2851" lon="-8.84087">
        <ele>58.342</ele>
        <time>2018-07-28T18:00:47Z</time>
      </trkpt>
      <trkpt lat="42.2851" lon="-8.84078">
        <ele>58.367</ele>
        <time>2018-07-28T18:00:48Z</time>
      </trkpt>
      <trkpt lat="42.2851" lon="-8.84071">
        <ele>58.285</ele>
        <time>2018-07-28T18:00:49Z</time>
      </trkpt>
      <trkpt lat="42.2851" lon="-8.84064">
        <ele>58.131</ele>
        <time>2018-07-28T18:00:50Z</time>
      </trkpt>
      <trkpt lat="42.2851" lon="-8.84056">
        <ele>58.096</ele>
        <time>2018-07-28T18:00:51Z</time>
      </trkpt>
      <trkpt lat="42.28511" lon="-8.84049">
        <ele>57.831</ele>
        <time>2018-07-28T18:00:52Z</time>
      </trkpt>
      <trkpt lat="42.28512" lon="-8.84041">
        <ele>57.724</ele>
        <time>2018-07-28T18:00:53Z</time>
      </trkpt>
      <trkpt lat="42.28513" lon="-8.84032">
        <ele>57.708</ele>
        <time>2018-07-28T18:00:54Z</time>
      </trkpt>
      <trkpt lat="42.28512" lon="-8.84023">
        <ele>57.941</ele>
        <time>2018-07-28T18:00:55Z</time>
      </trkpt>
      <trkpt lat="42.28511" lon="-8.84014">
        <ele>58.256</ele>
        <time>2018-07-28T18:00:56Z</time>
      </trkpt>
      <trkpt lat="42.2851" lon="-8.84004">
        <ele>58.539</ele>
        <time>2018-07-28T18:00:57Z</time>
      </trkpt>
      <trkpt lat="42.2851" lon="-8.83994">
        <ele>58.861</ele>
        <time>2018-07-28T18:00:58Z</time>
      </trkpt>
      <trkpt lat="42.2851" lon="-8.83982">
        <ele>58.836</ele>
        <time>2018-07-28T18:00:59Z</time>
      </trkpt>
      <trkpt lat="42.28514" lon="-8.83971">
        <ele>58.811</ele>
        <time>2018-07-28T18:01:00Z</time>
      </trkpt>
      <trkpt lat="42.28518" lon="-8.83959">
        <ele>58.439</ele>
        <time>2018-07-28T18:01:01Z</time>
      </trkpt>
      <trkpt lat="42.28522" lon="-8.83947">
        <ele>57.965</ele>
        <time>2018-07-28T18:01:02Z</time>
      </trkpt>
      <trkpt lat="42.28527" lon="-8.83936">
        <ele>57.462</ele>
        <time>2018-07-28T18:01:03Z</time>
      </trkpt>
      <trkpt lat="42.2853" lon="-8.83926">
        <ele>56.983</ele>
        <time>2018-07-28T18:01:04Z</time>
      </trkpt>
      <trkpt lat="42.28533" lon="-8.83915">
        <ele>55.511</ele>
        <time>2018-07-28T18:01:05Z</time>
      </trkpt>
      <trkpt lat="42.28534" lon="-8.83903">
        <ele>54.808</ele>
        <time>2018-07-28T18:01:06Z</time>
      </trkpt>
      <trkpt lat="42.28532" lon="-8.83891">
        <ele>54.198</ele>
        <time>2018-07-28T18:01:07Z</time>
      </trkpt>
      <trkpt lat="42.28528" lon="-8.83879">
        <ele>53.563</ele>
        <time>2018-07-28T18:01:08Z</time>
      </trkpt>
      <trkpt lat="42.28522" lon="-8.83868">
        <ele>53.056</ele>
        <time>2018-07-28T18:01:09Z</time>
      </trkpt>
      <trkpt lat="42.28517" lon="-8.83857">
        <ele>52.668</ele>
        <time>2018-07-28T18:01:10Z</time>
      </trkpt>
      <trkpt lat="42.28512" lon="-8.83847">
        <ele>52.223</ele>
        <time>2018-07-28T18:01:11Z</time>
      </trkpt>
      <trkpt lat="42.28507" lon="-8.83837">
        <ele>51.728</ele>
        <time>2018-07-28T18:01:12Z</time>
      </trkpt>
      <trkpt lat="42.28502" lon="-8.83829">
        <ele>51.146</ele>
        <time>2018-07-28T18:01:13Z</time>
      </trkpt>
      <trkpt lat="42.28495" lon="-8.83824">
        <ele>50.452</ele>
        <time>2018-07-28T18:01:14Z</time>
      </trkpt>
      <trkpt lat="42.28486" lon="-8.83824">
        <ele>49.719</ele>
        <time>2018-07-28T18:01:15Z</time>
      </trkpt>
      <trkpt lat="42.28477" lon="-8.83827">
        <ele>49.109</ele>
        <time>2018-07-28T18:01:16Z</time>
      </trkpt>
      <trkpt lat="42.2847" lon="-8.83832">
        <ele>48.619</ele>
        <time>2018-07-28T18:01:17Z</time>
      </trkpt>
      <trkpt lat="42.28461" lon="-8.83835">
        <ele>48.208</ele>
        <time>2018-07-28T18:01:18Z</time>
      </trkpt>
      <trkpt lat="42.28452" lon="-8.83833">
        <ele>47.883</ele>
        <time>2018-07-28T18:01:19Z</time>
      </trkpt>
      <trkpt lat="42.28443" lon="-8.83828">
        <ele>47.368</ele>
        <time>2018-07-28T18:01:20Z</time>
      </trkpt>
      <trkpt lat="42.28434" lon="-8.8382">
        <ele>46.811</ele>
        <time>2018-07-28T18:01:21Z</time>
      </trkpt>
      <trkpt lat="42.28425" lon="-8.83811">
        <ele>45.643</ele>
        <time>2018-07-28T18:01:22Z</time>
      </trkpt>
      <trkpt lat="42.28416" lon="-8.83802">
        <ele>45.088</ele>
        <time>2018-07-28T18:01:23Z</time>
      </trkpt>
      <trkpt lat="42.28409" lon="-8.83794">
        <ele>44.433</ele>
        <time>2018-07-28T18:01:24Z</time>
      </trkpt>
      <trkpt lat="42.28401" lon="-8.83784">
        <ele>43.821</ele>
        <time>2018-07-28T18:01:25Z</time>
      </trkpt>
      <trkpt lat="42.28392" lon="-8.83777">
        <ele>43.347</ele>
        <time>2018-07-28T18:01:26Z</time>
      </trkpt>
      <trkpt lat="42.28381" lon="-8.83774">
        <ele>42.856</ele>
        <time>2018-07-28T18:01:27Z</time>
      </trkpt>
      <trkpt lat="42.28371" lon="-8.83772">
        <ele>42.559</ele>
        <time>2018-07-28T18:01:28Z</time>
      </trkpt>
      <trkpt lat="42.28361" lon="-8.83774">
        <ele>42.314</ele>
        <time>2018-07-28T18:01:29Z</time>
      </trkpt>
      <trkpt lat="42.28352" lon="-8.83773">
        <ele>42.308</ele>
        <time>2018-07-28T18:01:30Z</time>
      </trkpt>
      <trkpt lat="42.28343" lon="-8.83771">
        <ele>42.437</ele>
        <time>2018-07-28T18:01:31Z</time>
      </trkpt>
      <trkpt lat="42.28334" lon="-8.83765">
        <ele>42.772</ele>
        <time>2018-07-28T18:01:32Z</time>
      </trkpt>
      <trkpt lat="42.28326" lon="-8.8376">
        <ele>42.995</ele>
        <time>2018-07-28T18:01:33Z</time>
      </trkpt>
      <trkpt lat="42.28317" lon="-8.83753">
        <ele>43.287</ele>
        <time>2018-07-28T18:01:34Z</time>
      </trkpt>
      <trkpt lat="42.28309" lon="-8.83746">
        <ele>43.682</ele>
        <time>2018-07-28T18:01:35Z</time>
      </trkpt>
      <trkpt lat="42.28301" lon="-8.83739">
        <ele>43.967</ele>
        <time>2018-07-28T18:01:36Z</time>
      </trkpt>
      <trkpt lat="42.28293" lon="-8.83732">
        <ele>43.975</ele>
        <time>2018-07-28T18:01:37Z</time>
      </trkpt>
      <trkpt lat="42.28285" lon="-8.83725">
        <ele>43.941</ele>
        <time>2018-07-28T18:01:38Z</time>
      </trkpt>
      <trkpt lat="42.28276" lon="-8.83721">
        <ele>43.615</ele>
        <time>2018-07-28T18:01:39Z</time>
      </trkpt>
      <trkpt lat="42.28268" lon="-8.83716">
        <ele>43.665</ele>
        <time>2018-07-28T18:01:40Z</time>
      </trkpt>
      <trkpt lat="42.28259" lon="-8.8371">
        <ele>43.611</ele>
        <time>2018-07-28T18:01:41Z</time>
      </trkpt>
      <trkpt lat="42.28252" lon="-8.83705">
        <ele>43.708</ele>
        <time>2018-07-28T18:01:42Z</time>
      </trkpt>
      <trkpt lat="42.28244" lon="-8.83698">
        <ele>43.953</ele>
        <time>2018-07-28T18:01:43Z</time>
      </trkpt>
      <trkpt lat="42.28237" lon="-8.83692">
        <ele>44.178</ele>
        <time>2018-07-28T18:01:44Z</time>
      </trkpt>
      <trkpt lat="42.2823" lon="-8.83684">
        <ele>44.291</ele>
        <time>2018-07-28T18:01:45Z</time>
      </trkpt>
      <trkpt lat="42.28225" lon="-8.83673">
        <ele>44.213</ele>
        <time>2018-07-28T18:01:46Z</time>
      </trkpt>
      <trkpt lat="42.28221" lon="-8.8366">
        <ele>44.218</ele>
        <time>2018-07-28T18:01:47Z</time>
      </trkpt>
      <trkpt lat="42.2822" lon="-8.83645">
        <ele>44.393</ele>
        <time>2018-07-28T18:01:48Z</time>
      </trkpt>
      <trkpt lat="42.2822" lon="-8.8363">
        <ele>44.321</ele>
        <time>2018-07-28T18:01:49Z</time>
      </trkpt>
      <trkpt lat="42.28221" lon="-8.83617">
        <ele>44.147</ele>
        <time>2018-07-28T18:01:50Z</time>
      </trkpt>
      <trkpt lat="42.28223" lon="-8.83605">
        <ele>43.521</ele>
        <time>2018-07-28T18:01:51Z</time>
      </trkpt>
      <trkpt lat="42.28225" lon="-8.83594">
        <ele>42.841</ele>
        <time>2018-07-28T18:01:52Z</time>
      </trkpt>
      <trkpt lat="42.28225" lon="-8.83582">
        <ele>41.805</ele>
        <time>2018-07-28T18:01:53Z</time>
      </trkpt>
      <trkpt lat="42.28223" lon="-8.83571">
        <ele>40.808</ele>
        <time>2018-07-28T18:01:54Z</time>
      </trkpt>
      <trkpt lat="42.28219" lon="-8.8356">
        <ele>40.134</ele>
        <time>2018-07-28T18:01:55Z</time>
      </trkpt>
      <trkpt lat="42.28214" lon="-8.83548">
        <ele>39.659</ele>
        <time>2018-07-28T18:01:56Z</time>
      </trkpt>
      <trkpt lat="42.2821" lon="-8.83535">
        <ele>38.932</ele>
        <time>2018-07-28T18:01:57Z</time>
      </trkpt>
      <trkpt lat="42.28207" lon="-8.83522">
        <ele>38.744</ele>
        <time>2018-07-28T18:01:58Z</time>
      </trkpt>
      <trkpt lat="42.28204" lon="-8.8351">
        <ele>38.399</ele>
        <time>2018-07-28T18:01:59Z</time>
      </trkpt>
      <trkpt lat="42.28201" lon="-8.835">
        <ele>37.714</ele>
        <time>2018-07-28T18:02:00Z</time>
      </trkpt>
      <trkpt lat="42.28195" lon="-8.83493">
        <ele>37.012</ele>
        <time>2018-07-28T18:02:01Z</time>
      </trkpt>
      <trkpt lat="42.28187" lon="-8.83487">
        <ele>36.478</ele>
        <time>2018-07-28T18:02:02Z</time>
      </trkpt>
      <trkpt lat="42.28177" lon="-8.83483">
        <ele>35.956</ele>
        <time>2018-07-28T18:02:03Z</time>
      </trkpt>
      <trkpt lat="42.28167" lon="-8.83479">
        <ele>35.659</ele>
        <time>2018-07-28T18:02:04Z</time>
      </trkpt>
      <trkpt lat="42.28158" lon="-8.83472">
        <ele>35.614</ele>
        <time>2018-07-28T18:02:05Z</time>
      </trkpt>
      <trkpt lat="42.28149" lon="-8.83464">
        <ele>35.608</ele>
        <time>2018-07-28T18:02:06Z</time>
      </trkpt>
      <trkpt lat="42.28141" lon="-8.83454">
        <ele>35.677</ele>
        <time>2018-07-28T18:02:07Z</time>
      </trkpt>
      <trkpt lat="42.28132" lon="-8.83445">
        <ele>35.422</ele>
        <time>2018-07-28T18:02:08Z</time>
      </trkpt>
      <trkpt lat="42.28124" lon="-8.83436">
        <ele>35.085</ele>
        <time>2018-07-28T18:02:09Z</time>
      </trkpt>
      <trkpt lat="42.28116" lon="-8.83426">
        <ele>34.627</ele>
        <time>2018-07-28T18:02:10Z</time>
      </trkpt>
      <trkpt lat="42.28108" lon="-8.83418">
        <ele>34.252</ele>
        <time>2018-07-28T18:02:11Z</time>
      </trkpt>
      <trkpt lat="42.28101" lon="-8.83408">
        <ele>33.927</ele>
        <time>2018-07-28T18:02:12Z</time>
      </trkpt>
      <trkpt lat="42.28091" lon="-8.83402">
        <ele>33.755</ele>
        <time>2018-07-28T18:02:13Z</time>
      </trkpt>
      <trkpt lat="42.2808" lon="-8.83396">
        <ele>33.681</ele>
        <time>2018-07-28T18:02:14Z</time>
      </trkpt>
      <trkpt lat="42.28068" lon="-8.83394">
        <ele>33.866</ele>
        <time>2018-07-28T18:02:15Z</time>
      </trkpt>
      <trkpt lat="42.28057" lon="-8.83392">
        <ele>33.829</ele>
        <time>2018-07-28T18:02:16Z</time>
      </trkpt>
      <trkpt lat="42.28047" lon="-8.8339">
        <ele>33.821</ele>
        <time>2018-07-28T18:02:17Z</time>
      </trkpt>
      <trkpt lat="42.28038" lon="-8.83388">
        <ele>33.808</ele>
        <time>2018-07-28T18:02:18Z</time>
      </trkpt>
      <trkpt lat="42.28028" lon="-8.83387">
        <ele>33.658</ele>
        <time>2018-07-28T18:02:19Z</time>
      </trkpt>
      <trkpt lat="42.28019" lon="-8.83385">
        <ele>33.273</ele>
        <time>2018-07-28T18:02:20Z</time>
      </trkpt>
      <trkpt lat="42.28011" lon="-8.83386">
        <ele>32.926</ele>
        <time>2018-07-28T18:02:21Z</time>
      </trkpt>
      <trkpt lat="42.28002" lon="-8.8339">
        <ele>32.968</ele>
        <time>2018-07-28T18:02:22Z</time>
      </trkpt>
      <trkpt lat="42.27993" lon="-8.83397">
        <ele>33.083</ele>
        <time>2018-07-28T18:02:23Z</time>
      </trkpt>
      <trkpt lat="42.27983" lon="-8.83404">
        <ele>33.398</ele>
        <time>2018-07-28T18:02:24Z</time>
      </trkpt>
      <trkpt lat="42.27974" lon="-8.83412">
        <ele>33.886</ele>
        <time>2018-07-28T18:02:25Z</time>
      </trkpt>
      <trkpt lat="42.27964" lon="-8.83419">
        <ele>34.592</ele>
        <time>2018-07-28T18:02:26Z</time>
      </trkpt>
      <trkpt lat="42.27956" lon="-8.83424">
        <ele>35.111</ele>
        <time>2018-07-28T18:02:27Z</time>
      </trkpt>
      <trkpt lat="42.27947" lon="-8.83428">
        <ele>35.721</ele>
        <time>2018-07-28T18:02:28Z</time>
      </trkpt>
      <trkpt lat="42.27938" lon="-8.83427">
        <ele>36.203</ele>
        <time>2018-07-28T18:02:29Z</time>
      </trkpt>
      <trkpt lat="42.27928" lon="-8.83425">
        <ele>36.708</ele>
        <time>2018-07-28T18:02:30Z</time>
      </trkpt>
      <trkpt lat="42.27917" lon="-8.83421">
        <ele>37.563</ele>
        <time>2018-07-28T18:02:31Z</time>
      </trkpt>
      <trkpt lat="42.27908" lon="-8.83417">
        <ele>38.078</ele>
        <time>2018-07-28T18:02:32Z</time>
      </trkpt>
      <trkpt lat="42.27898" lon="-8.83413">
        <ele>38.491</ele>
        <time>2018-07-28T18:02:33Z</time>
      </trkpt>
      <trkpt lat="42.2789" lon="-8.83409">
        <ele>38.743</ele>
        <time>2018-07-28T18:02:34Z</time>
      </trkpt>
      <trkpt lat="42.27882" lon="-8.83406">
        <ele>39.058</ele>
        <time>2018-07-28T18:02:35Z</time>
      </trkpt>
      <trkpt lat="42.27873" lon="-8.83403">
        <ele>39.213</ele>
        <time>2018-07-28T18:02:36Z</time>
      </trkpt>
      <trkpt lat="42.27863" lon="-8.83405">
        <ele>39.571</ele>
        <time>2018-07-28T18:02:37Z</time>
      </trkpt>
      <trkpt lat="42.27854" lon="-8.83406">
        <ele>40.197</ele>
        <time>2018-07-28T18:02:38Z</time>
      </trkpt>
      <trkpt lat="42.27845" lon="-8.83409">
        <ele>40.783</ele>
        <time>2018-07-28T18:02:39Z</time>
      </trkpt>
      <trkpt lat="42.27837" lon="-8.83415">
        <ele>41.525</ele>
        <time>2018-07-28T18:02:40Z</time>
      </trkpt>
      <trkpt lat="42.27829" lon="-8.83422">
        <ele>42.317</ele>
        <time>2018-07-28T18:02:41Z</time>
      </trkpt>
      <trkpt lat="42.27822" lon="-8.8343">
        <ele>43.108</ele>
        <time>2018-07-28T18:02:42Z</time>
      </trkpt>
      <trkpt lat="42.27814" lon="-8.83437">
        <ele>43.81</ele>
        <time>2018-07-28T18:02:43Z</time>
      </trkpt>
      <trkpt lat="42.27805" lon="-8.83442">
        <ele>44.455</ele>
        <time>2018-07-28T18:02:44Z</time>
      </trkpt>
      <trkpt lat="42.27796" lon="-8.83445">
        <ele>44.938</ele>
        <time>2018-07-28T18:02:45Z</time>
      </trkpt>
      <trkpt lat="42.27785" lon="-8.83445">
        <ele>45.36</ele>
        <time>2018-07-28T18:02:46Z</time>
      </trkpt>
      <trkpt lat="42.27775" lon="-8.83442">
        <ele>45.755</ele>
        <time>2018-07-28T18:02:47Z</time>
      </trkpt>
      <trkpt lat="42.27765" lon="-8.83439">
        <ele>46.71</ele>
        <time>2018-07-28T18:02:48Z</time>
      </trkpt>
      <trkpt lat="42.27756" lon="-8.83437">
        <ele>47.168</ele>
        <time>2018-07-28T18:02:49Z</time>
      </trkpt>
      <trkpt lat="42.27748" lon="-8.83435">
        <ele>47.634</ele>
        <time>2018-07-28T18:02:50Z</time>
      </trkpt>
      <trkpt lat="42.27741" lon="-8.83434">
        <ele>48.113</ele>
        <time>2018-07-28T18:02:51Z</time>
      </trkpt>
      <trkpt lat="42.27733" lon="-8.83436">
        <ele>48.543</ele>
        <time>2018-07-28T18:02:52Z</time>
      </trkpt>
      <trkpt lat="42.27727" lon="-8.83439">
        <ele>48.807</ele>
        <time>2018-07-28T18:02:53Z</time>
      </trkpt>
      <trkpt lat="42.2772" lon="-8.83442">
        <ele>49.308</ele>
        <time>2018-07-28T18:02:54Z</time>
      </trkpt>
      <trkpt lat="42.27714" lon="-8.83445">
        <ele>49.733</ele>
        <time>2018-07-28T18:02:55Z</time>
      </trkpt>
      <trkpt lat="42.27708" lon="-8.83449">
        <ele>50.138</ele>
        <time>2018-07-28T18:02:56Z</time>
      </trkpt>
      <trkpt lat="42.27701" lon="-8.83451">
        <ele>50.641</ele>
        <time>2018-07-28T18:02:57Z</time>
      </trkpt>
      <trkpt lat="42.27693" lon="-8.8345">
        <ele>51.243</ele>
        <time>2018-07-28T18:02:58Z</time>
      </trkpt>
      <trkpt lat="42.27685" lon="-8.83448">
        <ele>51.758</ele>
        <time>2018-07-28T18:02:59Z</time>
      </trkpt>
      <trkpt lat="42.27677" lon="-8.83441">
        <ele>52.343</ele>
        <time>2018-07-28T18:03:00Z</time>
      </trkpt>
      <trkpt lat="42.2767" lon="-8.83433">
        <ele>52.741</ele>
        <time>2018-07-28T18:03:01Z</time>
      </trkpt>
      <trkpt lat="42.27663" lon="-8.83425">
        <ele>52.877</ele>
        <time>2018-07-28T18:03:02Z</time>
      </trkpt>
      <trkpt lat="42.27655" lon="-8.83418">
        <ele>52.879</ele>
        <time>2018-07-28T18:03:03Z</time>
      </trkpt>
      <trkpt lat="42.27647" lon="-8.83412">
        <ele>51.805</ele>
        <time>2018-07-28T18:03:04Z</time>
      </trkpt>
      <trkpt lat="42.27639" lon="-8.83408">
        <ele>51.125</ele>
        <time>2018-07-28T18:03:05Z</time>
      </trkpt>
      <trkpt lat="42.2763" lon="-8.83404">
        <ele>50.508</ele>
        <time>2018-07-28T18:03:06Z</time>
      </trkpt>
      <trkpt lat="42.27621" lon="-8.83401">
        <ele>49.989</ele>
        <time>2018-07-28T18:03:07Z</time>
      </trkpt>
      <trkpt lat="42.27613" lon="-8.83397">
        <ele>49.484</ele>
        <time>2018-07-28T18:03:08Z</time>
      </trkpt>
      <trkpt lat="42.27605" lon="-8.83393">
        <ele>48.977</ele>
        <time>2018-07-28T18:03:09Z</time>
      </trkpt>
      <trkpt lat="42.27596" lon="-8.83389">
        <ele>48.559</ele>
        <time>2018-07-28T18:03:10Z</time>
      </trkpt>
      <trkpt lat="42.27588" lon="-8.83386">
        <ele>48.094</ele>
        <time>2018-07-28T18:03:11Z</time>
      </trkpt>
      <trkpt lat="42.2758" lon="-8.83382">
        <ele>47.519</ele>
        <time>2018-07-28T18:03:12Z</time>
      </trkpt>
      <trkpt lat="42.27573" lon="-8.83378">
        <ele>47.137</ele>
        <time>2018-07-28T18:03:13Z</time>
      </trkpt>
      <trkpt lat="42.27564" lon="-8.83374">
        <ele>46.823</ele>
        <time>2018-07-28T18:03:14Z</time>
      </trkpt>
      <trkpt lat="42.27556" lon="-8.83371">
        <ele>46.546</ele>
        <time>2018-07-28T18:03:15Z</time>
      </trkpt>
      <trkpt lat="42.27547" lon="-8.83369">
        <ele>46.288</ele>
        <time>2018-07-28T18:03:16Z</time>
      </trkpt>
      <trkpt lat="42.27537" lon="-8.8337">
        <ele>46.116</ele>
        <time>2018-07-28T18:03:17Z</time>
      </trkpt>
      <trkpt lat="42.27527" lon="-8.83371">
        <ele>46.008</ele>
        <time>2018-07-28T18:03:18Z</time>
      </trkpt>
      <trkpt lat="42.27516" lon="-8.83374">
        <ele>46.036</ele>
        <time>2018-07-28T18:03:19Z</time>
      </trkpt>
      <trkpt lat="42.27505" lon="-8.83376">
        <ele>45.971</ele>
        <time>2018-07-28T18:03:20Z</time>
      </trkpt>
      <trkpt lat="42.27495" lon="-8.83378">
        <ele>45.684</ele>
        <time>2018-07-28T18:03:21Z</time>
      </trkpt>
      <trkpt lat="42.27485" lon="-8.83379">
        <ele>45.396</ele>
        <time>2018-07-28T18:03:22Z</time>
      </trkpt>
      <trkpt lat="42.27476" lon="-8.83374">
        <ele>44.991</ele>
        <time>2018-07-28T18:03:23Z</time>
      </trkpt>
      <trkpt lat="42.27467" lon="-8.83369">
        <ele>44.676</ele>
        <time>2018-07-28T18:03:24Z</time>
      </trkpt>
      <trkpt lat="42.27459" lon="-8.83363">
        <ele>44.314</ele>
        <time>2018-07-28T18:03:25Z</time>
      </trkpt>
      <trkpt lat="42.27452" lon="-8.83357">
        <ele>43.96</ele>
        <time>2018-07-28T18:03:26Z</time>
      </trkpt>
      <trkpt lat="42.27445" lon="-8.83353">
        <ele>43.687</ele>
        <time>2018-07-28T18:03:27Z</time>
      </trkpt>
      <trkpt lat="42.27438" lon="-8.83347">
        <ele>43.442</ele>
        <time>2018-07-28T18:03:28Z</time>
      </trkpt>
      <trkpt lat="42.2743" lon="-8.83342">
        <ele>43.226</ele>
        <time>2018-07-28T18:03:29Z</time>
      </trkpt>
      <trkpt lat="42.27423" lon="-8.83337">
        <ele>43.008</ele>
        <time>2018-07-28T18:03:30Z</time>
      </trkpt>
      <trkpt lat="42.27416" lon="-8.83331">
        <ele>42.94</ele>
        <time>2018-07-28T18:03:31Z</time>
      </trkpt>
      <trkpt lat="42.27409" lon="-8.83325">
        <ele>42.815</ele>
        <time>2018-07-28T18:03:32Z</time>
      </trkpt>
      <trkpt lat="42.27401" lon="-8.8332">
        <ele>42.868</ele>
        <time>2018-07-28T18:03:33Z</time>
      </trkpt>
      <trkpt lat="42.27394" lon="-8.83311">
        <ele>42.87</ele>
        <time>2018-07-28T18:03:34Z</time>
      </trkpt>
      <trkpt lat="42.27388" lon="-8.833">
        <ele>42.855</ele>
        <time>2018-07-28T18:03:35Z</time>
      </trkpt>
      <trkpt lat="42.27384" lon="-8.83286">
        <ele>43.05</ele>
        <time>2018-07-28T18:03:36Z</time>
      </trkpt>
      <trkpt lat="42.2738" lon="-8.83273">
        <ele>43.488</ele>
        <time>2018-07-28T18:03:37Z</time>
      </trkpt>
      <trkpt lat="42.27376" lon="-8.83261">
        <ele>44.364</ele>
        <time>2018-07-28T18:03:38Z</time>
      </trkpt>
      <trkpt lat="42.27372" lon="-8.8325">
        <ele>44.756</ele>
        <time>2018-07-28T18:03:39Z</time>
      </trkpt>
      <trkpt lat="42.27367" lon="-8.8324">
        <ele>45.059</ele>
        <time>2018-07-28T18:03:40Z</time>
      </trkpt>
      <trkpt lat="42.27363" lon="-8.8323">
        <ele>45.214</ele>
        <time>2018-07-28T18:03:41Z</time>
      </trkpt>
      <trkpt lat="42.27357" lon="-8.83221">
        <ele>45.408</ele>
        <time>2018-07-28T18:03:42Z</time>
      </trkpt>
      <trkpt lat="42.27351" lon="-8.83212">
        <ele>45.747</ele>
        <time>2018-07-28T18:03:43Z</time>
      </trkpt>
      <trkpt lat="42.27344" lon="-8.83204">
        <ele>46.142</ele>
        <time>2018-07-28T18:03:44Z</time>
      </trkpt>
      <trkpt lat="42.27336" lon="-8.83195">
        <ele>46.545</ele>
        <time>2018-07-28T18:03:45Z</time>
      </trkpt>
      <trkpt lat="42.27327" lon="-8.83187">
        <ele>47.067</ele>
        <time>2018-07-28T18:03:46Z</time>
      </trkpt>
      <trkpt lat="42.27319" lon="-8.83179">
        <ele>47.612</ele>
        <time>2018-07-28T18:03:47Z</time>
      </trkpt>
      <trkpt lat="42.2731" lon="-8.83172">
        <ele>48.137</ele>
        <time>2018-07-28T18:03:48Z</time>
      </trkpt>
      <trkpt lat="42.27304" lon="-8.83166">
        <ele>48.645</ele>
        <time>2018-07-28T18:03:49Z</time>
      </trkpt>
      <trkpt lat="42.273" lon="-8.83163">
        <ele>48.991</ele>
        <time>2018-07-28T18:03:50Z</time>
      </trkpt>
      <trkpt lat="42.27293" lon="-8.83157">
        <ele>48.957</ele>
        <time>2018-07-28T18:03:52Z</time>
      </trkpt>
      <trkpt lat="42.27294" lon="-8.83149">
        <ele>48.5</ele>
        <time>2018-07-28T18:03:56Z</time>
      </trkpt>
      <trkpt lat="42.27301" lon="-8.83145">
        <ele>48.32</ele>
        <time>2018-07-28T18:03:58Z</time>
      </trkpt>
      <trkpt lat="42.27304" lon="-8.8314">
        <ele>48.008</ele>
        <time>2018-07-28T18:03:59Z</time>
      </trkpt>
      <trkpt lat="42.27305" lon="-8.83133">
        <ele>47.697</ele>
        <time>2018-07-28T18:04:00Z</time>
      </trkpt>
      <trkpt lat="42.27306" lon="-8.83127">
        <ele>47.252</ele>
        <time>2018-07-28T18:04:01Z</time>
      </trkpt>
      <trkpt lat="42.27307" lon="-8.83121">
        <ele>46.865</ele>
        <time>2018-07-28T18:04:02Z</time>
      </trkpt>
      <trkpt lat="42.27308" lon="-8.83115">
        <ele>46.467</ele>
        <time>2018-07-28T18:04:03Z</time>
      </trkpt>
      <trkpt lat="42.2731" lon="-8.83108">
        <ele>46.022</ele>
        <time>2018-07-28T18:04:04Z</time>
      </trkpt>
      <trkpt lat="42.27311" lon="-8.83101">
        <ele>45.687</ele>
        <time>2018-07-28T18:04:05Z</time>
      </trkpt>
      <trkpt lat="42.27313" lon="-8.83094">
        <ele>45.225</ele>
        <time>2018-07-28T18:04:06Z</time>
      </trkpt>
      <trkpt lat="42.27316" lon="-8.83085">
        <ele>44.711</ele>
        <time>2018-07-28T18:04:07Z</time>
      </trkpt>
      <trkpt lat="42.2732" lon="-8.83077">
        <ele>44.351</ele>
        <time>2018-07-28T18:04:08Z</time>
      </trkpt>
      <trkpt lat="42.27326" lon="-8.83068">
        <ele>44.001</ele>
        <time>2018-07-28T18:04:09Z</time>
      </trkpt>
      <trkpt lat="42.27331" lon="-8.83059">
        <ele>43.711</ele>
        <time>2018-07-28T18:04:10Z</time>
      </trkpt>
      <trkpt lat="42.27337" lon="-8.83049">
        <ele>43.208</ele>
        <time>2018-07-28T18:04:11Z</time>
      </trkpt>
      <trkpt lat="42.2734" lon="-8.83039">
        <ele>43.057</ele>
        <time>2018-07-28T18:04:12Z</time>
      </trkpt>
      <trkpt lat="42.27342" lon="-8.83029">
        <ele>42.852</ele>
        <time>2018-07-28T18:04:13Z</time>
      </trkpt>
      <trkpt lat="42.27344" lon="-8.83021">
        <ele>42.565</ele>
        <time>2018-07-28T18:04:14Z</time>
      </trkpt>
      <trkpt lat="42.27347" lon="-8.83012">
        <ele>42.137</ele>
        <time>2018-07-28T18:04:15Z</time>
      </trkpt>
      <trkpt lat="42.27347" lon="-8.83004">
        <ele>41.732</ele>
        <time>2018-07-28T18:04:16Z</time>
      </trkpt>
      <trkpt lat="42.27348" lon="-8.82996">
        <ele>41.457</ele>
        <time>2018-07-28T18:04:17Z</time>
      </trkpt>
      <trkpt lat="42.27348" lon="-8.82989">
        <ele>40.985</ele>
        <time>2018-07-28T18:04:18Z</time>
      </trkpt>
      <trkpt lat="42.27348" lon="-8.82981">
        <ele>40.551</ele>
        <time>2018-07-28T18:04:19Z</time>
      </trkpt>
      <trkpt lat="42.27349" lon="-8.82974">
        <ele>40.165</ele>
        <time>2018-07-28T18:04:20Z</time>
      </trkpt>
      <trkpt lat="42.2735" lon="-8.82967">
        <ele>39.768</ele>
        <time>2018-07-28T18:04:21Z</time>
      </trkpt>
      <trkpt lat="42.27351" lon="-8.82958">
        <ele>38.714</ele>
        <time>2018-07-28T18:04:23Z</time>
      </trkpt>
      <trkpt lat="42.27352" lon="-8.8295">
        <ele>37.208</ele>
        <time>2018-07-28T18:04:26Z</time>
      </trkpt>
      <trkpt lat="42.27352" lon="-8.82944">
        <ele>35.898</ele>
        <time>2018-07-28T18:04:30Z</time>
      </trkpt>
      <trkpt lat="42.27351" lon="-8.82936">
        <ele>34.963</ele>
        <time>2018-07-28T18:04:48Z</time>
      </trkpt>
      <trkpt lat="42.27346" lon="-8.8293">
        <ele>34.516</ele>
        <time>2018-07-28T18:04:50Z</time>
      </trkpt>
      <trkpt lat="42.27341" lon="-8.82928">
        <ele>34.288</ele>
        <time>2018-07-28T18:04:51Z</time>
      </trkpt>
      <trkpt lat="42.27336" lon="-8.82925">
        <ele>33.913</ele>
        <time>2018-07-28T18:04:52Z</time>
      </trkpt>
      <trkpt lat="42.27331" lon="-8.82922">
        <ele>33.528</ele>
        <time>2018-07-28T18:04:53Z</time>
      </trkpt>
      <trkpt lat="42.27326" lon="-8.82919">
        <ele>33.076</ele>
        <time>2018-07-28T18:04:54Z</time>
      </trkpt>
      <trkpt lat="42.27321" lon="-8.82913">
        <ele>32.462</ele>
        <time>2018-07-28T18:04:55Z</time>
      </trkpt>
      <trkpt lat="42.27315" lon="-8.82907">
        <ele>31.887</ele>
        <time>2018-07-28T18:04:56Z</time>
      </trkpt>
      <trkpt lat="42.2731" lon="-8.829">
        <ele>31.142</ele>
        <time>2018-07-28T18:04:57Z</time>
      </trkpt>
      <trkpt lat="42.27306" lon="-8.82892">
        <ele>30.426</ele>
        <time>2018-07-28T18:04:58Z</time>
      </trkpt>
      <trkpt lat="42.27303" lon="-8.82883">
        <ele>29.708</ele>
        <time>2018-07-28T18:04:59Z</time>
      </trkpt>
      <trkpt lat="42.273" lon="-8.82875">
        <ele>29.09</ele>
        <time>2018-07-28T18:05:00Z</time>
      </trkpt>
      <trkpt lat="42.27298" lon="-8.82866">
        <ele>27.885</ele>
        <time>2018-07-28T18:05:01Z</time>
      </trkpt>
      <trkpt lat="42.27295" lon="-8.82857">
        <ele>27.268</ele>
        <time>2018-07-28T18:05:02Z</time>
      </trkpt>
      <trkpt lat="42.27293" lon="-8.82848">
        <ele>26.76</ele>
        <time>2018-07-28T18:05:03Z</time>
      </trkpt>
      <trkpt lat="42.27291" lon="-8.82839">
        <ele>26.145</ele>
        <time>2018-07-28T18:05:04Z</time>
      </trkpt>
      <trkpt lat="42.27291" lon="-8.8283">
        <ele>25.51</ele>
        <time>2018-07-28T18:05:05Z</time>
      </trkpt>
      <trkpt lat="42.27291" lon="-8.8282">
        <ele>25.098</ele>
        <time>2018-07-28T18:05:06Z</time>
      </trkpt>
      <trkpt lat="42.27291" lon="-8.8281">
        <ele>24.524</ele>
        <time>2018-07-28T18:05:07Z</time>
      </trkpt>
      <trkpt lat="42.27291" lon="-8.82799">
        <ele>24.136</ele>
        <time>2018-07-28T18:05:08Z</time>
      </trkpt>
      <trkpt lat="42.27291" lon="-8.82789">
        <ele>23.717</ele>
        <time>2018-07-28T18:05:09Z</time>
      </trkpt>
      <trkpt lat="42.27291" lon="-8.82778">
        <ele>23.218</ele>
        <time>2018-07-28T18:05:10Z</time>
      </trkpt>
      <trkpt lat="42.2729" lon="-8.82768">
        <ele>22.808</ele>
        <time>2018-07-28T18:05:11Z</time>
      </trkpt>
      <trkpt lat="42.27289" lon="-8.82757">
        <ele>22.395</ele>
        <time>2018-07-28T18:05:12Z</time>
      </trkpt>
      <trkpt lat="42.27288" lon="-8.82746">
        <ele>21.78</ele>
        <time>2018-07-28T18:05:13Z</time>
      </trkpt>
      <trkpt lat="42.27289" lon="-8.82735">
        <ele>21.133</ele>
        <time>2018-07-28T18:05:14Z</time>
      </trkpt>
      <trkpt lat="42.2729" lon="-8.82723">
        <ele>20.495</ele>
        <time>2018-07-28T18:05:15Z</time>
      </trkpt>
      <trkpt lat="42.27292" lon="-8.82712">
        <ele>19.69</ele>
        <time>2018-07-28T18:05:16Z</time>
      </trkpt>
      <trkpt lat="42.27294" lon="-8.82701">
        <ele>18.885</ele>
        <time>2018-07-28T18:05:17Z</time>
      </trkpt>
      <trkpt lat="42.27296" lon="-8.82689">
        <ele>17.473</ele>
        <time>2018-07-28T18:05:18Z</time>
      </trkpt>
      <trkpt lat="42.27298" lon="-8.82676">
        <ele>16.879</ele>
        <time>2018-07-28T18:05:19Z</time>
      </trkpt>
      <trkpt lat="42.27299" lon="-8.82664">
        <ele>16.328</ele>
        <time>2018-07-28T18:05:20Z</time>
      </trkpt>
      <trkpt lat="42.27297" lon="-8.82652">
        <ele>15.989</ele>
        <time>2018-07-28T18:05:21Z</time>
      </trkpt>
      <trkpt lat="42.27295" lon="-8.8264">
        <ele>15.517</ele>
        <time>2018-07-28T18:05:22Z</time>
      </trkpt>
      <trkpt lat="42.27293" lon="-8.82629">
        <ele>15.108</ele>
        <time>2018-07-28T18:05:23Z</time>
      </trkpt>
      <trkpt lat="42.27291" lon="-8.82617">
        <ele>14.734</ele>
        <time>2018-07-28T18:05:24Z</time>
      </trkpt>
      <trkpt lat="42.27288" lon="-8.82605">
        <ele>14.489</ele>
        <time>2018-07-28T18:05:25Z</time>
      </trkpt>
      <trkpt lat="42.27285" lon="-8.82593">
        <ele>14.242</ele>
        <time>2018-07-28T18:05:26Z</time>
      </trkpt>
      <trkpt lat="42.27281" lon="-8.8258">
        <ele>13.964</ele>
        <time>2018-07-28T18:05:27Z</time>
      </trkpt>
      <trkpt lat="42.27278" lon="-8.82568">
        <ele>13.649</ele>
        <time>2018-07-28T18:05:28Z</time>
      </trkpt>
      <trkpt lat="42.27275" lon="-8.82556">
        <ele>13.494</ele>
        <time>2018-07-28T18:05:29Z</time>
      </trkpt>
      <trkpt lat="42.27272" lon="-8.82545">
        <ele>13.282</ele>
        <time>2018-07-28T18:05:30Z</time>
      </trkpt>
      <trkpt lat="42.2727" lon="-8.82535">
        <ele>12.988</ele>
        <time>2018-07-28T18:05:31Z</time>
      </trkpt>
      <trkpt lat="42.27267" lon="-8.82526">
        <ele>12.642</ele>
        <time>2018-07-28T18:05:32Z</time>
      </trkpt>
      <trkpt lat="42.27266" lon="-8.82517">
        <ele>12.322</ele>
        <time>2018-07-28T18:05:33Z</time>
      </trkpt>
      <trkpt lat="42.27264" lon="-8.82509">
        <ele>12.014</ele>
        <time>2018-07-28T18:05:34Z</time>
      </trkpt>
      <trkpt lat="42.27263" lon="-8.82503">
        <ele>11.508</ele>
        <time>2018-07-28T18:05:35Z</time>
      </trkpt>
      <trkpt lat="42.2726" lon="-8.82495">
        <ele>11.236</ele>
        <time>2018-07-28T18:05:37Z</time>
      </trkpt>
      <trkpt lat="42.27258" lon="-8.82488">
        <ele>11.281</ele>
        <time>2018-07-28T18:05:42Z</time>
      </trkpt>
      <trkpt lat="42.27257" lon="-8.82478">
        <ele>11.334</ele>
        <time>2018-07-28T18:05:45Z</time>
      </trkpt>
      <trkpt lat="42.27262" lon="-8.8247">
        <ele>11.366</ele>
        <time>2018-07-28T18:05:47Z</time>
      </trkpt>
      <trkpt lat="42.27268" lon="-8.82466">
        <ele>11.351</ele>
        <time>2018-07-28T18:05:48Z</time>
      </trkpt>
      <trkpt lat="42.27275" lon="-8.82462">
        <ele>11.386</ele>
        <time>2018-07-28T18:05:49Z</time>
      </trkpt>
      <trkpt lat="42.27283" lon="-8.82459">
        <ele>11.294</ele>
        <time>2018-07-28T18:05:50Z</time>
      </trkpt>
      <trkpt lat="42.27292" lon="-8.82454">
        <ele>11.16</ele>
        <time>2018-07-28T18:05:51Z</time>
      </trkpt>
      <trkpt lat="42.27301" lon="-8.82448">
        <ele>10.925</ele>
        <time>2018-07-28T18:05:52Z</time>
      </trkpt>
      <trkpt lat="42.2731" lon="-8.8244">
        <ele>10.926</ele>
        <time>2018-07-28T18:05:53Z</time>
      </trkpt>
      <trkpt lat="42.27318" lon="-8.8243">
        <ele>10.908</ele>
        <time>2018-07-28T18:05:54Z</time>
      </trkpt>
      <trkpt lat="42.27326" lon="-8.82419">
        <ele>10.908</ele>
        <time>2018-07-28T18:05:55Z</time>
      </trkpt>
      <trkpt lat="42.27334" lon="-8.82408">
        <ele>11.244</ele>
        <time>2018-07-28T18:05:56Z</time>
      </trkpt>
      <trkpt lat="42.27342" lon="-8.82397">
        <ele>11.289</ele>
        <time>2018-07-28T18:05:57Z</time>
      </trkpt>
      <trkpt lat="42.27349" lon="-8.82387">
        <ele>11.242</ele>
        <time>2018-07-28T18:05:58Z</time>
      </trkpt>
      <trkpt lat="42.27356" lon="-8.82378">
        <ele>11.194</ele>
        <time>2018-07-28T18:05:59Z</time>
      </trkpt>
      <trkpt lat="42.27363" lon="-8.82368">
        <ele>10.989</ele>
        <time>2018-07-28T18:06:00Z</time>
      </trkpt>
      <trkpt lat="42.2737" lon="-8.82359">
        <ele>10.434</ele>
        <time>2018-07-28T18:06:01Z</time>
      </trkpt>
      <trkpt lat="42.27377" lon="-8.82349">
        <ele>10.042</ele>
        <time>2018-07-28T18:06:02Z</time>
      </trkpt>
      <trkpt lat="42.27384" lon="-8.82339">
        <ele>9.768</ele>
        <time>2018-07-28T18:06:03Z</time>
      </trkpt>
      <trkpt lat="42.27389" lon="-8.82329">
        <ele>9.694</ele>
        <time>2018-07-28T18:06:04Z</time>
      </trkpt>
      <trkpt lat="42.2739" lon="-8.82319">
        <ele>9.557</ele>
        <time>2018-07-28T18:06:05Z</time>
      </trkpt>
      <trkpt lat="42.27392" lon="-8.82312">
        <ele>9.322</ele>
        <time>2018-07-28T18:06:06Z</time>
      </trkpt>
      <trkpt lat="42.27392" lon="-8.82305">
        <ele>9.008</ele>
        <time>2018-07-28T18:06:07Z</time>
      </trkpt>
      <trkpt lat="42.27391" lon="-8.82297">
        <ele>8.231</ele>
        <time>2018-07-28T18:06:08Z</time>
      </trkpt>
      <trkpt lat="42.27393" lon="-8.8229">
        <ele>7.836</ele>
        <time>2018-07-28T18:06:09Z</time>
      </trkpt>
      <trkpt lat="42.27393" lon="-8.8228">
        <ele>7.619</ele>
        <time>2018-07-28T18:06:10Z</time>
      </trkpt>
      <trkpt lat="42.27395" lon="-8.8227">
        <ele>7.681</ele>
        <time>2018-07-28T18:06:11Z</time>
      </trkpt>
      <trkpt lat="42.27398" lon="-8.82259">
        <ele>7.676</ele>
        <time>2018-07-28T18:06:12Z</time>
      </trkpt>
      <trkpt lat="42.27402" lon="-8.82248">
        <ele>7.831</ele>
        <time>2018-07-28T18:06:13Z</time>
      </trkpt>
      <trkpt lat="42.27406" lon="-8.82236">
        <ele>8.279</ele>
        <time>2018-07-28T18:06:14Z</time>
      </trkpt>
      <trkpt lat="42.27411" lon="-8.82224">
        <ele>8.545</ele>
        <time>2018-07-28T18:06:15Z</time>
      </trkpt>
      <trkpt lat="42.27416" lon="-8.82213">
        <ele>8.874</ele>
        <time>2018-07-28T18:06:16Z</time>
      </trkpt>
      <trkpt lat="42.27421" lon="-8.82203">
        <ele>9.056</ele>
        <time>2018-07-28T18:06:17Z</time>
      </trkpt>
      <trkpt lat="42.27424" lon="-8.82192">
        <ele>9.321</ele>
        <time>2018-07-28T18:06:18Z</time>
      </trkpt>
      <trkpt lat="42.27425" lon="-8.82182">
        <ele>9.408</ele>
        <time>2018-07-28T18:06:19Z</time>
      </trkpt>
      <trkpt lat="42.27423" lon="-8.82173">
        <ele>9.449</ele>
        <time>2018-07-28T18:06:20Z</time>
      </trkpt>
      <trkpt lat="42.2742" lon="-8.82166">
        <ele>9.294</ele>
        <time>2018-07-28T18:06:21Z</time>
      </trkpt>
      <trkpt lat="42.27417" lon="-8.82159">
        <ele>9.117</ele>
        <time>2018-07-28T18:06:22Z</time>
      </trkpt>
      <trkpt lat="42.27416" lon="-8.82151">
        <ele>8.729</ele>
        <time>2018-07-28T18:06:23Z</time>
      </trkpt>
      <trkpt lat="42.27414" lon="-8.82144">
        <ele>8.414</ele>
        <time>2018-07-28T18:06:24Z</time>
      </trkpt>
      <trkpt lat="42.27412" lon="-8.82138">
        <ele>8.029</ele>
        <time>2018-07-28T18:06:25Z</time>
      </trkpt>
      <trkpt lat="42.27411" lon="-8.82132">
        <ele>8.037</ele>
        <time>2018-07-28T18:06:26Z</time>
      </trkpt>
      <trkpt lat="42.27411" lon="-8.82125">
        <ele>8.013</ele>
        <time>2018-07-28T18:06:27Z</time>
      </trkpt>
      <trkpt lat="42.2741" lon="-8.82118">
        <ele>8.188</ele>
        <time>2018-07-28T18:06:28Z</time>
      </trkpt>
      <trkpt lat="42.27409" lon="-8.82109">
        <ele>8.324</ele>
        <time>2018-07-28T18:06:29Z</time>
      </trkpt>
      <trkpt lat="42.27409" lon="-8.82098">
        <ele>8.526</ele>
        <time>2018-07-28T18:06:30Z</time>
      </trkpt>
      <trkpt lat="42.2741" lon="-8.82087">
        <ele>8.708</ele>
        <time>2018-07-28T18:06:31Z</time>
      </trkpt>
      <trkpt lat="42.2741" lon="-8.82075">
        <ele>8.83</ele>
        <time>2018-07-28T18:06:32Z</time>
      </trkpt>
      <trkpt lat="42.2741" lon="-8.82065">
        <ele>8.875</ele>
        <time>2018-07-28T18:06:33Z</time>
      </trkpt>
      <trkpt lat="42.2741" lon="-8.82054">
        <ele>8.888</ele>
        <time>2018-07-28T18:06:34Z</time>
      </trkpt>
      <trkpt lat="42.27411" lon="-8.82043">
        <ele>8.78</ele>
        <time>2018-07-28T18:06:35Z</time>
      </trkpt>
      <trkpt lat="42.27411" lon="-8.82033">
        <ele>8.665</ele>
        <time>2018-07-28T18:06:36Z</time>
      </trkpt>
      <trkpt lat="42.2741" lon="-8.82024">
        <ele>8.56</ele>
        <time>2018-07-28T18:06:37Z</time>
      </trkpt>
      <trkpt lat="42.27411" lon="-8.82015">
        <ele>8.448</ele>
        <time>2018-07-28T18:06:38Z</time>
      </trkpt>
      <trkpt lat="42.27412" lon="-8.82007">
        <ele>8.394</ele>
        <time>2018-07-28T18:06:39Z</time>
      </trkpt>
      <trkpt lat="42.27413" lon="-8.82">
        <ele>8.331</ele>
        <time>2018-07-28T18:06:40Z</time>
      </trkpt>
      <trkpt lat="42.27414" lon="-8.81993">
        <ele>8.361</ele>
        <time>2018-07-28T18:06:41Z</time>
      </trkpt>
      <trkpt lat="42.27415" lon="-8.81985">
        <ele>8.307</ele>
        <time>2018-07-28T18:06:42Z</time>
      </trkpt>
      <trkpt lat="42.27417" lon="-8.81976">
        <ele>8.308</ele>
        <time>2018-07-28T18:06:43Z</time>
      </trkpt>
      <trkpt lat="42.27418" lon="-8.81967">
        <ele>8.465</ele>
        <time>2018-07-28T18:06:44Z</time>
      </trkpt>
      <trkpt lat="42.27419" lon="-8.81956">
        <ele>8.52</ele>
        <time>2018-07-28T18:06:45Z</time>
      </trkpt>
      <trkpt lat="42.27421" lon="-8.81944">
        <ele>8.793</ele>
        <time>2018-07-28T18:06:46Z</time>
      </trkpt>
      <trkpt lat="42.27423" lon="-8.81932">
        <ele>9.055</ele>
        <time>2018-07-28T18:06:47Z</time>
      </trkpt>
      <trkpt lat="42.27424" lon="-8.81919">
        <ele>9.45</ele>
        <time>2018-07-28T18:06:48Z</time>
      </trkpt>
      <trkpt lat="42.27424" lon="-8.81907">
        <ele>9.775</ele>
        <time>2018-07-28T18:06:49Z</time>
      </trkpt>
      <trkpt lat="42.27424" lon="-8.81896">
        <ele>9.923</ele>
        <time>2018-07-28T18:06:50Z</time>
      </trkpt>
      <trkpt lat="42.27424" lon="-8.81887">
        <ele>10.179</ele>
        <time>2018-07-28T18:06:51Z</time>
      </trkpt>
      <trkpt lat="42.27425" lon="-8.81879">
        <ele>10.358</ele>
        <time>2018-07-28T18:06:52Z</time>
      </trkpt>
      <trkpt lat="42.27425" lon="-8.81872">
        <ele>10.452</ele>
        <time>2018-07-28T18:06:53Z</time>
      </trkpt>
      <trkpt lat="42.27425" lon="-8.81865">
        <ele>10.517</ele>
        <time>2018-07-28T18:06:54Z</time>
      </trkpt>
      <trkpt lat="42.27426" lon="-8.81854">
        <ele>10.708</ele>
        <time>2018-07-28T18:06:56Z</time>
      </trkpt>
      <trkpt lat="42.27425" lon="-8.81844">
        <ele>10.937</ele>
        <time>2018-07-28T18:06:58Z</time>
      </trkpt>
      <trkpt lat="42.27425" lon="-8.81833">
        <ele>11.442</ele>
        <time>2018-07-28T18:07:00Z</time>
      </trkpt>
      <trkpt lat="42.27424" lon="-8.81825">
        <ele>11.655</ele>
        <time>2018-07-28T18:07:02Z</time>
      </trkpt>
      <trkpt lat="42.27421" lon="-8.81817">
        <ele>11.657</ele>
        <time>2018-07-28T18:07:05Z</time>
      </trkpt>
      <trkpt lat="42.27418" lon="-8.81812">
        <ele>11.842</ele>
        <time>2018-07-28T18:07:07Z</time>
      </trkpt>
      <trkpt lat="42.27418" lon="-8.81805">
        <ele>12.627</ele>
        <time>2018-07-28T18:07:14Z</time>
      </trkpt>
      <trkpt lat="42.27424" lon="-8.81799">
        <ele>12.925</ele>
        <time>2018-07-28T18:07:16Z</time>
      </trkpt>
      <trkpt lat="42.27432" lon="-8.81793">
        <ele>13.481</ele>
        <time>2018-07-28T18:07:18Z</time>
      </trkpt>
      <trkpt lat="42.27438" lon="-8.81791">
        <ele>13.826</ele>
        <time>2018-07-28T18:07:19Z</time>
      </trkpt>
      <trkpt lat="42.27445" lon="-8.81788">
        <ele>14.247</ele>
        <time>2018-07-28T18:07:20Z</time>
      </trkpt>
      <trkpt lat="42.27452" lon="-8.81783">
        <ele>14.711</ele>
        <time>2018-07-28T18:07:21Z</time>
      </trkpt>
      <trkpt lat="42.27459" lon="-8.81779">
        <ele>15.208</ele>
        <time>2018-07-28T18:07:22Z</time>
      </trkpt>
      <trkpt lat="42.27466" lon="-8.81777">
        <ele>15.644</ele>
        <time>2018-07-28T18:07:23Z</time>
      </trkpt>
      <trkpt lat="42.27474" lon="-8.81774">
        <ele>16.259</ele>
        <time>2018-07-28T18:07:24Z</time>
      </trkpt>
      <trkpt lat="42.27482" lon="-8.81769">
        <ele>16.772</ele>
        <time>2018-07-28T18:07:25Z</time>
      </trkpt>
      <trkpt lat="42.27491" lon="-8.81765">
        <ele>17.494</ele>
        <time>2018-07-28T18:07:26Z</time>
      </trkpt>
      <trkpt lat="42.27501" lon="-8.8176">
        <ele>18.129</ele>
        <time>2018-07-28T18:07:27Z</time>
      </trkpt>
      <trkpt lat="42.2751" lon="-8.81757">
        <ele>18.954</ele>
        <time>2018-07-28T18:07:28Z</time>
      </trkpt>
      <trkpt lat="42.27518" lon="-8.81753">
        <ele>19.632</ele>
        <time>2018-07-28T18:07:29Z</time>
      </trkpt>
      <trkpt lat="42.27527" lon="-8.8175">
        <ele>20.388</ele>
        <time>2018-07-28T18:07:30Z</time>
      </trkpt>
      <trkpt lat="42.27535" lon="-8.81747">
        <ele>20.912</ele>
        <time>2018-07-28T18:07:31Z</time>
      </trkpt>
      <trkpt lat="42.27543" lon="-8.81743">
        <ele>21.832</ele>
        <time>2018-07-28T18:07:32Z</time>
      </trkpt>
      <trkpt lat="42.27551" lon="-8.81739">
        <ele>22.005</ele>
        <time>2018-07-28T18:07:33Z</time>
      </trkpt>
      <trkpt lat="42.27559" lon="-8.81735">
        <ele>22.008</ele>
        <time>2018-07-28T18:07:34Z</time>
      </trkpt>
      <trkpt lat="42.27567" lon="-8.81731">
        <ele>22.093</ele>
        <time>2018-07-28T18:07:35Z</time>
      </trkpt>
      <trkpt lat="42.27575" lon="-8.81728">
        <ele>21.878</ele>
        <time>2018-07-28T18:07:36Z</time>
      </trkpt>
      <trkpt lat="42.27582" lon="-8.81726">
        <ele>21.631</ele>
        <time>2018-07-28T18:07:37Z</time>
      </trkpt>
      <trkpt lat="42.2759" lon="-8.81725">
        <ele>21.223</ele>
        <time>2018-07-28T18:07:38Z</time>
      </trkpt>
      <trkpt lat="42.27598" lon="-8.81725">
        <ele>20.928</ele>
        <time>2018-07-28T18:07:39Z</time>
      </trkpt>
      <trkpt lat="42.27606" lon="-8.81725">
        <ele>20.693</ele>
        <time>2018-07-28T18:07:40Z</time>
      </trkpt>
      <trkpt lat="42.27613" lon="-8.81725">
        <ele>20.211</ele>
        <time>2018-07-28T18:07:41Z</time>
      </trkpt>
      <trkpt lat="42.2762" lon="-8.81725">
        <ele>19.647</ele>
        <time>2018-07-28T18:07:42Z</time>
      </trkpt>
      <trkpt lat="42.27627" lon="-8.81725">
        <ele>19.075</ele>
        <time>2018-07-28T18:07:43Z</time>
      </trkpt>
      <trkpt lat="42.27634" lon="-8.81725">
        <ele>18.428</ele>
        <time>2018-07-28T18:07:44Z</time>
      </trkpt>
      <trkpt lat="42.27641" lon="-8.81725">
        <ele>17.72</ele>
        <time>2018-07-28T18:07:45Z</time>
      </trkpt>
      <trkpt lat="42.27647" lon="-8.81724">
        <ele>17.008</ele>
        <time>2018-07-28T18:07:46Z</time>
      </trkpt>
      <trkpt lat="42.27653" lon="-8.81722">
        <ele>16.439</ele>
        <time>2018-07-28T18:07:47Z</time>
      </trkpt>
      <trkpt lat="42.27658" lon="-8.81719">
        <ele>15.974</ele>
        <time>2018-07-28T18:07:48Z</time>
      </trkpt>
      <trkpt lat="42.27663" lon="-8.81717">
        <ele>14.817</ele>
        <time>2018-07-28T18:07:49Z</time>
      </trkpt>
      <trkpt lat="42.27668" lon="-8.81712">
        <ele>14.379</ele>
        <time>2018-07-28T18:07:50Z</time>
      </trkpt>
      <trkpt lat="42.27674" lon="-8.81708">
        <ele>13.924</ele>
        <time>2018-07-28T18:07:51Z</time>
      </trkpt>
      <trkpt lat="42.2768" lon="-8.81702">
        <ele>13.599</ele>
        <time>2018-07-28T18:07:52Z</time>
      </trkpt>
      <trkpt lat="42.27687" lon="-8.81696">
        <ele>13.317</ele>
        <time>2018-07-28T18:07:53Z</time>
      </trkpt>
      <trkpt lat="42.27695" lon="-8.81687">
        <ele>13.173</ele>
        <time>2018-07-28T18:07:54Z</time>
      </trkpt>
      <trkpt lat="42.27702" lon="-8.81677">
        <ele>12.836</ele>
        <time>2018-07-28T18:07:55Z</time>
      </trkpt>
      <trkpt lat="42.27708" lon="-8.81666">
        <ele>12.617</ele>
        <time>2018-07-28T18:07:56Z</time>
      </trkpt>
      <trkpt lat="42.27715" lon="-8.81653">
        <ele>12.318</ele>
        <time>2018-07-28T18:07:57Z</time>
      </trkpt>
      <trkpt lat="42.27722" lon="-8.81642">
        <ele>12.008</ele>
        <time>2018-07-28T18:07:58Z</time>
      </trkpt>
      <trkpt lat="42.27729" lon="-8.81631">
        <ele>11.815</ele>
        <time>2018-07-28T18:07:59Z</time>
      </trkpt>
      <trkpt lat="42.27737" lon="-8.81621">
        <ele>11.73</ele>
        <time>2018-07-28T18:08:00Z</time>
      </trkpt>
      <trkpt lat="42.27745" lon="-8.81613">
        <ele>11.473</ele>
        <time>2018-07-28T18:08:01Z</time>
      </trkpt>
      <trkpt lat="42.27753" lon="-8.81606">
        <ele>11.395</ele>
        <time>2018-07-28T18:08:02Z</time>
      </trkpt>
      <trkpt lat="42.2776" lon="-8.81598">
        <ele>11.18</ele>
        <time>2018-07-28T18:08:03Z</time>
      </trkpt>
      <trkpt lat="42.27767" lon="-8.8159">
        <ele>10.755</ele>
        <time>2018-07-28T18:08:04Z</time>
      </trkpt>
      <trkpt lat="42.27774" lon="-8.81583">
        <ele>10.033</ele>
        <time>2018-07-28T18:08:05Z</time>
      </trkpt>
      <trkpt lat="42.27781" lon="-8.81576">
        <ele>9.749</ele>
        <time>2018-07-28T18:08:06Z</time>
      </trkpt>
      <trkpt lat="42.27788" lon="-8.81569">
        <ele>9.461</ele>
        <time>2018-07-28T18:08:07Z</time>
      </trkpt>
      <trkpt lat="42.27795" lon="-8.81563">
        <ele>9.321</ele>
        <time>2018-07-28T18:08:08Z</time>
      </trkpt>
      <trkpt lat="42.27801" lon="-8.81556">
        <ele>9.213</ele>
        <time>2018-07-28T18:08:09Z</time>
      </trkpt>
      <trkpt lat="42.27808" lon="-8.81549">
        <ele>9.108</ele>
        <time>2018-07-28T18:08:10Z</time>
      </trkpt>
      <trkpt lat="42.27815" lon="-8.81542">
        <ele>9.018</ele>
        <time>2018-07-28T18:08:11Z</time>
      </trkpt>
      <trkpt lat="42.27822" lon="-8.81534">
        <ele>8.923</ele>
        <time>2018-07-28T18:08:12Z</time>
      </trkpt>
      <trkpt lat="42.2783" lon="-8.81525">
        <ele>8.926</ele>
        <time>2018-07-28T18:08:13Z</time>
      </trkpt>
      <trkpt lat="42.27839" lon="-8.81516">
        <ele>8.948</ele>
        <time>2018-07-28T18:08:14Z</time>
      </trkpt>
      <trkpt lat="42.27848" lon="-8.81507">
        <ele>9.073</ele>
        <time>2018-07-28T18:08:15Z</time>
      </trkpt>
      <trkpt lat="42.27858" lon="-8.81496">
        <ele>9.478</ele>
        <time>2018-07-28T18:08:16Z</time>
      </trkpt>
      <trkpt lat="42.27867" lon="-8.81486">
        <ele>9.776</ele>
        <time>2018-07-28T18:08:17Z</time>
      </trkpt>
      <trkpt lat="42.27877" lon="-8.81476">
        <ele>10.032</ele>
        <time>2018-07-28T18:08:18Z</time>
      </trkpt>
      <trkpt lat="42.27888" lon="-8.81467">
        <ele>10.365</ele>
        <time>2018-07-28T18:08:19Z</time>
      </trkpt>
      <trkpt lat="42.27902" lon="-8.81459">
        <ele>10.768</ele>
        <time>2018-07-28T18:08:20Z</time>
      </trkpt>
      <trkpt lat="42.27917" lon="-8.81453">
        <ele>12.214</ele>
        <time>2018-07-28T18:08:21Z</time>
      </trkpt>
      <trkpt lat="42.27934" lon="-8.81448">
        <ele>13.408</ele>
        <time>2018-07-28T18:08:22Z</time>
      </trkpt>
      <trkpt lat="42.2795" lon="-8.81444">
        <ele>14.158</ele>
        <time>2018-07-28T18:08:23Z</time>
      </trkpt>
      <trkpt lat="42.27965" lon="-8.81439">
        <ele>14.683</ele>
        <time>2018-07-28T18:08:24Z</time>
      </trkpt>
      <trkpt lat="42.27979" lon="-8.81435">
        <ele>14.656</ele>
        <time>2018-07-28T18:08:25Z</time>
      </trkpt>
      <trkpt lat="42.27993" lon="-8.8143">
        <ele>14.658</ele>
        <time>2018-07-28T18:08:26Z</time>
      </trkpt>
      <trkpt lat="42.28009" lon="-8.81426">
        <ele>14.693</ele>
        <time>2018-07-28T18:08:27Z</time>
      </trkpt>
      <trkpt lat="42.28023" lon="-8.81422">
        <ele>15.098</ele>
        <time>2018-07-28T18:08:28Z</time>
      </trkpt>
      <trkpt lat="42.2804" lon="-8.81419">
        <ele>15.716</ele>
        <time>2018-07-28T18:08:29Z</time>
      </trkpt>
      <trkpt lat="42.28053" lon="-8.81415">
        <ele>16.492</ele>
        <time>2018-07-28T18:08:30Z</time>
      </trkpt>
      <trkpt lat="42.28066" lon="-8.8141">
        <ele>17.181</ele>
        <time>2018-07-28T18:08:31Z</time>
      </trkpt>
      <trkpt lat="42.28078" lon="-8.81405">
        <ele>17.561</ele>
        <time>2018-07-28T18:08:32Z</time>
      </trkpt>
      <trkpt lat="42.28089" lon="-8.814">
        <ele>17.917</ele>
        <time>2018-07-28T18:08:33Z</time>
      </trkpt>
      <trkpt lat="42.281" lon="-8.81397">
        <ele>18.408</ele>
        <time>2018-07-28T18:08:34Z</time>
      </trkpt>
      <trkpt lat="42.28111" lon="-8.81394">
        <ele>18.91</ele>
        <time>2018-07-28T18:08:35Z</time>
      </trkpt>
      <trkpt lat="42.28124" lon="-8.8139">
        <ele>19.645</ele>
        <time>2018-07-28T18:08:36Z</time>
      </trkpt>
      <trkpt lat="42.28138" lon="-8.81386">
        <ele>20.368</ele>
        <time>2018-07-28T18:08:37Z</time>
      </trkpt>
      <trkpt lat="42.28152" lon="-8.81379">
        <ele>21.81</ele>
        <time>2018-07-28T18:08:38Z</time>
      </trkpt>
      <trkpt lat="42.28164" lon="-8.81375">
        <ele>22.585</ele>
        <time>2018-07-28T18:08:39Z</time>
      </trkpt>
      <trkpt lat="42.28175" lon="-8.8137">
        <ele>23.14</ele>
        <time>2018-07-28T18:08:40Z</time>
      </trkpt>
      <trkpt lat="42.28188" lon="-8.81365">
        <ele>23.528</ele>
        <time>2018-07-28T18:08:41Z</time>
      </trkpt>
      <trkpt lat="42.28202" lon="-8.8136">
        <ele>24.094</ele>
        <time>2018-07-28T18:08:42Z</time>
      </trkpt>
      <trkpt lat="42.28216" lon="-8.81355">
        <ele>24.515</ele>
        <time>2018-07-28T18:08:43Z</time>
      </trkpt>
      <trkpt lat="42.28229" lon="-8.81347">
        <ele>25.065</ele>
        <time>2018-07-28T18:08:44Z</time>
      </trkpt>
      <trkpt lat="42.28241" lon="-8.8134">
        <ele>25.711</ele>
        <time>2018-07-28T18:08:45Z</time>
      </trkpt>
      <trkpt lat="42.28254" lon="-8.81334">
        <ele>26.408</ele>
        <time>2018-07-28T18:08:46Z</time>
      </trkpt>
      <trkpt lat="42.28266" lon="-8.81327">
        <ele>27.113</ele>
        <time>2018-07-28T18:08:47Z</time>
      </trkpt>
      <trkpt lat="42.28278" lon="-8.8132">
        <ele>27.988</ele>
        <time>2018-07-28T18:08:48Z</time>
      </trkpt>
      <trkpt lat="42.28291" lon="-8.81314">
        <ele>28.771</ele>
        <time>2018-07-28T18:08:49Z</time>
      </trkpt>
      <trkpt lat="42.28304" lon="-8.81309">
        <ele>29.343</ele>
        <time>2018-07-28T18:08:50Z</time>
      </trkpt>
      <trkpt lat="42.28316" lon="-8.81302">
        <ele>29.838</ele>
        <time>2018-07-28T18:08:51Z</time>
      </trkpt>
      <trkpt lat="42.28329" lon="-8.81296">
        <ele>30.223</ele>
        <time>2018-07-28T18:08:52Z</time>
      </trkpt>
      <trkpt lat="42.28342" lon="-8.81288">
        <ele>30.571</ele>
        <time>2018-07-28T18:08:53Z</time>
      </trkpt>
      <trkpt lat="42.28354" lon="-8.81279">
        <ele>30.777</ele>
        <time>2018-07-28T18:08:54Z</time>
      </trkpt>
      <trkpt lat="42.28365" lon="-8.8127">
        <ele>31.328</ele>
        <time>2018-07-28T18:08:55Z</time>
      </trkpt>
      <trkpt lat="42.28377" lon="-8.81259">
        <ele>31.889</ele>
        <time>2018-07-28T18:08:56Z</time>
      </trkpt>
      <trkpt lat="42.2839" lon="-8.8125">
        <ele>32.417</ele>
        <time>2018-07-28T18:08:57Z</time>
      </trkpt>
      <trkpt lat="42.28402" lon="-8.8124">
        <ele>33.008</ele>
        <time>2018-07-28T18:08:58Z</time>
      </trkpt>
      <trkpt lat="42.28411" lon="-8.81231">
        <ele>33.684</ele>
        <time>2018-07-28T18:08:59Z</time>
      </trkpt>
      <trkpt lat="42.28419" lon="-8.81221">
        <ele>33.989</ele>
        <time>2018-07-28T18:09:00Z</time>
      </trkpt>
      <trkpt lat="42.28428" lon="-8.81214">
        <ele>34.292</ele>
        <time>2018-07-28T18:09:01Z</time>
      </trkpt>
      <trkpt lat="42.28435" lon="-8.81212">
        <ele>34.394</ele>
        <time>2018-07-28T18:09:02Z</time>
      </trkpt>
      <trkpt lat="42.2844" lon="-8.81206">
        <ele>34.419</ele>
        <time>2018-07-28T18:09:03Z</time>
      </trkpt>
      <trkpt lat="42.28444" lon="-8.81203">
        <ele>34.444</ele>
        <time>2018-07-28T18:09:04Z</time>
      </trkpt>
      <trkpt lat="42.2845" lon="-8.81195">
        <ele>34.042</ele>
        <time>2018-07-28T18:09:09Z</time>
      </trkpt>
      <trkpt lat="42.28456" lon="-8.81187">
        <ele>34.548</ele>
        <time>2018-07-28T18:09:11Z</time>
      </trkpt>
      <trkpt lat="42.28463" lon="-8.8118">
        <ele>34.988</ele>
        <time>2018-07-28T18:09:12Z</time>
      </trkpt>
      <trkpt lat="42.28469" lon="-8.81173">
        <ele>35.424</ele>
        <time>2018-07-28T18:09:13Z</time>
      </trkpt>
      <trkpt lat="42.28477" lon="-8.81166">
        <ele>35.926</ele>
        <time>2018-07-28T18:09:14Z</time>
      </trkpt>
      <trkpt lat="42.28482" lon="-8.8116">
        <ele>36.408</ele>
        <time>2018-07-28T18:09:15Z</time>
      </trkpt>
      <trkpt lat="42.28488" lon="-8.81152">
        <ele>36.95</ele>
        <time>2018-07-28T18:09:16Z</time>
      </trkpt>
      <trkpt lat="42.28494" lon="-8.81144">
        <ele>37.425</ele>
        <time>2018-07-28T18:09:17Z</time>
      </trkpt>
      <trkpt lat="42.28502" lon="-8.81136">
        <ele>37.928</ele>
        <time>2018-07-28T18:09:18Z</time>
      </trkpt>
      <trkpt lat="42.28512" lon="-8.81129">
        <ele>38.43</ele>
        <time>2018-07-28T18:09:19Z</time>
      </trkpt>
      <trkpt lat="42.2852" lon="-8.81121">
        <ele>38.985</ele>
        <time>2018-07-28T18:09:20Z</time>
      </trkpt>
      <trkpt lat="42.28527" lon="-8.81114">
        <ele>39.57</ele>
        <time>2018-07-28T18:09:21Z</time>
      </trkpt>
      <trkpt lat="42.28534" lon="-8.81109">
        <ele>40.138</ele>
        <time>2018-07-28T18:09:22Z</time>
      </trkpt>
      <trkpt lat="42.28541" lon="-8.81101">
        <ele>40.744</ele>
        <time>2018-07-28T18:09:23Z</time>
      </trkpt>
      <trkpt lat="42.28549" lon="-8.81093">
        <ele>41.431</ele>
        <time>2018-07-28T18:09:24Z</time>
      </trkpt>
      <trkpt lat="42.28557" lon="-8.81085">
        <ele>42.261</ele>
        <time>2018-07-28T18:09:25Z</time>
      </trkpt>
      <trkpt lat="42.28565" lon="-8.81076">
        <ele>42.807</ele>
        <time>2018-07-28T18:09:26Z</time>
      </trkpt>
      <trkpt lat="42.28576" lon="-8.8107">
        <ele>43.908</ele>
        <time>2018-07-28T18:09:27Z</time>
      </trkpt>
      <trkpt lat="42.28586" lon="-8.81061">
        <ele>44.395</ele>
        <time>2018-07-28T18:09:28Z</time>
      </trkpt>
      <trkpt lat="42.28596" lon="-8.81054">
        <ele>44.79</ele>
        <time>2018-07-28T18:09:29Z</time>
      </trkpt>
      <trkpt lat="42.28607" lon="-8.81046">
        <ele>45.223</ele>
        <time>2018-07-28T18:09:30Z</time>
      </trkpt>
      <trkpt lat="42.28619" lon="-8.81036">
        <ele>45.835</ele>
        <time>2018-07-28T18:09:31Z</time>
      </trkpt>
      <trkpt lat="42.28628" lon="-8.81025">
        <ele>46.32</ele>
        <time>2018-07-28T18:09:32Z</time>
      </trkpt>
      <trkpt lat="42.28637" lon="-8.81016">
        <ele>47.065</ele>
        <time>2018-07-28T18:09:33Z</time>
      </trkpt>
      <trkpt lat="42.28646" lon="-8.81007">
        <ele>47.733</ele>
        <time>2018-07-28T18:09:34Z</time>
      </trkpt>
      <trkpt lat="42.28656" lon="-8.81001">
        <ele>48.579</ele>
        <time>2018-07-28T18:09:35Z</time>
      </trkpt>
      <trkpt lat="42.28666" lon="-8.80997">
        <ele>49.458</ele>
        <time>2018-07-28T18:09:36Z</time>
      </trkpt>
      <trkpt lat="42.28677" lon="-8.81004">
        <ele>50.252</ele>
        <time>2018-07-28T18:09:37Z</time>
      </trkpt>
      <trkpt lat="42.28689" lon="-8.81008">
        <ele>51.117</ele>
        <time>2018-07-28T18:09:38Z</time>
      </trkpt>
      <trkpt lat="42.28697" lon="-8.81019">
        <ele>51.808</ele>
        <time>2018-07-28T18:09:39Z</time>
      </trkpt>
      <trkpt lat="42.28706" lon="-8.81027">
        <ele>52.467</ele>
        <time>2018-07-28T18:09:40Z</time>
      </trkpt>
      <trkpt lat="42.28713" lon="-8.81035">
        <ele>52.612</ele>
        <time>2018-07-28T18:09:41Z</time>
      </trkpt>
      <trkpt lat="42.28721" lon="-8.81042">
        <ele>52.955</ele>
        <time>2018-07-28T18:09:42Z</time>
      </trkpt>
      <trkpt lat="42.2873" lon="-8.81047">
        <ele>52.987</ele>
        <time>2018-07-28T18:09:43Z</time>
      </trkpt>
      <trkpt lat="42.28738" lon="-8.8105">
        <ele>53.392</ele>
        <time>2018-07-28T18:09:44Z</time>
      </trkpt>
      <trkpt lat="42.28747" lon="-8.81058">
        <ele>53.747</ele>
        <time>2018-07-28T18:09:45Z</time>
      </trkpt>
      <trkpt lat="42.28757" lon="-8.81065">
        <ele>54.225</ele>
        <time>2018-07-28T18:09:46Z</time>
      </trkpt>
      <trkpt lat="42.28765" lon="-8.81069">
        <ele>54.791</ele>
        <time>2018-07-28T18:09:47Z</time>
      </trkpt>
      <trkpt lat="42.28773" lon="-8.81073">
        <ele>55.221</ele>
        <time>2018-07-28T18:09:48Z</time>
      </trkpt>
      <trkpt lat="42.28783" lon="-8.81078">
        <ele>55.641</ele>
        <time>2018-07-28T18:09:49Z</time>
      </trkpt>
      <trkpt lat="42.28793" lon="-8.81083">
        <ele>56.005</ele>
        <time>2018-07-28T18:09:50Z</time>
      </trkpt>
      <trkpt lat="42.28804" lon="-8.81084">
        <ele>56.508</ele>
        <time>2018-07-28T18:09:51Z</time>
      </trkpt>
      <trkpt lat="42.28814" lon="-8.81085">
        <ele>57.034</ele>
        <time>2018-07-28T18:09:52Z</time>
      </trkpt>
      <trkpt lat="42.28824" lon="-8.81084">
        <ele>57.589</ele>
        <time>2018-07-28T18:09:53Z</time>
      </trkpt>
      <trkpt lat="42.28835" lon="-8.81082">
        <ele>58.182</ele>
        <time>2018-07-28T18:09:54Z</time>
      </trkpt>
      <trkpt lat="42.28846" lon="-8.8108">
        <ele>58.764</ele>
        <time>2018-07-28T18:09:55Z</time>
      </trkpt>
      <trkpt lat="42.28856" lon="-8.81078">
        <ele>59.369</ele>
        <time>2018-07-28T18:09:56Z</time>
      </trkpt>
      <trkpt lat="42.28868" lon="-8.81079">
        <ele>59.944</ele>
        <time>2018-07-28T18:09:57Z</time>
      </trkpt>
      <trkpt lat="42.28878" lon="-8.81082">
        <ele>60.592</ele>
        <time>2018-07-28T18:09:58Z</time>
      </trkpt>
      <trkpt lat="42.28888" lon="-8.81087">
        <ele>61.218</ele>
        <time>2018-07-28T18:09:59Z</time>
      </trkpt>
      <trkpt lat="42.28896" lon="-8.81094">
        <ele>62.491</ele>
        <time>2018-07-28T18:10:00Z</time>
      </trkpt>
      <trkpt lat="42.28907" lon="-8.81098">
        <ele>63.081</ele>
        <time>2018-07-28T18:10:01Z</time>
      </trkpt>
      <trkpt lat="42.28916" lon="-8.81102">
        <ele>63.819</ele>
        <time>2018-07-28T18:10:02Z</time>
      </trkpt>
      <trkpt lat="42.28927" lon="-8.81106">
        <ele>64.508</ele>
        <time>2018-07-28T18:10:03Z</time>
      </trkpt>
      <trkpt lat="42.28939" lon="-8.81109">
        <ele>65.311</ele>
        <time>2018-07-28T18:10:04Z</time>
      </trkpt>
      <trkpt lat="42.28949" lon="-8.81108">
        <ele>65.756</ele>
        <time>2018-07-28T18:10:05Z</time>
      </trkpt>
      <trkpt lat="42.28956" lon="-8.81108">
        <ele>66.019</ele>
        <time>2018-07-28T18:10:06Z</time>
      </trkpt>
      <trkpt lat="42.28964" lon="-8.81109">
        <ele>66.171</ele>
        <time>2018-07-28T18:10:07Z</time>
      </trkpt>
      <trkpt lat="42.28972" lon="-8.8111">
        <ele>66.266</ele>
        <time>2018-07-28T18:10:08Z</time>
      </trkpt>
      <trkpt lat="42.28982" lon="-8.81109">
        <ele>66.271</ele>
        <time>2018-07-28T18:10:09Z</time>
      </trkpt>
      <trkpt lat="42.28991" lon="-8.81111">
        <ele>66.489</ele>
        <time>2018-07-28T18:10:10Z</time>
      </trkpt>
      <trkpt lat="42.28999" lon="-8.81116">
        <ele>66.955</ele>
        <time>2018-07-28T18:10:11Z</time>
      </trkpt>
      <trkpt lat="42.29005" lon="-8.81121">
        <ele>67.663</ele>
        <time>2018-07-28T18:10:12Z</time>
      </trkpt>
      <trkpt lat="42.2901" lon="-8.81127">
        <ele>68.044</ele>
        <time>2018-07-28T18:10:13Z</time>
      </trkpt>
      <trkpt lat="42.29016" lon="-8.81132">
        <ele>68.318</ele>
        <time>2018-07-28T18:10:14Z</time>
      </trkpt>
      <trkpt lat="42.29023" lon="-8.81133">
        <ele>68.508</ele>
        <time>2018-07-28T18:10:15Z</time>
      </trkpt>
      <trkpt lat="42.29031" lon="-8.81139">
        <ele>68.478</ele>
        <time>2018-07-28T18:10:16Z</time>
      </trkpt>
      <trkpt lat="42.29038" lon="-8.81144">
        <ele>68.483</ele>
        <time>2018-07-28T18:10:17Z</time>
      </trkpt>
      <trkpt lat="42.29042" lon="-8.81149">
        <ele>68.526</ele>
        <time>2018-07-28T18:10:18Z</time>
      </trkpt>
      <trkpt lat="42.29049" lon="-8.81153">
        <ele>68.818</ele>
        <time>2018-07-28T18:10:19Z</time>
      </trkpt>
      <trkpt lat="42.29056" lon="-8.81153">
        <ele>69.143</ele>
        <time>2018-07-28T18:10:20Z</time>
      </trkpt>
      <trkpt lat="42.29063" lon="-8.81149">
        <ele>69.688</ele>
        <time>2018-07-28T18:10:21Z</time>
      </trkpt>
      <trkpt lat="42.2907" lon="-8.81144">
        <ele>69.976</ele>
        <time>2018-07-28T18:10:22Z</time>
      </trkpt>
      <trkpt lat="42.29075" lon="-8.81129">
        <ele>70.332</ele>
        <time>2018-07-28T18:10:23Z</time>
      </trkpt>
      <trkpt lat="42.29079" lon="-8.81113">
        <ele>70.929</ele>
        <time>2018-07-28T18:10:24Z</time>
      </trkpt>
      <trkpt lat="42.29086" lon="-8.81097">
        <ele>71.8</ele>
        <time>2018-07-28T18:10:25Z</time>
      </trkpt>
      <trkpt lat="42.29095" lon="-8.81085">
        <ele>72.82</ele>
        <time>2018-07-28T18:10:26Z</time>
      </trkpt>
      <trkpt lat="42.29111" lon="-8.81081">
        <ele>74.208</ele>
        <time>2018-07-28T18:10:27Z</time>
      </trkpt>
      <trkpt lat="42.29123" lon="-8.81078">
        <ele>75.754</ele>
        <time>2018-07-28T18:10:28Z</time>
      </trkpt>
      <trkpt lat="42.29135" lon="-8.81077">
        <ele>77.049</ele>
        <time>2018-07-28T18:10:29Z</time>
      </trkpt>
      <trkpt lat="42.29147" lon="-8.81077">
        <ele>78.252</ele>
        <time>2018-07-28T18:10:30Z</time>
      </trkpt>
      <trkpt lat="42.29158" lon="-8.81075">
        <ele>79.154</ele>
        <time>2018-07-28T18:10:31Z</time>
      </trkpt>
      <trkpt lat="42.29168" lon="-8.81075">
        <ele>79.969</ele>
        <time>2018-07-28T18:10:32Z</time>
      </trkpt>
      <trkpt lat="42.29181" lon="-8.81073">
        <ele>80.284</ele>
        <time>2018-07-28T18:10:33Z</time>
      </trkpt>
      <trkpt lat="42.29192" lon="-8.8107">
        <ele>80.642</ele>
        <time>2018-07-28T18:10:34Z</time>
      </trkpt>
      <trkpt lat="42.29203" lon="-8.81064">
        <ele>81.058</ele>
        <time>2018-07-28T18:10:35Z</time>
      </trkpt>
      <trkpt lat="42.29215" lon="-8.81058">
        <ele>81.742</ele>
        <time>2018-07-28T18:10:36Z</time>
      </trkpt>
      <trkpt lat="42.29226" lon="-8.81053">
        <ele>82.422</ele>
        <time>2018-07-28T18:10:37Z</time>
      </trkpt>
      <trkpt lat="42.29237" lon="-8.81052">
        <ele>83.114</ele>
        <time>2018-07-28T18:10:38Z</time>
      </trkpt>
      <trkpt lat="42.29248" lon="-8.8105">
        <ele>83.608</ele>
        <time>2018-07-28T18:10:39Z</time>
      </trkpt>
      <trkpt lat="42.29258" lon="-8.81049">
        <ele>84.096</ele>
        <time>2018-07-28T18:10:40Z</time>
      </trkpt>
      <trkpt lat="42.29267" lon="-8.81046">
        <ele>84.241</ele>
        <time>2018-07-28T18:10:41Z</time>
      </trkpt>
      <trkpt lat="42.29276" lon="-8.81041">
        <ele>84.694</ele>
        <time>2018-07-28T18:10:42Z</time>
      </trkpt>
      <trkpt lat="42.29285" lon="-8.81036">
        <ele>85.046</ele>
        <time>2018-07-28T18:10:43Z</time>
      </trkpt>
      <trkpt lat="42.29294" lon="-8.81028">
        <ele>85.551</ele>
        <time>2018-07-28T18:10:44Z</time>
      </trkpt>
      <trkpt lat="42.29303" lon="-8.81019">
        <ele>86.256</ele>
        <time>2018-07-28T18:10:45Z</time>
      </trkpt>
      <trkpt lat="42.29311" lon="-8.81009">
        <ele>86.954</ele>
        <time>2018-07-28T18:10:46Z</time>
      </trkpt>
      <trkpt lat="42.29321" lon="-8.80999">
        <ele>87.65</ele>
        <time>2018-07-28T18:10:47Z</time>
      </trkpt>
      <trkpt lat="42.29331" lon="-8.80988">
        <ele>89.118</ele>
        <time>2018-07-28T18:10:48Z</time>
      </trkpt>
      <trkpt lat="42.29341" lon="-8.80977">
        <ele>89.998</ele>
        <time>2018-07-28T18:10:49Z</time>
      </trkpt>
      <trkpt lat="42.29351" lon="-8.80966">
        <ele>90.817</ele>
        <time>2018-07-28T18:10:50Z</time>
      </trkpt>
      <trkpt lat="42.29362" lon="-8.80954">
        <ele>91.508</ele>
        <time>2018-07-28T18:10:51Z</time>
      </trkpt>
      <trkpt lat="42.29373" lon="-8.80944">
        <ele>92.333</ele>
        <time>2018-07-28T18:10:52Z</time>
      </trkpt>
      <trkpt lat="42.29385" lon="-8.80934">
        <ele>93.088</ele>
        <time>2018-07-28T18:10:53Z</time>
      </trkpt>
      <trkpt lat="42.29397" lon="-8.80926">
        <ele>93.621</ele>
        <time>2018-07-28T18:10:54Z</time>
      </trkpt>
      <trkpt lat="42.29409" lon="-8.80918">
        <ele>94.083</ele>
        <time>2018-07-28T18:10:55Z</time>
      </trkpt>
      <trkpt lat="42.2942" lon="-8.80911">
        <ele>94.798</ele>
        <time>2018-07-28T18:10:56Z</time>
      </trkpt>
      <trkpt lat="42.29431" lon="-8.80903">
        <ele>95.023</ele>
        <time>2018-07-28T18:10:57Z</time>
      </trkpt>
      <trkpt lat="42.29441" lon="-8.80896">
        <ele>95.441</ele>
        <time>2018-07-28T18:10:58Z</time>
      </trkpt>
      <trkpt lat="42.29451" lon="-8.8089">
        <ele>95.757</ele>
        <time>2018-07-28T18:10:59Z</time>
      </trkpt>
      <trkpt lat="42.29462" lon="-8.80884">
        <ele>96.053</ele>
        <time>2018-07-28T18:11:00Z</time>
      </trkpt>
      <trkpt lat="42.29472" lon="-8.80877">
        <ele>96.504</ele>
        <time>2018-07-28T18:11:01Z</time>
      </trkpt>
      <trkpt lat="42.29482" lon="-8.80871">
        <ele>97.114</ele>
        <time>2018-07-28T18:11:02Z</time>
      </trkpt>
      <trkpt lat="42.29492" lon="-8.80865">
        <ele>97.708</ele>
        <time>2018-07-28T18:11:03Z</time>
      </trkpt>
      <trkpt lat="42.29503" lon="-8.80859">
        <ele>98.867</ele>
        <time>2018-07-28T18:11:04Z</time>
      </trkpt>
      <trkpt lat="42.29513" lon="-8.80852">
        <ele>99.152</ele>
        <time>2018-07-28T18:11:05Z</time>
      </trkpt>
      <trkpt lat="42.29524" lon="-8.80846">
        <ele>99.415</ele>
        <time>2018-07-28T18:11:06Z</time>
      </trkpt>
      <trkpt lat="42.29535" lon="-8.80841">
        <ele>99.897</ele>
        <time>2018-07-28T18:11:07Z</time>
      </trkpt>
      <trkpt lat="42.29545" lon="-8.80836">
        <ele>100.272</ele>
        <time>2018-07-28T18:11:08Z</time>
      </trkpt>
      <trkpt lat="42.29556" lon="-8.80834">
        <ele>100.557</ele>
        <time>2018-07-28T18:11:09Z</time>
      </trkpt>
      <trkpt lat="42.29566" lon="-8.80833">
        <ele>100.845</ele>
        <time>2018-07-28T18:11:10Z</time>
      </trkpt>
      <trkpt lat="42.29576" lon="-8.80834">
        <ele>101.011</ele>
        <time>2018-07-28T18:11:11Z</time>
      </trkpt>
      <trkpt lat="42.29586" lon="-8.80835">
        <ele>101.276</ele>
        <time>2018-07-28T18:11:12Z</time>
      </trkpt>
      <trkpt lat="42.29597" lon="-8.80837">
        <ele>101.49</ele>
        <time>2018-07-28T18:11:13Z</time>
      </trkpt>
      <trkpt lat="42.29607" lon="-8.80838">
        <ele>101.719</ele>
        <time>2018-07-28T18:11:14Z</time>
      </trkpt>
      <trkpt lat="42.29616" lon="-8.80838">
        <ele>102.008</ele>
        <time>2018-07-28T18:11:15Z</time>
      </trkpt>
      <trkpt lat="42.29626" lon="-8.80839">
        <ele>102.249</ele>
        <time>2018-07-28T18:11:16Z</time>
      </trkpt>
      <trkpt lat="42.29637" lon="-8.80839">
        <ele>102.514</ele>
        <time>2018-07-28T18:11:17Z</time>
      </trkpt>
      <trkpt lat="42.29648" lon="-8.80834">
        <ele>102.917</ele>
        <time>2018-07-28T18:11:18Z</time>
      </trkpt>
      <trkpt lat="42.29658" lon="-8.80828">
        <ele>103.389</ele>
        <time>2018-07-28T18:11:19Z</time>
      </trkpt>
      <trkpt lat="42.29667" lon="-8.80822">
        <ele>104.174</ele>
        <time>2018-07-28T18:11:20Z</time>
      </trkpt>
      <trkpt lat="42.29675" lon="-8.80815">
        <ele>104.489</ele>
        <time>2018-07-28T18:11:21Z</time>
      </trkpt>
      <trkpt lat="42.29683" lon="-8.80809">
        <ele>104.787</ele>
        <time>2018-07-28T18:11:22Z</time>
      </trkpt>
      <trkpt lat="42.2969" lon="-8.80804">
        <ele>104.843</ele>
        <time>2018-07-28T18:11:23Z</time>
      </trkpt>
      <trkpt lat="42.29697" lon="-8.80798">
        <ele>104.913</ele>
        <time>2018-07-28T18:11:24Z</time>
      </trkpt>
      <trkpt lat="42.29704" lon="-8.80792">
        <ele>105.043</ele>
        <time>2018-07-28T18:11:25Z</time>
      </trkpt>
      <trkpt lat="42.29712" lon="-8.80787">
        <ele>105.307</ele>
        <time>2018-07-28T18:11:26Z</time>
      </trkpt>
      <trkpt lat="42.29721" lon="-8.80782">
        <ele>105.508</ele>
        <time>2018-07-28T18:11:27Z</time>
      </trkpt>
      <trkpt lat="42.29729" lon="-8.80778">
        <ele>105.873</ele>
        <time>2018-07-28T18:11:28Z</time>
      </trkpt>
      <trkpt lat="42.29738" lon="-8.80774">
        <ele>106.268</ele>
        <time>2018-07-28T18:11:29Z</time>
      </trkpt>
      <trkpt lat="42.29748" lon="-8.80771">
        <ele>106.611</ele>
        <time>2018-07-28T18:11:30Z</time>
      </trkpt>
      <trkpt lat="42.29756" lon="-8.80767">
        <ele>106.923</ele>
        <time>2018-07-28T18:11:31Z</time>
      </trkpt>
      <trkpt lat="42.29765" lon="-8.80764">
        <ele>107.128</ele>
        <time>2018-07-28T18:11:32Z</time>
      </trkpt>
      <trkpt lat="42.29773" lon="-8.80762">
        <ele>107.263</ele>
        <time>2018-07-28T18:11:33Z</time>
      </trkpt>
      <trkpt lat="42.29781" lon="-8.8076">
        <ele>107.271</ele>
        <time>2018-07-28T18:11:34Z</time>
      </trkpt>
      <trkpt lat="42.2979" lon="-8.80761">
        <ele>107.257</ele>
        <time>2018-07-28T18:11:35Z</time>
      </trkpt>
      <trkpt lat="42.29799" lon="-8.80761">
        <ele>107.349</ele>
        <time>2018-07-28T18:11:36Z</time>
      </trkpt>
      <trkpt lat="42.29809" lon="-8.80761">
        <ele>107.502</ele>
        <time>2018-07-28T18:11:37Z</time>
      </trkpt>
      <trkpt lat="42.29818" lon="-8.80762">
        <ele>107.722</ele>
        <time>2018-07-28T18:11:38Z</time>
      </trkpt>
      <trkpt lat="42.29827" lon="-8.80761">
        <ele>107.908</ele>
        <time>2018-07-28T18:11:39Z</time>
      </trkpt>
      <trkpt lat="42.29834" lon="-8.80761">
        <ele>107.996</ele>
        <time>2018-07-28T18:11:40Z</time>
      </trkpt>
      <trkpt lat="42.29842" lon="-8.8076">
        <ele>107.931</ele>
        <time>2018-07-28T18:11:41Z</time>
      </trkpt>
      <trkpt lat="42.29849" lon="-8.80758">
        <ele>107.784</ele>
        <time>2018-07-28T18:11:42Z</time>
      </trkpt>
      <trkpt lat="42.29856" lon="-8.80755">
        <ele>107.696</ele>
        <time>2018-07-28T18:11:43Z</time>
      </trkpt>
      <trkpt lat="42.29864" lon="-8.80752">
        <ele>107.641</ele>
        <time>2018-07-28T18:11:44Z</time>
      </trkpt>
      <trkpt lat="42.29872" lon="-8.80751">
        <ele>107.766</ele>
        <time>2018-07-28T18:11:45Z</time>
      </trkpt>
      <trkpt lat="42.2988" lon="-8.80755">
        <ele>107.954</ele>
        <time>2018-07-28T18:11:46Z</time>
      </trkpt>
      <trkpt lat="42.29887" lon="-8.80763">
        <ele>108.21</ele>
        <time>2018-07-28T18:11:47Z</time>
      </trkpt>
      <trkpt lat="42.29893" lon="-8.80774">
        <ele>108.516</ele>
        <time>2018-07-28T18:11:48Z</time>
      </trkpt>
      <trkpt lat="42.299" lon="-8.80785">
        <ele>108.776</ele>
        <time>2018-07-28T18:11:49Z</time>
      </trkpt>
      <trkpt lat="42.29909" lon="-8.80794">
        <ele>108.913</ele>
        <time>2018-07-28T18:11:50Z</time>
      </trkpt>
      <trkpt lat="42.2992" lon="-8.80803">
        <ele>109.008</ele>
        <time>2018-07-28T18:11:51Z</time>
      </trkpt>
      <trkpt lat="42.29932" lon="-8.80809">
        <ele>109.773</ele>
        <time>2018-07-28T18:11:52Z</time>
      </trkpt>
      <trkpt lat="42.29946" lon="-8.80813">
        <ele>110.288</ele>
        <time>2018-07-28T18:11:53Z</time>
      </trkpt>
      <trkpt lat="42.2996" lon="-8.80816">
        <ele>110.811</ele>
        <time>2018-07-28T18:11:54Z</time>
      </trkpt>
      <trkpt lat="42.29974" lon="-8.80819">
        <ele>111.413</ele>
        <time>2018-07-28T18:11:55Z</time>
      </trkpt>
      <trkpt lat="42.29987" lon="-8.80819">
        <ele>111.628</ele>
        <time>2018-07-28T18:11:56Z</time>
      </trkpt>
      <trkpt lat="42.30001" lon="-8.80816">
        <ele>111.763</ele>
        <time>2018-07-28T18:11:57Z</time>
      </trkpt>
      <trkpt lat="42.30014" lon="-8.80813">
        <ele>111.891</ele>
        <time>2018-07-28T18:11:58Z</time>
      </trkpt>
      <trkpt lat="42.30027" lon="-8.80815">
        <ele>111.967</ele>
        <time>2018-07-28T18:11:59Z</time>
      </trkpt>
      <trkpt lat="42.30041" lon="-8.80822">
        <ele>112.067</ele>
        <time>2018-07-28T18:12:00Z</time>
      </trkpt>
      <trkpt lat="42.30055" lon="-8.80831">
        <ele>112.681</ele>
        <time>2018-07-28T18:12:01Z</time>
      </trkpt>
      <trkpt lat="42.30069" lon="-8.80845">
        <ele>113.319</ele>
        <time>2018-07-28T18:12:02Z</time>
      </trkpt>
      <trkpt lat="42.30083" lon="-8.80858">
        <ele>113.908</ele>
        <time>2018-07-28T18:12:03Z</time>
      </trkpt>
      <trkpt lat="42.30099" lon="-8.80866">
        <ele>114.448</ele>
        <time>2018-07-28T18:12:04Z</time>
      </trkpt>
      <trkpt lat="42.30116" lon="-8.80868">
        <ele>115.023</ele>
        <time>2018-07-28T18:12:05Z</time>
      </trkpt>
      <trkpt lat="42.30134" lon="-8.80869">
        <ele>115.356</ele>
        <time>2018-07-28T18:12:06Z</time>
      </trkpt>
      <trkpt lat="42.30152" lon="-8.8087">
        <ele>115.468</ele>
        <time>2018-07-28T18:12:07Z</time>
      </trkpt>
      <trkpt lat="42.30169" lon="-8.80872">
        <ele>115.643</ele>
        <time>2018-07-28T18:12:08Z</time>
      </trkpt>
      <trkpt lat="42.30187" lon="-8.80874">
        <ele>116.428</ele>
        <time>2018-07-28T18:12:09Z</time>
      </trkpt>
      <trkpt lat="42.30202" lon="-8.80879">
        <ele>117.026</ele>
        <time>2018-07-28T18:12:10Z</time>
      </trkpt>
      <trkpt lat="42.30218" lon="-8.80879">
        <ele>117.352</ele>
        <time>2018-07-28T18:12:11Z</time>
      </trkpt>
      <trkpt lat="42.3023" lon="-8.80881">
        <ele>117.311</ele>
        <time>2018-07-28T18:12:12Z</time>
      </trkpt>
      <trkpt lat="42.3024" lon="-8.80884">
        <ele>117.221</ele>
        <time>2018-07-28T18:12:13Z</time>
      </trkpt>
      <trkpt lat="42.30252" lon="-8.80883">
        <ele>116.503</ele>
        <time>2018-07-28T18:12:14Z</time>
      </trkpt>
      <trkpt lat="42.30263" lon="-8.80882">
        <ele>115.708</ele>
        <time>2018-07-28T18:12:15Z</time>
      </trkpt>
      <trkpt lat="42.30274" lon="-8.80879">
        <ele>115.223</ele>
        <time>2018-07-28T18:12:16Z</time>
      </trkpt>
      <trkpt lat="42.30286" lon="-8.80871">
        <ele>114.778</ele>
        <time>2018-07-28T18:12:17Z</time>
      </trkpt>
      <trkpt lat="42.303" lon="-8.80867">
        <ele>114.321</ele>
        <time>2018-07-28T18:12:18Z</time>
      </trkpt>
      <trkpt lat="42.30314" lon="-8.80861">
        <ele>114.263</ele>
        <time>2018-07-28T18:12:19Z</time>
      </trkpt>
      <trkpt lat="42.30328" lon="-8.80857">
        <ele>114.168</ele>
        <time>2018-07-28T18:12:20Z</time>
      </trkpt>
      <trkpt lat="42.30343" lon="-8.80856">
        <ele>113.913</ele>
        <time>2018-07-28T18:12:21Z</time>
      </trkpt>
      <trkpt lat="42.30361" lon="-8.80855">
        <ele>113.961</ele>
        <time>2018-07-28T18:12:22Z</time>
      </trkpt>
      <trkpt lat="42.3038" lon="-8.80855">
        <ele>114.387</ele>
        <time>2018-07-28T18:12:23Z</time>
      </trkpt>
      <trkpt lat="42.30399" lon="-8.80855">
        <ele>114.713</ele>
        <time>2018-07-28T18:12:24Z</time>
      </trkpt>
      <trkpt lat="42.30416" lon="-8.80854">
        <ele>114.743</ele>
        <time>2018-07-28T18:12:25Z</time>
      </trkpt>
      <trkpt lat="42.30431" lon="-8.80849">
        <ele>114.407</ele>
        <time>2018-07-28T18:12:26Z</time>
      </trkpt>
      <trkpt lat="42.30449" lon="-8.80839">
        <ele>113.808</ele>
        <time>2018-07-28T18:12:27Z</time>
      </trkpt>
      <trkpt lat="42.30464" lon="-8.8084">
        <ele>113.453</ele>
        <time>2018-07-28T18:12:28Z</time>
      </trkpt>
      <trkpt lat="42.30481" lon="-8.80837">
        <ele>112.638</ele>
        <time>2018-07-28T18:12:29Z</time>
      </trkpt>
      <trkpt lat="42.30498" lon="-8.80835">
        <ele>111.821</ele>
        <time>2018-07-28T18:12:30Z</time>
      </trkpt>
      <trkpt lat="42.30515" lon="-8.80831">
        <ele>111.153</ele>
        <time>2018-07-28T18:12:31Z</time>
      </trkpt>
      <trkpt lat="42.3053" lon="-8.80823">
        <ele>110.538</ele>
        <time>2018-07-28T18:12:32Z</time>
      </trkpt>
      <trkpt lat="42.30544" lon="-8.80813">
        <ele>109.883</ele>
        <time>2018-07-28T18:12:33Z</time>
      </trkpt>
      <trkpt lat="42.30558" lon="-8.80801">
        <ele>109.321</ele>
        <time>2018-07-28T18:12:34Z</time>
      </trkpt>
      <trkpt lat="42.30571" lon="-8.80784">
        <ele>108.917</ele>
        <time>2018-07-28T18:12:35Z</time>
      </trkpt>
      <trkpt lat="42.3058" lon="-8.80767">
        <ele>108.459</ele>
        <time>2018-07-28T18:12:36Z</time>
      </trkpt>
      <trkpt lat="42.3059" lon="-8.80751">
        <ele>107.903</ele>
        <time>2018-07-28T18:12:37Z</time>
      </trkpt>
      <trkpt lat="42.30596" lon="-8.80735">
        <ele>107.023</ele>
        <time>2018-07-28T18:12:38Z</time>
      </trkpt>
      <trkpt lat="42.30597" lon="-8.80718">
        <ele>105.908</ele>
        <time>2018-07-28T18:12:39Z</time>
      </trkpt>
      <trkpt lat="42.30597" lon="-8.80702">
        <ele>103.457</ele>
        <time>2018-07-28T18:12:40Z</time>
      </trkpt>
      <trkpt lat="42.3059" lon="-8.80691">
        <ele>102.022</ele>
        <time>2018-07-28T18:12:41Z</time>
      </trkpt>
      <trkpt lat="42.30579" lon="-8.80684">
        <ele>100.915</ele>
        <time>2018-07-28T18:12:42Z</time>
      </trkpt>
      <trkpt lat="42.30568" lon="-8.80679">
        <ele>100.427</ele>
        <time>2018-07-28T18:12:43Z</time>
      </trkpt>
      <trkpt lat="42.30557" lon="-8.80676">
        <ele>100.292</ele>
        <time>2018-07-28T18:12:44Z</time>
      </trkpt>
      <trkpt lat="42.30548" lon="-8.8067">
        <ele>100.077</ele>
        <time>2018-07-28T18:12:45Z</time>
      </trkpt>
      <trkpt lat="42.3054" lon="-8.80658">
        <ele>99.995</ele>
        <time>2018-07-28T18:12:46Z</time>
      </trkpt>
      <trkpt lat="42.30538" lon="-8.8064">
        <ele>99.651</ele>
        <time>2018-07-28T18:12:47Z</time>
      </trkpt>
      <trkpt lat="42.30538" lon="-8.80621">
        <ele>99.175</ele>
        <time>2018-07-28T18:12:48Z</time>
      </trkpt>
      <trkpt lat="42.30543" lon="-8.80604">
        <ele>98.528</ele>
        <time>2018-07-28T18:12:49Z</time>
      </trkpt>
      <trkpt lat="42.30553" lon="-8.80594">
        <ele>98.02</ele>
        <time>2018-07-28T18:12:50Z</time>
      </trkpt>
      <trkpt lat="42.30568" lon="-8.80587">
        <ele>97.608</ele>
        <time>2018-07-28T18:12:51Z</time>
      </trkpt>
      <trkpt lat="42.30584" lon="-8.80583">
        <ele>97.619</ele>
        <time>2018-07-28T18:12:52Z</time>
      </trkpt>
      <trkpt lat="42.30601" lon="-8.80579">
        <ele>97.744</ele>
        <time>2018-07-28T18:12:53Z</time>
      </trkpt>
      <trkpt lat="42.30617" lon="-8.80575">
        <ele>98.117</ele>
        <time>2018-07-28T18:12:54Z</time>
      </trkpt>
      <trkpt lat="42.30634" lon="-8.80571">
        <ele>99.039</ele>
        <time>2018-07-28T18:12:55Z</time>
      </trkpt>
      <trkpt lat="42.30649" lon="-8.80564">
        <ele>99.474</ele>
        <time>2018-07-28T18:12:56Z</time>
      </trkpt>
      <trkpt lat="42.30663" lon="-8.80556">
        <ele>99.479</ele>
        <time>2018-07-28T18:12:57Z</time>
      </trkpt>
      <trkpt lat="42.30677" lon="-8.8055">
        <ele>99.417</ele>
        <time>2018-07-28T18:12:58Z</time>
      </trkpt>
      <trkpt lat="42.3069" lon="-8.80543">
        <ele>99.493</ele>
        <time>2018-07-28T18:12:59Z</time>
      </trkpt>
      <trkpt lat="42.30701" lon="-8.80536">
        <ele>99.488</ele>
        <time>2018-07-28T18:13:00Z</time>
      </trkpt>
      <trkpt lat="42.30712" lon="-8.80529">
        <ele>99.424</ele>
        <time>2018-07-28T18:13:01Z</time>
      </trkpt>
      <trkpt lat="42.30719" lon="-8.80513">
        <ele>99.426</ele>
        <time>2018-07-28T18:13:02Z</time>
      </trkpt>
      <trkpt lat="42.30726" lon="-8.80497">
        <ele>99.808</ele>
        <time>2018-07-28T18:13:03Z</time>
      </trkpt>
      <trkpt lat="42.30733" lon="-8.80475">
        <ele>100.45</ele>
        <time>2018-07-28T18:13:04Z</time>
      </trkpt>
      <trkpt lat="42.30745" lon="-8.80457">
        <ele>101.285</ele>
        <time>2018-07-28T18:13:05Z</time>
      </trkpt>
      <trkpt lat="42.30759" lon="-8.80444">
        <ele>102.258</ele>
        <time>2018-07-28T18:13:06Z</time>
      </trkpt>
      <trkpt lat="42.30773" lon="-8.80431">
        <ele>103.57</ele>
        <time>2018-07-28T18:13:07Z</time>
      </trkpt>
      <trkpt lat="42.30785" lon="-8.80418">
        <ele>104.345</ele>
        <time>2018-07-28T18:13:08Z</time>
      </trkpt>
      <trkpt lat="42.30799" lon="-8.80404">
        <ele>104.94</ele>
        <time>2018-07-28T18:13:09Z</time>
      </trkpt>
      <trkpt lat="42.30811" lon="-8.80391">
        <ele>105.038</ele>
        <time>2018-07-28T18:13:10Z</time>
      </trkpt>
      <trkpt lat="42.3082" lon="-8.80374">
        <ele>104.944</ele>
        <time>2018-07-28T18:13:11Z</time>
      </trkpt>
      <trkpt lat="42.3083" lon="-8.80353">
        <ele>104.993</ele>
        <time>2018-07-28T18:13:12Z</time>
      </trkpt>
      <trkpt lat="42.30839" lon="-8.8033">
        <ele>105.065</ele>
        <time>2018-07-28T18:13:13Z</time>
      </trkpt>
      <trkpt lat="42.30848" lon="-8.80312">
        <ele>105.321</ele>
        <time>2018-07-28T18:13:14Z</time>
      </trkpt>
      <trkpt lat="42.30856" lon="-8.8029">
        <ele>105.608</ele>
        <time>2018-07-28T18:13:15Z</time>
      </trkpt>
      <trkpt lat="42.3087" lon="-8.80273">
        <ele>105.931</ele>
        <time>2018-07-28T18:13:16Z</time>
      </trkpt>
      <trkpt lat="42.30886" lon="-8.80258">
        <ele>106.356</ele>
        <time>2018-07-28T18:13:17Z</time>
      </trkpt>
      <trkpt lat="42.30901" lon="-8.80244">
        <ele>106.729</ele>
        <time>2018-07-28T18:13:18Z</time>
      </trkpt>
      <trkpt lat="42.30913" lon="-8.8023">
        <ele>106.911</ele>
        <time>2018-07-28T18:13:19Z</time>
      </trkpt>
      <trkpt lat="42.30925" lon="-8.80215">
        <ele>106.986</ele>
        <time>2018-07-28T18:13:20Z</time>
      </trkpt>
      <trkpt lat="42.30934" lon="-8.802">
        <ele>106.991</ele>
        <time>2018-07-28T18:13:21Z</time>
      </trkpt>
      <trkpt lat="42.30942" lon="-8.80186">
        <ele>107.029</ele>
        <time>2018-07-28T18:13:22Z</time>
      </trkpt>
      <trkpt lat="42.30949" lon="-8.8017">
        <ele>107.065</ele>
        <time>2018-07-28T18:13:23Z</time>
      </trkpt>
      <trkpt lat="42.30961" lon="-8.80155">
        <ele>107.068</ele>
        <time>2018-07-28T18:13:24Z</time>
      </trkpt>
      <trkpt lat="42.30972" lon="-8.80144">
        <ele>107.342</ele>
        <time>2018-07-28T18:13:25Z</time>
      </trkpt>
      <trkpt lat="42.30981" lon="-8.80134">
        <ele>107.226</ele>
        <time>2018-07-28T18:13:26Z</time>
      </trkpt>
      <trkpt lat="42.3099" lon="-8.80125">
        <ele>106.608</ele>
        <time>2018-07-28T18:13:27Z</time>
      </trkpt>
      <trkpt lat="42.30998" lon="-8.80116">
        <ele>106.398</ele>
        <time>2018-07-28T18:13:28Z</time>
      </trkpt>
      <trkpt lat="42.31006" lon="-8.80107">
        <ele>105.633</ele>
        <time>2018-07-28T18:13:29Z</time>
      </trkpt>
      <trkpt lat="42.31014" lon="-8.801">
        <ele>105.126</ele>
        <time>2018-07-28T18:13:30Z</time>
      </trkpt>
      <trkpt lat="42.31021" lon="-8.80095">
        <ele>104.778</ele>
        <time>2018-07-28T18:13:31Z</time>
      </trkpt>
      <trkpt lat="42.31028" lon="-8.80091">
        <ele>104.423</ele>
        <time>2018-07-28T18:13:32Z</time>
      </trkpt>
      <trkpt lat="42.31034" lon="-8.80092">
        <ele>104.048</ele>
        <time>2018-07-28T18:13:33Z</time>
      </trkpt>
      <trkpt lat="42.31043" lon="-8.801">
        <ele>103.876</ele>
        <time>2018-07-28T18:13:34Z</time>
      </trkpt>
      <trkpt lat="42.31048" lon="-8.80112">
        <ele>103.822</ele>
        <time>2018-07-28T18:13:35Z</time>
      </trkpt>
      <trkpt lat="42.31047" lon="-8.80126">
        <ele>103.822</ele>
        <time>2018-07-28T18:13:36Z</time>
      </trkpt>
      <trkpt lat="42.31045" lon="-8.80138">
        <ele>104.062</ele>
        <time>2018-07-28T18:13:37Z</time>
      </trkpt>
      <trkpt lat="42.31047" lon="-8.8015">
        <ele>104.408</ele>
        <time>2018-07-28T18:13:38Z</time>
      </trkpt>
      <trkpt lat="42.31052" lon="-8.80167">
        <ele>104.708</ele>
        <time>2018-07-28T18:13:39Z</time>
      </trkpt>
      <trkpt lat="42.31059" lon="-8.80183">
        <ele>105.214</ele>
        <time>2018-07-28T18:13:40Z</time>
      </trkpt>
      <trkpt lat="42.31066" lon="-8.80198">
        <ele>106.869</ele>
        <time>2018-07-28T18:13:41Z</time>
      </trkpt>
      <trkpt lat="42.31072" lon="-8.80212">
        <ele>107.552</ele>
        <time>2018-07-28T18:13:42Z</time>
      </trkpt>
      <trkpt lat="42.3108" lon="-8.80224">
        <ele>108.234</ele>
        <time>2018-07-28T18:13:43Z</time>
      </trkpt>
      <trkpt lat="42.3109" lon="-8.80232">
        <ele>108.619</ele>
        <time>2018-07-28T18:13:44Z</time>
      </trkpt>
      <trkpt lat="42.31099" lon="-8.80243">
        <ele>108.874</ele>
        <time>2018-07-28T18:13:45Z</time>
      </trkpt>
      <trkpt lat="42.31109" lon="-8.80253">
        <ele>109.132</ele>
        <time>2018-07-28T18:13:46Z</time>
      </trkpt>
      <trkpt lat="42.31124" lon="-8.80261">
        <ele>109.218</ele>
        <time>2018-07-28T18:13:47Z</time>
      </trkpt>
      <trkpt lat="42.31136" lon="-8.80269">
        <ele>109.441</ele>
        <time>2018-07-28T18:13:48Z</time>
      </trkpt>
      <trkpt lat="42.31147" lon="-8.80275">
        <ele>109.581</ele>
        <time>2018-07-28T18:13:49Z</time>
      </trkpt>
      <trkpt lat="42.31158" lon="-8.80279">
        <ele>109.609</ele>
        <time>2018-07-28T18:13:50Z</time>
      </trkpt>
      <trkpt lat="42.3117" lon="-8.80281">
        <ele>109.608</ele>
        <time>2018-07-28T18:13:51Z</time>
      </trkpt>
      <trkpt lat="42.31183" lon="-8.80282">
        <ele>109.996</ele>
        <time>2018-07-28T18:13:52Z</time>
      </trkpt>
      <trkpt lat="42.31195" lon="-8.80281">
        <ele>110.271</ele>
        <time>2018-07-28T18:13:53Z</time>
      </trkpt>
      <trkpt lat="42.31208" lon="-8.80282">
        <ele>110.494</ele>
        <time>2018-07-28T18:13:54Z</time>
      </trkpt>
      <trkpt lat="42.3122" lon="-8.80276">
        <ele>110.896</ele>
        <time>2018-07-28T18:13:55Z</time>
      </trkpt>
      <trkpt lat="42.31233" lon="-8.80272">
        <ele>111.091</ele>
        <time>2018-07-28T18:13:56Z</time>
      </trkpt>
      <trkpt lat="42.31244" lon="-8.80267">
        <ele>111.136</ele>
        <time>2018-07-28T18:13:57Z</time>
      </trkpt>
      <trkpt lat="42.31255" lon="-8.80263">
        <ele>111.094</ele>
        <time>2018-07-28T18:13:58Z</time>
      </trkpt>
      <trkpt lat="42.31265" lon="-8.80262">
        <ele>110.95</ele>
        <time>2018-07-28T18:13:59Z</time>
      </trkpt>
      <trkpt lat="42.31277" lon="-8.80262">
        <ele>110.913</ele>
        <time>2018-07-28T18:14:00Z</time>
      </trkpt>
      <trkpt lat="42.31289" lon="-8.80273">
        <ele>110.943</ele>
        <time>2018-07-28T18:14:01Z</time>
      </trkpt>
      <trkpt lat="42.31301" lon="-8.80288">
        <ele>111.307</ele>
        <time>2018-07-28T18:14:02Z</time>
      </trkpt>
      <trkpt lat="42.31313" lon="-8.80302">
        <ele>112.108</ele>
        <time>2018-07-28T18:14:03Z</time>
      </trkpt>
      <trkpt lat="42.31328" lon="-8.80316">
        <ele>112.923</ele>
        <time>2018-07-28T18:14:04Z</time>
      </trkpt>
      <trkpt lat="42.31335" lon="-8.80331">
        <ele>113.728</ele>
        <time>2018-07-28T18:14:05Z</time>
      </trkpt>
      <trkpt lat="42.31348" lon="-8.80342">
        <ele>114.441</ele>
        <time>2018-07-28T18:14:06Z</time>
      </trkpt>
      <trkpt lat="42.31359" lon="-8.80353">
        <ele>114.943</ele>
        <time>2018-07-28T18:14:07Z</time>
      </trkpt>
      <trkpt lat="42.3137" lon="-8.80363">
        <ele>115.088</ele>
        <time>2018-07-28T18:14:08Z</time>
      </trkpt>
      <trkpt lat="42.31379" lon="-8.80372">
        <ele>115.043</ele>
        <time>2018-07-28T18:14:09Z</time>
      </trkpt>
      <trkpt lat="42.31385" lon="-8.80378">
        <ele>115.021</ele>
        <time>2018-07-28T18:14:10Z</time>
      </trkpt>
      <trkpt lat="42.31394" lon="-8.80385">
        <ele>114.967</ele>
        <time>2018-07-28T18:14:11Z</time>
      </trkpt>
      <trkpt lat="42.31403" lon="-8.8039">
        <ele>114.573</ele>
        <time>2018-07-28T18:14:12Z</time>
      </trkpt>
      <trkpt lat="42.31414" lon="-8.80388">
        <ele>114.585</ele>
        <time>2018-07-28T18:14:13Z</time>
      </trkpt>
      <trkpt lat="42.31427" lon="-8.80389">
        <ele>114.613</ele>
        <time>2018-07-28T18:14:14Z</time>
      </trkpt>
      <trkpt lat="42.3144" lon="-8.80388">
        <ele>114.608</ele>
        <time>2018-07-28T18:14:15Z</time>
      </trkpt>
      <trkpt lat="42.31453" lon="-8.80386">
        <ele>114.889</ele>
        <time>2018-07-28T18:14:16Z</time>
      </trkpt>
      <trkpt lat="42.31466" lon="-8.80386">
        <ele>115.114</ele>
        <time>2018-07-28T18:14:17Z</time>
      </trkpt>
      <trkpt lat="42.31478" lon="-8.80383">
        <ele>115.247</ele>
        <time>2018-07-28T18:14:18Z</time>
      </trkpt>
      <trkpt lat="42.3149" lon="-8.80381">
        <ele>115.299</ele>
        <time>2018-07-28T18:14:19Z</time>
      </trkpt>
      <trkpt lat="42.31502" lon="-8.80383">
        <ele>115.084</ele>
        <time>2018-07-28T18:14:20Z</time>
      </trkpt>
      <trkpt lat="42.31511" lon="-8.80388">
        <ele>114.619</ele>
        <time>2018-07-28T18:14:21Z</time>
      </trkpt>
      <trkpt lat="42.31519" lon="-8.80399">
        <ele>114.147</ele>
        <time>2018-07-28T18:14:22Z</time>
      </trkpt>
      <trkpt lat="42.31529" lon="-8.80405">
        <ele>113.623</ele>
        <time>2018-07-28T18:14:23Z</time>
      </trkpt>
      <trkpt lat="42.3154" lon="-8.80405">
        <ele>113.128</ele>
        <time>2018-07-28T18:14:24Z</time>
      </trkpt>
      <trkpt lat="42.3155" lon="-8.80396">
        <ele>112.689</ele>
        <time>2018-07-28T18:14:25Z</time>
      </trkpt>
      <trkpt lat="42.31557" lon="-8.80384">
        <ele>112.117</ele>
        <time>2018-07-28T18:14:26Z</time>
      </trkpt>
      <trkpt lat="42.31566" lon="-8.80369">
        <ele>111.208</ele>
        <time>2018-07-28T18:14:27Z</time>
      </trkpt>
      <trkpt lat="42.31576" lon="-8.80361">
        <ele>111.074</ele>
        <time>2018-07-28T18:14:28Z</time>
      </trkpt>
      <trkpt lat="42.31591" lon="-8.80357">
        <ele>111.049</ele>
        <time>2018-07-28T18:14:29Z</time>
      </trkpt>
      <trkpt lat="42.31606" lon="-8.80356">
        <ele>111.212</ele>
        <time>2018-07-28T18:14:30Z</time>
      </trkpt>
      <trkpt lat="42.31618" lon="-8.80356">
        <ele>111.564</ele>
        <time>2018-07-28T18:14:31Z</time>
      </trkpt>
      <trkpt lat="42.31631" lon="-8.80356">
        <ele>111.529</ele>
        <time>2018-07-28T18:14:32Z</time>
      </trkpt>
      <trkpt lat="42.31644" lon="-8.80358">
        <ele>111.524</ele>
        <time>2018-07-28T18:14:33Z</time>
      </trkpt>
      <trkpt lat="42.31657" lon="-8.80368">
        <ele>111.362</ele>
        <time>2018-07-28T18:14:34Z</time>
      </trkpt>
      <trkpt lat="42.31668" lon="-8.8038">
        <ele>110.878</ele>
        <time>2018-07-28T18:14:35Z</time>
      </trkpt>
      <trkpt lat="42.31676" lon="-8.80398">
        <ele>110.264</ele>
        <time>2018-07-28T18:14:36Z</time>
      </trkpt>
      <trkpt lat="42.31684" lon="-8.80412">
        <ele>109.606</ele>
        <time>2018-07-28T18:14:37Z</time>
      </trkpt>
      <trkpt lat="42.31694" lon="-8.8042">
        <ele>108.916</ele>
        <time>2018-07-28T18:14:38Z</time>
      </trkpt>
      <trkpt lat="42.31705" lon="-8.80426">
        <ele>108.008</ele>
        <time>2018-07-28T18:14:39Z</time>
      </trkpt>
      <trkpt lat="42.31715" lon="-8.80429">
        <ele>107.198</ele>
        <time>2018-07-28T18:14:40Z</time>
      </trkpt>
      <trkpt lat="42.31726" lon="-8.80425">
        <ele>106.243</ele>
        <time>2018-07-28T18:14:41Z</time>
      </trkpt>
      <trkpt lat="42.31737" lon="-8.80421">
        <ele>105.486</ele>
        <time>2018-07-28T18:14:42Z</time>
      </trkpt>
      <trkpt lat="42.31746" lon="-8.80412">
        <ele>104.588</ele>
        <time>2018-07-28T18:14:43Z</time>
      </trkpt>
      <trkpt lat="42.31756" lon="-8.804">
        <ele>104.493</ele>
        <time>2018-07-28T18:14:44Z</time>
      </trkpt>
      <trkpt lat="42.31766" lon="-8.80389">
        <ele>104.238</ele>
        <time>2018-07-28T18:14:45Z</time>
      </trkpt>
      <trkpt lat="42.31777" lon="-8.80385">
        <ele>103.996</ele>
        <time>2018-07-28T18:14:46Z</time>
      </trkpt>
      <trkpt lat="42.3179" lon="-8.80385">
        <ele>103.742</ele>
        <time>2018-07-28T18:14:47Z</time>
      </trkpt>
      <trkpt lat="42.31804" lon="-8.8039">
        <ele>103.424</ele>
        <time>2018-07-28T18:14:48Z</time>
      </trkpt>
      <trkpt lat="42.31817" lon="-8.80391">
        <ele>103.204</ele>
        <time>2018-07-28T18:14:49Z</time>
      </trkpt>
      <trkpt lat="42.31829" lon="-8.8039">
        <ele>103.014</ele>
        <time>2018-07-28T18:14:50Z</time>
      </trkpt>
      <trkpt lat="42.31841" lon="-8.80395">
        <ele>102.708</ele>
        <time>2018-07-28T18:14:51Z</time>
      </trkpt>
      <trkpt lat="42.3185" lon="-8.80409">
        <ele>102.374</ele>
        <time>2018-07-28T18:14:52Z</time>
      </trkpt>
      <trkpt lat="42.31858" lon="-8.80419">
        <ele>101.989</ele>
        <time>2018-07-28T18:14:53Z</time>
      </trkpt>
      <trkpt lat="42.31861" lon="-8.80437">
        <ele>101.552</ele>
        <time>2018-07-28T18:14:54Z</time>
      </trkpt>
      <trkpt lat="42.31861" lon="-8.80455">
        <ele>101.234</ele>
        <time>2018-07-28T18:14:55Z</time>
      </trkpt>
      <trkpt lat="42.31857" lon="-8.80475">
        <ele>101.269</ele>
        <time>2018-07-28T18:14:56Z</time>
      </trkpt>
      <trkpt lat="42.31851" lon="-8.80495">
        <ele>101.454</ele>
        <time>2018-07-28T18:14:57Z</time>
      </trkpt>
      <trkpt lat="42.31846" lon="-8.80516">
        <ele>102.482</ele>
        <time>2018-07-28T18:14:58Z</time>
      </trkpt>
      <trkpt lat="42.31842" lon="-8.80533">
        <ele>102.768</ele>
        <time>2018-07-28T18:14:59Z</time>
      </trkpt>
      <trkpt lat="42.31838" lon="-8.80549">
        <ele>102.816</ele>
        <time>2018-07-28T18:15:00Z</time>
      </trkpt>
      <trkpt lat="42.31834" lon="-8.80567">
        <ele>102.876</ele>
        <time>2018-07-28T18:15:01Z</time>
      </trkpt>
      <trkpt lat="42.31832" lon="-8.80585">
        <ele>102.813</ele>
        <time>2018-07-28T18:15:02Z</time>
      </trkpt>
      <trkpt lat="42.31834" lon="-8.80606">
        <ele>102.808</ele>
        <time>2018-07-28T18:15:03Z</time>
      </trkpt>
      <trkpt lat="42.31842" lon="-8.80625">
        <ele>102.883</ele>
        <time>2018-07-28T18:15:04Z</time>
      </trkpt>
      <trkpt lat="42.31855" lon="-8.80641">
        <ele>102.888</ele>
        <time>2018-07-28T18:15:05Z</time>
      </trkpt>
      <trkpt lat="42.31865" lon="-8.80653">
        <ele>102.621</ele>
        <time>2018-07-28T18:15:06Z</time>
      </trkpt>
      <trkpt lat="42.3188" lon="-8.80664">
        <ele>102.363</ele>
        <time>2018-07-28T18:15:07Z</time>
      </trkpt>
      <trkpt lat="42.31898" lon="-8.80665">
        <ele>102.018</ele>
        <time>2018-07-28T18:15:08Z</time>
      </trkpt>
      <trkpt lat="42.31916" lon="-8.80665">
        <ele>102.093</ele>
        <time>2018-07-28T18:15:09Z</time>
      </trkpt>
      <trkpt lat="42.31932" lon="-8.80663">
        <ele>102.511</ele>
        <time>2018-07-28T18:15:10Z</time>
      </trkpt>
      <trkpt lat="42.31949" lon="-8.80662">
        <ele>103.177</ele>
        <time>2018-07-28T18:15:11Z</time>
      </trkpt>
      <trkpt lat="42.31963" lon="-8.80662">
        <ele>103.645</ele>
        <time>2018-07-28T18:15:12Z</time>
      </trkpt>
      <trkpt lat="42.31979" lon="-8.80655">
        <ele>103.947</ele>
        <time>2018-07-28T18:15:13Z</time>
      </trkpt>
      <trkpt lat="42.31994" lon="-8.80651">
        <ele>103.711</ele>
        <time>2018-07-28T18:15:14Z</time>
      </trkpt>
      <trkpt lat="42.32009" lon="-8.80648">
        <ele>103.708</ele>
        <time>2018-07-28T18:15:15Z</time>
      </trkpt>
      <trkpt lat="42.32025" lon="-8.80638">
        <ele>103.826</ele>
        <time>2018-07-28T18:15:16Z</time>
      </trkpt>
      <trkpt lat="42.32038" lon="-8.80624">
        <ele>103.831</ele>
        <time>2018-07-28T18:15:17Z</time>
      </trkpt>
      <trkpt lat="42.32051" lon="-8.80609">
        <ele>103.764</ele>
        <time>2018-07-28T18:15:18Z</time>
      </trkpt>
      <trkpt lat="42.32064" lon="-8.80595">
        <ele>103.436</ele>
        <time>2018-07-28T18:15:19Z</time>
      </trkpt>
      <trkpt lat="42.32073" lon="-8.80581">
        <ele>102.871</ele>
        <time>2018-07-28T18:15:20Z</time>
      </trkpt>
      <trkpt lat="42.32082" lon="-8.80562">
        <ele>102.216</ele>
        <time>2018-07-28T18:15:21Z</time>
      </trkpt>
      <trkpt lat="42.32089" lon="-8.80547">
        <ele>101.864</ele>
        <time>2018-07-28T18:15:22Z</time>
      </trkpt>
      <trkpt lat="42.32094" lon="-8.80527">
        <ele>101.75</ele>
        <time>2018-07-28T18:15:23Z</time>
      </trkpt>
      <trkpt lat="42.32102" lon="-8.80514">
        <ele>101.783</ele>
        <time>2018-07-28T18:15:24Z</time>
      </trkpt>
      <trkpt lat="42.32113" lon="-8.80501">
        <ele>101.725</ele>
        <time>2018-07-28T18:15:25Z</time>
      </trkpt>
      <trkpt lat="42.32127" lon="-8.80497">
        <ele>101.717</ele>
        <time>2018-07-28T18:15:26Z</time>
      </trkpt>
      <trkpt lat="42.3214" lon="-8.80503">
        <ele>101.508</ele>
        <time>2018-07-28T18:15:27Z</time>
      </trkpt>
      <trkpt lat="42.32154" lon="-8.80512">
        <ele>101.53</ele>
        <time>2018-07-28T18:15:28Z</time>
      </trkpt>
      <trkpt lat="42.32166" lon="-8.80519">
        <ele>101.995</ele>
        <time>2018-07-28T18:15:29Z</time>
      </trkpt>
      <trkpt lat="42.32178" lon="-8.80523">
        <ele>102.058</ele>
        <time>2018-07-28T18:15:30Z</time>
      </trkpt>
      <trkpt lat="42.32193" lon="-8.80525">
        <ele>102.04</ele>
        <time>2018-07-28T18:15:31Z</time>
      </trkpt>
      <trkpt lat="42.32204" lon="-8.80512">
        <ele>102.075</ele>
        <time>2018-07-28T18:15:32Z</time>
      </trkpt>
      <trkpt lat="42.32216" lon="-8.80495">
        <ele>102.02</ele>
        <time>2018-07-28T18:15:33Z</time>
      </trkpt>
      <trkpt lat="42.32228" lon="-8.8048">
        <ele>102.028</ele>
        <time>2018-07-28T18:15:34Z</time>
      </trkpt>
      <trkpt lat="42.32239" lon="-8.80466">
        <ele>102.024</ele>
        <time>2018-07-28T18:15:35Z</time>
      </trkpt>
      <trkpt lat="42.3225" lon="-8.80456">
        <ele>102.015</ele>
        <time>2018-07-28T18:15:36Z</time>
      </trkpt>
      <trkpt lat="42.32263" lon="-8.80447">
        <ele>102.065</ele>
        <time>2018-07-28T18:15:37Z</time>
      </trkpt>
      <trkpt lat="42.32276" lon="-8.80442">
        <ele>101.711</ele>
        <time>2018-07-28T18:15:38Z</time>
      </trkpt>
      <trkpt lat="42.32288" lon="-8.80441">
        <ele>101.008</ele>
        <time>2018-07-28T18:15:39Z</time>
      </trkpt>
      <trkpt lat="42.323" lon="-8.80446">
        <ele>100.613</ele>
        <time>2018-07-28T18:15:40Z</time>
      </trkpt>
      <trkpt lat="42.32312" lon="-8.8045">
        <ele>99.978</ele>
        <time>2018-07-28T18:15:41Z</time>
      </trkpt>
      <trkpt lat="42.32325" lon="-8.80458">
        <ele>99.491</ele>
        <time>2018-07-28T18:15:42Z</time>
      </trkpt>
      <trkpt lat="42.32338" lon="-8.80466">
        <ele>99.463</ele>
        <time>2018-07-28T18:15:43Z</time>
      </trkpt>
      <trkpt lat="42.32349" lon="-8.80479">
        <ele>100.178</ele>
        <time>2018-07-28T18:15:44Z</time>
      </trkpt>
      <trkpt lat="42.32363" lon="-8.80491">
        <ele>100.493</ele>
        <time>2018-07-28T18:15:45Z</time>
      </trkpt>
      <trkpt lat="42.32376" lon="-8.80501">
        <ele>100.791</ele>
        <time>2018-07-28T18:15:46Z</time>
      </trkpt>
      <trkpt lat="42.32388" lon="-8.8051">
        <ele>100.957</ele>
        <time>2018-07-28T18:15:47Z</time>
      </trkpt>
      <trkpt lat="42.324" lon="-8.80521">
        <ele>101.038</ele>
        <time>2018-07-28T18:15:48Z</time>
      </trkpt>
      <trkpt lat="42.32411" lon="-8.80533">
        <ele>101.17</ele>
        <time>2018-07-28T18:15:49Z</time>
      </trkpt>
      <trkpt lat="42.32423" lon="-8.80545">
        <ele>101.117</ele>
        <time>2018-07-28T18:15:50Z</time>
      </trkpt>
      <trkpt lat="42.32435" lon="-8.80553">
        <ele>101.408</ele>
        <time>2018-07-28T18:15:51Z</time>
      </trkpt>
      <trkpt lat="42.32445" lon="-8.80562">
        <ele>101.555</ele>
        <time>2018-07-28T18:15:52Z</time>
      </trkpt>
      <trkpt lat="42.32454" lon="-8.80569">
        <ele>101.57</ele>
        <time>2018-07-28T18:15:53Z</time>
      </trkpt>
      <trkpt lat="42.32462" lon="-8.80575">
        <ele>101.523</ele>
        <time>2018-07-28T18:15:54Z</time>
      </trkpt>
      <trkpt lat="42.32473" lon="-8.80583">
        <ele>101.635</ele>
        <time>2018-07-28T18:15:55Z</time>
      </trkpt>
      <trkpt lat="42.32483" lon="-8.80586">
        <ele>101.77</ele>
        <time>2018-07-28T18:15:56Z</time>
      </trkpt>
      <trkpt lat="42.32494" lon="-8.80585">
        <ele>101.825</ele>
        <time>2018-07-28T18:15:57Z</time>
      </trkpt>
      <trkpt lat="42.32505" lon="-8.80588">
        <ele>102.143</ele>
        <time>2018-07-28T18:15:58Z</time>
      </trkpt>
      <trkpt lat="42.32513" lon="-8.80599">
        <ele>102.789</ele>
        <time>2018-07-28T18:15:59Z</time>
      </trkpt>
      <trkpt lat="42.32525" lon="-8.80611">
        <ele>103.672</ele>
        <time>2018-07-28T18:16:00Z</time>
      </trkpt>
      <trkpt lat="42.32533" lon="-8.80623">
        <ele>104.213</ele>
        <time>2018-07-28T18:16:01Z</time>
      </trkpt>
      <trkpt lat="42.3254" lon="-8.80638">
        <ele>104.614</ele>
        <time>2018-07-28T18:16:02Z</time>
      </trkpt>
      <trkpt lat="42.32548" lon="-8.80653">
        <ele>104.908</ele>
        <time>2018-07-28T18:16:03Z</time>
      </trkpt>
      <trkpt lat="42.32556" lon="-8.80669">
        <ele>105.779</ele>
        <time>2018-07-28T18:16:04Z</time>
      </trkpt>
      <trkpt lat="42.32564" lon="-8.80683">
        <ele>106.294</ele>
        <time>2018-07-28T18:16:05Z</time>
      </trkpt>
      <trkpt lat="42.32571" lon="-8.80696">
        <ele>106.377</ele>
        <time>2018-07-28T18:16:06Z</time>
      </trkpt>
      <trkpt lat="42.32577" lon="-8.8071">
        <ele>106.389</ele>
        <time>2018-07-28T18:16:07Z</time>
      </trkpt>
      <trkpt lat="42.32581" lon="-8.8072">
        <ele>106.164</ele>
        <time>2018-07-28T18:16:08Z</time>
      </trkpt>
      <trkpt lat="42.32588" lon="-8.80732">
        <ele>105.639</ele>
        <time>2018-07-28T18:16:09Z</time>
      </trkpt>
      <trkpt lat="42.3259" lon="-8.80738">
        <ele>105.097</ele>
        <time>2018-07-28T18:16:10Z</time>
      </trkpt>
      <trkpt lat="42.32595" lon="-8.80744">
        <ele>104.643</ele>
        <time>2018-07-28T18:16:11Z</time>
      </trkpt>
      <trkpt lat="42.32599" lon="-8.80751">
        <ele>103.982</ele>
        <time>2018-07-28T18:16:13Z</time>
      </trkpt>
      <trkpt lat="42.32604" lon="-8.8075">
        <ele>103.143</ele>
        <time>2018-07-28T18:16:15Z</time>
      </trkpt>
      <trkpt lat="42.32607" lon="-8.80754">
        <ele>102.917</ele>
        <time>2018-07-28T18:16:16Z</time>
      </trkpt>
      <trkpt lat="42.32612" lon="-8.80762">
        <ele>102.808</ele>
        <time>2018-07-28T18:16:18Z</time>
      </trkpt>
      <trkpt lat="42.32615" lon="-8.80767">
        <ele>102.67</ele>
        <time>2018-07-28T18:16:20Z</time>
      </trkpt>
      <trkpt lat="42.32623" lon="-8.8077">
        <ele>102.485</ele>
        <time>2018-07-28T18:16:22Z</time>
      </trkpt>
      <trkpt lat="42.32627" lon="-8.80771">
        <ele>102.348</ele>
        <time>2018-07-28T18:16:23Z</time>
      </trkpt>
      <trkpt lat="42.32633" lon="-8.80768">
        <ele>102.22</ele>
        <time>2018-07-28T18:16:24Z</time>
      </trkpt>
      <trkpt lat="42.3264" lon="-8.80766">
        <ele>102.285</ele>
        <time>2018-07-28T18:16:25Z</time>
      </trkpt>
      <trkpt lat="42.32647" lon="-8.80765">
        <ele>102.24</ele>
        <time>2018-07-28T18:16:26Z</time>
      </trkpt>
      <trkpt lat="42.32655" lon="-8.80767">
        <ele>102.248</ele>
        <time>2018-07-28T18:16:27Z</time>
      </trkpt>
      <trkpt lat="42.32661" lon="-8.80764">
        <ele>102.254</ele>
        <time>2018-07-28T18:16:28Z</time>
      </trkpt>
      <trkpt lat="42.32668" lon="-8.80764">
        <ele>102.122</ele>
        <time>2018-07-28T18:16:29Z</time>
      </trkpt>
      <trkpt lat="42.32674" lon="-8.80761">
        <ele>101.762</ele>
        <time>2018-07-28T18:16:30Z</time>
      </trkpt>
      <trkpt lat="42.3268" lon="-8.80762">
        <ele>101.408</ele>
        <time>2018-07-28T18:16:31Z</time>
      </trkpt>
      <trkpt lat="42.32689" lon="-8.80759">
        <ele>101.208</ele>
        <time>2018-07-28T18:16:32Z</time>
      </trkpt>
      <trkpt lat="42.32699" lon="-8.80757">
        <ele>101.044</ele>
        <time>2018-07-28T18:16:33Z</time>
      </trkpt>
      <trkpt lat="42.32708" lon="-8.80754">
        <ele>100.999</ele>
        <time>2018-07-28T18:16:34Z</time>
      </trkpt>
      <trkpt lat="42.32718" lon="-8.80748">
        <ele>100.892</ele>
        <time>2018-07-28T18:16:35Z</time>
      </trkpt>
      <trkpt lat="42.32727" lon="-8.80746">
        <ele>100.634</ele>
        <time>2018-07-28T18:16:36Z</time>
      </trkpt>
      <trkpt lat="42.32738" lon="-8.80745">
        <ele>100.479</ele>
        <time>2018-07-28T18:16:37Z</time>
      </trkpt>
      <trkpt lat="42.32748" lon="-8.80741">
        <ele>100.244</ele>
        <time>2018-07-28T18:16:38Z</time>
      </trkpt>
      <trkpt lat="42.32759" lon="-8.80739">
        <ele>100.162</ele>
        <time>2018-07-28T18:16:39Z</time>
      </trkpt>
      <trkpt lat="42.32771" lon="-8.80739">
        <ele>99.978</ele>
        <time>2018-07-28T18:16:40Z</time>
      </trkpt>
      <trkpt lat="42.32782" lon="-8.80737">
        <ele>99.734</ele>
        <time>2018-07-28T18:16:41Z</time>
      </trkpt>
      <trkpt lat="42.32793" lon="-8.80733">
        <ele>99.555</ele>
        <time>2018-07-28T18:16:42Z</time>
      </trkpt>
      <trkpt lat="42.32805" lon="-8.80729">
        <ele>99.21</ele>
        <time>2018-07-28T18:16:43Z</time>
      </trkpt>
      <trkpt lat="42.32818" lon="-8.80727">
        <ele>98.908</ele>
        <time>2018-07-28T18:16:44Z</time>
      </trkpt>
      <trkpt lat="42.32832" lon="-8.80725">
        <ele>98.865</ele>
        <time>2018-07-28T18:16:45Z</time>
      </trkpt>
      <trkpt lat="42.32846" lon="-8.80722">
        <ele>98.75</ele>
        <time>2018-07-28T18:16:46Z</time>
      </trkpt>
      <trkpt lat="42.3286" lon="-8.80719">
        <ele>98.853</ele>
        <time>2018-07-28T18:16:47Z</time>
      </trkpt>
      <trkpt lat="42.32875" lon="-8.80715">
        <ele>98.865</ele>
        <time>2018-07-28T18:16:48Z</time>
      </trkpt>
      <trkpt lat="42.32892" lon="-8.80712">
        <ele>98.87</ele>
        <time>2018-07-28T18:16:49Z</time>
      </trkpt>
      <trkpt lat="42.32906" lon="-8.80709">
        <ele>98.775</ele>
        <time>2018-07-28T18:16:50Z</time>
      </trkpt>
      <trkpt lat="42.3292" lon="-8.80706">
        <ele>98.683</ele>
        <time>2018-07-28T18:16:51Z</time>
      </trkpt>
      <trkpt lat="42.32934" lon="-8.80702">
        <ele>98.229</ele>
        <time>2018-07-28T18:16:52Z</time>
      </trkpt>
      <trkpt lat="42.32947" lon="-8.80701">
        <ele>97.835</ele>
        <time>2018-07-28T18:16:53Z</time>
      </trkpt>
      <trkpt lat="42.32961" lon="-8.80699">
        <ele>97.786</ele>
        <time>2018-07-28T18:16:54Z</time>
      </trkpt>
      <trkpt lat="42.32974" lon="-8.80697">
        <ele>97.214</ele>
        <time>2018-07-28T18:16:55Z</time>
      </trkpt>
      <trkpt lat="42.32987" lon="-8.80695">
        <ele>96.808</ele>
        <time>2018-07-28T18:16:56Z</time>
      </trkpt>
      <trkpt lat="42.32999" lon="-8.80692">
        <ele>96.555</ele>
        <time>2018-07-28T18:16:57Z</time>
      </trkpt>
      <trkpt lat="42.3301" lon="-8.80693">
        <ele>96.37</ele>
        <time>2018-07-28T18:16:58Z</time>
      </trkpt>
      <trkpt lat="42.33024" lon="-8.8069">
        <ele>95.843</ele>
        <time>2018-07-28T18:16:59Z</time>
      </trkpt>
      <trkpt lat="42.33038" lon="-8.80685">
        <ele>95.675</ele>
        <time>2018-07-28T18:17:00Z</time>
      </trkpt>
      <trkpt lat="42.33052" lon="-8.80682">
        <ele>95.27</ele>
        <time>2018-07-28T18:17:01Z</time>
      </trkpt>
      <trkpt lat="42.33066" lon="-8.80678">
        <ele>94.995</ele>
        <time>2018-07-28T18:17:02Z</time>
      </trkpt>
      <trkpt lat="42.33081" lon="-8.80676">
        <ele>94.763</ele>
        <time>2018-07-28T18:17:03Z</time>
      </trkpt>
      <trkpt lat="42.33096" lon="-8.80672">
        <ele>94.679</ele>
        <time>2018-07-28T18:17:04Z</time>
      </trkpt>
      <trkpt lat="42.33111" lon="-8.80669">
        <ele>94.392</ele>
        <time>2018-07-28T18:17:05Z</time>
      </trkpt>
      <trkpt lat="42.33128" lon="-8.80665">
        <ele>93.873</ele>
        <time>2018-07-28T18:17:06Z</time>
      </trkpt>
      <trkpt lat="42.33142" lon="-8.80658">
        <ele>93.32</ele>
        <time>2018-07-28T18:17:07Z</time>
      </trkpt>
      <trkpt lat="42.33158" lon="-8.80653">
        <ele>92.808</ele>
        <time>2018-07-28T18:17:08Z</time>
      </trkpt>
      <trkpt lat="42.33168" lon="-8.80643">
        <ele>92.341</ele>
        <time>2018-07-28T18:17:09Z</time>
      </trkpt>
      <trkpt lat="42.33179" lon="-8.80629">
        <ele>91.966</ele>
        <time>2018-07-28T18:17:10Z</time>
      </trkpt>
      <trkpt lat="42.33187" lon="-8.80611">
        <ele>91.779</ele>
        <time>2018-07-28T18:17:11Z</time>
      </trkpt>
      <trkpt lat="42.33192" lon="-8.8059">
        <ele>91.791</ele>
        <time>2018-07-28T18:17:12Z</time>
      </trkpt>
      <trkpt lat="42.33195" lon="-8.80571">
        <ele>91.616</ele>
        <time>2018-07-28T18:17:13Z</time>
      </trkpt>
      <trkpt lat="42.33194" lon="-8.80552">
        <ele>91.481</ele>
        <time>2018-07-28T18:17:14Z</time>
      </trkpt>
      <trkpt lat="42.33188" lon="-8.80536">
        <ele>91.179</ele>
        <time>2018-07-28T18:17:15Z</time>
      </trkpt>
      <trkpt lat="42.3318" lon="-8.8052">
        <ele>90.795</ele>
        <time>2018-07-28T18:17:16Z</time>
      </trkpt>
      <trkpt lat="42.33171" lon="-8.80505">
        <ele>90.581</ele>
        <time>2018-07-28T18:17:17Z</time>
      </trkpt>
      <trkpt lat="42.33164" lon="-8.8049">
        <ele>90.261</ele>
        <time>2018-07-28T18:17:18Z</time>
      </trkpt>
      <trkpt lat="42.33155" lon="-8.80477">
        <ele>89.717</ele>
        <time>2018-07-28T18:17:19Z</time>
      </trkpt>
      <trkpt lat="42.33147" lon="-8.80463">
        <ele>88.908</ele>
        <time>2018-07-28T18:17:20Z</time>
      </trkpt>
      <trkpt lat="42.33139" lon="-8.80451">
        <ele>88.23</ele>
        <time>2018-07-28T18:17:21Z</time>
      </trkpt>
      <trkpt lat="42.3313" lon="-8.80439">
        <ele>87.335</ele>
        <time>2018-07-28T18:17:22Z</time>
      </trkpt>
      <trkpt lat="42.33119" lon="-8.80434">
        <ele>86.538</ele>
        <time>2018-07-28T18:17:23Z</time>
      </trkpt>
      <trkpt lat="42.33106" lon="-8.80432">
        <ele>85.96</ele>
        <time>2018-07-28T18:17:24Z</time>
      </trkpt>
      <trkpt lat="42.33094" lon="-8.80428">
        <ele>85.365</ele>
        <time>2018-07-28T18:17:25Z</time>
      </trkpt>
      <trkpt lat="42.33083" lon="-8.80427">
        <ele>84.68</ele>
        <time>2018-07-28T18:17:26Z</time>
      </trkpt>
      <trkpt lat="42.33071" lon="-8.80425">
        <ele>83.968</ele>
        <time>2018-07-28T18:17:27Z</time>
      </trkpt>
      <trkpt lat="42.33062" lon="-8.80417">
        <ele>83.174</ele>
        <time>2018-07-28T18:17:28Z</time>
      </trkpt>
      <trkpt lat="42.33059" lon="-8.80403">
        <ele>82.248</ele>
        <time>2018-07-28T18:17:29Z</time>
      </trkpt>
      <trkpt lat="42.33056" lon="-8.80384">
        <ele>81.361</ele>
        <time>2018-07-28T18:17:30Z</time>
      </trkpt>
      <trkpt lat="42.3306" lon="-8.80366">
        <ele>79.717</ele>
        <time>2018-07-28T18:17:31Z</time>
      </trkpt>
      <trkpt lat="42.33062" lon="-8.80349">
        <ele>79.208</ele>
        <time>2018-07-28T18:17:32Z</time>
      </trkpt>
      <trkpt lat="42.33062" lon="-8.80333">
        <ele>78.726</ele>
        <time>2018-07-28T18:17:33Z</time>
      </trkpt>
      <trkpt lat="42.33063" lon="-8.80317">
        <ele>78.321</ele>
        <time>2018-07-28T18:17:34Z</time>
      </trkpt>
      <trkpt lat="42.33062" lon="-8.80302">
        <ele>77.874</ele>
        <time>2018-07-28T18:17:35Z</time>
      </trkpt>
      <trkpt lat="42.33063" lon="-8.80287">
        <ele>77.176</ele>
        <time>2018-07-28T18:17:36Z</time>
      </trkpt>
      <trkpt lat="42.33065" lon="-8.80271">
        <ele>76.421</ele>
        <time>2018-07-28T18:17:37Z</time>
      </trkpt>
      <trkpt lat="42.33065" lon="-8.80256">
        <ele>75.846</ele>
        <time>2018-07-28T18:17:38Z</time>
      </trkpt>
      <trkpt lat="42.33067" lon="-8.80241">
        <ele>75.234</ele>
        <time>2018-07-28T18:17:39Z</time>
      </trkpt>
      <trkpt lat="42.33067" lon="-8.80228">
        <ele>74.65</ele>
        <time>2018-07-28T18:17:40Z</time>
      </trkpt>
      <trkpt lat="42.33064" lon="-8.80217">
        <ele>74.186</ele>
        <time>2018-07-28T18:17:41Z</time>
      </trkpt>
      <trkpt lat="42.33059" lon="-8.80206">
        <ele>73.76</ele>
        <time>2018-07-28T18:17:42Z</time>
      </trkpt>
      <trkpt lat="42.33049" lon="-8.80197">
        <ele>73.426</ele>
        <time>2018-07-28T18:17:43Z</time>
      </trkpt>
      <trkpt lat="42.33039" lon="-8.8019">
        <ele>73.208</ele>
        <time>2018-07-28T18:17:44Z</time>
      </trkpt>
      <trkpt lat="42.33028" lon="-8.80185">
        <ele>73.13</ele>
        <time>2018-07-28T18:17:45Z</time>
      </trkpt>
      <trkpt lat="42.33014" lon="-8.80182">
        <ele>73.195</ele>
        <time>2018-07-28T18:17:46Z</time>
      </trkpt>
      <trkpt lat="42.33002" lon="-8.80187">
        <ele>72.968</ele>
        <time>2018-07-28T18:17:47Z</time>
      </trkpt>
      <trkpt lat="42.32988" lon="-8.80196">
        <ele>72.99</ele>
        <time>2018-07-28T18:17:48Z</time>
      </trkpt>
      <trkpt lat="42.32975" lon="-8.80205">
        <ele>72.995</ele>
        <time>2018-07-28T18:17:49Z</time>
      </trkpt>
      <trkpt lat="42.32963" lon="-8.80215">
        <ele>73.02</ele>
        <time>2018-07-28T18:17:50Z</time>
      </trkpt>
      <trkpt lat="42.32952" lon="-8.80223">
        <ele>73.038</ele>
        <time>2018-07-28T18:17:51Z</time>
      </trkpt>
      <trkpt lat="42.3294" lon="-8.80233">
        <ele>72.944</ele>
        <time>2018-07-28T18:17:52Z</time>
      </trkpt>
      <trkpt lat="42.3293" lon="-8.80239">
        <ele>72.958</ele>
        <time>2018-07-28T18:17:53Z</time>
      </trkpt>
      <trkpt lat="42.32917" lon="-8.8025">
        <ele>72.952</ele>
        <time>2018-07-28T18:17:54Z</time>
      </trkpt>
      <trkpt lat="42.32905" lon="-8.80256">
        <ele>72.917</ele>
        <time>2018-07-28T18:17:55Z</time>
      </trkpt>
      <trkpt lat="42.32891" lon="-8.80261">
        <ele>73.008</ele>
        <time>2018-07-28T18:17:56Z</time>
      </trkpt>
      <trkpt lat="42.32872" lon="-8.80256">
        <ele>73.237</ele>
        <time>2018-07-28T18:17:57Z</time>
      </trkpt>
      <trkpt lat="42.32856" lon="-8.80252">
        <ele>73.422</ele>
        <time>2018-07-28T18:17:58Z</time>
      </trkpt>
      <trkpt lat="42.3284" lon="-8.8025">
        <ele>73.535</ele>
        <time>2018-07-28T18:17:59Z</time>
      </trkpt>
      <trkpt lat="42.32824" lon="-8.80247">
        <ele>73.587</ele>
        <time>2018-07-28T18:18:00Z</time>
      </trkpt>
      <trkpt lat="42.3281" lon="-8.80244">
        <ele>73.342</ele>
        <time>2018-07-28T18:18:01Z</time>
      </trkpt>
      <trkpt lat="42.32797" lon="-8.80242">
        <ele>72.957</ele>
        <time>2018-07-28T18:18:02Z</time>
      </trkpt>
      <trkpt lat="42.32783" lon="-8.8024">
        <ele>71.435</ele>
        <time>2018-07-28T18:18:03Z</time>
      </trkpt>
      <trkpt lat="42.32771" lon="-8.80236">
        <ele>70.641</ele>
        <time>2018-07-28T18:18:04Z</time>
      </trkpt>
      <trkpt lat="42.3276" lon="-8.80229">
        <ele>69.618</ele>
        <time>2018-07-28T18:18:05Z</time>
      </trkpt>
      <trkpt lat="42.3275" lon="-8.80213">
        <ele>68.898</ele>
        <time>2018-07-28T18:18:06Z</time>
      </trkpt>
      <trkpt lat="42.32745" lon="-8.80191">
        <ele>68.317</ele>
        <time>2018-07-28T18:18:07Z</time>
      </trkpt>
      <trkpt lat="42.32737" lon="-8.80171">
        <ele>68.008</ele>
        <time>2018-07-28T18:18:08Z</time>
      </trkpt>
      <trkpt lat="42.32729" lon="-8.80152">
        <ele>67.813</ele>
        <time>2018-07-28T18:18:09Z</time>
      </trkpt>
      <trkpt lat="42.3272" lon="-8.80132">
        <ele>67.628</ele>
        <time>2018-07-28T18:18:10Z</time>
      </trkpt>
      <trkpt lat="42.32712" lon="-8.80117">
        <ele>67.221</ele>
        <time>2018-07-28T18:18:11Z</time>
      </trkpt>
      <trkpt lat="42.32703" lon="-8.80098">
        <ele>66.513</ele>
        <time>2018-07-28T18:18:12Z</time>
      </trkpt>
      <trkpt lat="42.32694" lon="-8.80083">
        <ele>65.648</ele>
        <time>2018-07-28T18:18:13Z</time>
      </trkpt>
      <trkpt lat="42.32684" lon="-8.80074">
        <ele>64.663</ele>
        <time>2018-07-28T18:18:14Z</time>
      </trkpt>
      <trkpt lat="42.32675" lon="-8.80063">
        <ele>63.811</ele>
        <time>2018-07-28T18:18:15Z</time>
      </trkpt>
      <trkpt lat="42.32664" lon="-8.80052">
        <ele>63.377</ele>
        <time>2018-07-28T18:18:16Z</time>
      </trkpt>
      <trkpt lat="42.3266" lon="-8.80038">
        <ele>62.146</ele>
        <time>2018-07-28T18:18:17Z</time>
      </trkpt>
      <trkpt lat="42.32659" lon="-8.80018">
        <ele>61.688</ele>
        <time>2018-07-28T18:18:18Z</time>
      </trkpt>
      <trkpt lat="42.32661" lon="-8.8">
        <ele>61.216</ele>
        <time>2018-07-28T18:18:19Z</time>
      </trkpt>
      <trkpt lat="42.32664" lon="-8.79981">
        <ele>60.608</ele>
        <time>2018-07-28T18:18:20Z</time>
      </trkpt>
      <trkpt lat="42.32667" lon="-8.79964">
        <ele>60.036</ele>
        <time>2018-07-28T18:18:21Z</time>
      </trkpt>
      <trkpt lat="42.3267" lon="-8.79947">
        <ele>59.591</ele>
        <time>2018-07-28T18:18:22Z</time>
      </trkpt>
      <trkpt lat="42.32672" lon="-8.79929">
        <ele>58.934</ele>
        <time>2018-07-28T18:18:23Z</time>
      </trkpt>
      <trkpt lat="42.32678" lon="-8.79915">
        <ele>58.486</ele>
        <time>2018-07-28T18:18:24Z</time>
      </trkpt>
      <trkpt lat="42.32686" lon="-8.79904">
        <ele>57.921</ele>
        <time>2018-07-28T18:18:25Z</time>
      </trkpt>
      <trkpt lat="42.32697" lon="-8.799">
        <ele>57.566</ele>
        <time>2018-07-28T18:18:26Z</time>
      </trkpt>
      <trkpt lat="42.32708" lon="-8.79898">
        <ele>57.214</ele>
        <time>2018-07-28T18:18:27Z</time>
      </trkpt>
      <trkpt lat="42.32723" lon="-8.79902">
        <ele>57.14</ele>
        <time>2018-07-28T18:18:28Z</time>
      </trkpt>
      <trkpt lat="42.32737" lon="-8.79906">
        <ele>56.857</ele>
        <time>2018-07-28T18:18:29Z</time>
      </trkpt>
      <trkpt lat="42.32751" lon="-8.79913">
        <ele>56.7</ele>
        <time>2018-07-28T18:18:30Z</time>
      </trkpt>
      <trkpt lat="42.32762" lon="-8.79925">
        <ele>56.72</ele>
        <time>2018-07-28T18:18:31Z</time>
      </trkpt>
      <trkpt lat="42.32775" lon="-8.79929">
        <ele>56.908</ele>
        <time>2018-07-28T18:18:32Z</time>
      </trkpt>
      <trkpt lat="42.32788" lon="-8.79934">
        <ele>56.867</ele>
        <time>2018-07-28T18:18:33Z</time>
      </trkpt>
      <trkpt lat="42.32799" lon="-8.79938">
        <ele>56.692</ele>
        <time>2018-07-28T18:18:34Z</time>
      </trkpt>
      <trkpt lat="42.3281" lon="-8.79944">
        <ele>56.235</ele>
        <time>2018-07-28T18:18:35Z</time>
      </trkpt>
      <trkpt lat="42.32822" lon="-8.79946">
        <ele>55.867</ele>
        <time>2018-07-28T18:18:36Z</time>
      </trkpt>
      <trkpt lat="42.32833" lon="-8.79951">
        <ele>55.432</ele>
        <time>2018-07-28T18:18:37Z</time>
      </trkpt>
      <trkpt lat="42.32845" lon="-8.79957">
        <ele>55.397</ele>
        <time>2018-07-28T18:18:38Z</time>
      </trkpt>
      <trkpt lat="42.32857" lon="-8.79953">
        <ele>55.285</ele>
        <time>2018-07-28T18:18:39Z</time>
      </trkpt>
      <trkpt lat="42.32871" lon="-8.79939">
        <ele>55.251</ele>
        <time>2018-07-28T18:18:40Z</time>
      </trkpt>
      <trkpt lat="42.3288" lon="-8.79924">
        <ele>54.717</ele>
        <time>2018-07-28T18:18:41Z</time>
      </trkpt>
      <trkpt lat="42.3289" lon="-8.79911">
        <ele>54.087</ele>
        <time>2018-07-28T18:18:42Z</time>
      </trkpt>
      <trkpt lat="42.32895" lon="-8.79896">
        <ele>53.115</ele>
        <time>2018-07-28T18:18:43Z</time>
      </trkpt>
      <trkpt lat="42.32896" lon="-8.79877">
        <ele>52.208</ele>
        <time>2018-07-28T18:18:44Z</time>
      </trkpt>
      <trkpt lat="42.32897" lon="-8.7986">
        <ele>51.173</ele>
        <time>2018-07-28T18:18:45Z</time>
      </trkpt>
      <trkpt lat="42.32896" lon="-8.79845">
        <ele>50.348</ele>
        <time>2018-07-28T18:18:46Z</time>
      </trkpt>
      <trkpt lat="42.32893" lon="-8.7983">
        <ele>49.481</ele>
        <time>2018-07-28T18:18:47Z</time>
      </trkpt>
      <trkpt lat="42.32885" lon="-8.79819">
        <ele>47.773</ele>
        <time>2018-07-28T18:18:48Z</time>
      </trkpt>
      <trkpt lat="42.32874" lon="-8.79807">
        <ele>46.958</ele>
        <time>2018-07-28T18:18:49Z</time>
      </trkpt>
      <trkpt lat="42.32863" lon="-8.79801">
        <ele>46.263</ele>
        <time>2018-07-28T18:18:50Z</time>
      </trkpt>
      <trkpt lat="42.32853" lon="-8.79794">
        <ele>45.731</ele>
        <time>2018-07-28T18:18:51Z</time>
      </trkpt>
      <trkpt lat="42.32844" lon="-8.79787">
        <ele>45.277</ele>
        <time>2018-07-28T18:18:52Z</time>
      </trkpt>
      <trkpt lat="42.32833" lon="-8.79784">
        <ele>44.694</ele>
        <time>2018-07-28T18:18:53Z</time>
      </trkpt>
      <trkpt lat="42.32826" lon="-8.79775">
        <ele>44.057</ele>
        <time>2018-07-28T18:18:54Z</time>
      </trkpt>
      <trkpt lat="42.32818" lon="-8.79768">
        <ele>43.422</ele>
        <time>2018-07-28T18:18:55Z</time>
      </trkpt>
      <trkpt lat="42.32813" lon="-8.79755">
        <ele>42.708</ele>
        <time>2018-07-28T18:18:56Z</time>
      </trkpt>
      <trkpt lat="42.32812" lon="-8.79741">
        <ele>42.181</ele>
        <time>2018-07-28T18:18:57Z</time>
      </trkpt>
      <trkpt lat="42.3282" lon="-8.79727">
        <ele>41.836</ele>
        <time>2018-07-28T18:18:58Z</time>
      </trkpt>
      <trkpt lat="42.32827" lon="-8.79714">
        <ele>41.649</ele>
        <time>2018-07-28T18:18:59Z</time>
      </trkpt>
      <trkpt lat="42.32833" lon="-8.79703">
        <ele>41.361</ele>
        <time>2018-07-28T18:19:00Z</time>
      </trkpt>
      <trkpt lat="42.32836" lon="-8.79691">
        <ele>40.946</ele>
        <time>2018-07-28T18:19:01Z</time>
      </trkpt>
      <trkpt lat="42.3284" lon="-8.79684">
        <ele>40.431</ele>
        <time>2018-07-28T18:19:02Z</time>
      </trkpt>
      <trkpt lat="42.32841" lon="-8.79673">
        <ele>38.819</ele>
        <time>2018-07-28T18:19:03Z</time>
      </trkpt>
      <trkpt lat="42.32838" lon="-8.79664">
        <ele>38.115</ele>
        <time>2018-07-28T18:19:04Z</time>
      </trkpt>
      <trkpt lat="42.32834" lon="-8.79656">
        <ele>37.632</ele>
        <time>2018-07-28T18:19:05Z</time>
      </trkpt>
      <trkpt lat="42.32829" lon="-8.79645">
        <ele>37.392</ele>
        <time>2018-07-28T18:19:06Z</time>
      </trkpt>
      <trkpt lat="42.32823" lon="-8.79635">
        <ele>37.111</ele>
        <time>2018-07-28T18:19:07Z</time>
      </trkpt>
      <trkpt lat="42.32817" lon="-8.79622">
        <ele>37.008</ele>
        <time>2018-07-28T18:19:08Z</time>
      </trkpt>
      <trkpt lat="42.32811" lon="-8.7961">
        <ele>36.955</ele>
        <time>2018-07-28T18:19:09Z</time>
      </trkpt>
      <trkpt lat="42.32807" lon="-8.79598">
        <ele>36.69</ele>
        <time>2018-07-28T18:19:10Z</time>
      </trkpt>
      <trkpt lat="42.32805" lon="-8.79587">
        <ele>36.383</ele>
        <time>2018-07-28T18:19:11Z</time>
      </trkpt>
      <trkpt lat="42.32806" lon="-8.79575">
        <ele>35.945</ele>
        <time>2018-07-28T18:19:12Z</time>
      </trkpt>
      <trkpt lat="42.32812" lon="-8.79565">
        <ele>35.48</ele>
        <time>2018-07-28T18:19:13Z</time>
      </trkpt>
      <trkpt lat="42.32816" lon="-8.79556">
        <ele>34.745</ele>
        <time>2018-07-28T18:19:14Z</time>
      </trkpt>
      <trkpt lat="42.32821" lon="-8.79548">
        <ele>34.223</ele>
        <time>2018-07-28T18:19:15Z</time>
      </trkpt>
      <trkpt lat="42.32825" lon="-8.79539">
        <ele>33.629</ele>
        <time>2018-07-28T18:19:16Z</time>
      </trkpt>
      <trkpt lat="42.32827" lon="-8.7953">
        <ele>33.192</ele>
        <time>2018-07-28T18:19:17Z</time>
      </trkpt>
      <trkpt lat="42.32828" lon="-8.79519">
        <ele>32.373</ele>
        <time>2018-07-28T18:19:18Z</time>
      </trkpt>
      <trkpt lat="42.32824" lon="-8.79506">
        <ele>31.92</ele>
        <time>2018-07-28T18:19:19Z</time>
      </trkpt>
      <trkpt lat="42.32819" lon="-8.79494">
        <ele>31.708</ele>
        <time>2018-07-28T18:19:20Z</time>
      </trkpt>
      <trkpt lat="42.32812" lon="-8.79484">
        <ele>31.561</ele>
        <time>2018-07-28T18:19:21Z</time>
      </trkpt>
      <trkpt lat="42.32806" lon="-8.79473">
        <ele>31.246</ele>
        <time>2018-07-28T18:19:22Z</time>
      </trkpt>
      <trkpt lat="42.328" lon="-8.79463">
        <ele>30.969</ele>
        <time>2018-07-28T18:19:23Z</time>
      </trkpt>
      <trkpt lat="42.32794" lon="-8.79452">
        <ele>30.651</ele>
        <time>2018-07-28T18:19:24Z</time>
      </trkpt>
      <trkpt lat="42.32789" lon="-8.7944">
        <ele>30.256</ele>
        <time>2018-07-28T18:19:25Z</time>
      </trkpt>
      <trkpt lat="42.32784" lon="-8.7943">
        <ele>29.871</ele>
        <time>2018-07-28T18:19:26Z</time>
      </trkpt>
      <trkpt lat="42.32783" lon="-8.79416">
        <ele>29.519</ele>
        <time>2018-07-28T18:19:27Z</time>
      </trkpt>
      <trkpt lat="42.32786" lon="-8.79403">
        <ele>29.275</ele>
        <time>2018-07-28T18:19:28Z</time>
      </trkpt>
      <trkpt lat="42.3279" lon="-8.79392">
        <ele>28.877</ele>
        <time>2018-07-28T18:19:29Z</time>
      </trkpt>
      <trkpt lat="42.32792" lon="-8.79382">
        <ele>28.461</ele>
        <time>2018-07-28T18:19:30Z</time>
      </trkpt>
      <trkpt lat="42.32795" lon="-8.79372">
        <ele>28.027</ele>
        <time>2018-07-28T18:19:31Z</time>
      </trkpt>
      <trkpt lat="42.32794" lon="-8.79361">
        <ele>27.708</ele>
        <time>2018-07-28T18:19:32Z</time>
      </trkpt>
      <trkpt lat="42.3279" lon="-8.79352">
        <ele>27.429</ele>
        <time>2018-07-28T18:19:33Z</time>
      </trkpt>
      <trkpt lat="42.32784" lon="-8.79341">
        <ele>26.954</ele>
        <time>2018-07-28T18:19:34Z</time>
      </trkpt>
      <trkpt lat="42.32774" lon="-8.79332">
        <ele>26.777</ele>
        <time>2018-07-28T18:19:35Z</time>
      </trkpt>
      <trkpt lat="42.32763" lon="-8.79328">
        <ele>26.469</ele>
        <time>2018-07-28T18:19:36Z</time>
      </trkpt>
      <trkpt lat="42.32752" lon="-8.79324">
        <ele>26.084</ele>
        <time>2018-07-28T18:19:37Z</time>
      </trkpt>
      <trkpt lat="42.32742" lon="-8.79321">
        <ele>25.529</ele>
        <time>2018-07-28T18:19:38Z</time>
      </trkpt>
      <trkpt lat="42.32732" lon="-8.79318">
        <ele>24.827</ele>
        <time>2018-07-28T18:19:39Z</time>
      </trkpt>
      <trkpt lat="42.32723" lon="-8.79313">
        <ele>24.133</ele>
        <time>2018-07-28T18:19:40Z</time>
      </trkpt>
      <trkpt lat="42.32714" lon="-8.7931">
        <ele>23.455</ele>
        <time>2018-07-28T18:19:41Z</time>
      </trkpt>
      <trkpt lat="42.32704" lon="-8.79311">
        <ele>22.707</ele>
        <time>2018-07-28T18:19:42Z</time>
      </trkpt>
      <trkpt lat="42.32694" lon="-8.79309">
        <ele>22.017</ele>
        <time>2018-07-28T18:19:43Z</time>
      </trkpt>
      <trkpt lat="42.32685" lon="-8.79305">
        <ele>21.308</ele>
        <time>2018-07-28T18:19:44Z</time>
      </trkpt>
      <trkpt lat="42.32675" lon="-8.79298">
        <ele>20.887</ele>
        <time>2018-07-28T18:19:45Z</time>
      </trkpt>
      <trkpt lat="42.32666" lon="-8.79292">
        <ele>20.472</ele>
        <time>2018-07-28T18:19:46Z</time>
      </trkpt>
      <trkpt lat="42.32656" lon="-8.79287">
        <ele>20.015</ele>
        <time>2018-07-28T18:19:47Z</time>
      </trkpt>
      <trkpt lat="42.32645" lon="-8.79282">
        <ele>19.577</ele>
        <time>2018-07-28T18:19:48Z</time>
      </trkpt>
      <trkpt lat="42.32634" lon="-8.79278">
        <ele>19.132</ele>
        <time>2018-07-28T18:19:49Z</time>
      </trkpt>
      <trkpt lat="42.32622" lon="-8.79275">
        <ele>17.887</ele>
        <time>2018-07-28T18:19:50Z</time>
      </trkpt>
      <trkpt lat="42.32612" lon="-8.79272">
        <ele>17.115</ele>
        <time>2018-07-28T18:19:51Z</time>
      </trkpt>
      <trkpt lat="42.32602" lon="-8.79266">
        <ele>16.471</ele>
        <time>2018-07-28T18:19:52Z</time>
      </trkpt>
      <trkpt lat="42.32593" lon="-8.79258">
        <ele>15.739</ele>
        <time>2018-07-28T18:19:53Z</time>
      </trkpt>
      <trkpt lat="42.32584" lon="-8.79252">
        <ele>15.001</ele>
        <time>2018-07-28T18:19:54Z</time>
      </trkpt>
      <trkpt lat="42.32575" lon="-8.79247">
        <ele>14.221</ele>
        <time>2018-07-28T18:19:55Z</time>
      </trkpt>
      <trkpt lat="42.32571" lon="-8.79235">
        <ele>13.408</ele>
        <time>2018-07-28T18:19:56Z</time>
      </trkpt>
      <trkpt lat="42.32569" lon="-8.79226">
        <ele>12.735</ele>
        <time>2018-07-28T18:19:57Z</time>
      </trkpt>
      <trkpt lat="42.32569" lon="-8.79216">
        <ele>12.16</ele>
        <time>2018-07-28T18:19:58Z</time>
      </trkpt>
      <trkpt lat="42.32567" lon="-8.79205">
        <ele>11.633</ele>
        <time>2018-07-28T18:19:59Z</time>
      </trkpt>
      <trkpt lat="42.32567" lon="-8.79194">
        <ele>11.275</ele>
        <time>2018-07-28T18:20:00Z</time>
      </trkpt>
      <trkpt lat="42.32565" lon="-8.79184">
        <ele>10.81</ele>
        <time>2018-07-28T18:20:01Z</time>
      </trkpt>
      <trkpt lat="42.32565" lon="-8.79175">
        <ele>10.465</ele>
        <time>2018-07-28T18:20:02Z</time>
      </trkpt>
      <trkpt lat="42.32565" lon="-8.79167">
        <ele>10.063</ele>
        <time>2018-07-28T18:20:03Z</time>
      </trkpt>
      <trkpt lat="42.32563" lon="-8.79159">
        <ele>9.789</ele>
        <time>2018-07-28T18:20:04Z</time>
      </trkpt>
      <trkpt lat="42.32566" lon="-8.7915">
        <ele>9.271</ele>
        <time>2018-07-28T18:20:05Z</time>
      </trkpt>
      <trkpt lat="42.32565" lon="-8.79137">
        <ele>9.141</ele>
        <time>2018-07-28T18:20:06Z</time>
      </trkpt>
      <trkpt lat="42.32566" lon="-8.79126">
        <ele>9.115</ele>
        <time>2018-07-28T18:20:07Z</time>
      </trkpt>
      <trkpt lat="42.32566" lon="-8.79112">
        <ele>9.108</ele>
        <time>2018-07-28T18:20:08Z</time>
      </trkpt>
      <trkpt lat="42.32565" lon="-8.79098">
        <ele>9.329</ele>
        <time>2018-07-28T18:20:09Z</time>
      </trkpt>
      <trkpt lat="42.32564" lon="-8.79086">
        <ele>9.534</ele>
        <time>2018-07-28T18:20:10Z</time>
      </trkpt>
      <trkpt lat="42.32564" lon="-8.79075">
        <ele>9.567</ele>
        <time>2018-07-28T18:20:11Z</time>
      </trkpt>
      <trkpt lat="42.32564" lon="-8.79064">
        <ele>9.399</ele>
        <time>2018-07-28T18:20:12Z</time>
      </trkpt>
      <trkpt lat="42.32563" lon="-8.79056">
        <ele>9.034</ele>
        <time>2018-07-28T18:20:13Z</time>
      </trkpt>
      <trkpt lat="42.32563" lon="-8.79049">
        <ele>8.629</ele>
        <time>2018-07-28T18:20:14Z</time>
      </trkpt>
      <trkpt lat="42.32562" lon="-8.79042">
        <ele>8.247</ele>
        <time>2018-07-28T18:20:15Z</time>
      </trkpt>
      <trkpt lat="42.32561" lon="-8.79033">
        <ele>8.113</ele>
        <time>2018-07-28T18:20:16Z</time>
      </trkpt>
      <trkpt lat="42.3256" lon="-8.79024">
        <ele>8.165</ele>
        <time>2018-07-28T18:20:17Z</time>
      </trkpt>
      <trkpt lat="42.32559" lon="-8.79014">
        <ele>8.268</ele>
        <time>2018-07-28T18:20:18Z</time>
      </trkpt>
      <trkpt lat="42.32558" lon="-8.79005">
        <ele>8.314</ele>
        <time>2018-07-28T18:20:19Z</time>
      </trkpt>
      <trkpt lat="42.32557" lon="-8.78995">
        <ele>8.408</ele>
        <time>2018-07-28T18:20:20Z</time>
      </trkpt>
      <trkpt lat="42.32556" lon="-8.78984">
        <ele>8.498</ele>
        <time>2018-07-28T18:20:21Z</time>
      </trkpt>
      <trkpt lat="42.32555" lon="-8.78974">
        <ele>8.423</ele>
        <time>2018-07-28T18:20:22Z</time>
      </trkpt>
      <trkpt lat="42.32555" lon="-8.78964">
        <ele>8.356</ele>
        <time>2018-07-28T18:20:23Z</time>
      </trkpt>
      <trkpt lat="42.32554" lon="-8.78954">
        <ele>8.228</ele>
        <time>2018-07-28T18:20:24Z</time>
      </trkpt>
      <trkpt lat="42.32554" lon="-8.78945">
        <ele>8.183</ele>
        <time>2018-07-28T18:20:25Z</time>
      </trkpt>
      <trkpt lat="42.32554" lon="-8.78937">
        <ele>7.988</ele>
        <time>2018-07-28T18:20:26Z</time>
      </trkpt>
      <trkpt lat="42.32553" lon="-8.78931">
        <ele>7.756</ele>
        <time>2018-07-28T18:20:27Z</time>
      </trkpt>
      <trkpt lat="42.32554" lon="-8.78924">
        <ele>7.622</ele>
        <time>2018-07-28T18:20:28Z</time>
      </trkpt>
      <trkpt lat="42.32552" lon="-8.78913">
        <ele>7.455</ele>
        <time>2018-07-28T18:20:30Z</time>
      </trkpt>
      <trkpt lat="42.32552" lon="-8.78902">
        <ele>7.407</ele>
        <time>2018-07-28T18:20:32Z</time>
      </trkpt>
      <trkpt lat="42.32552" lon="-8.78895">
        <ele>7.417</ele>
        <time>2018-07-28T18:20:33Z</time>
      </trkpt>
      <trkpt lat="42.32551" lon="-8.78887">
        <ele>7.608</ele>
        <time>2018-07-28T18:20:34Z</time>
      </trkpt>
      <trkpt lat="42.32551" lon="-8.78878">
        <ele>7.677</ele>
        <time>2018-07-28T18:20:35Z</time>
      </trkpt>
      <trkpt lat="42.3255" lon="-8.7887">
        <ele>7.792</ele>
        <time>2018-07-28T18:20:36Z</time>
      </trkpt>
      <trkpt lat="42.3255" lon="-8.78862">
        <ele>7.775</ele>
        <time>2018-07-28T18:20:37Z</time>
      </trkpt>
      <trkpt lat="42.3255" lon="-8.78855">
        <ele>7.727</ele>
        <time>2018-07-28T18:20:38Z</time>
      </trkpt>
      <trkpt lat="42.32549" lon="-8.78843">
        <ele>7.842</ele>
        <time>2018-07-28T18:20:40Z</time>
      </trkpt>
      <trkpt lat="42.32546" lon="-8.78832">
        <ele>7.987</ele>
        <time>2018-07-28T18:20:42Z</time>
      </trkpt>
      <trkpt lat="42.32544" lon="-8.78822">
        <ele>8.095</ele>
        <time>2018-07-28T18:20:44Z</time>
      </trkpt>
      <trkpt lat="42.32546" lon="-8.78815">
        <ele>8.031</ele>
        <time>2018-07-28T18:20:45Z</time>
      </trkpt>
      <trkpt lat="42.32544" lon="-8.78808">
        <ele>8.149</ele>
        <time>2018-07-28T18:20:46Z</time>
      </trkpt>
      <trkpt lat="42.32545" lon="-8.788">
        <ele>8.202</ele>
        <time>2018-07-28T18:20:47Z</time>
      </trkpt>
      <trkpt lat="42.32544" lon="-8.78792">
        <ele>8.322</ele>
        <time>2018-07-28T18:20:48Z</time>
      </trkpt>
      <trkpt lat="42.32543" lon="-8.78782">
        <ele>8.508</ele>
        <time>2018-07-28T18:20:49Z</time>
      </trkpt>
      <trkpt lat="42.32544" lon="-8.78772">
        <ele>8.786</ele>
        <time>2018-07-28T18:20:50Z</time>
      </trkpt>
      <trkpt lat="42.32543" lon="-8.78762">
        <ele>9.161</ele>
        <time>2018-07-28T18:20:51Z</time>
      </trkpt>
      <trkpt lat="42.32541" lon="-8.78752">
        <ele>9.394</ele>
        <time>2018-07-28T18:20:52Z</time>
      </trkpt>
      <trkpt lat="42.32541" lon="-8.78742">
        <ele>9.496</ele>
        <time>2018-07-28T18:20:53Z</time>
      </trkpt>
      <trkpt lat="42.32541" lon="-8.78732">
        <ele>9.421</ele>
        <time>2018-07-28T18:20:54Z</time>
      </trkpt>
      <trkpt lat="42.32541" lon="-8.78721">
        <ele>9.456</ele>
        <time>2018-07-28T18:20:55Z</time>
      </trkpt>
      <trkpt lat="42.32541" lon="-8.7871">
        <ele>9.454</ele>
        <time>2018-07-28T18:20:56Z</time>
      </trkpt>
      <trkpt lat="42.3254" lon="-8.78701">
        <ele>9.41</ele>
        <time>2018-07-28T18:20:57Z</time>
      </trkpt>
      <trkpt lat="42.3254" lon="-8.78691">
        <ele>9.479</ele>
        <time>2018-07-28T18:20:58Z</time>
      </trkpt>
      <trkpt lat="42.3254" lon="-8.78682">
        <ele>9.305</ele>
        <time>2018-07-28T18:20:59Z</time>
      </trkpt>
      <trkpt lat="42.32538" lon="-8.78672">
        <ele>9.225</ele>
        <time>2018-07-28T18:21:00Z</time>
      </trkpt>
      <trkpt lat="42.32538" lon="-8.78662">
        <ele>9.208</ele>
        <time>2018-07-28T18:21:01Z</time>
      </trkpt>
      <trkpt lat="42.32538" lon="-8.78652">
        <ele>9.259</ele>
        <time>2018-07-28T18:21:02Z</time>
      </trkpt>
      <trkpt lat="42.32539" lon="-8.78642">
        <ele>9.354</ele>
        <time>2018-07-28T18:21:03Z</time>
      </trkpt>
      <trkpt lat="42.3254" lon="-8.78632">
        <ele>9.547</ele>
        <time>2018-07-28T18:21:04Z</time>
      </trkpt>
      <trkpt lat="42.32541" lon="-8.78622">
        <ele>9.839</ele>
        <time>2018-07-28T18:21:05Z</time>
      </trkpt>
      <trkpt lat="42.32543" lon="-8.78613">
        <ele>9.954</ele>
        <time>2018-07-28T18:21:06Z</time>
      </trkpt>
      <trkpt lat="42.32545" lon="-8.78604">
        <ele>10.019</ele>
        <time>2018-07-28T18:21:07Z</time>
      </trkpt>
      <trkpt lat="42.32547" lon="-8.78595">
        <ele>10.037</ele>
        <time>2018-07-28T18:21:08Z</time>
      </trkpt>
      <trkpt lat="42.32549" lon="-8.78587">
        <ele>10.043</ele>
        <time>2018-07-28T18:21:09Z</time>
      </trkpt>
      <trkpt lat="42.32551" lon="-8.78578">
        <ele>10.031</ele>
        <time>2018-07-28T18:21:10Z</time>
      </trkpt>
      <trkpt lat="42.32552" lon="-8.78571">
        <ele>10.061</ele>
        <time>2018-07-28T18:21:11Z</time>
      </trkpt>
      <trkpt lat="42.32553" lon="-8.78565">
        <ele>10.007</ele>
        <time>2018-07-28T18:21:12Z</time>
      </trkpt>
      <trkpt lat="42.32554" lon="-8.78559">
        <ele>10.108</ele>
        <time>2018-07-28T18:21:13Z</time>
      </trkpt>
      <trkpt lat="42.32556" lon="-8.78549">
        <ele>10.225</ele>
        <time>2018-07-28T18:21:15Z</time>
      </trkpt>
      <trkpt lat="42.32559" lon="-8.78541">
        <ele>10.33</ele>
        <time>2018-07-28T18:21:17Z</time>
      </trkpt>
      <trkpt lat="42.32559" lon="-8.78534">
        <ele>10.353</ele>
        <time>2018-07-28T18:21:18Z</time>
      </trkpt>
      <trkpt lat="42.32561" lon="-8.78526">
        <ele>10.495</ele>
        <time>2018-07-28T18:21:19Z</time>
      </trkpt>
      <trkpt lat="42.32563" lon="-8.78517">
        <ele>10.55</ele>
        <time>2018-07-28T18:21:20Z</time>
      </trkpt>
      <trkpt lat="42.32566" lon="-8.78509">
        <ele>10.755</ele>
        <time>2018-07-28T18:21:21Z</time>
      </trkpt>
      <trkpt lat="42.32567" lon="-8.78502">
        <ele>11.093</ele>
        <time>2018-07-28T18:21:22Z</time>
      </trkpt>
      <trkpt lat="42.32569" lon="-8.78494">
        <ele>11.189</ele>
        <time>2018-07-28T18:21:23Z</time>
      </trkpt>
      <trkpt lat="42.32572" lon="-8.78485">
        <ele>11.232</ele>
        <time>2018-07-28T18:21:24Z</time>
      </trkpt>
      <trkpt lat="42.32573" lon="-8.78477">
        <ele>11.292</ele>
        <time>2018-07-28T18:21:25Z</time>
      </trkpt>
      <trkpt lat="42.32576" lon="-8.78468">
        <ele>11.211</ele>
        <time>2018-07-28T18:21:26Z</time>
      </trkpt>
      <trkpt lat="42.32579" lon="-8.7846">
        <ele>11.208</ele>
        <time>2018-07-28T18:21:27Z</time>
      </trkpt>
      <trkpt lat="42.3258" lon="-8.78453">
        <ele>11.245</ele>
        <time>2018-07-28T18:21:28Z</time>
      </trkpt>
      <trkpt lat="42.32582" lon="-8.78447">
        <ele>11.25</ele>
        <time>2018-07-28T18:21:29Z</time>
      </trkpt>
      <trkpt lat="42.32584" lon="-8.7844">
        <ele>11.313</ele>
        <time>2018-07-28T18:21:30Z</time>
      </trkpt>
      <trkpt lat="42.32585" lon="-8.78433">
        <ele>11.335</ele>
        <time>2018-07-28T18:21:31Z</time>
      </trkpt>
      <trkpt lat="42.32585" lon="-8.78427">
        <ele>11.31</ele>
        <time>2018-07-28T18:21:32Z</time>
      </trkpt>
      <trkpt lat="42.32586" lon="-8.7842">
        <ele>11.425</ele>
        <time>2018-07-28T18:21:33Z</time>
      </trkpt>
      <trkpt lat="42.32589" lon="-8.78414">
        <ele>11.563</ele>
        <time>2018-07-28T18:21:34Z</time>
      </trkpt>
      <trkpt lat="42.32591" lon="-8.78406">
        <ele>11.699</ele>
        <time>2018-07-28T18:21:35Z</time>
      </trkpt>
      <trkpt lat="42.32594" lon="-8.78396">
        <ele>11.755</ele>
        <time>2018-07-28T18:21:36Z</time>
      </trkpt>
      <trkpt lat="42.32597" lon="-8.78386">
        <ele>11.907</ele>
        <time>2018-07-28T18:21:37Z</time>
      </trkpt>
      <trkpt lat="42.326" lon="-8.78375">
        <ele>12.417</ele>
        <time>2018-07-28T18:21:38Z</time>
      </trkpt>
      <trkpt lat="42.32603" lon="-8.78366">
        <ele>12.608</ele>
        <time>2018-07-28T18:21:39Z</time>
      </trkpt>
      <trkpt lat="42.32606" lon="-8.78357">
        <ele>12.867</ele>
        <time>2018-07-28T18:21:40Z</time>
      </trkpt>
      <trkpt lat="42.32608" lon="-8.78349">
        <ele>13.022</ele>
        <time>2018-07-28T18:21:41Z</time>
      </trkpt>
      <trkpt lat="42.32609" lon="-8.7834">
        <ele>13.145</ele>
        <time>2018-07-28T18:21:42Z</time>
      </trkpt>
      <trkpt lat="42.32611" lon="-8.7833">
        <ele>13.217</ele>
        <time>2018-07-28T18:21:43Z</time>
      </trkpt>
      <trkpt lat="42.32614" lon="-8.78321">
        <ele>13.462</ele>
        <time>2018-07-28T18:21:44Z</time>
      </trkpt>
      <trkpt lat="42.32617" lon="-8.78311">
        <ele>13.747</ele>
        <time>2018-07-28T18:21:45Z</time>
      </trkpt>
      <trkpt lat="42.32619" lon="-8.78299">
        <ele>14.085</ele>
        <time>2018-07-28T18:21:46Z</time>
      </trkpt>
      <trkpt lat="42.32623" lon="-8.78286">
        <ele>14.431</ele>
        <time>2018-07-28T18:21:47Z</time>
      </trkpt>
      <trkpt lat="42.32627" lon="-8.78273">
        <ele>14.827</ele>
        <time>2018-07-28T18:21:48Z</time>
      </trkpt>
      <trkpt lat="42.32629" lon="-8.78262">
        <ele>15.368</ele>
        <time>2018-07-28T18:21:49Z</time>
      </trkpt>
      <trkpt lat="42.32631" lon="-8.78251">
        <ele>15.714</ele>
        <time>2018-07-28T18:21:50Z</time>
      </trkpt>
      <trkpt lat="42.32634" lon="-8.7824">
        <ele>16.108</ele>
        <time>2018-07-28T18:21:51Z</time>
      </trkpt>
      <trkpt lat="42.32637" lon="-8.7823">
        <ele>16.624</ele>
        <time>2018-07-28T18:21:52Z</time>
      </trkpt>
      <trkpt lat="42.32639" lon="-8.78221">
        <ele>17.639</ele>
        <time>2018-07-28T18:21:53Z</time>
      </trkpt>
      <trkpt lat="42.32641" lon="-8.78213">
        <ele>18.172</ele>
        <time>2018-07-28T18:21:54Z</time>
      </trkpt>
      <trkpt lat="42.32643" lon="-8.78206">
        <ele>18.554</ele>
        <time>2018-07-28T18:21:55Z</time>
      </trkpt>
      <trkpt lat="42.32643" lon="-8.78198">
        <ele>18.829</ele>
        <time>2018-07-28T18:21:57Z</time>
      </trkpt>
      <trkpt lat="42.32644" lon="-8.78191">
        <ele>18.844</ele>
        <time>2018-07-28T18:22:00Z</time>
      </trkpt>
      <trkpt lat="42.32645" lon="-8.78185">
        <ele>19.262</ele>
        <time>2018-07-28T18:22:05Z</time>
      </trkpt>
      <trkpt lat="42.32648" lon="-8.78177">
        <ele>19.748</ele>
        <time>2018-07-28T18:22:10Z</time>
      </trkpt>
      <trkpt lat="42.3265" lon="-8.78166">
        <ele>20.349</ele>
        <time>2018-07-28T18:22:11Z</time>
      </trkpt>
      <trkpt lat="42.32653" lon="-8.78152">
        <ele>21.102</ele>
        <time>2018-07-28T18:22:12Z</time>
      </trkpt>
      <trkpt lat="42.32657" lon="-8.78141">
        <ele>21.922</ele>
        <time>2018-07-28T18:22:13Z</time>
      </trkpt>
      <trkpt lat="42.3266" lon="-8.78132">
        <ele>22.508</ele>
        <time>2018-07-28T18:22:14Z</time>
      </trkpt>
      <trkpt lat="42.32662" lon="-8.78122">
        <ele>23.056</ele>
        <time>2018-07-28T18:22:15Z</time>
      </trkpt>
      <trkpt lat="42.32664" lon="-8.78114">
        <ele>23.261</ele>
        <time>2018-07-28T18:22:16Z</time>
      </trkpt>
      <trkpt lat="42.32664" lon="-8.78106">
        <ele>23.224</ele>
        <time>2018-07-28T18:22:17Z</time>
      </trkpt>
      <trkpt lat="42.32664" lon="-8.78098">
        <ele>23.376</ele>
        <time>2018-07-28T18:22:18Z</time>
      </trkpt>
      <trkpt lat="42.32666" lon="-8.78091">
        <ele>23.511</ele>
        <time>2018-07-28T18:22:19Z</time>
      </trkpt>
      <trkpt lat="42.32666" lon="-8.78081">
        <ele>23.846</ele>
        <time>2018-07-28T18:22:20Z</time>
      </trkpt>
      <trkpt lat="42.3267" lon="-8.78074">
        <ele>24.214</ele>
        <time>2018-07-28T18:22:21Z</time>
      </trkpt>
      <trkpt lat="42.32676" lon="-8.78067">
        <ele>24.66</ele>
        <time>2018-07-28T18:22:22Z</time>
      </trkpt>
      <trkpt lat="42.32681" lon="-8.78061">
        <ele>25.055</ele>
        <time>2018-07-28T18:22:23Z</time>
      </trkpt>
      <trkpt lat="42.32687" lon="-8.78056">
        <ele>25.307</ele>
        <time>2018-07-28T18:22:24Z</time>
      </trkpt>
      <trkpt lat="42.32694" lon="-8.7805">
        <ele>25.617</ele>
        <time>2018-07-28T18:22:25Z</time>
      </trkpt>
      <trkpt lat="42.32701" lon="-8.78044">
        <ele>25.608</ele>
        <time>2018-07-28T18:22:26Z</time>
      </trkpt>
      <trkpt lat="42.32708" lon="-8.78037">
        <ele>25.637</ele>
        <time>2018-07-28T18:22:27Z</time>
      </trkpt>
      <trkpt lat="42.32716" lon="-8.7803">
        <ele>25.552</ele>
        <time>2018-07-28T18:22:28Z</time>
      </trkpt>
      <trkpt lat="42.32723" lon="-8.78024">
        <ele>25.335</ele>
        <time>2018-07-28T18:22:29Z</time>
      </trkpt>
      <trkpt lat="42.32731" lon="-8.7802">
        <ele>25.177</ele>
        <time>2018-07-28T18:22:30Z</time>
      </trkpt>
      <trkpt lat="42.32739" lon="-8.78015">
        <ele>24.892</ele>
        <time>2018-07-28T18:22:31Z</time>
      </trkpt>
      <trkpt lat="42.32746" lon="-8.7801">
        <ele>24.477</ele>
        <time>2018-07-28T18:22:32Z</time>
      </trkpt>
      <trkpt lat="42.32753" lon="-8.78006">
        <ele>23.955</ele>
        <time>2018-07-28T18:22:33Z</time>
      </trkpt>
      <trkpt lat="42.3276" lon="-8.78001">
        <ele>23.461</ele>
        <time>2018-07-28T18:22:34Z</time>
      </trkpt>
      <trkpt lat="42.32767" lon="-8.77995">
        <ele>22.846</ele>
        <time>2018-07-28T18:22:35Z</time>
      </trkpt>
      <trkpt lat="42.32773" lon="-8.77989">
        <ele>22.288</ele>
        <time>2018-07-28T18:22:36Z</time>
      </trkpt>
      <trkpt lat="42.3278" lon="-8.77982">
        <ele>21.616</ele>
        <time>2018-07-28T18:22:37Z</time>
      </trkpt>
      <trkpt lat="42.32787" lon="-8.77976">
        <ele>21.008</ele>
        <time>2018-07-28T18:22:38Z</time>
      </trkpt>
      <trkpt lat="42.32795" lon="-8.77971">
        <ele>20.596</ele>
        <time>2018-07-28T18:22:39Z</time>
      </trkpt>
      <trkpt lat="42.32803" lon="-8.77965">
        <ele>20.111</ele>
        <time>2018-07-28T18:22:40Z</time>
      </trkpt>
      <trkpt lat="42.32811" lon="-8.77959">
        <ele>19.454</ele>
        <time>2018-07-28T18:22:41Z</time>
      </trkpt>
      <trkpt lat="42.32818" lon="-8.77953">
        <ele>19.136</ele>
        <time>2018-07-28T18:22:42Z</time>
      </trkpt>
      <trkpt lat="42.32824" lon="-8.77947">
        <ele>18.811</ele>
        <time>2018-07-28T18:22:43Z</time>
      </trkpt>
      <trkpt lat="42.32831" lon="-8.77941">
        <ele>18.596</ele>
        <time>2018-07-28T18:22:44Z</time>
      </trkpt>
      <trkpt lat="42.32838" lon="-8.77934">
        <ele>18.364</ele>
        <time>2018-07-28T18:22:45Z</time>
      </trkpt>
      <trkpt lat="42.32847" lon="-8.77928">
        <ele>18.37</ele>
        <time>2018-07-28T18:22:46Z</time>
      </trkpt>
      <trkpt lat="42.32855" lon="-8.7792">
        <ele>18.325</ele>
        <time>2018-07-28T18:22:47Z</time>
      </trkpt>
      <trkpt lat="42.32864" lon="-8.77913">
        <ele>18.426</ele>
        <time>2018-07-28T18:22:48Z</time>
      </trkpt>
      <trkpt lat="42.32873" lon="-8.77906">
        <ele>18.408</ele>
        <time>2018-07-28T18:22:49Z</time>
      </trkpt>
      <trkpt lat="42.32881" lon="-8.779">
        <ele>18.408</ele>
        <time>2018-07-28T18:22:50Z</time>
      </trkpt>
      <trkpt lat="42.32889" lon="-8.77893">
        <ele>18.334</ele>
        <time>2018-07-28T18:22:51Z</time>
      </trkpt>
      <trkpt lat="42.32897" lon="-8.77887">
        <ele>18.099</ele>
        <time>2018-07-28T18:22:52Z</time>
      </trkpt>
      <trkpt lat="42.32905" lon="-8.77881">
        <ele>17.752</ele>
        <time>2018-07-28T18:22:53Z</time>
      </trkpt>
      <trkpt lat="42.32913" lon="-8.77874">
        <ele>17.514</ele>
        <time>2018-07-28T18:22:54Z</time>
      </trkpt>
      <trkpt lat="42.32924" lon="-8.77868">
        <ele>17.339</ele>
        <time>2018-07-28T18:22:55Z</time>
      </trkpt>
      <trkpt lat="42.32933" lon="-8.77861">
        <ele>17.294</ele>
        <time>2018-07-28T18:22:56Z</time>
      </trkpt>
      <trkpt lat="42.32942" lon="-8.77852">
        <ele>17.692</ele>
        <time>2018-07-28T18:22:57Z</time>
      </trkpt>
      <trkpt lat="42.32951" lon="-8.77844">
        <ele>17.718</ele>
        <time>2018-07-28T18:22:58Z</time>
      </trkpt>
      <trkpt lat="42.3296" lon="-8.77835">
        <ele>17.851</ele>
        <time>2018-07-28T18:22:59Z</time>
      </trkpt>
      <trkpt lat="42.3297" lon="-8.77827">
        <ele>18.101</ele>
        <time>2018-07-28T18:23:00Z</time>
      </trkpt>
      <trkpt lat="42.3298" lon="-8.77817">
        <ele>18.211</ele>
        <time>2018-07-28T18:23:01Z</time>
      </trkpt>
      <trkpt lat="42.3299" lon="-8.77807">
        <ele>18.208</ele>
        <time>2018-07-28T18:23:02Z</time>
      </trkpt>
      <trkpt lat="42.33001" lon="-8.77798">
        <ele>18.717</ele>
        <time>2018-07-28T18:23:03Z</time>
      </trkpt>
      <trkpt lat="42.33011" lon="-8.77788">
        <ele>19.262</ele>
        <time>2018-07-28T18:23:04Z</time>
      </trkpt>
      <trkpt lat="42.3302" lon="-8.77779">
        <ele>19.595</ele>
        <time>2018-07-28T18:23:05Z</time>
      </trkpt>
      <trkpt lat="42.33029" lon="-8.77772">
        <ele>19.857</ele>
        <time>2018-07-28T18:23:06Z</time>
      </trkpt>
      <trkpt lat="42.33037" lon="-8.77765">
        <ele>20.122</ele>
        <time>2018-07-28T18:23:07Z</time>
      </trkpt>
      <trkpt lat="42.33046" lon="-8.77757">
        <ele>20.287</ele>
        <time>2018-07-28T18:23:08Z</time>
      </trkpt>
      <trkpt lat="42.33054" lon="-8.77748">
        <ele>20.355</ele>
        <time>2018-07-28T18:23:09Z</time>
      </trkpt>
      <trkpt lat="42.3306" lon="-8.77738">
        <ele>20.571</ele>
        <time>2018-07-28T18:23:10Z</time>
      </trkpt>
      <trkpt lat="42.33062" lon="-8.77726">
        <ele>20.789</ele>
        <time>2018-07-28T18:23:11Z</time>
      </trkpt>
      <trkpt lat="42.33062" lon="-8.77716">
        <ele>20.806</ele>
        <time>2018-07-28T18:23:12Z</time>
      </trkpt>
      <trkpt lat="42.33059" lon="-8.77706">
        <ele>20.826</ele>
        <time>2018-07-28T18:23:13Z</time>
      </trkpt>
      <trkpt lat="42.33054" lon="-8.77697">
        <ele>20.808</ele>
        <time>2018-07-28T18:23:14Z</time>
      </trkpt>
      <trkpt lat="42.33045" lon="-8.77689">
        <ele>20.86</ele>
        <time>2018-07-28T18:23:15Z</time>
      </trkpt>
      <trkpt lat="42.33036" lon="-8.77682">
        <ele>21.055</ele>
        <time>2018-07-28T18:23:16Z</time>
      </trkpt>
      <trkpt lat="42.33027" lon="-8.77674">
        <ele>21.258</ele>
        <time>2018-07-28T18:23:17Z</time>
      </trkpt>
      <trkpt lat="42.33018" lon="-8.77667">
        <ele>21.35</ele>
        <time>2018-07-28T18:23:18Z</time>
      </trkpt>
      <trkpt lat="42.3301" lon="-8.7766">
        <ele>21.325</ele>
        <time>2018-07-28T18:23:19Z</time>
      </trkpt>
      <trkpt lat="42.33003" lon="-8.77652">
        <ele>21.18</ele>
        <time>2018-07-28T18:23:20Z</time>
      </trkpt>
      <trkpt lat="42.32996" lon="-8.77644">
        <ele>20.828</ele>
        <time>2018-07-28T18:23:21Z</time>
      </trkpt>
      <trkpt lat="42.32992" lon="-8.77633">
        <ele>20.464</ele>
        <time>2018-07-28T18:23:22Z</time>
      </trkpt>
      <trkpt lat="42.32989" lon="-8.7762">
        <ele>20.083</ele>
        <time>2018-07-28T18:23:23Z</time>
      </trkpt>
      <trkpt lat="42.32988" lon="-8.77606">
        <ele>19.725</ele>
        <time>2018-07-28T18:23:24Z</time>
      </trkpt>
      <trkpt lat="42.32989" lon="-8.77591">
        <ele>19.417</ele>
        <time>2018-07-28T18:23:25Z</time>
      </trkpt>
      <trkpt lat="42.32993" lon="-8.77577">
        <ele>19.108</ele>
        <time>2018-07-28T18:23:26Z</time>
      </trkpt>
      <trkpt lat="42.32998" lon="-8.77563">
        <ele>18.65</ele>
        <time>2018-07-28T18:23:27Z</time>
      </trkpt>
      <trkpt lat="42.33005" lon="-8.7755">
        <ele>18.195</ele>
        <time>2018-07-28T18:23:28Z</time>
      </trkpt>
      <trkpt lat="42.33013" lon="-8.77537">
        <ele>17.418</ele>
        <time>2018-07-28T18:23:29Z</time>
      </trkpt>
      <trkpt lat="42.3302" lon="-8.77525">
        <ele>15.94</ele>
        <time>2018-07-28T18:23:30Z</time>
      </trkpt>
      <trkpt lat="42.33027" lon="-8.77513">
        <ele>15.315</ele>
        <time>2018-07-28T18:23:31Z</time>
      </trkpt>
      <trkpt lat="42.33033" lon="-8.77502">
        <ele>14.96</ele>
        <time>2018-07-28T18:23:32Z</time>
      </trkpt>
      <trkpt lat="42.33039" lon="-8.77491">
        <ele>14.698</ele>
        <time>2018-07-28T18:23:33Z</time>
      </trkpt>
      <trkpt lat="42.33045" lon="-8.77481">
        <ele>14.324</ele>
        <time>2018-07-28T18:23:34Z</time>
      </trkpt>
      <trkpt lat="42.33051" lon="-8.7747">
        <ele>14.162</ele>
        <time>2018-07-28T18:23:35Z</time>
      </trkpt>
      <trkpt lat="42.33056" lon="-8.77459">
        <ele>14.083</ele>
        <time>2018-07-28T18:23:36Z</time>
      </trkpt>
      <trkpt lat="42.33061" lon="-8.77449">
        <ele>14.011</ele>
        <time>2018-07-28T18:23:37Z</time>
      </trkpt>
      <trkpt lat="42.33066" lon="-8.77439">
        <ele>14.008</ele>
        <time>2018-07-28T18:23:38Z</time>
      </trkpt>
      <trkpt lat="42.33072" lon="-8.77428">
        <ele>14.158</ele>
        <time>2018-07-28T18:23:39Z</time>
      </trkpt>
      <trkpt lat="42.33078" lon="-8.77417">
        <ele>14.313</ele>
        <time>2018-07-28T18:23:40Z</time>
      </trkpt>
      <trkpt lat="42.33084" lon="-8.77405">
        <ele>14.656</ele>
        <time>2018-07-28T18:23:41Z</time>
      </trkpt>
      <trkpt lat="42.33091" lon="-8.77394">
        <ele>14.848</ele>
        <time>2018-07-28T18:23:42Z</time>
      </trkpt>
      <trkpt lat="42.33097" lon="-8.77381">
        <ele>15.023</ele>
        <time>2018-07-28T18:23:43Z</time>
      </trkpt>
      <trkpt lat="42.33105" lon="-8.77368">
        <ele>15.228</ele>
        <time>2018-07-28T18:23:44Z</time>
      </trkpt>
      <trkpt lat="42.33112" lon="-8.77355">
        <ele>15.596</ele>
        <time>2018-07-28T18:23:45Z</time>
      </trkpt>
      <trkpt lat="42.33118" lon="-8.77342">
        <ele>15.932</ele>
        <time>2018-07-28T18:23:46Z</time>
      </trkpt>
      <trkpt lat="42.33123" lon="-8.77328">
        <ele>16.161</ele>
        <time>2018-07-28T18:23:47Z</time>
      </trkpt>
      <trkpt lat="42.33129" lon="-8.77314">
        <ele>16.221</ele>
        <time>2018-07-28T18:23:48Z</time>
      </trkpt>
      <trkpt lat="42.33134" lon="-8.773">
        <ele>16.313</ele>
        <time>2018-07-28T18:23:49Z</time>
      </trkpt>
      <trkpt lat="42.33139" lon="-8.77286">
        <ele>16.408</ele>
        <time>2018-07-28T18:23:50Z</time>
      </trkpt>
      <trkpt lat="42.33143" lon="-8.77271">
        <ele>16.598</ele>
        <time>2018-07-28T18:23:51Z</time>
      </trkpt>
      <trkpt lat="42.33147" lon="-8.77257">
        <ele>16.623</ele>
        <time>2018-07-28T18:23:52Z</time>
      </trkpt>
      <trkpt lat="42.33151" lon="-8.77242">
        <ele>16.636</ele>
        <time>2018-07-28T18:23:53Z</time>
      </trkpt>
      <trkpt lat="42.33155" lon="-8.77228">
        <ele>16.518</ele>
        <time>2018-07-28T18:23:54Z</time>
      </trkpt>
      <trkpt lat="42.33158" lon="-8.77215">
        <ele>16.393</ele>
        <time>2018-07-28T18:23:55Z</time>
      </trkpt>
      <trkpt lat="42.33161" lon="-8.77202">
        <ele>15.998</ele>
        <time>2018-07-28T18:23:56Z</time>
      </trkpt>
      <trkpt lat="42.33164" lon="-8.77189">
        <ele>15.516</ele>
        <time>2018-07-28T18:23:57Z</time>
      </trkpt>
      <trkpt lat="42.33166" lon="-8.77177">
        <ele>15.182</ele>
        <time>2018-07-28T18:23:58Z</time>
      </trkpt>
      <trkpt lat="42.33168" lon="-8.77164">
        <ele>14.729</ele>
        <time>2018-07-28T18:23:59Z</time>
      </trkpt>
      <trkpt lat="42.33171" lon="-8.77152">
        <ele>14.5</ele>
        <time>2018-07-28T18:24:00Z</time>
      </trkpt>
      <trkpt lat="42.33173" lon="-8.77139">
        <ele>14.42</ele>
        <time>2018-07-28T18:24:01Z</time>
      </trkpt>
      <trkpt lat="42.33176" lon="-8.77128">
        <ele>13.908</ele>
        <time>2018-07-28T18:24:02Z</time>
      </trkpt>
      <trkpt lat="42.33178" lon="-8.77116">
        <ele>13.744</ele>
        <time>2018-07-28T18:24:03Z</time>
      </trkpt>
      <trkpt lat="42.3318" lon="-8.77105">
        <ele>13.329</ele>
        <time>2018-07-28T18:24:04Z</time>
      </trkpt>
      <trkpt lat="42.33183" lon="-8.77094">
        <ele>13.052</ele>
        <time>2018-07-28T18:24:05Z</time>
      </trkpt>
      <trkpt lat="42.33185" lon="-8.77083">
        <ele>12.924</ele>
        <time>2018-07-28T18:24:06Z</time>
      </trkpt>
      <trkpt lat="42.33188" lon="-8.77072">
        <ele>12.989</ele>
        <time>2018-07-28T18:24:07Z</time>
      </trkpt>
      <trkpt lat="42.3319" lon="-8.77062">
        <ele>12.864</ele>
        <time>2018-07-28T18:24:08Z</time>
      </trkpt>
      <trkpt lat="42.33192" lon="-8.77053">
        <ele>12.862</ele>
        <time>2018-07-28T18:24:09Z</time>
      </trkpt>
      <trkpt lat="42.33194" lon="-8.77045">
        <ele>12.768</ele>
        <time>2018-07-28T18:24:10Z</time>
      </trkpt>
      <trkpt lat="42.33197" lon="-8.77037">
        <ele>12.621</ele>
        <time>2018-07-28T18:24:11Z</time>
      </trkpt>
      <trkpt lat="42.33199" lon="-8.77029">
        <ele>12.541</ele>
        <time>2018-07-28T18:24:12Z</time>
      </trkpt>
      <trkpt lat="42.33201" lon="-8.77019">
        <ele>12.505</ele>
        <time>2018-07-28T18:24:13Z</time>
      </trkpt>
      <trkpt lat="42.33204" lon="-8.7701">
        <ele>12.608</ele>
        <time>2018-07-28T18:24:14Z</time>
      </trkpt>
      <trkpt lat="42.33206" lon="-8.76999">
        <ele>12.974</ele>
        <time>2018-07-28T18:24:15Z</time>
      </trkpt>
      <trkpt lat="42.33209" lon="-8.76987">
        <ele>13.259</ele>
        <time>2018-07-28T18:24:16Z</time>
      </trkpt>
      <trkpt lat="42.33212" lon="-8.76974">
        <ele>13.462</ele>
        <time>2018-07-28T18:24:17Z</time>
      </trkpt>
      <trkpt lat="42.33214" lon="-8.76959">
        <ele>14.254</ele>
        <time>2018-07-28T18:24:18Z</time>
      </trkpt>
      <trkpt lat="42.33217" lon="-8.76943">
        <ele>14.659</ele>
        <time>2018-07-28T18:24:19Z</time>
      </trkpt>
      <trkpt lat="42.33221" lon="-8.76927">
        <ele>15.174</ele>
        <time>2018-07-28T18:24:20Z</time>
      </trkpt>
      <trkpt lat="42.33225" lon="-8.76911">
        <ele>15.682</ele>
        <time>2018-07-28T18:24:21Z</time>
      </trkpt>
      <trkpt lat="42.33229" lon="-8.76895">
        <ele>16.078</ele>
        <time>2018-07-28T18:24:22Z</time>
      </trkpt>
      <trkpt lat="42.33232" lon="-8.76879">
        <ele>16.556</ele>
        <time>2018-07-28T18:24:23Z</time>
      </trkpt>
      <trkpt lat="42.33236" lon="-8.76863">
        <ele>16.859</ele>
        <time>2018-07-28T18:24:24Z</time>
      </trkpt>
      <trkpt lat="42.3324" lon="-8.76847">
        <ele>16.914</ele>
        <time>2018-07-28T18:24:25Z</time>
      </trkpt>
      <trkpt lat="42.33243" lon="-8.76832">
        <ele>16.908</ele>
        <time>2018-07-28T18:24:26Z</time>
      </trkpt>
      <trkpt lat="42.33247" lon="-8.76818">
        <ele>16.917</ele>
        <time>2018-07-28T18:24:27Z</time>
      </trkpt>
      <trkpt lat="42.3325" lon="-8.76805">
        <ele>16.862</ele>
        <time>2018-07-28T18:24:28Z</time>
      </trkpt>
      <trkpt lat="42.33253" lon="-8.76792">
        <ele>16.735</ele>
        <time>2018-07-28T18:24:29Z</time>
      </trkpt>
      <trkpt lat="42.33255" lon="-8.7678">
        <ele>16.437</ele>
        <time>2018-07-28T18:24:30Z</time>
      </trkpt>
      <trkpt lat="42.33258" lon="-8.76768">
        <ele>16.242</ele>
        <time>2018-07-28T18:24:31Z</time>
      </trkpt>
      <trkpt lat="42.33261" lon="-8.76755">
        <ele>16.137</ele>
        <time>2018-07-28T18:24:32Z</time>
      </trkpt>
      <trkpt lat="42.33264" lon="-8.76742">
        <ele>15.965</ele>
        <time>2018-07-28T18:24:33Z</time>
      </trkpt>
      <trkpt lat="42.33266" lon="-8.76729">
        <ele>16.081</ele>
        <time>2018-07-28T18:24:34Z</time>
      </trkpt>
      <trkpt lat="42.33269" lon="-8.76715">
        <ele>16.117</ele>
        <time>2018-07-28T18:24:35Z</time>
      </trkpt>
      <trkpt lat="42.33273" lon="-8.767">
        <ele>16.387</ele>
        <time>2018-07-28T18:24:36Z</time>
      </trkpt>
      <trkpt lat="42.33277" lon="-8.76683">
        <ele>16.515</ele>
        <time>2018-07-28T18:24:37Z</time>
      </trkpt>
      <trkpt lat="42.33281" lon="-8.76667">
        <ele>16.708</ele>
        <time>2018-07-28T18:24:38Z</time>
      </trkpt>
      <trkpt lat="42.33284" lon="-8.76651">
        <ele>16.933</ele>
        <time>2018-07-28T18:24:39Z</time>
      </trkpt>
      <trkpt lat="42.33288" lon="-8.76635">
        <ele>17.228</ele>
        <time>2018-07-28T18:24:40Z</time>
      </trkpt>
      <trkpt lat="42.33292" lon="-8.76621">
        <ele>17.381</ele>
        <time>2018-07-28T18:24:41Z</time>
      </trkpt>
      <trkpt lat="42.33295" lon="-8.76606">
        <ele>17.453</ele>
        <time>2018-07-28T18:24:42Z</time>
      </trkpt>
      <trkpt lat="42.33299" lon="-8.76591">
        <ele>17.498</ele>
        <time>2018-07-28T18:24:43Z</time>
      </trkpt>
      <trkpt lat="42.33303" lon="-8.76576">
        <ele>17.473</ele>
        <time>2018-07-28T18:24:44Z</time>
      </trkpt>
      <trkpt lat="42.33307" lon="-8.76561">
        <ele>17.771</ele>
        <time>2018-07-28T18:24:45Z</time>
      </trkpt>
      <trkpt lat="42.33312" lon="-8.76546">
        <ele>18.147</ele>
        <time>2018-07-28T18:24:46Z</time>
      </trkpt>
      <trkpt lat="42.33316" lon="-8.76533">
        <ele>18.757</ele>
        <time>2018-07-28T18:24:47Z</time>
      </trkpt>
      <trkpt lat="42.3332" lon="-8.76521">
        <ele>19.1</ele>
        <time>2018-07-28T18:24:48Z</time>
      </trkpt>
      <trkpt lat="42.33324" lon="-8.76511">
        <ele>19.42</ele>
        <time>2018-07-28T18:24:49Z</time>
      </trkpt>
      <trkpt lat="42.33329" lon="-8.76502">
        <ele>19.408</ele>
        <time>2018-07-28T18:24:50Z</time>
      </trkpt>
      <trkpt lat="42.33333" lon="-8.76493">
        <ele>19.067</ele>
        <time>2018-07-28T18:24:51Z</time>
      </trkpt>
      <trkpt lat="42.33337" lon="-8.76485">
        <ele>18.842</ele>
        <time>2018-07-28T18:24:52Z</time>
      </trkpt>
      <trkpt lat="42.3334" lon="-8.76477">
        <ele>18.815</ele>
        <time>2018-07-28T18:24:53Z</time>
      </trkpt>
      <trkpt lat="42.33344" lon="-8.76468">
        <ele>18.987</ele>
        <time>2018-07-28T18:24:54Z</time>
      </trkpt>
      <trkpt lat="42.33348" lon="-8.76459">
        <ele>19.142</ele>
        <time>2018-07-28T18:24:55Z</time>
      </trkpt>
      <trkpt lat="42.33353" lon="-8.76449">
        <ele>19.217</ele>
        <time>2018-07-28T18:24:56Z</time>
      </trkpt>
      <trkpt lat="42.33358" lon="-8.76438">
        <ele>19.485</ele>
        <time>2018-07-28T18:24:57Z</time>
      </trkpt>
      <trkpt lat="42.33363" lon="-8.76425">
        <ele>19.581</ele>
        <time>2018-07-28T18:24:58Z</time>
      </trkpt>
      <trkpt lat="42.33369" lon="-8.76412">
        <ele>19.744</ele>
        <time>2018-07-28T18:24:59Z</time>
      </trkpt>
      <trkpt lat="42.33375" lon="-8.76398">
        <ele>20.105</ele>
        <time>2018-07-28T18:25:00Z</time>
      </trkpt>
      <trkpt lat="42.33381" lon="-8.76386">
        <ele>20.715</ele>
        <time>2018-07-28T18:25:01Z</time>
      </trkpt>
      <trkpt lat="42.33387" lon="-8.76374">
        <ele>21.408</ele>
        <time>2018-07-28T18:25:02Z</time>
      </trkpt>
      <trkpt lat="42.33394" lon="-8.76363">
        <ele>22.146</ele>
        <time>2018-07-28T18:25:03Z</time>
      </trkpt>
      <trkpt lat="42.334" lon="-8.76351">
        <ele>22.981</ele>
        <time>2018-07-28T18:25:04Z</time>
      </trkpt>
      <trkpt lat="42.33408" lon="-8.76338">
        <ele>23.534</ele>
        <time>2018-07-28T18:25:05Z</time>
      </trkpt>
      <trkpt lat="42.33415" lon="-8.76325">
        <ele>24.246</ele>
        <time>2018-07-28T18:25:06Z</time>
      </trkpt>
      <trkpt lat="42.33422" lon="-8.7631">
        <ele>25.591</ele>
        <time>2018-07-28T18:25:07Z</time>
      </trkpt>
      <trkpt lat="42.3343" lon="-8.76295">
        <ele>26.086</ele>
        <time>2018-07-28T18:25:08Z</time>
      </trkpt>
      <trkpt lat="42.33438" lon="-8.7628">
        <ele>26.754</ele>
        <time>2018-07-28T18:25:09Z</time>
      </trkpt>
      <trkpt lat="42.33447" lon="-8.76263">
        <ele>27.65</ele>
        <time>2018-07-28T18:25:10Z</time>
      </trkpt>
      <trkpt lat="42.33456" lon="-8.76246">
        <ele>28.511</ele>
        <time>2018-07-28T18:25:11Z</time>
      </trkpt>
      <trkpt lat="42.33465" lon="-8.7623">
        <ele>29.421</ele>
        <time>2018-07-28T18:25:12Z</time>
      </trkpt>
      <trkpt lat="42.33474" lon="-8.76214">
        <ele>30.203</ele>
        <time>2018-07-28T18:25:13Z</time>
      </trkpt>
      <trkpt lat="42.33484" lon="-8.76198">
        <ele>30.608</ele>
        <time>2018-07-28T18:25:14Z</time>
      </trkpt>
      <trkpt lat="42.33493" lon="-8.76182">
        <ele>30.673</ele>
        <time>2018-07-28T18:25:15Z</time>
      </trkpt>
      <trkpt lat="42.33503" lon="-8.76165">
        <ele>30.628</ele>
        <time>2018-07-28T18:25:16Z</time>
      </trkpt>
      <trkpt lat="42.33512" lon="-8.76148">
        <ele>30.771</ele>
        <time>2018-07-28T18:25:17Z</time>
      </trkpt>
      <trkpt lat="42.33522" lon="-8.7613">
        <ele>31.023</ele>
        <time>2018-07-28T18:25:18Z</time>
      </trkpt>
      <trkpt lat="42.33532" lon="-8.76112">
        <ele>31.588</ele>
        <time>2018-07-28T18:25:19Z</time>
      </trkpt>
      <trkpt lat="42.33542" lon="-8.76094">
        <ele>32.263</ele>
        <time>2018-07-28T18:25:20Z</time>
      </trkpt>
      <trkpt lat="42.33552" lon="-8.76076">
        <ele>33.031</ele>
        <time>2018-07-28T18:25:21Z</time>
      </trkpt>
      <trkpt lat="42.33559" lon="-8.76058">
        <ele>33.947</ele>
        <time>2018-07-28T18:25:22Z</time>
      </trkpt>
      <trkpt lat="42.33568" lon="-8.7604">
        <ele>36.221</ele>
        <time>2018-07-28T18:25:23Z</time>
      </trkpt>
      <trkpt lat="42.33577" lon="-8.76023">
        <ele>37.141</ele>
        <time>2018-07-28T18:25:24Z</time>
      </trkpt>
      <trkpt lat="42.33588" lon="-8.76007">
        <ele>37.905</ele>
        <time>2018-07-28T18:25:25Z</time>
      </trkpt>
      <trkpt lat="42.33597" lon="-8.75992">
        <ele>38.808</ele>
        <time>2018-07-28T18:25:26Z</time>
      </trkpt>
      <trkpt lat="42.33608" lon="-8.75976">
        <ele>39.454</ele>
        <time>2018-07-28T18:25:27Z</time>
      </trkpt>
      <trkpt lat="42.33616" lon="-8.75962">
        <ele>40.169</ele>
        <time>2018-07-28T18:25:28Z</time>
      </trkpt>
      <trkpt lat="42.33623" lon="-8.75949">
        <ele>40.912</ele>
        <time>2018-07-28T18:25:29Z</time>
      </trkpt>
      <trkpt lat="42.33628" lon="-8.75935">
        <ele>41.624</ele>
        <time>2018-07-28T18:25:30Z</time>
      </trkpt>
      <trkpt lat="42.33636" lon="-8.75923">
        <ele>42.229</ele>
        <time>2018-07-28T18:25:31Z</time>
      </trkpt>
      <trkpt lat="42.33643" lon="-8.75909">
        <ele>42.884</ele>
        <time>2018-07-28T18:25:32Z</time>
      </trkpt>
      <trkpt lat="42.33647" lon="-8.75892">
        <ele>43.352</ele>
        <time>2018-07-28T18:25:33Z</time>
      </trkpt>
      <trkpt lat="42.33651" lon="-8.75876">
        <ele>43.828</ele>
        <time>2018-07-28T18:25:34Z</time>
      </trkpt>
      <trkpt lat="42.33656" lon="-8.75858">
        <ele>44.411</ele>
        <time>2018-07-28T18:25:35Z</time>
      </trkpt>
      <trkpt lat="42.33658" lon="-8.7584">
        <ele>44.921</ele>
        <time>2018-07-28T18:25:36Z</time>
      </trkpt>
      <trkpt lat="42.33664" lon="-8.75825">
        <ele>45.403</ele>
        <time>2018-07-28T18:25:37Z</time>
      </trkpt>
      <trkpt lat="42.3367" lon="-8.75808">
        <ele>45.908</ele>
        <time>2018-07-28T18:25:38Z</time>
      </trkpt>
      <trkpt lat="42.33673" lon="-8.75791">
        <ele>46.353</ele>
        <time>2018-07-28T18:25:39Z</time>
      </trkpt>
      <trkpt lat="42.33678" lon="-8.75778">
        <ele>46.838</ele>
        <time>2018-07-28T18:25:40Z</time>
      </trkpt>
      <trkpt lat="42.33682" lon="-8.75765">
        <ele>46.811</ele>
        <time>2018-07-28T18:25:41Z</time>
      </trkpt>
      <trkpt lat="42.33684" lon="-8.75756">
        <ele>46.853</ele>
        <time>2018-07-28T18:25:42Z</time>
      </trkpt>
      <trkpt lat="42.33686" lon="-8.7575">
        <ele>46.058</ele>
        <time>2018-07-28T18:25:45Z</time>
      </trkpt>
      <trkpt lat="42.33689" lon="-8.75745">
        <ele>45.753</ele>
        <time>2018-07-28T18:25:53Z</time>
      </trkpt>
      <trkpt lat="42.33691" lon="-8.75733">
        <ele>45.841</ele>
        <time>2018-07-28T18:25:54Z</time>
      </trkpt>
      <trkpt lat="42.33695" lon="-8.75721">
        <ele>46.347</ele>
        <time>2018-07-28T18:25:55Z</time>
      </trkpt>
      <trkpt lat="42.33698" lon="-8.7571">
        <ele>46.618</ele>
        <time>2018-07-28T18:25:56Z</time>
      </trkpt>
      <trkpt lat="42.33702" lon="-8.75699">
        <ele>46.998</ele>
        <time>2018-07-28T18:25:57Z</time>
      </trkpt>
      <trkpt lat="42.33705" lon="-8.75688">
        <ele>47.217</ele>
        <time>2018-07-28T18:25:58Z</time>
      </trkpt>
      <trkpt lat="42.33709" lon="-8.75676">
        <ele>47.408</ele>
        <time>2018-07-28T18:25:59Z</time>
      </trkpt>
      <trkpt lat="42.33711" lon="-8.75661">
        <ele>47.763</ele>
        <time>2018-07-28T18:26:00Z</time>
      </trkpt>
      <trkpt lat="42.33716" lon="-8.75646">
        <ele>48.078</ele>
        <time>2018-07-28T18:26:01Z</time>
      </trkpt>
      <trkpt lat="42.33719" lon="-8.7563">
        <ele>48.381</ele>
        <time>2018-07-28T18:26:02Z</time>
      </trkpt>
      <trkpt lat="42.33724" lon="-8.75614">
        <ele>48.563</ele>
        <time>2018-07-28T18:26:03Z</time>
      </trkpt>
      <trkpt lat="42.33727" lon="-8.75598">
        <ele>48.658</ele>
        <time>2018-07-28T18:26:04Z</time>
      </trkpt>
      <trkpt lat="42.33731" lon="-8.75582">
        <ele>48.783</ele>
        <time>2018-07-28T18:26:05Z</time>
      </trkpt>
      <trkpt lat="42.33735" lon="-8.75567">
        <ele>48.861</ele>
        <time>2018-07-28T18:26:06Z</time>
      </trkpt>
      <trkpt lat="42.3374" lon="-8.7555">
        <ele>48.837</ele>
        <time>2018-07-28T18:26:07Z</time>
      </trkpt>
      <trkpt lat="42.33745" lon="-8.75533">
        <ele>49.071</ele>
        <time>2018-07-28T18:26:08Z</time>
      </trkpt>
      <trkpt lat="42.33749" lon="-8.75515">
        <ele>49.241</ele>
        <time>2018-07-28T18:26:09Z</time>
      </trkpt>
      <trkpt lat="42.33756" lon="-8.755">
        <ele>49.315</ele>
        <time>2018-07-28T18:26:10Z</time>
      </trkpt>
      <trkpt lat="42.33761" lon="-8.75482">
        <ele>49.308</ele>
        <time>2018-07-28T18:26:11Z</time>
      </trkpt>
      <trkpt lat="42.33767" lon="-8.75464">
        <ele>49.419</ele>
        <time>2018-07-28T18:26:12Z</time>
      </trkpt>
      <trkpt lat="42.33772" lon="-8.75445">
        <ele>49.474</ele>
        <time>2018-07-28T18:26:13Z</time>
      </trkpt>
      <trkpt lat="42.33777" lon="-8.75426">
        <ele>49.497</ele>
        <time>2018-07-28T18:26:14Z</time>
      </trkpt>
      <trkpt lat="42.33782" lon="-8.75406">
        <ele>49.379</ele>
        <time>2018-07-28T18:26:15Z</time>
      </trkpt>
      <trkpt lat="42.33786" lon="-8.75387">
        <ele>49.024</ele>
        <time>2018-07-28T18:26:16Z</time>
      </trkpt>
      <trkpt lat="42.3379" lon="-8.75369">
        <ele>48.499</ele>
        <time>2018-07-28T18:26:17Z</time>
      </trkpt>
      <trkpt lat="42.33795" lon="-8.75353">
        <ele>47.817</ele>
        <time>2018-07-28T18:26:18Z</time>
      </trkpt>
      <trkpt lat="42.338" lon="-8.75338">
        <ele>47.453</ele>
        <time>2018-07-28T18:26:19Z</time>
      </trkpt>
      <trkpt lat="42.33805" lon="-8.75321">
        <ele>46.887</ele>
        <time>2018-07-28T18:26:20Z</time>
      </trkpt>
      <trkpt lat="42.33812" lon="-8.75308">
        <ele>46.242</ele>
        <time>2018-07-28T18:26:21Z</time>
      </trkpt>
      <trkpt lat="42.3382" lon="-8.75296">
        <ele>46.126</ele>
        <time>2018-07-28T18:26:22Z</time>
      </trkpt>
      <trkpt lat="42.33826" lon="-8.75284">
        <ele>45.808</ele>
        <time>2018-07-28T18:26:23Z</time>
      </trkpt>
      <trkpt lat="42.33837" lon="-8.75275">
        <ele>45.33</ele>
        <time>2018-07-28T18:26:24Z</time>
      </trkpt>
      <trkpt lat="42.33849" lon="-8.75267">
        <ele>45.345</ele>
        <time>2018-07-28T18:26:25Z</time>
      </trkpt>
      <trkpt lat="42.33863" lon="-8.75262">
        <ele>45.518</ele>
        <time>2018-07-28T18:26:26Z</time>
      </trkpt>
      <trkpt lat="42.33878" lon="-8.75259">
        <ele>45.65</ele>
        <time>2018-07-28T18:26:27Z</time>
      </trkpt>
      <trkpt lat="42.33896" lon="-8.75257">
        <ele>45.695</ele>
        <time>2018-07-28T18:26:28Z</time>
      </trkpt>
      <trkpt lat="42.33908" lon="-8.75254">
        <ele>45.32</ele>
        <time>2018-07-28T18:26:29Z</time>
      </trkpt>
      <trkpt lat="42.33923" lon="-8.75253">
        <ele>45.048</ele>
        <time>2018-07-28T18:26:30Z</time>
      </trkpt>
      <trkpt lat="42.33938" lon="-8.75247">
        <ele>44.884</ele>
        <time>2018-07-28T18:26:31Z</time>
      </trkpt>
      <trkpt lat="42.3395" lon="-8.75243">
        <ele>44.558</ele>
        <time>2018-07-28T18:26:32Z</time>
      </trkpt>
      <trkpt lat="42.33962" lon="-8.75241">
        <ele>44.252</ele>
        <time>2018-07-28T18:26:33Z</time>
      </trkpt>
      <trkpt lat="42.33972" lon="-8.75239">
        <ele>44.217</ele>
        <time>2018-07-28T18:26:34Z</time>
      </trkpt>
      <trkpt lat="42.33983" lon="-8.75238">
        <ele>44.008</ele>
        <time>2018-07-28T18:26:35Z</time>
      </trkpt>
      <trkpt lat="42.33994" lon="-8.75235">
        <ele>43.827</ele>
        <time>2018-07-28T18:26:36Z</time>
      </trkpt>
      <trkpt lat="42.34004" lon="-8.75231">
        <ele>43.762</ele>
        <time>2018-07-28T18:26:37Z</time>
      </trkpt>
      <trkpt lat="42.34015" lon="-8.75227">
        <ele>43.595</ele>
        <time>2018-07-28T18:26:38Z</time>
      </trkpt>
      <trkpt lat="42.34026" lon="-8.75222">
        <ele>43.377</ele>
        <time>2018-07-28T18:26:39Z</time>
      </trkpt>
      <trkpt lat="42.34037" lon="-8.75217">
        <ele>43.282</ele>
        <time>2018-07-28T18:26:40Z</time>
      </trkpt>
      <trkpt lat="42.34047" lon="-8.75205">
        <ele>43.057</ele>
        <time>2018-07-28T18:26:41Z</time>
      </trkpt>
      <trkpt lat="42.34056" lon="-8.75187">
        <ele>42.955</ele>
        <time>2018-07-28T18:26:42Z</time>
      </trkpt>
      <trkpt lat="42.34062" lon="-8.75169">
        <ele>42.841</ele>
        <time>2018-07-28T18:26:43Z</time>
      </trkpt>
      <trkpt lat="42.34063" lon="-8.75146">
        <ele>42.337</ele>
        <time>2018-07-28T18:26:44Z</time>
      </trkpt>
      <trkpt lat="42.34067" lon="-8.75127">
        <ele>41.949</ele>
        <time>2018-07-28T18:26:45Z</time>
      </trkpt>
      <trkpt lat="42.34069" lon="-8.7511">
        <ele>41.513</ele>
        <time>2018-07-28T18:26:46Z</time>
      </trkpt>
      <trkpt lat="42.34074" lon="-8.75096">
        <ele>40.908</ele>
        <time>2018-07-28T18:26:47Z</time>
      </trkpt>
      <trkpt lat="42.3408" lon="-8.75082">
        <ele>40.255</ele>
        <time>2018-07-28T18:26:48Z</time>
      </trkpt>
      <trkpt lat="42.34087" lon="-8.75071">
        <ele>39.52</ele>
        <time>2018-07-28T18:26:49Z</time>
      </trkpt>
      <trkpt lat="42.34096" lon="-8.75065">
        <ele>38.873</ele>
        <time>2018-07-28T18:26:50Z</time>
      </trkpt>
      <trkpt lat="42.34105" lon="-8.75058">
        <ele>38.015</ele>
        <time>2018-07-28T18:26:51Z</time>
      </trkpt>
      <trkpt lat="42.34116" lon="-8.75056">
        <ele>37.37</ele>
        <time>2018-07-28T18:26:52Z</time>
      </trkpt>
      <trkpt lat="42.34129" lon="-8.75057">
        <ele>36.895</ele>
        <time>2018-07-28T18:26:53Z</time>
      </trkpt>
      <trkpt lat="42.34144" lon="-8.75059">
        <ele>36.213</ele>
        <time>2018-07-28T18:26:54Z</time>
      </trkpt>
      <trkpt lat="42.34157" lon="-8.7506">
        <ele>35.719</ele>
        <time>2018-07-28T18:26:55Z</time>
      </trkpt>
      <trkpt lat="42.34172" lon="-8.75065">
        <ele>35.235</ele>
        <time>2018-07-28T18:26:56Z</time>
      </trkpt>
      <trkpt lat="42.34186" lon="-8.7507">
        <ele>34.786</ele>
        <time>2018-07-28T18:26:57Z</time>
      </trkpt>
      <trkpt lat="42.342" lon="-8.75073">
        <ele>34.114</ele>
        <time>2018-07-28T18:26:58Z</time>
      </trkpt>
      <trkpt lat="42.34212" lon="-8.75076">
        <ele>33.708</ele>
        <time>2018-07-28T18:26:59Z</time>
      </trkpt>
      <trkpt lat="42.34224" lon="-8.75079">
        <ele>33.275</ele>
        <time>2018-07-28T18:27:00Z</time>
      </trkpt>
      <trkpt lat="42.34235" lon="-8.75079">
        <ele>32.77</ele>
        <time>2018-07-28T18:27:01Z</time>
      </trkpt>
      <trkpt lat="42.34247" lon="-8.75081">
        <ele>32.433</ele>
        <time>2018-07-28T18:27:02Z</time>
      </trkpt>
      <trkpt lat="42.34257" lon="-8.75083">
        <ele>32.175</ele>
        <time>2018-07-28T18:27:03Z</time>
      </trkpt>
      <trkpt lat="42.34269" lon="-8.75085">
        <ele>31.97</ele>
        <time>2018-07-28T18:27:04Z</time>
      </trkpt>
      <trkpt lat="42.34281" lon="-8.75084">
        <ele>31.745</ele>
        <time>2018-07-28T18:27:05Z</time>
      </trkpt>
      <trkpt lat="42.34293" lon="-8.75081">
        <ele>31.633</ele>
        <time>2018-07-28T18:27:06Z</time>
      </trkpt>
      <trkpt lat="42.34305" lon="-8.75075">
        <ele>31.549</ele>
        <time>2018-07-28T18:27:07Z</time>
      </trkpt>
      <trkpt lat="42.34316" lon="-8.75066">
        <ele>31.349</ele>
        <time>2018-07-28T18:27:08Z</time>
      </trkpt>
      <trkpt lat="42.34327" lon="-8.7506">
        <ele>30.902</ele>
        <time>2018-07-28T18:27:09Z</time>
      </trkpt>
      <trkpt lat="42.34339" lon="-8.75054">
        <ele>30.322</ele>
        <time>2018-07-28T18:27:10Z</time>
      </trkpt>
      <trkpt lat="42.34352" lon="-8.75049">
        <ele>29.708</ele>
        <time>2018-07-28T18:27:11Z</time>
      </trkpt>
      <trkpt lat="42.34364" lon="-8.75043">
        <ele>29.396</ele>
        <time>2018-07-28T18:27:12Z</time>
      </trkpt>
      <trkpt lat="42.34375" lon="-8.75034">
        <ele>29.311</ele>
        <time>2018-07-28T18:27:13Z</time>
      </trkpt>
      <trkpt lat="42.34388" lon="-8.75024">
        <ele>29.364</ele>
        <time>2018-07-28T18:27:14Z</time>
      </trkpt>
      <trkpt lat="42.344" lon="-8.75016">
        <ele>29.566</ele>
        <time>2018-07-28T18:27:15Z</time>
      </trkpt>
      <trkpt lat="42.34414" lon="-8.75009">
        <ele>29.841</ele>
        <time>2018-07-28T18:27:16Z</time>
      </trkpt>
      <trkpt lat="42.34425" lon="-8.75004">
        <ele>30.226</ele>
        <time>2018-07-28T18:27:17Z</time>
      </trkpt>
      <trkpt lat="42.34436" lon="-8.75">
        <ele>30.694</ele>
        <time>2018-07-28T18:27:18Z</time>
      </trkpt>
      <trkpt lat="42.34446" lon="-8.74994">
        <ele>31.31</ele>
        <time>2018-07-28T18:27:19Z</time>
      </trkpt>
      <trkpt lat="42.34456" lon="-8.74987">
        <ele>32.269</ele>
        <time>2018-07-28T18:27:20Z</time>
      </trkpt>
      <trkpt lat="42.34467" lon="-8.74981">
        <ele>33.104</ele>
        <time>2018-07-28T18:27:21Z</time>
      </trkpt>
      <trkpt lat="42.3448" lon="-8.74973">
        <ele>34.224</ele>
        <time>2018-07-28T18:27:22Z</time>
      </trkpt>
      <trkpt lat="42.34493" lon="-8.74966">
        <ele>35.208</ele>
        <time>2018-07-28T18:27:23Z</time>
      </trkpt>
      <trkpt lat="42.34508" lon="-8.74958">
        <ele>36.148</ele>
        <time>2018-07-28T18:27:24Z</time>
      </trkpt>
      <trkpt lat="42.34524" lon="-8.7495">
        <ele>37.173</ele>
        <time>2018-07-28T18:27:25Z</time>
      </trkpt>
      <trkpt lat="42.3454" lon="-8.74942">
        <ele>38.596</ele>
        <time>2018-07-28T18:27:26Z</time>
      </trkpt>
      <trkpt lat="42.34556" lon="-8.74933">
        <ele>39.988</ele>
        <time>2018-07-28T18:27:27Z</time>
      </trkpt>
      <trkpt lat="42.34574" lon="-8.74924">
        <ele>41.333</ele>
        <time>2018-07-28T18:27:28Z</time>
      </trkpt>
      <trkpt lat="42.34591" lon="-8.74917">
        <ele>42.388</ele>
        <time>2018-07-28T18:27:29Z</time>
      </trkpt>
      <trkpt lat="42.34602" lon="-8.74906">
        <ele>43.416</ele>
        <time>2018-07-28T18:27:30Z</time>
      </trkpt>
      <trkpt lat="42.34615" lon="-8.74899">
        <ele>43.872</ele>
        <time>2018-07-28T18:27:31Z</time>
      </trkpt>
      <trkpt lat="42.34629" lon="-8.74893">
        <ele>43.875</ele>
        <time>2018-07-28T18:27:32Z</time>
      </trkpt>
      <trkpt lat="42.3464" lon="-8.74886">
        <ele>43.628</ele>
        <time>2018-07-28T18:27:33Z</time>
      </trkpt>
      <trkpt lat="42.34652" lon="-8.74879">
        <ele>43.12</ele>
        <time>2018-07-28T18:27:34Z</time>
      </trkpt>
      <trkpt lat="42.34665" lon="-8.74875">
        <ele>42.708</ele>
        <time>2018-07-28T18:27:35Z</time>
      </trkpt>
      <trkpt lat="42.34678" lon="-8.74869">
        <ele>42.639</ele>
        <time>2018-07-28T18:27:36Z</time>
      </trkpt>
      <trkpt lat="42.34691" lon="-8.74865">
        <ele>42.534</ele>
        <time>2018-07-28T18:27:37Z</time>
      </trkpt>
      <trkpt lat="42.34706" lon="-8.74857">
        <ele>42.487</ele>
        <time>2018-07-28T18:27:38Z</time>
      </trkpt>
      <trkpt lat="42.34719" lon="-8.74852">
        <ele>42.499</ele>
        <time>2018-07-28T18:27:39Z</time>
      </trkpt>
      <trkpt lat="42.34732" lon="-8.74845">
        <ele>42.854</ele>
        <time>2018-07-28T18:27:40Z</time>
      </trkpt>
      <trkpt lat="42.34747" lon="-8.74836">
        <ele>43.079</ele>
        <time>2018-07-28T18:27:41Z</time>
      </trkpt>
      <trkpt lat="42.34761" lon="-8.74829">
        <ele>43.137</ele>
        <time>2018-07-28T18:27:42Z</time>
      </trkpt>
      <trkpt lat="42.34775" lon="-8.74822">
        <ele>43.283</ele>
        <time>2018-07-28T18:27:43Z</time>
      </trkpt>
      <trkpt lat="42.34787" lon="-8.74812">
        <ele>43.292</ele>
        <time>2018-07-28T18:27:44Z</time>
      </trkpt>
      <trkpt lat="42.34798" lon="-8.74803">
        <ele>42.973</ele>
        <time>2018-07-28T18:27:45Z</time>
      </trkpt>
      <trkpt lat="42.34808" lon="-8.74796">
        <ele>42.82</ele>
        <time>2018-07-28T18:27:46Z</time>
      </trkpt>
      <trkpt lat="42.34818" lon="-8.74783">
        <ele>42.608</ele>
        <time>2018-07-28T18:27:47Z</time>
      </trkpt>
      <trkpt lat="42.34825" lon="-8.7477">
        <ele>42.171</ele>
        <time>2018-07-28T18:27:48Z</time>
      </trkpt>
      <trkpt lat="42.34828" lon="-8.74752">
        <ele>42.076</ele>
        <time>2018-07-28T18:27:49Z</time>
      </trkpt>
      <trkpt lat="42.3483" lon="-8.74732">
        <ele>42.069</ele>
        <time>2018-07-28T18:27:50Z</time>
      </trkpt>
      <trkpt lat="42.34833" lon="-8.74713">
        <ele>42.031</ele>
        <time>2018-07-28T18:27:51Z</time>
      </trkpt>
      <trkpt lat="42.34837" lon="-8.74695">
        <ele>41.936</ele>
        <time>2018-07-28T18:27:52Z</time>
      </trkpt>
      <trkpt lat="42.3484" lon="-8.74676">
        <ele>41.721</ele>
        <time>2018-07-28T18:27:53Z</time>
      </trkpt>
      <trkpt lat="42.34844" lon="-8.74661">
        <ele>41.549</ele>
        <time>2018-07-28T18:27:54Z</time>
      </trkpt>
      <trkpt lat="42.34849" lon="-8.74645">
        <ele>41.145</ele>
        <time>2018-07-28T18:27:55Z</time>
      </trkpt>
      <trkpt lat="42.34856" lon="-8.7463">
        <ele>40.978</ele>
        <time>2018-07-28T18:27:56Z</time>
      </trkpt>
      <trkpt lat="42.34863" lon="-8.74617">
        <ele>40.933</ele>
        <time>2018-07-28T18:27:57Z</time>
      </trkpt>
      <trkpt lat="42.34875" lon="-8.7461">
        <ele>40.926</ele>
        <time>2018-07-28T18:27:58Z</time>
      </trkpt>
      <trkpt lat="42.34891" lon="-8.74609">
        <ele>40.808</ele>
        <time>2018-07-28T18:27:59Z</time>
      </trkpt>
      <trkpt lat="42.34906" lon="-8.74607">
        <ele>40.819</ele>
        <time>2018-07-28T18:28:00Z</time>
      </trkpt>
      <trkpt lat="42.34918" lon="-8.74603">
        <ele>40.764</ele>
        <time>2018-07-28T18:28:01Z</time>
      </trkpt>
      <trkpt lat="42.34931" lon="-8.746">
        <ele>40.767</ele>
        <time>2018-07-28T18:28:02Z</time>
      </trkpt>
      <trkpt lat="42.34944" lon="-8.74597">
        <ele>40.799</ele>
        <time>2018-07-28T18:28:03Z</time>
      </trkpt>
      <trkpt lat="42.34951" lon="-8.74593">
        <ele>40.924</ele>
        <time>2018-07-28T18:28:04Z</time>
      </trkpt>
      <trkpt lat="42.3496" lon="-8.74589">
        <ele>41.159</ele>
        <time>2018-07-28T18:28:05Z</time>
      </trkpt>
      <trkpt lat="42.34967" lon="-8.74587">
        <ele>41.287</ele>
        <time>2018-07-28T18:28:06Z</time>
      </trkpt>
      <trkpt lat="42.34973" lon="-8.74586">
        <ele>41.293</ele>
        <time>2018-07-28T18:28:07Z</time>
      </trkpt>
      <trkpt lat="42.34983" lon="-8.74585">
        <ele>41.355</ele>
        <time>2018-07-28T18:28:09Z</time>
      </trkpt>
      <trkpt lat="42.34991" lon="-8.74583">
        <ele>41.507</ele>
        <time>2018-07-28T18:28:11Z</time>
      </trkpt>
      <trkpt lat="42.34996" lon="-8.74581">
        <ele>41.617</ele>
        <time>2018-07-28T18:28:12Z</time>
      </trkpt>
      <trkpt lat="42.35002" lon="-8.74584">
        <ele>41.508</ele>
        <time>2018-07-28T18:28:14Z</time>
      </trkpt>
      <trkpt lat="42.35006" lon="-8.74581">
        <ele>41.287</ele>
        <time>2018-07-28T18:28:16Z</time>
      </trkpt>
      <trkpt lat="42.35015" lon="-8.74578">
        <ele>40.992</ele>
        <time>2018-07-28T18:28:19Z</time>
      </trkpt>
      <trkpt lat="42.35021" lon="-8.74574">
        <ele>40.915</ele>
        <time>2018-07-28T18:28:20Z</time>
      </trkpt>
      <trkpt lat="42.35027" lon="-8.74572">
        <ele>41.017</ele>
        <time>2018-07-28T18:28:21Z</time>
      </trkpt>
      <trkpt lat="42.35034" lon="-8.74571">
        <ele>41.162</ele>
        <time>2018-07-28T18:28:22Z</time>
      </trkpt>
      <trkpt lat="42.35042" lon="-8.74571">
        <ele>41.167</ele>
        <time>2018-07-28T18:28:23Z</time>
      </trkpt>
      <trkpt lat="42.35051" lon="-8.74568">
        <ele>41.165</ele>
        <time>2018-07-28T18:28:24Z</time>
      </trkpt>
      <trkpt lat="42.3506" lon="-8.74566">
        <ele>41.131</ele>
        <time>2018-07-28T18:28:25Z</time>
      </trkpt>
      <trkpt lat="42.3507" lon="-8.74564">
        <ele>41.269</ele>
        <time>2018-07-28T18:28:26Z</time>
      </trkpt>
      <trkpt lat="42.35079" lon="-8.74559">
        <ele>41.204</ele>
        <time>2018-07-28T18:28:27Z</time>
      </trkpt>
      <trkpt lat="42.35091" lon="-8.74554">
        <ele>41.424</ele>
        <time>2018-07-28T18:28:28Z</time>
      </trkpt>
      <trkpt lat="42.35101" lon="-8.74549">
        <ele>41.808</ele>
        <time>2018-07-28T18:28:29Z</time>
      </trkpt>
      <trkpt lat="42.35115" lon="-8.7454">
        <ele>42.268</ele>
        <time>2018-07-28T18:28:30Z</time>
      </trkpt>
      <trkpt lat="42.35127" lon="-8.74535">
        <ele>42.683</ele>
        <time>2018-07-28T18:28:31Z</time>
      </trkpt>
      <trkpt lat="42.35138" lon="-8.74529">
        <ele>43.026</ele>
        <time>2018-07-28T18:28:32Z</time>
      </trkpt>
      <trkpt lat="42.35146" lon="-8.74521">
        <ele>43.448</ele>
        <time>2018-07-28T18:28:33Z</time>
      </trkpt>
      <trkpt lat="42.35155" lon="-8.74511">
        <ele>43.653</ele>
        <time>2018-07-28T18:28:34Z</time>
      </trkpt>
      <trkpt lat="42.35164" lon="-8.74505">
        <ele>43.838</ele>
        <time>2018-07-28T18:28:35Z</time>
      </trkpt>
      <trkpt lat="42.35172" lon="-8.74498">
        <ele>44.096</ele>
        <time>2018-07-28T18:28:36Z</time>
      </trkpt>
      <trkpt lat="42.35182" lon="-8.74489">
        <ele>44.792</ele>
        <time>2018-07-28T18:28:37Z</time>
      </trkpt>
      <trkpt lat="42.35191" lon="-8.74483">
        <ele>45.171</ele>
        <time>2018-07-28T18:28:38Z</time>
      </trkpt>
      <trkpt lat="42.352" lon="-8.74477">
        <ele>45.541</ele>
        <time>2018-07-28T18:28:39Z</time>
      </trkpt>
      <trkpt lat="42.35208" lon="-8.74471">
        <ele>45.915</ele>
        <time>2018-07-28T18:28:40Z</time>
      </trkpt>
      <trkpt lat="42.35216" lon="-8.74463">
        <ele>46.108</ele>
        <time>2018-07-28T18:28:41Z</time>
      </trkpt>
      <trkpt lat="42.35224" lon="-8.74459">
        <ele>46.359</ele>
        <time>2018-07-28T18:28:42Z</time>
      </trkpt>
      <trkpt lat="42.35233" lon="-8.74451">
        <ele>46.554</ele>
        <time>2018-07-28T18:28:43Z</time>
      </trkpt>
      <trkpt lat="42.35241" lon="-8.74446">
        <ele>46.767</ele>
        <time>2018-07-28T18:28:44Z</time>
      </trkpt>
      <trkpt lat="42.35249" lon="-8.74438">
        <ele>46.849</ele>
        <time>2018-07-28T18:28:45Z</time>
      </trkpt>
      <trkpt lat="42.35257" lon="-8.74434">
        <ele>47.014</ele>
        <time>2018-07-28T18:28:46Z</time>
      </trkpt>
      <trkpt lat="42.35265" lon="-8.7443">
        <ele>47.239</ele>
        <time>2018-07-28T18:28:47Z</time>
      </trkpt>
      <trkpt lat="42.35272" lon="-8.74425">
        <ele>47.277</ele>
        <time>2018-07-28T18:28:48Z</time>
      </trkpt>
      <trkpt lat="42.3528" lon="-8.74418">
        <ele>47.213</ele>
        <time>2018-07-28T18:28:49Z</time>
      </trkpt>
      <trkpt lat="42.35287" lon="-8.74413">
        <ele>47.282</ele>
        <time>2018-07-28T18:28:50Z</time>
      </trkpt>
      <trkpt lat="42.35291" lon="-8.74401">
        <ele>47.243</ele>
        <time>2018-07-28T18:28:51Z</time>
      </trkpt>
      <trkpt lat="42.35292" lon="-8.74389">
        <ele>47.317</ele>
        <time>2018-07-28T18:28:52Z</time>
      </trkpt>
      <trkpt lat="42.35289" lon="-8.74376">
        <ele>47.708</ele>
        <time>2018-07-28T18:28:53Z</time>
      </trkpt>
      <trkpt lat="42.35289" lon="-8.74364">
        <ele>47.96</ele>
        <time>2018-07-28T18:28:54Z</time>
      </trkpt>
      <trkpt lat="42.35293" lon="-8.74353">
        <ele>48.045</ele>
        <time>2018-07-28T18:28:55Z</time>
      </trkpt>
      <trkpt lat="42.35299" lon="-8.74351">
        <ele>48.018</ele>
        <time>2018-07-28T18:28:56Z</time>
      </trkpt>
      <trkpt lat="42.35306" lon="-8.74352">
        <ele>47.91</ele>
        <time>2018-07-28T18:28:57Z</time>
      </trkpt>
      <trkpt lat="42.35312" lon="-8.74356">
        <ele>47.935</ele>
        <time>2018-07-28T18:28:58Z</time>
      </trkpt>
      <trkpt lat="42.35319" lon="-8.74362">
        <ele>47.92</ele>
        <time>2018-07-28T18:28:59Z</time>
      </trkpt>
      <trkpt lat="42.35324" lon="-8.74371">
        <ele>48.118</ele>
        <time>2018-07-28T18:29:00Z</time>
      </trkpt>
      <trkpt lat="42.35332" lon="-8.74375">
        <ele>48.384</ele>
        <time>2018-07-28T18:29:01Z</time>
      </trkpt>
      <trkpt lat="42.35338" lon="-8.74378">
        <ele>48.391</ele>
        <time>2018-07-28T18:29:02Z</time>
      </trkpt>
      <trkpt lat="42.35344" lon="-8.74379">
        <ele>48.381</ele>
        <time>2018-07-28T18:29:03Z</time>
      </trkpt>
      <trkpt lat="42.35349" lon="-8.74378">
        <ele>48.219</ele>
        <time>2018-07-28T18:29:04Z</time>
      </trkpt>
      <trkpt lat="42.35358" lon="-8.74375">
        <ele>47.808</ele>
        <time>2018-07-28T18:29:06Z</time>
      </trkpt>
      <trkpt lat="42.35364" lon="-8.74373">
        <ele>47.841</ele>
        <time>2018-07-28T18:29:07Z</time>
      </trkpt>
      <trkpt lat="42.35369" lon="-8.74366">
        <ele>47.936</ele>
        <time>2018-07-28T18:29:08Z</time>
      </trkpt>
      <trkpt lat="42.35379" lon="-8.7436">
        <ele>48.579</ele>
        <time>2018-07-28T18:29:09Z</time>
      </trkpt>
      <trkpt lat="42.35392" lon="-8.74347">
        <ele>49.131</ele>
        <time>2018-07-28T18:29:10Z</time>
      </trkpt>
      <trkpt lat="42.3541" lon="-8.74336">
        <ele>50.246</ele>
        <time>2018-07-28T18:29:11Z</time>
      </trkpt>
      <trkpt lat="42.35428" lon="-8.74322">
        <ele>51.231</ele>
        <time>2018-07-28T18:29:12Z</time>
      </trkpt>
      <trkpt lat="42.35444" lon="-8.74312">
        <ele>52.379</ele>
        <time>2018-07-28T18:29:13Z</time>
      </trkpt>
      <trkpt lat="42.35462" lon="-8.74301">
        <ele>53.565</ele>
        <time>2018-07-28T18:29:14Z</time>
      </trkpt>
      <trkpt lat="42.35479" lon="-8.7429">
        <ele>54.818</ele>
        <time>2018-07-28T18:29:15Z</time>
      </trkpt>
      <trkpt lat="42.35499" lon="-8.74274">
        <ele>56.198</ele>
        <time>2018-07-28T18:29:16Z</time>
      </trkpt>
      <trkpt lat="42.35518" lon="-8.7426">
        <ele>57.617</ele>
        <time>2018-07-28T18:29:17Z</time>
      </trkpt>
      <trkpt lat="42.35538" lon="-8.74246">
        <ele>58.908</ele>
        <time>2018-07-28T18:29:18Z</time>
      </trkpt>
      <trkpt lat="42.35554" lon="-8.74233">
        <ele>60.043</ele>
        <time>2018-07-28T18:29:19Z</time>
      </trkpt>
      <trkpt lat="42.35571" lon="-8.7422">
        <ele>60.798</ele>
        <time>2018-07-28T18:29:20Z</time>
      </trkpt>
      <trkpt lat="42.35587" lon="-8.74212">
        <ele>60.941</ele>
        <time>2018-07-28T18:29:21Z</time>
      </trkpt>
      <trkpt lat="42.35605" lon="-8.74197">
        <ele>61.133</ele>
        <time>2018-07-28T18:29:22Z</time>
      </trkpt>
      <trkpt lat="42.35622" lon="-8.74186">
        <ele>61.258</ele>
        <time>2018-07-28T18:29:23Z</time>
      </trkpt>
      <trkpt lat="42.3564" lon="-8.74176">
        <ele>61.353</ele>
        <time>2018-07-28T18:29:24Z</time>
      </trkpt>
      <trkpt lat="42.35655" lon="-8.74165">
        <ele>62.041</ele>
        <time>2018-07-28T18:29:25Z</time>
      </trkpt>
      <trkpt lat="42.3567" lon="-8.74156">
        <ele>62.377</ele>
        <time>2018-07-28T18:29:26Z</time>
      </trkpt>
      <trkpt lat="42.35685" lon="-8.74144">
        <ele>62.594</ele>
        <time>2018-07-28T18:29:27Z</time>
      </trkpt>
      <trkpt lat="42.357" lon="-8.74132">
        <ele>62.557</ele>
        <time>2018-07-28T18:29:28Z</time>
      </trkpt>
      <trkpt lat="42.35712" lon="-8.74124">
        <ele>62.322</ele>
        <time>2018-07-28T18:29:29Z</time>
      </trkpt>
      <trkpt lat="42.35726" lon="-8.74114">
        <ele>61.608</ele>
        <time>2018-07-28T18:29:30Z</time>
      </trkpt>
      <trkpt lat="42.35739" lon="-8.74105">
        <ele>60.471</ele>
        <time>2018-07-28T18:29:31Z</time>
      </trkpt>
      <trkpt lat="42.35754" lon="-8.74098">
        <ele>59.096</ele>
        <time>2018-07-28T18:29:32Z</time>
      </trkpt>
      <trkpt lat="42.35766" lon="-8.74092">
        <ele>57.539</ele>
        <time>2018-07-28T18:29:33Z</time>
      </trkpt>
      <trkpt lat="42.3578" lon="-8.74082">
        <ele>56.221</ele>
        <time>2018-07-28T18:29:34Z</time>
      </trkpt>
      <trkpt lat="42.35792" lon="-8.74072">
        <ele>55.176</ele>
        <time>2018-07-28T18:29:35Z</time>
      </trkpt>
      <trkpt lat="42.35806" lon="-8.74063">
        <ele>54.291</ele>
        <time>2018-07-28T18:29:36Z</time>
      </trkpt>
      <trkpt lat="42.35818" lon="-8.74055">
        <ele>53.599</ele>
        <time>2018-07-28T18:29:37Z</time>
      </trkpt>
      <trkpt lat="42.35828" lon="-8.74044">
        <ele>52.915</ele>
        <time>2018-07-28T18:29:38Z</time>
      </trkpt>
      <trkpt lat="42.35841" lon="-8.74035">
        <ele>52.686</ele>
        <time>2018-07-28T18:29:39Z</time>
      </trkpt>
      <trkpt lat="42.35853" lon="-8.74029">
        <ele>52.26</ele>
        <time>2018-07-28T18:29:40Z</time>
      </trkpt>
      <trkpt lat="42.35866" lon="-8.7402">
        <ele>51.226</ele>
        <time>2018-07-28T18:29:41Z</time>
      </trkpt>
      <trkpt lat="42.35879" lon="-8.74013">
        <ele>50.608</ele>
        <time>2018-07-28T18:29:42Z</time>
      </trkpt>
      <trkpt lat="42.35891" lon="-8.74005">
        <ele>49.62</ele>
        <time>2018-07-28T18:29:43Z</time>
      </trkpt>
      <trkpt lat="42.35903" lon="-8.73995">
        <ele>48.885</ele>
        <time>2018-07-28T18:29:44Z</time>
      </trkpt>
      <trkpt lat="42.35913" lon="-8.73987">
        <ele>48.028</ele>
        <time>2018-07-28T18:29:45Z</time>
      </trkpt>
      <trkpt lat="42.35925" lon="-8.73979">
        <ele>47.29</ele>
        <time>2018-07-28T18:29:46Z</time>
      </trkpt>
      <trkpt lat="42.35937" lon="-8.73972">
        <ele>46.455</ele>
        <time>2018-07-28T18:29:47Z</time>
      </trkpt>
      <trkpt lat="42.3595" lon="-8.73964">
        <ele>45.84</ele>
        <time>2018-07-28T18:29:48Z</time>
      </trkpt>
      <trkpt lat="42.35961" lon="-8.73956">
        <ele>45.448</ele>
        <time>2018-07-28T18:29:49Z</time>
      </trkpt>
      <trkpt lat="42.35973" lon="-8.73948">
        <ele>44.984</ele>
        <time>2018-07-28T18:29:50Z</time>
      </trkpt>
      <trkpt lat="42.35983" lon="-8.73937">
        <ele>44.339</ele>
        <time>2018-07-28T18:29:51Z</time>
      </trkpt>
      <trkpt lat="42.35995" lon="-8.73931">
        <ele>43.801</ele>
        <time>2018-07-28T18:29:52Z</time>
      </trkpt>
      <trkpt lat="42.36007" lon="-8.73925">
        <ele>43.421</ele>
        <time>2018-07-28T18:29:53Z</time>
      </trkpt>
      <trkpt lat="42.36018" lon="-8.73916">
        <ele>42.808</ele>
        <time>2018-07-28T18:29:54Z</time>
      </trkpt>
      <trkpt lat="42.3603" lon="-8.73909">
        <ele>42.125</ele>
        <time>2018-07-28T18:29:55Z</time>
      </trkpt>
      <trkpt lat="42.36042" lon="-8.73901">
        <ele>41.56</ele>
        <time>2018-07-28T18:29:56Z</time>
      </trkpt>
      <trkpt lat="42.36056" lon="-8.73893">
        <ele>40.573</ele>
        <time>2018-07-28T18:29:57Z</time>
      </trkpt>
      <trkpt lat="42.36068" lon="-8.73882">
        <ele>40.115</ele>
        <time>2018-07-28T18:29:58Z</time>
      </trkpt>
      <trkpt lat="42.36082" lon="-8.73871">
        <ele>39.72</ele>
        <time>2018-07-28T18:29:59Z</time>
      </trkpt>
      <trkpt lat="42.36095" lon="-8.73862">
        <ele>39.265</ele>
        <time>2018-07-28T18:30:00Z</time>
      </trkpt>
      <trkpt lat="42.36108" lon="-8.73854">
        <ele>38.873</ele>
        <time>2018-07-28T18:30:01Z</time>
      </trkpt>
      <trkpt lat="42.36122" lon="-8.73846">
        <ele>38.279</ele>
        <time>2018-07-28T18:30:02Z</time>
      </trkpt>
      <trkpt lat="42.36134" lon="-8.73837">
        <ele>37.559</ele>
        <time>2018-07-28T18:30:03Z</time>
      </trkpt>
      <trkpt lat="42.36147" lon="-8.73828">
        <ele>36.803</ele>
        <time>2018-07-28T18:30:04Z</time>
      </trkpt>
      <trkpt lat="42.3616" lon="-8.73819">
        <ele>36.123</ele>
        <time>2018-07-28T18:30:05Z</time>
      </trkpt>
      <trkpt lat="42.36172" lon="-8.73809">
        <ele>35.508</ele>
        <time>2018-07-28T18:30:06Z</time>
      </trkpt>
      <trkpt lat="42.36186" lon="-8.73798">
        <ele>34.957</ele>
        <time>2018-07-28T18:30:07Z</time>
      </trkpt>
      <trkpt lat="42.362" lon="-8.7379">
        <ele>34.222</ele>
        <time>2018-07-28T18:30:08Z</time>
      </trkpt>
      <trkpt lat="42.36214" lon="-8.73781">
        <ele>33.775</ele>
        <time>2018-07-28T18:30:09Z</time>
      </trkpt>
      <trkpt lat="42.36228" lon="-8.7377">
        <ele>33.367</ele>
        <time>2018-07-28T18:30:10Z</time>
      </trkpt>
      <trkpt lat="42.36241" lon="-8.7376">
        <ele>32.672</ele>
        <time>2018-07-28T18:30:11Z</time>
      </trkpt>
      <trkpt lat="42.36256" lon="-8.7375">
        <ele>31.837</ele>
        <time>2018-07-28T18:30:12Z</time>
      </trkpt>
      <trkpt lat="42.36271" lon="-8.73741">
        <ele>31.565</ele>
        <time>2018-07-28T18:30:13Z</time>
      </trkpt>
      <trkpt lat="42.36286" lon="-8.73729">
        <ele>31.031</ele>
        <time>2018-07-28T18:30:14Z</time>
      </trkpt>
      <trkpt lat="42.36299" lon="-8.73718">
        <ele>30.514</ele>
        <time>2018-07-28T18:30:15Z</time>
      </trkpt>
      <trkpt lat="42.36314" lon="-8.73709">
        <ele>30.054</ele>
        <time>2018-07-28T18:30:16Z</time>
      </trkpt>
      <trkpt lat="42.36328" lon="-8.73698">
        <ele>29.409</ele>
        <time>2018-07-28T18:30:17Z</time>
      </trkpt>
      <trkpt lat="42.3634" lon="-8.73688">
        <ele>28.708</ele>
        <time>2018-07-28T18:30:18Z</time>
      </trkpt>
      <trkpt lat="42.36351" lon="-8.73679">
        <ele>28.043</ele>
        <time>2018-07-28T18:30:19Z</time>
      </trkpt>
      <trkpt lat="42.36362" lon="-8.73673">
        <ele>27.468</ele>
        <time>2018-07-28T18:30:20Z</time>
      </trkpt>
      <trkpt lat="42.36373" lon="-8.73665">
        <ele>26.971</ele>
        <time>2018-07-28T18:30:21Z</time>
      </trkpt>
      <trkpt lat="42.36384" lon="-8.73658">
        <ele>26.663</ele>
        <time>2018-07-28T18:30:22Z</time>
      </trkpt>
      <trkpt lat="42.36395" lon="-8.73651">
        <ele>26.628</ele>
        <time>2018-07-28T18:30:23Z</time>
      </trkpt>
      <trkpt lat="42.36408" lon="-8.73642">
        <ele>26.993</ele>
        <time>2018-07-28T18:30:24Z</time>
      </trkpt>
      <trkpt lat="42.36422" lon="-8.73631">
        <ele>27.361</ele>
        <time>2018-07-28T18:30:25Z</time>
      </trkpt>
      <trkpt lat="42.36436" lon="-8.73621">
        <ele>28.437</ele>
        <time>2018-07-28T18:30:26Z</time>
      </trkpt>
      <trkpt lat="42.3645" lon="-8.73613">
        <ele>29.419</ele>
        <time>2018-07-28T18:30:27Z</time>
      </trkpt>
      <trkpt lat="42.36463" lon="-8.73601">
        <ele>31.209</ele>
        <time>2018-07-28T18:30:28Z</time>
      </trkpt>
      <trkpt lat="42.36476" lon="-8.73589">
        <ele>32.819</ele>
        <time>2018-07-28T18:30:29Z</time>
      </trkpt>
      <trkpt lat="42.36488" lon="-8.73577">
        <ele>33.808</ele>
        <time>2018-07-28T18:30:30Z</time>
      </trkpt>
      <trkpt lat="42.36501" lon="-8.73566">
        <ele>34.673</ele>
        <time>2018-07-28T18:30:31Z</time>
      </trkpt>
      <trkpt lat="42.36514" lon="-8.73555">
        <ele>35.348</ele>
        <time>2018-07-28T18:30:32Z</time>
      </trkpt>
      <trkpt lat="42.36526" lon="-8.73545">
        <ele>36.031</ele>
        <time>2018-07-28T18:30:33Z</time>
      </trkpt>
      <trkpt lat="42.36539" lon="-8.73533">
        <ele>36.583</ele>
        <time>2018-07-28T18:30:34Z</time>
      </trkpt>
      <trkpt lat="42.36554" lon="-8.73523">
        <ele>37.138</ele>
        <time>2018-07-28T18:30:35Z</time>
      </trkpt>
      <trkpt lat="42.36567" lon="-8.73514">
        <ele>38.193</ele>
        <time>2018-07-28T18:30:36Z</time>
      </trkpt>
      <trkpt lat="42.3658" lon="-8.73503">
        <ele>39.391</ele>
        <time>2018-07-28T18:30:37Z</time>
      </trkpt>
      <trkpt lat="42.36593" lon="-8.73492">
        <ele>40.327</ele>
        <time>2018-07-28T18:30:38Z</time>
      </trkpt>
      <trkpt lat="42.36604" lon="-8.73482">
        <ele>41.134</ele>
        <time>2018-07-28T18:30:39Z</time>
      </trkpt>
      <trkpt lat="42.36616" lon="-8.73474">
        <ele>41.855</ele>
        <time>2018-07-28T18:30:40Z</time>
      </trkpt>
      <trkpt lat="42.36629" lon="-8.73465">
        <ele>42.41</ele>
        <time>2018-07-28T18:30:41Z</time>
      </trkpt>
      <trkpt lat="42.3664" lon="-8.73456">
        <ele>42.808</ele>
        <time>2018-07-28T18:30:42Z</time>
      </trkpt>
      <trkpt lat="42.36649" lon="-8.73446">
        <ele>43.225</ele>
        <time>2018-07-28T18:30:43Z</time>
      </trkpt>
      <trkpt lat="42.36659" lon="-8.73437">
        <ele>44.44</ele>
        <time>2018-07-28T18:30:44Z</time>
      </trkpt>
      <trkpt lat="42.36672" lon="-8.73431">
        <ele>45.053</ele>
        <time>2018-07-28T18:30:45Z</time>
      </trkpt>
      <trkpt lat="42.36681" lon="-8.73423">
        <ele>45.775</ele>
        <time>2018-07-28T18:30:46Z</time>
      </trkpt>
      <trkpt lat="42.36689" lon="-8.73416">
        <ele>46.44</ele>
        <time>2018-07-28T18:30:47Z</time>
      </trkpt>
      <trkpt lat="42.36698" lon="-8.73407">
        <ele>46.925</ele>
        <time>2018-07-28T18:30:48Z</time>
      </trkpt>
      <trkpt lat="42.36708" lon="-8.734">
        <ele>47.593</ele>
        <time>2018-07-28T18:30:49Z</time>
      </trkpt>
      <trkpt lat="42.36716" lon="-8.73392">
        <ele>48.329</ele>
        <time>2018-07-28T18:30:50Z</time>
      </trkpt>
      <trkpt lat="42.36727" lon="-8.73383">
        <ele>49.173</ele>
        <time>2018-07-28T18:30:51Z</time>
      </trkpt>
      <trkpt lat="42.36738" lon="-8.73373">
        <ele>50.185</ele>
        <time>2018-07-28T18:30:52Z</time>
      </trkpt>
      <trkpt lat="42.3675" lon="-8.73362">
        <ele>51.313</ele>
        <time>2018-07-28T18:30:53Z</time>
      </trkpt>
      <trkpt lat="42.36762" lon="-8.73353">
        <ele>52.708</ele>
        <time>2018-07-28T18:30:54Z</time>
      </trkpt>
      <trkpt lat="42.36773" lon="-8.73349">
        <ele>53.699</ele>
        <time>2018-07-28T18:30:55Z</time>
      </trkpt>
      <trkpt lat="42.3678" lon="-8.73338">
        <ele>54.534</ele>
        <time>2018-07-28T18:30:56Z</time>
      </trkpt>
      <trkpt lat="42.36787" lon="-8.73324">
        <ele>55.427</ele>
        <time>2018-07-28T18:30:57Z</time>
      </trkpt>
      <trkpt lat="42.36799" lon="-8.73316">
        <ele>56.239</ele>
        <time>2018-07-28T18:30:58Z</time>
      </trkpt>
      <trkpt lat="42.3681" lon="-8.73307">
        <ele>56.764</ele>
        <time>2018-07-28T18:30:59Z</time>
      </trkpt>
      <trkpt lat="42.36822" lon="-8.73296">
        <ele>58.739</ele>
        <time>2018-07-28T18:31:00Z</time>
      </trkpt>
      <trkpt lat="42.36833" lon="-8.73283">
        <ele>59.997</ele>
        <time>2018-07-28T18:31:01Z</time>
      </trkpt>
      <trkpt lat="42.36845" lon="-8.73271">
        <ele>61.143</ele>
        <time>2018-07-28T18:31:02Z</time>
      </trkpt>
      <trkpt lat="42.36858" lon="-8.7326">
        <ele>62.494</ele>
        <time>2018-07-28T18:31:03Z</time>
      </trkpt>
      <trkpt lat="42.3687" lon="-8.7325">
        <ele>63.257</ele>
        <time>2018-07-28T18:31:04Z</time>
      </trkpt>
      <trkpt lat="42.36881" lon="-8.7324">
        <ele>63.722</ele>
        <time>2018-07-28T18:31:05Z</time>
      </trkpt>
      <trkpt lat="42.3689" lon="-8.7323">
        <ele>64.108</ele>
        <time>2018-07-28T18:31:06Z</time>
      </trkpt>
      <trkpt lat="42.36897" lon="-8.73222">
        <ele>64.441</ele>
        <time>2018-07-28T18:31:07Z</time>
      </trkpt>
      <trkpt lat="42.36904" lon="-8.73211">
        <ele>64.426</ele>
        <time>2018-07-28T18:31:08Z</time>
      </trkpt>
      <trkpt lat="42.36911" lon="-8.73202">
        <ele>64.719</ele>
        <time>2018-07-28T18:31:09Z</time>
      </trkpt>
      <trkpt lat="42.36918" lon="-8.73193">
        <ele>65.031</ele>
        <time>2018-07-28T18:31:10Z</time>
      </trkpt>
      <trkpt lat="42.36928" lon="-8.73187">
        <ele>65.236</ele>
        <time>2018-07-28T18:31:11Z</time>
      </trkpt>
      <trkpt lat="42.36938" lon="-8.73181">
        <ele>65.321</ele>
        <time>2018-07-28T18:31:12Z</time>
      </trkpt>
      <trkpt lat="42.36945" lon="-8.73172">
        <ele>65.469</ele>
        <time>2018-07-28T18:31:13Z</time>
      </trkpt>
      <trkpt lat="42.36954" lon="-8.73163">
        <ele>65.545</ele>
        <time>2018-07-28T18:31:14Z</time>
      </trkpt>
      <trkpt lat="42.36962" lon="-8.73155">
        <ele>65.976</ele>
        <time>2018-07-28T18:31:15Z</time>
      </trkpt>
      <trkpt lat="42.36971" lon="-8.73145">
        <ele>66.49</ele>
        <time>2018-07-28T18:31:16Z</time>
      </trkpt>
      <trkpt lat="42.36978" lon="-8.73137">
        <ele>66.619</ele>
        <time>2018-07-28T18:31:17Z</time>
      </trkpt>
      <trkpt lat="42.36986" lon="-8.73128">
        <ele>66.708</ele>
        <time>2018-07-28T18:31:18Z</time>
      </trkpt>
      <trkpt lat="42.36993" lon="-8.73118">
        <ele>66.719</ele>
        <time>2018-07-28T18:31:19Z</time>
      </trkpt>
      <trkpt lat="42.37" lon="-8.73109">
        <ele>66.684</ele>
        <time>2018-07-28T18:31:20Z</time>
      </trkpt>
      <trkpt lat="42.37009" lon="-8.73105">
        <ele>66.587</ele>
        <time>2018-07-28T18:31:21Z</time>
      </trkpt>
      <trkpt lat="42.37018" lon="-8.73103">
        <ele>66.429</ele>
        <time>2018-07-28T18:31:22Z</time>
      </trkpt>
      <trkpt lat="42.37024" lon="-8.731">
        <ele>66.424</ele>
        <time>2018-07-28T18:31:23Z</time>
      </trkpt>
      <trkpt lat="42.37033" lon="-8.73096">
        <ele>66.569</ele>
        <time>2018-07-28T18:31:24Z</time>
      </trkpt>
      <trkpt lat="42.37041" lon="-8.73091">
        <ele>66.817</ele>
        <time>2018-07-28T18:31:25Z</time>
      </trkpt>
      <trkpt lat="42.37049" lon="-8.73084">
        <ele>67.223</ele>
        <time>2018-07-28T18:31:26Z</time>
      </trkpt>
      <trkpt lat="42.37057" lon="-8.73078">
        <ele>67.654</ele>
        <time>2018-07-28T18:31:27Z</time>
      </trkpt>
      <trkpt lat="42.37064" lon="-8.7307">
        <ele>68.156</ele>
        <time>2018-07-28T18:31:28Z</time>
      </trkpt>
      <trkpt lat="42.37072" lon="-8.73065">
        <ele>68.311</ele>
        <time>2018-07-28T18:31:29Z</time>
      </trkpt>
      <trkpt lat="42.3708" lon="-8.7306">
        <ele>68.508</ele>
        <time>2018-07-28T18:31:30Z</time>
      </trkpt>
      <trkpt lat="42.37087" lon="-8.73054">
        <ele>68.827</ele>
        <time>2018-07-28T18:31:31Z</time>
      </trkpt>
      <trkpt lat="42.37094" lon="-8.73047">
        <ele>68.932</ele>
        <time>2018-07-28T18:31:32Z</time>
      </trkpt>
      <trkpt lat="42.37101" lon="-8.73038">
        <ele>69.115</ele>
        <time>2018-07-28T18:31:33Z</time>
      </trkpt>
      <trkpt lat="42.37109" lon="-8.73025">
        <ele>69.387</ele>
        <time>2018-07-28T18:31:34Z</time>
      </trkpt>
      <trkpt lat="42.37121" lon="-8.73017">
        <ele>69.422</ele>
        <time>2018-07-28T18:31:35Z</time>
      </trkpt>
      <trkpt lat="42.3713" lon="-8.73007">
        <ele>69.577</ele>
        <time>2018-07-28T18:31:36Z</time>
      </trkpt>
      <trkpt lat="42.37138" lon="-8.72996">
        <ele>69.535</ele>
        <time>2018-07-28T18:31:37Z</time>
      </trkpt>
      <trkpt lat="42.37146" lon="-8.72989">
        <ele>69.651</ele>
        <time>2018-07-28T18:31:38Z</time>
      </trkpt>
      <trkpt lat="42.37155" lon="-8.72981">
        <ele>69.719</ele>
        <time>2018-07-28T18:31:39Z</time>
      </trkpt>
      <trkpt lat="42.37164" lon="-8.72973">
        <ele>70.109</ele>
        <time>2018-07-28T18:31:40Z</time>
      </trkpt>
      <trkpt lat="42.37173" lon="-8.72966">
        <ele>70.519</ele>
        <time>2018-07-28T18:31:41Z</time>
      </trkpt>
      <trkpt lat="42.37181" lon="-8.72958">
        <ele>70.708</ele>
        <time>2018-07-28T18:31:42Z</time>
      </trkpt>
      <trkpt lat="42.37192" lon="-8.72957">
        <ele>70.853</ele>
        <time>2018-07-28T18:31:43Z</time>
      </trkpt>
      <trkpt lat="42.372" lon="-8.72954">
        <ele>70.898</ele>
        <time>2018-07-28T18:31:44Z</time>
      </trkpt>
      <trkpt lat="42.37207" lon="-8.72948">
        <ele>70.741</ele>
        <time>2018-07-28T18:31:45Z</time>
      </trkpt>
      <trkpt lat="42.37213" lon="-8.72936">
        <ele>70.713</ele>
        <time>2018-07-28T18:31:46Z</time>
      </trkpt>
      <trkpt lat="42.3722" lon="-8.72927">
        <ele>71.158</ele>
        <time>2018-07-28T18:31:47Z</time>
      </trkpt>
      <trkpt lat="42.37227" lon="-8.72918">
        <ele>71.363</ele>
        <time>2018-07-28T18:31:48Z</time>
      </trkpt>
      <trkpt lat="42.37236" lon="-8.72908">
        <ele>71.591</ele>
        <time>2018-07-28T18:31:49Z</time>
      </trkpt>
      <trkpt lat="42.37247" lon="-8.729">
        <ele>71.667</ele>
        <time>2018-07-28T18:31:50Z</time>
      </trkpt>
      <trkpt lat="42.37258" lon="-8.72892">
        <ele>71.611</ele>
        <time>2018-07-28T18:31:51Z</time>
      </trkpt>
      <trkpt lat="42.37268" lon="-8.72883">
        <ele>71.721</ele>
        <time>2018-07-28T18:31:52Z</time>
      </trkpt>
      <trkpt lat="42.37277" lon="-8.72875">
        <ele>71.803</ele>
        <time>2018-07-28T18:31:53Z</time>
      </trkpt>
      <trkpt lat="42.37288" lon="-8.72871">
        <ele>71.808</ele>
        <time>2018-07-28T18:31:54Z</time>
      </trkpt>
      <trkpt lat="42.37297" lon="-8.72864">
        <ele>71.653</ele>
        <time>2018-07-28T18:31:55Z</time>
      </trkpt>
      <trkpt lat="42.37306" lon="-8.72853">
        <ele>71.468</ele>
        <time>2018-07-28T18:31:56Z</time>
      </trkpt>
      <trkpt lat="42.37315" lon="-8.72845">
        <ele>71.091</ele>
        <time>2018-07-28T18:31:57Z</time>
      </trkpt>
      <trkpt lat="42.37323" lon="-8.72837">
        <ele>70.763</ele>
        <time>2018-07-28T18:31:58Z</time>
      </trkpt>
      <trkpt lat="42.37331" lon="-8.72828">
        <ele>70.598</ele>
        <time>2018-07-28T18:31:59Z</time>
      </trkpt>
      <trkpt lat="42.37338" lon="-8.72819">
        <ele>70.473</ele>
        <time>2018-07-28T18:32:00Z</time>
      </trkpt>
      <trkpt lat="42.37347" lon="-8.72812">
        <ele>70.221</ele>
        <time>2018-07-28T18:32:01Z</time>
      </trkpt>
      <trkpt lat="42.37354" lon="-8.72806">
        <ele>70.047</ele>
        <time>2018-07-28T18:32:02Z</time>
      </trkpt>
      <trkpt lat="42.3736" lon="-8.728">
        <ele>69.376</ele>
        <time>2018-07-28T18:32:03Z</time>
      </trkpt>
      <trkpt lat="42.37366" lon="-8.72795">
        <ele>68.99</ele>
        <time>2018-07-28T18:32:04Z</time>
      </trkpt>
      <trkpt lat="42.37372" lon="-8.72787">
        <ele>68.619</ele>
        <time>2018-07-28T18:32:05Z</time>
      </trkpt>
      <trkpt lat="42.37378" lon="-8.72778">
        <ele>68.608</ele>
        <time>2018-07-28T18:32:06Z</time>
      </trkpt>
      <trkpt lat="42.37387" lon="-8.72767">
        <ele>68.649</ele>
        <time>2018-07-28T18:32:07Z</time>
      </trkpt>
      <trkpt lat="42.37397" lon="-8.72756">
        <ele>69.174</ele>
        <time>2018-07-28T18:32:08Z</time>
      </trkpt>
      <trkpt lat="42.37408" lon="-8.72744">
        <ele>69.637</ele>
        <time>2018-07-28T18:32:09Z</time>
      </trkpt>
      <trkpt lat="42.37419" lon="-8.72733">
        <ele>70.029</ele>
        <time>2018-07-28T18:32:10Z</time>
      </trkpt>
      <trkpt lat="42.37431" lon="-8.72721">
        <ele>70.094</ele>
        <time>2018-07-28T18:32:11Z</time>
      </trkpt>
      <trkpt lat="42.3744" lon="-8.72712">
        <ele>70.029</ele>
        <time>2018-07-28T18:32:12Z</time>
      </trkpt>
      <trkpt lat="42.37452" lon="-8.72702">
        <ele>69.617</ele>
        <time>2018-07-28T18:32:13Z</time>
      </trkpt>
      <trkpt lat="42.37462" lon="-8.72692">
        <ele>69.253</ele>
        <time>2018-07-28T18:32:14Z</time>
      </trkpt>
      <trkpt lat="42.37472" lon="-8.72683">
        <ele>69.067</ele>
        <time>2018-07-28T18:32:15Z</time>
      </trkpt>
      <trkpt lat="42.37482" lon="-8.72674">
        <ele>68.981</ele>
        <time>2018-07-28T18:32:16Z</time>
      </trkpt>
      <trkpt lat="42.37491" lon="-8.72661">
        <ele>68.919</ele>
        <time>2018-07-28T18:32:17Z</time>
      </trkpt>
      <trkpt lat="42.37499" lon="-8.72648">
        <ele>68.908</ele>
        <time>2018-07-28T18:32:18Z</time>
      </trkpt>
      <trkpt lat="42.37505" lon="-8.72632">
        <ele>68.598</ele>
        <time>2018-07-28T18:32:19Z</time>
      </trkpt>
      <trkpt lat="42.37505" lon="-8.72613">
        <ele>68.323</ele>
        <time>2018-07-28T18:32:20Z</time>
      </trkpt>
      <trkpt lat="42.37506" lon="-8.72597">
        <ele>67.986</ele>
        <time>2018-07-28T18:32:21Z</time>
      </trkpt>
      <trkpt lat="42.37506" lon="-8.72581">
        <ele>67.578</ele>
        <time>2018-07-28T18:32:22Z</time>
      </trkpt>
      <trkpt lat="42.37507" lon="-8.72567">
        <ele>67.163</ele>
        <time>2018-07-28T18:32:23Z</time>
      </trkpt>
      <trkpt lat="42.3751" lon="-8.72553">
        <ele>66.888</ele>
        <time>2018-07-28T18:32:24Z</time>
      </trkpt>
      <trkpt lat="42.37512" lon="-8.72539">
        <ele>66.586</ele>
        <time>2018-07-28T18:32:25Z</time>
      </trkpt>
      <trkpt lat="42.37515" lon="-8.72527">
        <ele>66.462</ele>
        <time>2018-07-28T18:32:26Z</time>
      </trkpt>
      <trkpt lat="42.37521" lon="-8.72513">
        <ele>66.415</ele>
        <time>2018-07-28T18:32:27Z</time>
      </trkpt>
      <trkpt lat="42.37527" lon="-8.72499">
        <ele>66.465</ele>
        <time>2018-07-28T18:32:28Z</time>
      </trkpt>
      <trkpt lat="42.37535" lon="-8.72488">
        <ele>66.511</ele>
        <time>2018-07-28T18:32:29Z</time>
      </trkpt>
      <trkpt lat="42.37543" lon="-8.72478">
        <ele>66.608</ele>
        <time>2018-07-28T18:32:30Z</time>
      </trkpt>
      <trkpt lat="42.37551" lon="-8.72467">
        <ele>66.673</ele>
        <time>2018-07-28T18:32:31Z</time>
      </trkpt>
      <trkpt lat="42.37559" lon="-8.72458">
        <ele>66.698</ele>
        <time>2018-07-28T18:32:32Z</time>
      </trkpt>
      <trkpt lat="42.3757" lon="-8.72447">
        <ele>66.651</ele>
        <time>2018-07-28T18:32:33Z</time>
      </trkpt>
      <trkpt lat="42.37582" lon="-8.72439">
        <ele>67.263</ele>
        <time>2018-07-28T18:32:34Z</time>
      </trkpt>
      <trkpt lat="42.37594" lon="-8.72431">
        <ele>67.358</ele>
        <time>2018-07-28T18:32:35Z</time>
      </trkpt>
      <trkpt lat="42.37606" lon="-8.72425">
        <ele>67.473</ele>
        <time>2018-07-28T18:32:36Z</time>
      </trkpt>
      <trkpt lat="42.37617" lon="-8.7242">
        <ele>67.431</ele>
        <time>2018-07-28T18:32:37Z</time>
      </trkpt>
      <trkpt lat="42.37628" lon="-8.72416">
        <ele>67.357</ele>
        <time>2018-07-28T18:32:38Z</time>
      </trkpt>
      <trkpt lat="42.3764" lon="-8.72421">
        <ele>67.161</ele>
        <time>2018-07-28T18:32:39Z</time>
      </trkpt>
      <trkpt lat="42.37652" lon="-8.72425">
        <ele>67.121</ele>
        <time>2018-07-28T18:32:40Z</time>
      </trkpt>
      <trkpt lat="42.37664" lon="-8.7243">
        <ele>67.113</ele>
        <time>2018-07-28T18:32:41Z</time>
      </trkpt>
      <trkpt lat="42.37676" lon="-8.72432">
        <ele>67.208</ele>
        <time>2018-07-28T18:32:42Z</time>
      </trkpt>
      <trkpt lat="42.37689" lon="-8.72436">
        <ele>67.498</ele>
        <time>2018-07-28T18:32:43Z</time>
      </trkpt>
      <trkpt lat="42.37703" lon="-8.72438">
        <ele>67.553</ele>
        <time>2018-07-28T18:32:44Z</time>
      </trkpt>
      <trkpt lat="42.37718" lon="-8.72441">
        <ele>67.886</ele>
        <time>2018-07-28T18:32:45Z</time>
      </trkpt>
      <trkpt lat="42.37731" lon="-8.72445">
        <ele>68.358</ele>
        <time>2018-07-28T18:32:46Z</time>
      </trkpt>
      <trkpt lat="42.37745" lon="-8.72449">
        <ele>68.663</ele>
        <time>2018-07-28T18:32:47Z</time>
      </trkpt>
      <trkpt lat="42.37759" lon="-8.72452">
        <ele>68.848</ele>
        <time>2018-07-28T18:32:48Z</time>
      </trkpt>
      <trkpt lat="42.37773" lon="-8.72456">
        <ele>69.046</ele>
        <time>2018-07-28T18:32:49Z</time>
      </trkpt>
      <trkpt lat="42.37786" lon="-8.72458">
        <ele>68.782</ele>
        <time>2018-07-28T18:32:50Z</time>
      </trkpt>
      <trkpt lat="42.37798" lon="-8.72461">
        <ele>68.556</ele>
        <time>2018-07-28T18:32:51Z</time>
      </trkpt>
      <trkpt lat="42.3781" lon="-8.72463">
        <ele>68.359</ele>
        <time>2018-07-28T18:32:52Z</time>
      </trkpt>
      <trkpt lat="42.37822" lon="-8.72465">
        <ele>68.114</ele>
        <time>2018-07-28T18:32:53Z</time>
      </trkpt>
      <trkpt lat="42.37834" lon="-8.72468">
        <ele>67.908</ele>
        <time>2018-07-28T18:32:54Z</time>
      </trkpt>
      <trkpt lat="42.37845" lon="-8.7247">
        <ele>67.957</ele>
        <time>2018-07-28T18:32:55Z</time>
      </trkpt>
      <trkpt lat="42.37857" lon="-8.72472">
        <ele>67.872</ele>
        <time>2018-07-28T18:32:56Z</time>
      </trkpt>
      <trkpt lat="42.37868" lon="-8.72475">
        <ele>67.875</ele>
        <time>2018-07-28T18:32:57Z</time>
      </trkpt>
      <trkpt lat="42.3788" lon="-8.72477">
        <ele>67.847</ele>
        <time>2018-07-28T18:32:58Z</time>
      </trkpt>
      <trkpt lat="42.37892" lon="-8.72476">
        <ele>67.942</ele>
        <time>2018-07-28T18:32:59Z</time>
      </trkpt>
      <trkpt lat="42.37904" lon="-8.72474">
        <ele>68.067</ele>
        <time>2018-07-28T18:33:00Z</time>
      </trkpt>
      <trkpt lat="42.37916" lon="-8.72468">
        <ele>68.245</ele>
        <time>2018-07-28T18:33:01Z</time>
      </trkpt>
      <trkpt lat="42.37928" lon="-8.72462">
        <ele>68.571</ele>
        <time>2018-07-28T18:33:02Z</time>
      </trkpt>
      <trkpt lat="42.37939" lon="-8.72455">
        <ele>68.755</ele>
        <time>2018-07-28T18:33:03Z</time>
      </trkpt>
      <trkpt lat="42.37949" lon="-8.72449">
        <ele>68.807</ele>
        <time>2018-07-28T18:33:04Z</time>
      </trkpt>
      <trkpt lat="42.37959" lon="-8.72444">
        <ele>68.617</ele>
        <time>2018-07-28T18:33:05Z</time>
      </trkpt>
      <trkpt lat="42.37968" lon="-8.72439">
        <ele>68.208</ele>
        <time>2018-07-28T18:33:06Z</time>
      </trkpt>
      <trkpt lat="42.37977" lon="-8.72433">
        <ele>67.877</ele>
        <time>2018-07-28T18:33:07Z</time>
      </trkpt>
      <trkpt lat="42.37986" lon="-8.72427">
        <ele>67.492</ele>
        <time>2018-07-28T18:33:08Z</time>
      </trkpt>
      <trkpt lat="42.37995" lon="-8.72421">
        <ele>67.085</ele>
        <time>2018-07-28T18:33:09Z</time>
      </trkpt>
      <trkpt lat="42.38004" lon="-8.72416">
        <ele>66.737</ele>
        <time>2018-07-28T18:33:10Z</time>
      </trkpt>
      <trkpt lat="42.38014" lon="-8.72411">
        <ele>66.442</ele>
        <time>2018-07-28T18:33:11Z</time>
      </trkpt>
      <trkpt lat="42.38024" lon="-8.72405">
        <ele>66.117</ele>
        <time>2018-07-28T18:33:12Z</time>
      </trkpt>
      <trkpt lat="42.38035" lon="-8.724">
        <ele>65.945</ele>
        <time>2018-07-28T18:33:13Z</time>
      </trkpt>
      <trkpt lat="42.38046" lon="-8.72394">
        <ele>65.821</ele>
        <time>2018-07-28T18:33:14Z</time>
      </trkpt>
      <trkpt lat="42.38059" lon="-8.72387">
        <ele>65.857</ele>
        <time>2018-07-28T18:33:15Z</time>
      </trkpt>
      <trkpt lat="42.38071" lon="-8.72381">
        <ele>66.1</ele>
        <time>2018-07-28T18:33:16Z</time>
      </trkpt>
      <trkpt lat="42.38084" lon="-8.72373">
        <ele>66.42</ele>
        <time>2018-07-28T18:33:17Z</time>
      </trkpt>
      <trkpt lat="42.38097" lon="-8.72366">
        <ele>66.508</ele>
        <time>2018-07-28T18:33:18Z</time>
      </trkpt>
      <trkpt lat="42.38109" lon="-8.72359">
        <ele>66.777</ele>
        <time>2018-07-28T18:33:19Z</time>
      </trkpt>
      <trkpt lat="42.38121" lon="-8.72353">
        <ele>66.762</ele>
        <time>2018-07-28T18:33:20Z</time>
      </trkpt>
      <trkpt lat="42.38132" lon="-8.72346">
        <ele>65.975</ele>
        <time>2018-07-28T18:33:21Z</time>
      </trkpt>
      <trkpt lat="42.38143" lon="-8.7234">
        <ele>65.497</ele>
        <time>2018-07-28T18:33:22Z</time>
      </trkpt>
      <trkpt lat="42.38154" lon="-8.72335">
        <ele>64.912</ele>
        <time>2018-07-28T18:33:23Z</time>
      </trkpt>
      <trkpt lat="42.38164" lon="-8.72329">
        <ele>64.157</ele>
        <time>2018-07-28T18:33:24Z</time>
      </trkpt>
      <trkpt lat="42.38175" lon="-8.72322">
        <ele>63.525</ele>
        <time>2018-07-28T18:33:25Z</time>
      </trkpt>
      <trkpt lat="42.38186" lon="-8.72317">
        <ele>63.561</ele>
        <time>2018-07-28T18:33:26Z</time>
      </trkpt>
      <trkpt lat="42.38198" lon="-8.72311">
        <ele>63.566</ele>
        <time>2018-07-28T18:33:27Z</time>
      </trkpt>
      <trkpt lat="42.3821" lon="-8.72304">
        <ele>63.629</ele>
        <time>2018-07-28T18:33:28Z</time>
      </trkpt>
      <trkpt lat="42.38223" lon="-8.72297">
        <ele>63.721</ele>
        <time>2018-07-28T18:33:29Z</time>
      </trkpt>
      <trkpt lat="42.38235" lon="-8.7229">
        <ele>63.708</ele>
        <time>2018-07-28T18:33:30Z</time>
      </trkpt>
      <trkpt lat="42.38246" lon="-8.72283">
        <ele>63.538</ele>
        <time>2018-07-28T18:33:31Z</time>
      </trkpt>
      <trkpt lat="42.38258" lon="-8.72276">
        <ele>63.173</ele>
        <time>2018-07-28T18:33:32Z</time>
      </trkpt>
      <trkpt lat="42.38268" lon="-8.72267">
        <ele>62.766</ele>
        <time>2018-07-28T18:33:33Z</time>
      </trkpt>
      <trkpt lat="42.38274" lon="-8.72254">
        <ele>62.428</ele>
        <time>2018-07-28T18:33:34Z</time>
      </trkpt>
      <trkpt lat="42.38278" lon="-8.7224">
        <ele>62.133</ele>
        <time>2018-07-28T18:33:35Z</time>
      </trkpt>
      <trkpt lat="42.3828" lon="-8.72223">
        <ele>61.828</ele>
        <time>2018-07-28T18:33:36Z</time>
      </trkpt>
      <trkpt lat="42.38279" lon="-8.72206">
        <ele>61.276</ele>
        <time>2018-07-28T18:33:37Z</time>
      </trkpt>
      <trkpt lat="42.38275" lon="-8.72189">
        <ele>61.012</ele>
        <time>2018-07-28T18:33:38Z</time>
      </trkpt>
      <trkpt lat="42.3827" lon="-8.72175">
        <ele>61.079</ele>
        <time>2018-07-28T18:33:39Z</time>
      </trkpt>
      <trkpt lat="42.38264" lon="-8.72162">
        <ele>61.005</ele>
        <time>2018-07-28T18:33:40Z</time>
      </trkpt>
      <trkpt lat="42.38257" lon="-8.72149">
        <ele>61.025</ele>
        <time>2018-07-28T18:33:41Z</time>
      </trkpt>
      <trkpt lat="42.38251" lon="-8.72136">
        <ele>61.108</ele>
        <time>2018-07-28T18:33:42Z</time>
      </trkpt>
      <trkpt lat="42.38246" lon="-8.72124">
        <ele>61.269</ele>
        <time>2018-07-28T18:33:43Z</time>
      </trkpt>
      <trkpt lat="42.3824" lon="-8.72111">
        <ele>61.354</ele>
        <time>2018-07-28T18:33:44Z</time>
      </trkpt>
      <trkpt lat="42.38235" lon="-8.72098">
        <ele>61.457</ele>
        <time>2018-07-28T18:33:45Z</time>
      </trkpt>
      <trkpt lat="42.38229" lon="-8.72086">
        <ele>61.589</ele>
        <time>2018-07-28T18:33:46Z</time>
      </trkpt>
      <trkpt lat="42.38224" lon="-8.72073">
        <ele>61.554</ele>
        <time>2018-07-28T18:33:47Z</time>
      </trkpt>
      <trkpt lat="42.38219" lon="-8.7206">
        <ele>61.359</ele>
        <time>2018-07-28T18:33:48Z</time>
      </trkpt>
      <trkpt lat="42.38212" lon="-8.72046">
        <ele>61.037</ele>
        <time>2018-07-28T18:33:49Z</time>
      </trkpt>
      <trkpt lat="42.38206" lon="-8.72032">
        <ele>60.873</ele>
        <time>2018-07-28T18:33:50Z</time>
      </trkpt>
      <trkpt lat="42.38199" lon="-8.72016">
        <ele>60.659</ele>
        <time>2018-07-28T18:33:51Z</time>
      </trkpt>
      <trkpt lat="42.38191" lon="-8.71999">
        <ele>60.603</ele>
        <time>2018-07-28T18:33:52Z</time>
      </trkpt>
      <trkpt lat="42.38184" lon="-8.71982">
        <ele>61.223</ele>
        <time>2018-07-28T18:33:53Z</time>
      </trkpt>
      <trkpt lat="42.38177" lon="-8.71964">
        <ele>61.808</ele>
        <time>2018-07-28T18:33:54Z</time>
      </trkpt>
      <trkpt lat="42.3817" lon="-8.71947">
        <ele>62.257</ele>
        <time>2018-07-28T18:33:55Z</time>
      </trkpt>
      <trkpt lat="42.38162" lon="-8.71929">
        <ele>62.612</ele>
        <time>2018-07-28T18:33:56Z</time>
      </trkpt>
      <trkpt lat="42.38154" lon="-8.71912">
        <ele>62.735</ele>
        <time>2018-07-28T18:33:57Z</time>
      </trkpt>
      <trkpt lat="42.38146" lon="-8.71895">
        <ele>63.097</ele>
        <time>2018-07-28T18:33:58Z</time>
      </trkpt>
      <trkpt lat="42.38138" lon="-8.71878">
        <ele>63.092</ele>
        <time>2018-07-28T18:33:59Z</time>
      </trkpt>
      <trkpt lat="42.38131" lon="-8.71861">
        <ele>62.797</ele>
        <time>2018-07-28T18:34:00Z</time>
      </trkpt>
      <trkpt lat="42.38124" lon="-8.71845">
        <ele>62.375</ele>
        <time>2018-07-28T18:34:01Z</time>
      </trkpt>
      <trkpt lat="42.38118" lon="-8.7183">
        <ele>61.911</ele>
        <time>2018-07-28T18:34:02Z</time>
      </trkpt>
      <trkpt lat="42.38112" lon="-8.71814">
        <ele>61.517</ele>
        <time>2018-07-28T18:34:03Z</time>
      </trkpt>
      <trkpt lat="42.38106" lon="-8.718">
        <ele>61.187</ele>
        <time>2018-07-28T18:34:04Z</time>
      </trkpt>
      <trkpt lat="42.38099" lon="-8.71787">
        <ele>60.715</ele>
        <time>2018-07-28T18:34:05Z</time>
      </trkpt>
      <trkpt lat="42.38093" lon="-8.71773">
        <ele>60.208</ele>
        <time>2018-07-28T18:34:06Z</time>
      </trkpt>
      <trkpt lat="42.38087" lon="-8.7176">
        <ele>60.073</ele>
        <time>2018-07-28T18:34:07Z</time>
      </trkpt>
      <trkpt lat="42.38081" lon="-8.71747">
        <ele>59.218</ele>
        <time>2018-07-28T18:34:08Z</time>
      </trkpt>
      <trkpt lat="42.38075" lon="-8.71734">
        <ele>58.951</ele>
        <time>2018-07-28T18:34:09Z</time>
      </trkpt>
      <trkpt lat="42.3807" lon="-8.71721">
        <ele>58.833</ele>
        <time>2018-07-28T18:34:10Z</time>
      </trkpt>
      <trkpt lat="42.38066" lon="-8.71709">
        <ele>58.578</ele>
        <time>2018-07-28T18:34:11Z</time>
      </trkpt>
      <trkpt lat="42.38065" lon="-8.71696">
        <ele>58.193</ele>
        <time>2018-07-28T18:34:12Z</time>
      </trkpt>
      <trkpt lat="42.38065" lon="-8.71683">
        <ele>57.881</ele>
        <time>2018-07-28T18:34:13Z</time>
      </trkpt>
      <trkpt lat="42.38068" lon="-8.71668">
        <ele>57.527</ele>
        <time>2018-07-28T18:34:14Z</time>
      </trkpt>
      <trkpt lat="42.38075" lon="-8.71655">
        <ele>57.161</ele>
        <time>2018-07-28T18:34:15Z</time>
      </trkpt>
      <trkpt lat="42.38085" lon="-8.71645">
        <ele>56.921</ele>
        <time>2018-07-28T18:34:16Z</time>
      </trkpt>
      <trkpt lat="42.38097" lon="-8.71636">
        <ele>56.913</ele>
        <time>2018-07-28T18:34:17Z</time>
      </trkpt>
      <trkpt lat="42.38109" lon="-8.71628">
        <ele>56.908</ele>
        <time>2018-07-28T18:34:18Z</time>
      </trkpt>
      <trkpt lat="42.38121" lon="-8.7162">
        <ele>57.118</ele>
        <time>2018-07-28T18:34:19Z</time>
      </trkpt>
      <trkpt lat="42.38133" lon="-8.71611">
        <ele>57.263</ele>
        <time>2018-07-28T18:34:20Z</time>
      </trkpt>
      <trkpt lat="42.38144" lon="-8.71603">
        <ele>57.366</ele>
        <time>2018-07-28T18:34:21Z</time>
      </trkpt>
      <trkpt lat="42.38156" lon="-8.71595">
        <ele>57.378</ele>
        <time>2018-07-28T18:34:22Z</time>
      </trkpt>
      <trkpt lat="42.38166" lon="-8.71587">
        <ele>57.263</ele>
        <time>2018-07-28T18:34:23Z</time>
      </trkpt>
      <trkpt lat="42.38177" lon="-8.71579">
        <ele>57.148</ele>
        <time>2018-07-28T18:34:24Z</time>
      </trkpt>
      <trkpt lat="42.38187" lon="-8.71572">
        <ele>56.926</ele>
        <time>2018-07-28T18:34:25Z</time>
      </trkpt>
      <trkpt lat="42.38198" lon="-8.71564">
        <ele>56.972</ele>
        <time>2018-07-28T18:34:26Z</time>
      </trkpt>
      <trkpt lat="42.38209" lon="-8.71556">
        <ele>56.911</ele>
        <time>2018-07-28T18:34:27Z</time>
      </trkpt>
      <trkpt lat="42.38219" lon="-8.71548">
        <ele>56.721</ele>
        <time>2018-07-28T18:34:28Z</time>
      </trkpt>
      <trkpt lat="42.3823" lon="-8.71541">
        <ele>56.603</ele>
        <time>2018-07-28T18:34:29Z</time>
      </trkpt>
      <trkpt lat="42.3824" lon="-8.71533">
        <ele>56.608</ele>
        <time>2018-07-28T18:34:30Z</time>
      </trkpt>
      <trkpt lat="42.3825" lon="-8.71526">
        <ele>56.663</ele>
        <time>2018-07-28T18:34:31Z</time>
      </trkpt>
      <trkpt lat="42.3826" lon="-8.71518">
        <ele>56.668</ele>
        <time>2018-07-28T18:34:32Z</time>
      </trkpt>
      <trkpt lat="42.3827" lon="-8.7151">
        <ele>56.781</ele>
        <time>2018-07-28T18:34:33Z</time>
      </trkpt>
      <trkpt lat="42.3828" lon="-8.71501">
        <ele>56.723</ele>
        <time>2018-07-28T18:34:34Z</time>
      </trkpt>
      <trkpt lat="42.3829" lon="-8.71491">
        <ele>56.868</ele>
        <time>2018-07-28T18:34:35Z</time>
      </trkpt>
      <trkpt lat="42.38301" lon="-8.71481">
        <ele>56.983</ele>
        <time>2018-07-28T18:34:36Z</time>
      </trkpt>
      <trkpt lat="42.38311" lon="-8.7147">
        <ele>57.011</ele>
        <time>2018-07-28T18:34:37Z</time>
      </trkpt>
      <trkpt lat="42.38322" lon="-8.7146">
        <ele>57.447</ele>
        <time>2018-07-28T18:34:38Z</time>
      </trkpt>
      <trkpt lat="42.38332" lon="-8.7145">
        <ele>57.868</ele>
        <time>2018-07-28T18:34:39Z</time>
      </trkpt>
      <trkpt lat="42.38342" lon="-8.7144">
        <ele>58.842</ele>
        <time>2018-07-28T18:34:40Z</time>
      </trkpt>
      <trkpt lat="42.38352" lon="-8.7143">
        <ele>59.426</ele>
        <time>2018-07-28T18:34:41Z</time>
      </trkpt>
      <trkpt lat="42.38361" lon="-8.7142">
        <ele>60.008</ele>
        <time>2018-07-28T18:34:42Z</time>
      </trkpt>
      <trkpt lat="42.38371" lon="-8.71412">
        <ele>60.698</ele>
        <time>2018-07-28T18:34:43Z</time>
      </trkpt>
      <trkpt lat="42.38381" lon="-8.71403">
        <ele>61.173</ele>
        <time>2018-07-28T18:34:44Z</time>
      </trkpt>
      <trkpt lat="42.38392" lon="-8.71397">
        <ele>61.876</ele>
        <time>2018-07-28T18:34:45Z</time>
      </trkpt>
      <trkpt lat="42.38404" lon="-8.71391">
        <ele>62.438</ele>
        <time>2018-07-28T18:34:46Z</time>
      </trkpt>
      <trkpt lat="42.38417" lon="-8.71385">
        <ele>63.163</ele>
        <time>2018-07-28T18:34:47Z</time>
      </trkpt>
      <trkpt lat="42.38429" lon="-8.71379">
        <ele>63.848</ele>
        <time>2018-07-28T18:34:48Z</time>
      </trkpt>
      <trkpt lat="42.38443" lon="-8.71373">
        <ele>64.466</ele>
        <time>2018-07-28T18:34:49Z</time>
      </trkpt>
      <trkpt lat="42.38456" lon="-8.71368">
        <ele>64.692</ele>
        <time>2018-07-28T18:34:50Z</time>
      </trkpt>
      <trkpt lat="42.3847" lon="-8.71363">
        <ele>64.959</ele>
        <time>2018-07-28T18:34:51Z</time>
      </trkpt>
      <trkpt lat="42.38483" lon="-8.71358">
        <ele>65.203</ele>
        <time>2018-07-28T18:34:52Z</time>
      </trkpt>
      <trkpt lat="42.38496" lon="-8.71354">
        <ele>65.623</ele>
        <time>2018-07-28T18:34:53Z</time>
      </trkpt>
      <trkpt lat="42.38507" lon="-8.7135">
        <ele>66.308</ele>
        <time>2018-07-28T18:34:54Z</time>
      </trkpt>
      <trkpt lat="42.38518" lon="-8.71346">
        <ele>67.317</ele>
        <time>2018-07-28T18:34:55Z</time>
      </trkpt>
      <trkpt lat="42.38528" lon="-8.71342">
        <ele>67.612</ele>
        <time>2018-07-28T18:34:56Z</time>
      </trkpt>
      <trkpt lat="42.38539" lon="-8.71339">
        <ele>67.815</ele>
        <time>2018-07-28T18:34:57Z</time>
      </trkpt>
      <trkpt lat="42.38549" lon="-8.71335">
        <ele>67.977</ele>
        <time>2018-07-28T18:34:58Z</time>
      </trkpt>
      <trkpt lat="42.38559" lon="-8.71331">
        <ele>68.072</ele>
        <time>2018-07-28T18:34:59Z</time>
      </trkpt>
      <trkpt lat="42.38569" lon="-8.71327">
        <ele>68.487</ele>
        <time>2018-07-28T18:35:00Z</time>
      </trkpt>
      <trkpt lat="42.3858" lon="-8.71321">
        <ele>68.715</ele>
        <time>2018-07-28T18:35:01Z</time>
      </trkpt>
      <trkpt lat="42.38591" lon="-8.71314">
        <ele>68.951</ele>
        <time>2018-07-28T18:35:02Z</time>
      </trkpt>
      <trkpt lat="42.38602" lon="-8.71307">
        <ele>69.338</ele>
        <time>2018-07-28T18:35:03Z</time>
      </trkpt>
      <trkpt lat="42.38614" lon="-8.713">
        <ele>69.57</ele>
        <time>2018-07-28T18:35:04Z</time>
      </trkpt>
      <trkpt lat="42.38624" lon="-8.71292">
        <ele>69.817</ele>
        <time>2018-07-28T18:35:05Z</time>
      </trkpt>
      <trkpt lat="42.38635" lon="-8.71285">
        <ele>70.108</ele>
        <time>2018-07-28T18:35:06Z</time>
      </trkpt>
      <trkpt lat="42.38645" lon="-8.71277">
        <ele>70.115</ele>
        <time>2018-07-28T18:35:07Z</time>
      </trkpt>
      <trkpt lat="42.38655" lon="-8.7127">
        <ele>70.04</ele>
        <time>2018-07-28T18:35:08Z</time>
      </trkpt>
      <trkpt lat="42.38664" lon="-8.71263">
        <ele>69.893</ele>
        <time>2018-07-28T18:35:09Z</time>
      </trkpt>
      <trkpt lat="42.38673" lon="-8.71256">
        <ele>69.365</ele>
        <time>2018-07-28T18:35:10Z</time>
      </trkpt>
      <trkpt lat="42.38682" lon="-8.7125">
        <ele>67.99</ele>
        <time>2018-07-28T18:35:11Z</time>
      </trkpt>
      <trkpt lat="42.38692" lon="-8.71243">
        <ele>67.455</ele>
        <time>2018-07-28T18:35:12Z</time>
      </trkpt>
      <trkpt lat="42.38701" lon="-8.71235">
        <ele>67.133</ele>
        <time>2018-07-28T18:35:13Z</time>
      </trkpt>
      <trkpt lat="42.38712" lon="-8.71226">
        <ele>67.089</ele>
        <time>2018-07-28T18:35:14Z</time>
      </trkpt>
      <trkpt lat="42.38724" lon="-8.71217">
        <ele>67.055</ele>
        <time>2018-07-28T18:35:15Z</time>
      </trkpt>
      <trkpt lat="42.38735" lon="-8.71207">
        <ele>67.007</ele>
        <time>2018-07-28T18:35:16Z</time>
      </trkpt>
      <trkpt lat="42.38747" lon="-8.71197">
        <ele>67.017</ele>
        <time>2018-07-28T18:35:17Z</time>
      </trkpt>
      <trkpt lat="42.38759" lon="-8.71188">
        <ele>66.808</ele>
        <time>2018-07-28T18:35:18Z</time>
      </trkpt>
      <trkpt lat="42.3877" lon="-8.71178">
        <ele>66.457</ele>
        <time>2018-07-28T18:35:19Z</time>
      </trkpt>
      <trkpt lat="42.38781" lon="-8.71171">
        <ele>65.932</ele>
        <time>2018-07-28T18:35:20Z</time>
      </trkpt>
      <trkpt lat="42.38793" lon="-8.71168">
        <ele>65.355</ele>
        <time>2018-07-28T18:35:21Z</time>
      </trkpt>
      <trkpt lat="42.38804" lon="-8.71166">
        <ele>64.797</ele>
        <time>2018-07-28T18:35:22Z</time>
      </trkpt>
      <trkpt lat="42.38815" lon="-8.71166">
        <ele>64.232</ele>
        <time>2018-07-28T18:35:23Z</time>
      </trkpt>
      <trkpt lat="42.38827" lon="-8.71169">
        <ele>63.847</ele>
        <time>2018-07-28T18:35:24Z</time>
      </trkpt>
      <trkpt lat="42.38841" lon="-8.71173">
        <ele>63.655</ele>
        <time>2018-07-28T18:35:25Z</time>
      </trkpt>
      <trkpt lat="42.38855" lon="-8.7118">
        <ele>63.411</ele>
        <time>2018-07-28T18:35:26Z</time>
      </trkpt>
      <trkpt lat="42.38869" lon="-8.71187">
        <ele>62.967</ele>
        <time>2018-07-28T18:35:27Z</time>
      </trkpt>
      <trkpt lat="42.38883" lon="-8.71193">
        <ele>62.581</ele>
        <time>2018-07-28T18:35:28Z</time>
      </trkpt>
      <trkpt lat="42.38896" lon="-8.71199">
        <ele>62.019</ele>
        <time>2018-07-28T18:35:29Z</time>
      </trkpt>
      <trkpt lat="42.38909" lon="-8.71205">
        <ele>61.508</ele>
        <time>2018-07-28T18:35:30Z</time>
      </trkpt>
      <trkpt lat="42.38921" lon="-8.7121">
        <ele>61.078</ele>
        <time>2018-07-28T18:35:31Z</time>
      </trkpt>
      <trkpt lat="42.38933" lon="-8.71215">
        <ele>60.423</ele>
        <time>2018-07-28T18:35:32Z</time>
      </trkpt>
      <trkpt lat="42.38944" lon="-8.7122">
        <ele>59.926</ele>
        <time>2018-07-28T18:35:33Z</time>
      </trkpt>
      <trkpt lat="42.38955" lon="-8.71224">
        <ele>59.578</ele>
        <time>2018-07-28T18:35:34Z</time>
      </trkpt>
      <trkpt lat="42.38965" lon="-8.71228">
        <ele>59.093</ele>
        <time>2018-07-28T18:35:35Z</time>
      </trkpt>
      <trkpt lat="42.38975" lon="-8.71232">
        <ele>58.548</ele>
        <time>2018-07-28T18:35:36Z</time>
      </trkpt>
      <trkpt lat="42.38985" lon="-8.71236">
        <ele>58.236</ele>
        <time>2018-07-28T18:35:37Z</time>
      </trkpt>
      <trkpt lat="42.38995" lon="-8.71239">
        <ele>57.932</ele>
        <time>2018-07-28T18:35:38Z</time>
      </trkpt>
      <trkpt lat="42.39005" lon="-8.71242">
        <ele>57.616</ele>
        <time>2018-07-28T18:35:39Z</time>
      </trkpt>
      <trkpt lat="42.39016" lon="-8.71246">
        <ele>57.376</ele>
        <time>2018-07-28T18:35:40Z</time>
      </trkpt>
      <trkpt lat="42.39026" lon="-8.7125">
        <ele>57.013</ele>
        <time>2018-07-28T18:35:41Z</time>
      </trkpt>
      <trkpt lat="42.39037" lon="-8.71254">
        <ele>56.408</ele>
        <time>2018-07-28T18:35:42Z</time>
      </trkpt>
      <trkpt lat="42.39049" lon="-8.71258">
        <ele>56.253</ele>
        <time>2018-07-28T18:35:43Z</time>
      </trkpt>
      <trkpt lat="42.39059" lon="-8.71262">
        <ele>55.968</ele>
        <time>2018-07-28T18:35:44Z</time>
      </trkpt>
      <trkpt lat="42.3907" lon="-8.71266">
        <ele>55.591</ele>
        <time>2018-07-28T18:35:45Z</time>
      </trkpt>
      <trkpt lat="42.3908" lon="-8.71269">
        <ele>55.253</ele>
        <time>2018-07-28T18:35:46Z</time>
      </trkpt>
      <trkpt lat="42.39089" lon="-8.71273">
        <ele>54.988</ele>
        <time>2018-07-28T18:35:47Z</time>
      </trkpt>
      <trkpt lat="42.39098" lon="-8.71277">
        <ele>54.593</ele>
        <time>2018-07-28T18:35:48Z</time>
      </trkpt>
      <trkpt lat="42.39108" lon="-8.71281">
        <ele>54.341</ele>
        <time>2018-07-28T18:35:49Z</time>
      </trkpt>
      <trkpt lat="42.39118" lon="-8.71284">
        <ele>54.087</ele>
        <time>2018-07-28T18:35:50Z</time>
      </trkpt>
      <trkpt lat="42.39129" lon="-8.71285">
        <ele>53.656</ele>
        <time>2018-07-28T18:35:51Z</time>
      </trkpt>
      <trkpt lat="42.39141" lon="-8.71285">
        <ele>53.259</ele>
        <time>2018-07-28T18:35:52Z</time>
      </trkpt>
      <trkpt lat="42.39153" lon="-8.71285">
        <ele>52.914</ele>
        <time>2018-07-28T18:35:53Z</time>
      </trkpt>
      <trkpt lat="42.39165" lon="-8.7128">
        <ele>52.508</ele>
        <time>2018-07-28T18:35:54Z</time>
      </trkpt>
      <trkpt lat="42.39175" lon="-8.71271">
        <ele>52.477</ele>
        <time>2018-07-28T18:35:55Z</time>
      </trkpt>
      <trkpt lat="42.39183" lon="-8.71259">
        <ele>52.372</ele>
        <time>2018-07-28T18:35:56Z</time>
      </trkpt>
      <trkpt lat="42.3919" lon="-8.71245">
        <ele>52.255</ele>
        <time>2018-07-28T18:35:57Z</time>
      </trkpt>
      <trkpt lat="42.39196" lon="-8.7123">
        <ele>52.197</ele>
        <time>2018-07-28T18:35:58Z</time>
      </trkpt>
      <trkpt lat="42.39201" lon="-8.71214">
        <ele>52.062</ele>
        <time>2018-07-28T18:35:59Z</time>
      </trkpt>
      <trkpt lat="42.39206" lon="-8.71198">
        <ele>51.727</ele>
        <time>2018-07-28T18:36:00Z</time>
      </trkpt>
      <trkpt lat="42.39211" lon="-8.71183">
        <ele>51.265</ele>
        <time>2018-07-28T18:36:01Z</time>
      </trkpt>
      <trkpt lat="42.39216" lon="-8.7117">
        <ele>50.571</ele>
        <time>2018-07-28T18:36:02Z</time>
      </trkpt>
      <trkpt lat="42.3922" lon="-8.71156">
        <ele>49.825</ele>
        <time>2018-07-28T18:36:03Z</time>
      </trkpt>
      <trkpt lat="42.39225" lon="-8.71143">
        <ele>48.926</ele>
        <time>2018-07-28T18:36:04Z</time>
      </trkpt>
      <trkpt lat="42.3923" lon="-8.71131">
        <ele>48.108</ele>
        <time>2018-07-28T18:36:05Z</time>
      </trkpt>
      <trkpt lat="42.39234" lon="-8.71119">
        <ele>47.308</ele>
        <time>2018-07-28T18:36:06Z</time>
      </trkpt>
      <trkpt lat="42.39239" lon="-8.71107">
        <ele>46.684</ele>
        <time>2018-07-28T18:36:07Z</time>
      </trkpt>
      <trkpt lat="42.39242" lon="-8.71095">
        <ele>45.889</ele>
        <time>2018-07-28T18:36:08Z</time>
      </trkpt>
      <trkpt lat="42.39245" lon="-8.71083">
        <ele>45.262</ele>
        <time>2018-07-28T18:36:09Z</time>
      </trkpt>
      <trkpt lat="42.39249" lon="-8.71071">
        <ele>44.644</ele>
        <time>2018-07-28T18:36:10Z</time>
      </trkpt>
      <trkpt lat="42.39253" lon="-8.71059">
        <ele>44.169</ele>
        <time>2018-07-28T18:36:11Z</time>
      </trkpt>
      <trkpt lat="42.39257" lon="-8.71048">
        <ele>43.784</ele>
        <time>2018-07-28T18:36:12Z</time>
      </trkpt>
      <trkpt lat="42.39262" lon="-8.71036">
        <ele>43.342</ele>
        <time>2018-07-28T18:36:13Z</time>
      </trkpt>
      <trkpt lat="42.39266" lon="-8.71024">
        <ele>42.458</ele>
        <time>2018-07-28T18:36:14Z</time>
      </trkpt>
      <trkpt lat="42.39271" lon="-8.71013">
        <ele>42.067</ele>
        <time>2018-07-28T18:36:15Z</time>
      </trkpt>
      <trkpt lat="42.39277" lon="-8.71002">
        <ele>41.681</ele>
        <time>2018-07-28T18:36:16Z</time>
      </trkpt>
      <trkpt lat="42.39285" lon="-8.70993">
        <ele>41.319</ele>
        <time>2018-07-28T18:36:17Z</time>
      </trkpt>
      <trkpt lat="42.39295" lon="-8.70986">
        <ele>41.108</ele>
        <time>2018-07-28T18:36:18Z</time>
      </trkpt>
      <trkpt lat="42.39307" lon="-8.70981">
        <ele>41.068</ele>
        <time>2018-07-28T18:36:19Z</time>
      </trkpt>
      <trkpt lat="42.39318" lon="-8.70976">
        <ele>40.943</ele>
        <time>2018-07-28T18:36:20Z</time>
      </trkpt>
      <trkpt lat="42.3933" lon="-8.70971">
        <ele>40.736</ele>
        <time>2018-07-28T18:36:21Z</time>
      </trkpt>
      <trkpt lat="42.39341" lon="-8.70968">
        <ele>40.668</ele>
        <time>2018-07-28T18:36:22Z</time>
      </trkpt>
      <trkpt lat="42.39352" lon="-8.70964">
        <ele>40.383</ele>
        <time>2018-07-28T18:36:23Z</time>
      </trkpt>
      <trkpt lat="42.39362" lon="-8.70957">
        <ele>39.798</ele>
        <time>2018-07-28T18:36:24Z</time>
      </trkpt>
      <trkpt lat="42.3937" lon="-8.70948">
        <ele>39.066</ele>
        <time>2018-07-28T18:36:25Z</time>
      </trkpt>
      <trkpt lat="42.39377" lon="-8.70937">
        <ele>38.312</ele>
        <time>2018-07-28T18:36:26Z</time>
      </trkpt>
      <trkpt lat="42.39384" lon="-8.70926">
        <ele>37.528</ele>
        <time>2018-07-28T18:36:27Z</time>
      </trkpt>
      <trkpt lat="42.3939" lon="-8.70914">
        <ele>36.789</ele>
        <time>2018-07-28T18:36:28Z</time>
      </trkpt>
      <trkpt lat="42.39394" lon="-8.709">
        <ele>35.617</ele>
        <time>2018-07-28T18:36:29Z</time>
      </trkpt>
      <trkpt lat="42.39398" lon="-8.70887">
        <ele>35.108</ele>
        <time>2018-07-28T18:36:30Z</time>
      </trkpt>
      <trkpt lat="42.39401" lon="-8.70874">
        <ele>34.674</ele>
        <time>2018-07-28T18:36:31Z</time>
      </trkpt>
      <trkpt lat="42.39403" lon="-8.70861">
        <ele>34.299</ele>
        <time>2018-07-28T18:36:32Z</time>
      </trkpt>
      <trkpt lat="42.39401" lon="-8.70847">
        <ele>33.752</ele>
        <time>2018-07-28T18:36:33Z</time>
      </trkpt>
      <trkpt lat="42.39403" lon="-8.70833">
        <ele>33.224</ele>
        <time>2018-07-28T18:36:34Z</time>
      </trkpt>
      <trkpt lat="42.39405" lon="-8.7082">
        <ele>32.849</ele>
        <time>2018-07-28T18:36:35Z</time>
      </trkpt>
      <trkpt lat="42.39407" lon="-8.70807">
        <ele>32.574</ele>
        <time>2018-07-28T18:36:36Z</time>
      </trkpt>
      <trkpt lat="42.3941" lon="-8.70794">
        <ele>32.292</ele>
        <time>2018-07-28T18:36:37Z</time>
      </trkpt>
      <trkpt lat="42.39412" lon="-8.70781">
        <ele>31.868</ele>
        <time>2018-07-28T18:36:38Z</time>
      </trkpt>
      <trkpt lat="42.39415" lon="-8.70768">
        <ele>31.489</ele>
        <time>2018-07-28T18:36:39Z</time>
      </trkpt>
      <trkpt lat="42.39417" lon="-8.70755">
        <ele>31.006</ele>
        <time>2018-07-28T18:36:40Z</time>
      </trkpt>
      <trkpt lat="42.39416" lon="-8.70741">
        <ele>30.726</ele>
        <time>2018-07-28T18:36:41Z</time>
      </trkpt>
      <trkpt lat="42.39412" lon="-8.70727">
        <ele>30.408</ele>
        <time>2018-07-28T18:36:42Z</time>
      </trkpt>
      <trkpt lat="42.39406" lon="-8.70715">
        <ele>30.24</ele>
        <time>2018-07-28T18:36:43Z</time>
      </trkpt>
      <trkpt lat="42.394" lon="-8.70704">
        <ele>30.195</ele>
        <time>2018-07-28T18:36:44Z</time>
      </trkpt>
      <trkpt lat="42.3939" lon="-8.70699">
        <ele>29.978</ele>
        <time>2018-07-28T18:36:45Z</time>
      </trkpt>
      <trkpt lat="42.39381" lon="-8.70694">
        <ele>29.68</ele>
        <time>2018-07-28T18:36:46Z</time>
      </trkpt>
      <trkpt lat="42.39372" lon="-8.70688">
        <ele>29.435</ele>
        <time>2018-07-28T18:36:47Z</time>
      </trkpt>
      <trkpt lat="42.39362" lon="-8.70683">
        <ele>29.23</ele>
        <time>2018-07-28T18:36:48Z</time>
      </trkpt>
      <trkpt lat="42.39354" lon="-8.70677">
        <ele>28.988</ele>
        <time>2018-07-28T18:36:49Z</time>
      </trkpt>
      <trkpt lat="42.39345" lon="-8.70671">
        <ele>28.654</ele>
        <time>2018-07-28T18:36:50Z</time>
      </trkpt>
      <trkpt lat="42.39337" lon="-8.70665">
        <ele>28.661</ele>
        <time>2018-07-28T18:36:51Z</time>
      </trkpt>
      <trkpt lat="42.39329" lon="-8.7066">
        <ele>28.621</ele>
        <time>2018-07-28T18:36:52Z</time>
      </trkpt>
      <trkpt lat="42.39321" lon="-8.70655">
        <ele>28.613</ele>
        <time>2018-07-28T18:36:53Z</time>
      </trkpt>
      <trkpt lat="42.39314" lon="-8.7065">
        <ele>28.708</ele>
        <time>2018-07-28T18:36:54Z</time>
      </trkpt>
      <trkpt lat="42.39307" lon="-8.70645">
        <ele>28.748</ele>
        <time>2018-07-28T18:36:55Z</time>
      </trkpt>
      <trkpt lat="42.393" lon="-8.7064">
        <ele>28.623</ele>
        <time>2018-07-28T18:36:56Z</time>
      </trkpt>
      <trkpt lat="42.39293" lon="-8.70637">
        <ele>28.316</ele>
        <time>2018-07-28T18:36:57Z</time>
      </trkpt>
      <trkpt lat="42.39287" lon="-8.70632">
        <ele>28.228</ele>
        <time>2018-07-28T18:36:58Z</time>
      </trkpt>
      <trkpt lat="42.39281" lon="-8.70627">
        <ele>28.043</ele>
        <time>2018-07-28T18:36:59Z</time>
      </trkpt>
      <trkpt lat="42.39275" lon="-8.70622">
        <ele>27.868</ele>
        <time>2018-07-28T18:37:00Z</time>
      </trkpt>
      <trkpt lat="42.39268" lon="-8.70616">
        <ele>27.686</ele>
        <time>2018-07-28T18:37:01Z</time>
      </trkpt>
      <trkpt lat="42.39262" lon="-8.70609">
        <ele>27.512</ele>
        <time>2018-07-28T18:37:02Z</time>
      </trkpt>
      <trkpt lat="42.39254" lon="-8.70605">
        <ele>27.484</ele>
        <time>2018-07-28T18:37:03Z</time>
      </trkpt>
      <trkpt lat="42.39244" lon="-8.70604">
        <ele>27.307</ele>
        <time>2018-07-28T18:37:04Z</time>
      </trkpt>
      <trkpt lat="42.39234" lon="-8.70604">
        <ele>27.317</ele>
        <time>2018-07-28T18:37:05Z</time>
      </trkpt>
      <trkpt lat="42.39224" lon="-8.70605">
        <ele>27.208</ele>
        <time>2018-07-28T18:37:06Z</time>
      </trkpt>
      <trkpt lat="42.39215" lon="-8.70605">
        <ele>26.99</ele>
        <time>2018-07-28T18:37:07Z</time>
      </trkpt>
      <trkpt lat="42.39206" lon="-8.70607">
        <ele>26.725</ele>
        <time>2018-07-28T18:37:08Z</time>
      </trkpt>
      <trkpt lat="42.39197" lon="-8.70608">
        <ele>26.618</ele>
        <time>2018-07-28T18:37:09Z</time>
      </trkpt>
      <trkpt lat="42.39188" lon="-8.70608">
        <ele>26.36</ele>
        <time>2018-07-28T18:37:10Z</time>
      </trkpt>
      <trkpt lat="42.39179" lon="-8.70608">
        <ele>26.055</ele>
        <time>2018-07-28T18:37:11Z</time>
      </trkpt>
      <trkpt lat="42.39171" lon="-8.70608">
        <ele>25.68</ele>
        <time>2018-07-28T18:37:12Z</time>
      </trkpt>
      <trkpt lat="42.39162" lon="-8.70608">
        <ele>25.238</ele>
        <time>2018-07-28T18:37:13Z</time>
      </trkpt>
      <trkpt lat="42.39153" lon="-8.70606">
        <ele>24.784</ele>
        <time>2018-07-28T18:37:14Z</time>
      </trkpt>
      <trkpt lat="42.39145" lon="-8.70606">
        <ele>24.562</ele>
        <time>2018-07-28T18:37:15Z</time>
      </trkpt>
      <trkpt lat="42.39136" lon="-8.70606">
        <ele>24.083</ele>
        <time>2018-07-28T18:37:16Z</time>
      </trkpt>
      <trkpt lat="42.39128" lon="-8.70605">
        <ele>23.811</ele>
        <time>2018-07-28T18:37:17Z</time>
      </trkpt>
      <trkpt lat="42.3912" lon="-8.70603">
        <ele>23.508</ele>
        <time>2018-07-28T18:37:18Z</time>
      </trkpt>
      <trkpt lat="42.39112" lon="-8.70602">
        <ele>23.088</ele>
        <time>2018-07-28T18:37:19Z</time>
      </trkpt>
      <trkpt lat="42.39103" lon="-8.706">
        <ele>22.643</ele>
        <time>2018-07-28T18:37:20Z</time>
      </trkpt>
      <trkpt lat="42.39094" lon="-8.70597">
        <ele>22.346</ele>
        <time>2018-07-28T18:37:21Z</time>
      </trkpt>
      <trkpt lat="42.39086" lon="-8.70596">
        <ele>21.918</ele>
        <time>2018-07-28T18:37:22Z</time>
      </trkpt>
      <trkpt lat="42.39079" lon="-8.70593">
        <ele>21.543</ele>
        <time>2018-07-28T18:37:23Z</time>
      </trkpt>
      <trkpt lat="42.39073" lon="-8.7059">
        <ele>21.238</ele>
        <time>2018-07-28T18:37:24Z</time>
      </trkpt>
      <trkpt lat="42.39068" lon="-8.70582">
        <ele>21.126</ele>
        <time>2018-07-28T18:37:25Z</time>
      </trkpt>
      <trkpt lat="42.39066" lon="-8.70574">
        <ele>20.952</ele>
        <time>2018-07-28T18:37:26Z</time>
      </trkpt>
      <trkpt lat="42.39065" lon="-8.70566">
        <ele>20.569</ele>
        <time>2018-07-28T18:37:27Z</time>
      </trkpt>
      <trkpt lat="42.39066" lon="-8.70558">
        <ele>20.004</ele>
        <time>2018-07-28T18:37:28Z</time>
      </trkpt>
      <trkpt lat="42.39067" lon="-8.7055">
        <ele>19.524</ele>
        <time>2018-07-28T18:37:29Z</time>
      </trkpt>
      <trkpt lat="42.39069" lon="-8.70544">
        <ele>18.708</ele>
        <time>2018-07-28T18:37:30Z</time>
      </trkpt>
      <trkpt lat="42.3907" lon="-8.70538">
        <ele>17.938</ele>
        <time>2018-07-28T18:37:31Z</time>
      </trkpt>
      <trkpt lat="42.39071" lon="-8.70528">
        <ele>16.393</ele>
        <time>2018-07-28T18:37:33Z</time>
      </trkpt>
      <trkpt lat="42.3907" lon="-8.7052">
        <ele>15.896</ele>
        <time>2018-07-28T18:37:35Z</time>
      </trkpt>
      <trkpt lat="42.3907" lon="-8.70512">
        <ele>15.618</ele>
        <time>2018-07-28T18:37:37Z</time>
      </trkpt>
      <trkpt lat="42.39074" lon="-8.705">
        <ele>15.673</ele>
        <time>2018-07-28T18:37:39Z</time>
      </trkpt>
      <trkpt lat="42.39075" lon="-8.70493">
        <ele>15.638</ele>
        <time>2018-07-28T18:37:40Z</time>
      </trkpt>
      <trkpt lat="42.39077" lon="-8.70483">
        <ele>15.696</ele>
        <time>2018-07-28T18:37:41Z</time>
      </trkpt>
      <trkpt lat="42.3908" lon="-8.70471">
        <ele>15.872</ele>
        <time>2018-07-28T18:37:42Z</time>
      </trkpt>
      <trkpt lat="42.39084" lon="-8.70459">
        <ele>16.076</ele>
        <time>2018-07-28T18:37:43Z</time>
      </trkpt>
      <trkpt lat="42.39088" lon="-8.70447">
        <ele>16.29</ele>
        <time>2018-07-28T18:37:44Z</time>
      </trkpt>
      <trkpt lat="42.39091" lon="-8.70436">
        <ele>16.519</ele>
        <time>2018-07-28T18:37:45Z</time>
      </trkpt>
      <trkpt lat="42.39094" lon="-8.70425">
        <ele>16.608</ele>
        <time>2018-07-28T18:37:46Z</time>
      </trkpt>
      <trkpt lat="42.39099" lon="-8.70413">
        <ele>16.649</ele>
        <time>2018-07-28T18:37:47Z</time>
      </trkpt>
      <trkpt lat="42.39102" lon="-8.70402">
        <ele>16.474</ele>
        <time>2018-07-28T18:37:48Z</time>
      </trkpt>
      <trkpt lat="42.39106" lon="-8.70393">
        <ele>16.337</ele>
        <time>2018-07-28T18:37:49Z</time>
      </trkpt>
      <trkpt lat="42.3911" lon="-8.70383">
        <ele>16.369</ele>
        <time>2018-07-28T18:37:50Z</time>
      </trkpt>
      <trkpt lat="42.39112" lon="-8.70373">
        <ele>16.464</ele>
        <time>2018-07-28T18:37:51Z</time>
      </trkpt>
      <trkpt lat="42.39116" lon="-8.70363">
        <ele>16.669</ele>
        <time>2018-07-28T18:37:52Z</time>
      </trkpt>
      <trkpt lat="42.3912" lon="-8.70352">
        <ele>16.967</ele>
        <time>2018-07-28T18:37:53Z</time>
      </trkpt>
      <trkpt lat="42.39124" lon="-8.70342">
        <ele>17.353</ele>
        <time>2018-07-28T18:37:54Z</time>
      </trkpt>
      <trkpt lat="42.39128" lon="-8.70332">
        <ele>17.631</ele>
        <time>2018-07-28T18:37:55Z</time>
      </trkpt>
      <trkpt lat="42.39131" lon="-8.70323">
        <ele>17.861</ele>
        <time>2018-07-28T18:37:56Z</time>
      </trkpt>
      <trkpt lat="42.39134" lon="-8.70314">
        <ele>18.007</ele>
        <time>2018-07-28T18:37:57Z</time>
      </trkpt>
      <trkpt lat="42.39136" lon="-8.70307">
        <ele>18.108</ele>
        <time>2018-07-28T18:37:58Z</time>
      </trkpt>
      <trkpt lat="42.39138" lon="-8.70301">
        <ele>18.185</ele>
        <time>2018-07-28T18:37:59Z</time>
      </trkpt>
      <trkpt lat="42.39141" lon="-8.70296">
        <ele>18.13</ele>
        <time>2018-07-28T18:38:00Z</time>
      </trkpt>
      <trkpt lat="42.39147" lon="-8.70289">
        <ele>18.113</ele>
        <time>2018-07-28T18:38:02Z</time>
      </trkpt>
      <trkpt lat="42.39148" lon="-8.70282">
        <ele>18.125</ele>
        <time>2018-07-28T18:38:03Z</time>
      </trkpt>
      <trkpt lat="42.39148" lon="-8.70276">
        <ele>18.44</ele>
        <time>2018-07-28T18:38:04Z</time>
      </trkpt>
      <trkpt lat="42.3915" lon="-8.70269">
        <ele>18.525</ele>
        <time>2018-07-28T18:38:05Z</time>
      </trkpt>
      <trkpt lat="42.39151" lon="-8.70262">
        <ele>18.653</ele>
        <time>2018-07-28T18:38:06Z</time>
      </trkpt>
      <trkpt lat="42.39152" lon="-8.70254">
        <ele>18.739</ele>
        <time>2018-07-28T18:38:07Z</time>
      </trkpt>
      <trkpt lat="42.39153" lon="-8.70246">
        <ele>18.878</ele>
        <time>2018-07-28T18:38:08Z</time>
      </trkpt>
      <trkpt lat="42.39152" lon="-8.70239">
        <ele>18.933</ele>
        <time>2018-07-28T18:38:09Z</time>
      </trkpt>
      <trkpt lat="42.39153" lon="-8.70232">
        <ele>19.026</ele>
        <time>2018-07-28T18:38:10Z</time>
      </trkpt>
      <trkpt lat="42.39154" lon="-8.70222">
        <ele>19.308</ele>
        <time>2018-07-28T18:38:12Z</time>
      </trkpt>
      <trkpt lat="42.39155" lon="-8.70216">
        <ele>19.579</ele>
        <time>2018-07-28T18:38:13Z</time>
      </trkpt>
      <trkpt lat="42.39156" lon="-8.70207">
        <ele>19.734</ele>
        <time>2018-07-28T18:38:14Z</time>
      </trkpt>
      <trkpt lat="42.39157" lon="-8.70198">
        <ele>19.937</ele>
        <time>2018-07-28T18:38:15Z</time>
      </trkpt>
      <trkpt lat="42.39158" lon="-8.70187">
        <ele>20.119</ele>
        <time>2018-07-28T18:38:16Z</time>
      </trkpt>
      <trkpt lat="42.39159" lon="-8.70176">
        <ele>20.454</ele>
        <time>2018-07-28T18:38:17Z</time>
      </trkpt>
      <trkpt lat="42.3916" lon="-8.70166">
        <ele>20.729</ele>
        <time>2018-07-28T18:38:18Z</time>
      </trkpt>
      <trkpt lat="42.39159" lon="-8.70157">
        <ele>21.167</ele>
        <time>2018-07-28T18:38:19Z</time>
      </trkpt>
      <trkpt lat="42.39159" lon="-8.7015">
        <ele>21.263</ele>
        <time>2018-07-28T18:38:20Z</time>
      </trkpt>
      <trkpt lat="42.39159" lon="-8.70138">
        <ele>21.111</ele>
        <time>2018-07-28T18:38:22Z</time>
      </trkpt>
      <trkpt lat="42.3916" lon="-8.70131">
        <ele>21.121</ele>
        <time>2018-07-28T18:38:23Z</time>
      </trkpt>
      <trkpt lat="42.3916" lon="-8.70119">
        <ele>21.203</ele>
        <time>2018-07-28T18:38:25Z</time>
      </trkpt>
      <trkpt lat="42.39159" lon="-8.70107">
        <ele>21.408</ele>
        <time>2018-07-28T18:38:27Z</time>
      </trkpt>
      <trkpt lat="42.39161" lon="-8.701">
        <ele>21.543</ele>
        <time>2018-07-28T18:38:28Z</time>
      </trkpt>
      <trkpt lat="42.39162" lon="-8.7009">
        <ele>21.728</ele>
        <time>2018-07-28T18:38:29Z</time>
      </trkpt>
      <trkpt lat="42.39163" lon="-8.70079">
        <ele>21.921</ele>
        <time>2018-07-28T18:38:30Z</time>
      </trkpt>
      <trkpt lat="42.39165" lon="-8.70069">
        <ele>22.393</ele>
        <time>2018-07-28T18:38:31Z</time>
      </trkpt>
      <trkpt lat="42.39166" lon="-8.70059">
        <ele>22.748</ele>
        <time>2018-07-28T18:38:32Z</time>
      </trkpt>
      <trkpt lat="42.39167" lon="-8.70049">
        <ele>23.023</ele>
        <time>2018-07-28T18:38:33Z</time>
      </trkpt>
      <trkpt lat="42.39167" lon="-8.70039">
        <ele>23.221</ele>
        <time>2018-07-28T18:38:34Z</time>
      </trkpt>
      <trkpt lat="42.39166" lon="-8.70028">
        <ele>23.647</ele>
        <time>2018-07-28T18:38:35Z</time>
      </trkpt>
      <trkpt lat="42.39166" lon="-8.70018">
        <ele>23.961</ele>
        <time>2018-07-28T18:38:36Z</time>
      </trkpt>
      <trkpt lat="42.39166" lon="-8.70009">
        <ele>24.121</ele>
        <time>2018-07-28T18:38:37Z</time>
      </trkpt>
      <trkpt lat="42.39166" lon="-8.70002">
        <ele>24.113</ele>
        <time>2018-07-28T18:38:38Z</time>
      </trkpt>
      <trkpt lat="42.39166" lon="-8.69994">
        <ele>24.108</ele>
        <time>2018-07-28T18:38:39Z</time>
      </trkpt>
      <trkpt lat="42.39166" lon="-8.69987">
        <ele>24.058</ele>
        <time>2018-07-28T18:38:40Z</time>
      </trkpt>
      <trkpt lat="42.39165" lon="-8.6998">
        <ele>23.743</ele>
        <time>2018-07-28T18:38:41Z</time>
      </trkpt>
      <trkpt lat="42.39164" lon="-8.69974">
        <ele>23.556</ele>
        <time>2018-07-28T18:38:42Z</time>
      </trkpt>
      <trkpt lat="42.39163" lon="-8.69963">
        <ele>23.278</ele>
        <time>2018-07-28T18:38:44Z</time>
      </trkpt>
      <trkpt lat="42.39162" lon="-8.69954">
        <ele>23.063</ele>
        <time>2018-07-28T18:38:46Z</time>
      </trkpt>
      <trkpt lat="42.39162" lon="-8.69944">
        <ele>22.948</ele>
        <time>2018-07-28T18:38:48Z</time>
      </trkpt>
      <trkpt lat="42.39162" lon="-8.69932">
        <ele>22.826</ele>
        <time>2018-07-28T18:38:50Z</time>
      </trkpt>
      <trkpt lat="42.39163" lon="-8.69924">
        <ele>22.822</ele>
        <time>2018-07-28T18:38:51Z</time>
      </trkpt>
      <trkpt lat="42.39165" lon="-8.69915">
        <ele>22.894</ele>
        <time>2018-07-28T18:38:52Z</time>
      </trkpt>
      <trkpt lat="42.39165" lon="-8.69905">
        <ele>22.857</ele>
        <time>2018-07-28T18:38:53Z</time>
      </trkpt>
      <trkpt lat="42.39166" lon="-8.69893">
        <ele>22.622</ele>
        <time>2018-07-28T18:38:54Z</time>
      </trkpt>
      <trkpt lat="42.39168" lon="-8.69881">
        <ele>22.308</ele>
        <time>2018-07-28T18:38:55Z</time>
      </trkpt>
      <trkpt lat="42.39169" lon="-8.6987">
        <ele>21.911</ele>
        <time>2018-07-28T18:38:56Z</time>
      </trkpt>
      <trkpt lat="42.3917" lon="-8.69862">
        <ele>21.326</ele>
        <time>2018-07-28T18:38:57Z</time>
      </trkpt>
      <trkpt lat="42.39172" lon="-8.69854">
        <ele>20.839</ele>
        <time>2018-07-28T18:38:58Z</time>
      </trkpt>
      <trkpt lat="42.39173" lon="-8.69845">
        <ele>20.431</ele>
        <time>2018-07-28T18:38:59Z</time>
      </trkpt>
      <trkpt lat="42.39175" lon="-8.69837">
        <ele>20.076</ele>
        <time>2018-07-28T18:39:00Z</time>
      </trkpt>
      <trkpt lat="42.39177" lon="-8.6983">
        <ele>19.711</ele>
        <time>2018-07-28T18:39:01Z</time>
      </trkpt>
      <trkpt lat="42.39179" lon="-8.69823">
        <ele>19.429</ele>
        <time>2018-07-28T18:39:02Z</time>
      </trkpt>
      <trkpt lat="42.3918" lon="-8.69816">
        <ele>19.175</ele>
        <time>2018-07-28T18:39:03Z</time>
      </trkpt>
      <trkpt lat="42.39182" lon="-8.69809">
        <ele>18.862</ele>
        <time>2018-07-28T18:39:04Z</time>
      </trkpt>
      <trkpt lat="42.3918" lon="-8.69799">
        <ele>18.583</ele>
        <time>2018-07-28T18:39:05Z</time>
      </trkpt>
      <trkpt lat="42.39183" lon="-8.69793">
        <ele>17.911</ele>
        <time>2018-07-28T18:39:06Z</time>
      </trkpt>
      <trkpt lat="42.39186" lon="-8.69786">
        <ele>17.608</ele>
        <time>2018-07-28T18:39:07Z</time>
      </trkpt>
      <trkpt lat="42.39188" lon="-8.69779">
        <ele>17.398</ele>
        <time>2018-07-28T18:39:08Z</time>
      </trkpt>
      <trkpt lat="42.3919" lon="-8.6977">
        <ele>17.043</ele>
        <time>2018-07-28T18:39:09Z</time>
      </trkpt>
      <trkpt lat="42.39193" lon="-8.69762">
        <ele>16.746</ele>
        <time>2018-07-28T18:39:10Z</time>
      </trkpt>
      <trkpt lat="42.39196" lon="-8.69754">
        <ele>16.438</ele>
        <time>2018-07-28T18:39:11Z</time>
      </trkpt>
      <trkpt lat="42.39198" lon="-8.69746">
        <ele>16.063</ele>
        <time>2018-07-28T18:39:12Z</time>
      </trkpt>
      <trkpt lat="42.392" lon="-8.6974">
        <ele>15.678</ele>
        <time>2018-07-28T18:39:13Z</time>
      </trkpt>
      <trkpt lat="42.39198" lon="-8.69732">
        <ele>15.276</ele>
        <time>2018-07-28T18:39:14Z</time>
      </trkpt>
      <trkpt lat="42.39201" lon="-8.69722">
        <ele>14.652</ele>
        <time>2018-07-28T18:39:16Z</time>
      </trkpt>
      <trkpt lat="42.39204" lon="-8.69713">
        <ele>14.126</ele>
        <time>2018-07-28T18:39:18Z</time>
      </trkpt>
      <trkpt lat="42.39207" lon="-8.69703">
        <ele>13.847</ele>
        <time>2018-07-28T18:39:20Z</time>
      </trkpt>
      <trkpt lat="42.39211" lon="-8.69695">
        <ele>13.611</ele>
        <time>2018-07-28T18:39:22Z</time>
      </trkpt>
      <trkpt lat="42.39217" lon="-8.69693">
        <ele>13.608</ele>
        <time>2018-07-28T18:39:24Z</time>
      </trkpt>
      <trkpt lat="42.39226" lon="-8.69693">
        <ele>13.314</ele>
        <time>2018-07-28T18:39:26Z</time>
      </trkpt>
      <trkpt lat="42.39235" lon="-8.69692">
        <ele>12.889</ele>
        <time>2018-07-28T18:39:28Z</time>
      </trkpt>
      <trkpt lat="42.39243" lon="-8.6969">
        <ele>12.272</ele>
        <time>2018-07-28T18:39:30Z</time>
      </trkpt>
      <trkpt lat="42.39251" lon="-8.6969">
        <ele>11.784</ele>
        <time>2018-07-28T18:39:32Z</time>
      </trkpt>
      <trkpt lat="42.39258" lon="-8.69693">
        <ele>11.429</ele>
        <time>2018-07-28T18:39:34Z</time>
      </trkpt>
      <trkpt lat="42.39263" lon="-8.69697">
        <ele>11.374</ele>
        <time>2018-07-28T18:39:36Z</time>
      </trkpt>
      <trkpt lat="42.3927" lon="-8.69695">
        <ele>11.342</ele>
        <time>2018-07-28T18:39:38Z</time>
      </trkpt>
      <trkpt lat="42.39277" lon="-8.69695">
        <ele>11.358</ele>
        <time>2018-07-28T18:39:40Z</time>
      </trkpt>
      <trkpt lat="42.39283" lon="-8.69693">
        <ele>11.263</ele>
        <time>2018-07-28T18:39:42Z</time>
      </trkpt>
      <trkpt lat="42.39287" lon="-8.69687">
        <ele>11.044</ele>
        <time>2018-07-28T18:39:44Z</time>
      </trkpt>
      <trkpt lat="42.3929" lon="-8.69678">
        <ele>10.918</ele>
        <time>2018-07-28T18:39:46Z</time>
      </trkpt>
      <trkpt lat="42.3929" lon="-8.69672">
        <ele>10.808</ele>
        <time>2018-07-28T18:39:48Z</time>
      </trkpt>
      <trkpt lat="42.39293" lon="-8.69663">
        <ele>10.778</ele>
        <time>2018-07-28T18:39:54Z</time>
      </trkpt>
      <trkpt lat="42.39295" lon="-8.69657">
        <ele>10.943</ele>
        <time>2018-07-28T18:39:55Z</time>
      </trkpt>
      <trkpt lat="42.39298" lon="-8.69648">
        <ele>11.126</ele>
        <time>2018-07-28T18:39:56Z</time>
      </trkpt>
      <trkpt lat="42.39302" lon="-8.6964">
        <ele>11.348</ele>
        <time>2018-07-28T18:39:57Z</time>
      </trkpt>
      <trkpt lat="42.39305" lon="-8.69632">
        <ele>11.533</ele>
        <time>2018-07-28T18:39:58Z</time>
      </trkpt>
      <trkpt lat="42.39308" lon="-8.69624">
        <ele>11.748</ele>
        <time>2018-07-28T18:39:59Z</time>
      </trkpt>
      <trkpt lat="42.39312" lon="-8.69616">
        <ele>11.766</ele>
        <time>2018-07-28T18:40:00Z</time>
      </trkpt>
      <trkpt lat="42.39316" lon="-8.69608">
        <ele>11.762</ele>
        <time>2018-07-28T18:40:01Z</time>
      </trkpt>
      <trkpt lat="42.3932" lon="-8.69599">
        <ele>11.882</ele>
        <time>2018-07-28T18:40:02Z</time>
      </trkpt>
      <trkpt lat="42.39326" lon="-8.6959">
        <ele>11.943</ele>
        <time>2018-07-28T18:40:03Z</time>
      </trkpt>
      <trkpt lat="42.39332" lon="-8.69581">
        <ele>12.017</ele>
        <time>2018-07-28T18:40:04Z</time>
      </trkpt>
      <trkpt lat="42.39338" lon="-8.69572">
        <ele>12.108</ele>
        <time>2018-07-28T18:40:05Z</time>
      </trkpt>
      <trkpt lat="42.39344" lon="-8.69562">
        <ele>12.11</ele>
        <time>2018-07-28T18:40:06Z</time>
      </trkpt>
      <trkpt lat="42.3935" lon="-8.69551">
        <ele>12.195</ele>
        <time>2018-07-28T18:40:07Z</time>
      </trkpt>
      <trkpt lat="42.39356" lon="-8.69541">
        <ele>12.158</ele>
        <time>2018-07-28T18:40:08Z</time>
      </trkpt>
      <trkpt lat="42.39362" lon="-8.69532">
        <ele>12.18</ele>
        <time>2018-07-28T18:40:09Z</time>
      </trkpt>
      <trkpt lat="42.39369" lon="-8.69524">
        <ele>12.355</ele>
        <time>2018-07-28T18:40:10Z</time>
      </trkpt>
      <trkpt lat="42.39373" lon="-8.69514">
        <ele>12.33</ele>
        <time>2018-07-28T18:40:11Z</time>
      </trkpt>
      <trkpt lat="42.39379" lon="-8.69506">
        <ele>12.358</ele>
        <time>2018-07-28T18:40:12Z</time>
      </trkpt>
      <trkpt lat="42.39384" lon="-8.69498">
        <ele>12.294</ele>
        <time>2018-07-28T18:40:13Z</time>
      </trkpt>
      <trkpt lat="42.39388" lon="-8.69487">
        <ele>12.077</ele>
        <time>2018-07-28T18:40:14Z</time>
      </trkpt>
      <trkpt lat="42.39393" lon="-8.69477">
        <ele>11.861</ele>
        <time>2018-07-28T18:40:15Z</time>
      </trkpt>
      <trkpt lat="42.39398" lon="-8.69469">
        <ele>11.827</ele>
        <time>2018-07-28T18:40:16Z</time>
      </trkpt>
      <trkpt lat="42.39404" lon="-8.6946">
        <ele>11.908</ele>
        <time>2018-07-28T18:40:17Z</time>
      </trkpt>
      <trkpt lat="42.39409" lon="-8.69451">
        <ele>12.019</ele>
        <time>2018-07-28T18:40:18Z</time>
      </trkpt>
      <trkpt lat="42.39414" lon="-8.69441">
        <ele>12.134</ele>
        <time>2018-07-28T18:40:19Z</time>
      </trkpt>
      <trkpt lat="42.39421" lon="-8.69433">
        <ele>12.237</ele>
        <time>2018-07-28T18:40:20Z</time>
      </trkpt>
      <trkpt lat="42.39427" lon="-8.69425">
        <ele>12.299</ele>
        <time>2018-07-28T18:40:21Z</time>
      </trkpt>
      <trkpt lat="42.39433" lon="-8.69415">
        <ele>12.244</ele>
        <time>2018-07-28T18:40:22Z</time>
      </trkpt>
      <trkpt lat="42.3944" lon="-8.69406">
        <ele>12.269</ele>
        <time>2018-07-28T18:40:23Z</time>
      </trkpt>
      <trkpt lat="42.39448" lon="-8.69397">
        <ele>12.157</ele>
        <time>2018-07-28T18:40:24Z</time>
      </trkpt>
      <trkpt lat="42.39455" lon="-8.69387">
        <ele>12.163</ele>
        <time>2018-07-28T18:40:25Z</time>
      </trkpt>
      <trkpt lat="42.39463" lon="-8.69378">
        <ele>12.232</ele>
        <time>2018-07-28T18:40:26Z</time>
      </trkpt>
      <trkpt lat="42.3947" lon="-8.69369">
        <ele>12.592</ele>
        <time>2018-07-28T18:40:27Z</time>
      </trkpt>
      <trkpt lat="42.39475" lon="-8.69362">
        <ele>12.511</ele>
        <time>2018-07-28T18:40:28Z</time>
      </trkpt>
      <trkpt lat="42.39479" lon="-8.69356">
        <ele>12.508</ele>
        <time>2018-07-28T18:40:29Z</time>
      </trkpt>
      <trkpt lat="42.39483" lon="-8.69352">
        <ele>12.215</ele>
        <time>2018-07-28T18:40:30Z</time>
      </trkpt>
      <trkpt lat="42.39487" lon="-8.6935">
        <ele>11.83</ele>
        <time>2018-07-28T18:40:31Z</time>
      </trkpt>
      <trkpt lat="42.39494" lon="-8.69343">
        <ele>11.273</ele>
        <time>2018-07-28T18:40:33Z</time>
      </trkpt>
      <trkpt lat="42.39498" lon="-8.69339">
        <ele>11.265</ele>
        <time>2018-07-28T18:40:34Z</time>
      </trkpt>
      <trkpt lat="42.39503" lon="-8.69334">
        <ele>11.32</ele>
        <time>2018-07-28T18:40:35Z</time>
      </trkpt>
      <trkpt lat="42.39508" lon="-8.69329">
        <ele>11.545</ele>
        <time>2018-07-28T18:40:36Z</time>
      </trkpt>
      <trkpt lat="42.39515" lon="-8.69328">
        <ele>11.743</ele>
        <time>2018-07-28T18:40:37Z</time>
      </trkpt>
      <trkpt lat="42.39521" lon="-8.69326">
        <ele>11.739</ele>
        <time>2018-07-28T18:40:38Z</time>
      </trkpt>
      <trkpt lat="42.39527" lon="-8.69323">
        <ele>11.776</ele>
        <time>2018-07-28T18:40:39Z</time>
      </trkpt>
      <trkpt lat="42.39533" lon="-8.69319">
        <ele>11.79</ele>
        <time>2018-07-28T18:40:40Z</time>
      </trkpt>
      <trkpt lat="42.39541" lon="-8.69317">
        <ele>11.619</ele>
        <time>2018-07-28T18:40:41Z</time>
      </trkpt>
      <trkpt lat="42.39548" lon="-8.69313">
        <ele>11.608</ele>
        <time>2018-07-28T18:40:42Z</time>
      </trkpt>
      <trkpt lat="42.39557" lon="-8.69309">
        <ele>11.869</ele>
        <time>2018-07-28T18:40:43Z</time>
      </trkpt>
      <trkpt lat="42.39565" lon="-8.69303">
        <ele>11.974</ele>
        <time>2018-07-28T18:40:44Z</time>
      </trkpt>
      <trkpt lat="42.39573" lon="-8.69297">
        <ele>12.057</ele>
        <time>2018-07-28T18:40:45Z</time>
      </trkpt>
      <trkpt lat="42.39583" lon="-8.69291">
        <ele>12.179</ele>
        <time>2018-07-28T18:40:46Z</time>
      </trkpt>
      <trkpt lat="42.39592" lon="-8.69287">
        <ele>12.244</ele>
        <time>2018-07-28T18:40:47Z</time>
      </trkpt>
      <trkpt lat="42.39601" lon="-8.69281">
        <ele>12.239</ele>
        <time>2018-07-28T18:40:48Z</time>
      </trkpt>
      <trkpt lat="42.3961" lon="-8.69277">
        <ele>12.297</ele>
        <time>2018-07-28T18:40:49Z</time>
      </trkpt>
      <trkpt lat="42.3962" lon="-8.69272">
        <ele>12.353</ele>
        <time>2018-07-28T18:40:50Z</time>
      </trkpt>
      <trkpt lat="42.39629" lon="-8.69266">
        <ele>12.413</ele>
        <time>2018-07-28T18:40:51Z</time>
      </trkpt>
      <trkpt lat="42.39638" lon="-8.6926">
        <ele>12.543</ele>
        <time>2018-07-28T18:40:52Z</time>
      </trkpt>
      <trkpt lat="42.39648" lon="-8.69254">
        <ele>12.507</ele>
        <time>2018-07-28T18:40:53Z</time>
      </trkpt>
      <trkpt lat="42.39657" lon="-8.69247">
        <ele>12.508</ele>
        <time>2018-07-28T18:40:54Z</time>
      </trkpt>
      <trkpt lat="42.39666" lon="-8.6924">
        <ele>12.563</ele>
        <time>2018-07-28T18:40:55Z</time>
      </trkpt>
      <trkpt lat="42.39675" lon="-8.69233">
        <ele>12.518</ele>
        <time>2018-07-28T18:40:56Z</time>
      </trkpt>
      <trkpt lat="42.39685" lon="-8.69227">
        <ele>12.561</ele>
        <time>2018-07-28T18:40:57Z</time>
      </trkpt>
      <trkpt lat="42.39694" lon="-8.69221">
        <ele>12.563</ele>
        <time>2018-07-28T18:40:58Z</time>
      </trkpt>
      <trkpt lat="42.39704" lon="-8.69214">
        <ele>12.858</ele>
        <time>2018-07-28T18:40:59Z</time>
      </trkpt>
      <trkpt lat="42.39715" lon="-8.69209">
        <ele>13.083</ele>
        <time>2018-07-28T18:41:00Z</time>
      </trkpt>
      <trkpt lat="42.39724" lon="-8.69201">
        <ele>13.221</ele>
        <time>2018-07-28T18:41:01Z</time>
      </trkpt>
      <trkpt lat="42.39734" lon="-8.69193">
        <ele>13.357</ele>
        <time>2018-07-28T18:41:02Z</time>
      </trkpt>
      <trkpt lat="42.39744" lon="-8.69184">
        <ele>13.467</ele>
        <time>2018-07-28T18:41:03Z</time>
      </trkpt>
      <trkpt lat="42.39754" lon="-8.69175">
        <ele>13.581</ele>
        <time>2018-07-28T18:41:04Z</time>
      </trkpt>
      <trkpt lat="42.39764" lon="-8.69166">
        <ele>13.719</ele>
        <time>2018-07-28T18:41:05Z</time>
      </trkpt>
      <trkpt lat="42.39775" lon="-8.69156">
        <ele>14.008</ele>
        <time>2018-07-28T18:41:06Z</time>
      </trkpt>
      <trkpt lat="42.39786" lon="-8.69147">
        <ele>14.368</ele>
        <time>2018-07-28T18:41:07Z</time>
      </trkpt>
      <trkpt lat="42.39796" lon="-8.69138">
        <ele>14.513</ele>
        <time>2018-07-28T18:41:08Z</time>
      </trkpt>
      <trkpt lat="42.39807" lon="-8.6913">
        <ele>14.566</ele>
        <time>2018-07-28T18:41:09Z</time>
      </trkpt>
      <trkpt lat="42.39816" lon="-8.69121">
        <ele>14.588</ele>
        <time>2018-07-28T18:41:10Z</time>
      </trkpt>
      <trkpt lat="42.39825" lon="-8.69113">
        <ele>14.213</ele>
        <time>2018-07-28T18:41:11Z</time>
      </trkpt>
      <trkpt lat="42.39835" lon="-8.69106">
        <ele>13.848</ele>
        <time>2018-07-28T18:41:12Z</time>
      </trkpt>
      <trkpt lat="42.39844" lon="-8.69098">
        <ele>13.646</ele>
        <time>2018-07-28T18:41:13Z</time>
      </trkpt>
      <trkpt lat="42.39853" lon="-8.6909">
        <ele>13.412</ele>
        <time>2018-07-28T18:41:14Z</time>
      </trkpt>
      <trkpt lat="42.39862" lon="-8.69083">
        <ele>13.333</ele>
        <time>2018-07-28T18:41:15Z</time>
      </trkpt>
      <trkpt lat="42.39873" lon="-8.69077">
        <ele>13.223</ele>
        <time>2018-07-28T18:41:16Z</time>
      </trkpt>
      <trkpt lat="42.39881" lon="-8.6907">
        <ele>13.215</ele>
        <time>2018-07-28T18:41:17Z</time>
      </trkpt>
      <trkpt lat="42.3989" lon="-8.69062">
        <ele>13.308</ele>
        <time>2018-07-28T18:41:18Z</time>
      </trkpt>
      <trkpt lat="42.39897" lon="-8.69054">
        <ele>13.365</ele>
        <time>2018-07-28T18:41:19Z</time>
      </trkpt>
      <trkpt lat="42.39904" lon="-8.69046">
        <ele>13.31</ele>
        <time>2018-07-28T18:41:20Z</time>
      </trkpt>
      <trkpt lat="42.39911" lon="-8.69039">
        <ele>13.273</ele>
        <time>2018-07-28T18:41:21Z</time>
      </trkpt>
      <trkpt lat="42.39918" lon="-8.69031">
        <ele>13.125</ele>
        <time>2018-07-28T18:41:22Z</time>
      </trkpt>
      <trkpt lat="42.39924" lon="-8.69023">
        <ele>13.08</ele>
        <time>2018-07-28T18:41:23Z</time>
      </trkpt>
      <trkpt lat="42.39932" lon="-8.69014">
        <ele>13.095</ele>
        <time>2018-07-28T18:41:24Z</time>
      </trkpt>
      <trkpt lat="42.3994" lon="-8.69004">
        <ele>13.153</ele>
        <time>2018-07-28T18:41:25Z</time>
      </trkpt>
      <trkpt lat="42.39948" lon="-8.68994">
        <ele>13.319</ele>
        <time>2018-07-28T18:41:26Z</time>
      </trkpt>
      <trkpt lat="42.39956" lon="-8.68982">
        <ele>13.596</ele>
        <time>2018-07-28T18:41:27Z</time>
      </trkpt>
      <trkpt lat="42.39966" lon="-8.6897">
        <ele>13.831</ele>
        <time>2018-07-28T18:41:28Z</time>
      </trkpt>
      <trkpt lat="42.39974" lon="-8.68957">
        <ele>14.024</ele>
        <time>2018-07-28T18:41:29Z</time>
      </trkpt>
      <trkpt lat="42.39981" lon="-8.68942">
        <ele>14.208</ele>
        <time>2018-07-28T18:41:30Z</time>
      </trkpt>
      <trkpt lat="42.39989" lon="-8.68927">
        <ele>14.471</ele>
        <time>2018-07-28T18:41:31Z</time>
      </trkpt>
      <trkpt lat="42.39997" lon="-8.68912">
        <ele>15.096</ele>
        <time>2018-07-28T18:41:32Z</time>
      </trkpt>
      <trkpt lat="42.40004" lon="-8.68897">
        <ele>15.129</ele>
        <time>2018-07-28T18:41:33Z</time>
      </trkpt>
      <trkpt lat="42.40011" lon="-8.68882">
        <ele>15.271</ele>
        <time>2018-07-28T18:41:34Z</time>
      </trkpt>
      <trkpt lat="42.40019" lon="-8.68866">
        <ele>15.286</ele>
        <time>2018-07-28T18:41:35Z</time>
      </trkpt>
      <trkpt lat="42.40026" lon="-8.6885">
        <ele>15.271</ele>
        <time>2018-07-28T18:41:36Z</time>
      </trkpt>
      <trkpt lat="42.40034" lon="-8.68835">
        <ele>15.119</ele>
        <time>2018-07-28T18:41:37Z</time>
      </trkpt>
      <trkpt lat="42.40042" lon="-8.68819">
        <ele>15.145</ele>
        <time>2018-07-28T18:41:38Z</time>
      </trkpt>
      <trkpt lat="42.4005" lon="-8.68804">
        <ele>15.199</ele>
        <time>2018-07-28T18:41:39Z</time>
      </trkpt>
      <trkpt lat="42.40058" lon="-8.68789">
        <ele>15.107</ele>
        <time>2018-07-28T18:41:40Z</time>
      </trkpt>
      <trkpt lat="42.40066" lon="-8.68774">
        <ele>15.327</ele>
        <time>2018-07-28T18:41:41Z</time>
      </trkpt>
      <trkpt lat="42.40074" lon="-8.68759">
        <ele>15.508</ele>
        <time>2018-07-28T18:41:42Z</time>
      </trkpt>
      <trkpt lat="42.40084" lon="-8.68745">
        <ele>15.841</ele>
        <time>2018-07-28T18:41:43Z</time>
      </trkpt>
      <trkpt lat="42.40093" lon="-8.6873">
        <ele>16.296</ele>
        <time>2018-07-28T18:41:44Z</time>
      </trkpt>
      <trkpt lat="42.40102" lon="-8.68715">
        <ele>16.439</ele>
        <time>2018-07-28T18:41:45Z</time>
      </trkpt>
      <trkpt lat="42.40112" lon="-8.68702">
        <ele>16.551</ele>
        <time>2018-07-28T18:41:46Z</time>
      </trkpt>
      <trkpt lat="42.40122" lon="-8.68688">
        <ele>16.536</ele>
        <time>2018-07-28T18:41:47Z</time>
      </trkpt>
      <trkpt lat="42.40133" lon="-8.68675">
        <ele>16.231</ele>
        <time>2018-07-28T18:41:48Z</time>
      </trkpt>
      <trkpt lat="42.40144" lon="-8.68661">
        <ele>16.189</ele>
        <time>2018-07-28T18:41:49Z</time>
      </trkpt>
      <trkpt lat="42.40156" lon="-8.68647">
        <ele>16.165</ele>
        <time>2018-07-28T18:41:50Z</time>
      </trkpt>
      <trkpt lat="42.40168" lon="-8.68633">
        <ele>16.212</ele>
        <time>2018-07-28T18:41:51Z</time>
      </trkpt>
      <trkpt lat="42.4018" lon="-8.68619">
        <ele>16.532</ele>
        <time>2018-07-28T18:41:52Z</time>
      </trkpt>
      <trkpt lat="42.40192" lon="-8.68604">
        <ele>17.005</ele>
        <time>2018-07-28T18:41:53Z</time>
      </trkpt>
      <trkpt lat="42.40205" lon="-8.6859">
        <ele>17.308</ele>
        <time>2018-07-28T18:41:54Z</time>
      </trkpt>
      <trkpt lat="42.40218" lon="-8.68577">
        <ele>17.513</ele>
        <time>2018-07-28T18:41:55Z</time>
      </trkpt>
      <trkpt lat="42.40229" lon="-8.68561">
        <ele>17.588</ele>
        <time>2018-07-28T18:41:56Z</time>
      </trkpt>
      <trkpt lat="42.40242" lon="-8.68551">
        <ele>17.541</ele>
        <time>2018-07-28T18:41:57Z</time>
      </trkpt>
      <trkpt lat="42.40254" lon="-8.68537">
        <ele>17.283</ele>
        <time>2018-07-28T18:41:58Z</time>
      </trkpt>
      <trkpt lat="42.40265" lon="-8.68526">
        <ele>17.238</ele>
        <time>2018-07-28T18:41:59Z</time>
      </trkpt>
      <trkpt lat="42.40272" lon="-8.68509">
        <ele>17.513</ele>
        <time>2018-07-28T18:42:00Z</time>
      </trkpt>
      <trkpt lat="42.40283" lon="-8.68497">
        <ele>18.271</ele>
        <time>2018-07-28T18:42:01Z</time>
      </trkpt>
      <trkpt lat="42.40295" lon="-8.68485">
        <ele>19.357</ele>
        <time>2018-07-28T18:42:02Z</time>
      </trkpt>
      <trkpt lat="42.40306" lon="-8.68472">
        <ele>20.469</ele>
        <time>2018-07-28T18:42:03Z</time>
      </trkpt>
      <trkpt lat="42.40317" lon="-8.68461">
        <ele>21.604</ele>
        <time>2018-07-28T18:42:04Z</time>
      </trkpt>
      <trkpt lat="42.40328" lon="-8.68453">
        <ele>23.624</ele>
        <time>2018-07-28T18:42:05Z</time>
      </trkpt>
      <trkpt lat="42.4034" lon="-8.68446">
        <ele>24.008</ele>
        <time>2018-07-28T18:42:06Z</time>
      </trkpt>
      <trkpt lat="42.40353" lon="-8.68439">
        <ele>24.518</ele>
        <time>2018-07-28T18:42:07Z</time>
      </trkpt>
      <trkpt lat="42.40367" lon="-8.68432">
        <ele>24.983</ele>
        <time>2018-07-28T18:42:08Z</time>
      </trkpt>
      <trkpt lat="42.40382" lon="-8.68429">
        <ele>25.126</ele>
        <time>2018-07-28T18:42:09Z</time>
      </trkpt>
      <trkpt lat="42.40398" lon="-8.68426">
        <ele>25.428</ele>
        <time>2018-07-28T18:42:10Z</time>
      </trkpt>
      <trkpt lat="42.40414" lon="-8.68426">
        <ele>25.443</ele>
        <time>2018-07-28T18:42:11Z</time>
      </trkpt>
      <trkpt lat="42.4043" lon="-8.68428">
        <ele>25.498</ele>
        <time>2018-07-28T18:42:12Z</time>
      </trkpt>
      <trkpt lat="42.40445" lon="-8.68425">
        <ele>25.436</ele>
        <time>2018-07-28T18:42:13Z</time>
      </trkpt>
      <trkpt lat="42.40459" lon="-8.68423">
        <ele>25.442</ele>
        <time>2018-07-28T18:42:14Z</time>
      </trkpt>
      <trkpt lat="42.40474" lon="-8.68423">
        <ele>24.995</ele>
        <time>2018-07-28T18:42:15Z</time>
      </trkpt>
      <trkpt lat="42.40487" lon="-8.68423">
        <ele>24.649</ele>
        <time>2018-07-28T18:42:16Z</time>
      </trkpt>
      <trkpt lat="42.405" lon="-8.68421">
        <ele>24.123</ele>
        <time>2018-07-28T18:42:17Z</time>
      </trkpt>
      <trkpt lat="42.40513" lon="-8.68418">
        <ele>23.808</ele>
        <time>2018-07-28T18:42:18Z</time>
      </trkpt>
      <trkpt lat="42.40527" lon="-8.68417">
        <ele>23.531</ele>
        <time>2018-07-28T18:42:19Z</time>
      </trkpt>
      <trkpt lat="42.40541" lon="-8.68412">
        <ele>23.436</ele>
        <time>2018-07-28T18:42:20Z</time>
      </trkpt>
      <trkpt lat="42.40555" lon="-8.68406">
        <ele>23.299</ele>
        <time>2018-07-28T18:42:21Z</time>
      </trkpt>
      <trkpt lat="42.40567" lon="-8.68396">
        <ele>22.811</ele>
        <time>2018-07-28T18:42:22Z</time>
      </trkpt>
      <trkpt lat="42.40581" lon="-8.68387">
        <ele>22.376</ele>
        <time>2018-07-28T18:42:23Z</time>
      </trkpt>
      <trkpt lat="42.40592" lon="-8.6837">
        <ele>21.651</ele>
        <time>2018-07-28T18:42:24Z</time>
      </trkpt>
      <trkpt lat="42.40604" lon="-8.68351">
        <ele>21.239</ele>
        <time>2018-07-28T18:42:25Z</time>
      </trkpt>
      <trkpt lat="42.40615" lon="-8.68334">
        <ele>20.725</ele>
        <time>2018-07-28T18:42:26Z</time>
      </trkpt>
      <trkpt lat="42.40627" lon="-8.68319">
        <ele>20.183</ele>
        <time>2018-07-28T18:42:27Z</time>
      </trkpt>
      <trkpt lat="42.40636" lon="-8.68301">
        <ele>19.425</ele>
        <time>2018-07-28T18:42:28Z</time>
      </trkpt>
      <trkpt lat="42.40647" lon="-8.68288">
        <ele>18.717</ele>
        <time>2018-07-28T18:42:29Z</time>
      </trkpt>
      <trkpt lat="42.40657" lon="-8.68274">
        <ele>17.808</ele>
        <time>2018-07-28T18:42:30Z</time>
      </trkpt>
      <trkpt lat="42.40667" lon="-8.68261">
        <ele>17.02</ele>
        <time>2018-07-28T18:42:31Z</time>
      </trkpt>
      <trkpt lat="42.40677" lon="-8.68248">
        <ele>16.565</ele>
        <time>2018-07-28T18:42:32Z</time>
      </trkpt>
      <trkpt lat="42.40688" lon="-8.68236">
        <ele>16.188</ele>
        <time>2018-07-28T18:42:33Z</time>
      </trkpt>
      <trkpt lat="42.40699" lon="-8.68223">
        <ele>16.03</ele>
        <time>2018-07-28T18:42:34Z</time>
      </trkpt>
      <trkpt lat="42.4071" lon="-8.68211">
        <ele>15.995</ele>
        <time>2018-07-28T18:42:35Z</time>
      </trkpt>
      <trkpt lat="42.4072" lon="-8.68198">
        <ele>15.73</ele>
        <time>2018-07-28T18:42:36Z</time>
      </trkpt>
      <trkpt lat="42.40732" lon="-8.68186">
        <ele>15.478</ele>
        <time>2018-07-28T18:42:37Z</time>
      </trkpt>
      <trkpt lat="42.40742" lon="-8.68174">
        <ele>14.634</ele>
        <time>2018-07-28T18:42:38Z</time>
      </trkpt>
      <trkpt lat="42.40752" lon="-8.68162">
        <ele>14.444</ele>
        <time>2018-07-28T18:42:39Z</time>
      </trkpt>
      <trkpt lat="42.40762" lon="-8.68149">
        <ele>14.405</ele>
        <time>2018-07-28T18:42:40Z</time>
      </trkpt>
      <trkpt lat="42.40772" lon="-8.68135">
        <ele>14.515</ele>
        <time>2018-07-28T18:42:41Z</time>
      </trkpt>
      <trkpt lat="42.40782" lon="-8.68123">
        <ele>14.608</ele>
        <time>2018-07-28T18:42:42Z</time>
      </trkpt>
      <trkpt lat="42.40793" lon="-8.68107">
        <ele>14.966</ele>
        <time>2018-07-28T18:42:43Z</time>
      </trkpt>
      <trkpt lat="42.40803" lon="-8.68092">
        <ele>15.431</ele>
        <time>2018-07-28T18:42:44Z</time>
      </trkpt>
      <trkpt lat="42.40814" lon="-8.68078">
        <ele>15.754</ele>
        <time>2018-07-28T18:42:45Z</time>
      </trkpt>
      <trkpt lat="42.40826" lon="-8.68064">
        <ele>15.816</ele>
        <time>2018-07-28T18:42:46Z</time>
      </trkpt>
      <trkpt lat="42.40836" lon="-8.68051">
        <ele>15.871</ele>
        <time>2018-07-28T18:42:47Z</time>
      </trkpt>
      <trkpt lat="42.40847" lon="-8.68038">
        <ele>15.716</ele>
        <time>2018-07-28T18:42:48Z</time>
      </trkpt>
      <trkpt lat="42.40856" lon="-8.68025">
        <ele>15.424</ele>
        <time>2018-07-28T18:42:49Z</time>
      </trkpt>
      <trkpt lat="42.40864" lon="-8.68013">
        <ele>15.05</ele>
        <time>2018-07-28T18:42:50Z</time>
      </trkpt>
      <trkpt lat="42.40873" lon="-8.68003">
        <ele>14.812</ele>
        <time>2018-07-28T18:42:51Z</time>
      </trkpt>
      <trkpt lat="42.40881" lon="-8.67991">
        <ele>14.532</ele>
        <time>2018-07-28T18:42:52Z</time>
      </trkpt>
      <trkpt lat="42.4089" lon="-8.67979">
        <ele>14.305</ele>
        <time>2018-07-28T18:42:53Z</time>
      </trkpt>
      <trkpt lat="42.409" lon="-8.67966">
        <ele>14.408</ele>
        <time>2018-07-28T18:42:54Z</time>
      </trkpt>
      <trkpt lat="42.40911" lon="-8.67955">
        <ele>14.663</ele>
        <time>2018-07-28T18:42:55Z</time>
      </trkpt>
      <trkpt lat="42.40922" lon="-8.67944">
        <ele>14.918</ele>
        <time>2018-07-28T18:42:56Z</time>
      </trkpt>
      <trkpt lat="42.40934" lon="-8.6793">
        <ele>15.371</ele>
        <time>2018-07-28T18:42:57Z</time>
      </trkpt>
      <trkpt lat="42.40946" lon="-8.67916">
        <ele>15.613</ele>
        <time>2018-07-28T18:42:58Z</time>
      </trkpt>
      <trkpt lat="42.40958" lon="-8.679">
        <ele>15.928</ele>
        <time>2018-07-28T18:42:59Z</time>
      </trkpt>
      <trkpt lat="42.4097" lon="-8.67884">
        <ele>16.213</ele>
        <time>2018-07-28T18:43:00Z</time>
      </trkpt>
      <trkpt lat="42.40981" lon="-8.67866">
        <ele>16.511</ele>
        <time>2018-07-28T18:43:01Z</time>
      </trkpt>
      <trkpt lat="42.40993" lon="-8.67851">
        <ele>16.747</ele>
        <time>2018-07-28T18:43:02Z</time>
      </trkpt>
      <trkpt lat="42.41002" lon="-8.67835">
        <ele>16.812</ele>
        <time>2018-07-28T18:43:03Z</time>
      </trkpt>
      <trkpt lat="42.41016" lon="-8.67822">
        <ele>16.832</ele>
        <time>2018-07-28T18:43:04Z</time>
      </trkpt>
      <trkpt lat="42.41025" lon="-8.6781">
        <ele>16.605</ele>
        <time>2018-07-28T18:43:05Z</time>
      </trkpt>
      <trkpt lat="42.41033" lon="-8.67795">
        <ele>16.408</ele>
        <time>2018-07-28T18:43:06Z</time>
      </trkpt>
      <trkpt lat="42.41042" lon="-8.67783">
        <ele>16.113</ele>
        <time>2018-07-28T18:43:07Z</time>
      </trkpt>
      <trkpt lat="42.41052" lon="-8.67771">
        <ele>15.748</ele>
        <time>2018-07-28T18:43:08Z</time>
      </trkpt>
      <trkpt lat="42.41063" lon="-8.67761">
        <ele>15.551</ele>
        <time>2018-07-28T18:43:09Z</time>
      </trkpt>
      <trkpt lat="42.41073" lon="-8.67746">
        <ele>15.373</ele>
        <time>2018-07-28T18:43:10Z</time>
      </trkpt>
      <trkpt lat="42.41083" lon="-8.67734">
        <ele>15.318</ele>
        <time>2018-07-28T18:43:11Z</time>
      </trkpt>
      <trkpt lat="42.41094" lon="-8.67718">
        <ele>15.553</ele>
        <time>2018-07-28T18:43:12Z</time>
      </trkpt>
      <trkpt lat="42.41107" lon="-8.67701">
        <ele>15.781</ele>
        <time>2018-07-28T18:43:13Z</time>
      </trkpt>
      <trkpt lat="42.41119" lon="-8.67685">
        <ele>16.147</ele>
        <time>2018-07-28T18:43:14Z</time>
      </trkpt>
      <trkpt lat="42.4113" lon="-8.67666">
        <ele>16.542</ele>
        <time>2018-07-28T18:43:15Z</time>
      </trkpt>
      <trkpt lat="42.41145" lon="-8.6765">
        <ele>16.822</ele>
        <time>2018-07-28T18:43:16Z</time>
      </trkpt>
      <trkpt lat="42.41158" lon="-8.67635">
        <ele>17.014</ele>
        <time>2018-07-28T18:43:17Z</time>
      </trkpt>
      <trkpt lat="42.41171" lon="-8.6762">
        <ele>17.208</ele>
        <time>2018-07-28T18:43:18Z</time>
      </trkpt>
      <trkpt lat="42.41184" lon="-8.67603">
        <ele>17.376</ele>
        <time>2018-07-28T18:43:19Z</time>
      </trkpt>
      <trkpt lat="42.41197" lon="-8.67587">
        <ele>17.371</ele>
        <time>2018-07-28T18:43:20Z</time>
      </trkpt>
      <trkpt lat="42.4121" lon="-8.67568">
        <ele>17.484</ele>
        <time>2018-07-28T18:43:21Z</time>
      </trkpt>
      <trkpt lat="42.41225" lon="-8.67551">
        <ele>17.456</ele>
        <time>2018-07-28T18:43:22Z</time>
      </trkpt>
      <trkpt lat="42.41239" lon="-8.67533">
        <ele>17.471</ele>
        <time>2018-07-28T18:43:23Z</time>
      </trkpt>
      <trkpt lat="42.41253" lon="-8.67515">
        <ele>17.456</ele>
        <time>2018-07-28T18:43:24Z</time>
      </trkpt>
      <trkpt lat="42.41268" lon="-8.67498">
        <ele>17.424</ele>
        <time>2018-07-28T18:43:25Z</time>
      </trkpt>
      <trkpt lat="42.41283" lon="-8.67482">
        <ele>17.21</ele>
        <time>2018-07-28T18:43:26Z</time>
      </trkpt>
      <trkpt lat="42.41296" lon="-8.67465">
        <ele>16.595</ele>
        <time>2018-07-28T18:43:27Z</time>
      </trkpt>
      <trkpt lat="42.41306" lon="-8.67452">
        <ele>16.049</ele>
        <time>2018-07-28T18:43:28Z</time>
      </trkpt>
      <trkpt lat="42.41315" lon="-8.67438">
        <ele>15.323</ele>
        <time>2018-07-28T18:43:29Z</time>
      </trkpt>
      <trkpt lat="42.41325" lon="-8.67427">
        <ele>14.708</ele>
        <time>2018-07-28T18:43:30Z</time>
      </trkpt>
      <trkpt lat="42.41334" lon="-8.67416">
        <ele>14.281</ele>
        <time>2018-07-28T18:43:31Z</time>
      </trkpt>
      <trkpt lat="42.41343" lon="-8.67404">
        <ele>14.096</ele>
        <time>2018-07-28T18:43:32Z</time>
      </trkpt>
      <trkpt lat="42.41353" lon="-8.67392">
        <ele>13.939</ele>
        <time>2018-07-28T18:43:33Z</time>
      </trkpt>
      <trkpt lat="42.41364" lon="-8.67381">
        <ele>13.921</ele>
        <time>2018-07-28T18:43:34Z</time>
      </trkpt>
      <trkpt lat="42.41374" lon="-8.67369">
        <ele>13.996</ele>
        <time>2018-07-28T18:43:35Z</time>
      </trkpt>
      <trkpt lat="42.41384" lon="-8.67355">
        <ele>13.981</ele>
        <time>2018-07-28T18:43:36Z</time>
      </trkpt>
      <trkpt lat="42.41393" lon="-8.67343">
        <ele>13.959</ele>
        <time>2018-07-28T18:43:37Z</time>
      </trkpt>
      <trkpt lat="42.41403" lon="-8.67331">
        <ele>13.935</ele>
        <time>2018-07-28T18:43:38Z</time>
      </trkpt>
      <trkpt lat="42.41413" lon="-8.6732">
        <ele>13.993</ele>
        <time>2018-07-28T18:43:39Z</time>
      </trkpt>
      <trkpt lat="42.41423" lon="-8.67307">
        <ele>13.965</ele>
        <time>2018-07-28T18:43:40Z</time>
      </trkpt>
      <trkpt lat="42.41434" lon="-8.67294">
        <ele>14.121</ele>
        <time>2018-07-28T18:43:41Z</time>
      </trkpt>
      <trkpt lat="42.41446" lon="-8.67278">
        <ele>14.308</ele>
        <time>2018-07-28T18:43:42Z</time>
      </trkpt>
      <trkpt lat="42.41455" lon="-8.67263">
        <ele>14.871</ele>
        <time>2018-07-28T18:43:43Z</time>
      </trkpt>
      <trkpt lat="42.41466" lon="-8.67248">
        <ele>15.096</ele>
        <time>2018-07-28T18:43:44Z</time>
      </trkpt>
      <trkpt lat="42.41478" lon="-8.67233">
        <ele>15.259</ele>
        <time>2018-07-28T18:43:45Z</time>
      </trkpt>
      <trkpt lat="42.4149" lon="-8.67219">
        <ele>15.341</ele>
        <time>2018-07-28T18:43:46Z</time>
      </trkpt>
      <trkpt lat="42.41503" lon="-8.67203">
        <ele>15.526</ele>
        <time>2018-07-28T18:43:47Z</time>
      </trkpt>
      <trkpt lat="42.41516" lon="-8.67186">
        <ele>15.991</ele>
        <time>2018-07-28T18:43:48Z</time>
      </trkpt>
      <trkpt lat="42.41528" lon="-8.67169">
        <ele>16.329</ele>
        <time>2018-07-28T18:43:49Z</time>
      </trkpt>
      <trkpt lat="42.41542" lon="-8.67151">
        <ele>16.735</ele>
        <time>2018-07-28T18:43:50Z</time>
      </trkpt>
      <trkpt lat="42.41556" lon="-8.67133">
        <ele>17.265</ele>
        <time>2018-07-28T18:43:51Z</time>
      </trkpt>
      <trkpt lat="42.4157" lon="-8.67116">
        <ele>17.868</ele>
        <time>2018-07-28T18:43:52Z</time>
      </trkpt>
      <trkpt lat="42.41583" lon="-8.67096">
        <ele>18.314</ele>
        <time>2018-07-28T18:43:53Z</time>
      </trkpt>
      <trkpt lat="42.41598" lon="-8.67078">
        <ele>18.608</ele>
        <time>2018-07-28T18:43:54Z</time>
      </trkpt>
      <trkpt lat="42.41611" lon="-8.67057">
        <ele>18.988</ele>
        <time>2018-07-28T18:43:55Z</time>
      </trkpt>
      <trkpt lat="42.41624" lon="-8.67037">
        <ele>19.233</ele>
        <time>2018-07-28T18:43:56Z</time>
      </trkpt>
      <trkpt lat="42.41637" lon="-8.67019">
        <ele>19.386</ele>
        <time>2018-07-28T18:43:57Z</time>
      </trkpt>
      <trkpt lat="42.41648" lon="-8.66998">
        <ele>19.478</ele>
        <time>2018-07-28T18:43:58Z</time>
      </trkpt>
      <trkpt lat="42.41663" lon="-8.66981">
        <ele>19.753</ele>
        <time>2018-07-28T18:43:59Z</time>
      </trkpt>
      <trkpt lat="42.41675" lon="-8.66958">
        <ele>19.898</ele>
        <time>2018-07-28T18:44:00Z</time>
      </trkpt>
      <trkpt lat="42.41684" lon="-8.66937">
        <ele>19.996</ele>
        <time>2018-07-28T18:44:01Z</time>
      </trkpt>
      <trkpt lat="42.41693" lon="-8.66917">
        <ele>20.082</ele>
        <time>2018-07-28T18:44:02Z</time>
      </trkpt>
      <trkpt lat="42.41704" lon="-8.66898">
        <ele>20.342</ele>
        <time>2018-07-28T18:44:03Z</time>
      </trkpt>
      <trkpt lat="42.41715" lon="-8.66879">
        <ele>20.522</ele>
        <time>2018-07-28T18:44:04Z</time>
      </trkpt>
      <trkpt lat="42.41726" lon="-8.66858">
        <ele>20.614</ele>
        <time>2018-07-28T18:44:05Z</time>
      </trkpt>
      <trkpt lat="42.41738" lon="-8.66839">
        <ele>20.908</ele>
        <time>2018-07-28T18:44:06Z</time>
      </trkpt>
      <trkpt lat="42.41749" lon="-8.66818">
        <ele>21.156</ele>
        <time>2018-07-28T18:44:07Z</time>
      </trkpt>
      <trkpt lat="42.41763" lon="-8.66797">
        <ele>21.241</ele>
        <time>2018-07-28T18:44:08Z</time>
      </trkpt>
      <trkpt lat="42.41778" lon="-8.66778">
        <ele>21.374</ele>
        <time>2018-07-28T18:44:09Z</time>
      </trkpt>
      <trkpt lat="42.41792" lon="-8.66759">
        <ele>21.446</ele>
        <time>2018-07-28T18:44:10Z</time>
      </trkpt>
      <trkpt lat="42.41808" lon="-8.66743">
        <ele>21.481</ele>
        <time>2018-07-28T18:44:11Z</time>
      </trkpt>
      <trkpt lat="42.41823" lon="-8.66725">
        <ele>21.256</ele>
        <time>2018-07-28T18:44:12Z</time>
      </trkpt>
      <trkpt lat="42.41837" lon="-8.6671">
        <ele>21.134</ele>
        <time>2018-07-28T18:44:13Z</time>
      </trkpt>
      <trkpt lat="42.41851" lon="-8.66695">
        <ele>20.86</ele>
        <time>2018-07-28T18:44:14Z</time>
      </trkpt>
      <trkpt lat="42.41865" lon="-8.66678">
        <ele>20.737</ele>
        <time>2018-07-28T18:44:15Z</time>
      </trkpt>
      <trkpt lat="42.41879" lon="-8.66663">
        <ele>20.449</ele>
        <time>2018-07-28T18:44:16Z</time>
      </trkpt>
      <trkpt lat="42.41892" lon="-8.66649">
        <ele>20.113</ele>
        <time>2018-07-28T18:44:17Z</time>
      </trkpt>
      <trkpt lat="42.41906" lon="-8.66634">
        <ele>19.708</ele>
        <time>2018-07-28T18:44:18Z</time>
      </trkpt>
      <trkpt lat="42.41918" lon="-8.66622">
        <ele>19.175</ele>
        <time>2018-07-28T18:44:19Z</time>
      </trkpt>
      <trkpt lat="42.41933" lon="-8.66608">
        <ele>18.62</ele>
        <time>2018-07-28T18:44:20Z</time>
      </trkpt>
      <trkpt lat="42.41946" lon="-8.66592">
        <ele>18.213</ele>
        <time>2018-07-28T18:44:21Z</time>
      </trkpt>
      <trkpt lat="42.41959" lon="-8.66576">
        <ele>18.015</ele>
        <time>2018-07-28T18:44:22Z</time>
      </trkpt>
      <trkpt lat="42.41975" lon="-8.66562">
        <ele>18.08</ele>
        <time>2018-07-28T18:44:23Z</time>
      </trkpt>
      <trkpt lat="42.41991" lon="-8.66546">
        <ele>18.155</ele>
        <time>2018-07-28T18:44:24Z</time>
      </trkpt>
      <trkpt lat="42.42007" lon="-8.66531">
        <ele>18.223</ele>
        <time>2018-07-28T18:44:25Z</time>
      </trkpt>
      <trkpt lat="42.42023" lon="-8.66518">
        <ele>18.359</ele>
        <time>2018-07-28T18:44:26Z</time>
      </trkpt>
      <trkpt lat="42.42038" lon="-8.66502">
        <ele>18.657</ele>
        <time>2018-07-28T18:44:27Z</time>
      </trkpt>
      <trkpt lat="42.42053" lon="-8.66484">
        <ele>18.6</ele>
        <time>2018-07-28T18:44:28Z</time>
      </trkpt>
      <trkpt lat="42.42067" lon="-8.66469">
        <ele>18.52</ele>
        <time>2018-07-28T18:44:29Z</time>
      </trkpt>
      <trkpt lat="42.42083" lon="-8.66455">
        <ele>18.408</ele>
        <time>2018-07-28T18:44:30Z</time>
      </trkpt>
      <trkpt lat="42.42094" lon="-8.66438">
        <ele>18.177</ele>
        <time>2018-07-28T18:44:31Z</time>
      </trkpt>
      <trkpt lat="42.42105" lon="-8.66421">
        <ele>17.332</ele>
        <time>2018-07-28T18:44:32Z</time>
      </trkpt>
      <trkpt lat="42.42114" lon="-8.66402">
        <ele>16.975</ele>
        <time>2018-07-28T18:44:33Z</time>
      </trkpt>
      <trkpt lat="42.42124" lon="-8.66383">
        <ele>16.777</ele>
        <time>2018-07-28T18:44:34Z</time>
      </trkpt>
      <trkpt lat="42.42131" lon="-8.66364">
        <ele>16.742</ele>
        <time>2018-07-28T18:44:35Z</time>
      </trkpt>
      <trkpt lat="42.42138" lon="-8.66343">
        <ele>16.857</ele>
        <time>2018-07-28T18:44:36Z</time>
      </trkpt>
      <trkpt lat="42.42145" lon="-8.66321">
        <ele>17.175</ele>
        <time>2018-07-28T18:44:37Z</time>
      </trkpt>
      <trkpt lat="42.4215" lon="-8.66299">
        <ele>17.251</ele>
        <time>2018-07-28T18:44:38Z</time>
      </trkpt>
      <trkpt lat="42.42154" lon="-8.66275">
        <ele>17.347</ele>
        <time>2018-07-28T18:44:39Z</time>
      </trkpt>
      <trkpt lat="42.42159" lon="-8.66257">
        <ele>17.329</ele>
        <time>2018-07-28T18:44:40Z</time>
      </trkpt>
      <trkpt lat="42.42162" lon="-8.66235">
        <ele>17.421</ele>
        <time>2018-07-28T18:44:41Z</time>
      </trkpt>
      <trkpt lat="42.42167" lon="-8.66214">
        <ele>17.508</ele>
        <time>2018-07-28T18:44:42Z</time>
      </trkpt>
      <trkpt lat="42.42173" lon="-8.66192">
        <ele>17.556</ele>
        <time>2018-07-28T18:44:43Z</time>
      </trkpt>
      <trkpt lat="42.42176" lon="-8.6617">
        <ele>17.561</ele>
        <time>2018-07-28T18:44:44Z</time>
      </trkpt>
      <trkpt lat="42.42181" lon="-8.66149">
        <ele>17.574</ele>
        <time>2018-07-28T18:44:45Z</time>
      </trkpt>
      <trkpt lat="42.42186" lon="-8.66126">
        <ele>17.436</ele>
        <time>2018-07-28T18:44:46Z</time>
      </trkpt>
      <trkpt lat="42.42189" lon="-8.66105">
        <ele>17.491</ele>
        <time>2018-07-28T18:44:47Z</time>
      </trkpt>
      <trkpt lat="42.42195" lon="-8.66083">
        <ele>17.686</ele>
        <time>2018-07-28T18:44:48Z</time>
      </trkpt>
      <trkpt lat="42.42198" lon="-8.66062">
        <ele>17.724</ele>
        <time>2018-07-28T18:44:49Z</time>
      </trkpt>
      <trkpt lat="42.42201" lon="-8.66041">
        <ele>17.78</ele>
        <time>2018-07-28T18:44:50Z</time>
      </trkpt>
      <trkpt lat="42.42203" lon="-8.6602">
        <ele>17.667</ele>
        <time>2018-07-28T18:44:51Z</time>
      </trkpt>
      <trkpt lat="42.42205" lon="-8.66003">
        <ele>17.381</ele>
        <time>2018-07-28T18:44:52Z</time>
      </trkpt>
      <trkpt lat="42.42206" lon="-8.65986">
        <ele>17.119</ele>
        <time>2018-07-28T18:44:53Z</time>
      </trkpt>
      <trkpt lat="42.42208" lon="-8.65971">
        <ele>16.708</ele>
        <time>2018-07-28T18:44:54Z</time>
      </trkpt>
      <trkpt lat="42.42213" lon="-8.65958">
        <ele>16.298</ele>
        <time>2018-07-28T18:44:55Z</time>
      </trkpt>
      <trkpt lat="42.42216" lon="-8.65943">
        <ele>15.813</ele>
        <time>2018-07-28T18:44:56Z</time>
      </trkpt>
      <trkpt lat="42.42218" lon="-8.65928">
        <ele>15.676</ele>
        <time>2018-07-28T18:44:57Z</time>
      </trkpt>
      <trkpt lat="42.42222" lon="-8.65911">
        <ele>15.338</ele>
        <time>2018-07-28T18:44:58Z</time>
      </trkpt>
      <trkpt lat="42.42226" lon="-8.65894">
        <ele>15.253</ele>
        <time>2018-07-28T18:44:59Z</time>
      </trkpt>
      <trkpt lat="42.42229" lon="-8.65876">
        <ele>15.298</ele>
        <time>2018-07-28T18:45:00Z</time>
      </trkpt>
      <trkpt lat="42.42228" lon="-8.65856">
        <ele>15.256</ele>
        <time>2018-07-28T18:45:01Z</time>
      </trkpt>
      <trkpt lat="42.42228" lon="-8.65838">
        <ele>15.222</ele>
        <time>2018-07-28T18:45:02Z</time>
      </trkpt>
      <trkpt lat="42.42231" lon="-8.65821">
        <ele>15.279</ele>
        <time>2018-07-28T18:45:03Z</time>
      </trkpt>
      <trkpt lat="42.42235" lon="-8.65804">
        <ele>15.605</ele>
        <time>2018-07-28T18:45:04Z</time>
      </trkpt>
      <trkpt lat="42.42239" lon="-8.65785">
        <ele>15.825</ele>
        <time>2018-07-28T18:45:05Z</time>
      </trkpt>
      <trkpt lat="42.42245" lon="-8.65766">
        <ele>16.108</ele>
        <time>2018-07-28T18:45:06Z</time>
      </trkpt>
      <trkpt lat="42.42255" lon="-8.65751">
        <ele>16.449</ele>
        <time>2018-07-28T18:45:07Z</time>
      </trkpt>
      <trkpt lat="42.42262" lon="-8.65735">
        <ele>16.784</ele>
        <time>2018-07-28T18:45:08Z</time>
      </trkpt>
      <trkpt lat="42.42272" lon="-8.65721">
        <ele>16.887</ele>
        <time>2018-07-28T18:45:09Z</time>
      </trkpt>
      <trkpt lat="42.42279" lon="-8.65708">
        <ele>16.839</ele>
        <time>2018-07-28T18:45:10Z</time>
      </trkpt>
      <trkpt lat="42.42285" lon="-8.65693">
        <ele>16.824</ele>
        <time>2018-07-28T18:45:11Z</time>
      </trkpt>
      <trkpt lat="42.42292" lon="-8.65678">
        <ele>16.649</ele>
        <time>2018-07-28T18:45:12Z</time>
      </trkpt>
      <trkpt lat="42.423" lon="-8.65663">
        <ele>16.347</ele>
        <time>2018-07-28T18:45:13Z</time>
      </trkpt>
      <trkpt lat="42.42308" lon="-8.65647">
        <ele>16.263</ele>
        <time>2018-07-28T18:45:14Z</time>
      </trkpt>
      <trkpt lat="42.42315" lon="-8.65632">
        <ele>16.151</ele>
        <time>2018-07-28T18:45:15Z</time>
      </trkpt>
      <trkpt lat="42.4232" lon="-8.65617">
        <ele>16.001</ele>
        <time>2018-07-28T18:45:16Z</time>
      </trkpt>
      <trkpt lat="42.42326" lon="-8.65604">
        <ele>16.011</ele>
        <time>2018-07-28T18:45:17Z</time>
      </trkpt>
      <trkpt lat="42.42332" lon="-8.65597">
        <ele>15.908</ele>
        <time>2018-07-28T18:45:18Z</time>
      </trkpt>
      <trkpt lat="42.42338" lon="-8.65593">
        <ele>15.577</ele>
        <time>2018-07-28T18:45:19Z</time>
      </trkpt>
      <trkpt lat="42.42345" lon="-8.65589">
        <ele>15.122</ele>
        <time>2018-07-28T18:45:20Z</time>
      </trkpt>
      <trkpt lat="42.4235" lon="-8.65586">
        <ele>14.475</ele>
        <time>2018-07-28T18:45:21Z</time>
      </trkpt>
      <trkpt lat="42.42355" lon="-8.6558">
        <ele>14.167</ele>
        <time>2018-07-28T18:45:22Z</time>
      </trkpt>
      <trkpt lat="42.42357" lon="-8.65571">
        <ele>14.192</ele>
        <time>2018-07-28T18:45:23Z</time>
      </trkpt>
      <trkpt lat="42.42362" lon="-8.65564">
        <ele>14.157</ele>
        <time>2018-07-28T18:45:24Z</time>
      </trkpt>
      <trkpt lat="42.42369" lon="-8.65556">
        <ele>14.145</ele>
        <time>2018-07-28T18:45:25Z</time>
      </trkpt>
      <trkpt lat="42.42377" lon="-8.65549">
        <ele>14.131</ele>
        <time>2018-07-28T18:45:26Z</time>
      </trkpt>
      <trkpt lat="42.42383" lon="-8.65544">
        <ele>14.295</ele>
        <time>2018-07-28T18:45:27Z</time>
      </trkpt>
      <trkpt lat="42.42388" lon="-8.65538">
        <ele>14.249</ele>
        <time>2018-07-28T18:45:28Z</time>
      </trkpt>
      <trkpt lat="42.42392" lon="-8.65533">
        <ele>14.223</ele>
        <time>2018-07-28T18:45:29Z</time>
      </trkpt>
      <trkpt lat="42.42399" lon="-8.65527">
        <ele>14.108</ele>
        <time>2018-07-28T18:45:31Z</time>
      </trkpt>
      <trkpt lat="42.42404" lon="-8.65521">
        <ele>14.011</ele>
        <time>2018-07-28T18:45:33Z</time>
      </trkpt>
      <trkpt lat="42.42408" lon="-8.65515">
        <ele>14.036</ele>
        <time>2018-07-28T18:45:34Z</time>
      </trkpt>
      <trkpt lat="42.42412" lon="-8.65512">
        <ele>14.029</ele>
        <time>2018-07-28T18:45:35Z</time>
      </trkpt>
      <trkpt lat="42.42418" lon="-8.65508">
        <ele>14.091</ele>
        <time>2018-07-28T18:45:36Z</time>
      </trkpt>
      <trkpt lat="42.42423" lon="-8.65501">
        <ele>14.256</ele>
        <time>2018-07-28T18:45:37Z</time>
      </trkpt>
      <trkpt lat="42.42431" lon="-8.65493">
        <ele>14.381</ele>
        <time>2018-07-28T18:45:38Z</time>
      </trkpt>
      <trkpt lat="42.42439" lon="-8.65485">
        <ele>14.499</ele>
        <time>2018-07-28T18:45:39Z</time>
      </trkpt>
      <trkpt lat="42.42447" lon="-8.65477">
        <ele>14.525</ele>
        <time>2018-07-28T18:45:40Z</time>
      </trkpt>
      <trkpt lat="42.42455" lon="-8.65469">
        <ele>14.697</ele>
        <time>2018-07-28T18:45:41Z</time>
      </trkpt>
      <trkpt lat="42.42462" lon="-8.65461">
        <ele>14.723</ele>
        <time>2018-07-28T18:45:42Z</time>
      </trkpt>
      <trkpt lat="42.42469" lon="-8.65452">
        <ele>14.725</ele>
        <time>2018-07-28T18:45:43Z</time>
      </trkpt>
      <trkpt lat="42.42476" lon="-8.65447">
        <ele>14.608</ele>
        <time>2018-07-28T18:45:44Z</time>
      </trkpt>
      <trkpt lat="42.42484" lon="-8.65441">
        <ele>14.521</ele>
        <time>2018-07-28T18:45:45Z</time>
      </trkpt>
      <trkpt lat="42.4249" lon="-8.65433">
        <ele>14.436</ele>
        <time>2018-07-28T18:45:46Z</time>
      </trkpt>
      <trkpt lat="42.42494" lon="-8.65426">
        <ele>14.389</ele>
        <time>2018-07-28T18:45:47Z</time>
      </trkpt>
      <trkpt lat="42.425" lon="-8.65418">
        <ele>14.111</ele>
        <time>2018-07-28T18:45:48Z</time>
      </trkpt>
      <trkpt lat="42.42505" lon="-8.65414">
        <ele>13.916</ele>
        <time>2018-07-28T18:45:49Z</time>
      </trkpt>
      <trkpt lat="42.42509" lon="-8.65408">
        <ele>13.871</ele>
        <time>2018-07-28T18:45:50Z</time>
      </trkpt>
      <trkpt lat="42.42514" lon="-8.65404">
        <ele>13.659</ele>
        <time>2018-07-28T18:45:51Z</time>
      </trkpt>
      <trkpt lat="42.42519" lon="-8.65399">
        <ele>13.535</ele>
        <time>2018-07-28T18:45:52Z</time>
      </trkpt>
      <trkpt lat="42.42524" lon="-8.65392">
        <ele>13.685</ele>
        <time>2018-07-28T18:45:53Z</time>
      </trkpt>
      <trkpt lat="42.4253" lon="-8.65385">
        <ele>13.689</ele>
        <time>2018-07-28T18:45:54Z</time>
      </trkpt>
      <trkpt lat="42.42536" lon="-8.65376">
        <ele>13.717</ele>
        <time>2018-07-28T18:45:55Z</time>
      </trkpt>
      <trkpt lat="42.42544" lon="-8.65368">
        <ele>13.908</ele>
        <time>2018-07-28T18:45:56Z</time>
      </trkpt>
      <trkpt lat="42.42552" lon="-8.6536">
        <ele>14.06</ele>
        <time>2018-07-28T18:45:57Z</time>
      </trkpt>
      <trkpt lat="42.4256" lon="-8.65353">
        <ele>14.045</ele>
        <time>2018-07-28T18:45:58Z</time>
      </trkpt>
      <trkpt lat="42.42566" lon="-8.65345">
        <ele>14.018</ele>
        <time>2018-07-28T18:45:59Z</time>
      </trkpt>
      <trkpt lat="42.42572" lon="-8.65342">
        <ele>13.98</ele>
        <time>2018-07-28T18:46:00Z</time>
      </trkpt>
      <trkpt lat="42.42578" lon="-8.65336">
        <ele>13.735</ele>
        <time>2018-07-28T18:46:01Z</time>
      </trkpt>
      <trkpt lat="42.42582" lon="-8.65331">
        <ele>13.57</ele>
        <time>2018-07-28T18:46:02Z</time>
      </trkpt>
      <trkpt lat="42.42588" lon="-8.65324">
        <ele>13.348</ele>
        <time>2018-07-28T18:46:03Z</time>
      </trkpt>
      <trkpt lat="42.4259" lon="-8.65319">
        <ele>13.244</ele>
        <time>2018-07-28T18:46:04Z</time>
      </trkpt>
      <trkpt lat="42.42597" lon="-8.65314">
        <ele>12.941</ele>
        <time>2018-07-28T18:46:06Z</time>
      </trkpt>
      <trkpt lat="42.42602" lon="-8.65311">
        <ele>12.881</ele>
        <time>2018-07-28T18:46:07Z</time>
      </trkpt>
      <trkpt lat="42.42607" lon="-8.65309">
        <ele>12.809</ele>
        <time>2018-07-28T18:46:08Z</time>
      </trkpt>
      <trkpt lat="42.42611" lon="-8.65303">
        <ele>12.808</ele>
        <time>2018-07-28T18:46:09Z</time>
      </trkpt>
      <trkpt lat="42.42615" lon="-8.65298">
        <ele>12.886</ele>
        <time>2018-07-28T18:46:10Z</time>
      </trkpt>
      <trkpt lat="42.42619" lon="-8.65289">
        <ele>12.781</ele>
        <time>2018-07-28T18:46:11Z</time>
      </trkpt>
      <trkpt lat="42.42622" lon="-8.65284">
        <ele>12.534</ele>
        <time>2018-07-28T18:46:13Z</time>
      </trkpt>
      <trkpt lat="42.42618" lon="-8.6528">
        <ele>12.336</ele>
        <time>2018-07-28T18:46:15Z</time>
      </trkpt>
      <trkpt lat="42.42622" lon="-8.65276">
        <ele>12.391</ele>
        <time>2018-07-28T18:46:20Z</time>
      </trkpt>
      <trkpt lat="42.42623" lon="-8.6527">
        <ele>12.236</ele>
        <time>2018-07-28T18:46:24Z</time>
      </trkpt>
      <trkpt lat="42.42624" lon="-8.65262">
        <ele>12.294</ele>
        <time>2018-07-28T18:46:27Z</time>
      </trkpt>
      <trkpt lat="42.42629" lon="-8.65265">
        <ele>12.36</ele>
        <time>2018-07-28T18:46:37Z</time>
      </trkpt>
      <trkpt lat="42.42624" lon="-8.65263">
        <ele>12.299</ele>
        <time>2018-07-28T18:46:43Z</time>
      </trkpt>
      <trkpt lat="42.42629" lon="-8.65259">
        <ele>12.107</ele>
        <time>2018-07-28T18:46:47Z</time>
      </trkpt>
      <trkpt lat="42.42636" lon="-8.65261">
        <ele>12.127</ele>
        <time>2018-07-28T18:46:49Z</time>
      </trkpt>
      <trkpt lat="42.42642" lon="-8.65258">
        <ele>12.208</ele>
        <time>2018-07-28T18:46:51Z</time>
      </trkpt>
      <trkpt lat="42.42646" lon="-8.65254">
        <ele>12.251</ele>
        <time>2018-07-28T18:46:54Z</time>
      </trkpt>
      <trkpt lat="42.4265" lon="-8.65251">
        <ele>12.156</ele>
        <time>2018-07-28T18:46:57Z</time>
      </trkpt>
      <trkpt lat="42.42655" lon="-8.65249">
        <ele>12.269</ele>
        <time>2018-07-28T18:47:00Z</time>
      </trkpt>
      <trkpt lat="42.42658" lon="-8.65243">
        <ele>12.191</ele>
        <time>2018-07-28T18:47:02Z</time>
      </trkpt>
      <trkpt lat="42.42662" lon="-8.6524">
        <ele>12.176</ele>
        <time>2018-07-28T18:47:04Z</time>
      </trkpt>
      <trkpt lat="42.42667" lon="-8.65239">
        <ele>12.761</ele>
        <time>2018-07-28T18:47:14Z</time>
      </trkpt>
      <trkpt lat="42.42672" lon="-8.65234">
        <ele>12.469</ele>
        <time>2018-07-28T18:47:18Z</time>
      </trkpt>
      <trkpt lat="42.42678" lon="-8.65233">
        <ele>12.425</ele>
        <time>2018-07-28T18:47:21Z</time>
      </trkpt>
      <trkpt lat="42.42682" lon="-8.6523">
        <ele>12.446</ele>
        <time>2018-07-28T18:47:23Z</time>
      </trkpt>
      <trkpt lat="42.42691" lon="-8.65228">
        <ele>12.488</ele>
        <time>2018-07-28T18:47:25Z</time>
      </trkpt>
      <trkpt lat="42.42697" lon="-8.65226">
        <ele>12.516</ele>
        <time>2018-07-28T18:47:26Z</time>
      </trkpt>
      <trkpt lat="42.42703" lon="-8.65223">
        <ele>12.608</ele>
        <time>2018-07-28T18:47:27Z</time>
      </trkpt>
      <trkpt lat="42.42711" lon="-8.6522">
        <ele>12.866</ele>
        <time>2018-07-28T18:47:28Z</time>
      </trkpt>
      <trkpt lat="42.4272" lon="-8.65216">
        <ele>13.041</ele>
        <time>2018-07-28T18:47:29Z</time>
      </trkpt>
      <trkpt lat="42.42727" lon="-8.65212">
        <ele>13.054</ele>
        <time>2018-07-28T18:47:30Z</time>
      </trkpt>
      <trkpt lat="42.42733" lon="-8.65208">
        <ele>13.066</ele>
        <time>2018-07-28T18:47:31Z</time>
      </trkpt>
      <trkpt lat="42.42737" lon="-8.65203">
        <ele>12.941</ele>
        <time>2018-07-28T18:47:32Z</time>
      </trkpt>
      <trkpt lat="42.42741" lon="-8.652">
        <ele>12.586</ele>
        <time>2018-07-28T18:47:33Z</time>
      </trkpt>
      <trkpt lat="42.42746" lon="-8.65197">
        <ele>12.474</ele>
        <time>2018-07-28T18:47:34Z</time>
      </trkpt>
      <trkpt lat="42.4275" lon="-8.65193">
        <ele>12.48</ele>
        <time>2018-07-28T18:47:35Z</time>
      </trkpt>
      <trkpt lat="42.42755" lon="-8.6519">
        <ele>12.459</ele>
        <time>2018-07-28T18:47:36Z</time>
      </trkpt>
      <trkpt lat="42.42759" lon="-8.65187">
        <ele>12.403</ele>
        <time>2018-07-28T18:47:37Z</time>
      </trkpt>
      <trkpt lat="42.42764" lon="-8.65185">
        <ele>12.423</ele>
        <time>2018-07-28T18:47:38Z</time>
      </trkpt>
      <trkpt lat="42.42768" lon="-8.65181">
        <ele>12.508</ele>
        <time>2018-07-28T18:47:39Z</time>
      </trkpt>
      <trkpt lat="42.42772" lon="-8.65178">
        <ele>12.637</ele>
        <time>2018-07-28T18:47:40Z</time>
      </trkpt>
      <trkpt lat="42.42777" lon="-8.65176">
        <ele>12.762</ele>
        <time>2018-07-28T18:47:41Z</time>
      </trkpt>
      <trkpt lat="42.42782" lon="-8.65173">
        <ele>12.835</ele>
        <time>2018-07-28T18:47:42Z</time>
      </trkpt>
      <trkpt lat="42.42787" lon="-8.65171">
        <ele>13.027</ele>
        <time>2018-07-28T18:47:43Z</time>
      </trkpt>
      <trkpt lat="42.42793" lon="-8.65172">
        <ele>13.342</ele>
        <time>2018-07-28T18:47:44Z</time>
      </trkpt>
      <trkpt lat="42.42799" lon="-8.65173">
        <ele>13.577</ele>
        <time>2018-07-28T18:47:45Z</time>
      </trkpt>
      <trkpt lat="42.42806" lon="-8.65175">
        <ele>13.635</ele>
        <time>2018-07-28T18:47:46Z</time>
      </trkpt>
      <trkpt lat="42.42812" lon="-8.65176">
        <ele>13.771</ele>
        <time>2018-07-28T18:47:47Z</time>
      </trkpt>
      <trkpt lat="42.42818" lon="-8.65178">
        <ele>13.733</ele>
        <time>2018-07-28T18:47:48Z</time>
      </trkpt>
      <trkpt lat="42.42824" lon="-8.65181">
        <ele>13.723</ele>
        <time>2018-07-28T18:47:49Z</time>
      </trkpt>
      <trkpt lat="42.42829" lon="-8.65182">
        <ele>13.515</ele>
        <time>2018-07-28T18:47:50Z</time>
      </trkpt>
      <trkpt lat="42.42834" lon="-8.65185">
        <ele>13.508</ele>
        <time>2018-07-28T18:47:51Z</time>
      </trkpt>
      <trkpt lat="42.42842" lon="-8.65188">
        <ele>13.465</ele>
        <time>2018-07-28T18:47:53Z</time>
      </trkpt>
      <trkpt lat="42.42849" lon="-8.6519">
        <ele>13.33</ele>
        <time>2018-07-28T18:47:55Z</time>
      </trkpt>
      <trkpt lat="42.42856" lon="-8.65191">
        <ele>13.223</ele>
        <time>2018-07-28T18:47:57Z</time>
      </trkpt>
      <trkpt lat="42.42863" lon="-8.65194">
        <ele>13.215</ele>
        <time>2018-07-28T18:47:59Z</time>
      </trkpt>
      <trkpt lat="42.42871" lon="-8.65194">
        <ele>13.39</ele>
        <time>2018-07-28T18:48:01Z</time>
      </trkpt>
      <trkpt lat="42.42876" lon="-8.65193">
        <ele>13.475</ele>
        <time>2018-07-28T18:48:02Z</time>
      </trkpt>
      <trkpt lat="42.42883" lon="-8.6519">
        <ele>13.873</ele>
        <time>2018-07-28T18:48:03Z</time>
      </trkpt>
      <trkpt lat="42.4289" lon="-8.65184">
        <ele>14.129</ele>
        <time>2018-07-28T18:48:04Z</time>
      </trkpt>
      <trkpt lat="42.42897" lon="-8.65177">
        <ele>14.362</ele>
        <time>2018-07-28T18:48:05Z</time>
      </trkpt>
      <trkpt lat="42.42904" lon="-8.65171">
        <ele>14.783</ele>
        <time>2018-07-28T18:48:06Z</time>
      </trkpt>
      <trkpt lat="42.4291" lon="-8.65165">
        <ele>14.811</ele>
        <time>2018-07-28T18:48:07Z</time>
      </trkpt>
      <trkpt lat="42.42915" lon="-8.6516">
        <ele>14.908</ele>
        <time>2018-07-28T18:48:08Z</time>
      </trkpt>
      <trkpt lat="42.42921" lon="-8.65155">
        <ele>15.298</ele>
        <time>2018-07-28T18:48:09Z</time>
      </trkpt>
      <trkpt lat="42.42926" lon="-8.65149">
        <ele>15.713</ele>
        <time>2018-07-28T18:48:10Z</time>
      </trkpt>
      <trkpt lat="42.42931" lon="-8.65145">
        <ele>16.266</ele>
        <time>2018-07-28T18:48:11Z</time>
      </trkpt>
      <trkpt lat="42.42935" lon="-8.65141">
        <ele>16.768</ele>
        <time>2018-07-28T18:48:12Z</time>
      </trkpt>
      <trkpt lat="42.42939" lon="-8.65137">
        <ele>17.273</ele>
        <time>2018-07-28T18:48:13Z</time>
      </trkpt>
      <trkpt lat="42.42944" lon="-8.65132">
        <ele>17.788</ele>
        <time>2018-07-28T18:48:14Z</time>
      </trkpt>
      <trkpt lat="42.42948" lon="-8.65126">
        <ele>18.236</ele>
        <time>2018-07-28T18:48:15Z</time>
      </trkpt>
      <trkpt lat="42.42953" lon="-8.6512">
        <ele>18.772</ele>
        <time>2018-07-28T18:48:16Z</time>
      </trkpt>
      <trkpt lat="42.42958" lon="-8.65113">
        <ele>19.268</ele>
        <time>2018-07-28T18:48:17Z</time>
      </trkpt>
      <trkpt lat="42.42963" lon="-8.65106">
        <ele>19.742</ele>
        <time>2018-07-28T18:48:18Z</time>
      </trkpt>
      <trkpt lat="42.42967" lon="-8.65098">
        <ele>20.126</ele>
        <time>2018-07-28T18:48:19Z</time>
      </trkpt>
      <trkpt lat="42.42971" lon="-8.65091">
        <ele>20.508</ele>
        <time>2018-07-28T18:48:20Z</time>
      </trkpt>
      <trkpt lat="42.42973" lon="-8.65085">
        <ele>20.878</ele>
        <time>2018-07-28T18:48:21Z</time>
      </trkpt>
      <trkpt lat="42.42977" lon="-8.65075">
        <ele>21.483</ele>
        <time>2018-07-28T18:48:23Z</time>
      </trkpt>
      <trkpt lat="42.42979" lon="-8.65069">
        <ele>22.086</ele>
        <time>2018-07-28T18:48:24Z</time>
      </trkpt>
      <trkpt lat="42.42979" lon="-8.65062">
        <ele>22.318</ele>
        <time>2018-07-28T18:48:25Z</time>
      </trkpt>
      <trkpt lat="42.42979" lon="-8.65052">
        <ele>22.653</ele>
        <time>2018-07-28T18:48:26Z</time>
      </trkpt>
      <trkpt lat="42.4298" lon="-8.65043">
        <ele>22.818</ele>
        <time>2018-07-28T18:48:27Z</time>
      </trkpt>
      <trkpt lat="42.42983" lon="-8.65036">
        <ele>23.036</ele>
        <time>2018-07-28T18:48:28Z</time>
      </trkpt>
      <trkpt lat="42.42987" lon="-8.65031">
        <ele>23.282</ele>
        <time>2018-07-28T18:48:29Z</time>
      </trkpt>
      <trkpt lat="42.42993" lon="-8.65029">
        <ele>23.572</ele>
        <time>2018-07-28T18:48:30Z</time>
      </trkpt>
      <trkpt lat="42.42998" lon="-8.65027">
        <ele>23.713</ele>
        <time>2018-07-28T18:48:31Z</time>
      </trkpt>
      <trkpt lat="42.43003" lon="-8.65024">
        <ele>23.914</ele>
        <time>2018-07-28T18:48:32Z</time>
      </trkpt>
      <trkpt lat="42.43007" lon="-8.6502">
        <ele>24.108</ele>
        <time>2018-07-28T18:48:33Z</time>
      </trkpt>
      <trkpt lat="42.43012" lon="-8.65015">
        <ele>24.429</ele>
        <time>2018-07-28T18:48:34Z</time>
      </trkpt>
      <trkpt lat="42.43016" lon="-8.65011">
        <ele>24.744</ele>
        <time>2018-07-28T18:48:35Z</time>
      </trkpt>
      <trkpt lat="42.43019" lon="-8.65007">
        <ele>25.087</ele>
        <time>2018-07-28T18:48:36Z</time>
      </trkpt>
      <trkpt lat="42.43023" lon="-8.65003">
        <ele>25.379</ele>
        <time>2018-07-28T18:48:37Z</time>
      </trkpt>
      <trkpt lat="42.43027" lon="-8.64998">
        <ele>25.644</ele>
        <time>2018-07-28T18:48:38Z</time>
      </trkpt>
      <trkpt lat="42.43031" lon="-8.64993">
        <ele>25.949</ele>
        <time>2018-07-28T18:48:39Z</time>
      </trkpt>
      <trkpt lat="42.43035" lon="-8.64989">
        <ele>26.317</ele>
        <time>2018-07-28T18:48:40Z</time>
      </trkpt>
      <trkpt lat="42.43039" lon="-8.64985">
        <ele>26.453</ele>
        <time>2018-07-28T18:48:41Z</time>
      </trkpt>
      <trkpt lat="42.43043" lon="-8.64981">
        <ele>26.579</ele>
        <time>2018-07-28T18:48:42Z</time>
      </trkpt>
      <trkpt lat="42.43049" lon="-8.64977">
        <ele>26.705</ele>
        <time>2018-07-28T18:48:44Z</time>
      </trkpt>
      <trkpt lat="42.43056" lon="-8.64971">
        <ele>26.925</ele>
        <time>2018-07-28T18:48:46Z</time>
      </trkpt>
      <trkpt lat="42.43064" lon="-8.64965">
        <ele>27.208</ele>
        <time>2018-07-28T18:48:48Z</time>
      </trkpt>
      <trkpt lat="42.43069" lon="-8.6496">
        <ele>27.449</ele>
        <time>2018-07-28T18:48:49Z</time>
      </trkpt>
      <trkpt lat="42.43074" lon="-8.64955">
        <ele>27.724</ele>
        <time>2018-07-28T18:48:50Z</time>
      </trkpt>
      <trkpt lat="42.4308" lon="-8.64949">
        <ele>28.057</ele>
        <time>2018-07-28T18:48:51Z</time>
      </trkpt>
      <trkpt lat="42.43086" lon="-8.64943">
        <ele>28.269</ele>
        <time>2018-07-28T18:48:52Z</time>
      </trkpt>
      <trkpt lat="42.43091" lon="-8.64939">
        <ele>28.424</ele>
        <time>2018-07-28T18:48:53Z</time>
      </trkpt>
      <trkpt lat="42.43096" lon="-8.64935">
        <ele>28.519</ele>
        <time>2018-07-28T18:48:54Z</time>
      </trkpt>
      <trkpt lat="42.43103" lon="-8.64927">
        <ele>28.657</ele>
        <time>2018-07-28T18:48:56Z</time>
      </trkpt>
      <trkpt lat="42.43105" lon="-8.64915">
        <ele>29.033</ele>
        <time>2018-07-28T18:48:58Z</time>
      </trkpt>
      <trkpt lat="42.43109" lon="-8.64911">
        <ele>29.198</ele>
        <time>2018-07-28T18:48:59Z</time>
      </trkpt>
      <trkpt lat="42.43113" lon="-8.64905">
        <ele>29.215</ele>
        <time>2018-07-28T18:49:00Z</time>
      </trkpt>
      <trkpt lat="42.43119" lon="-8.64898">
        <ele>29.326</ele>
        <time>2018-07-28T18:49:02Z</time>
      </trkpt>
      <trkpt lat="42.43121" lon="-8.64892">
        <ele>29.308</ele>
        <time>2018-07-28T18:49:03Z</time>
      </trkpt>
      <trkpt lat="42.43123" lon="-8.64886">
        <ele>29.251</ele>
        <time>2018-07-28T18:49:05Z</time>
      </trkpt>
      <trkpt lat="42.43125" lon="-8.64879">
        <ele>29.086</ele>
        <time>2018-07-28T18:49:08Z</time>
      </trkpt>
      <trkpt lat="42.43125" lon="-8.64869">
        <ele>28.989</ele>
        <time>2018-07-28T18:49:11Z</time>
      </trkpt>
      <trkpt lat="42.43127" lon="-8.64863">
        <ele>28.961</ele>
        <time>2018-07-28T18:49:13Z</time>
      </trkpt>
      <trkpt lat="42.4313" lon="-8.64855">
        <ele>28.986</ele>
        <time>2018-07-28T18:49:15Z</time>
      </trkpt>
      <trkpt lat="42.43133" lon="-8.64847">
        <ele>28.851</ele>
        <time>2018-07-28T18:49:17Z</time>
      </trkpt>
      <trkpt lat="42.43136" lon="-8.6484">
        <ele>28.869</ele>
        <time>2018-07-28T18:49:19Z</time>
      </trkpt>
      <trkpt lat="42.43138" lon="-8.64831">
        <ele>28.825</ele>
        <time>2018-07-28T18:49:21Z</time>
      </trkpt>
      <trkpt lat="42.43141" lon="-8.64827">
        <ele>28.769</ele>
        <time>2018-07-28T18:49:23Z</time>
      </trkpt>
      <trkpt lat="42.43145" lon="-8.64819">
        <ele>28.604</ele>
        <time>2018-07-28T18:49:26Z</time>
      </trkpt>
      <trkpt lat="42.43148" lon="-8.64813">
        <ele>28.624</ele>
        <time>2018-07-28T18:49:28Z</time>
      </trkpt>
      <trkpt lat="42.43152" lon="-8.64808">
        <ele>28.608</ele>
        <time>2018-07-28T18:49:30Z</time>
      </trkpt>
      <trkpt lat="42.43158" lon="-8.64803">
        <ele>28.728</ele>
        <time>2018-07-28T18:49:32Z</time>
      </trkpt>
      <trkpt lat="42.43159" lon="-8.64797">
        <ele>28.663</ele>
        <time>2018-07-28T18:49:41Z</time>
      </trkpt>
      <trkpt lat="42.43162" lon="-8.64793">
        <ele>28.256</ele>
        <time>2018-07-28T18:50:01Z</time>
      </trkpt>
      <trkpt lat="42.43162" lon="-8.64786">
        <ele>28.348</ele>
        <time>2018-07-28T18:50:11Z</time>
      </trkpt>
      <trkpt lat="42.43167" lon="-8.64782">
        <ele>28.383</ele>
        <time>2018-07-28T18:50:21Z</time>
      </trkpt>
      <trkpt lat="42.4317" lon="-8.64777">
        <ele>28.248</ele>
        <time>2018-07-28T18:50:23Z</time>
      </trkpt>
      <trkpt lat="42.43176" lon="-8.64774">
        <ele>28.136</ele>
        <time>2018-07-28T18:50:32Z</time>
      </trkpt>
      <trkpt lat="42.4318" lon="-8.64775">
        <ele>28.172</ele>
        <time>2018-07-28T18:50:49Z</time>
      </trkpt>
      <trkpt lat="42.43181" lon="-8.64781">
        <ele>28.213</ele>
        <time>2018-07-28T18:51:21Z</time>
      </trkpt>
      <trkpt lat="42.4318" lon="-8.64789">
        <ele>28.343</ele>
        <time>2018-07-28T18:51:29Z</time>
      </trkpt>
      <trkpt lat="42.43177" lon="-8.64794">
        <ele>28.507</ele>
        <time>2018-07-28T18:51:31Z</time>
      </trkpt>
      <trkpt lat="42.43172" lon="-8.64799">
        <ele>28.608</ele>
        <time>2018-07-28T18:51:33Z</time>
      </trkpt>
      <trkpt lat="42.43168" lon="-8.64805">
        <ele>28.623</ele>
        <time>2018-07-28T18:51:35Z</time>
      </trkpt>
      <trkpt lat="42.43163" lon="-8.64809">
        <ele>28.598</ele>
        <time>2018-07-28T18:51:38Z</time>
      </trkpt>
      <trkpt lat="42.43158" lon="-8.64814">
        <ele>28.571</ele>
        <time>2018-07-28T18:51:40Z</time>
      </trkpt>
      <trkpt lat="42.43153" lon="-8.64823">
        <ele>28.783</ele>
        <time>2018-07-28T18:51:42Z</time>
      </trkpt>
      <trkpt lat="42.43151" lon="-8.64829">
        <ele>28.928</ele>
        <time>2018-07-28T18:51:43Z</time>
      </trkpt>
      <trkpt lat="42.43149" lon="-8.64836">
        <ele>29.043</ele>
        <time>2018-07-28T18:51:44Z</time>
      </trkpt>
      <trkpt lat="42.43144" lon="-8.64841">
        <ele>29.111</ele>
        <time>2018-07-28T18:51:46Z</time>
      </trkpt>
      <trkpt lat="42.4314" lon="-8.64845">
        <ele>28.897</ele>
        <time>2018-07-28T18:51:50Z</time>
      </trkpt>
      <trkpt lat="42.43136" lon="-8.64842">
        <ele>28.788</ele>
        <time>2018-07-28T18:51:58Z</time>
      </trkpt>
      <trkpt lat="42.43132" lon="-8.64839">
        <ele>28.324</ele>
        <time>2018-07-28T18:53:52Z</time>
      </trkpt>
      <trkpt lat="42.43128" lon="-8.64843">
        <ele>28.826</ele>
        <time>2018-07-28T18:54:02Z</time>
      </trkpt>
      <trkpt lat="42.43124" lon="-8.64844">
        <ele>28.308</ele>
        <time>2018-07-28T18:57:02Z</time>
      </trkpt>
      <trkpt lat="42.43122" lon="-8.64838">
        <ele>28.49</ele>
        <time>2018-07-28T18:57:28Z</time>
      </trkpt>
      <trkpt lat="42.43128" lon="-8.64838">
        <ele>30.155</ele>
        <time>2018-07-28T18:57:40Z</time>
      </trkpt>
      <trkpt lat="42.43131" lon="-8.64842">
        <ele>29.328</ele>
        <time>2018-07-28T18:58:26Z</time>
      </trkpt>
      <trkpt lat="42.43126" lon="-8.64842">
        <ele>29.23</ele>
        <time>2018-07-28T18:59:39Z</time>
      </trkpt>
      <trkpt lat="42.43123" lon="-8.64838">
        <ele>29.655</ele>
        <time>2018-07-28T19:00:52Z</time>
      </trkpt>
      <trkpt lat="42.43123" lon="-8.6483">
        <ele>29.13</ele>
        <time>2018-07-28T19:01:02Z</time>
      </trkpt>
      <trkpt lat="42.43125" lon="-8.64824">
        <ele>29.498</ele>
        <time>2018-07-28T19:01:08Z</time>
      </trkpt>
      <trkpt lat="42.43128" lon="-8.64819">
        <ele>29.314</ele>
        <time>2018-07-28T19:01:16Z</time>
      </trkpt>
      <trkpt lat="42.43131" lon="-8.64812">
        <ele>29.333</ele>
        <time>2018-07-28T19:01:24Z</time>
      </trkpt>
      <trkpt lat="42.43134" lon="-8.64806">
        <ele>29.123</ele>
        <time>2018-07-28T19:01:28Z</time>
      </trkpt>
      <trkpt lat="42.43138" lon="-8.64801">
        <ele>29.215</ele>
        <time>2018-07-28T19:01:31Z</time>
      </trkpt>
      <trkpt lat="42.43142" lon="-8.64797">
        <ele>29.208</ele>
        <time>2018-07-28T19:01:35Z</time>
      </trkpt>
      <trkpt lat="42.43146" lon="-8.64795">
        <ele>29.245</ele>
        <time>2018-07-28T19:01:39Z</time>
      </trkpt>
      <trkpt lat="42.43152" lon="-8.64792">
        <ele>29.11</ele>
        <time>2018-07-28T19:01:43Z</time>
      </trkpt>
      <trkpt lat="42.43156" lon="-8.64788">
        <ele>29.133</ele>
        <time>2018-07-28T19:01:46Z</time>
      </trkpt>
      <trkpt lat="42.4316" lon="-8.64784">
        <ele>29.065</ele>
        <time>2018-07-28T19:01:49Z</time>
      </trkpt>
      <trkpt lat="42.43165" lon="-8.64781">
        <ele>29.02</ele>
        <time>2018-07-28T19:01:54Z</time>
      </trkpt>
      <trkpt lat="42.4317" lon="-8.6478">
        <ele>29.055</ele>
        <time>2018-07-28T19:01:59Z</time>
      </trkpt>
      <trkpt lat="42.43175" lon="-8.64776">
        <ele>29.033</ele>
        <time>2018-07-28T19:02:04Z</time>
      </trkpt>
      <trkpt lat="42.4318" lon="-8.64772">
        <ele>29.179</ele>
        <time>2018-07-28T19:02:09Z</time>
      </trkpt>
      <trkpt lat="42.43183" lon="-8.64767">
        <ele>28.991</ele>
        <time>2018-07-28T19:02:14Z</time>
      </trkpt>
      <trkpt lat="42.43187" lon="-8.64762">
        <ele>28.881</ele>
        <time>2018-07-28T19:02:19Z</time>
      </trkpt>
      <trkpt lat="42.43189" lon="-8.64755">
        <ele>28.619</ele>
        <time>2018-07-28T19:02:25Z</time>
      </trkpt>
      <trkpt lat="42.43192" lon="-8.6475">
        <ele>28.608</ele>
        <time>2018-07-28T19:02:29Z</time>
      </trkpt>
      <trkpt lat="42.43196" lon="-8.64746">
        <ele>28.691</ele>
        <time>2018-07-28T19:02:33Z</time>
      </trkpt>
      <trkpt lat="42.432" lon="-8.6474">
        <ele>28.696</ele>
        <time>2018-07-28T19:02:38Z</time>
      </trkpt>
      <trkpt lat="42.43202" lon="-8.64734">
        <ele>28.639</ele>
        <time>2018-07-28T19:02:43Z</time>
      </trkpt>
      <trkpt lat="42.43206" lon="-8.64731">
        <ele>28.421</ele>
        <time>2018-07-28T19:02:47Z</time>
      </trkpt>
      <trkpt lat="42.43208" lon="-8.64725">
        <ele>28.226</ele>
        <time>2018-07-28T19:02:52Z</time>
      </trkpt>
      <trkpt lat="42.43211" lon="-8.64721">
        <ele>28.121</ele>
        <time>2018-07-28T19:02:57Z</time>
      </trkpt>
      <trkpt lat="42.43214" lon="-8.64717">
        <ele>28.049</ele>
        <time>2018-07-28T19:03:02Z</time>
      </trkpt>
      <trkpt lat="42.4322" lon="-8.64716">
        <ele>28.075</ele>
        <time>2018-07-28T19:03:13Z</time>
      </trkpt>
      <trkpt lat="42.43222" lon="-8.64722">
        <ele>28.218</ele>
        <time>2018-07-28T19:03:19Z</time>
      </trkpt>
      <trkpt lat="42.43225" lon="-8.64727">
        <ele>28.198</ele>
        <time>2018-07-28T19:03:23Z</time>
      </trkpt>
      <trkpt lat="42.4323" lon="-8.64732">
        <ele>28.217</ele>
        <time>2018-07-28T19:03:26Z</time>
      </trkpt>
      <trkpt lat="42.43234" lon="-8.64734">
        <ele>28.108</ele>
        <time>2018-07-28T19:03:32Z</time>
      </trkpt>
      <trkpt lat="42.43239" lon="-8.64736">
        <ele>28.423</ele>
        <time>2018-07-28T19:03:37Z</time>
      </trkpt>
      <trkpt lat="42.43243" lon="-8.6474">
        <ele>28.728</ele>
        <time>2018-07-28T19:03:41Z</time>
      </trkpt>
      <trkpt lat="42.43248" lon="-8.64744">
        <ele>28.841</ele>
        <time>2018-07-28T19:03:46Z</time>
      </trkpt>
      <trkpt lat="42.43253" lon="-8.64746">
        <ele>28.883</ele>
        <time>2018-07-28T19:03:52Z</time>
      </trkpt>
      <trkpt lat="42.43258" lon="-8.64749">
        <ele>28.818</ele>
        <time>2018-07-28T19:03:57Z</time>
      </trkpt>
      <trkpt lat="42.43262" lon="-8.64748">
        <ele>28.823</ele>
        <time>2018-07-28T19:04:01Z</time>
      </trkpt>
      <trkpt lat="42.43268" lon="-8.64748">
        <ele>28.761</ele>
        <time>2018-07-28T19:04:06Z</time>
      </trkpt>
      <trkpt lat="42.43274" lon="-8.64749">
        <ele>28.467</ele>
        <time>2018-07-28T19:04:10Z</time>
      </trkpt>
      <trkpt lat="42.43279" lon="-8.64751">
        <ele>28.593</ele>
        <time>2018-07-28T19:04:15Z</time>
      </trkpt>
      <trkpt lat="42.43284" lon="-8.6475">
        <ele>28.765</ele>
        <time>2018-07-28T19:04:19Z</time>
      </trkpt>
      <trkpt lat="42.43289" lon="-8.6475">
        <ele>28.921</ele>
        <time>2018-07-28T19:04:24Z</time>
      </trkpt>
      <trkpt lat="42.43294" lon="-8.64751">
        <ele>29.008</ele>
        <time>2018-07-28T19:04:30Z</time>
      </trkpt>
      <trkpt lat="42.43298" lon="-8.64754">
        <ele>29.211</ele>
        <time>2018-07-28T19:04:35Z</time>
      </trkpt>
      <trkpt lat="42.43302" lon="-8.64758">
        <ele>29.566</ele>
        <time>2018-07-28T19:04:41Z</time>
      </trkpt>
      <trkpt lat="42.43307" lon="-8.64762">
        <ele>29.439</ele>
        <time>2018-07-28T19:04:47Z</time>
      </trkpt>
      <trkpt lat="42.43311" lon="-8.6476">
        <ele>29.641</ele>
        <time>2018-07-28T19:04:50Z</time>
      </trkpt>
      <trkpt lat="42.43317" lon="-8.64759">
        <ele>28.896</ele>
        <time>2018-07-28T19:04:55Z</time>
      </trkpt>
      <trkpt lat="42.43321" lon="-8.64761">
        <ele>28.771</ele>
        <time>2018-07-28T19:04:58Z</time>
      </trkpt>
      <trkpt lat="42.43326" lon="-8.6476">
        <ele>29.449</ele>
        <time>2018-07-28T19:05:04Z</time>
      </trkpt>
      <trkpt lat="42.43331" lon="-8.64759">
        <ele>29.195</ele>
        <time>2018-07-28T19:05:08Z</time>
      </trkpt>
      <trkpt lat="42.43335" lon="-8.64761">
        <ele>28.949</ele>
        <time>2018-07-28T19:05:13Z</time>
      </trkpt>
      <trkpt lat="42.4334" lon="-8.64764">
        <ele>29.202</ele>
        <time>2018-07-28T19:05:17Z</time>
      </trkpt>
      <trkpt lat="42.43344" lon="-8.64767">
        <ele>29.122</ele>
        <time>2018-07-28T19:05:22Z</time>
      </trkpt>
      <trkpt lat="42.43349" lon="-8.64767">
        <ele>28.808</ele>
        <time>2018-07-28T19:05:27Z</time>
      </trkpt>
      <trkpt lat="42.43354" lon="-8.64768">
        <ele>28.986</ele>
        <time>2018-07-28T19:05:33Z</time>
      </trkpt>
      <trkpt lat="42.43359" lon="-8.64771">
        <ele>28.761</ele>
        <time>2018-07-28T19:05:37Z</time>
      </trkpt>
      <trkpt lat="42.43364" lon="-8.6477">
        <ele>28.494</ele>
        <time>2018-07-28T19:05:45Z</time>
      </trkpt>
      <trkpt lat="42.43369" lon="-8.6477">
        <ele>28.936</ele>
        <time>2018-07-28T19:05:56Z</time>
      </trkpt>
      <trkpt lat="42.43373" lon="-8.64772">
        <ele>29.181</ele>
        <time>2018-07-28T19:06:15Z</time>
      </trkpt>
      <trkpt lat="42.43379" lon="-8.64769">
        <ele>28.966</ele>
        <time>2018-07-28T19:06:21Z</time>
      </trkpt>
      <trkpt lat="42.43382" lon="-8.64762">
        <ele>29.024</ele>
        <time>2018-07-28T19:06:26Z</time>
      </trkpt>
      <trkpt lat="42.43387" lon="-8.64761">
        <ele>28.94</ele>
        <time>2018-07-28T19:06:55Z</time>
      </trkpt>
      <trkpt lat="42.43387" lon="-8.64753">
        <ele>29.274</ele>
        <time>2018-07-28T19:07:11Z</time>
      </trkpt>
      <trkpt lat="42.43394" lon="-8.64757">
        <ele>28.956</ele>
        <time>2018-07-28T19:11:03Z</time>
      </trkpt>
      <trkpt lat="42.4339" lon="-8.64754">
        <ele>29.221</ele>
        <time>2018-07-28T19:11:08Z</time>
      </trkpt>
      <trkpt lat="42.43385" lon="-8.64753">
        <ele>29.208</ele>
        <time>2018-07-28T19:11:10Z</time>
      </trkpt>
      <trkpt lat="42.43386" lon="-8.64762">
        <ele>29.059</ele>
        <time>2018-07-28T19:11:14Z</time>
      </trkpt>
      <trkpt lat="42.43388" lon="-8.6477">
        <ele>29.234</ele>
        <time>2018-07-28T19:11:17Z</time>
      </trkpt>
      <trkpt lat="42.43391" lon="-8.64764">
        <ele>29.187</ele>
        <time>2018-07-28T19:11:25Z</time>
      </trkpt>
      <trkpt lat="42.43391" lon="-8.6477">
        <ele>29.269</ele>
        <time>2018-07-28T19:11:33Z</time>
      </trkpt>
      <trkpt lat="42.43392" lon="-8.64777">
        <ele>29.194</ele>
        <time>2018-07-28T19:11:41Z</time>
      </trkpt>
      <trkpt lat="42.43397" lon="-8.64774">
        <ele>28.989</ele>
        <time>2018-07-28T19:11:57Z</time>
      </trkpt>
      <trkpt lat="42.43391" lon="-8.64771">
        <ele>29.547</ele>
        <time>2018-07-28T19:12:39Z</time>
      </trkpt>
      <trkpt lat="42.4339" lon="-8.64778">
        <ele>27.993</ele>
        <time>2018-07-28T19:13:05Z</time>
      </trkpt>
      <trkpt lat="42.43387" lon="-8.64783">
        <ele>27.533</ele>
        <time>2018-07-28T19:13:10Z</time>
      </trkpt>
      <trkpt lat="42.43383" lon="-8.64779">
        <ele>29.423</ele>
        <time>2018-07-28T19:13:59Z</time>
      </trkpt>
      <trkpt lat="42.4338" lon="-8.64774">
        <ele>29.415</ele>
        <time>2018-07-28T19:14:03Z</time>
      </trkpt>
      <trkpt lat="42.43374" lon="-8.64757">
        <ele>38.208</ele>
        <time>2018-07-28T19:16:30Z</time>
      </trkpt>
      <trkpt lat="42.43373" lon="-8.64785">
        <ele>41.765</ele>
        <time>2018-07-28T19:17:08Z</time>
      </trkpt>
      <trkpt lat="42.43369" lon="-8.64769">
        <ele>41.99</ele>
        <time>2018-07-28T19:17:22Z</time>
      </trkpt>
      <trkpt lat="42.43368" lon="-8.64762">
        <ele>42.113</ele>
        <time>2018-07-28T19:17:23Z</time>
      </trkpt>
      <trkpt lat="42.43366" lon="-8.64756">
        <ele>45.385</ele>
        <time>2018-07-28T19:17:56Z</time>
      </trkpt>
      <trkpt lat="42.4337" lon="-8.6476">
        <ele>46.64</ele>
        <time>2018-07-28T19:18:01Z</time>
      </trkpt>
      <trkpt lat="42.43373" lon="-8.64765">
        <ele>47.315</ele>
        <time>2018-07-28T19:18:04Z</time>
      </trkpt>
      <trkpt lat="42.43377" lon="-8.64769">
        <ele>49.063</ele>
        <time>2018-07-28T19:18:13Z</time>
      </trkpt>
      <trkpt lat="42.43382" lon="-8.64769">
        <ele>51.369</ele>
        <time>2018-07-28T19:18:26Z</time>
      </trkpt>
      <trkpt lat="42.43384" lon="-8.64775">
        <ele>50.396</ele>
        <time>2018-07-28T19:18:31Z</time>
      </trkpt>
      <trkpt lat="42.4338" lon="-8.64778">
        <ele>50.731</ele>
        <time>2018-07-28T19:20:14Z</time>
      </trkpt>
      <trkpt lat="42.43384" lon="-8.64783">
        <ele>50.624</ele>
        <time>2018-07-28T19:20:38Z</time>
      </trkpt>
      <trkpt lat="42.43389" lon="-8.64785">
        <ele>50.708</ele>
        <time>2018-07-28T19:20:47Z</time>
      </trkpt>
      <trkpt lat="42.43385" lon="-8.64782">
        <ele>50.791</ele>
        <time>2018-07-28T19:21:13Z</time>
      </trkpt>
      <trkpt lat="42.43381" lon="-8.6478">
        <ele>50.476</ele>
        <time>2018-07-28T19:22:42Z</time>
      </trkpt>
      <trkpt lat="42.43374" lon="-8.6478">
        <ele>48.859</ele>
        <time>2018-07-28T19:22:54Z</time>
      </trkpt>
      <trkpt lat="42.43363" lon="-8.6478">
        <ele>45.891</ele>
        <time>2018-07-28T19:23:10Z</time>
      </trkpt>
      <trkpt lat="42.43363" lon="-8.64769">
        <ele>43.396</ele>
        <time>2018-07-28T19:23:19Z</time>
      </trkpt>
      <trkpt lat="42.43366" lon="-8.64775">
        <ele>43.081</ele>
        <time>2018-07-28T19:23:21Z</time>
      </trkpt>
      <trkpt lat="42.43368" lon="-8.64783">
        <ele>40.739</ele>
        <time>2018-07-28T19:23:28Z</time>
      </trkpt>
      <trkpt lat="42.43353" lon="-8.64739">
        <ele>29.635</ele>
        <time>2018-07-28T19:24:34Z</time>
      </trkpt>
      <trkpt lat="42.43355" lon="-8.64746">
        <ele>29.754</ele>
        <time>2018-07-28T19:24:39Z</time>
      </trkpt>
      <trkpt lat="42.43359" lon="-8.64738">
        <ele>29.856</ele>
        <time>2018-07-28T19:24:52Z</time>
      </trkpt>
      <trkpt lat="42.43367" lon="-8.64749">
        <ele>29.311</ele>
        <time>2018-07-28T19:25:01Z</time>
      </trkpt>
      <trkpt lat="42.43367" lon="-8.64757">
        <ele>29.208</ele>
        <time>2018-07-28T19:25:04Z</time>
      </trkpt>
      <trkpt lat="42.43368" lon="-8.64763">
        <ele>29.417</ele>
        <time>2018-07-28T19:25:09Z</time>
      </trkpt>
      <trkpt lat="42.43369" lon="-8.64769">
        <ele>29.452</ele>
        <time>2018-07-28T19:25:13Z</time>
      </trkpt>
      <trkpt lat="42.43364" lon="-8.64768">
        <ele>28.755</ele>
        <time>2018-07-28T19:25:22Z</time>
      </trkpt>
      <trkpt lat="42.43363" lon="-8.6476">
        <ele>28.377</ele>
        <time>2018-07-28T19:25:27Z</time>
      </trkpt>
      <trkpt lat="42.43359" lon="-8.64755">
        <ele>29.062</ele>
        <time>2018-07-28T19:25:31Z</time>
      </trkpt>
      <trkpt lat="42.43357" lon="-8.64749">
        <ele>29.487</ele>
        <time>2018-07-28T19:25:36Z</time>
      </trkpt>
      <trkpt lat="42.43356" lon="-8.64742">
        <ele>29.815</ele>
        <time>2018-07-28T19:25:41Z</time>
      </trkpt>
      <trkpt lat="42.43358" lon="-8.64736">
        <ele>30.081</ele>
        <time>2018-07-28T19:25:48Z</time>
      </trkpt>
      <trkpt lat="42.4336" lon="-8.6473">
        <ele>30.462</ele>
        <time>2018-07-28T19:25:55Z</time>
      </trkpt>
      <trkpt lat="42.43363" lon="-8.64723">
        <ele>30.283</ele>
        <time>2018-07-28T19:26:00Z</time>
      </trkpt>
      <trkpt lat="42.43368" lon="-8.64722">
        <ele>30.111</ele>
        <time>2018-07-28T19:26:07Z</time>
      </trkpt>
      <trkpt lat="42.4337" lon="-8.64716">
        <ele>30.008</ele>
        <time>2018-07-28T19:26:13Z</time>
      </trkpt>
      <trkpt lat="42.43373" lon="-8.6471">
        <ele>29.818</ele>
        <time>2018-07-28T19:26:16Z</time>
      </trkpt>
      <trkpt lat="42.43376" lon="-8.64706">
        <ele>29.883</ele>
        <time>2018-07-28T19:26:20Z</time>
      </trkpt>
      <trkpt lat="42.43377" lon="-8.64699">
        <ele>29.836</ele>
        <time>2018-07-28T19:26:24Z</time>
      </trkpt>
      <trkpt lat="42.43375" lon="-8.64693">
        <ele>29.638</ele>
        <time>2018-07-28T19:26:30Z</time>
      </trkpt>
      <trkpt lat="42.43373" lon="-8.64686">
        <ele>29.293</ele>
        <time>2018-07-28T19:26:37Z</time>
      </trkpt>
      <trkpt lat="42.43372" lon="-8.64681">
        <ele>28.728</ele>
        <time>2018-07-28T19:26:42Z</time>
      </trkpt>
      <trkpt lat="42.43373" lon="-8.64674">
        <ele>28.136</ele>
        <time>2018-07-28T19:26:47Z</time>
      </trkpt>
      <trkpt lat="42.43372" lon="-8.64668">
        <ele>27.512</ele>
        <time>2018-07-28T19:26:52Z</time>
      </trkpt>
      <trkpt lat="42.4337" lon="-8.64662">
        <ele>27.181</ele>
        <time>2018-07-28T19:26:57Z</time>
      </trkpt>
      <trkpt lat="42.43369" lon="-8.64656">
        <ele>26.561</ele>
        <time>2018-07-28T19:27:02Z</time>
      </trkpt>
      <trkpt lat="42.43366" lon="-8.6465">
        <ele>25.717</ele>
        <time>2018-07-28T19:27:16Z</time>
      </trkpt>
      <trkpt lat="42.43364" lon="-8.64643">
        <ele>25.108</ele>
        <time>2018-07-28T19:27:21Z</time>
      </trkpt>
      <trkpt lat="42.43362" lon="-8.64637">
        <ele>24.33</ele>
        <time>2018-07-28T19:27:25Z</time>
      </trkpt>
      <trkpt lat="42.4336" lon="-8.6463">
        <ele>24.065</ele>
        <time>2018-07-28T19:27:30Z</time>
      </trkpt>
      <trkpt lat="42.43358" lon="-8.64623">
        <ele>23.558</ele>
        <time>2018-07-28T19:27:34Z</time>
      </trkpt>
      <trkpt lat="42.43356" lon="-8.64616">
        <ele>22.74</ele>
        <time>2018-07-28T19:27:39Z</time>
      </trkpt>
      <trkpt lat="42.43354" lon="-8.64609">
        <ele>22.035</ele>
        <time>2018-07-28T19:27:46Z</time>
      </trkpt>
      <trkpt lat="42.43354" lon="-8.64603">
        <ele>21.39</ele>
        <time>2018-07-28T19:27:52Z</time>
      </trkpt>
      <trkpt lat="42.43353" lon="-8.64597">
        <ele>20.788</ele>
        <time>2018-07-28T19:28:10Z</time>
      </trkpt>
      <trkpt lat="42.43357" lon="-8.64594">
        <ele>20.564</ele>
        <time>2018-07-28T19:28:36Z</time>
      </trkpt>
      <trkpt lat="42.43359" lon="-8.646">
        <ele>21.294</ele>
        <time>2018-07-28T19:31:25Z</time>
      </trkpt>
      <trkpt lat="42.43358" lon="-8.64594">
        <ele>21.257</ele>
        <time>2018-07-28T19:39:10Z</time>
      </trkpt>
      <trkpt lat="42.43357" lon="-8.646">
        <ele>21.022</ele>
        <time>2018-07-28T19:40:15Z</time>
      </trkpt>
      <trkpt lat="42.43362" lon="-8.64599">
        <ele>20.508</ele>
        <time>2018-07-28T19:53:06Z</time>
      </trkpt>
      <trkpt lat="42.43366" lon="-8.64604">
        <ele>20.451</ele>
        <time>2018-07-28T19:53:29Z</time>
      </trkpt>
      <trkpt lat="42.43361" lon="-8.64606">
        <ele>20.446</ele>
        <time>2018-07-28T19:54:59Z</time>
      </trkpt>
      <trkpt lat="42.43362" lon="-8.64612">
        <ele>20.739</ele>
        <time>2018-07-28T19:55:21Z</time>
      </trkpt>
      <trkpt lat="42.43359" lon="-8.64607">
        <ele>20.861</ele>
        <time>2018-07-28T19:56:32Z</time>
      </trkpt>
      <trkpt lat="42.43363" lon="-8.64604">
        <ele>20.136</ele>
        <time>2018-07-28T20:02:17Z</time>
      </trkpt>
      <trkpt lat="42.43359" lon="-8.646">
        <ele>20.071</ele>
        <time>2018-07-28T20:23:18Z</time>
      </trkpt>
      <trkpt lat="42.43354" lon="-8.64603">
        <ele>19.779</ele>
        <time>2018-07-28T20:23:24Z</time>
      </trkpt>
      <trkpt lat="42.4335" lon="-8.64605">
        <ele>19.515</ele>
        <time>2018-07-28T20:23:28Z</time>
      </trkpt>
      <trkpt lat="42.43346" lon="-8.64608">
        <ele>20.078</ele>
        <time>2018-07-28T20:23:31Z</time>
      </trkpt>
      <trkpt lat="42.43341" lon="-8.64613">
        <ele>20.133</ele>
        <time>2018-07-28T20:23:35Z</time>
      </trkpt>
      <trkpt lat="42.43337" lon="-8.64614">
        <ele>20.326</ele>
        <time>2018-07-28T20:23:43Z</time>
      </trkpt>
      <trkpt lat="42.43332" lon="-8.64614">
        <ele>20.408</ele>
        <time>2018-07-28T20:23:49Z</time>
      </trkpt>
      <trkpt lat="42.43328" lon="-8.64617">
        <ele>20.469</ele>
        <time>2018-07-28T20:23:52Z</time>
      </trkpt>
      <trkpt lat="42.43322" lon="-8.64619">
        <ele>20.644</ele>
        <time>2018-07-28T20:23:56Z</time>
      </trkpt>
      <trkpt lat="42.43318" lon="-8.64623">
        <ele>20.857</ele>
        <time>2018-07-28T20:24:00Z</time>
      </trkpt>
      <trkpt lat="42.43313" lon="-8.64626">
        <ele>20.919</ele>
        <time>2018-07-28T20:24:04Z</time>
      </trkpt>
      <trkpt lat="42.43307" lon="-8.64627">
        <ele>21.214</ele>
        <time>2018-07-28T20:24:09Z</time>
      </trkpt>
      <trkpt lat="42.43302" lon="-8.64629">
        <ele>21.199</ele>
        <time>2018-07-28T20:24:14Z</time>
      </trkpt>
      <trkpt lat="42.43298" lon="-8.64631">
        <ele>21.177</ele>
        <time>2018-07-28T20:24:19Z</time>
      </trkpt>
      <trkpt lat="42.43293" lon="-8.64635">
        <ele>21.333</ele>
        <time>2018-07-28T20:24:25Z</time>
      </trkpt>
      <trkpt lat="42.43289" lon="-8.64638">
        <ele>21.484</ele>
        <time>2018-07-28T20:24:30Z</time>
      </trkpt>
      <trkpt lat="42.43283" lon="-8.6464">
        <ele>21.507</ele>
        <time>2018-07-28T20:24:36Z</time>
      </trkpt>
      <trkpt lat="42.43277" lon="-8.64644">
        <ele>21.917</ele>
        <time>2018-07-28T20:24:41Z</time>
      </trkpt>
      <trkpt lat="42.43273" lon="-8.64647">
        <ele>22.008</ele>
        <time>2018-07-28T20:24:44Z</time>
      </trkpt>
      <trkpt lat="42.43268" lon="-8.64649">
        <ele>21.93</ele>
        <time>2018-07-28T20:24:47Z</time>
      </trkpt>
      <trkpt lat="42.43263" lon="-8.64649">
        <ele>22.485</ele>
        <time>2018-07-28T20:24:52Z</time>
      </trkpt>
      <trkpt lat="42.43259" lon="-8.64646">
        <ele>22.718</ele>
        <time>2018-07-28T20:24:57Z</time>
      </trkpt>
      <trkpt lat="42.43253" lon="-8.64648">
        <ele>23.08</ele>
        <time>2018-07-28T20:25:01Z</time>
      </trkpt>
      <trkpt lat="42.43249" lon="-8.64655">
        <ele>23.235</ele>
        <time>2018-07-28T20:25:06Z</time>
      </trkpt>
      <trkpt lat="42.43249" lon="-8.64661">
        <ele>23.48</ele>
        <time>2018-07-28T20:25:12Z</time>
      </trkpt>
      <trkpt lat="42.43244" lon="-8.64663">
        <ele>23.948</ele>
        <time>2018-07-28T20:25:21Z</time>
      </trkpt>
      <trkpt lat="42.43242" lon="-8.6467">
        <ele>24.174</ele>
        <time>2018-07-28T20:25:25Z</time>
      </trkpt>
      <trkpt lat="42.43238" lon="-8.64675">
        <ele>24.214</ele>
        <time>2018-07-28T20:25:28Z</time>
      </trkpt>
      <trkpt lat="42.43235" lon="-8.64679">
        <ele>24.354</ele>
        <time>2018-07-28T20:25:34Z</time>
      </trkpt>
      <trkpt lat="42.43234" lon="-8.64686">
        <ele>24.409</ele>
        <time>2018-07-28T20:25:37Z</time>
      </trkpt>
      <trkpt lat="42.43233" lon="-8.64693">
        <ele>24.908</ele>
        <time>2018-07-28T20:25:41Z</time>
      </trkpt>
      <trkpt lat="42.43232" lon="-8.64699">
        <ele>25.143</ele>
        <time>2018-07-28T20:25:45Z</time>
      </trkpt>
      <trkpt lat="42.43234" lon="-8.64706">
        <ele>25.628</ele>
        <time>2018-07-28T20:25:50Z</time>
      </trkpt>
      <trkpt lat="42.43234" lon="-8.64712">
        <ele>25.921</ele>
        <time>2018-07-28T20:25:53Z</time>
      </trkpt>
      <trkpt lat="42.43234" lon="-8.64718">
        <ele>26.163</ele>
        <time>2018-07-28T20:25:57Z</time>
      </trkpt>
      <trkpt lat="42.43229" lon="-8.64719">
        <ele>27.648</ele>
        <time>2018-07-28T20:26:08Z</time>
      </trkpt>
      <trkpt lat="42.43224" lon="-8.64717">
        <ele>27.633</ele>
        <time>2018-07-28T20:26:11Z</time>
      </trkpt>
      <trkpt lat="42.43219" lon="-8.64716">
        <ele>27.621</ele>
        <time>2018-07-28T20:26:13Z</time>
      </trkpt>
      <trkpt lat="42.43214" lon="-8.64712">
        <ele>26.957</ele>
        <time>2018-07-28T20:26:17Z</time>
      </trkpt>
      <trkpt lat="42.43212" lon="-8.64707">
        <ele>27.051</ele>
        <time>2018-07-28T20:26:23Z</time>
      </trkpt>
      <trkpt lat="42.43214" lon="-8.647">
        <ele>27.001</ele>
        <time>2018-07-28T20:26:27Z</time>
      </trkpt>
      <trkpt lat="42.43215" lon="-8.64693">
        <ele>26.711</ele>
        <time>2018-07-28T20:26:30Z</time>
      </trkpt>
      <trkpt lat="42.43216" lon="-8.64686">
        <ele>26.108</ele>
        <time>2018-07-28T20:26:35Z</time>
      </trkpt>
      <trkpt lat="42.43216" lon="-8.6468">
        <ele>26.047</ele>
        <time>2018-07-28T20:26:40Z</time>
      </trkpt>
      <trkpt lat="42.43215" lon="-8.64674">
        <ele>25.872</ele>
        <time>2018-07-28T20:26:43Z</time>
      </trkpt>
      <trkpt lat="42.43212" lon="-8.64668">
        <ele>25.845</ele>
        <time>2018-07-28T20:26:47Z</time>
      </trkpt>
      <trkpt lat="42.4321" lon="-8.64663">
        <ele>25.577</ele>
        <time>2018-07-28T20:26:54Z</time>
      </trkpt>
      <trkpt lat="42.43204" lon="-8.64662">
        <ele>26.182</ele>
        <time>2018-07-28T20:27:00Z</time>
      </trkpt>
      <trkpt lat="42.43198" lon="-8.64659">
        <ele>26.057</ele>
        <time>2018-07-28T20:27:17Z</time>
      </trkpt>
      <trkpt lat="42.43193" lon="-8.64661">
        <ele>25.865</ele>
        <time>2018-07-28T20:27:19Z</time>
      </trkpt>
      <trkpt lat="42.43188" lon="-8.64666">
        <ele>26.471</ele>
        <time>2018-07-28T20:27:22Z</time>
      </trkpt>
      <trkpt lat="42.43184" lon="-8.64672">
        <ele>26.892</ele>
        <time>2018-07-28T20:27:30Z</time>
      </trkpt>
      <trkpt lat="42.43182" lon="-8.64678">
        <ele>26.873</ele>
        <time>2018-07-28T20:27:34Z</time>
      </trkpt>
      <trkpt lat="42.43181" lon="-8.64685">
        <ele>26.62</ele>
        <time>2018-07-28T20:27:38Z</time>
      </trkpt>
      <trkpt lat="42.43181" lon="-8.64692">
        <ele>26.208</ele>
        <time>2018-07-28T20:27:43Z</time>
      </trkpt>
      <trkpt lat="42.4318" lon="-8.64699">
        <ele>26.151</ele>
        <time>2018-07-28T20:27:49Z</time>
      </trkpt>
      <trkpt lat="42.43179" lon="-8.64707">
        <ele>26.276</ele>
        <time>2018-07-28T20:27:54Z</time>
      </trkpt>
      <trkpt lat="42.4318" lon="-8.64713">
        <ele>26.329</ele>
        <time>2018-07-28T20:27:58Z</time>
      </trkpt>
      <trkpt lat="42.43182" lon="-8.64719">
        <ele>26.511</ele>
        <time>2018-07-28T20:28:02Z</time>
      </trkpt>
      <trkpt lat="42.43186" lon="-8.64725">
        <ele>27.356</ele>
        <time>2018-07-28T20:28:05Z</time>
      </trkpt>
      <trkpt lat="42.43188" lon="-8.64731">
        <ele>28.151</ele>
        <time>2018-07-28T20:28:09Z</time>
      </trkpt>
      <trkpt lat="42.4319" lon="-8.64737">
        <ele>26.779</ele>
        <time>2018-07-28T20:28:14Z</time>
      </trkpt>
      <trkpt lat="42.43191" lon="-8.64743">
        <ele>27.155</ele>
        <time>2018-07-28T20:28:18Z</time>
      </trkpt>
      <trkpt lat="42.4319" lon="-8.6475">
        <ele>27.686</ele>
        <time>2018-07-28T20:28:23Z</time>
      </trkpt>
      <trkpt lat="42.43186" lon="-8.64755">
        <ele>27.06</ele>
        <time>2018-07-28T20:28:27Z</time>
      </trkpt>
      <trkpt lat="42.43182" lon="-8.64759">
        <ele>25.926</ele>
        <time>2018-07-28T20:28:31Z</time>
      </trkpt>
      <trkpt lat="42.43179" lon="-8.64766">
        <ele>27.708</ele>
        <time>2018-07-28T20:28:36Z</time>
      </trkpt>
      <trkpt lat="42.43176" lon="-8.64771">
        <ele>27.66</ele>
        <time>2018-07-28T20:28:40Z</time>
      </trkpt>
      <trkpt lat="42.43172" lon="-8.64775">
        <ele>27.755</ele>
        <time>2018-07-28T20:28:44Z</time>
      </trkpt>
      <trkpt lat="42.43168" lon="-8.64779">
        <ele>27.618</ele>
        <time>2018-07-28T20:28:49Z</time>
      </trkpt>
      <trkpt lat="42.43166" lon="-8.64784">
        <ele>27.52</ele>
        <time>2018-07-28T20:28:53Z</time>
      </trkpt>
      <trkpt lat="42.43163" lon="-8.64789">
        <ele>27.625</ele>
        <time>2018-07-28T20:28:58Z</time>
      </trkpt>
      <trkpt lat="42.43158" lon="-8.64793">
        <ele>27.67</ele>
        <time>2018-07-28T20:29:02Z</time>
      </trkpt>
      <trkpt lat="42.43155" lon="-8.64797">
        <ele>27.798</ele>
        <time>2018-07-28T20:29:06Z</time>
      </trkpt>
      <trkpt lat="42.43152" lon="-8.64802">
        <ele>27.974</ele>
        <time>2018-07-28T20:29:11Z</time>
      </trkpt>
      <trkpt lat="42.43148" lon="-8.64807">
        <ele>27.769</ele>
        <time>2018-07-28T20:29:15Z</time>
      </trkpt>
      <trkpt lat="42.43144" lon="-8.64811">
        <ele>28.004</ele>
        <time>2018-07-28T20:29:20Z</time>
      </trkpt>
      <trkpt lat="42.4314" lon="-8.64816">
        <ele>27.824</ele>
        <time>2018-07-28T20:29:25Z</time>
      </trkpt>
      <trkpt lat="42.43138" lon="-8.64821">
        <ele>27.808</ele>
        <time>2018-07-28T20:29:29Z</time>
      </trkpt>
      <trkpt lat="42.43134" lon="-8.64824">
        <ele>27.888</ele>
        <time>2018-07-28T20:29:33Z</time>
      </trkpt>
      <trkpt lat="42.4313" lon="-8.64828">
        <ele>27.973</ele>
        <time>2018-07-28T20:29:37Z</time>
      </trkpt>
      <trkpt lat="42.43126" lon="-8.64832">
        <ele>28.486</ele>
        <time>2018-07-28T20:29:41Z</time>
      </trkpt>
      <trkpt lat="42.43123" lon="-8.64838">
        <ele>28.168</ele>
        <time>2018-07-28T20:29:46Z</time>
      </trkpt>
      <trkpt lat="42.43113" lon="-8.64838">
        <ele>27.823</ele>
        <time>2018-07-28T20:36:24Z</time>
      </trkpt>
      <trkpt lat="42.43115" lon="-8.64833">
        <ele>27.498</ele>
        <time>2018-07-28T20:37:16Z</time>
      </trkpt>
      <trkpt lat="42.43111" lon="-8.64835">
        <ele>27.526</ele>
        <time>2018-07-28T20:37:21Z</time>
      </trkpt>
      <trkpt lat="42.43112" lon="-8.64842">
        <ele>27.622</ele>
        <time>2018-07-28T20:37:25Z</time>
      </trkpt>
      <trkpt lat="42.43108" lon="-8.64853">
        <ele>28.236</ele>
        <time>2018-07-28T20:37:29Z</time>
      </trkpt>
      <trkpt lat="42.43107" lon="-8.64863">
        <ele>28.317</ele>
        <time>2018-07-28T20:37:30Z</time>
      </trkpt>
      <trkpt lat="42.43107" lon="-8.6487">
        <ele>28.418</ele>
        <time>2018-07-28T20:37:31Z</time>
      </trkpt>
      <trkpt lat="42.43106" lon="-8.64876">
        <ele>28.008</ele>
        <time>2018-07-28T20:37:33Z</time>
      </trkpt>
      <trkpt lat="42.43109" lon="-8.64882">
        <ele>27.795</ele>
        <time>2018-07-28T20:37:36Z</time>
      </trkpt>
      <trkpt lat="42.43111" lon="-8.64888">
        <ele>27.74</ele>
        <time>2018-07-28T20:37:39Z</time>
      </trkpt>
      <trkpt lat="42.43113" lon="-8.64894">
        <ele>27.733</ele>
        <time>2018-07-28T20:37:43Z</time>
      </trkpt>
      <trkpt lat="42.43115" lon="-8.649">
        <ele>27.735</ele>
        <time>2018-07-28T20:37:44Z</time>
      </trkpt>
      <trkpt lat="42.43117" lon="-8.64906">
        <ele>27.81</ele>
        <time>2018-07-28T20:37:45Z</time>
      </trkpt>
      <trkpt lat="42.4312" lon="-8.64916">
        <ele>27.995</ele>
        <time>2018-07-28T20:37:47Z</time>
      </trkpt>
      <trkpt lat="42.43122" lon="-8.64922">
        <ele>28.073</ele>
        <time>2018-07-28T20:37:48Z</time>
      </trkpt>
      <trkpt lat="42.43123" lon="-8.64928">
        <ele>28.019</ele>
        <time>2018-07-28T20:37:49Z</time>
      </trkpt>
      <trkpt lat="42.43124" lon="-8.64935">
        <ele>28.093</ele>
        <time>2018-07-28T20:37:50Z</time>
      </trkpt>
      <trkpt lat="42.43125" lon="-8.64942">
        <ele>27.965</ele>
        <time>2018-07-28T20:37:52Z</time>
      </trkpt>
      <trkpt lat="42.43129" lon="-8.64949">
        <ele>27.721</ele>
        <time>2018-07-28T20:37:55Z</time>
      </trkpt>
      <trkpt lat="42.43131" lon="-8.64956">
        <ele>27.608</ele>
        <time>2018-07-28T20:37:58Z</time>
      </trkpt>
      <trkpt lat="42.43134" lon="-8.6496">
        <ele>27.421</ele>
        <time>2018-07-28T20:38:04Z</time>
      </trkpt>
      <trkpt lat="42.43136" lon="-8.64967">
        <ele>27.526</ele>
        <time>2018-07-28T20:38:11Z</time>
      </trkpt>
      <trkpt lat="42.43138" lon="-8.64972">
        <ele>27.599</ele>
        <time>2018-07-28T20:38:13Z</time>
      </trkpt>
      <trkpt lat="42.43139" lon="-8.64981">
        <ele>27.331</ele>
        <time>2018-07-28T20:38:16Z</time>
      </trkpt>
      <trkpt lat="42.43141" lon="-8.64988">
        <ele>27.156</ele>
        <time>2018-07-28T20:38:20Z</time>
      </trkpt>
      <trkpt lat="42.43143" lon="-8.64995">
        <ele>27.091</ele>
        <time>2018-07-28T20:38:22Z</time>
      </trkpt>
      <trkpt lat="42.43145" lon="-8.65004">
        <ele>26.989</ele>
        <time>2018-07-28T20:38:24Z</time>
      </trkpt>
      <trkpt lat="42.43146" lon="-8.65011">
        <ele>26.865</ele>
        <time>2018-07-28T20:38:27Z</time>
      </trkpt>
      <trkpt lat="42.43148" lon="-8.65019">
        <ele>26.736</ele>
        <time>2018-07-28T20:38:30Z</time>
      </trkpt>
      <trkpt lat="42.43149" lon="-8.65027">
        <ele>26.717</ele>
        <time>2018-07-28T20:38:32Z</time>
      </trkpt>
      <trkpt lat="42.43151" lon="-8.65035">
        <ele>26.818</ele>
        <time>2018-07-28T20:38:34Z</time>
      </trkpt>
      <trkpt lat="42.43155" lon="-8.6504">
        <ele>26.908</ele>
        <time>2018-07-28T20:38:35Z</time>
      </trkpt>
      <trkpt lat="42.43157" lon="-8.65045">
        <ele>27.085</ele>
        <time>2018-07-28T20:38:36Z</time>
      </trkpt>
      <trkpt lat="42.4316" lon="-8.65051">
        <ele>27.09</ele>
        <time>2018-07-28T20:38:37Z</time>
      </trkpt>
      <trkpt lat="42.43162" lon="-8.65061">
        <ele>27.063</ele>
        <time>2018-07-28T20:38:39Z</time>
      </trkpt>
      <trkpt lat="42.43165" lon="-8.65072">
        <ele>26.865</ele>
        <time>2018-07-28T20:38:41Z</time>
      </trkpt>
      <trkpt lat="42.43167" lon="-8.65083">
        <ele>26.76</ele>
        <time>2018-07-28T20:38:43Z</time>
      </trkpt>
      <trkpt lat="42.43169" lon="-8.65093">
        <ele>26.685</ele>
        <time>2018-07-28T20:38:45Z</time>
      </trkpt>
      <trkpt lat="42.4317" lon="-8.65103">
        <ele>26.673</ele>
        <time>2018-07-28T20:38:47Z</time>
      </trkpt>
      <trkpt lat="42.43174" lon="-8.65115">
        <ele>26.629</ele>
        <time>2018-07-28T20:38:49Z</time>
      </trkpt>
      <trkpt lat="42.43176" lon="-8.65122">
        <ele>26.671</ele>
        <time>2018-07-28T20:38:50Z</time>
      </trkpt>
      <trkpt lat="42.43178" lon="-8.65129">
        <ele>26.741</ele>
        <time>2018-07-28T20:38:51Z</time>
      </trkpt>
      <trkpt lat="42.43181" lon="-8.65135">
        <ele>26.715</ele>
        <time>2018-07-28T20:38:52Z</time>
      </trkpt>
      <trkpt lat="42.43183" lon="-8.65141">
        <ele>26.708</ele>
        <time>2018-07-28T20:38:53Z</time>
      </trkpt>
      <trkpt lat="42.43186" lon="-8.65151">
        <ele>26.689</ele>
        <time>2018-07-28T20:38:55Z</time>
      </trkpt>
      <trkpt lat="42.43189" lon="-8.65158">
        <ele>26.214</ele>
        <time>2018-07-28T20:38:57Z</time>
      </trkpt>
      <trkpt lat="42.43191" lon="-8.65165">
        <ele>25.957</ele>
        <time>2018-07-28T20:38:59Z</time>
      </trkpt>
      <trkpt lat="42.43194" lon="-8.65171">
        <ele>25.529</ele>
        <time>2018-07-28T20:39:02Z</time>
      </trkpt>
      <trkpt lat="42.43196" lon="-8.65178">
        <ele>25.434</ele>
        <time>2018-07-28T20:39:04Z</time>
      </trkpt>
      <trkpt lat="42.432" lon="-8.65185">
        <ele>25.439</ele>
        <time>2018-07-28T20:39:06Z</time>
      </trkpt>
      <trkpt lat="42.43205" lon="-8.65195">
        <ele>25.777</ele>
        <time>2018-07-28T20:39:08Z</time>
      </trkpt>
      <trkpt lat="42.43209" lon="-8.65202">
        <ele>26.083</ele>
        <time>2018-07-28T20:39:09Z</time>
      </trkpt>
      <trkpt lat="42.43213" lon="-8.65209">
        <ele>26.397</ele>
        <time>2018-07-28T20:39:10Z</time>
      </trkpt>
      <trkpt lat="42.43217" lon="-8.6522">
        <ele>26.723</ele>
        <time>2018-07-28T20:39:11Z</time>
      </trkpt>
      <trkpt lat="42.43224" lon="-8.65229">
        <ele>27.225</ele>
        <time>2018-07-28T20:39:12Z</time>
      </trkpt>
      <trkpt lat="42.43233" lon="-8.65238">
        <ele>27.708</ele>
        <time>2018-07-28T20:39:13Z</time>
      </trkpt>
      <trkpt lat="42.43241" lon="-8.65246">
        <ele>28.041</ele>
        <time>2018-07-28T20:39:14Z</time>
      </trkpt>
      <trkpt lat="42.43248" lon="-8.65252">
        <ele>28.226</ele>
        <time>2018-07-28T20:39:15Z</time>
      </trkpt>
      <trkpt lat="42.43256" lon="-8.65258">
        <ele>28.259</ele>
        <time>2018-07-28T20:39:16Z</time>
      </trkpt>
      <trkpt lat="42.43262" lon="-8.65264">
        <ele>27.991</ele>
        <time>2018-07-28T20:39:17Z</time>
      </trkpt>
      <trkpt lat="42.4327" lon="-8.65267">
        <ele>27.646</ele>
        <time>2018-07-28T20:39:18Z</time>
      </trkpt>
      <trkpt lat="42.43277" lon="-8.65271">
        <ele>27.151</ele>
        <time>2018-07-28T20:39:19Z</time>
      </trkpt>
      <trkpt lat="42.43283" lon="-8.65275">
        <ele>26.589</ele>
        <time>2018-07-28T20:39:20Z</time>
      </trkpt>
      <trkpt lat="42.43289" lon="-8.6528">
        <ele>26.085</ele>
        <time>2018-07-28T20:39:21Z</time>
      </trkpt>
      <trkpt lat="42.43294" lon="-8.65284">
        <ele>25.844</ele>
        <time>2018-07-28T20:39:22Z</time>
      </trkpt>
      <trkpt lat="42.433" lon="-8.65289">
        <ele>25.705</ele>
        <time>2018-07-28T20:39:23Z</time>
      </trkpt>
      <trkpt lat="42.43307" lon="-8.65294">
        <ele>25.715</ele>
        <time>2018-07-28T20:39:24Z</time>
      </trkpt>
      <trkpt lat="42.43314" lon="-8.65299">
        <ele>25.708</ele>
        <time>2018-07-28T20:39:25Z</time>
      </trkpt>
      <trkpt lat="42.43321" lon="-8.65305">
        <ele>25.856</ele>
        <time>2018-07-28T20:39:26Z</time>
      </trkpt>
      <trkpt lat="42.43328" lon="-8.65311">
        <ele>25.931</ele>
        <time>2018-07-28T20:39:27Z</time>
      </trkpt>
      <trkpt lat="42.43335" lon="-8.65318">
        <ele>26.014</ele>
        <time>2018-07-28T20:39:28Z</time>
      </trkpt>
      <trkpt lat="42.43342" lon="-8.65325">
        <ele>26.016</ele>
        <time>2018-07-28T20:39:29Z</time>
      </trkpt>
      <trkpt lat="42.43349" lon="-8.65331">
        <ele>26.051</ele>
        <time>2018-07-28T20:39:30Z</time>
      </trkpt>
      <trkpt lat="42.43357" lon="-8.65338">
        <ele>25.996</ele>
        <time>2018-07-28T20:39:31Z</time>
      </trkpt>
      <trkpt lat="42.43364" lon="-8.65345">
        <ele>25.944</ele>
        <time>2018-07-28T20:39:32Z</time>
      </trkpt>
      <trkpt lat="42.43371" lon="-8.65352">
        <ele>26.02</ele>
        <time>2018-07-28T20:39:33Z</time>
      </trkpt>
      <trkpt lat="42.43377" lon="-8.65358">
        <ele>26.148</ele>
        <time>2018-07-28T20:39:34Z</time>
      </trkpt>
      <trkpt lat="42.43381" lon="-8.65364">
        <ele>26.161</ele>
        <time>2018-07-28T20:39:35Z</time>
      </trkpt>
      <trkpt lat="42.43386" lon="-8.6537">
        <ele>26.117</ele>
        <time>2018-07-28T20:39:36Z</time>
      </trkpt>
      <trkpt lat="42.4339" lon="-8.65376">
        <ele>26.108</ele>
        <time>2018-07-28T20:39:37Z</time>
      </trkpt>
      <trkpt lat="42.43394" lon="-8.65381">
        <ele>25.966</ele>
        <time>2018-07-28T20:39:38Z</time>
      </trkpt>
      <trkpt lat="42.43398" lon="-8.65385">
        <ele>25.751</ele>
        <time>2018-07-28T20:39:39Z</time>
      </trkpt>
      <trkpt lat="42.43402" lon="-8.6539">
        <ele>25.534</ele>
        <time>2018-07-28T20:39:40Z</time>
      </trkpt>
      <trkpt lat="42.43406" lon="-8.65395">
        <ele>25.446</ele>
        <time>2018-07-28T20:39:41Z</time>
      </trkpt>
      <trkpt lat="42.43412" lon="-8.65403">
        <ele>25.091</ele>
        <time>2018-07-28T20:39:43Z</time>
      </trkpt>
      <trkpt lat="42.43417" lon="-8.65409">
        <ele>24.856</ele>
        <time>2018-07-28T20:39:45Z</time>
      </trkpt>
      <trkpt lat="42.43421" lon="-8.65413">
        <ele>24.884</ele>
        <time>2018-07-28T20:39:46Z</time>
      </trkpt>
      <trkpt lat="42.43425" lon="-8.65417">
        <ele>24.99</ele>
        <time>2018-07-28T20:39:47Z</time>
      </trkpt>
      <trkpt lat="42.43431" lon="-8.65422">
        <ele>25.154</ele>
        <time>2018-07-28T20:39:48Z</time>
      </trkpt>
      <trkpt lat="42.43438" lon="-8.65427">
        <ele>25.356</ele>
        <time>2018-07-28T20:39:49Z</time>
      </trkpt>
      <trkpt lat="42.43446" lon="-8.65431">
        <ele>25.511</ele>
        <time>2018-07-28T20:39:50Z</time>
      </trkpt>
      <trkpt lat="42.43455" lon="-8.65434">
        <ele>25.808</ele>
        <time>2018-07-28T20:39:51Z</time>
      </trkpt>
      <trkpt lat="42.43465" lon="-8.65434">
        <ele>25.937</ele>
        <time>2018-07-28T20:39:52Z</time>
      </trkpt>
      <trkpt lat="42.43475" lon="-8.65433">
        <ele>25.932</ele>
        <time>2018-07-28T20:39:53Z</time>
      </trkpt>
      <trkpt lat="42.43485" lon="-8.65429">
        <ele>25.845</ele>
        <time>2018-07-28T20:39:54Z</time>
      </trkpt>
      <trkpt lat="42.43495" lon="-8.65424">
        <ele>25.667</ele>
        <time>2018-07-28T20:39:55Z</time>
      </trkpt>
      <trkpt lat="42.43504" lon="-8.65418">
        <ele>25.392</ele>
        <time>2018-07-28T20:39:56Z</time>
      </trkpt>
      <trkpt lat="42.43512" lon="-8.65412">
        <ele>24.957</ele>
        <time>2018-07-28T20:39:57Z</time>
      </trkpt>
      <trkpt lat="42.4352" lon="-8.65405">
        <ele>24.555</ele>
        <time>2018-07-28T20:39:58Z</time>
      </trkpt>
      <trkpt lat="42.43527" lon="-8.65399">
        <ele>23.991</ele>
        <time>2018-07-28T20:39:59Z</time>
      </trkpt>
      <trkpt lat="42.43533" lon="-8.65394">
        <ele>23.296</ele>
        <time>2018-07-28T20:40:00Z</time>
      </trkpt>
      <trkpt lat="42.43539" lon="-8.65389">
        <ele>22.531</ele>
        <time>2018-07-28T20:40:01Z</time>
      </trkpt>
      <trkpt lat="42.43545" lon="-8.65384">
        <ele>21.824</ele>
        <time>2018-07-28T20:40:02Z</time>
      </trkpt>
      <trkpt lat="42.43551" lon="-8.65379">
        <ele>20.908</ele>
        <time>2018-07-28T20:40:03Z</time>
      </trkpt>
      <trkpt lat="42.43558" lon="-8.65375">
        <ele>20.651</ele>
        <time>2018-07-28T20:40:04Z</time>
      </trkpt>
      <trkpt lat="42.43565" lon="-8.6537">
        <ele>20.446</ele>
        <time>2018-07-28T20:40:05Z</time>
      </trkpt>
      <trkpt lat="42.43571" lon="-8.65365">
        <ele>20.269</ele>
        <time>2018-07-28T20:40:06Z</time>
      </trkpt>
      <trkpt lat="42.43578" lon="-8.6536">
        <ele>20.141</ele>
        <time>2018-07-28T20:40:07Z</time>
      </trkpt>
      <trkpt lat="42.43585" lon="-8.65355">
        <ele>19.986</ele>
        <time>2018-07-28T20:40:08Z</time>
      </trkpt>
      <trkpt lat="42.43592" lon="-8.6535">
        <ele>19.721</ele>
        <time>2018-07-28T20:40:09Z</time>
      </trkpt>
      <trkpt lat="42.43602" lon="-8.65349">
        <ele>19.519</ele>
        <time>2018-07-28T20:40:10Z</time>
      </trkpt>
      <trkpt lat="42.43611" lon="-8.65346">
        <ele>19.375</ele>
        <time>2018-07-28T20:40:11Z</time>
      </trkpt>
      <trkpt lat="42.43618" lon="-8.6534">
        <ele>19.167</ele>
        <time>2018-07-28T20:40:12Z</time>
      </trkpt>
      <trkpt lat="42.43627" lon="-8.65335">
        <ele>18.981</ele>
        <time>2018-07-28T20:40:13Z</time>
      </trkpt>
      <trkpt lat="42.43636" lon="-8.65329">
        <ele>18.819</ele>
        <time>2018-07-28T20:40:14Z</time>
      </trkpt>
      <trkpt lat="42.43645" lon="-8.65325">
        <ele>18.608</ele>
        <time>2018-07-28T20:40:15Z</time>
      </trkpt>
      <trkpt lat="42.43654" lon="-8.65319">
        <ele>18.588</ele>
        <time>2018-07-28T20:40:16Z</time>
      </trkpt>
      <trkpt lat="42.43663" lon="-8.65314">
        <ele>18.323</ele>
        <time>2018-07-28T20:40:17Z</time>
      </trkpt>
      <trkpt lat="42.4367" lon="-8.65308">
        <ele>18.046</ele>
        <time>2018-07-28T20:40:18Z</time>
      </trkpt>
      <trkpt lat="42.43677" lon="-8.65302">
        <ele>17.278</ele>
        <time>2018-07-28T20:40:19Z</time>
      </trkpt>
      <trkpt lat="42.43683" lon="-8.65296">
        <ele>16.773</ele>
        <time>2018-07-28T20:40:20Z</time>
      </trkpt>
      <trkpt lat="42.43687" lon="-8.65289">
        <ele>16.228</ele>
        <time>2018-07-28T20:40:21Z</time>
      </trkpt>
      <trkpt lat="42.4369" lon="-8.6528">
        <ele>15.826</ele>
        <time>2018-07-28T20:40:22Z</time>
      </trkpt>
      <trkpt lat="42.43693" lon="-8.65269">
        <ele>15.612</ele>
        <time>2018-07-28T20:40:23Z</time>
      </trkpt>
      <trkpt lat="42.43696" lon="-8.65257">
        <ele>15.561</ele>
        <time>2018-07-28T20:40:24Z</time>
      </trkpt>
      <trkpt lat="42.43698" lon="-8.65245">
        <ele>15.421</ele>
        <time>2018-07-28T20:40:25Z</time>
      </trkpt>
      <trkpt lat="42.43699" lon="-8.65234">
        <ele>15.413</ele>
        <time>2018-07-28T20:40:26Z</time>
      </trkpt>
      <trkpt lat="42.43702" lon="-8.65225">
        <ele>15.308</ele>
        <time>2018-07-28T20:40:27Z</time>
      </trkpt>
      <trkpt lat="42.43706" lon="-8.65221">
        <ele>15.168</ele>
        <time>2018-07-28T20:40:28Z</time>
      </trkpt>
      <trkpt lat="42.43711" lon="-8.65216">
        <ele>14.843</ele>
        <time>2018-07-28T20:40:29Z</time>
      </trkpt>
      <trkpt lat="42.43718" lon="-8.65214">
        <ele>14.556</ele>
        <time>2018-07-28T20:40:30Z</time>
      </trkpt>
      <trkpt lat="42.43726" lon="-8.65216">
        <ele>14.348</ele>
        <time>2018-07-28T20:40:31Z</time>
      </trkpt>
      <trkpt lat="42.43734" lon="-8.65218">
        <ele>14.363</ele>
        <time>2018-07-28T20:40:32Z</time>
      </trkpt>
      <trkpt lat="42.43744" lon="-8.6522">
        <ele>14.488</ele>
        <time>2018-07-28T20:40:33Z</time>
      </trkpt>
      <trkpt lat="42.43754" lon="-8.65223">
        <ele>14.776</ele>
        <time>2018-07-28T20:40:34Z</time>
      </trkpt>
      <trkpt lat="42.43764" lon="-8.65225">
        <ele>15.112</ele>
        <time>2018-07-28T20:40:35Z</time>
      </trkpt>
      <trkpt lat="42.43775" lon="-8.65228">
        <ele>16.174</ele>
        <time>2018-07-28T20:40:36Z</time>
      </trkpt>
      <trkpt lat="42.43787" lon="-8.65228">
        <ele>16.556</ele>
        <time>2018-07-28T20:40:37Z</time>
      </trkpt>
      <trkpt lat="42.43798" lon="-8.65228">
        <ele>16.621</ele>
        <time>2018-07-28T20:40:38Z</time>
      </trkpt>
      <trkpt lat="42.43808" lon="-8.65224">
        <ele>16.608</ele>
        <time>2018-07-28T20:40:39Z</time>
      </trkpt>
      <trkpt lat="42.43818" lon="-8.65218">
        <ele>16.359</ele>
        <time>2018-07-28T20:40:40Z</time>
      </trkpt>
      <trkpt lat="42.43827" lon="-8.65209">
        <ele>16.174</ele>
        <time>2018-07-28T20:40:41Z</time>
      </trkpt>
      <trkpt lat="42.43835" lon="-8.65197">
        <ele>16.127</ele>
        <time>2018-07-28T20:40:42Z</time>
      </trkpt>
      <trkpt lat="42.43843" lon="-8.65184">
        <ele>16.399</ele>
        <time>2018-07-28T20:40:43Z</time>
      </trkpt>
      <trkpt lat="42.43851" lon="-8.65171">
        <ele>16.864</ele>
        <time>2018-07-28T20:40:44Z</time>
      </trkpt>
      <trkpt lat="42.43858" lon="-8.65159">
        <ele>17.579</ele>
        <time>2018-07-28T20:40:45Z</time>
      </trkpt>
      <trkpt lat="42.43865" lon="-8.6515">
        <ele>17.857</ele>
        <time>2018-07-28T20:40:46Z</time>
      </trkpt>
      <trkpt lat="42.43871" lon="-8.65141">
        <ele>17.893</ele>
        <time>2018-07-28T20:40:47Z</time>
      </trkpt>
      <trkpt lat="42.43875" lon="-8.65132">
        <ele>17.591</ele>
        <time>2018-07-28T20:40:48Z</time>
      </trkpt>
      <trkpt lat="42.43879" lon="-8.65123">
        <ele>16.981</ele>
        <time>2018-07-28T20:40:49Z</time>
      </trkpt>
      <trkpt lat="42.4388" lon="-8.65114">
        <ele>16.219</ele>
        <time>2018-07-28T20:40:50Z</time>
      </trkpt>
      <trkpt lat="42.43881" lon="-8.65104">
        <ele>15.708</ele>
        <time>2018-07-28T20:40:51Z</time>
      </trkpt>
      <trkpt lat="42.43878" lon="-8.65094">
        <ele>15.411</ele>
        <time>2018-07-28T20:40:52Z</time>
      </trkpt>
      <trkpt lat="42.43874" lon="-8.65084">
        <ele>15.446</ele>
        <time>2018-07-28T20:40:53Z</time>
      </trkpt>
      <trkpt lat="42.43869" lon="-8.65072">
        <ele>15.769</ele>
        <time>2018-07-28T20:40:54Z</time>
      </trkpt>
      <trkpt lat="42.4386" lon="-8.65062">
        <ele>16.241</ele>
        <time>2018-07-28T20:40:55Z</time>
      </trkpt>
      <trkpt lat="42.43851" lon="-8.65052">
        <ele>16.896</ele>
        <time>2018-07-28T20:40:56Z</time>
      </trkpt>
      <trkpt lat="42.4384" lon="-8.65044">
        <ele>17.561</ele>
        <time>2018-07-28T20:40:57Z</time>
      </trkpt>
      <trkpt lat="42.43829" lon="-8.65038">
        <ele>18.119</ele>
        <time>2018-07-28T20:40:58Z</time>
      </trkpt>
      <trkpt lat="42.43816" lon="-8.65035">
        <ele>18.455</ele>
        <time>2018-07-28T20:40:59Z</time>
      </trkpt>
      <trkpt lat="42.43802" lon="-8.65037">
        <ele>18.778</ele>
        <time>2018-07-28T20:41:00Z</time>
      </trkpt>
      <trkpt lat="42.43786" lon="-8.65043">
        <ele>19.033</ele>
        <time>2018-07-28T20:41:01Z</time>
      </trkpt>
      <trkpt lat="42.43768" lon="-8.65051">
        <ele>19.426</ele>
        <time>2018-07-28T20:41:02Z</time>
      </trkpt>
      <trkpt lat="42.4375" lon="-8.65059">
        <ele>19.908</ele>
        <time>2018-07-28T20:41:03Z</time>
      </trkpt>
      <trkpt lat="42.4373" lon="-8.65069">
        <ele>20.689</ele>
        <time>2018-07-28T20:41:04Z</time>
      </trkpt>
      <trkpt lat="42.4371" lon="-8.65079">
        <ele>21.054</ele>
        <time>2018-07-28T20:41:05Z</time>
      </trkpt>
      <trkpt lat="42.43691" lon="-8.65088">
        <ele>21.357</ele>
        <time>2018-07-28T20:41:06Z</time>
      </trkpt>
      <trkpt lat="42.43674" lon="-8.651">
        <ele>21.519</ele>
        <time>2018-07-28T20:41:07Z</time>
      </trkpt>
      <trkpt lat="42.43654" lon="-8.65112">
        <ele>21.824</ele>
        <time>2018-07-28T20:41:08Z</time>
      </trkpt>
      <trkpt lat="42.43632" lon="-8.65126">
        <ele>22.379</ele>
        <time>2018-07-28T20:41:09Z</time>
      </trkpt>
      <trkpt lat="42.43611" lon="-8.6514">
        <ele>23.177</ele>
        <time>2018-07-28T20:41:10Z</time>
      </trkpt>
      <trkpt lat="42.4359" lon="-8.65153">
        <ele>23.773</ele>
        <time>2018-07-28T20:41:11Z</time>
      </trkpt>
      <trkpt lat="42.43568" lon="-8.65166">
        <ele>24.148</ele>
        <time>2018-07-28T20:41:12Z</time>
      </trkpt>
      <trkpt lat="42.43546" lon="-8.65178">
        <ele>24.561</ele>
        <time>2018-07-28T20:41:13Z</time>
      </trkpt>
      <trkpt lat="42.43525" lon="-8.6519">
        <ele>24.917</ele>
        <time>2018-07-28T20:41:14Z</time>
      </trkpt>
      <trkpt lat="42.43503" lon="-8.65202">
        <ele>25.208</ele>
        <time>2018-07-28T20:41:15Z</time>
      </trkpt>
      <trkpt lat="42.43482" lon="-8.65216">
        <ele>25.596</ele>
        <time>2018-07-28T20:41:16Z</time>
      </trkpt>
      <trkpt lat="42.4346" lon="-8.65227">
        <ele>25.871</ele>
        <time>2018-07-28T20:41:17Z</time>
      </trkpt>
      <trkpt lat="42.4344" lon="-8.65244">
        <ele>26.154</ele>
        <time>2018-07-28T20:41:18Z</time>
      </trkpt>
      <trkpt lat="42.43419" lon="-8.65256">
        <ele>26.256</ele>
        <time>2018-07-28T20:41:19Z</time>
      </trkpt>
      <trkpt lat="42.434" lon="-8.65275">
        <ele>26.431</ele>
        <time>2018-07-28T20:41:20Z</time>
      </trkpt>
      <trkpt lat="42.43382" lon="-8.65297">
        <ele>26.846</ele>
        <time>2018-07-28T20:41:21Z</time>
      </trkpt>
      <trkpt lat="42.43364" lon="-8.65319">
        <ele>27.514</ele>
        <time>2018-07-28T20:41:22Z</time>
      </trkpt>
      <trkpt lat="42.43345" lon="-8.65346">
        <ele>28.27</ele>
        <time>2018-07-28T20:41:23Z</time>
      </trkpt>
      <trkpt lat="42.43328" lon="-8.65372">
        <ele>29.286</ele>
        <time>2018-07-28T20:41:24Z</time>
      </trkpt>
      <trkpt lat="42.4331" lon="-8.65399">
        <ele>29.66</ele>
        <time>2018-07-28T20:41:25Z</time>
      </trkpt>
      <trkpt lat="42.43292" lon="-8.65426">
        <ele>29.726</ele>
        <time>2018-07-28T20:41:26Z</time>
      </trkpt>
      <trkpt lat="42.43275" lon="-8.65454">
        <ele>29.908</ele>
        <time>2018-07-28T20:41:27Z</time>
      </trkpt>
      <trkpt lat="42.43251" lon="-8.65477">
        <ele>30.97</ele>
        <time>2018-07-28T20:41:28Z</time>
      </trkpt>
      <trkpt lat="42.43233" lon="-8.65504">
        <ele>31.255</ele>
        <time>2018-07-28T20:41:29Z</time>
      </trkpt>
      <trkpt lat="42.43213" lon="-8.6553">
        <ele>31.658</ele>
        <time>2018-07-28T20:41:30Z</time>
      </trkpt>
      <trkpt lat="42.43192" lon="-8.65551">
        <ele>32.26</ele>
        <time>2018-07-28T20:41:31Z</time>
      </trkpt>
      <trkpt lat="42.4317" lon="-8.65569">
        <ele>32.235</ele>
        <time>2018-07-28T20:41:32Z</time>
      </trkpt>
      <trkpt lat="42.43145" lon="-8.65589">
        <ele>32.13</ele>
        <time>2018-07-28T20:41:33Z</time>
      </trkpt>
      <trkpt lat="42.43122" lon="-8.65601">
        <ele>31.768</ele>
        <time>2018-07-28T20:41:34Z</time>
      </trkpt>
      <trkpt lat="42.43096" lon="-8.6561">
        <ele>31.314</ele>
        <time>2018-07-28T20:41:35Z</time>
      </trkpt>
      <trkpt lat="42.43071" lon="-8.65621">
        <ele>30.898</ele>
        <time>2018-07-28T20:41:36Z</time>
      </trkpt>
      <trkpt lat="42.43045" lon="-8.65631">
        <ele>30.415</ele>
        <time>2018-07-28T20:41:37Z</time>
      </trkpt>
      <trkpt lat="42.43017" lon="-8.65639">
        <ele>30.426</ele>
        <time>2018-07-28T20:41:38Z</time>
      </trkpt>
      <trkpt lat="42.42989" lon="-8.65644">
        <ele>30.908</ele>
        <time>2018-07-28T20:41:39Z</time>
      </trkpt>
      <trkpt lat="42.42962" lon="-8.65645">
        <ele>32.691</ele>
        <time>2018-07-28T20:41:40Z</time>
      </trkpt>
      <trkpt lat="42.42934" lon="-8.65642">
        <ele>33.926</ele>
        <time>2018-07-28T20:41:41Z</time>
      </trkpt>
      <trkpt lat="42.42907" lon="-8.65638">
        <ele>34.669</ele>
        <time>2018-07-28T20:41:42Z</time>
      </trkpt>
      <trkpt lat="42.4288" lon="-8.65633">
        <ele>35.281</ele>
        <time>2018-07-28T20:41:43Z</time>
      </trkpt>
      <trkpt lat="42.42855" lon="-8.65626">
        <ele>35.596</ele>
        <time>2018-07-28T20:41:44Z</time>
      </trkpt>
      <trkpt lat="42.42829" lon="-8.65617">
        <ele>35.741</ele>
        <time>2018-07-28T20:41:45Z</time>
      </trkpt>
      <trkpt lat="42.42805" lon="-8.65607">
        <ele>35.859</ele>
        <time>2018-07-28T20:41:46Z</time>
      </trkpt>
      <trkpt lat="42.4278" lon="-8.65593">
        <ele>35.925</ele>
        <time>2018-07-28T20:41:47Z</time>
      </trkpt>
      <trkpt lat="42.42755" lon="-8.65578">
        <ele>36.696</ele>
        <time>2018-07-28T20:41:48Z</time>
      </trkpt>
      <trkpt lat="42.42732" lon="-8.6556">
        <ele>37.431</ele>
        <time>2018-07-28T20:41:49Z</time>
      </trkpt>
      <trkpt lat="42.42709" lon="-8.6554">
        <ele>38.524</ele>
        <time>2018-07-28T20:41:50Z</time>
      </trkpt>
      <trkpt lat="42.42687" lon="-8.65518">
        <ele>39.808</ele>
        <time>2018-07-28T20:41:51Z</time>
      </trkpt>
      <trkpt lat="42.42665" lon="-8.65494">
        <ele>41.181</ele>
        <time>2018-07-28T20:41:52Z</time>
      </trkpt>
      <trkpt lat="42.42645" lon="-8.65467">
        <ele>41.986</ele>
        <time>2018-07-28T20:41:53Z</time>
      </trkpt>
      <trkpt lat="42.42624" lon="-8.65439">
        <ele>42.769</ele>
        <time>2018-07-28T20:41:54Z</time>
      </trkpt>
      <trkpt lat="42.42603" lon="-8.65411">
        <ele>43.741</ele>
        <time>2018-07-28T20:41:55Z</time>
      </trkpt>
      <trkpt lat="42.4258" lon="-8.65383">
        <ele>44.276</ele>
        <time>2018-07-28T20:41:56Z</time>
      </trkpt>
      <trkpt lat="42.42558" lon="-8.65356">
        <ele>44.881</ele>
        <time>2018-07-28T20:41:57Z</time>
      </trkpt>
      <trkpt lat="42.42535" lon="-8.6533">
        <ele>44.829</ele>
        <time>2018-07-28T20:41:58Z</time>
      </trkpt>
      <trkpt lat="42.42513" lon="-8.65304">
        <ele>44.585</ele>
        <time>2018-07-28T20:41:59Z</time>
      </trkpt>
      <trkpt lat="42.42491" lon="-8.65279">
        <ele>44.267</ele>
        <time>2018-07-28T20:42:00Z</time>
      </trkpt>
      <trkpt lat="42.42469" lon="-8.65253">
        <ele>43.781</ele>
        <time>2018-07-28T20:42:01Z</time>
      </trkpt>
      <trkpt lat="42.42448" lon="-8.65225">
        <ele>43.019</ele>
        <time>2018-07-28T20:42:02Z</time>
      </trkpt>
      <trkpt lat="42.42425" lon="-8.65199">
        <ele>42.708</ele>
        <time>2018-07-28T20:42:03Z</time>
      </trkpt>
      <trkpt lat="42.42404" lon="-8.65172">
        <ele>42.428</ele>
        <time>2018-07-28T20:42:04Z</time>
      </trkpt>
      <trkpt lat="42.42382" lon="-8.65143">
        <ele>42.093</ele>
        <time>2018-07-28T20:42:05Z</time>
      </trkpt>
      <trkpt lat="42.42356" lon="-8.65122">
        <ele>41.766</ele>
        <time>2018-07-28T20:42:06Z</time>
      </trkpt>
      <trkpt lat="42.4233" lon="-8.65103">
        <ele>41.278</ele>
        <time>2018-07-28T20:42:07Z</time>
      </trkpt>
      <trkpt lat="42.42301" lon="-8.65091">
        <ele>40.863</ele>
        <time>2018-07-28T20:42:08Z</time>
      </trkpt>
      <trkpt lat="42.42273" lon="-8.6508">
        <ele>40.438</ele>
        <time>2018-07-28T20:42:09Z</time>
        <extensions>
          <visugpx:TrkExtension xmlns:visugpx="https://www.visugpx.com/editgpx/">
            <visugpx:node>4</visugpx:node>
            </visugpx:TrkExtension>
        </extensions>
      </trkpt>
    </trkseg>
  </trk>
</gpx>